<?xml version="1.0" encoding="UTF-8" standalone="no" ?>
<gpx xmlns="http://www.topografix.com/GPX/1/1" creator="MapSource 6.16.3" version="1.1" xmlns:xsi="http://www.w3.org/2001/XMLSchema-instance" xsi:schemaLocation="http://www.topografix.com/GPX/1/1 http://www.topografix.com/GPX/1/1/gpx.xsd">

  <metadata>
    <link href="http://www.garmin.com">
      <text>Garmin International</text>
    </link>
    <time>2017-06-19T16:09:05Z</time>
    <bounds maxlat="42.080827206373215" maxlon="13.822694588452578" minlat="41.70675971545279" minlon="12.803468573838472"/>
  </metadata>

  <trk>
    <name>Via Dei Lupi</name>
    <desc>2017-06-11 16:14:55</desc>
    <link href="Via%20Dei%20Lupi"/>
    <trkseg>
      <trkpt lat="41.966313477605581" lon="12.803601510822773">
        <ele>229.41000399999999</ele>
        <time>2017-06-11T05:35:52Z</time>
      </trkpt>
      <trkpt lat="41.966312807053328" lon="12.80359991826117">
        <ele>229.41000399999999</ele>
        <time>2017-06-11T05:35:53Z</time>
      </trkpt>
      <trkpt lat="41.966283638030291" lon="12.803588602691889">
        <ele>237.57998699999999</ele>
        <time>2017-06-11T05:35:57Z</time>
      </trkpt>
      <trkpt lat="41.966261425986886" lon="12.803577203303576">
        <ele>235.66000399999999</ele>
        <time>2017-06-11T05:35:59Z</time>
      </trkpt>
      <trkpt lat="41.966143324971199" lon="12.803522134199739">
        <ele>237.57998699999999</ele>
        <time>2017-06-11T05:36:09Z</time>
      </trkpt>
      <trkpt lat="41.9660983979702" lon="12.803468573838472">
        <ele>237.57998699999999</ele>
        <time>2017-06-11T05:36:14Z</time>
      </trkpt>
      <trkpt lat="41.966051962226629" lon="12.803490366786718">
        <ele>238.05999800000001</ele>
        <time>2017-06-11T05:36:19Z</time>
      </trkpt>
      <trkpt lat="41.966109210625291" lon="12.803594134747982">
        <ele>242.86999499999999</ele>
        <time>2017-06-11T05:36:28Z</time>
      </trkpt>
      <trkpt lat="41.966130835935473" lon="12.803613832220435">
        <ele>240.949997</ele>
        <time>2017-06-11T05:36:30Z</time>
      </trkpt>
      <trkpt lat="41.966188419610262" lon="12.803642665967345">
        <ele>241.91000399999999</ele>
        <time>2017-06-11T05:36:35Z</time>
      </trkpt>
      <trkpt lat="41.966302413493395" lon="12.803723467513919">
        <ele>245.26998900000001</ele>
        <time>2017-06-11T05:36:50Z</time>
      </trkpt>
      <trkpt lat="41.966352704912424" lon="12.803879790008068">
        <ele>247.199997</ele>
        <time>2017-06-11T05:37:02Z</time>
      </trkpt>
      <trkpt lat="41.966361841186881" lon="12.803942738100886">
        <ele>247.68000799999999</ele>
        <time>2017-06-11T05:37:08Z</time>
      </trkpt>
      <trkpt lat="41.96637399494648" lon="12.803981965407729">
        <ele>249.60000600000001</ele>
        <time>2017-06-11T05:37:12Z</time>
      </trkpt>
      <trkpt lat="41.96639159694314" lon="12.80410123988986">
        <ele>251.040009</ele>
        <time>2017-06-11T05:37:24Z</time>
      </trkpt>
      <trkpt lat="41.966420514509082" lon="12.804202828556299">
        <ele>252.96000699999999</ele>
        <time>2017-06-11T05:37:36Z</time>
      </trkpt>
      <trkpt lat="41.96643216535449" lon="12.804338866844773">
        <ele>254.88999899999999</ele>
        <time>2017-06-11T05:37:50Z</time>
      </trkpt>
      <trkpt lat="41.96644339710474" lon="12.804465182125568">
        <ele>256.80999800000001</ele>
        <time>2017-06-11T05:38:03Z</time>
      </trkpt>
      <trkpt lat="41.966454461216927" lon="12.804563166573644">
        <ele>259.209991</ele>
        <time>2017-06-11T05:38:13Z</time>
      </trkpt>
      <trkpt lat="41.966467285528779" lon="12.80468855984509">
        <ele>261.61999500000002</ele>
        <time>2017-06-11T05:38:27Z</time>
      </trkpt>
      <trkpt lat="41.966461418196559" lon="12.804829962551594">
        <ele>263.540009</ele>
        <time>2017-06-11T05:38:40Z</time>
      </trkpt>
      <trkpt lat="41.966452281922102" lon="12.804954769089818">
        <ele>265.94000199999999</ele>
        <time>2017-06-11T05:38:53Z</time>
      </trkpt>
      <trkpt lat="41.96639645844698" lon="12.804956026375294">
        <ele>266.42001299999998</ele>
        <time>2017-06-11T05:39:05Z</time>
      </trkpt>
      <trkpt lat="41.96638866327703" lon="12.804936328902841">
        <ele>267.38000499999998</ele>
        <time>2017-06-11T05:39:07Z</time>
      </trkpt>
      <trkpt lat="41.966346083208919" lon="12.804820407181978">
        <ele>267.86001599999997</ele>
        <time>2017-06-11T05:39:18Z</time>
      </trkpt>
      <trkpt lat="41.966285984963179" lon="12.804702389985323">
        <ele>268.82998700000002</ele>
        <time>2017-06-11T05:39:30Z</time>
      </trkpt>
      <trkpt lat="41.96620836853981" lon="12.804553024470806">
        <ele>269.30999800000001</ele>
        <time>2017-06-11T05:39:44Z</time>
      </trkpt>
      <trkpt lat="41.966137122362852" lon="12.804435677826405">
        <ele>270.75</ele>
        <time>2017-06-11T05:39:57Z</time>
      </trkpt>
      <trkpt lat="41.966063277795911" lon="12.804349008947611">
        <ele>272.67001299999998</ele>
        <time>2017-06-11T05:40:10Z</time>
      </trkpt>
      <trkpt lat="41.965981805697083" lon="12.804263429716229">
        <ele>274.58999599999999</ele>
        <time>2017-06-11T05:40:23Z</time>
      </trkpt>
      <trkpt lat="41.965913996100426" lon="12.804182041436434">
        <ele>276.040009</ele>
        <time>2017-06-11T05:40:35Z</time>
      </trkpt>
      <trkpt lat="41.965831434354186" lon="12.804121859371662">
        <ele>277.959991</ele>
        <time>2017-06-11T05:40:47Z</time>
      </trkpt>
      <trkpt lat="41.965738562867045" lon="12.804045500233769">
        <ele>278.92001299999998</ele>
        <time>2017-06-11T05:41:01Z</time>
      </trkpt>
      <trkpt lat="41.965676620602608" lon="12.804000740870833">
        <ele>280.83999599999999</ele>
        <time>2017-06-11T05:41:12Z</time>
      </trkpt>
      <trkpt lat="41.965578384697437" lon="12.803934188559651">
        <ele>280.83999599999999</ele>
        <time>2017-06-11T05:41:25Z</time>
      </trkpt>
      <trkpt lat="41.965539492666721" lon="12.803910635411739">
        <ele>280.83999599999999</ele>
        <time>2017-06-11T05:41:30Z</time>
      </trkpt>
      <trkpt lat="41.965437401086092" lon="12.803908539935946">
        <ele>282.76998900000001</ele>
        <time>2017-06-11T05:41:44Z</time>
      </trkpt>
      <trkpt lat="41.965376883745193" lon="12.803927734494209">
        <ele>285.64999399999999</ele>
        <time>2017-06-11T05:41:57Z</time>
      </trkpt>
      <trkpt lat="41.965309660881758" lon="12.803905522450805">
        <ele>286.61001599999997</ele>
        <time>2017-06-11T05:42:09Z</time>
      </trkpt>
      <trkpt lat="41.965236403048038" lon="12.803884232416749">
        <ele>288.05001800000002</ele>
        <time>2017-06-11T05:42:21Z</time>
      </trkpt>
      <trkpt lat="41.965201199054718" lon="12.803869815543294">
        <ele>288.52999899999998</ele>
        <time>2017-06-11T05:42:26Z</time>
      </trkpt>
      <trkpt lat="41.965162726119161" lon="12.803893368691206">
        <ele>289.48998999999998</ele>
        <time>2017-06-11T05:42:39Z</time>
      </trkpt>
      <trkpt lat="41.965190889313817" lon="12.803914323449135">
        <ele>290.94000199999999</ele>
        <time>2017-06-11T05:42:45Z</time>
      </trkpt>
      <trkpt lat="41.965222740545869" lon="12.804004261270165">
        <ele>292.86001599999997</ele>
        <time>2017-06-11T05:42:57Z</time>
      </trkpt>
      <trkpt lat="41.965196337550879" lon="12.804055390879512">
        <ele>294.77999899999998</ele>
        <time>2017-06-11T05:43:10Z</time>
      </trkpt>
      <trkpt lat="41.965122073888779" lon="12.804071400314569">
        <ele>296.22000100000002</ele>
        <time>2017-06-11T05:43:20Z</time>
      </trkpt>
      <trkpt lat="41.965005062520504" lon="12.804088164120913">
        <ele>296.69998199999998</ele>
        <time>2017-06-11T05:43:32Z</time>
      </trkpt>
      <trkpt lat="41.964923087507486" lon="12.804125798866153">
        <ele>297.669983</ele>
        <time>2017-06-11T05:43:44Z</time>
      </trkpt>
      <trkpt lat="41.964885285124183" lon="12.804167624562979">
        <ele>299.11001599999997</ele>
        <time>2017-06-11T05:43:52Z</time>
      </trkpt>
      <trkpt lat="41.964879585430026" lon="12.804309194907546">
        <ele>301.02999899999998</ele>
        <time>2017-06-11T05:44:05Z</time>
      </trkpt>
      <trkpt lat="41.96488662622869" lon="12.804402988404036">
        <ele>301.02999899999998</ele>
        <time>2017-06-11T05:44:14Z</time>
      </trkpt>
      <trkpt lat="41.964866928756237" lon="12.804477838799357">
        <ele>301.98998999999998</ele>
        <time>2017-06-11T05:44:22Z</time>
      </trkpt>
      <trkpt lat="41.964799705892801" lon="12.804592335596681">
        <ele>303.91000400000001</ele>
        <time>2017-06-11T05:44:35Z</time>
      </trkpt>
      <trkpt lat="41.964756958186626" lon="12.804701635614038">
        <ele>305.83999599999999</ele>
        <time>2017-06-11T05:44:47Z</time>
      </trkpt>
      <trkpt lat="41.964671965688467" lon="12.804786125198007">
        <ele>305.83999599999999</ele>
        <time>2017-06-11T05:45:01Z</time>
      </trkpt>
      <trkpt lat="41.964637935161591" lon="12.804863909259439">
        <ele>303.91000400000001</ele>
        <time>2017-06-11T05:45:17Z</time>
      </trkpt>
      <trkpt lat="41.964599210768938" lon="12.80499491840601">
        <ele>302.47000100000002</ele>
        <time>2017-06-11T05:45:31Z</time>
      </trkpt>
      <trkpt lat="41.96457389742136" lon="12.805158281698823">
        <ele>302.94998199999998</ele>
        <time>2017-06-11T05:45:44Z</time>
      </trkpt>
      <trkpt lat="41.964553110301495" lon="12.805321561172605">
        <ele>302.94998199999998</ele>
        <time>2017-06-11T05:45:55Z</time>
      </trkpt>
      <trkpt lat="41.964570041745901" lon="12.805427424609661">
        <ele>303.42999300000002</ele>
        <time>2017-06-11T05:46:04Z</time>
      </trkpt>
      <trkpt lat="41.964576160535216" lon="12.805522391572595">
        <ele>305.83999599999999</ele>
        <time>2017-06-11T05:46:16Z</time>
      </trkpt>
      <trkpt lat="41.964586805552244" lon="12.805642336606979">
        <ele>307.76001000000002</ele>
        <time>2017-06-11T05:46:29Z</time>
      </trkpt>
      <trkpt lat="41.964579680934548" lon="12.805737806484103">
        <ele>309.67999300000002</ele>
        <time>2017-06-11T05:46:40Z</time>
      </trkpt>
      <trkpt lat="41.964535927399993" lon="12.805866803973913">
        <ele>311.60000600000001</ele>
        <time>2017-06-11T05:46:52Z</time>
      </trkpt>
      <trkpt lat="41.964530227705836" lon="12.805898739024997">
        <ele>311.60000600000001</ele>
        <time>2017-06-11T05:46:55Z</time>
      </trkpt>
      <trkpt lat="41.964496532455087" lon="12.805989934131503">
        <ele>313.52999899999998</ele>
        <time>2017-06-11T05:47:08Z</time>
      </trkpt>
      <trkpt lat="41.964445570483804" lon="12.806049361824989">
        <ele>315.44998199999998</ele>
        <time>2017-06-11T05:47:20Z</time>
      </trkpt>
      <trkpt lat="41.964448671787977" lon="12.806159080937505">
        <ele>317.85000600000001</ele>
        <time>2017-06-11T05:47:32Z</time>
      </trkpt>
      <trkpt lat="41.964440038427711" lon="12.80620333738625">
        <ele>317.85000600000001</ele>
        <time>2017-06-11T05:47:37Z</time>
      </trkpt>
      <trkpt lat="41.964397123083472" lon="12.806341303512454">
        <ele>320.26001000000002</ele>
        <time>2017-06-11T05:47:50Z</time>
      </trkpt>
      <trkpt lat="41.964356638491154" lon="12.806446831673384">
        <ele>322.17999300000002</ele>
        <time>2017-06-11T05:48:02Z</time>
      </trkpt>
      <trkpt lat="41.96427583694458" lon="12.806574320420623">
        <ele>323.14001500000001</ele>
        <time>2017-06-11T05:48:16Z</time>
      </trkpt>
      <trkpt lat="41.964241722598672" lon="12.80667926184833">
        <ele>323.61999500000002</ele>
        <time>2017-06-11T05:48:28Z</time>
      </trkpt>
      <trkpt lat="41.964271394535899" lon="12.806675992906094">
        <ele>325.05999800000001</ele>
        <time>2017-06-11T05:48:36Z</time>
      </trkpt>
      <trkpt lat="41.964291594922543" lon="12.806670125573874">
        <ele>325.05999800000001</ele>
        <time>2017-06-11T05:48:39Z</time>
      </trkpt>
      <trkpt lat="41.964308861643076" lon="12.806701641529799">
        <ele>326.01998900000001</ele>
        <time>2017-06-11T05:48:43Z</time>
      </trkpt>
      <trkpt lat="41.964277680963278" lon="12.806823514401913">
        <ele>327.94998199999998</ele>
        <time>2017-06-11T05:48:55Z</time>
      </trkpt>
      <trkpt lat="41.96425630711019" lon="12.806860981509089">
        <ele>328.42999300000002</ele>
        <time>2017-06-11T05:49:00Z</time>
      </trkpt>
      <trkpt lat="41.964160669595003" lon="12.806875566020608">
        <ele>330.830017</ele>
        <time>2017-06-11T05:49:13Z</time>
      </trkpt>
      <trkpt lat="41.96406620554626" lon="12.806866681203246">
        <ele>331.790009</ele>
        <time>2017-06-11T05:49:25Z</time>
      </trkpt>
      <trkpt lat="41.964100236073136" lon="12.806925186887383">
        <ele>334.19998199999998</ele>
        <time>2017-06-11T05:49:37Z</time>
      </trkpt>
      <trkpt lat="41.964119514450431" lon="12.807010682299733">
        <ele>336.11999500000002</ele>
        <time>2017-06-11T05:49:51Z</time>
      </trkpt>
      <trkpt lat="41.964114233851433" lon="12.807038761675358">
        <ele>336.60000600000001</ele>
        <time>2017-06-11T05:50:04Z</time>
      </trkpt>
      <trkpt lat="41.964211631566286" lon="12.807171363383532">
        <ele>338.040009</ele>
        <time>2017-06-11T05:50:21Z</time>
      </trkpt>
      <trkpt lat="41.96424993686378" lon="12.807182427495718">
        <ele>339</ele>
        <time>2017-06-11T05:50:25Z</time>
      </trkpt>
      <trkpt lat="41.964296875521541" lon="12.80718938447535">
        <ele>339.96002199999998</ele>
        <time>2017-06-11T05:50:29Z</time>
      </trkpt>
      <trkpt lat="41.964320261031389" lon="12.807344198226929">
        <ele>341.89001500000001</ele>
        <time>2017-06-11T05:50:43Z</time>
      </trkpt>
      <trkpt lat="41.964334258809686" lon="12.807452576234937">
        <ele>343.80999800000001</ele>
        <time>2017-06-11T05:50:56Z</time>
      </trkpt>
      <trkpt lat="41.96433543227613" lon="12.807526839897037">
        <ele>345.73001099999999</ele>
        <time>2017-06-11T05:51:09Z</time>
      </trkpt>
      <trkpt lat="41.964351190254092" lon="12.807586183771491">
        <ele>348.13000499999998</ele>
        <time>2017-06-11T05:51:21Z</time>
      </trkpt>
      <trkpt lat="41.964354878291488" lon="12.807691460475326">
        <ele>350.05999800000001</ele>
        <time>2017-06-11T05:51:34Z</time>
      </trkpt>
      <trkpt lat="41.964348927140236" lon="12.807860188186169">
        <ele>351.5</ele>
        <time>2017-06-11T05:51:49Z</time>
      </trkpt>
      <trkpt lat="41.964336270466447" lon="12.80797359533608">
        <ele>353.89999399999999</ele>
        <time>2017-06-11T05:52:02Z</time>
      </trkpt>
      <trkpt lat="41.964333839714527" lon="12.808007877320051">
        <ele>353.89999399999999</ele>
        <time>2017-06-11T05:52:06Z</time>
      </trkpt>
      <trkpt lat="41.964301401749253" lon="12.808073088526726">
        <ele>354.38000499999998</ele>
        <time>2017-06-11T05:52:13Z</time>
      </trkpt>
      <trkpt lat="41.964283464476466" lon="12.808108292520046">
        <ele>354.86001599999997</ele>
        <time>2017-06-11T05:52:17Z</time>
      </trkpt>
      <trkpt lat="41.964178858324885" lon="12.808140814304352">
        <ele>355.33999599999999</ele>
        <time>2017-06-11T05:52:27Z</time>
      </trkpt>
      <trkpt lat="41.964070731773973" lon="12.808151291683316">
        <ele>356.30999800000001</ele>
        <time>2017-06-11T05:52:39Z</time>
      </trkpt>
      <trkpt lat="41.96400267072022" lon="12.808181717991829">
        <ele>359.18997200000001</ele>
        <time>2017-06-11T05:52:52Z</time>
      </trkpt>
      <trkpt lat="41.963978363201022" lon="12.808249108493328">
        <ele>361.11001599999997</ele>
        <time>2017-06-11T05:53:04Z</time>
      </trkpt>
      <trkpt lat="41.963966377079487" lon="12.808336699381471">
        <ele>362.07000699999998</ele>
        <time>2017-06-11T05:53:17Z</time>
      </trkpt>
      <trkpt lat="41.96396553888917" lon="12.808421440422535">
        <ele>364.48001099999999</ele>
        <time>2017-06-11T05:53:29Z</time>
      </trkpt>
      <trkpt lat="41.963969562202692" lon="12.808448513969779">
        <ele>365.43997200000001</ele>
        <time>2017-06-11T05:53:33Z</time>
      </trkpt>
      <trkpt lat="41.963984901085496" lon="12.808564938604832">
        <ele>366.88000499999998</ele>
        <time>2017-06-11T05:53:46Z</time>
      </trkpt>
      <trkpt lat="41.963956570252776" lon="12.808664683252573">
        <ele>368.79998799999998</ele>
        <time>2017-06-11T05:53:59Z</time>
      </trkpt>
      <trkpt lat="41.963944165036082" lon="12.808774067088962">
        <ele>371.21002199999998</ele>
        <time>2017-06-11T05:54:12Z</time>
      </trkpt>
      <trkpt lat="41.963940728455782" lon="12.80881111510098">
        <ele>371.21002199999998</ele>
        <time>2017-06-11T05:54:16Z</time>
      </trkpt>
      <trkpt lat="41.963885659351945" lon="12.808894263580441">
        <ele>373.61001599999997</ele>
        <time>2017-06-11T05:54:28Z</time>
      </trkpt>
      <trkpt lat="41.963856238871813" lon="12.808993337675929">
        <ele>374.57000699999998</ele>
        <time>2017-06-11T05:54:42Z</time>
      </trkpt>
      <trkpt lat="41.963835787028074" lon="12.809083107858896">
        <ele>376.48998999999998</ele>
        <time>2017-06-11T05:54:55Z</time>
      </trkpt>
      <trkpt lat="41.963796140626073" lon="12.809154521673918">
        <ele>378.419983</ele>
        <time>2017-06-11T05:55:06Z</time>
      </trkpt>
      <trkpt lat="41.963798403739929" lon="12.809230629354715">
        <ele>379.38000499999998</ele>
        <time>2017-06-11T05:55:15Z</time>
      </trkpt>
      <trkpt lat="41.963798236101866" lon="12.80931101180613">
        <ele>380.33999599999999</ele>
        <time>2017-06-11T05:55:23Z</time>
      </trkpt>
      <trkpt lat="41.963770072907209" lon="12.809416959062219">
        <ele>382.73998999999998</ele>
        <time>2017-06-11T05:55:33Z</time>
      </trkpt>
      <trkpt lat="41.963679296895862" lon="12.809518966823816">
        <ele>383.22000100000002</ele>
        <time>2017-06-11T05:55:46Z</time>
      </trkpt>
      <trkpt lat="41.963616767898202" lon="12.809609826654196">
        <ele>385.14999399999999</ele>
        <time>2017-06-11T05:56:01Z</time>
      </trkpt>
      <trkpt lat="41.963590867817402" lon="12.809674199670553">
        <ele>386.11001599999997</ele>
        <time>2017-06-11T05:56:10Z</time>
      </trkpt>
      <trkpt lat="41.963558681309223" lon="12.809794563800097">
        <ele>388.02999899999998</ele>
        <time>2017-06-11T05:56:22Z</time>
      </trkpt>
      <trkpt lat="41.963488608598709" lon="12.809912329539657">
        <ele>389.47000100000002</ele>
        <time>2017-06-11T05:56:36Z</time>
      </trkpt>
      <trkpt lat="41.963449297472835" lon="12.81000729650259">
        <ele>391.38998400000003</ele>
        <time>2017-06-11T05:56:47Z</time>
      </trkpt>
      <trkpt lat="41.963387606665492" lon="12.810103939846158">
        <ele>392.83999599999999</ele>
        <time>2017-06-11T05:57:00Z</time>
      </trkpt>
      <trkpt lat="41.963382409885526" lon="12.810245007276535">
        <ele>394.27999899999998</ele>
        <time>2017-06-11T05:57:13Z</time>
      </trkpt>
      <trkpt lat="41.963364807888865" lon="12.810281636193395">
        <ele>394.27999899999998</ele>
        <time>2017-06-11T05:57:17Z</time>
      </trkpt>
      <trkpt lat="41.963345780968666" lon="12.810312565416098">
        <ele>394.76001000000002</ele>
        <time>2017-06-11T05:57:21Z</time>
      </trkpt>
      <trkpt lat="41.963313678279519" lon="12.810468720272183">
        <ele>395.72000100000002</ele>
        <time>2017-06-11T05:57:35Z</time>
      </trkpt>
      <trkpt lat="41.963302027434111" lon="12.810620181262493">
        <ele>396.20001200000002</ele>
        <time>2017-06-11T05:57:49Z</time>
      </trkpt>
      <trkpt lat="41.963289538398385" lon="12.810650020837784">
        <ele>396.68002300000001</ele>
        <time>2017-06-11T05:57:52Z</time>
      </trkpt>
      <trkpt lat="41.963257016614079" lon="12.810819838196039">
        <ele>397.16000400000001</ele>
        <time>2017-06-11T05:58:06Z</time>
      </trkpt>
      <trkpt lat="41.963221561163664" lon="12.810959564521909">
        <ele>397.63998400000003</ele>
        <time>2017-06-11T05:58:20Z</time>
      </trkpt>
      <trkpt lat="41.963220136240125" lon="12.811002731323242">
        <ele>397.63998400000003</ele>
        <time>2017-06-11T05:58:23Z</time>
      </trkpt>
      <trkpt lat="41.963195996358991" lon="12.811080012470484">
        <ele>398.11999500000002</ele>
        <time>2017-06-11T05:58:30Z</time>
      </trkpt>
      <trkpt lat="41.963187782093883" lon="12.811247734352946">
        <ele>398.11999500000002</ele>
        <time>2017-06-11T05:58:44Z</time>
      </trkpt>
      <trkpt lat="41.963190380483866" lon="12.811293164268136">
        <ele>398.11999500000002</ele>
        <time>2017-06-11T05:58:48Z</time>
      </trkpt>
      <trkpt lat="41.963187111541629" lon="12.811330463737249">
        <ele>398.60000600000001</ele>
        <time>2017-06-11T05:58:51Z</time>
      </trkpt>
      <trkpt lat="41.96317546069622" lon="12.8114780690521">
        <ele>399.57000699999998</ele>
        <time>2017-06-11T05:59:03Z</time>
      </trkpt>
      <trkpt lat="41.963153081014752" lon="12.811660626903176">
        <ele>400.04998799999998</ele>
        <time>2017-06-11T05:59:18Z</time>
      </trkpt>
      <trkpt lat="41.963168922811747" lon="12.811760874465108">
        <ele>400.04998799999998</ele>
        <time>2017-06-11T05:59:27Z</time>
      </trkpt>
      <trkpt lat="41.963165486231446" lon="12.811859110370278">
        <ele>400.04998799999998</ele>
        <time>2017-06-11T05:59:35Z</time>
      </trkpt>
      <trkpt lat="41.963181914761662" lon="12.81204585917294">
        <ele>401.97000100000002</ele>
        <time>2017-06-11T05:59:50Z</time>
      </trkpt>
      <trkpt lat="41.963200774043798" lon="12.812192207202315">
        <ele>403.41000400000001</ele>
        <time>2017-06-11T06:00:03Z</time>
      </trkpt>
      <trkpt lat="41.963209826499224" lon="12.812325563281775">
        <ele>403.88998400000003</ele>
        <time>2017-06-11T06:00:15Z</time>
      </trkpt>
      <trkpt lat="41.963220974430442" lon="12.812452465295792">
        <ele>405.80999800000001</ele>
        <time>2017-06-11T06:00:28Z</time>
      </trkpt>
      <trkpt lat="41.963217705488205" lon="12.812514407560229">
        <ele>407.26001000000002</ele>
        <time>2017-06-11T06:00:34Z</time>
      </trkpt>
      <trkpt lat="41.963224411010742" lon="12.812545085325837">
        <ele>407.26001000000002</ele>
        <time>2017-06-11T06:00:37Z</time>
      </trkpt>
      <trkpt lat="41.963242264464498" lon="12.812675004824996">
        <ele>408.70001200000002</ele>
        <time>2017-06-11T06:00:50Z</time>
      </trkpt>
      <trkpt lat="41.963255675509572" lon="12.812800062820315">
        <ele>409.66000400000001</ele>
        <time>2017-06-11T06:01:02Z</time>
      </trkpt>
      <trkpt lat="41.963252741843462" lon="12.812910871580243">
        <ele>411.580017</ele>
        <time>2017-06-11T06:01:13Z</time>
      </trkpt>
      <trkpt lat="41.96324435994029" lon="12.813024362549186">
        <ele>413.5</ele>
        <time>2017-06-11T06:01:26Z</time>
      </trkpt>
      <trkpt lat="41.963245868682861" lon="12.813050262629986">
        <ele>414.47000100000002</ele>
        <time>2017-06-11T06:01:29Z</time>
      </trkpt>
      <trkpt lat="41.963257938623428" lon="12.813169034197927">
        <ele>416.38998400000003</ele>
        <time>2017-06-11T06:01:43Z</time>
      </trkpt>
      <trkpt lat="41.963273864239454" lon="12.813280262053013">
        <ele>418.78997800000002</ele>
        <time>2017-06-11T06:01:56Z</time>
      </trkpt>
      <trkpt lat="41.96330881677568" lon="12.8134276997298">
        <ele>420.709991</ele>
        <time>2017-06-11T06:02:11Z</time>
      </trkpt>
      <trkpt lat="41.963356174528599" lon="12.813521241769195">
        <ele>423.11999500000002</ele>
        <time>2017-06-11T06:02:26Z</time>
      </trkpt>
      <trkpt lat="41.963390624150634" lon="12.813603384420276">
        <ele>424.55999800000001</ele>
        <time>2017-06-11T06:02:37Z</time>
      </trkpt>
      <trkpt lat="41.963417613878846" lon="12.813706314191222">
        <ele>426.48001099999999</ele>
        <time>2017-06-11T06:02:49Z</time>
      </trkpt>
      <trkpt lat="41.963430605828762" lon="12.813807064667344">
        <ele>429.36999500000002</ele>
        <time>2017-06-11T06:03:01Z</time>
      </trkpt>
      <trkpt lat="41.963472263887525" lon="12.813891638070345">
        <ele>430.80999800000001</ele>
        <time>2017-06-11T06:03:12Z</time>
      </trkpt>
      <trkpt lat="41.963507384061813" lon="12.813990209251642">
        <ele>432.73001099999999</ele>
        <time>2017-06-11T06:03:25Z</time>
      </trkpt>
      <trkpt lat="41.963522220030427" lon="12.814031364396214">
        <ele>433.69000199999999</ele>
        <time>2017-06-11T06:03:31Z</time>
      </trkpt>
      <trkpt lat="41.963539235293865" lon="12.814145106822252">
        <ele>434.64999399999999</ele>
        <time>2017-06-11T06:03:42Z</time>
      </trkpt>
      <trkpt lat="41.963565470650792" lon="12.81420411542058">
        <ele>435.60998499999999</ele>
        <time>2017-06-11T06:03:49Z</time>
      </trkpt>
      <trkpt lat="41.963640321046114" lon="12.814327999949455">
        <ele>436.580017</ele>
        <time>2017-06-11T06:04:03Z</time>
      </trkpt>
      <trkpt lat="41.96371098048985" lon="12.814494799822569">
        <ele>436.580017</ele>
        <time>2017-06-11T06:04:17Z</time>
      </trkpt>
      <trkpt lat="41.963828662410378" lon="12.814629413187504">
        <ele>436.580017</ele>
        <time>2017-06-11T06:04:32Z</time>
      </trkpt>
      <trkpt lat="41.963836625218391" lon="12.814634358510375">
        <ele>436.580017</ele>
        <time>2017-06-11T06:04:33Z</time>
      </trkpt>
      <trkpt lat="41.963889095932245" lon="12.814681883901358">
        <ele>436.580017</ele>
        <time>2017-06-11T06:04:38Z</time>
      </trkpt>
      <trkpt lat="41.963909966871142" lon="12.814710466191173">
        <ele>435.60998499999999</ele>
        <time>2017-06-11T06:04:41Z</time>
      </trkpt>
      <trkpt lat="41.964021362364292" lon="12.814865028485656">
        <ele>434.64999399999999</ele>
        <time>2017-06-11T06:04:57Z</time>
      </trkpt>
      <trkpt lat="41.964131500571966" lon="12.815023362636566">
        <ele>434.17001299999998</ele>
        <time>2017-06-11T06:05:12Z</time>
      </trkpt>
      <trkpt lat="41.964260498061776" lon="12.815165519714355">
        <ele>435.13000499999998</ele>
        <time>2017-06-11T06:05:27Z</time>
      </trkpt>
      <trkpt lat="41.964358817785978" lon="12.815221175551414">
        <ele>437.05999800000001</ele>
        <time>2017-06-11T06:05:39Z</time>
      </trkpt>
      <trkpt lat="41.964406175538898" lon="12.815281022340059">
        <ele>438.01998900000001</ele>
        <time>2017-06-11T06:05:46Z</time>
      </trkpt>
      <trkpt lat="41.964463423937559" lon="12.815324440598488">
        <ele>438.5</ele>
        <time>2017-06-11T06:05:53Z</time>
      </trkpt>
      <trkpt lat="41.964507261291146" lon="12.815463915467262">
        <ele>439.94000199999999</ele>
        <time>2017-06-11T06:06:06Z</time>
      </trkpt>
      <trkpt lat="41.964584877714515" lon="12.815593499690294">
        <ele>441.85998499999999</ele>
        <time>2017-06-11T06:06:20Z</time>
      </trkpt>
      <trkpt lat="41.964656375348568" lon="12.815690562129021">
        <ele>443.78997800000002</ele>
        <time>2017-06-11T06:06:33Z</time>
      </trkpt>
      <trkpt lat="41.964720161631703" lon="12.815805561840534">
        <ele>445.23001099999999</ele>
        <time>2017-06-11T06:06:45Z</time>
      </trkpt>
      <trkpt lat="41.96474933065474" lon="12.815919304266572">
        <ele>447.63000499999998</ele>
        <time>2017-06-11T06:06:58Z</time>
      </trkpt>
      <trkpt lat="41.964767519384623" lon="12.815950568765402">
        <ele>448.58999599999999</ele>
        <time>2017-06-11T06:07:04Z</time>
      </trkpt>
      <trkpt lat="41.964842285960913" lon="12.816023910418153">
        <ele>451</ele>
        <time>2017-06-11T06:07:19Z</time>
      </trkpt>
      <trkpt lat="41.96492912247777" lon="12.816077303141356">
        <ele>451.959991</ele>
        <time>2017-06-11T06:07:32Z</time>
      </trkpt>
      <trkpt lat="41.965024340897799" lon="12.816124493256211">
        <ele>452.92001299999998</ele>
        <time>2017-06-11T06:07:46Z</time>
      </trkpt>
      <trkpt lat="41.965115703642368" lon="12.816159361973405">
        <ele>454.35998499999999</ele>
        <time>2017-06-11T06:07:59Z</time>
      </trkpt>
      <trkpt lat="41.965215364471078" lon="12.816208060830832">
        <ele>455.80001800000002</ele>
        <time>2017-06-11T06:08:13Z</time>
      </trkpt>
      <trkpt lat="41.965338159352541" lon="12.816304033622146">
        <ele>457.23998999999998</ele>
        <time>2017-06-11T06:08:29Z</time>
      </trkpt>
      <trkpt lat="41.965366406366229" lon="12.816341836005449">
        <ele>457.72000100000002</ele>
        <time>2017-06-11T06:08:34Z</time>
      </trkpt>
      <trkpt lat="41.965454919263721" lon="12.816500337794423">
        <ele>458.69000199999999</ele>
        <time>2017-06-11T06:08:49Z</time>
      </trkpt>
      <trkpt lat="41.965526668354869" lon="12.816596897318959">
        <ele>460.13000499999998</ele>
        <time>2017-06-11T06:09:00Z</time>
      </trkpt>
      <trkpt lat="41.965605039149523" lon="12.816724302247167">
        <ele>460.60998499999999</ele>
        <time>2017-06-11T06:09:13Z</time>
      </trkpt>
      <trkpt lat="41.965619120746851" lon="12.816740563139319">
        <ele>460.60998499999999</ele>
        <time>2017-06-11T06:09:15Z</time>
      </trkpt>
      <trkpt lat="41.965728420764208" lon="12.816878026351333">
        <ele>461.08999599999999</ele>
        <time>2017-06-11T06:09:31Z</time>
      </trkpt>
      <trkpt lat="41.965834284201264" lon="12.816944159567356">
        <ele>462.05001800000002</ele>
        <time>2017-06-11T06:09:43Z</time>
      </trkpt>
      <trkpt lat="41.965943332761526" lon="12.817012472078204">
        <ele>463.00997899999999</ele>
        <time>2017-06-11T06:09:55Z</time>
      </trkpt>
      <trkpt lat="41.966038718819618" lon="12.817048178985715">
        <ele>463.97000100000002</ele>
        <time>2017-06-11T06:10:07Z</time>
      </trkpt>
      <trkpt lat="41.96605397388339" lon="12.817045580595732">
        <ele>463.97000100000002</ele>
        <time>2017-06-11T06:10:09Z</time>
      </trkpt>
      <trkpt lat="41.966176768764853" lon="12.816996714100242">
        <ele>465.42001299999998</ele>
        <time>2017-06-11T06:10:23Z</time>
      </trkpt>
      <trkpt lat="41.96627190336585" lon="12.816968383267522">
        <ele>466.85998499999999</ele>
        <time>2017-06-11T06:10:34Z</time>
      </trkpt>
      <trkpt lat="41.966293193399906" lon="12.816959163174033">
        <ele>467.33999599999999</ele>
        <time>2017-06-11T06:10:36Z</time>
      </trkpt>
      <trkpt lat="41.966420682147145" lon="12.816897220909595">
        <ele>468.779968</ele>
        <time>2017-06-11T06:10:51Z</time>
      </trkpt>
      <trkpt lat="41.966489916667342" lon="12.816867381334305">
        <ele>469.73998999999998</ele>
        <time>2017-06-11T06:11:00Z</time>
      </trkpt>
      <trkpt lat="41.966608436778188" lon="12.816835697740316">
        <ele>470.70001200000002</ele>
        <time>2017-06-11T06:11:11Z</time>
      </trkpt>
      <trkpt lat="41.96675319224596" lon="12.816799571737647">
        <ele>471.66000400000001</ele>
        <time>2017-06-11T06:11:25Z</time>
      </trkpt>
      <trkpt lat="41.966874310746789" lon="12.816811976954341">
        <ele>471.66000400000001</ele>
        <time>2017-06-11T06:11:38Z</time>
      </trkpt>
      <trkpt lat="41.967009510844946" lon="12.816851874813437">
        <ele>471.66000400000001</ele>
        <time>2017-06-11T06:11:51Z</time>
      </trkpt>
      <trkpt lat="41.967028873041272" lon="12.816860927268863">
        <ele>471.66000400000001</ele>
        <time>2017-06-11T06:11:53Z</time>
      </trkpt>
      <trkpt lat="41.967167425900698" lon="12.816939214244485">
        <ele>471.66000400000001</ele>
        <time>2017-06-11T06:12:07Z</time>
      </trkpt>
      <trkpt lat="41.967221070080996" lon="12.816966539248824">
        <ele>471.66000400000001</ele>
        <time>2017-06-11T06:12:14Z</time>
      </trkpt>
      <trkpt lat="41.967341518029571" lon="12.816877188161016">
        <ele>472.14001500000001</ele>
        <time>2017-06-11T06:12:28Z</time>
      </trkpt>
      <trkpt lat="41.967464061453938" lon="12.816868219524622">
        <ele>472.14001500000001</ele>
        <time>2017-06-11T06:12:40Z</time>
      </trkpt>
      <trkpt lat="41.967542935162783" lon="12.816921109333634">
        <ele>472.14001500000001</ele>
        <time>2017-06-11T06:12:49Z</time>
      </trkpt>
      <trkpt lat="41.967623820528388" lon="12.816931838169694">
        <ele>472.63000499999998</ele>
        <time>2017-06-11T06:12:57Z</time>
      </trkpt>
      <trkpt lat="41.967721302062273" lon="12.816887833178043">
        <ele>471.66000400000001</ele>
        <time>2017-06-11T06:13:08Z</time>
      </trkpt>
      <trkpt lat="41.967804031446576" lon="12.816880289465189">
        <ele>471.66000400000001</ele>
        <time>2017-06-11T06:13:16Z</time>
      </trkpt>
      <trkpt lat="41.967822639271617" lon="12.816871991381049">
        <ele>471.66000400000001</ele>
        <time>2017-06-11T06:13:18Z</time>
      </trkpt>
      <trkpt lat="41.96788583882153" lon="12.816824465990067">
        <ele>471.17999300000002</ele>
        <time>2017-06-11T06:13:32Z</time>
      </trkpt>
      <trkpt lat="41.96794493123889" lon="12.81690426170826">
        <ele>472.63000499999998</ele>
        <time>2017-06-11T06:13:44Z</time>
      </trkpt>
      <trkpt lat="41.967948535457253" lon="12.816912895068526">
        <ele>472.63000499999998</ele>
        <time>2017-06-11T06:13:45Z</time>
      </trkpt>
      <trkpt lat="41.967973010614514" lon="12.816937370225787">
        <ele>473.10998499999999</ele>
        <time>2017-06-11T06:13:50Z</time>
      </trkpt>
      <trkpt lat="41.968016931787133" lon="12.816953379660845">
        <ele>473.58999599999999</ele>
        <time>2017-06-11T06:13:56Z</time>
      </trkpt>
      <trkpt lat="41.968096559867263" lon="12.816949272528291">
        <ele>475.50997899999999</ele>
        <time>2017-06-11T06:14:08Z</time>
      </trkpt>
      <trkpt lat="41.9681740924716" lon="12.816955223679543">
        <ele>476.47000100000002</ele>
        <time>2017-06-11T06:14:18Z</time>
      </trkpt>
      <trkpt lat="41.968180127441883" lon="12.816957235336304">
        <ele>476.95001200000002</ele>
        <time>2017-06-11T06:14:19Z</time>
      </trkpt>
      <trkpt lat="41.968200076371431" lon="12.816962264478207">
        <ele>477.42999300000002</ele>
        <time>2017-06-11T06:14:21Z</time>
      </trkpt>
      <trkpt lat="41.968239387497306" lon="12.816939130425453">
        <ele>477.91000400000001</ele>
        <time>2017-06-11T06:14:28Z</time>
      </trkpt>
      <trkpt lat="41.968279117718339" lon="12.816897640004754">
        <ele>478.39001500000001</ele>
        <time>2017-06-11T06:14:34Z</time>
      </trkpt>
      <trkpt lat="41.968313483521342" lon="12.816865537315607">
        <ele>477.91000400000001</ele>
        <time>2017-06-11T06:14:39Z</time>
      </trkpt>
      <trkpt lat="41.968340137973428" lon="12.816854137927294">
        <ele>477.91000400000001</ele>
        <time>2017-06-11T06:14:42Z</time>
      </trkpt>
      <trkpt lat="41.968368217349052" lon="12.81684273853898">
        <ele>478.39001500000001</ele>
        <time>2017-06-11T06:14:45Z</time>
      </trkpt>
      <trkpt lat="41.968416161835194" lon="12.816816587001085">
        <ele>479.35000600000001</ele>
        <time>2017-06-11T06:14:51Z</time>
      </trkpt>
      <trkpt lat="41.968500399962068" lon="12.816722374409437">
        <ele>480.80001800000002</ele>
        <time>2017-06-11T06:15:04Z</time>
      </trkpt>
      <trkpt lat="41.968530239537358" lon="12.816699659451842">
        <ele>480.80001800000002</ele>
        <time>2017-06-11T06:15:08Z</time>
      </trkpt>
      <trkpt lat="41.968556474894285" lon="12.816686667501926">
        <ele>481.28002900000001</ele>
        <time>2017-06-11T06:15:12Z</time>
      </trkpt>
      <trkpt lat="41.968578100204468" lon="12.81668197363615">
        <ele>481.75997899999999</ele>
        <time>2017-06-11T06:15:15Z</time>
      </trkpt>
      <trkpt lat="41.968621267005801" lon="12.81665263697505">
        <ele>482.23998999999998</ele>
        <time>2017-06-11T06:15:22Z</time>
      </trkpt>
      <trkpt lat="41.968687735497952" lon="12.816617684438825">
        <ele>483.67999300000002</ele>
        <time>2017-06-11T06:15:33Z</time>
      </trkpt>
      <trkpt lat="41.968731572851539" lon="12.816605614498258">
        <ele>485.60000600000001</ele>
        <time>2017-06-11T06:15:40Z</time>
      </trkpt>
      <trkpt lat="41.968788569793105" lon="12.816597819328308">
        <ele>486.07998700000002</ele>
        <time>2017-06-11T06:15:51Z</time>
      </trkpt>
      <trkpt lat="41.968836765736341" lon="12.816571332514286">
        <ele>487.53002900000001</ele>
        <time>2017-06-11T06:16:00Z</time>
      </trkpt>
      <trkpt lat="41.968895858153701" lon="12.81650117598474">
        <ele>488.97000100000002</ele>
        <time>2017-06-11T06:16:10Z</time>
      </trkpt>
      <trkpt lat="41.968905162066221" lon="12.816487094387412">
        <ele>488.97000100000002</ele>
        <time>2017-06-11T06:16:12Z</time>
      </trkpt>
      <trkpt lat="41.968965092673898" lon="12.816464463248849">
        <ele>491.36999500000002</ele>
        <time>2017-06-11T06:16:23Z</time>
      </trkpt>
      <trkpt lat="41.968985041603446" lon="12.816453482955694">
        <ele>491.36999500000002</ele>
        <time>2017-06-11T06:16:27Z</time>
      </trkpt>
      <trkpt lat="41.969059640541673" lon="12.816447531804442">
        <ele>492.80999800000001</ele>
        <time>2017-06-11T06:16:37Z</time>
      </trkpt>
      <trkpt lat="41.969071375206113" lon="12.816441580653191">
        <ele>493.77001999999999</ele>
        <time>2017-06-11T06:16:39Z</time>
      </trkpt>
      <trkpt lat="41.969100125133991" lon="12.816434958949685">
        <ele>494.25997899999999</ele>
        <time>2017-06-11T06:16:43Z</time>
      </trkpt>
      <trkpt lat="41.969130970537663" lon="12.816444430500269">
        <ele>494.73998999999998</ele>
        <time>2017-06-11T06:16:47Z</time>
      </trkpt>
      <trkpt lat="41.969145890325308" lon="12.816434539854527">
        <ele>495.22000100000002</ele>
        <time>2017-06-11T06:16:50Z</time>
      </trkpt>
      <trkpt lat="41.969199534505606" lon="12.816400760784745">
        <ele>496.66000400000001</ele>
        <time>2017-06-11T06:16:59Z</time>
      </trkpt>
      <trkpt lat="41.969231469556689" lon="12.816382236778736">
        <ele>497.13998400000003</ele>
        <time>2017-06-11T06:17:04Z</time>
      </trkpt>
      <trkpt lat="41.969285197556019" lon="12.816393803805113">
        <ele>497.61999500000002</ele>
        <time>2017-06-11T06:17:11Z</time>
      </trkpt>
      <trkpt lat="41.969367088750005" lon="12.816414758563042">
        <ele>499.540009</ele>
        <time>2017-06-11T06:17:21Z</time>
      </trkpt>
      <trkpt lat="41.96941620670259" lon="12.816407801583409">
        <ele>500.97998000000001</ele>
        <time>2017-06-11T06:17:27Z</time>
      </trkpt>
      <trkpt lat="41.969457613304257" lon="12.81640587374568">
        <ele>501.459991</ele>
        <time>2017-06-11T06:17:32Z</time>
      </trkpt>
      <trkpt lat="41.96949147619307" lon="12.816403275355697">
        <ele>501.95001200000002</ele>
        <time>2017-06-11T06:17:36Z</time>
      </trkpt>
      <trkpt lat="41.969519471749663" lon="12.81640687957406">
        <ele>501.95001200000002</ele>
        <time>2017-06-11T06:17:39Z</time>
      </trkpt>
      <trkpt lat="41.969546461477876" lon="12.816419368609786">
        <ele>502.42999300000002</ele>
        <time>2017-06-11T06:17:42Z</time>
      </trkpt>
      <trkpt lat="41.969610834494233" lon="12.816437976434827">
        <ele>503.38998400000003</ele>
        <time>2017-06-11T06:17:49Z</time>
      </trkpt>
      <trkpt lat="41.969643523916602" lon="12.816447867080569">
        <ele>503.86999500000002</ele>
        <time>2017-06-11T06:17:53Z</time>
      </trkpt>
      <trkpt lat="41.969677470624447" lon="12.816464798524976">
        <ele>503.86999500000002</ele>
        <time>2017-06-11T06:17:57Z</time>
      </trkpt>
      <trkpt lat="41.969711584970355" lon="12.816469324752688">
        <ele>504.82998700000002</ele>
        <time>2017-06-11T06:18:01Z</time>
      </trkpt>
      <trkpt lat="41.969759529456496" lon="12.816471420228481">
        <ele>504.82998700000002</ele>
        <time>2017-06-11T06:18:06Z</time>
      </trkpt>
      <trkpt lat="41.9698491320014" lon="12.816475359722972">
        <ele>505.30999800000001</ele>
        <time>2017-06-11T06:18:15Z</time>
      </trkpt>
      <trkpt lat="41.969898082315922" lon="12.816480807960033">
        <ele>505.30999800000001</ele>
        <time>2017-06-11T06:18:20Z</time>
      </trkpt>
      <trkpt lat="41.969947535544634" lon="12.816482568159699">
        <ele>505.790009</ele>
        <time>2017-06-11T06:18:25Z</time>
      </trkpt>
      <trkpt lat="41.969991708174348" lon="12.816477958112955">
        <ele>506.27001999999999</ele>
        <time>2017-06-11T06:18:29Z</time>
      </trkpt>
      <trkpt lat="41.970031019300222" lon="12.816477958112955">
        <ele>506.75003099999998</ele>
        <time>2017-06-11T06:18:33Z</time>
      </trkpt>
      <trkpt lat="41.970077622681856" lon="12.816484663635492">
        <ele>507.22998000000001</ele>
        <time>2017-06-11T06:18:38Z</time>
      </trkpt>
      <trkpt lat="41.970155239105225" lon="12.816506959497929">
        <ele>507.709991</ele>
        <time>2017-06-11T06:18:46Z</time>
      </trkpt>
      <trkpt lat="41.970236711204052" lon="12.816502014175057">
        <ele>508.67001299999998</ele>
        <time>2017-06-11T06:18:58Z</time>
      </trkpt>
      <trkpt lat="41.970256241038442" lon="12.816511234268546">
        <ele>509.16000400000001</ele>
        <time>2017-06-11T06:19:11Z</time>
      </trkpt>
      <trkpt lat="41.970314159989357" lon="12.816501259803772">
        <ele>509.16000400000001</ele>
        <time>2017-06-11T06:19:18Z</time>
      </trkpt>
      <trkpt lat="41.970349615439773" lon="12.81647820957005">
        <ele>509.63998400000003</ele>
        <time>2017-06-11T06:19:22Z</time>
      </trkpt>
      <trkpt lat="41.970454640686512" lon="12.816417692229152">
        <ele>510.60000600000001</ele>
        <time>2017-06-11T06:19:35Z</time>
      </trkpt>
      <trkpt lat="41.970480037853122" lon="12.816406460478902">
        <ele>511.07998700000002</ele>
        <time>2017-06-11T06:19:38Z</time>
      </trkpt>
      <trkpt lat="41.970499735325575" lon="12.816401263698936">
        <ele>511.07998700000002</ele>
        <time>2017-06-11T06:19:41Z</time>
      </trkpt>
      <trkpt lat="41.97058891877532" lon="12.816404197365046">
        <ele>513</ele>
        <time>2017-06-11T06:19:52Z</time>
      </trkpt>
      <trkpt lat="41.970647424459457" lon="12.816439233720303">
        <ele>513.47997999999995</ele>
        <time>2017-06-11T06:20:02Z</time>
      </trkpt>
      <trkpt lat="41.970690758898854" lon="12.816460775211453">
        <ele>513.96002199999998</ele>
        <time>2017-06-11T06:20:09Z</time>
      </trkpt>
      <trkpt lat="41.970788240432739" lon="12.816473599523306">
        <ele>515.88000499999998</ele>
        <time>2017-06-11T06:20:21Z</time>
      </trkpt>
      <trkpt lat="41.970863258466125" lon="12.816467899829149">
        <ele>516.85003700000004</ele>
        <time>2017-06-11T06:20:31Z</time>
      </trkpt>
      <trkpt lat="41.97092168033123" lon="12.816468570381403">
        <ele>518.28997800000002</ele>
        <time>2017-06-11T06:20:39Z</time>
      </trkpt>
      <trkpt lat="41.970940204337239" lon="12.816479885950685">
        <ele>519.25</ele>
        <time>2017-06-11T06:20:41Z</time>
      </trkpt>
      <trkpt lat="41.971004325896502" lon="12.816547024995089">
        <ele>519.25</ele>
        <time>2017-06-11T06:20:53Z</time>
      </trkpt>
      <trkpt lat="41.971074230968952" lon="12.816573511809111">
        <ele>521.169983</ele>
        <time>2017-06-11T06:21:02Z</time>
      </trkpt>
      <trkpt lat="41.971135586500168" lon="12.816571081057191">
        <ele>522.13000499999998</ele>
        <time>2017-06-11T06:21:11Z</time>
      </trkpt>
      <trkpt lat="41.971223261207342" lon="12.816682476550341">
        <ele>522.60998500000005</ele>
        <time>2017-06-11T06:21:24Z</time>
      </trkpt>
      <trkpt lat="41.971273301169276" lon="12.816674932837486">
        <ele>524.05999799999995</ele>
        <time>2017-06-11T06:21:32Z</time>
      </trkpt>
      <trkpt lat="41.971287382766604" lon="12.816669903695583">
        <ele>524.53997800000002</ele>
        <time>2017-06-11T06:21:34Z</time>
      </trkpt>
      <trkpt lat="41.971350163221359" lon="12.816690858453512">
        <ele>525.97997999999995</ele>
        <time>2017-06-11T06:21:46Z</time>
      </trkpt>
      <trkpt lat="41.971358796581626" lon="12.816690439358354">
        <ele>525.97997999999995</ele>
        <time>2017-06-11T06:21:47Z</time>
      </trkpt>
      <trkpt lat="41.971382014453411" lon="12.816705023869872">
        <ele>526.46002199999998</ele>
        <time>2017-06-11T06:21:59Z</time>
      </trkpt>
      <trkpt lat="41.971430126577616" lon="12.816707538440824">
        <ele>527.89996299999996</ele>
        <time>2017-06-11T06:22:07Z</time>
      </trkpt>
      <trkpt lat="41.971455439925194" lon="12.816724302247167">
        <ele>526.46002199999998</ele>
        <time>2017-06-11T06:22:12Z</time>
      </trkpt>
      <trkpt lat="41.971487877890468" lon="12.81672497279942">
        <ele>529.34002699999996</ele>
        <time>2017-06-11T06:22:18Z</time>
      </trkpt>
      <trkpt lat="41.971455775201321" lon="12.816761014983058">
        <ele>527.89996299999996</ele>
        <time>2017-06-11T06:22:22Z</time>
      </trkpt>
      <trkpt lat="41.971473293378949" lon="12.816870231181383">
        <ele>527.89996299999996</ele>
        <time>2017-06-11T06:22:31Z</time>
      </trkpt>
      <trkpt lat="41.971505898982286" lon="12.816909039393067">
        <ele>528.85998500000005</ele>
        <time>2017-06-11T06:22:36Z</time>
      </trkpt>
      <trkpt lat="41.97157446295023" lon="12.816946841776371">
        <ele>531.27002000000005</ele>
        <time>2017-06-11T06:22:48Z</time>
      </trkpt>
      <trkpt lat="41.971632465720177" lon="12.816967964172363">
        <ele>532.22997999999995</ele>
        <time>2017-06-11T06:22:59Z</time>
      </trkpt>
      <trkpt lat="41.971698766574264" lon="12.817005598917603">
        <ele>534.14996299999996</ele>
        <time>2017-06-11T06:23:09Z</time>
      </trkpt>
      <trkpt lat="41.971741430461407" lon="12.817088076844811">
        <ele>534.63000499999998</ele>
        <time>2017-06-11T06:23:22Z</time>
      </trkpt>
      <trkpt lat="41.971797840669751" lon="12.817169297486544">
        <ele>536.54998799999998</ele>
        <time>2017-06-11T06:23:35Z</time>
      </trkpt>
      <trkpt lat="41.971855005249381" lon="12.817207099869847">
        <ele>538.96002199999998</ele>
        <time>2017-06-11T06:23:45Z</time>
      </trkpt>
      <trkpt lat="41.97191258892417" lon="12.817252026870847">
        <ele>540.88000499999998</ele>
        <time>2017-06-11T06:23:56Z</time>
      </trkpt>
      <trkpt lat="41.971979476511478" lon="12.81726392917335">
        <ele>540.88000499999998</ele>
        <time>2017-06-11T06:24:07Z</time>
      </trkpt>
      <trkpt lat="41.972020464017987" lon="12.817325033247471">
        <ele>542.32000700000003</ele>
        <time>2017-06-11T06:24:19Z</time>
      </trkpt>
      <trkpt lat="41.972100762650371" lon="12.81736359000206">
        <ele>544.23999000000003</ele>
        <time>2017-06-11T06:24:32Z</time>
      </trkpt>
      <trkpt lat="41.97210906073451" lon="12.817371636629105">
        <ele>544.72003199999995</ele>
        <time>2017-06-11T06:24:34Z</time>
      </trkpt>
      <trkpt lat="41.972167734056711" lon="12.81742176041007">
        <ele>546.64996299999996</ele>
        <time>2017-06-11T06:24:44Z</time>
      </trkpt>
      <trkpt lat="41.972272088751197" lon="12.817502226680517">
        <ele>547.60998500000005</ele>
        <time>2017-06-11T06:24:58Z</time>
      </trkpt>
      <trkpt lat="41.972345262765884" lon="12.817563498392701">
        <ele>549.04998799999998</ele>
        <time>2017-06-11T06:25:10Z</time>
      </trkpt>
      <trkpt lat="41.972395973280072" lon="12.817590236663818">
        <ele>549.52996800000005</ele>
        <time>2017-06-11T06:25:22Z</time>
      </trkpt>
      <trkpt lat="41.972411563619971" lon="12.817606329917908">
        <ele>549.52996800000005</ele>
        <time>2017-06-11T06:25:25Z</time>
      </trkpt>
      <trkpt lat="41.972545590251684" lon="12.81769341789186">
        <ele>549.52996800000005</ele>
        <time>2017-06-11T06:25:39Z</time>
      </trkpt>
      <trkpt lat="41.972636114805937" lon="12.817734237760305">
        <ele>549.52996800000005</ele>
        <time>2017-06-11T06:25:48Z</time>
      </trkpt>
      <trkpt lat="41.972780702635646" lon="12.817760724574327">
        <ele>548.09002699999996</ele>
        <time>2017-06-11T06:26:01Z</time>
      </trkpt>
      <trkpt lat="41.972795622423291" lon="12.817759634926915">
        <ele>548.09002699999996</ele>
        <time>2017-06-11T06:26:02Z</time>
      </trkpt>
      <trkpt lat="41.972917662933469" lon="12.817846136167645">
        <ele>548.09002699999996</ele>
        <time>2017-06-11T06:26:16Z</time>
      </trkpt>
      <trkpt lat="41.972925793379545" lon="12.817853009328246">
        <ele>548.09002699999996</ele>
        <time>2017-06-11T06:26:17Z</time>
      </trkpt>
      <trkpt lat="41.973053533583879" lon="12.817901540547609">
        <ele>548.09002699999996</ele>
        <time>2017-06-11T06:26:29Z</time>
      </trkpt>
      <trkpt lat="41.97315763682127" lon="12.817965410649776">
        <ele>549.52996800000005</ele>
        <time>2017-06-11T06:26:38Z</time>
      </trkpt>
      <trkpt lat="41.973297782242298" lon="12.818050235509872">
        <ele>550.01000999999997</ele>
        <time>2017-06-11T06:26:52Z</time>
      </trkpt>
      <trkpt lat="41.973433485254645" lon="12.81811167486012">
        <ele>550.97003199999995</ele>
        <time>2017-06-11T06:27:05Z</time>
      </trkpt>
      <trkpt lat="41.973520908504725" lon="12.818150315433741">
        <ele>550.97003199999995</ele>
        <time>2017-06-11T06:27:17Z</time>
      </trkpt>
      <trkpt lat="41.97365116328001" lon="12.818178562447429">
        <ele>550.97003199999995</ele>
        <time>2017-06-11T06:27:27Z</time>
      </trkpt>
      <trkpt lat="41.973726265132427" lon="12.818232122808695">
        <ele>551.92999299999997</ele>
        <time>2017-06-11T06:27:34Z</time>
      </trkpt>
      <trkpt lat="41.973859369754791" lon="12.818294735625386">
        <ele>552.40997300000004</ele>
        <time>2017-06-11T06:27:47Z</time>
      </trkpt>
      <trkpt lat="41.973975710570812" lon="12.818350894376636">
        <ele>552.89996299999996</ele>
        <time>2017-06-11T06:27:59Z</time>
      </trkpt>
      <trkpt lat="41.974058523774147" lon="12.818381823599339">
        <ele>553.85998500000005</ele>
        <time>2017-06-11T06:28:10Z</time>
      </trkpt>
      <trkpt lat="41.974116275086999" lon="12.818412836641073">
        <ele>554.34002699999996</ele>
        <time>2017-06-11T06:28:16Z</time>
      </trkpt>
      <trkpt lat="41.974210906773806" lon="12.81843370757997">
        <ele>554.82000700000003</ele>
        <time>2017-06-11T06:28:25Z</time>
      </trkpt>
      <trkpt lat="41.974300509318709" lon="12.818515263497829">
        <ele>555.77996800000005</ele>
        <time>2017-06-11T06:28:35Z</time>
      </trkpt>
      <trkpt lat="41.974371504038572" lon="12.818568488582969">
        <ele>557.22003199999995</ele>
        <time>2017-06-11T06:28:44Z</time>
      </trkpt>
      <trkpt lat="41.974398158490658" lon="12.818600423634052">
        <ele>557.22003199999995</ele>
        <time>2017-06-11T06:28:48Z</time>
      </trkpt>
      <trkpt lat="41.974496394395828" lon="12.818666640669107">
        <ele>559.14001499999995</ele>
        <time>2017-06-11T06:29:00Z</time>
      </trkpt>
      <trkpt lat="41.974569065496325" lon="12.818708969280124">
        <ele>560.10998500000005</ele>
        <time>2017-06-11T06:29:09Z</time>
      </trkpt>
      <trkpt lat="41.974608460441232" lon="12.818742077797651">
        <ele>561.07000700000003</ele>
        <time>2017-06-11T06:29:14Z</time>
      </trkpt>
      <trkpt lat="41.974677527323365" lon="12.818809384480119">
        <ele>562.51000999999997</ele>
        <time>2017-06-11T06:29:24Z</time>
      </trkpt>
      <trkpt lat="41.9747603405267" lon="12.818880463019013">
        <ele>564.90997300000004</ele>
        <time>2017-06-11T06:29:36Z</time>
      </trkpt>
      <trkpt lat="41.974821360781789" lon="12.818938633427024">
        <ele>566.830017</ele>
        <time>2017-06-11T06:29:48Z</time>
      </trkpt>
      <trkpt lat="41.974834436550736" lon="12.818948859348893">
        <ele>566.830017</ele>
        <time>2017-06-11T06:29:53Z</time>
      </trkpt>
      <trkpt lat="41.974901240319014" lon="12.819029241800308">
        <ele>567.79998799999998</ele>
        <time>2017-06-11T06:30:05Z</time>
      </trkpt>
      <trkpt lat="41.974958991631866" lon="12.819111468270421">
        <ele>569.23999000000003</ele>
        <time>2017-06-11T06:30:16Z</time>
      </trkpt>
      <trkpt lat="41.974992016330361" lon="12.819154635071754">
        <ele>569.23999000000003</ele>
        <time>2017-06-11T06:30:21Z</time>
      </trkpt>
      <trkpt lat="41.975013138726354" lon="12.819218337535858">
        <ele>567.79998799999998</ele>
        <time>2017-06-11T06:30:32Z</time>
      </trkpt>
      <trkpt lat="41.975052114576101" lon="12.819258905947208">
        <ele>567.32000700000003</ele>
        <time>2017-06-11T06:30:39Z</time>
      </trkpt>
      <trkpt lat="41.975073236972094" lon="12.819281620904803">
        <ele>568.76000999999997</ele>
        <time>2017-06-11T06:30:42Z</time>
      </trkpt>
      <trkpt lat="41.975083127617836" lon="12.819285308942199">
        <ele>567.32000700000003</ele>
        <time>2017-06-11T06:30:44Z</time>
      </trkpt>
      <trkpt lat="41.97512386366725" lon="12.819290840998292">
        <ele>566.830017</ele>
        <time>2017-06-11T06:30:58Z</time>
      </trkpt>
      <trkpt lat="41.975135179236531" lon="12.819296205416322">
        <ele>566.830017</ele>
        <time>2017-06-11T06:31:19Z</time>
      </trkpt>
      <trkpt lat="41.975131239742041" lon="12.819294696673751">
        <ele>566.830017</ele>
        <time>2017-06-11T06:31:50Z</time>
      </trkpt>
      <trkpt lat="41.975124701857567" lon="12.819302324205637">
        <ele>567.32000700000003</ele>
        <time>2017-06-11T06:32:28Z</time>
      </trkpt>
      <trkpt lat="41.975137609988451" lon="12.819294361397624">
        <ele>567.32000700000003</ele>
        <time>2017-06-11T06:33:01Z</time>
      </trkpt>
      <trkpt lat="41.97529686614871" lon="12.819273825734854">
        <ele>565.86999500000002</ele>
        <time>2017-06-11T06:33:17Z</time>
      </trkpt>
      <trkpt lat="41.975343888625503" lon="12.819257816299796">
        <ele>565.39001499999995</ele>
        <time>2017-06-11T06:33:27Z</time>
      </trkpt>
      <trkpt lat="41.975519070401788" lon="12.819214398041368">
        <ele>563.95001200000002</ele>
        <time>2017-06-11T06:33:41Z</time>
      </trkpt>
      <trkpt lat="41.975708585232496" lon="12.819085568189621">
        <ele>562.02996800000005</ele>
        <time>2017-06-11T06:33:59Z</time>
      </trkpt>
      <trkpt lat="41.975787794217467" lon="12.819118089973927">
        <ele>560.10998500000005</ele>
        <time>2017-06-11T06:34:15Z</time>
      </trkpt>
      <trkpt lat="41.975801037624478" lon="12.819104176014662">
        <ele>561.07000700000003</ele>
        <time>2017-06-11T06:34:39Z</time>
      </trkpt>
      <trkpt lat="41.975898435339332" lon="12.819097805768251">
        <ele>559.14001499999995</ele>
        <time>2017-06-11T06:34:56Z</time>
      </trkpt>
      <trkpt lat="41.975946631282568" lon="12.819073665887117">
        <ele>559.14001499999995</ele>
        <time>2017-06-11T06:35:02Z</time>
      </trkpt>
      <trkpt lat="41.976032881066203" lon="12.819128567352891">
        <ele>560.10998500000005</ele>
        <time>2017-06-11T06:35:10Z</time>
      </trkpt>
      <trkpt lat="41.976067498326302" lon="12.819150863215327">
        <ele>558.65997300000004</ele>
        <time>2017-06-11T06:35:14Z</time>
      </trkpt>
      <trkpt lat="41.976102702319622" lon="12.819158239290118">
        <ele>558.65997300000004</ele>
        <time>2017-06-11T06:35:18Z</time>
      </trkpt>
      <trkpt lat="41.976259863004088" lon="12.819214398041368">
        <ele>558.17999299999997</ele>
        <time>2017-06-11T06:35:32Z</time>
      </trkpt>
      <trkpt lat="41.976344436407089" lon="12.819248512387276">
        <ele>559.61999500000002</ele>
        <time>2017-06-11T06:35:45Z</time>
      </trkpt>
      <trkpt lat="41.97635667398572" lon="12.819271562620997">
        <ele>558.65997300000004</ele>
        <time>2017-06-11T06:36:08Z</time>
      </trkpt>
      <trkpt lat="41.976368660107255" lon="12.819283464923501">
        <ele>559.61999500000002</ele>
        <time>2017-06-11T06:36:24Z</time>
      </trkpt>
      <trkpt lat="41.97648910805583" lon="12.819319339469075">
        <ele>559.61999500000002</ele>
        <time>2017-06-11T06:36:37Z</time>
      </trkpt>
      <trkpt lat="41.976547529920936" lon="12.819357560947537">
        <ele>559.61999500000002</ele>
        <time>2017-06-11T06:36:43Z</time>
      </trkpt>
      <trkpt lat="41.976611400023103" lon="12.819393519312143">
        <ele>559.61999500000002</ele>
        <time>2017-06-11T06:36:50Z</time>
      </trkpt>
      <trkpt lat="41.976836202666163" lon="12.819470632821321">
        <ele>560.59002699999996</ele>
        <time>2017-06-11T06:37:07Z</time>
      </trkpt>
      <trkpt lat="41.97700023651123" lon="12.819590661674738">
        <ele>562.02996800000005</ele>
        <time>2017-06-11T06:37:22Z</time>
      </trkpt>
      <trkpt lat="41.977050863206387" lon="12.819664087146521">
        <ele>562.02996800000005</ele>
        <time>2017-06-11T06:37:27Z</time>
      </trkpt>
      <trkpt lat="41.977209532633424" lon="12.819775985553861">
        <ele>562.02996800000005</ele>
        <time>2017-06-11T06:37:43Z</time>
      </trkpt>
      <trkpt lat="41.977238282561302" lon="12.819773135706782">
        <ele>562.51000999999997</ele>
        <time>2017-06-11T06:37:45Z</time>
      </trkpt>
      <trkpt lat="41.977293435484171" lon="12.819819403812289">
        <ele>562.98999000000003</ele>
        <time>2017-06-11T06:37:52Z</time>
      </trkpt>
      <trkpt lat="41.97745512239635" lon="12.819830132648349">
        <ele>562.02996800000005</ele>
        <time>2017-06-11T06:38:05Z</time>
      </trkpt>
      <trkpt lat="41.977600380778313" lon="12.819868437945843">
        <ele>560.10998500000005</ele>
        <time>2017-06-11T06:38:19Z</time>
      </trkpt>
      <trkpt lat="41.977624436840415" lon="12.819891907274723">
        <ele>558.65997300000004</ele>
        <time>2017-06-11T06:38:32Z</time>
      </trkpt>
      <trkpt lat="41.977775814011693" lon="12.819849913939834">
        <ele>558.65997300000004</ele>
        <time>2017-06-11T06:38:46Z</time>
      </trkpt>
      <trkpt lat="41.977819064632058" lon="12.819828791543841">
        <ele>560.10998500000005</ele>
        <time>2017-06-11T06:38:51Z</time>
      </trkpt>
      <trkpt lat="41.977838929742575" lon="12.819834826514125">
        <ele>560.10998500000005</ele>
        <time>2017-06-11T06:38:53Z</time>
      </trkpt>
      <trkpt lat="41.977993408218026" lon="12.819901462644339">
        <ele>558.17999299999997</ele>
        <time>2017-06-11T06:39:07Z</time>
      </trkpt>
      <trkpt lat="41.978159537538886" lon="12.819886626675725">
        <ele>558.17999299999997</ele>
        <time>2017-06-11T06:39:21Z</time>
      </trkpt>
      <trkpt lat="41.978213097900152" lon="12.819867264479399">
        <ele>559.61999500000002</ele>
        <time>2017-06-11T06:39:27Z</time>
      </trkpt>
      <trkpt lat="41.978365061804652" lon="12.819872628897429">
        <ele>561.07000700000003</ele>
        <time>2017-06-11T06:39:40Z</time>
      </trkpt>
      <trkpt lat="41.978454580530524" lon="12.819946641102433">
        <ele>561.54998799999998</ele>
        <time>2017-06-11T06:39:53Z</time>
      </trkpt>
      <trkpt lat="41.978609226644039" lon="12.82002073712647">
        <ele>562.98999000000003</ele>
        <time>2017-06-11T06:40:06Z</time>
      </trkpt>
      <trkpt lat="41.978764208033681" lon="12.820150069892406">
        <ele>564.42999299999997</ele>
        <time>2017-06-11T06:40:22Z</time>
      </trkpt>
      <trkpt lat="41.978797903284431" lon="12.820196924731135">
        <ele>564.42999299999997</ele>
        <time>2017-06-11T06:40:25Z</time>
      </trkpt>
      <trkpt lat="41.978926062583923" lon="12.820345368236303">
        <ele>565.86999500000002</ele>
        <time>2017-06-11T06:40:40Z</time>
      </trkpt>
      <trkpt lat="41.979031674563885" lon="12.820575032383204">
        <ele>567.32000700000003</ele>
        <time>2017-06-11T06:40:56Z</time>
      </trkpt>
      <trkpt lat="41.979084480553865" lon="12.82073269598186">
        <ele>568.27996800000005</ele>
        <time>2017-06-11T06:41:08Z</time>
      </trkpt>
      <trkpt lat="41.979107027873397" lon="12.820759518072009">
        <ele>568.27996800000005</ele>
        <time>2017-06-11T06:41:11Z</time>
      </trkpt>
      <trkpt lat="41.97920199483633" lon="12.82092422246933">
        <ele>569.72003199999995</ele>
        <time>2017-06-11T06:41:24Z</time>
      </trkpt>
      <trkpt lat="41.979295872151852" lon="12.821010472252965">
        <ele>570.20001200000002</ele>
        <time>2017-06-11T06:41:34Z</time>
      </trkpt>
      <trkpt lat="41.979324873536825" lon="12.821038719266653">
        <ele>570.20001200000002</ele>
        <time>2017-06-11T06:41:38Z</time>
      </trkpt>
      <trkpt lat="41.979382038116455" lon="12.821064786985517">
        <ele>570.67999299999997</ele>
        <time>2017-06-11T06:41:44Z</time>
      </trkpt>
      <trkpt lat="41.979535259306431" lon="12.821124130859971">
        <ele>571.64001499999995</ele>
        <time>2017-06-11T06:42:00Z</time>
      </trkpt>
      <trkpt lat="41.979652522131801" lon="12.821190012618899">
        <ele>569.72003199999995</ele>
        <time>2017-06-11T06:42:14Z</time>
      </trkpt>
      <trkpt lat="41.979823177680373" lon="12.821244662627578">
        <ele>569.23999000000003</ele>
        <time>2017-06-11T06:42:29Z</time>
      </trkpt>
      <trkpt lat="41.979994587600231" lon="12.821301240473986">
        <ele>567.79998799999998</ele>
        <time>2017-06-11T06:42:44Z</time>
      </trkpt>
      <trkpt lat="41.980192735791206" lon="12.821310460567474">
        <ele>567.79998799999998</ele>
        <time>2017-06-11T06:42:59Z</time>
      </trkpt>
      <trkpt lat="41.980338580906391" lon="12.821319932118058">
        <ele>567.79998799999998</ele>
        <time>2017-06-11T06:43:14Z</time>
      </trkpt>
      <trkpt lat="41.98037127032876" lon="12.821295959874988">
        <ele>567.32000700000003</ele>
        <time>2017-06-11T06:43:19Z</time>
      </trkpt>
      <trkpt lat="41.980425417423248" lon="12.821244662627578">
        <ele>568.76000999999997</ele>
        <time>2017-06-11T06:43:24Z</time>
      </trkpt>
      <trkpt lat="41.980555336922407" lon="12.821197137236595">
        <ele>569.72003199999995</ele>
        <time>2017-06-11T06:43:40Z</time>
      </trkpt>
      <trkpt lat="41.980541339144111" lon="12.821198562160134">
        <ele>569.72003199999995</ele>
        <time>2017-06-11T06:44:02Z</time>
      </trkpt>
      <trkpt lat="41.980580734089017" lon="12.821210715919733">
        <ele>569.72003199999995</ele>
        <time>2017-06-11T06:44:21Z</time>
      </trkpt>
      <trkpt lat="41.9806057959795" lon="12.821226138621569">
        <ele>570.20001200000002</ele>
        <time>2017-06-11T06:44:37Z</time>
      </trkpt>
      <trkpt lat="41.980606717988849" lon="12.821251703426242">
        <ele>570.20001200000002</ele>
        <time>2017-06-11T06:44:43Z</time>
      </trkpt>
      <trkpt lat="41.980654075741768" lon="12.821301408112049">
        <ele>570.20001200000002</ele>
        <time>2017-06-11T06:44:49Z</time>
      </trkpt>
      <trkpt lat="41.980730518698692" lon="12.821258073672652">
        <ele>571.15997300000004</ele>
        <time>2017-06-11T06:44:59Z</time>
      </trkpt>
      <trkpt lat="41.980874771252275" lon="12.821361925452948">
        <ele>571.15997300000004</ele>
        <time>2017-06-11T06:45:13Z</time>
      </trkpt>
      <trkpt lat="41.980900168418884" lon="12.821372821927071">
        <ele>572.59997599999997</ele>
        <time>2017-06-11T06:45:16Z</time>
      </trkpt>
      <trkpt lat="41.980973174795508" lon="12.821409534662962">
        <ele>573.080017</ele>
        <time>2017-06-11T06:45:28Z</time>
      </trkpt>
      <trkpt lat="41.980980299413204" lon="12.821413641795516">
        <ele>574.04003899999998</ele>
        <time>2017-06-11T06:45:29Z</time>
      </trkpt>
      <trkpt lat="41.981031512841582" lon="12.821453539654613">
        <ele>574.04003899999998</ele>
        <time>2017-06-11T06:45:35Z</time>
      </trkpt>
      <trkpt lat="41.981102507561445" lon="12.821534676477313">
        <ele>575.01000999999997</ele>
        <time>2017-06-11T06:45:45Z</time>
      </trkpt>
      <trkpt lat="41.981140226125717" lon="12.821556469425559">
        <ele>575.48999000000003</ele>
        <time>2017-06-11T06:45:51Z</time>
      </trkpt>
      <trkpt lat="41.981228739023209" lon="12.821631738916039">
        <ele>575.97003199999995</ele>
        <time>2017-06-11T06:46:04Z</time>
      </trkpt>
      <trkpt lat="41.981342900544405" lon="12.821746403351426">
        <ele>575.97003199999995</ele>
        <time>2017-06-11T06:46:17Z</time>
      </trkpt>
      <trkpt lat="41.981351533904672" lon="12.821760820224881">
        <ele>575.97003199999995</ele>
        <time>2017-06-11T06:46:19Z</time>
      </trkpt>
      <trkpt lat="41.981456559151411" lon="12.821881771087646">
        <ele>575.01000999999997</ele>
        <time>2017-06-11T06:46:32Z</time>
      </trkpt>
      <trkpt lat="41.981480279937387" lon="12.821935331448913">
        <ele>574.52996800000005</ele>
        <time>2017-06-11T06:46:37Z</time>
      </trkpt>
      <trkpt lat="41.981601733714342" lon="12.822073213756084">
        <ele>573.55999799999995</ele>
        <time>2017-06-11T06:46:52Z</time>
      </trkpt>
      <trkpt lat="41.981663759797812" lon="12.822162061929703">
        <ele>573.55999799999995</ele>
        <time>2017-06-11T06:46:59Z</time>
      </trkpt>
      <trkpt lat="41.981778340414166" lon="12.822308158501983">
        <ele>575.01000999999997</ele>
        <time>2017-06-11T06:47:13Z</time>
      </trkpt>
      <trkpt lat="41.981881437823176" lon="12.822407567873597">
        <ele>573.55999799999995</ele>
        <time>2017-06-11T06:47:26Z</time>
      </trkpt>
      <trkpt lat="41.981920162215829" lon="12.822463475167751">
        <ele>573.55999799999995</ele>
        <time>2017-06-11T06:47:33Z</time>
      </trkpt>
      <trkpt lat="41.982051925733685" lon="12.822621306404471">
        <ele>573.080017</ele>
        <time>2017-06-11T06:47:51Z</time>
      </trkpt>
      <trkpt lat="41.982059385627508" lon="12.822629436850548">
        <ele>573.080017</ele>
        <time>2017-06-11T06:47:52Z</time>
      </trkpt>
      <trkpt lat="41.982147060334682" lon="12.822787016630173">
        <ele>571.64001499999995</ele>
        <time>2017-06-11T06:48:08Z</time>
      </trkpt>
      <trkpt lat="41.982160303741693" lon="12.822804534807801">
        <ele>571.64001499999995</ele>
        <time>2017-06-11T06:48:10Z</time>
      </trkpt>
      <trkpt lat="41.982228616252542" lon="12.822867734357715">
        <ele>571.64001499999995</ele>
        <time>2017-06-11T06:48:16Z</time>
      </trkpt>
      <trkpt lat="41.982257030904293" lon="12.822924731299281">
        <ele>571.64001499999995</ele>
        <time>2017-06-11T06:48:20Z</time>
      </trkpt>
      <trkpt lat="41.98230572976172" lon="12.823058003559709">
        <ele>570.20001200000002</ele>
        <time>2017-06-11T06:48:30Z</time>
      </trkpt>
      <trkpt lat="41.982338167726994" lon="12.823080131784081">
        <ele>570.20001200000002</ele>
        <time>2017-06-11T06:48:33Z</time>
      </trkpt>
      <trkpt lat="41.982393739745021" lon="12.823122711852193">
        <ele>569.72003199999995</ele>
        <time>2017-06-11T06:48:45Z</time>
      </trkpt>
      <trkpt lat="41.982535980641842" lon="12.823126064613461">
        <ele>568.76000999999997</ele>
        <time>2017-06-11T06:48:58Z</time>
      </trkpt>
      <trkpt lat="41.982665732502937" lon="12.823121538385749">
        <ele>567.79998799999998</ele>
        <time>2017-06-11T06:49:10Z</time>
      </trkpt>
      <trkpt lat="41.982691297307611" lon="12.823119610548019">
        <ele>567.32000700000003</ele>
        <time>2017-06-11T06:49:12Z</time>
      </trkpt>
      <trkpt lat="41.982754832133651" lon="12.823130590841174">
        <ele>566.830017</ele>
        <time>2017-06-11T06:49:19Z</time>
      </trkpt>
      <trkpt lat="41.982859689742327" lon="12.823110725730658">
        <ele>565.86999500000002</ele>
        <time>2017-06-11T06:49:33Z</time>
      </trkpt>
      <trkpt lat="41.982977036386728" lon="12.823059763759375">
        <ele>565.86999500000002</ele>
        <time>2017-06-11T06:49:46Z</time>
      </trkpt>
      <trkpt lat="41.983136041089892" lon="12.82304928638041">
        <ele>565.39001499999995</ele>
        <time>2017-06-11T06:50:00Z</time>
      </trkpt>
      <trkpt lat="41.983262775465846" lon="12.823025733232498">
        <ele>565.86999500000002</ele>
        <time>2017-06-11T06:50:11Z</time>
      </trkpt>
      <trkpt lat="41.983441561460495" lon="12.823052974417806">
        <ele>564.42999299999997</ele>
        <time>2017-06-11T06:50:26Z</time>
      </trkpt>
      <trkpt lat="41.983521105721593" lon="12.823048029094934">
        <ele>565.86999500000002</ele>
        <time>2017-06-11T06:50:37Z</time>
      </trkpt>
      <trkpt lat="41.983538623899221" lon="12.823050962761045">
        <ele>565.86999500000002</ele>
        <time>2017-06-11T06:50:38Z</time>
      </trkpt>
      <trkpt lat="41.983615569770336" lon="12.823066301643848">
        <ele>564.90997300000004</ele>
        <time>2017-06-11T06:50:45Z</time>
      </trkpt>
      <trkpt lat="41.983811538666487" lon="12.823113827034831">
        <ele>563.95001200000002</ele>
        <time>2017-06-11T06:51:00Z</time>
      </trkpt>
      <trkpt lat="41.983861662447453" lon="12.823117263615131">
        <ele>563.95001200000002</ele>
        <time>2017-06-11T06:51:04Z</time>
      </trkpt>
      <trkpt lat="41.984050674363971" lon="12.823180127888918">
        <ele>563.95001200000002</ele>
        <time>2017-06-11T06:51:20Z</time>
      </trkpt>
      <trkpt lat="41.984101133421063" lon="12.823205441236496">
        <ele>563.95001200000002</ele>
        <time>2017-06-11T06:51:26Z</time>
      </trkpt>
      <trkpt lat="41.984182689338923" lon="12.823224384337664">
        <ele>563.95001200000002</ele>
        <time>2017-06-11T06:51:39Z</time>
      </trkpt>
      <trkpt lat="41.984224431216717" lon="12.823284063488245">
        <ele>563.95001200000002</ele>
        <time>2017-06-11T06:51:53Z</time>
      </trkpt>
      <trkpt lat="41.984356194734573" lon="12.823230335488915">
        <ele>565.86999500000002</ele>
        <time>2017-06-11T06:52:10Z</time>
      </trkpt>
      <trkpt lat="41.984512265771627" lon="12.823192030191422">
        <ele>567.32000700000003</ele>
        <time>2017-06-11T06:52:25Z</time>
      </trkpt>
      <trkpt lat="41.98455442674458" lon="12.823200831189752">
        <ele>567.32000700000003</ele>
        <time>2017-06-11T06:52:28Z</time>
      </trkpt>
      <trkpt lat="41.984712677076459" lon="12.823220528662205">
        <ele>568.27996800000005</ele>
        <time>2017-06-11T06:52:42Z</time>
      </trkpt>
      <trkpt lat="41.984909400343895" lon="12.823292026296258">
        <ele>569.72003199999995</ele>
        <time>2017-06-11T06:52:58Z</time>
      </trkpt>
      <trkpt lat="41.985001936554909" lon="12.823361260816455">
        <ele>571.15997300000004</ele>
        <time>2017-06-11T06:53:10Z</time>
      </trkpt>
      <trkpt lat="41.985044265165925" lon="12.823387999087572">
        <ele>571.15997300000004</ele>
        <time>2017-06-11T06:53:13Z</time>
      </trkpt>
      <trkpt lat="41.985175190493464" lon="12.823549602180719">
        <ele>572.11999500000002</ele>
        <time>2017-06-11T06:53:27Z</time>
      </trkpt>
      <trkpt lat="41.985197737812996" lon="12.823695363476872">
        <ele>573.080017</ele>
        <time>2017-06-11T06:53:38Z</time>
      </trkpt>
      <trkpt lat="41.985230259597301" lon="12.823864761739969">
        <ele>574.52996800000005</ele>
        <time>2017-06-11T06:53:51Z</time>
      </trkpt>
      <trkpt lat="41.985250879079103" lon="12.823973894119263">
        <ele>575.48999000000003</ele>
        <time>2017-06-11T06:54:00Z</time>
      </trkpt>
      <trkpt lat="41.985299661755562" lon="12.824080428108573">
        <ele>578.36999500000002</ele>
        <time>2017-06-11T06:54:10Z</time>
      </trkpt>
      <trkpt lat="41.985366381704807" lon="12.824152261018753">
        <ele>578.84997599999997</ele>
        <time>2017-06-11T06:54:22Z</time>
      </trkpt>
      <trkpt lat="41.985457325354218" lon="12.824229877442122">
        <ele>579.80999799999995</ele>
        <time>2017-06-11T06:54:31Z</time>
      </trkpt>
      <trkpt lat="41.985513400286436" lon="12.824326688423753">
        <ele>581.25</ele>
        <time>2017-06-11T06:54:39Z</time>
      </trkpt>
      <trkpt lat="41.985560590401292" lon="12.824415704235435">
        <ele>582.70001200000002</ele>
        <time>2017-06-11T06:54:50Z</time>
      </trkpt>
      <trkpt lat="41.985598560422659" lon="12.824466582387686">
        <ele>584.14001499999995</ele>
        <time>2017-06-11T06:54:57Z</time>
      </trkpt>
      <trkpt lat="41.985666872933507" lon="12.824583761394024">
        <ele>586.05999799999995</ele>
        <time>2017-06-11T06:55:10Z</time>
      </trkpt>
      <trkpt lat="41.985716074705124" lon="12.82472918741405">
        <ele>587.97997999999995</ele>
        <time>2017-06-11T06:55:24Z</time>
      </trkpt>
      <trkpt lat="41.98571196757257" lon="12.824866063892841">
        <ele>588.46002199999998</ele>
        <time>2017-06-11T06:55:35Z</time>
      </trkpt>
      <trkpt lat="41.985761420801282" lon="12.824981985613704">
        <ele>588.46002199999998</ele>
        <time>2017-06-11T06:55:48Z</time>
      </trkpt>
      <trkpt lat="41.985790086910129" lon="12.825023559853435">
        <ele>587.5</ele>
        <time>2017-06-11T06:55:52Z</time>
      </trkpt>
      <trkpt lat="41.985860075801611" lon="12.825194215402007">
        <ele>587.01995799999997</ele>
        <time>2017-06-11T06:56:06Z</time>
      </trkpt>
      <trkpt lat="41.985865607857704" lon="12.825206620618701">
        <ele>587.01995799999997</ele>
        <time>2017-06-11T06:56:07Z</time>
      </trkpt>
      <trkpt lat="41.985992258414626" lon="12.825388172641397">
        <ele>586.54003899999998</ele>
        <time>2017-06-11T06:56:24Z</time>
      </trkpt>
      <trkpt lat="41.986120836809278" lon="12.825502166524529">
        <ele>586.54003899999998</ele>
        <time>2017-06-11T06:56:37Z</time>
      </trkpt>
      <trkpt lat="41.986174313351512" lon="12.825562935322523">
        <ele>586.54003899999998</ele>
        <time>2017-06-11T06:56:42Z</time>
      </trkpt>
      <trkpt lat="41.986306831240654" lon="12.825664859265089">
        <ele>586.54003899999998</ele>
        <time>2017-06-11T06:56:55Z</time>
      </trkpt>
      <trkpt lat="41.986425099894404" lon="12.825771225616336">
        <ele>588.46002199999998</ele>
        <time>2017-06-11T06:57:07Z</time>
      </trkpt>
      <trkpt lat="41.986541859805584" lon="12.825889997184277">
        <ele>590.39001499999995</ele>
        <time>2017-06-11T06:57:20Z</time>
      </trkpt>
      <trkpt lat="41.986638335511088" lon="12.825963841751218">
        <ele>590.86999500000002</ele>
        <time>2017-06-11T06:57:31Z</time>
      </trkpt>
      <trkpt lat="41.986797507852316" lon="12.825990580022335">
        <ele>591.34997599999997</ele>
        <time>2017-06-11T06:57:46Z</time>
      </trkpt>
      <trkpt lat="41.986952573060989" lon="12.825991837307811">
        <ele>591.34997599999997</ele>
        <time>2017-06-11T06:58:00Z</time>
      </trkpt>
      <trkpt lat="41.987113421782851" lon="12.825878178700805">
        <ele>592.79003899999998</ele>
        <time>2017-06-11T06:58:15Z</time>
      </trkpt>
      <trkpt lat="41.987240239977837" lon="12.825772734358907">
        <ele>593.26995799999997</ele>
        <time>2017-06-11T06:58:29Z</time>
      </trkpt>
      <trkpt lat="41.987260608002543" lon="12.825754713267088">
        <ele>593.75</ele>
        <time>2017-06-11T06:58:33Z</time>
      </trkpt>
      <trkpt lat="41.98728390969336" lon="12.825744822621346">
        <ele>593.75</ele>
        <time>2017-06-11T06:58:35Z</time>
      </trkpt>
      <trkpt lat="41.987417181953788" lon="12.825631834566593">
        <ele>594.71002199999998</ele>
        <time>2017-06-11T06:58:49Z</time>
      </trkpt>
      <trkpt lat="41.987425480037928" lon="12.825619764626026">
        <ele>595.19000200000005</ele>
        <time>2017-06-11T06:58:50Z</time>
      </trkpt>
      <trkpt lat="41.987548610195518" lon="12.825533766299486">
        <ele>595.669983</ele>
        <time>2017-06-11T06:59:02Z</time>
      </trkpt>
      <trkpt lat="41.98777986690402" lon="12.825461430475116">
        <ele>596.14996299999996</ele>
        <time>2017-06-11T06:59:21Z</time>
      </trkpt>
      <trkpt lat="41.987946080043912" lon="12.825457071885467">
        <ele>596.64001499999995</ele>
        <time>2017-06-11T06:59:36Z</time>
      </trkpt>
      <trkpt lat="41.988109527155757" lon="12.825415078550577">
        <ele>596.64001499999995</ele>
        <time>2017-06-11T06:59:49Z</time>
      </trkpt>
      <trkpt lat="41.98817272670567" lon="12.82539714127779">
        <ele>596.64001499999995</ele>
        <time>2017-06-11T06:59:56Z</time>
      </trkpt>
      <trkpt lat="41.988393422216177" lon="12.825362859293818">
        <ele>597.59997599999997</ele>
        <time>2017-06-11T07:00:13Z</time>
      </trkpt>
      <trkpt lat="41.988494340330362" lon="12.825322039425373">
        <ele>598.55999799999995</ele>
        <time>2017-06-11T07:00:22Z</time>
      </trkpt>
      <trkpt lat="41.98855041526258" lon="12.825336372479796">
        <ele>598.55999799999995</ele>
        <time>2017-06-11T07:00:26Z</time>
      </trkpt>
      <trkpt lat="41.988624762743711" lon="12.825367636978626">
        <ele>598.55999799999995</ele>
        <time>2017-06-11T07:00:31Z</time>
      </trkpt>
      <trkpt lat="41.988861132413149" lon="12.825331930071115">
        <ele>598.55999799999995</ele>
        <time>2017-06-11T07:00:49Z</time>
      </trkpt>
      <trkpt lat="41.988990465179086" lon="12.825332935899496">
        <ele>598.55999799999995</ele>
        <time>2017-06-11T07:01:01Z</time>
      </trkpt>
      <trkpt lat="41.989187272265553" lon="12.825347436591983">
        <ele>598.55999799999995</ele>
        <time>2017-06-11T07:01:16Z</time>
      </trkpt>
      <trkpt lat="41.989277796819806" lon="12.825361602008343">
        <ele>598.55999799999995</ele>
        <time>2017-06-11T07:01:25Z</time>
      </trkpt>
      <trkpt lat="41.98939866386354" lon="12.825400326400995">
        <ele>598.55999799999995</ele>
        <time>2017-06-11T07:01:35Z</time>
      </trkpt>
      <trkpt lat="41.989423725754023" lon="12.825373169034719">
        <ele>597.11999500000002</ele>
        <time>2017-06-11T07:01:38Z</time>
      </trkpt>
      <trkpt lat="41.989443590864539" lon="12.825359171256423">
        <ele>598.55999799999995</ele>
        <time>2017-06-11T07:01:40Z</time>
      </trkpt>
      <trkpt lat="41.989460941404104" lon="12.825356237590313">
        <ele>598.55999799999995</ele>
        <time>2017-06-11T07:01:42Z</time>
      </trkpt>
      <trkpt lat="41.989559596404433" lon="12.825363362208009">
        <ele>599.04003899999998</ele>
        <time>2017-06-11T07:01:52Z</time>
      </trkpt>
      <trkpt lat="41.989658921957016" lon="12.825398063287139">
        <ele>597.11999500000002</ele>
        <time>2017-06-11T07:02:01Z</time>
      </trkpt>
      <trkpt lat="41.989706866443157" lon="12.825381718575954">
        <ele>599.04003899999998</ele>
        <time>2017-06-11T07:02:06Z</time>
      </trkpt>
      <trkpt lat="41.989757660776377" lon="12.82536537386477">
        <ele>599.04003899999998</ele>
        <time>2017-06-11T07:02:12Z</time>
      </trkpt>
      <trkpt lat="41.989808036014438" lon="12.825271831825376">
        <ele>600.47997999999995</ele>
        <time>2017-06-11T07:02:21Z</time>
      </trkpt>
      <trkpt lat="41.989848436787724" lon="12.825225898995996">
        <ele>600.96002199999998</ele>
        <time>2017-06-11T07:02:27Z</time>
      </trkpt>
      <trkpt lat="41.989975422620773" lon="12.825206201523542">
        <ele>601.44000200000005</ele>
        <time>2017-06-11T07:02:42Z</time>
      </trkpt>
      <trkpt lat="41.990110706537962" lon="12.825154736638069">
        <ele>601.44000200000005</ele>
        <time>2017-06-11T07:02:56Z</time>
      </trkpt>
      <trkpt lat="41.990126967430115" lon="12.825173595920205">
        <ele>601.44000200000005</ele>
        <time>2017-06-11T07:02:58Z</time>
      </trkpt>
      <trkpt lat="41.990240206941962" lon="12.825230341404676">
        <ele>600.47997999999995</ele>
        <time>2017-06-11T07:03:09Z</time>
      </trkpt>
      <trkpt lat="41.99029628187418" lon="12.825238723307848">
        <ele>600.47997999999995</ele>
        <time>2017-06-11T07:03:13Z</time>
      </trkpt>
      <trkpt lat="41.99040868319571" lon="12.825294127687812">
        <ele>600.47997999999995</ele>
        <time>2017-06-11T07:03:23Z</time>
      </trkpt>
      <trkpt lat="41.990532986819744" lon="12.82523880712688">
        <ele>602.39996299999996</ele>
        <time>2017-06-11T07:03:36Z</time>
      </trkpt>
      <trkpt lat="41.990602137520909" lon="12.82515867613256">
        <ele>603.35998500000005</ele>
        <time>2017-06-11T07:03:46Z</time>
      </trkpt>
      <trkpt lat="41.99071504175663" lon="12.825100002810359">
        <ele>604.330017</ele>
        <time>2017-06-11T07:03:59Z</time>
      </trkpt>
      <trkpt lat="41.990834232419729" lon="12.824996234849095">
        <ele>605.29003899999998</ele>
        <time>2017-06-11T07:04:13Z</time>
      </trkpt>
      <trkpt lat="41.990884272381663" lon="12.824954241514206">
        <ele>605.76995799999997</ele>
        <time>2017-06-11T07:04:18Z</time>
      </trkpt>
      <trkpt lat="41.991017963737249" lon="12.824858017265797">
        <ele>605.76995799999997</ele>
        <time>2017-06-11T07:04:30Z</time>
      </trkpt>
      <trkpt lat="41.991064483299851" lon="12.824827004224062">
        <ele>604.80999799999995</ele>
        <time>2017-06-11T07:04:33Z</time>
      </trkpt>
      <trkpt lat="41.991174705326557" lon="12.824741592630744">
        <ele>603.35998500000005</ele>
        <time>2017-06-11T07:04:45Z</time>
      </trkpt>
      <trkpt lat="41.991290124133229" lon="12.824702700600028">
        <ele>600.96002199999998</ele>
        <time>2017-06-11T07:04:57Z</time>
      </trkpt>
      <trkpt lat="41.99142356403172" lon="12.824647966772318">
        <ele>600</ele>
        <time>2017-06-11T07:05:10Z</time>
      </trkpt>
      <trkpt lat="41.991447536274791" lon="12.82462508417666">
        <ele>599.51995799999997</ele>
        <time>2017-06-11T07:05:14Z</time>
      </trkpt>
      <trkpt lat="41.991502605378628" lon="12.824570937082171">
        <ele>599.04003899999998</ele>
        <time>2017-06-11T07:05:28Z</time>
      </trkpt>
      <trkpt lat="41.991531187668443" lon="12.824551491066813">
        <ele>598.55999799999995</ele>
        <time>2017-06-11T07:05:44Z</time>
      </trkpt>
      <trkpt lat="41.991557339206338" lon="12.824496338143945">
        <ele>598.080017</ele>
        <time>2017-06-11T07:05:50Z</time>
      </trkpt>
      <trkpt lat="41.991599835455418" lon="12.824413860216737">
        <ele>597.11999500000002</ele>
        <time>2017-06-11T07:05:56Z</time>
      </trkpt>
      <trkpt lat="41.991663873195648" lon="12.824296932667494">
        <ele>595.669983</ele>
        <time>2017-06-11T07:06:08Z</time>
      </trkpt>
      <trkpt lat="41.991678373888135" lon="12.82427572645247">
        <ele>595.669983</ele>
        <time>2017-06-11T07:06:10Z</time>
      </trkpt>
      <trkpt lat="41.991729168221354" lon="12.824219735339284">
        <ele>595.19000200000005</ele>
        <time>2017-06-11T07:06:14Z</time>
      </trkpt>
      <trkpt lat="41.991892531514168" lon="12.824096437543631">
        <ele>595.19000200000005</ele>
        <time>2017-06-11T07:06:29Z</time>
      </trkpt>
      <trkpt lat="41.991912899538875" lon="12.824070286005735">
        <ele>594.71002199999998</ele>
        <time>2017-06-11T07:06:39Z</time>
      </trkpt>
      <trkpt lat="41.991956401616335" lon="12.824065508320928">
        <ele>594.71002199999998</ele>
        <time>2017-06-11T07:06:44Z</time>
      </trkpt>
      <trkpt lat="41.992125380784273" lon="12.824141616001725">
        <ele>593.26995799999997</ele>
        <time>2017-06-11T07:06:58Z</time>
      </trkpt>
      <trkpt lat="41.99213351123035" lon="12.824142873287201">
        <ele>593.26995799999997</ele>
        <time>2017-06-11T07:06:59Z</time>
      </trkpt>
      <trkpt lat="41.992244403809309" lon="12.824144717305899">
        <ele>590.86999500000002</ele>
        <time>2017-06-11T07:07:09Z</time>
      </trkpt>
      <trkpt lat="41.992389326915145" lon="12.824210515245795">
        <ele>587.97997999999995</ele>
        <time>2017-06-11T07:07:26Z</time>
      </trkpt>
      <trkpt lat="41.992396535351872" lon="12.824233481660485">
        <ele>587.01995799999997</ele>
        <time>2017-06-11T07:07:29Z</time>
      </trkpt>
      <trkpt lat="41.992537938058376" lon="12.824343703687191">
        <ele>585.580017</ele>
        <time>2017-06-11T07:07:41Z</time>
      </trkpt>
      <trkpt lat="41.992617482319474" lon="12.824367340654135">
        <ele>583.17999299999997</ele>
        <time>2017-06-11T07:07:51Z</time>
      </trkpt>
      <trkpt lat="41.992840440943837" lon="12.824495164677501">
        <ele>580.76995799999997</ele>
        <time>2017-06-11T07:08:09Z</time>
      </trkpt>
      <trkpt lat="41.9929856993258" lon="12.824605386704206">
        <ele>578.36999500000002</ele>
        <time>2017-06-11T07:08:24Z</time>
      </trkpt>
      <trkpt lat="41.993059460073709" lon="12.824696162715554">
        <ele>575.97003199999995</ele>
        <time>2017-06-11T07:08:39Z</time>
      </trkpt>
      <trkpt lat="41.993102710694075" lon="12.824742179363966">
        <ele>575.48999000000003</ele>
        <time>2017-06-11T07:08:52Z</time>
      </trkpt>
      <trkpt lat="41.993141183629632" lon="12.82473111525178">
        <ele>575.48999000000003</ele>
        <time>2017-06-11T07:09:05Z</time>
      </trkpt>
      <trkpt lat="41.993161886930466" lon="12.824726505205035">
        <ele>573.080017</ele>
        <time>2017-06-11T07:09:14Z</time>
      </trkpt>
      <trkpt lat="41.993213184177876" lon="12.824792638421059">
        <ele>571.64001499999995</ele>
        <time>2017-06-11T07:09:27Z</time>
      </trkpt>
      <trkpt lat="41.993209663778543" lon="12.824795739725232">
        <ele>571.64001499999995</ele>
        <time>2017-06-11T07:09:39Z</time>
      </trkpt>
      <trkpt lat="41.993210418149829" lon="12.824845863506198">
        <ele>571.64001499999995</ele>
        <time>2017-06-11T07:09:58Z</time>
      </trkpt>
      <trkpt lat="41.993260625749826" lon="12.824837062507868">
        <ele>569.72003199999995</ele>
        <time>2017-06-11T07:10:10Z</time>
      </trkpt>
      <trkpt lat="41.993337823078036" lon="12.824845612049103">
        <ele>566.830017</ele>
        <time>2017-06-11T07:10:27Z</time>
      </trkpt>
      <trkpt lat="41.993407560512424" lon="12.82488701865077">
        <ele>565.86999500000002</ele>
        <time>2017-06-11T07:10:42Z</time>
      </trkpt>
      <trkpt lat="41.993488110601902" lon="12.824891963973641">
        <ele>563.47003199999995</ele>
        <time>2017-06-11T07:10:55Z</time>
      </trkpt>
      <trkpt lat="41.993523985147476" lon="12.824925826862454">
        <ele>562.98999000000003</ele>
        <time>2017-06-11T07:10:59Z</time>
      </trkpt>
      <trkpt lat="41.993642505258322" lon="12.825108133256435">
        <ele>560.59002699999996</ele>
        <time>2017-06-11T07:11:14Z</time>
      </trkpt>
      <trkpt lat="41.993696233257651" lon="12.825355734676123">
        <ele>559.61999500000002</ele>
        <time>2017-06-11T07:11:28Z</time>
      </trkpt>
      <trkpt lat="41.993719534948468" lon="12.825530664995313">
        <ele>559.14001499999995</ele>
        <time>2017-06-11T07:11:41Z</time>
      </trkpt>
      <trkpt lat="41.993743171915412" lon="12.82577340491116">
        <ele>558.65997300000004</ele>
        <time>2017-06-11T07:11:56Z</time>
      </trkpt>
      <trkpt lat="41.993801593780518" lon="12.825929559767246">
        <ele>558.65997300000004</ele>
        <time>2017-06-11T07:12:08Z</time>
      </trkpt>
      <trkpt lat="41.993846017867327" lon="12.825973900035024">
        <ele>560.10998500000005</ele>
        <time>2017-06-11T07:12:16Z</time>
      </trkpt>
      <trkpt lat="41.993955569341779" lon="12.826075237244368">
        <ele>560.10998500000005</ele>
        <time>2017-06-11T07:12:30Z</time>
      </trkpt>
      <trkpt lat="41.993987336754799" lon="12.826097030192614">
        <ele>560.10998500000005</ele>
        <time>2017-06-11T07:12:33Z</time>
      </trkpt>
      <trkpt lat="41.994147095829248" lon="12.826257459819317">
        <ele>562.51000999999997</ele>
        <time>2017-06-11T07:12:49Z</time>
      </trkpt>
      <trkpt lat="41.994295036420226" lon="12.826390983536839">
        <ele>562.51000999999997</ele>
        <time>2017-06-11T07:13:04Z</time>
      </trkpt>
      <trkpt lat="41.99443643912673" lon="12.826511263847351">
        <ele>562.02996800000005</ele>
        <time>2017-06-11T07:13:17Z</time>
      </trkpt>
      <trkpt lat="41.994507517665625" lon="12.826581839472055">
        <ele>562.02996800000005</ele>
        <time>2017-06-11T07:13:23Z</time>
      </trkpt>
      <trkpt lat="41.994650596752763" lon="12.826694324612617">
        <ele>560.10998500000005</ele>
        <time>2017-06-11T07:13:37Z</time>
      </trkpt>
      <trkpt lat="41.994764674454927" lon="12.826807396486402">
        <ele>556.73999000000003</ele>
        <time>2017-06-11T07:13:51Z</time>
      </trkpt>
      <trkpt lat="41.994883865118027" lon="12.8269128408283">
        <ele>554.82000700000003</ele>
        <time>2017-06-11T07:14:04Z</time>
      </trkpt>
      <trkpt lat="41.9950095936656" lon="12.827031863853335">
        <ele>552.89996299999996</ele>
        <time>2017-06-11T07:14:19Z</time>
      </trkpt>
      <trkpt lat="41.995146470144391" lon="12.827207297086716">
        <ele>551.45001200000002</ele>
        <time>2017-06-11T07:14:35Z</time>
      </trkpt>
      <trkpt lat="41.995166586712003" lon="12.827229341492057">
        <ele>551.45001200000002</ele>
        <time>2017-06-11T07:14:37Z</time>
      </trkpt>
      <trkpt lat="41.995255015790462" lon="12.827422711998224">
        <ele>550.48999000000003</ele>
        <time>2017-06-11T07:14:51Z</time>
      </trkpt>
      <trkpt lat="41.995263565331697" lon="12.827431261539459">
        <ele>550.48999000000003</ele>
        <time>2017-06-11T07:14:52Z</time>
      </trkpt>
      <trkpt lat="41.995336236432195" lon="12.827510386705399">
        <ele>550.01000999999997</ele>
        <time>2017-06-11T07:15:01Z</time>
      </trkpt>
      <trkpt lat="41.995382336899638" lon="12.827537041157484">
        <ele>549.52996800000005</ele>
        <time>2017-06-11T07:15:04Z</time>
      </trkpt>
      <trkpt lat="41.995449308305979" lon="12.827588673681021">
        <ele>549.04998799999998</ele>
        <time>2017-06-11T07:15:09Z</time>
      </trkpt>
      <trkpt lat="41.995578473433852" lon="12.827749103307724">
        <ele>548.09002699999996</ele>
        <time>2017-06-11T07:15:25Z</time>
      </trkpt>
      <trkpt lat="41.995687773451209" lon="12.827814063057303">
        <ele>548.09002699999996</ele>
        <time>2017-06-11T07:15:40Z</time>
      </trkpt>
      <trkpt lat="41.99568877927959" lon="12.827825462445617">
        <ele>548.09002699999996</ele>
        <time>2017-06-11T07:15:42Z</time>
      </trkpt>
      <trkpt lat="41.995675871148705" lon="12.82789109274745">
        <ele>547.60998500000005</ele>
        <time>2017-06-11T07:15:49Z</time>
      </trkpt>
      <trkpt lat="41.995780561119318" lon="12.827880112454295">
        <ele>548.57000700000003</ele>
        <time>2017-06-11T07:16:02Z</time>
      </trkpt>
      <trkpt lat="41.995802940800786" lon="12.827883465215564">
        <ele>548.57000700000003</ele>
        <time>2017-06-11T07:16:04Z</time>
      </trkpt>
      <trkpt lat="41.995870666578412" lon="12.827915903180838">
        <ele>548.57000700000003</ele>
        <time>2017-06-11T07:16:09Z</time>
      </trkpt>
      <trkpt lat="41.996096977964044" lon="12.828074572607875">
        <ele>549.04998799999998</ele>
        <time>2017-06-11T07:16:28Z</time>
      </trkpt>
      <trkpt lat="41.996292360126972" lon="12.82815252430737">
        <ele>549.52996800000005</ele>
        <time>2017-06-11T07:16:44Z</time>
      </trkpt>
      <trkpt lat="41.996502997353673" lon="12.828278420493007">
        <ele>548.09002699999996</ele>
        <time>2017-06-11T07:17:01Z</time>
      </trkpt>
      <trkpt lat="41.996748587116599" lon="12.82839048653841">
        <ele>546.64996299999996</ele>
        <time>2017-06-11T07:17:19Z</time>
      </trkpt>
      <trkpt lat="41.9968849606812" lon="12.828438766300678">
        <ele>545.69000200000005</ele>
        <time>2017-06-11T07:17:33Z</time>
      </trkpt>
      <trkpt lat="41.997045641764998" lon="12.828552341088653">
        <ele>545.20001200000002</ele>
        <time>2017-06-11T07:17:48Z</time>
      </trkpt>
      <trkpt lat="41.997073888778687" lon="12.828560722991824">
        <ele>545.20001200000002</ele>
        <time>2017-06-11T07:17:51Z</time>
      </trkpt>
      <trkpt lat="41.997135663405061" lon="12.82859911210835">
        <ele>545.20001200000002</ele>
        <time>2017-06-11T07:17:56Z</time>
      </trkpt>
      <trkpt lat="41.997330458834767" lon="12.828717213124037">
        <ele>545.20001200000002</ele>
        <time>2017-06-11T07:18:11Z</time>
      </trkpt>
      <trkpt lat="41.997438501566648" lon="12.828822741284966">
        <ele>545.20001200000002</ele>
        <time>2017-06-11T07:18:22Z</time>
      </trkpt>
      <trkpt lat="41.997460378333926" lon="12.828879486769438">
        <ele>546.64996299999996</ele>
        <time>2017-06-11T07:18:25Z</time>
      </trkpt>
      <trkpt lat="41.997531540691853" lon="12.82906673848629">
        <ele>547.13000499999998</ele>
        <time>2017-06-11T07:18:35Z</time>
      </trkpt>
      <trkpt lat="41.997614605352283" lon="12.829224234446883">
        <ele>548.57000700000003</ele>
        <time>2017-06-11T07:18:48Z</time>
      </trkpt>
      <trkpt lat="41.997645031660795" lon="12.82927050255239">
        <ele>549.04998799999998</ele>
        <time>2017-06-11T07:18:53Z</time>
      </trkpt>
      <trkpt lat="41.997662466019392" lon="12.829424561932683">
        <ele>550.01000999999997</ele>
        <time>2017-06-11T07:19:03Z</time>
      </trkpt>
      <trkpt lat="41.997682163491845" lon="12.829637713730335">
        <ele>550.97003199999995</ele>
        <time>2017-06-11T07:19:17Z</time>
      </trkpt>
      <trkpt lat="41.997775621712208" lon="12.82986368983984">
        <ele>551.92999299999997</ele>
        <time>2017-06-11T07:19:32Z</time>
      </trkpt>
      <trkpt lat="41.997867068275809" lon="12.829980365931988">
        <ele>553.38000499999998</ele>
        <time>2017-06-11T07:19:46Z</time>
      </trkpt>
      <trkpt lat="41.997966393828392" lon="12.830089330673218">
        <ele>554.82000700000003</ele>
        <time>2017-06-11T07:19:59Z</time>
      </trkpt>
      <trkpt lat="41.998064713552594" lon="12.830196702852845">
        <ele>555.77996800000005</ele>
        <time>2017-06-11T07:20:11Z</time>
      </trkpt>
      <trkpt lat="41.998186502605677" lon="12.830352019518614">
        <ele>556.26000999999997</ele>
        <time>2017-06-11T07:20:27Z</time>
      </trkpt>
      <trkpt lat="41.998311728239059" lon="12.830516723915935">
        <ele>556.73999000000003</ele>
        <time>2017-06-11T07:20:41Z</time>
      </trkpt>
      <trkpt lat="41.998342908918858" lon="12.830558130517602">
        <ele>556.73999000000003</ele>
        <time>2017-06-11T07:20:44Z</time>
      </trkpt>
      <trkpt lat="41.99840166606009" lon="12.830829033628106">
        <ele>558.65997300000004</ele>
        <time>2017-06-11T07:21:02Z</time>
      </trkpt>
      <trkpt lat="41.99842412956059" lon="12.830928694456816">
        <ele>559.61999500000002</ele>
        <time>2017-06-11T07:21:09Z</time>
      </trkpt>
      <trkpt lat="41.998468637466431" lon="12.831156933680177">
        <ele>559.14001499999995</ele>
        <time>2017-06-11T07:21:25Z</time>
      </trkpt>
      <trkpt lat="41.9985082000494" lon="12.831381903961301">
        <ele>557.70001200000002</ele>
        <time>2017-06-11T07:21:39Z</time>
      </trkpt>
      <trkpt lat="41.998514486476779" lon="12.831678790971637">
        <ele>557.70001200000002</ele>
        <time>2017-06-11T07:21:53Z</time>
      </trkpt>
      <trkpt lat="41.998499734327197" lon="12.831766214221716">
        <ele>557.70001200000002</ele>
        <time>2017-06-11T07:21:58Z</time>
      </trkpt>
      <trkpt lat="41.998446676880121" lon="12.832001829519868">
        <ele>557.70001200000002</ele>
        <time>2017-06-11T07:22:11Z</time>
      </trkpt>
      <trkpt lat="41.998391859233379" lon="12.832171563059092">
        <ele>557.70001200000002</ele>
        <time>2017-06-11T07:22:25Z</time>
      </trkpt>
      <trkpt lat="41.998377609997988" lon="12.832187572494149">
        <ele>559.14001499999995</ele>
        <time>2017-06-11T07:22:28Z</time>
      </trkpt>
      <trkpt lat="41.998361013829708" lon="12.832198301330209">
        <ele>559.14001499999995</ele>
        <time>2017-06-11T07:22:46Z</time>
      </trkpt>
      <trkpt lat="41.998386159539223" lon="12.832413297146559">
        <ele>560.10998500000005</ele>
        <time>2017-06-11T07:22:59Z</time>
      </trkpt>
      <trkpt lat="41.998564777895808" lon="12.832593591883779">
        <ele>562.51000999999997</ele>
        <time>2017-06-11T07:23:16Z</time>
      </trkpt>
      <trkpt lat="41.998727889731526" lon="12.832803558558226">
        <ele>562.98999000000003</ele>
        <time>2017-06-11T07:23:32Z</time>
      </trkpt>
      <trkpt lat="41.998824197798967" lon="12.832952588796616">
        <ele>562.98999000000003</ele>
        <time>2017-06-11T07:23:47Z</time>
      </trkpt>
      <trkpt lat="41.99891815893352" lon="12.833139421418309">
        <ele>564.42999299999997</ele>
        <time>2017-06-11T07:24:02Z</time>
      </trkpt>
      <trkpt lat="41.998935006558895" lon="12.833190886303782">
        <ele>565.39001499999995</ele>
        <time>2017-06-11T07:24:06Z</time>
      </trkpt>
      <trkpt lat="41.999013377353549" lon="12.833418790251017">
        <ele>565.86999500000002</ele>
        <time>2017-06-11T07:24:22Z</time>
      </trkpt>
      <trkpt lat="41.999078085646033" lon="12.833609562367201">
        <ele>565.86999500000002</ele>
        <time>2017-06-11T07:24:34Z</time>
      </trkpt>
      <trkpt lat="41.999154109507799" lon="12.833733698353171">
        <ele>564.42999299999997</ele>
        <time>2017-06-11T07:24:43Z</time>
      </trkpt>
      <trkpt lat="41.999241868034005" lon="12.833966966718435">
        <ele>562.51000999999997</ele>
        <time>2017-06-11T07:24:59Z</time>
      </trkpt>
      <trkpt lat="41.999355275183916" lon="12.834136029705405">
        <ele>560.59002699999996</ele>
        <time>2017-06-11T07:25:16Z</time>
      </trkpt>
      <trkpt lat="41.999407578259706" lon="12.834150781854987">
        <ele>559.61999500000002</ele>
        <time>2017-06-11T07:25:20Z</time>
      </trkpt>
      <trkpt lat="41.999640930444002" lon="12.834196211770177">
        <ele>556.26000999999997</ele>
        <time>2017-06-11T07:25:38Z</time>
      </trkpt>
      <trkpt lat="41.99979767203331" lon="12.834224039688706">
        <ele>554.82000700000003</ele>
        <time>2017-06-11T07:25:53Z</time>
      </trkpt>
      <trkpt lat="42.000052984803915" lon="12.834264859557152">
        <ele>554.34002699999996</ele>
        <time>2017-06-11T07:26:09Z</time>
      </trkpt>
      <trkpt lat="42.000187430530787" lon="12.83438446931541">
        <ele>552.40997300000004</ele>
        <time>2017-06-11T07:26:23Z</time>
      </trkpt>
      <trkpt lat="42.00034593231976" lon="12.834554370492697">
        <ele>550.01000999999997</ele>
        <time>2017-06-11T07:26:37Z</time>
      </trkpt>
      <trkpt lat="42.000443581491709" lon="12.834668699651957">
        <ele>546.64996299999996</ele>
        <time>2017-06-11T07:26:50Z</time>
      </trkpt>
      <trkpt lat="42.000579368323088" lon="12.834821166470647">
        <ele>543.76000999999997</ele>
        <time>2017-06-11T07:27:08Z</time>
      </trkpt>
      <trkpt lat="42.000677939504385" lon="12.834924682974815">
        <ele>541.84002699999996</ele>
        <time>2017-06-11T07:27:21Z</time>
      </trkpt>
      <trkpt lat="42.000789334997535" lon="12.835090812295675">
        <ele>539.919983</ele>
        <time>2017-06-11T07:27:36Z</time>
      </trkpt>
      <trkpt lat="42.000804590061307" lon="12.835105312988162">
        <ele>539.919983</ele>
        <time>2017-06-11T07:27:38Z</time>
      </trkpt>
      <trkpt lat="42.000862089917064" lon="12.835155939683318">
        <ele>538.47997999999995</ele>
        <time>2017-06-11T07:27:44Z</time>
      </trkpt>
      <trkpt lat="42.001021262258291" lon="12.835280578583479">
        <ele>535.59002699999996</ele>
        <time>2017-06-11T07:27:59Z</time>
      </trkpt>
      <trkpt lat="42.001133328303695" lon="12.835384430363774">
        <ele>533.19000200000005</ele>
        <time>2017-06-11T07:28:12Z</time>
      </trkpt>
      <trkpt lat="42.001278921961784" lon="12.835535136982799">
        <ele>530.29998799999998</ele>
        <time>2017-06-11T07:28:26Z</time>
      </trkpt>
      <trkpt lat="42.001423677429557" lon="12.835616609081626">
        <ele>528.85998500000005</ele>
        <time>2017-06-11T07:28:40Z</time>
      </trkpt>
      <trkpt lat="42.001605983823538" lon="12.835679138079286">
        <ele>527.89996299999996</ele>
        <time>2017-06-11T07:28:55Z</time>
      </trkpt>
      <trkpt lat="42.001810586079955" lon="12.835716269910336">
        <ele>526.94000200000005</ele>
        <time>2017-06-11T07:29:12Z</time>
      </trkpt>
      <trkpt lat="42.002010159194469" lon="12.835765387862921">
        <ele>525.02002000000005</ele>
        <time>2017-06-11T07:29:28Z</time>
      </trkpt>
      <trkpt lat="42.002090038731694" lon="12.835804531350732">
        <ele>524.53997800000002</ele>
        <time>2017-06-11T07:29:39Z</time>
      </trkpt>
      <trkpt lat="42.002151561900973" lon="12.835811320692301">
        <ele>524.05999799999995</ele>
        <time>2017-06-11T07:29:44Z</time>
      </trkpt>
      <trkpt lat="42.002344261854887" lon="12.835855325683951">
        <ele>521.64996299999996</ele>
        <time>2017-06-11T07:30:00Z</time>
      </trkpt>
      <trkpt lat="42.002520700916648" lon="12.835883237421513">
        <ele>520.21002199999998</ele>
        <time>2017-06-11T07:30:14Z</time>
      </trkpt>
      <trkpt lat="42.002700576558709" lon="12.835932271555066">
        <ele>517.80999799999995</ele>
        <time>2017-06-11T07:30:29Z</time>
      </trkpt>
      <trkpt lat="42.002891935408115" lon="12.835969822481275">
        <ele>515.88000499999998</ele>
        <time>2017-06-11T07:30:45Z</time>
      </trkpt>
      <trkpt lat="42.002930324524641" lon="12.835977030918002">
        <ele>514.919983</ele>
        <time>2017-06-11T07:30:50Z</time>
      </trkpt>
      <trkpt lat="42.003106009215117" lon="12.836050791665912">
        <ele>512.52002000000005</ele>
        <time>2017-06-11T07:31:05Z</time>
      </trkpt>
      <trkpt lat="42.003196366131306" lon="12.836086163297296">
        <ele>509.16000400000001</ele>
        <time>2017-06-11T07:31:16Z</time>
      </trkpt>
      <trkpt lat="42.003347827121615" lon="12.836162941530347">
        <ele>507.22998000000001</ele>
        <time>2017-06-11T07:31:30Z</time>
      </trkpt>
      <trkpt lat="42.003540862351656" lon="12.836224129423499">
        <ele>504.35000600000001</ele>
        <time>2017-06-11T07:31:46Z</time>
      </trkpt>
      <trkpt lat="42.003597775474191" lon="12.836239971220493">
        <ele>503.38998400000003</ele>
        <time>2017-06-11T07:31:51Z</time>
      </trkpt>
      <trkpt lat="42.003726437687874" lon="12.836308870464563">
        <ele>500.02001999999999</ele>
        <time>2017-06-11T07:32:04Z</time>
      </trkpt>
      <trkpt lat="42.003841521218419" lon="12.836353294551373">
        <ele>497.61999500000002</ele>
        <time>2017-06-11T07:32:16Z</time>
      </trkpt>
      <trkpt lat="42.004002034664154" lon="12.836394365876913">
        <ele>494.73998999999998</ele>
        <time>2017-06-11T07:32:33Z</time>
      </trkpt>
      <trkpt lat="42.004047129303217" lon="12.836376763880253">
        <ele>494.25997899999999</ele>
        <time>2017-06-11T07:32:47Z</time>
      </trkpt>
      <trkpt lat="42.004050565883517" lon="12.836386235430837">
        <ele>493.77001999999999</ele>
        <time>2017-06-11T07:32:49Z</time>
      </trkpt>
      <trkpt lat="42.004172774031758" lon="12.836395706981421">
        <ele>492.80999800000001</ele>
        <time>2017-06-11T07:33:02Z</time>
      </trkpt>
      <trkpt lat="42.00418408960104" lon="12.836388079449534">
        <ele>493.290009</ele>
        <time>2017-06-11T07:33:20Z</time>
      </trkpt>
      <trkpt lat="42.00418216176331" lon="12.836390761658549">
        <ele>493.290009</ele>
        <time>2017-06-11T07:33:27Z</time>
      </trkpt>
      <trkpt lat="42.004237817600369" lon="12.836463684216142">
        <ele>493.290009</ele>
        <time>2017-06-11T07:33:34Z</time>
      </trkpt>
      <trkpt lat="42.004290791228414" lon="12.836533337831497">
        <ele>493.290009</ele>
        <time>2017-06-11T07:33:41Z</time>
      </trkpt>
      <trkpt lat="42.004404533654451" lon="12.836668789386749">
        <ele>495.70001200000002</ele>
        <time>2017-06-11T07:33:55Z</time>
      </trkpt>
      <trkpt lat="42.004406293854117" lon="12.836743472144008">
        <ele>494.25997899999999</ele>
        <time>2017-06-11T07:34:00Z</time>
      </trkpt>
      <trkpt lat="42.004404198378325" lon="12.83677289262414">
        <ele>495.70001200000002</ele>
        <time>2017-06-11T07:34:02Z</time>
      </trkpt>
      <trkpt lat="42.00439908541739" lon="12.836804073303938">
        <ele>495.70001200000002</ele>
        <time>2017-06-11T07:34:04Z</time>
      </trkpt>
      <trkpt lat="42.004405958577991" lon="12.83699476160109">
        <ele>497.13998400000003</ele>
        <time>2017-06-11T07:34:18Z</time>
      </trkpt>
      <trkpt lat="42.004410484805703" lon="12.837090902030468">
        <ele>498.10000600000001</ele>
        <time>2017-06-11T07:34:27Z</time>
      </trkpt>
      <trkpt lat="42.004415597766638" lon="12.837250912562013">
        <ele>500.50003099999998</ele>
        <time>2017-06-11T07:34:42Z</time>
      </trkpt>
      <trkpt lat="42.004419369623065" lon="12.837396422401071">
        <ele>501.95001200000002</ele>
        <time>2017-06-11T07:34:55Z</time>
      </trkpt>
      <trkpt lat="42.004410065710545" lon="12.837563473731279">
        <ele>504.35000600000001</ele>
        <time>2017-06-11T07:35:08Z</time>
      </trkpt>
      <trkpt lat="42.004390200600028" lon="12.837718119844794">
        <ele>505.790009</ele>
        <time>2017-06-11T07:35:20Z</time>
      </trkpt>
      <trkpt lat="42.004370419308543" lon="12.837882908061147">
        <ele>506.75003099999998</ele>
        <time>2017-06-11T07:35:33Z</time>
      </trkpt>
      <trkpt lat="42.004322810098529" lon="12.838046103715897">
        <ele>508.67001299999998</ele>
        <time>2017-06-11T07:35:45Z</time>
      </trkpt>
      <trkpt lat="42.004270339384675" lon="12.838214077055454">
        <ele>509.63998400000003</ele>
        <time>2017-06-11T07:35:58Z</time>
      </trkpt>
      <trkpt lat="42.004237482324243" lon="12.838357407599688">
        <ele>511.55999800000001</ele>
        <time>2017-06-11T07:36:10Z</time>
      </trkpt>
      <trkpt lat="42.004247037693858" lon="12.838477017357945">
        <ele>513.96002199999998</ele>
        <time>2017-06-11T07:36:23Z</time>
      </trkpt>
      <trkpt lat="42.00425592251122" lon="12.838481878861785">
        <ele>514.44000200000005</ele>
        <time>2017-06-11T07:36:25Z</time>
      </trkpt>
      <trkpt lat="42.004274614155293" lon="12.838476430624723">
        <ele>515.88000499999998</ele>
        <time>2017-06-11T07:36:29Z</time>
      </trkpt>
      <trkpt lat="42.004294730722904" lon="12.838432006537914">
        <ele>515.88000499999998</ele>
        <time>2017-06-11T07:36:34Z</time>
      </trkpt>
      <trkpt lat="42.004378717392683" lon="12.838341565802693">
        <ele>519.25</ele>
        <time>2017-06-11T07:36:47Z</time>
      </trkpt>
      <trkpt lat="42.004469577223063" lon="12.83826126717031">
        <ele>522.13000499999998</ele>
        <time>2017-06-11T07:37:00Z</time>
      </trkpt>
      <trkpt lat="42.00450318865478" lon="12.838239138945937">
        <ele>522.60998500000005</ele>
        <time>2017-06-11T07:37:05Z</time>
      </trkpt>
      <trkpt lat="42.004606369882822" lon="12.838163115084171">
        <ele>525.02002000000005</ele>
        <time>2017-06-11T07:37:19Z</time>
      </trkpt>
      <trkpt lat="42.004694128409028" lon="12.838103603571653">
        <ele>526.94000200000005</ele>
        <time>2017-06-11T07:37:30Z</time>
      </trkpt>
      <trkpt lat="42.0048061106354" lon="12.838016264140606">
        <ele>529.82000700000003</ele>
        <time>2017-06-11T07:37:44Z</time>
      </trkpt>
      <trkpt lat="42.004838967695832" lon="12.838005786761642">
        <ele>530.29998799999998</ele>
        <time>2017-06-11T07:37:48Z</time>
      </trkpt>
      <trkpt lat="42.004922283813357" lon="12.838051300495863">
        <ele>532.22997999999995</ele>
        <time>2017-06-11T07:37:58Z</time>
      </trkpt>
      <trkpt lat="42.004938963800669" lon="12.83809706568718">
        <ele>533.19000200000005</ele>
        <time>2017-06-11T07:38:02Z</time>
      </trkpt>
      <trkpt lat="42.004953296855092" lon="12.838155906647444">
        <ele>533.669983</ele>
        <time>2017-06-11T07:38:07Z</time>
      </trkpt>
      <trkpt lat="42.004950866103172" lon="12.838261518627405">
        <ele>535.10998500000005</ele>
        <time>2017-06-11T07:38:16Z</time>
      </trkpt>
      <trkpt lat="42.004936868324876" lon="12.838405519723892">
        <ele>537.51000999999997</ele>
        <time>2017-06-11T07:38:29Z</time>
      </trkpt>
      <trkpt lat="42.004968803375959" lon="12.83839805983007">
        <ele>538.47997999999995</ele>
        <time>2017-06-11T07:38:41Z</time>
      </trkpt>
      <trkpt lat="42.005003336817026" lon="12.838330334052444">
        <ele>539.44000200000005</ele>
        <time>2017-06-11T07:38:52Z</time>
      </trkpt>
      <trkpt lat="42.005025800317526" lon="12.838287334889174">
        <ele>539.919983</ele>
        <time>2017-06-11T07:38:58Z</time>
      </trkpt>
      <trkpt lat="42.005094364285469" lon="12.838184237480164">
        <ele>540.39996299999996</ele>
        <time>2017-06-11T07:39:09Z</time>
      </trkpt>
      <trkpt lat="42.005110289901495" lon="12.838164875283837">
        <ele>540.39996299999996</ele>
        <time>2017-06-11T07:39:11Z</time>
      </trkpt>
      <trkpt lat="42.005183296278119" lon="12.838061861693859">
        <ele>540.88000499999998</ele>
        <time>2017-06-11T07:39:21Z</time>
      </trkpt>
      <trkpt lat="42.005263594910502" lon="12.838193876668811">
        <ele>541.84002699999996</ele>
        <time>2017-06-11T07:39:34Z</time>
      </trkpt>
      <trkpt lat="42.005264097824693" lon="12.83820753917098">
        <ele>542.32000700000003</ele>
        <time>2017-06-11T07:39:35Z</time>
      </trkpt>
      <trkpt lat="42.005189079791307" lon="12.838384062051773">
        <ele>542.79998799999998</ele>
        <time>2017-06-11T07:39:47Z</time>
      </trkpt>
      <trkpt lat="42.00511054135859" lon="12.83856175839901">
        <ele>543.76000999999997</ele>
        <time>2017-06-11T07:40:01Z</time>
      </trkpt>
      <trkpt lat="42.005094364285469" lon="12.838607858866453">
        <ele>543.27996800000005</ele>
        <time>2017-06-11T07:40:06Z</time>
      </trkpt>
      <trkpt lat="42.005096795037389" lon="12.838632669299841">
        <ele>545.20001200000002</ele>
        <time>2017-06-11T07:40:08Z</time>
      </trkpt>
      <trkpt lat="42.005107020959258" lon="12.83866343088448">
        <ele>545.20001200000002</ele>
        <time>2017-06-11T07:40:11Z</time>
      </trkpt>
      <trkpt lat="42.005116827785969" lon="12.838720008730888">
        <ele>544.72003199999995</ele>
        <time>2017-06-11T07:40:15Z</time>
      </trkpt>
      <trkpt lat="42.005168376490474" lon="12.838635938242078">
        <ele>547.13000499999998</ele>
        <time>2017-06-11T07:40:29Z</time>
      </trkpt>
      <trkpt lat="42.005264265462756" lon="12.838573409244418">
        <ele>548.57000700000003</ele>
        <time>2017-06-11T07:40:42Z</time>
      </trkpt>
      <trkpt lat="42.005367111414671" lon="12.838531835004687">
        <ele>551.92999299999997</ele>
        <time>2017-06-11T07:40:56Z</time>
      </trkpt>
      <trkpt lat="42.005460737273097" lon="12.838480537757277">
        <ele>553.85998500000005</ele>
        <time>2017-06-11T07:41:10Z</time>
      </trkpt>
      <trkpt lat="42.005512537434697" lon="12.838463941588998">
        <ele>554.82000700000003</ele>
        <time>2017-06-11T07:41:16Z</time>
      </trkpt>
      <trkpt lat="42.00559132732451" lon="12.838443741202354">
        <ele>555.77996800000005</ele>
        <time>2017-06-11T07:41:25Z</time>
      </trkpt>
      <trkpt lat="42.005712613463402" lon="12.838399233296514">
        <ele>558.17999299999997</ele>
        <time>2017-06-11T07:41:39Z</time>
      </trkpt>
      <trkpt lat="42.005779081955552" lon="12.838391102850437">
        <ele>559.14001499999995</ele>
        <time>2017-06-11T07:41:47Z</time>
      </trkpt>
      <trkpt lat="42.005908833816648" lon="12.838382720947266">
        <ele>561.07000700000003</ele>
        <time>2017-06-11T07:42:01Z</time>
      </trkpt>
      <trkpt lat="42.005981672555208" lon="12.838380290195346">
        <ele>562.98999000000003</ele>
        <time>2017-06-11T07:42:10Z</time>
      </trkpt>
      <trkpt lat="42.00601059012115" lon="12.838382134214044">
        <ele>563.47003199999995</ele>
        <time>2017-06-11T07:42:14Z</time>
      </trkpt>
      <trkpt lat="42.006111089140177" lon="12.838383559137583">
        <ele>565.39001499999995</ele>
        <time>2017-06-11T07:42:26Z</time>
      </trkpt>
      <trkpt lat="42.006213515996933" lon="12.83839512616396">
        <ele>567.79998799999998</ele>
        <time>2017-06-11T07:42:38Z</time>
      </trkpt>
      <trkpt lat="42.006300603970885" lon="12.838409459218383">
        <ele>569.23999000000003</ele>
        <time>2017-06-11T07:42:49Z</time>
      </trkpt>
      <trkpt lat="42.006408562883735" lon="12.838452626019716">
        <ele>570.67999299999997</ele>
        <time>2017-06-11T07:43:01Z</time>
      </trkpt>
      <trkpt lat="42.006493890658021" lon="12.838504510000348">
        <ele>573.080017</ele>
        <time>2017-06-11T07:43:13Z</time>
      </trkpt>
      <trkpt lat="42.006500763818622" lon="12.838557986542583">
        <ele>573.55999799999995</ele>
        <time>2017-06-11T07:43:33Z</time>
      </trkpt>
      <trkpt lat="42.006496237590909" lon="12.838584138080478">
        <ele>574.04003899999998</ele>
        <time>2017-06-11T07:43:37Z</time>
      </trkpt>
      <trkpt lat="42.006484335288405" lon="12.83862579613924">
        <ele>574.52996800000005</ele>
        <time>2017-06-11T07:43:41Z</time>
      </trkpt>
      <trkpt lat="42.006422476842999" lon="12.838719421997666">
        <ele>577.40997300000004</ele>
        <time>2017-06-11T07:43:54Z</time>
      </trkpt>
      <trkpt lat="42.006352236494422" lon="12.838821094483137">
        <ele>579.80999799999995</ele>
        <time>2017-06-11T07:44:06Z</time>
      </trkpt>
      <trkpt lat="42.00634871609509" lon="12.83883492462337">
        <ele>579.80999799999995</ele>
        <time>2017-06-11T07:44:08Z</time>
      </trkpt>
      <trkpt lat="42.006304459646344" lon="12.838972806930542">
        <ele>581.72997999999995</ele>
        <time>2017-06-11T07:44:21Z</time>
      </trkpt>
      <trkpt lat="42.006284929811954" lon="12.839033408090472">
        <ele>582.22003199999995</ele>
        <time>2017-06-11T07:44:27Z</time>
      </trkpt>
      <trkpt lat="42.006286438554525" lon="12.839191071689129">
        <ele>584.61999500000002</ele>
        <time>2017-06-11T07:44:42Z</time>
      </trkpt>
      <trkpt lat="42.006272273138165" lon="12.839343538507819">
        <ele>587.97997999999995</ele>
        <time>2017-06-11T07:44:56Z</time>
      </trkpt>
      <trkpt lat="42.006270261481404" lon="12.839461304247379">
        <ele>588.95001200000002</ele>
        <time>2017-06-11T07:45:08Z</time>
      </trkpt>
      <trkpt lat="42.00627788901329" lon="12.839555265381932">
        <ele>590.39001499999995</ele>
        <time>2017-06-11T07:45:17Z</time>
      </trkpt>
      <trkpt lat="42.006315775215626" lon="12.839671187102795">
        <ele>591.830017</ele>
        <time>2017-06-11T07:45:28Z</time>
      </trkpt>
      <trkpt lat="42.006390122696757" lon="12.839761460199952">
        <ele>594.22997999999995</ele>
        <time>2017-06-11T07:45:42Z</time>
      </trkpt>
      <trkpt lat="42.006393224000931" lon="12.839768920093775">
        <ele>594.22997999999995</ele>
        <time>2017-06-11T07:45:43Z</time>
      </trkpt>
      <trkpt lat="42.006487939506769" lon="12.839855002239347">
        <ele>595.669983</ele>
        <time>2017-06-11T07:45:56Z</time>
      </trkpt>
      <trkpt lat="42.006530938670039" lon="12.839881405234337">
        <ele>596.14996299999996</ele>
        <time>2017-06-11T07:46:02Z</time>
      </trkpt>
      <trkpt lat="42.006624732166529" lon="12.839962122961879">
        <ele>598.080017</ele>
        <time>2017-06-11T07:46:15Z</time>
      </trkpt>
      <trkpt lat="42.006725817918777" lon="12.840014258399606">
        <ele>600</ele>
        <time>2017-06-11T07:46:29Z</time>
      </trkpt>
      <trkpt lat="42.00682413764298" lon="12.840052396059036">
        <ele>601.919983</ele>
        <time>2017-06-11T07:46:42Z</time>
      </trkpt>
      <trkpt lat="42.006920278072357" lon="12.840117020532489">
        <ele>603.84997599999997</ele>
        <time>2017-06-11T07:46:55Z</time>
      </trkpt>
      <trkpt lat="42.007021028548479" lon="12.840201426297426">
        <ele>604.330017</ele>
        <time>2017-06-11T07:47:08Z</time>
      </trkpt>
      <trkpt lat="42.007116582244635" lon="12.840277031064034">
        <ele>606.25</ele>
        <time>2017-06-11T07:47:20Z</time>
      </trkpt>
      <trkpt lat="42.007153294980526" lon="12.840323215350509">
        <ele>608.169983</ele>
        <time>2017-06-11T07:47:34Z</time>
      </trkpt>
      <trkpt lat="42.007159581407905" lon="12.840332183986902">
        <ele>608.64996299999996</ele>
        <time>2017-06-11T07:47:49Z</time>
      </trkpt>
      <trkpt lat="42.007173411548138" lon="12.840350288897753">
        <ele>608.64996299999996</ele>
        <time>2017-06-11T07:47:57Z</time>
      </trkpt>
      <trkpt lat="42.007304588332772" lon="12.840413739904761">
        <ele>610.57000700000003</ele>
        <time>2017-06-11T07:48:12Z</time>
      </trkpt>
      <trkpt lat="42.007417576387525" lon="12.840516334399581">
        <ele>611.54003899999998</ele>
        <time>2017-06-11T07:48:26Z</time>
      </trkpt>
      <trkpt lat="42.007448589429259" lon="12.840564111247659">
        <ele>612.01995799999997</ele>
        <time>2017-06-11T07:48:34Z</time>
      </trkpt>
      <trkpt lat="42.007560823112726" lon="12.840670477598906">
        <ele>612.5</ele>
        <time>2017-06-11T07:48:47Z</time>
      </trkpt>
      <trkpt lat="42.007675487548113" lon="12.840737868100405">
        <ele>614.419983</ele>
        <time>2017-06-11T07:49:01Z</time>
      </trkpt>
      <trkpt lat="42.007781434804201" lon="12.840756811201572">
        <ele>615.38000499999998</ele>
        <time>2017-06-11T07:49:15Z</time>
      </trkpt>
      <trkpt lat="42.007900960743427" lon="12.840766701847315">
        <ele>618.75</ele>
        <time>2017-06-11T07:49:31Z</time>
      </trkpt>
      <trkpt lat="42.008015038445592" lon="12.840782459825277">
        <ele>620.669983</ele>
        <time>2017-06-11T07:49:43Z</time>
      </trkpt>
      <trkpt lat="42.008037166669965" lon="12.84076452255249">
        <ele>619.71002199999998</ele>
        <time>2017-06-11T07:49:58Z</time>
      </trkpt>
      <trkpt lat="42.008175803348422" lon="12.840815568342805">
        <ele>622.59002699999996</ele>
        <time>2017-06-11T07:50:12Z</time>
      </trkpt>
      <trkpt lat="42.008298598229885" lon="12.840887317433953">
        <ele>623.54998799999998</ele>
        <time>2017-06-11T07:50:25Z</time>
      </trkpt>
      <trkpt lat="42.008412759751081" lon="12.840995779260993">
        <ele>624.98999000000003</ele>
        <time>2017-06-11T07:50:39Z</time>
      </trkpt>
      <trkpt lat="42.008538907393813" lon="12.841095272451639">
        <ele>625.96002199999998</ele>
        <time>2017-06-11T07:50:56Z</time>
      </trkpt>
      <trkpt lat="42.008591964840889" lon="12.841126620769501">
        <ele>626.44000200000005</ele>
        <time>2017-06-11T07:51:02Z</time>
      </trkpt>
      <trkpt lat="42.00863647274673" lon="12.841175403445959">
        <ele>626.92004399999996</ele>
        <time>2017-06-11T07:51:08Z</time>
      </trkpt>
      <trkpt lat="42.008741665631533" lon="12.841279590502381">
        <ele>628.35998500000005</ele>
        <time>2017-06-11T07:51:22Z</time>
      </trkpt>
      <trkpt lat="42.008849373087287" lon="12.841328540816903">
        <ele>630.76000999999997</ele>
        <time>2017-06-11T07:51:36Z</time>
      </trkpt>
      <trkpt lat="42.008980298414826" lon="12.841371037065983">
        <ele>631.23999000000003</ele>
        <time>2017-06-11T07:51:49Z</time>
      </trkpt>
      <trkpt lat="42.009125305339694" lon="12.841411018744111">
        <ele>632.67999299999997</ele>
        <time>2017-06-11T07:52:04Z</time>
      </trkpt>
      <trkpt lat="42.009244915097952" lon="12.841459633782506">
        <ele>632.20001200000002</ele>
        <time>2017-06-11T07:52:17Z</time>
      </trkpt>
      <trkpt lat="42.009336277842522" lon="12.841489473357797">
        <ele>631.23999000000003</ele>
        <time>2017-06-11T07:52:25Z</time>
      </trkpt>
      <trkpt lat="42.009492013603449" lon="12.841509338468313">
        <ele>630.76000999999997</ele>
        <time>2017-06-11T07:52:40Z</time>
      </trkpt>
      <trkpt lat="42.00952528975904" lon="12.841507494449615">
        <ele>630.76000999999997</ele>
        <time>2017-06-11T07:52:43Z</time>
      </trkpt>
      <trkpt lat="42.009593518450856" lon="12.84149793908">
        <ele>630.76000999999997</ele>
        <time>2017-06-11T07:52:49Z</time>
      </trkpt>
      <trkpt lat="42.009719163179398" lon="12.841443289071321">
        <ele>630.76000999999997</ele>
        <time>2017-06-11T07:53:00Z</time>
      </trkpt>
      <trkpt lat="42.009779261425138" lon="12.841366175562143">
        <ele>630.27996800000005</ele>
        <time>2017-06-11T07:53:08Z</time>
      </trkpt>
      <trkpt lat="42.009891159832478" lon="12.841266933828592">
        <ele>630.27996800000005</ele>
        <time>2017-06-11T07:53:22Z</time>
      </trkpt>
      <trkpt lat="42.009980175644159" lon="12.841189904138446">
        <ele>631.23999000000003</ele>
        <time>2017-06-11T07:53:33Z</time>
      </trkpt>
      <trkpt lat="42.009999537840486" lon="12.841172805055976">
        <ele>631.23999000000003</ele>
        <time>2017-06-11T07:53:35Z</time>
      </trkpt>
      <trkpt lat="42.010110933333635" lon="12.841045316308737">
        <ele>632.67999299999997</ele>
        <time>2017-06-11T07:53:48Z</time>
      </trkpt>
      <trkpt lat="42.010186370462179" lon="12.840882204473019">
        <ele>633.169983</ele>
        <time>2017-06-11T07:54:00Z</time>
      </trkpt>
      <trkpt lat="42.010262478142977" lon="12.840801738202572">
        <ele>633.65002400000003</ele>
        <time>2017-06-11T07:54:12Z</time>
      </trkpt>
      <trkpt lat="42.010335484519601" lon="12.840671734884381">
        <ele>634.60998500000005</ele>
        <time>2017-06-11T07:54:22Z</time>
      </trkpt>
      <trkpt lat="42.010359792038798" lon="12.840624041855335">
        <ele>634.13000499999998</ele>
        <time>2017-06-11T07:54:26Z</time>
      </trkpt>
      <trkpt lat="42.010367335751653" lon="12.840555058792233">
        <ele>634.60998500000005</ele>
        <time>2017-06-11T07:54:30Z</time>
      </trkpt>
      <trkpt lat="42.010380160063505" lon="12.840516669675708">
        <ele>634.60998500000005</ele>
        <time>2017-06-11T07:54:33Z</time>
      </trkpt>
      <trkpt lat="42.010422321036458" lon="12.840443998575211">
        <ele>634.60998500000005</ele>
        <time>2017-06-11T07:54:47Z</time>
      </trkpt>
      <trkpt lat="42.010436989367008" lon="12.840471491217613">
        <ele>635.09002699999996</ele>
        <time>2017-06-11T07:55:02Z</time>
      </trkpt>
      <trkpt lat="42.010384602472186" lon="12.840418601408601">
        <ele>635.09002699999996</ele>
        <time>2017-06-11T07:55:09Z</time>
      </trkpt>
      <trkpt lat="42.010324839502573" lon="12.840291112661362">
        <ele>635.57000700000003</ele>
        <time>2017-06-11T07:55:26Z</time>
      </trkpt>
      <trkpt lat="42.010295670479536" lon="12.840273594483733">
        <ele>634.60998500000005</ele>
        <time>2017-06-11T07:55:39Z</time>
      </trkpt>
      <trkpt lat="42.010330790653825" lon="12.840304439887404">
        <ele>634.13000499999998</ele>
        <time>2017-06-11T07:56:03Z</time>
      </trkpt>
      <trkpt lat="42.01035987585783" lon="12.84033453091979">
        <ele>634.13000499999998</ele>
        <time>2017-06-11T07:56:33Z</time>
      </trkpt>
      <trkpt lat="42.010356858372688" lon="12.840320700779557">
        <ele>634.13000499999998</ele>
        <time>2017-06-11T07:57:08Z</time>
      </trkpt>
      <trkpt lat="42.010337663814425" lon="12.840322125703096">
        <ele>634.60998500000005</ele>
        <time>2017-06-11T07:57:47Z</time>
      </trkpt>
      <trkpt lat="42.010363480076194" lon="12.840336207300425">
        <ele>635.57000700000003</ele>
        <time>2017-06-11T07:58:17Z</time>
      </trkpt>
      <trkpt lat="42.010354259982705" lon="12.840322460979223">
        <ele>635.57000700000003</ele>
        <time>2017-06-11T07:58:55Z</time>
      </trkpt>
      <trkpt lat="42.010381417348981" lon="12.840318102389574">
        <ele>635.57000700000003</ele>
        <time>2017-06-11T07:59:26Z</time>
      </trkpt>
      <trkpt lat="42.010358367115259" lon="12.840315336361527">
        <ele>635.57000700000003</ele>
        <time>2017-06-11T08:00:00Z</time>
      </trkpt>
      <trkpt lat="42.010354930534959" lon="12.840327322483063">
        <ele>636.05004899999994</ele>
        <time>2017-06-11T08:00:27Z</time>
      </trkpt>
      <trkpt lat="42.010368090122938" lon="12.840335033833981">
        <ele>636.05004899999994</ele>
        <time>2017-06-11T08:00:51Z</time>
      </trkpt>
      <trkpt lat="42.010369515046477" lon="12.840326065197587">
        <ele>636.05004899999994</ele>
        <time>2017-06-11T08:01:15Z</time>
      </trkpt>
      <trkpt lat="42.010401114821434" lon="12.840314414352179">
        <ele>636.05004899999994</ele>
        <time>2017-06-11T08:01:46Z</time>
      </trkpt>
      <trkpt lat="42.010416788980365" lon="12.840314330533147">
        <ele>636.05004899999994</ele>
        <time>2017-06-11T08:02:15Z</time>
      </trkpt>
      <trkpt lat="42.010406060144305" lon="12.840294716879725">
        <ele>636.05004899999994</ele>
        <time>2017-06-11T08:02:51Z</time>
      </trkpt>
      <trkpt lat="42.010408407077193" lon="12.840313408523798">
        <ele>636.05004899999994</ele>
        <time>2017-06-11T08:03:21Z</time>
      </trkpt>
      <trkpt lat="42.010387536138296" lon="12.840318270027637">
        <ele>636.53002900000001</ele>
        <time>2017-06-11T08:03:45Z</time>
      </trkpt>
      <trkpt lat="42.010404886677861" lon="12.840320533141494">
        <ele>635.57000700000003</ele>
        <time>2017-06-11T08:04:21Z</time>
      </trkpt>
      <trkpt lat="42.010395079851151" lon="12.840318940579891">
        <ele>635.57000700000003</ele>
        <time>2017-06-11T08:04:50Z</time>
      </trkpt>
      <trkpt lat="42.010397594422102" lon="12.840327322483063">
        <ele>636.53002900000001</ele>
        <time>2017-06-11T08:05:05Z</time>
      </trkpt>
      <trkpt lat="42.010408574715257" lon="12.84031986258924">
        <ele>635.57000700000003</ele>
        <time>2017-06-11T08:05:30Z</time>
      </trkpt>
      <trkpt lat="42.010402707383037" lon="12.840319611132145">
        <ele>635.09002699999996</ele>
        <time>2017-06-11T08:06:04Z</time>
      </trkpt>
      <trkpt lat="42.010397929698229" lon="12.840337799862027">
        <ele>636.53002900000001</ele>
        <time>2017-06-11T08:06:34Z</time>
      </trkpt>
      <trkpt lat="42.010407485067844" lon="12.840346433222294">
        <ele>636.53002900000001</ele>
        <time>2017-06-11T08:07:02Z</time>
      </trkpt>
      <trkpt lat="42.010403629392385" lon="12.840366801247001">
        <ele>636.53002900000001</ele>
        <time>2017-06-11T08:07:19Z</time>
      </trkpt>
      <trkpt lat="42.010400276631117" lon="12.840358000248671">
        <ele>636.53002900000001</ele>
        <time>2017-06-11T08:07:32Z</time>
      </trkpt>
      <trkpt lat="42.010398264974356" lon="12.840365963056684">
        <ele>637.00994900000001</ele>
        <time>2017-06-11T08:07:40Z</time>
      </trkpt>
      <trkpt lat="42.010443862527609" lon="12.84042346291244">
        <ele>637.00994900000001</ele>
        <time>2017-06-11T08:07:50Z</time>
      </trkpt>
      <trkpt lat="42.01042584143579" lon="12.840519016608596">
        <ele>637.00994900000001</ele>
        <time>2017-06-11T08:08:03Z</time>
      </trkpt>
      <trkpt lat="42.010375885292888" lon="12.840530499815941">
        <ele>637.00994900000001</ele>
        <time>2017-06-11T08:08:37Z</time>
      </trkpt>
      <trkpt lat="42.010394409298897" lon="12.840538881719112">
        <ele>637.00994900000001</ele>
        <time>2017-06-11T08:09:05Z</time>
      </trkpt>
      <trkpt lat="42.01040337793529" lon="12.840527063235641">
        <ele>637.00994900000001</ele>
        <time>2017-06-11T08:09:30Z</time>
      </trkpt>
      <trkpt lat="42.010446880012751" lon="12.840541396290064">
        <ele>637.00994900000001</ele>
        <time>2017-06-11T08:09:57Z</time>
      </trkpt>
      <trkpt lat="42.010430786758661" lon="12.840571822598577">
        <ele>637.00994900000001</ele>
        <time>2017-06-11T08:10:29Z</time>
      </trkpt>
      <trkpt lat="42.010400863364339" lon="12.840540809556842">
        <ele>637.00994900000001</ele>
        <time>2017-06-11T08:10:57Z</time>
      </trkpt>
      <trkpt lat="42.010414861142635" lon="12.840550197288394">
        <ele>637.48999000000003</ele>
        <time>2017-06-11T08:11:29Z</time>
      </trkpt>
      <trkpt lat="42.010394325479865" lon="12.840582886710763">
        <ele>637.48999000000003</ele>
        <time>2017-06-11T08:11:57Z</time>
      </trkpt>
      <trkpt lat="42.010409999638796" lon="12.840558663010597">
        <ele>637.48999000000003</ele>
        <time>2017-06-11T08:12:04Z</time>
      </trkpt>
      <trkpt lat="42.010539164766669" lon="12.840422289445996">
        <ele>637.48999000000003</ele>
        <time>2017-06-11T08:12:18Z</time>
      </trkpt>
      <trkpt lat="42.010628934949636" lon="12.840419104322791">
        <ele>637.48999000000003</ele>
        <time>2017-06-11T08:12:27Z</time>
      </trkpt>
      <trkpt lat="42.010705461725593" lon="12.840442238375545">
        <ele>637.96997099999999</ele>
        <time>2017-06-11T08:12:35Z</time>
      </trkpt>
      <trkpt lat="42.010642262175679" lon="12.840480459854007">
        <ele>637.96997099999999</ele>
        <time>2017-06-11T08:12:46Z</time>
      </trkpt>
      <trkpt lat="42.010601190850139" lon="12.840609876438975">
        <ele>639.40997300000004</ele>
        <time>2017-06-11T08:13:00Z</time>
      </trkpt>
      <trkpt lat="42.010629689320922" lon="12.840627813711762">
        <ele>639.40997300000004</ele>
        <time>2017-06-11T08:13:25Z</time>
      </trkpt>
      <trkpt lat="42.010628264397383" lon="12.840631082653999">
        <ele>639.40997300000004</ele>
        <time>2017-06-11T08:13:50Z</time>
      </trkpt>
      <trkpt lat="42.010633880272508" lon="12.840629825368524">
        <ele>639.40997300000004</ele>
        <time>2017-06-11T08:14:22Z</time>
      </trkpt>
      <trkpt lat="42.010661540552974" lon="12.840581964701414">
        <ele>639.40997300000004</ele>
        <time>2017-06-11T08:14:45Z</time>
      </trkpt>
      <trkpt lat="42.010765895247459" lon="12.840637536719441">
        <ele>640.85998500000005</ele>
        <time>2017-06-11T08:15:01Z</time>
      </trkpt>
      <trkpt lat="42.010806882753968" lon="12.840645331889391">
        <ele>641.339966</ele>
        <time>2017-06-11T08:15:05Z</time>
      </trkpt>
      <trkpt lat="42.010910399258137" lon="12.840643990784883">
        <ele>642.77996800000005</ele>
        <time>2017-06-11T08:15:20Z</time>
      </trkpt>
      <trkpt lat="42.011004108935595" lon="12.840668130666018">
        <ele>643.73999000000003</ele>
        <time>2017-06-11T08:15:39Z</time>
      </trkpt>
      <trkpt lat="42.01105423271656" lon="12.840642062947154">
        <ele>643.73999000000003</ele>
        <time>2017-06-11T08:15:56Z</time>
      </trkpt>
      <trkpt lat="42.011072840541601" lon="12.840657401829958">
        <ele>643.73999000000003</ele>
        <time>2017-06-11T08:15:57Z</time>
      </trkpt>
      <trkpt lat="42.01107669621706" lon="12.84065748564899">
        <ele>643.73999000000003</ele>
        <time>2017-06-11T08:15:58Z</time>
      </trkpt>
      <trkpt lat="42.011128664016724" lon="12.840633010491729">
        <ele>644.22003199999995</ele>
        <time>2017-06-11T08:16:04Z</time>
      </trkpt>
      <trkpt lat="42.011141236871481" lon="12.840626304969192">
        <ele>644.22003199999995</ele>
        <time>2017-06-11T08:16:05Z</time>
      </trkpt>
      <trkpt lat="42.011155905202031" lon="12.840619934722781">
        <ele>644.22003199999995</ele>
        <time>2017-06-11T08:16:06Z</time>
      </trkpt>
      <trkpt lat="42.011169400066137" lon="12.840614318847656">
        <ele>645.17999299999997</ele>
        <time>2017-06-11T08:16:07Z</time>
      </trkpt>
      <trkpt lat="42.011186834424734" lon="12.840611385181546">
        <ele>645.17999299999997</ele>
        <time>2017-06-11T08:16:08Z</time>
      </trkpt>
      <trkpt lat="42.011199239641428" lon="12.840611469000578">
        <ele>645.17999299999997</ele>
        <time>2017-06-11T08:16:09Z</time>
      </trkpt>
      <trkpt lat="42.011224888265133" lon="12.840614737942815">
        <ele>646.62005599999998</ele>
        <time>2017-06-11T08:16:12Z</time>
      </trkpt>
      <trkpt lat="42.0113180950284" lon="12.840646672993898">
        <ele>647.09997599999997</ele>
        <time>2017-06-11T08:16:29Z</time>
      </trkpt>
      <trkpt lat="42.011379199102521" lon="12.840662933886051">
        <ele>648.55004899999994</ele>
        <time>2017-06-11T08:16:35Z</time>
      </trkpt>
      <trkpt lat="42.011450864374638" lon="12.840737532824278">
        <ele>650.46997099999999</ele>
        <time>2017-06-11T08:16:51Z</time>
      </trkpt>
      <trkpt lat="42.0114959590137" lon="12.840780364349484">
        <ele>650.95001200000002</ele>
        <time>2017-06-11T08:16:58Z</time>
      </trkpt>
      <trkpt lat="42.011600732803345" lon="12.84079578705132">
        <ele>651.42999299999997</ele>
        <time>2017-06-11T08:17:15Z</time>
      </trkpt>
      <trkpt lat="42.0116444863379" lon="12.840771563351154">
        <ele>651.42999299999997</ele>
        <time>2017-06-11T08:17:34Z</time>
      </trkpt>
      <trkpt lat="42.011667704209685" lon="12.840788327157497">
        <ele>652.39001499999995</ele>
        <time>2017-06-11T08:18:00Z</time>
      </trkpt>
      <trkpt lat="42.011774070560932" lon="12.840861333534122">
        <ele>653.830017</ele>
        <time>2017-06-11T08:18:12Z</time>
      </trkpt>
      <trkpt lat="42.011787733063102" lon="12.840866362676024">
        <ele>653.830017</ele>
        <time>2017-06-11T08:18:13Z</time>
      </trkpt>
      <trkpt lat="42.011902565136552" lon="12.84094431437552">
        <ele>654.79998799999998</ele>
        <time>2017-06-11T08:18:25Z</time>
      </trkpt>
      <trkpt lat="42.011931482702494" lon="12.840959569439292">
        <ele>654.79998799999998</ele>
        <time>2017-06-11T08:18:28Z</time>
      </trkpt>
      <trkpt lat="42.011941289529204" lon="12.840971136465669">
        <ele>654.79998799999998</ele>
        <time>2017-06-11T08:18:29Z</time>
      </trkpt>
      <trkpt lat="42.011949587613344" lon="12.840984966605902">
        <ele>654.79998799999998</ele>
        <time>2017-06-11T08:18:30Z</time>
      </trkpt>
      <trkpt lat="42.011956963688135" lon="12.841004161164165">
        <ele>655.27996800000005</ele>
        <time>2017-06-11T08:18:31Z</time>
      </trkpt>
      <trkpt lat="42.01196551322937" lon="12.841019667685032">
        <ele>655.27996800000005</ele>
        <time>2017-06-11T08:18:32Z</time>
      </trkpt>
      <trkpt lat="42.011975571513176" lon="12.841033665463328">
        <ele>655.76000999999997</ele>
        <time>2017-06-11T08:18:33Z</time>
      </trkpt>
      <trkpt lat="42.011985797435045" lon="12.841045735403895">
        <ele>655.76000999999997</ele>
        <time>2017-06-11T08:18:34Z</time>
      </trkpt>
      <trkpt lat="42.011996693909168" lon="12.84105428494513">
        <ele>655.76000999999997</ele>
        <time>2017-06-11T08:18:35Z</time>
      </trkpt>
      <trkpt lat="42.01200557872653" lon="12.841064929962158">
        <ele>655.76000999999997</ele>
        <time>2017-06-11T08:18:36Z</time>
      </trkpt>
      <trkpt lat="42.012013541534543" lon="12.841075491160154">
        <ele>655.76000999999997</ele>
        <time>2017-06-11T08:18:37Z</time>
      </trkpt>
      <trkpt lat="42.012022258713841" lon="12.841087225824594">
        <ele>656.23999000000003</ele>
        <time>2017-06-11T08:18:38Z</time>
      </trkpt>
      <trkpt lat="42.012155866250396" lon="12.841172637417912">
        <ele>659.12005599999998</ele>
        <time>2017-06-11T08:18:53Z</time>
      </trkpt>
      <trkpt lat="42.012169528752565" lon="12.841187808662653">
        <ele>659.12005599999998</ele>
        <time>2017-06-11T08:18:55Z</time>
      </trkpt>
      <trkpt lat="42.012273715808988" lon="12.841314626857638">
        <ele>660.07995600000004</ele>
        <time>2017-06-11T08:19:07Z</time>
      </trkpt>
      <trkpt lat="42.012332389131188" lon="12.841400122269988">
        <ele>661.52002000000005</ele>
        <time>2017-06-11T08:19:23Z</time>
      </trkpt>
      <trkpt lat="42.012471277266741" lon="12.8414720389992">
        <ele>662.96997099999999</ele>
        <time>2017-06-11T08:19:38Z</time>
      </trkpt>
      <trkpt lat="42.012485777959228" lon="12.841470278799534">
        <ele>663.45001200000002</ele>
        <time>2017-06-11T08:19:39Z</time>
      </trkpt>
      <trkpt lat="42.012648638337851" lon="12.841363828629255">
        <ele>662.00994900000001</ele>
        <time>2017-06-11T08:19:53Z</time>
      </trkpt>
      <trkpt lat="42.012788029387593" lon="12.841306328773499">
        <ele>660.07995600000004</ele>
        <time>2017-06-11T08:20:08Z</time>
      </trkpt>
      <trkpt lat="42.013036385178566" lon="12.841206416487694">
        <ele>657.20001200000002</ele>
        <time>2017-06-11T08:20:26Z</time>
      </trkpt>
      <trkpt lat="42.013185163959861" lon="12.841202141717076">
        <ele>655.27996800000005</ele>
        <time>2017-06-11T08:20:42Z</time>
      </trkpt>
      <trkpt lat="42.013207376003265" lon="12.841170290485024">
        <ele>655.27996800000005</ele>
        <time>2017-06-11T08:20:45Z</time>
      </trkpt>
      <trkpt lat="42.013292284682393" lon="12.840930065140128">
        <ele>656.23999000000003</ele>
        <time>2017-06-11T08:21:00Z</time>
      </trkpt>
      <trkpt lat="42.013312065973878" lon="12.840778771787882">
        <ele>656.72003199999995</ele>
        <time>2017-06-11T08:21:11Z</time>
      </trkpt>
      <trkpt lat="42.01332489028573" lon="12.840468222275376">
        <ele>658.160034</ele>
        <time>2017-06-11T08:21:27Z</time>
      </trkpt>
      <trkpt lat="42.013328410685062" lon="12.840281976386905">
        <ele>659.59997599999997</ele>
        <time>2017-06-11T08:21:41Z</time>
      </trkpt>
      <trkpt lat="42.013336038216949" lon="12.840262362733483">
        <ele>659.59997599999997</ele>
        <time>2017-06-11T08:21:42Z</time>
      </trkpt>
      <trkpt lat="42.013339558616281" lon="12.840237971395254">
        <ele>659.59997599999997</ele>
        <time>2017-06-11T08:21:43Z</time>
      </trkpt>
      <trkpt lat="42.013352466747165" lon="12.840202180668712">
        <ele>659.59997599999997</ele>
        <time>2017-06-11T08:21:55Z</time>
      </trkpt>
      <trkpt lat="42.013377277180552" lon="12.840201929211617">
        <ele>660.07995600000004</ele>
        <time>2017-06-11T08:22:16Z</time>
      </trkpt>
      <trkpt lat="42.013417510315776" lon="12.840166725218296">
        <ele>660.07995600000004</ele>
        <time>2017-06-11T08:22:48Z</time>
      </trkpt>
      <trkpt lat="42.01339622028172" lon="12.840167563408613">
        <ele>658.63995399999999</ele>
        <time>2017-06-11T08:23:00Z</time>
      </trkpt>
      <trkpt lat="42.013391861692071" lon="12.840152978897095">
        <ele>658.63995399999999</ele>
        <time>2017-06-11T08:23:01Z</time>
      </trkpt>
      <trkpt lat="42.013393538072705" lon="12.84012976102531">
        <ele>658.63995399999999</ele>
        <time>2017-06-11T08:23:02Z</time>
      </trkpt>
      <trkpt lat="42.013368392363191" lon="12.839923398569226">
        <ele>660.07995600000004</ele>
        <time>2017-06-11T08:23:12Z</time>
      </trkpt>
      <trkpt lat="42.013363111764193" lon="12.839907975867391">
        <ele>660.07995600000004</ele>
        <time>2017-06-11T08:23:13Z</time>
      </trkpt>
      <trkpt lat="42.01336202211678" lon="12.839891882613301">
        <ele>660.07995600000004</ele>
        <time>2017-06-11T08:23:14Z</time>
      </trkpt>
      <trkpt lat="42.013359675183892" lon="12.839874364435673">
        <ele>660.07995600000004</ele>
        <time>2017-06-11T08:23:15Z</time>
      </trkpt>
      <trkpt lat="42.013356238603592" lon="12.839861204847693">
        <ele>660.55999799999995</ele>
        <time>2017-06-11T08:23:16Z</time>
      </trkpt>
      <trkpt lat="42.013353640213609" lon="12.839844776317477">
        <ele>660.55999799999995</ele>
        <time>2017-06-11T08:23:17Z</time>
      </trkpt>
      <trkpt lat="42.013368476182222" lon="12.839521821588278">
        <ele>662.00994900000001</ele>
        <time>2017-06-11T08:23:33Z</time>
      </trkpt>
      <trkpt lat="42.013435531407595" lon="12.839258629828691">
        <ele>663.92999299999997</ele>
        <time>2017-06-11T08:23:48Z</time>
      </trkpt>
      <trkpt lat="42.013459419831634" lon="12.839154610410333">
        <ele>664.40997300000004</ele>
        <time>2017-06-11T08:24:01Z</time>
      </trkpt>
      <trkpt lat="42.013483140617609" lon="12.839086968451738">
        <ele>664.40997300000004</ele>
        <time>2017-06-11T08:24:13Z</time>
      </trkpt>
      <trkpt lat="42.013609036803246" lon="12.838956797495484">
        <ele>665.36999500000002</ele>
        <time>2017-06-11T08:24:28Z</time>
      </trkpt>
      <trkpt lat="42.013777177780867" lon="12.838823860511184">
        <ele>666.330017</ele>
        <time>2017-06-11T08:24:41Z</time>
      </trkpt>
      <trkpt lat="42.013959903270006" lon="12.838745238259435">
        <ele>668.24993900000004</ele>
        <time>2017-06-11T08:24:58Z</time>
      </trkpt>
      <trkpt lat="42.014100635424256" lon="12.838739538565278">
        <ele>670.17999299999997</ele>
        <time>2017-06-11T08:25:12Z</time>
      </trkpt>
      <trkpt lat="42.01429090462625" lon="12.838777592405677">
        <ele>671.13995399999999</ele>
        <time>2017-06-11T08:25:27Z</time>
      </trkpt>
      <trkpt lat="42.014479162171483" lon="12.838870296254754">
        <ele>673.05999799999995</ele>
        <time>2017-06-11T08:25:42Z</time>
      </trkpt>
      <trkpt lat="42.014635065570474" lon="12.839029468595982">
        <ele>674.5</ele>
        <time>2017-06-11T08:25:59Z</time>
      </trkpt>
      <trkpt lat="42.014778815209866" lon="12.839223174378276">
        <ele>675.94000200000005</ele>
        <time>2017-06-11T08:26:15Z</time>
      </trkpt>
      <trkpt lat="42.014811085537076" lon="12.839259803295135">
        <ele>675.94000200000005</ele>
        <time>2017-06-11T08:26:20Z</time>
      </trkpt>
      <trkpt lat="42.014928516000509" lon="12.839415203779936">
        <ele>677.86999500000002</ele>
        <time>2017-06-11T08:26:34Z</time>
      </trkpt>
      <trkpt lat="42.015055669471622" lon="12.839597593992949">
        <ele>678.830017</ele>
        <time>2017-06-11T08:26:51Z</time>
      </trkpt>
      <trkpt lat="42.015079641714692" lon="12.839701697230339">
        <ele>679.79003899999998</ele>
        <time>2017-06-11T08:27:03Z</time>
      </trkpt>
      <trkpt lat="42.015088861808181" lon="12.839707732200623">
        <ele>680.27002000000005</ele>
        <time>2017-06-11T08:27:12Z</time>
      </trkpt>
      <trkpt lat="42.015100093558431" lon="12.839719215407968">
        <ele>680.27002000000005</ele>
        <time>2017-06-11T08:27:13Z</time>
      </trkpt>
      <trkpt lat="42.015110738575459" lon="12.8397296089679">
        <ele>680.27002000000005</ele>
        <time>2017-06-11T08:27:14Z</time>
      </trkpt>
      <trkpt lat="42.015119791030884" lon="12.839740924537182">
        <ele>680.27002000000005</ele>
        <time>2017-06-11T08:27:15Z</time>
      </trkpt>
      <trkpt lat="42.015126580372453" lon="12.839751485735178">
        <ele>680.27002000000005</ele>
        <time>2017-06-11T08:27:16Z</time>
      </trkpt>
      <trkpt lat="42.015317939221859" lon="12.840033369138837">
        <ele>683.14996299999996</ele>
        <time>2017-06-11T08:27:37Z</time>
      </trkpt>
      <trkpt lat="42.015449618920684" lon="12.840196397155523">
        <ele>684.12005599999998</ele>
        <time>2017-06-11T08:27:49Z</time>
      </trkpt>
      <trkpt lat="42.015583980828524" lon="12.840346936136484">
        <ele>684.59997599999997</ele>
        <time>2017-06-11T08:28:04Z</time>
      </trkpt>
      <trkpt lat="42.015703758224845" lon="12.840534606948495">
        <ele>686.52002000000005</ele>
        <time>2017-06-11T08:28:22Z</time>
      </trkpt>
      <trkpt lat="42.015831414610147" lon="12.840732503682375">
        <ele>687.96002199999998</ele>
        <time>2017-06-11T08:28:38Z</time>
      </trkpt>
      <trkpt lat="42.015969380736351" lon="12.840905589982867">
        <ele>689.40002400000003</ele>
        <time>2017-06-11T08:28:55Z</time>
      </trkpt>
      <trkpt lat="42.01597667299211" lon="12.840906428173184">
        <ele>689.40002400000003</ele>
        <time>2017-06-11T08:28:56Z</time>
      </trkpt>
      <trkpt lat="42.015988994389772" lon="12.840906511992216">
        <ele>689.40002400000003</ele>
        <time>2017-06-11T08:28:57Z</time>
      </trkpt>
      <trkpt lat="42.016139701008797" lon="12.841004161164165">
        <ele>690.839966</ele>
        <time>2017-06-11T08:29:12Z</time>
      </trkpt>
      <trkpt lat="42.016309937462211" lon="12.841128129512072">
        <ele>692.29003899999998</ele>
        <time>2017-06-11T08:29:26Z</time>
      </trkpt>
      <trkpt lat="42.016474641859531" lon="12.841240614652634">
        <ele>693.72997999999995</ele>
        <time>2017-06-11T08:29:42Z</time>
      </trkpt>
      <trkpt lat="42.016667928546667" lon="12.84136600792408">
        <ele>694.69000200000005</ele>
        <time>2017-06-11T08:29:59Z</time>
      </trkpt>
      <trkpt lat="42.016800278797746" lon="12.841510679572821">
        <ele>696.13000499999998</ele>
        <time>2017-06-11T08:30:14Z</time>
      </trkpt>
      <trkpt lat="42.016917373985052" lon="12.841675383970141">
        <ele>697.57000700000003</ele>
        <time>2017-06-11T08:30:29Z</time>
      </trkpt>
      <trkpt lat="42.017044275999069" lon="12.842014096677303">
        <ele>698.53002900000001</ele>
        <time>2017-06-11T08:30:47Z</time>
      </trkpt>
      <trkpt lat="42.017075540497899" lon="12.842256668955088">
        <ele>699.5</ele>
        <time>2017-06-11T08:31:03Z</time>
      </trkpt>
      <trkpt lat="42.017079060897231" lon="12.842569565400481">
        <ele>701.42004399999996</ele>
        <time>2017-06-11T08:31:21Z</time>
      </trkpt>
      <trkpt lat="42.017086604610085" lon="12.842864273115993">
        <ele>702.86004600000001</ele>
        <time>2017-06-11T08:31:38Z</time>
      </trkpt>
      <trkpt lat="42.017085934057832" lon="12.843085890635848">
        <ele>704.29998799999998</ele>
        <time>2017-06-11T08:31:53Z</time>
      </trkpt>
      <trkpt lat="42.017092471942306" lon="12.843339191749692">
        <ele>705.74993900000004</ele>
        <time>2017-06-11T08:32:10Z</time>
      </trkpt>
      <trkpt lat="42.017109235748649" lon="12.843610094860196">
        <ele>707.669983</ele>
        <time>2017-06-11T08:32:28Z</time>
      </trkpt>
      <trkpt lat="42.017123401165009" lon="12.843871107324958">
        <ele>709.10998500000005</ele>
        <time>2017-06-11T08:32:46Z</time>
      </trkpt>
      <trkpt lat="42.017160532996058" lon="12.844104962423444">
        <ele>711.03002900000001</ele>
        <time>2017-06-11T08:33:02Z</time>
      </trkpt>
      <trkpt lat="42.01716648414731" lon="12.844116697087884">
        <ele>711.03002900000001</ele>
        <time>2017-06-11T08:33:03Z</time>
      </trkpt>
      <trkpt lat="42.017172686755657" lon="12.844130527228117">
        <ele>711.03002900000001</ele>
        <time>2017-06-11T08:33:04Z</time>
      </trkpt>
      <trkpt lat="42.017177464440465" lon="12.844146285206079">
        <ele>711.03002900000001</ele>
        <time>2017-06-11T08:33:05Z</time>
      </trkpt>
      <trkpt lat="42.017245022580028" lon="12.844349462538958">
        <ele>712.46997099999999</ele>
        <time>2017-06-11T08:33:20Z</time>
      </trkpt>
      <trkpt lat="42.017329931259155" lon="12.844610139727592">
        <ele>713.92004399999996</ele>
        <time>2017-06-11T08:33:38Z</time>
      </trkpt>
      <trkpt lat="42.017401931807399" lon="12.844822620972991">
        <ele>714.87994400000002</ele>
        <time>2017-06-11T08:33:53Z</time>
      </trkpt>
      <trkpt lat="42.017461024224758" lon="12.845062259584665">
        <ele>716.79998799999998</ele>
        <time>2017-06-11T08:34:09Z</time>
      </trkpt>
      <trkpt lat="42.017482481896877" lon="12.8452711366117">
        <ele>717.76000999999997</ele>
        <time>2017-06-11T08:34:23Z</time>
      </trkpt>
      <trkpt lat="42.017512992024422" lon="12.845456963405013">
        <ele>718.72003199999995</ele>
        <time>2017-06-11T08:34:36Z</time>
      </trkpt>
      <trkpt lat="42.017539059743285" lon="12.845595516264439">
        <ele>719.20001200000002</ele>
        <time>2017-06-11T08:34:48Z</time>
      </trkpt>
      <trkpt lat="42.017554230988026" lon="12.845857366919518">
        <ele>719.67999299999997</ele>
        <time>2017-06-11T08:35:04Z</time>
      </trkpt>
      <trkpt lat="42.017568228766322" lon="12.846092060208321">
        <ele>720.160034</ele>
        <time>2017-06-11T08:35:20Z</time>
      </trkpt>
      <trkpt lat="42.017617765814066" lon="12.846285179257393">
        <ele>720.64996299999996</ele>
        <time>2017-06-11T08:35:33Z</time>
      </trkpt>
      <trkpt lat="42.017686162143946" lon="12.846594722941518">
        <ele>721.13000499999998</ele>
        <time>2017-06-11T08:35:49Z</time>
      </trkpt>
      <trkpt lat="42.017716504633427" lon="12.846756409853697">
        <ele>721.60998500000005</ele>
        <time>2017-06-11T08:36:01Z</time>
      </trkpt>
      <trkpt lat="42.017718181014061" lon="12.846773341298103">
        <ele>721.60998500000005</ele>
        <time>2017-06-11T08:36:02Z</time>
      </trkpt>
      <trkpt lat="42.017731927335262" lon="12.846869062632322">
        <ele>722.09002699999996</ele>
        <time>2017-06-11T08:36:07Z</time>
      </trkpt>
      <trkpt lat="42.01773670502007" lon="12.846889514476061">
        <ele>722.09002699999996</ele>
        <time>2017-06-11T08:36:08Z</time>
      </trkpt>
      <trkpt lat="42.017740728333592" lon="12.84691097214818">
        <ele>722.09002699999996</ele>
        <time>2017-06-11T08:36:09Z</time>
      </trkpt>
      <trkpt lat="42.017744081094861" lon="12.846928406506777">
        <ele>722.09002699999996</ele>
        <time>2017-06-11T08:36:10Z</time>
      </trkpt>
      <trkpt lat="42.01774843968451" lon="12.846944835036993">
        <ele>722.09002699999996</ele>
        <time>2017-06-11T08:36:11Z</time>
      </trkpt>
      <trkpt lat="42.017784314230084" lon="12.84720023162663">
        <ele>723.04998799999998</ele>
        <time>2017-06-11T08:36:27Z</time>
      </trkpt>
      <trkpt lat="42.017781296744943" lon="12.847330905497074">
        <ele>723.53002900000001</ele>
        <time>2017-06-11T08:36:41Z</time>
      </trkpt>
      <trkpt lat="42.017768975347281" lon="12.847300982102752">
        <ele>723.53002900000001</ele>
        <time>2017-06-11T08:36:56Z</time>
      </trkpt>
      <trkpt lat="42.017808789387345" lon="12.84739469178021">
        <ele>723.53002900000001</ele>
        <time>2017-06-11T08:37:10Z</time>
      </trkpt>
      <trkpt lat="42.017794037237763" lon="12.847679005935788">
        <ele>724.01000999999997</ele>
        <time>2017-06-11T08:37:24Z</time>
      </trkpt>
      <trkpt lat="42.017831839621067" lon="12.847868269309402">
        <ele>724.49005099999999</ele>
        <time>2017-06-11T08:37:39Z</time>
      </trkpt>
      <trkpt lat="42.017831420525908" lon="12.847885116934776">
        <ele>724.49005099999999</ele>
        <time>2017-06-11T08:37:40Z</time>
      </trkpt>
      <trkpt lat="42.017847010865808" lon="12.848098017275333">
        <ele>725.44995100000006</ele>
        <time>2017-06-11T08:37:53Z</time>
      </trkpt>
      <trkpt lat="42.017850195989013" lon="12.848112434148788">
        <ele>725.44995100000006</ele>
        <time>2017-06-11T08:37:54Z</time>
      </trkpt>
      <trkpt lat="42.017903504893184" lon="12.848319886252284">
        <ele>725.92999299999997</ele>
        <time>2017-06-11T08:38:09Z</time>
      </trkpt>
      <trkpt lat="42.01791356317699" lon="12.848355090245605">
        <ele>725.92999299999997</ele>
        <time>2017-06-11T08:38:11Z</time>
      </trkpt>
      <trkpt lat="42.017932338640094" lon="12.848591879010201">
        <ele>725.92999299999997</ele>
        <time>2017-06-11T08:38:23Z</time>
      </trkpt>
      <trkpt lat="42.017941810190678" lon="12.848605960607529">
        <ele>725.92999299999997</ele>
        <time>2017-06-11T08:38:24Z</time>
      </trkpt>
      <trkpt lat="42.017946839332581" lon="12.848625406622887">
        <ele>725.92999299999997</ele>
        <time>2017-06-11T08:38:25Z</time>
      </trkpt>
      <trkpt lat="42.017993610352278" lon="12.848857333883643">
        <ele>727.36999500000002</ele>
        <time>2017-06-11T08:38:41Z</time>
      </trkpt>
      <trkpt lat="42.018022360280156" lon="12.848964789882302">
        <ele>727.36999500000002</ele>
        <time>2017-06-11T08:38:47Z</time>
      </trkpt>
      <trkpt lat="42.01802646741271" lon="12.848982894793153">
        <ele>727.36999500000002</ele>
        <time>2017-06-11T08:38:48Z</time>
      </trkpt>
      <trkpt lat="42.018029736354947" lon="12.849000915884972">
        <ele>727.36999500000002</ele>
        <time>2017-06-11T08:38:49Z</time>
      </trkpt>
      <trkpt lat="42.018112801015377" lon="12.849187077954412">
        <ele>727.36999500000002</ele>
        <time>2017-06-11T08:39:04Z</time>
      </trkpt>
      <trkpt lat="42.018241630867124" lon="12.849251618608832">
        <ele>728.339966</ele>
        <time>2017-06-11T08:39:19Z</time>
      </trkpt>
      <trkpt lat="42.018250515684485" lon="12.849251283332705">
        <ele>728.339966</ele>
        <time>2017-06-11T08:39:20Z</time>
      </trkpt>
      <trkpt lat="42.018260741606355" lon="12.849248601123691">
        <ele>728.339966</ele>
        <time>2017-06-11T08:39:21Z</time>
      </trkpt>
      <trkpt lat="42.018270129337907" lon="12.849248433485627">
        <ele>728.339966</ele>
        <time>2017-06-11T08:39:22Z</time>
      </trkpt>
      <trkpt lat="42.018379513174295" lon="12.849238207563758">
        <ele>728.82000700000003</ele>
        <time>2017-06-11T08:39:34Z</time>
      </trkpt>
      <trkpt lat="42.018391080200672" lon="12.849230412393808">
        <ele>729.29998799999998</ele>
        <time>2017-06-11T08:39:36Z</time>
      </trkpt>
      <trkpt lat="42.018420500680804" lon="12.849216079339385">
        <ele>729.29998799999998</ele>
        <time>2017-06-11T08:39:39Z</time>
      </trkpt>
      <trkpt lat="42.018434917554259" lon="12.849211972206831">
        <ele>729.29998799999998</ele>
        <time>2017-06-11T08:39:40Z</time>
      </trkpt>
      <trkpt lat="42.018444640561938" lon="12.849207362160087">
        <ele>729.29998799999998</ele>
        <time>2017-06-11T08:39:41Z</time>
      </trkpt>
      <trkpt lat="42.01851848512888" lon="12.849151622503996">
        <ele>729.77996800000005</ele>
        <time>2017-06-11T08:39:56Z</time>
      </trkpt>
      <trkpt lat="42.01856299303472" lon="12.849147766828537">
        <ele>729.77996800000005</ele>
        <time>2017-06-11T08:40:00Z</time>
      </trkpt>
      <trkpt lat="42.018728535622358" lon="12.849162770435214">
        <ele>730.73999000000003</ele>
        <time>2017-06-11T08:40:15Z</time>
      </trkpt>
      <trkpt lat="42.01890011318028" lon="12.849272741004825">
        <ele>731.22003199999995</ele>
        <time>2017-06-11T08:40:29Z</time>
      </trkpt>
      <trkpt lat="42.019077641889453" lon="12.849512128159404">
        <ele>731.22003199999995</ele>
        <time>2017-06-11T08:40:46Z</time>
      </trkpt>
      <trkpt lat="42.019134471192956" lon="12.849733578041196">
        <ele>732.17999299999997</ele>
        <time>2017-06-11T08:40:59Z</time>
      </trkpt>
      <trkpt lat="42.019185433164239" lon="12.849945304915309">
        <ele>732.660034</ele>
        <time>2017-06-11T08:41:12Z</time>
      </trkpt>
      <trkpt lat="42.019224828109145" lon="12.850201120600104">
        <ele>733.61999500000002</ele>
        <time>2017-06-11T08:41:27Z</time>
      </trkpt>
      <trkpt lat="42.01925978064537" lon="12.85040563903749">
        <ele>734.57995600000004</ele>
        <time>2017-06-11T08:41:40Z</time>
      </trkpt>
      <trkpt lat="42.019282076507807" lon="12.850457271561027">
        <ele>734.57995600000004</ele>
        <time>2017-06-11T08:41:43Z</time>
      </trkpt>
      <trkpt lat="42.019308228045702" lon="12.850482333451509">
        <ele>735.07000700000003</ele>
        <time>2017-06-11T08:41:47Z</time>
      </trkpt>
      <trkpt lat="42.019312083721161" lon="12.850496834143996">
        <ele>735.54998799999998</ele>
        <time>2017-06-11T08:41:48Z</time>
      </trkpt>
      <trkpt lat="42.019316861405969" lon="12.8505087364465">
        <ele>735.54998799999998</ele>
        <time>2017-06-11T08:41:49Z</time>
      </trkpt>
      <trkpt lat="42.019379641860723" lon="12.850600266829133">
        <ele>736.03002900000001</ele>
        <time>2017-06-11T08:41:58Z</time>
      </trkpt>
      <trkpt lat="42.019383832812309" lon="12.850615605711937">
        <ele>736.03002900000001</ele>
        <time>2017-06-11T08:41:59Z</time>
      </trkpt>
      <trkpt lat="42.019386515021324" lon="12.850630693137646">
        <ele>736.03002900000001</ele>
        <time>2017-06-11T08:42:00Z</time>
      </trkpt>
      <trkpt lat="42.019390286877751" lon="12.85064703784883">
        <ele>736.03002900000001</ele>
        <time>2017-06-11T08:42:01Z</time>
      </trkpt>
      <trkpt lat="42.01941073872149" lon="12.850684337317944">
        <ele>736.51000999999997</ele>
        <time>2017-06-11T08:42:05Z</time>
      </trkpt>
      <trkpt lat="42.019419958814979" lon="12.850693892687559">
        <ele>736.51000999999997</ele>
        <time>2017-06-11T08:42:06Z</time>
      </trkpt>
      <trkpt lat="42.019552979618311" lon="12.850788272917271">
        <ele>737.94995100000006</ele>
        <time>2017-06-11T08:42:19Z</time>
      </trkpt>
      <trkpt lat="42.019717684015632" lon="12.850809562951326">
        <ele>739.39001499999995</ele>
        <time>2017-06-11T08:42:34Z</time>
      </trkpt>
      <trkpt lat="42.019840478897095" lon="12.850779639557004">
        <ele>739.86999500000002</ele>
        <time>2017-06-11T08:42:43Z</time>
      </trkpt>
      <trkpt lat="42.019900660961866" lon="12.850752482190728">
        <ele>740.34997599999997</ele>
        <time>2017-06-11T08:42:50Z</time>
      </trkpt>
      <trkpt lat="42.020067712292075" lon="12.850674362853169">
        <ele>741.30999799999995</ele>
        <time>2017-06-11T08:43:04Z</time>
      </trkpt>
      <trkpt lat="42.020134096965194" lon="12.850649720057845">
        <ele>742.27996800000005</ele>
        <time>2017-06-11T08:43:11Z</time>
      </trkpt>
      <trkpt lat="42.020147005096078" lon="12.850645361468196">
        <ele>742.27996800000005</ele>
        <time>2017-06-11T08:43:12Z</time>
      </trkpt>
      <trkpt lat="42.020331406965852" lon="12.850642260164022">
        <ele>743.72003199999995</ele>
        <time>2017-06-11T08:43:28Z</time>
      </trkpt>
      <trkpt lat="42.02039142139256" lon="12.85066606476903">
        <ele>744.20001200000002</ele>
        <time>2017-06-11T08:43:35Z</time>
      </trkpt>
      <trkpt lat="42.020405419170856" lon="12.850660365074873">
        <ele>744.20001200000002</ele>
        <time>2017-06-11T08:43:36Z</time>
      </trkpt>
      <trkpt lat="42.020423272624612" lon="12.850662628188729">
        <ele>744.20001200000002</ele>
        <time>2017-06-11T08:43:37Z</time>
      </trkpt>
      <trkpt lat="42.020439617335796" lon="12.850671513006091">
        <ele>744.67999299999997</ele>
        <time>2017-06-11T08:43:38Z</time>
      </trkpt>
      <trkpt lat="42.020456464961171" lon="12.850681990385056">
        <ele>744.67999299999997</ele>
        <time>2017-06-11T08:43:39Z</time>
      </trkpt>
      <trkpt lat="42.020470462739468" lon="12.850694311782718">
        <ele>744.67999299999997</ele>
        <time>2017-06-11T08:43:40Z</time>
      </trkpt>
      <trkpt lat="42.02064891345799" lon="12.850878294557333">
        <ele>745.160034</ele>
        <time>2017-06-11T08:43:57Z</time>
      </trkpt>
      <trkpt lat="42.020670035853982" lon="12.85090553574264">
        <ele>745.160034</ele>
        <time>2017-06-11T08:43:59Z</time>
      </trkpt>
      <trkpt lat="42.020676909014583" lon="12.850918360054493">
        <ele>745.160034</ele>
        <time>2017-06-11T08:44:00Z</time>
      </trkpt>
      <trkpt lat="42.020689314231277" lon="12.850929759442806">
        <ele>745.160034</ele>
        <time>2017-06-11T08:44:01Z</time>
      </trkpt>
      <trkpt lat="42.02070071361959" lon="12.850938141345978">
        <ele>745.160034</ele>
        <time>2017-06-11T08:44:02Z</time>
      </trkpt>
      <trkpt lat="42.020712615922093" lon="12.850948115810752">
        <ele>745.64001499999995</ele>
        <time>2017-06-11T08:44:03Z</time>
      </trkpt>
      <trkpt lat="42.020798530429602" lon="12.851030677556992">
        <ele>746.60003700000004</ele>
        <time>2017-06-11T08:44:15Z</time>
      </trkpt>
      <trkpt lat="42.020838931202888" lon="12.851074934005737">
        <ele>747.07995600000004</ele>
        <time>2017-06-11T08:44:19Z</time>
      </trkpt>
      <trkpt lat="42.020917637273669" lon="12.851156741380692">
        <ele>747.55999799999995</ele>
        <time>2017-06-11T08:44:26Z</time>
      </trkpt>
      <trkpt lat="42.02093088068068" lon="12.851166212931275">
        <ele>747.55999799999995</ele>
        <time>2017-06-11T08:44:27Z</time>
      </trkpt>
      <trkpt lat="42.021097429096699" lon="12.851315913721919">
        <ele>748.51995799999997</ele>
        <time>2017-06-11T08:44:45Z</time>
      </trkpt>
      <trkpt lat="42.02127680182457" lon="12.85148941911757">
        <ele>749.49005099999999</ele>
        <time>2017-06-11T08:45:00Z</time>
      </trkpt>
      <trkpt lat="42.021420802921057" lon="12.851602574810386">
        <ele>750.44995100000006</ele>
        <time>2017-06-11T08:45:16Z</time>
      </trkpt>
      <trkpt lat="42.021591626107693" lon="12.851690417155623">
        <ele>751.89001499999995</ele>
        <time>2017-06-11T08:45:31Z</time>
      </trkpt>
      <trkpt lat="42.021764041855931" lon="12.851778175681829">
        <ele>753.80999799999995</ele>
        <time>2017-06-11T08:45:46Z</time>
      </trkpt>
      <trkpt lat="42.021913910284638" lon="12.851841207593679">
        <ele>754.77002000000005</ele>
        <time>2017-06-11T08:45:59Z</time>
      </trkpt>
      <trkpt lat="42.021985240280628" lon="12.85189594142139">
        <ele>754.77002000000005</ele>
        <time>2017-06-11T08:46:06Z</time>
      </trkpt>
      <trkpt lat="42.021995885297656" lon="12.851908765733242">
        <ele>754.77002000000005</ele>
        <time>2017-06-11T08:46:07Z</time>
      </trkpt>
      <trkpt lat="42.022242313250899" lon="12.85200540907681">
        <ele>757.17999299999997</ele>
        <time>2017-06-11T08:46:24Z</time>
      </trkpt>
      <trkpt lat="42.022378100082278" lon="12.852071709930897">
        <ele>758.14001499999995</ele>
        <time>2017-06-11T08:46:40Z</time>
      </trkpt>
      <trkpt lat="42.022649338468909" lon="12.852036338299513">
        <ele>759.10003700000004</ele>
        <time>2017-06-11T08:46:59Z</time>
      </trkpt>
      <trkpt lat="42.022815216332674" lon="12.851961236447096">
        <ele>761.01995799999997</ele>
        <time>2017-06-11T08:47:13Z</time>
      </trkpt>
      <trkpt lat="42.02292007394135" lon="12.851858977228403">
        <ele>761.5</ele>
        <time>2017-06-11T08:47:26Z</time>
      </trkpt>
      <trkpt lat="42.022928288206458" lon="12.851846739649773">
        <ele>761.5</ele>
        <time>2017-06-11T08:47:27Z</time>
      </trkpt>
      <trkpt lat="42.022937759757042" lon="12.851834334433079">
        <ele>761.97997999999995</ele>
        <time>2017-06-11T08:47:28Z</time>
      </trkpt>
      <trkpt lat="42.023079162463546" lon="12.851561000570655">
        <ele>763.419983</ele>
        <time>2017-06-11T08:47:47Z</time>
      </trkpt>
      <trkpt lat="42.023093411698937" lon="12.851306106895208">
        <ele>763.90002400000003</ele>
        <time>2017-06-11T08:48:04Z</time>
      </trkpt>
      <trkpt lat="42.023090813308954" lon="12.851198315620422">
        <ele>764.39001499999995</ele>
        <time>2017-06-11T08:48:11Z</time>
      </trkpt>
      <trkpt lat="42.023085616528988" lon="12.851183731108904">
        <ele>765.34997599999997</ele>
        <time>2017-06-11T08:48:12Z</time>
      </trkpt>
      <trkpt lat="42.023084359243512" lon="12.851170906797051">
        <ele>765.34997599999997</ele>
        <time>2017-06-11T08:48:13Z</time>
      </trkpt>
      <trkpt lat="42.023016968742013" lon="12.85085516050458">
        <ele>767.27002000000005</ele>
        <time>2017-06-11T08:48:32Z</time>
      </trkpt>
      <trkpt lat="42.022960390895605" lon="12.850639997050166">
        <ele>768.23004200000003</ele>
        <time>2017-06-11T08:48:48Z</time>
      </trkpt>
      <trkpt lat="42.022905740886927" lon="12.850378984585404">
        <ele>769.19006300000001</ele>
        <time>2017-06-11T08:49:05Z</time>
      </trkpt>
      <trkpt lat="42.022828375920653" lon="12.850046223029494">
        <ele>771.60003700000004</ele>
        <time>2017-06-11T08:49:25Z</time>
      </trkpt>
      <trkpt lat="42.022763583809137" lon="12.849811194464564">
        <ele>771.60003700000004</ele>
        <time>2017-06-11T08:49:42Z</time>
      </trkpt>
      <trkpt lat="42.022689823061228" lon="12.849508775398135">
        <ele>774</ele>
        <time>2017-06-11T08:49:58Z</time>
      </trkpt>
      <trkpt lat="42.022637017071247" lon="12.849273160099983">
        <ele>774.96002199999998</ele>
        <time>2017-06-11T08:50:15Z</time>
      </trkpt>
      <trkpt lat="42.022556634619832" lon="12.848944002762437">
        <ele>776.40002400000003</ele>
        <time>2017-06-11T08:50:34Z</time>
      </trkpt>
      <trkpt lat="42.022546073421836" lon="12.84885817207396">
        <ele>776.40002400000003</ele>
        <time>2017-06-11T08:50:42Z</time>
      </trkpt>
      <trkpt lat="42.022544061765075" lon="12.848840402439237">
        <ele>776.40002400000003</ele>
        <time>2017-06-11T08:50:43Z</time>
      </trkpt>
      <trkpt lat="42.02245831489563" lon="12.848479226231575">
        <ele>779.29003899999998</ele>
        <time>2017-06-11T08:51:05Z</time>
      </trkpt>
      <trkpt lat="42.022402323782444" lon="12.848164737224579">
        <ele>780.73004200000003</ele>
        <time>2017-06-11T08:51:24Z</time>
      </trkpt>
      <trkpt lat="42.022379776462913" lon="12.847890313714743">
        <ele>782.64996299999996</ele>
        <time>2017-06-11T08:51:42Z</time>
      </trkpt>
      <trkpt lat="42.022419422864914" lon="12.847622763365507">
        <ele>783.13000499999998</ele>
        <time>2017-06-11T08:51:59Z</time>
      </trkpt>
      <trkpt lat="42.022510534152389" lon="12.847322523593903">
        <ele>784.089966</ele>
        <time>2017-06-11T08:52:16Z</time>
      </trkpt>
      <trkpt lat="42.022563926875591" lon="12.847154131159186">
        <ele>785.53002900000001</ele>
        <time>2017-06-11T08:52:33Z</time>
      </trkpt>
      <trkpt lat="42.022580020129681" lon="12.847144659608603">
        <ele>786.01995799999997</ele>
        <time>2017-06-11T08:53:00Z</time>
      </trkpt>
      <trkpt lat="42.022590916603804" lon="12.84712303429842">
        <ele>786.01995799999997</ele>
        <time>2017-06-11T08:53:01Z</time>
      </trkpt>
      <trkpt lat="42.022688984870911" lon="12.846871996298432">
        <ele>787.46002199999998</ele>
        <time>2017-06-11T08:53:16Z</time>
      </trkpt>
      <trkpt lat="42.022826364263892" lon="12.846575360745192">
        <ele>788.90002400000003</ele>
        <time>2017-06-11T08:53:32Z</time>
      </trkpt>
      <trkpt lat="42.022838937118649" lon="12.846541162580252">
        <ele>789.38000499999998</ele>
        <time>2017-06-11T08:53:35Z</time>
      </trkpt>
      <trkpt lat="42.022868860512972" lon="12.846535798162222">
        <ele>789.38000499999998</ele>
        <time>2017-06-11T08:53:52Z</time>
      </trkpt>
      <trkpt lat="42.022878332063556" lon="12.846531188115478">
        <ele>789.38000499999998</ele>
        <time>2017-06-11T08:53:53Z</time>
      </trkpt>
      <trkpt lat="42.022887300699949" lon="12.846517106518149">
        <ele>789.38000499999998</ele>
        <time>2017-06-11T08:53:54Z</time>
      </trkpt>
      <trkpt lat="42.022892832756042" lon="12.846502773463726">
        <ele>789.38000499999998</ele>
        <time>2017-06-11T08:53:55Z</time>
      </trkpt>
      <trkpt lat="42.022898700088263" lon="12.846489027142525">
        <ele>789.38000499999998</ele>
        <time>2017-06-11T08:53:56Z</time>
      </trkpt>
      <trkpt lat="42.022905237972736" lon="12.846475783735514">
        <ele>789.38000499999998</ele>
        <time>2017-06-11T08:53:57Z</time>
      </trkpt>
      <trkpt lat="42.022911440581083" lon="12.846461869776249">
        <ele>789.38000499999998</ele>
        <time>2017-06-11T08:53:58Z</time>
      </trkpt>
      <trkpt lat="42.022918481379747" lon="12.846445022150874">
        <ele>789.86004600000001</ele>
        <time>2017-06-11T08:53:59Z</time>
      </trkpt>
      <trkpt lat="42.022928707301617" lon="12.846427084878087">
        <ele>789.86004600000001</ele>
        <time>2017-06-11T08:54:00Z</time>
      </trkpt>
      <trkpt lat="42.023041611537337" lon="12.846170514822006">
        <ele>791.77996800000005</ele>
        <time>2017-06-11T08:54:14Z</time>
      </trkpt>
      <trkpt lat="42.023129537701607" lon="12.845935570076108">
        <ele>792.73999000000003</ele>
        <time>2017-06-11T08:54:25Z</time>
      </trkpt>
      <trkpt lat="42.023211931809783" lon="12.845675060525537">
        <ele>793.70996100000002</ele>
        <time>2017-06-11T08:54:38Z</time>
      </trkpt>
      <trkpt lat="42.023309832438827" lon="12.845404492691159">
        <ele>795.63000499999998</ele>
        <time>2017-06-11T08:54:52Z</time>
      </trkpt>
      <trkpt lat="42.023403123021126" lon="12.84515043720603">
        <ele>796.589966</ele>
        <time>2017-06-11T08:55:06Z</time>
      </trkpt>
      <trkpt lat="42.023525917902589" lon="12.844900237396359">
        <ele>797.54998799999998</ele>
        <time>2017-06-11T08:55:21Z</time>
      </trkpt>
      <trkpt lat="42.023685341700912" lon="12.844687839969993">
        <ele>798.98999000000003</ele>
        <time>2017-06-11T08:55:36Z</time>
      </trkpt>
      <trkpt lat="42.023817859590054" lon="12.844462282955647">
        <ele>800.44000200000005</ele>
        <time>2017-06-11T08:55:50Z</time>
      </trkpt>
      <trkpt lat="42.023938558995724" lon="12.844273606315255">
        <ele>802.36004600000001</ele>
        <time>2017-06-11T08:56:03Z</time>
      </trkpt>
      <trkpt lat="42.02406202442944" lon="12.844059616327286">
        <ele>803.79998799999998</ele>
        <time>2017-06-11T08:56:21Z</time>
      </trkpt>
      <trkpt lat="42.024220777675509" lon="12.843833807855844">
        <ele>805.23999000000003</ele>
        <time>2017-06-11T08:56:40Z</time>
      </trkpt>
      <trkpt lat="42.024350864812732" lon="12.843620236963034">
        <ele>806.20001200000002</ele>
        <time>2017-06-11T08:56:57Z</time>
      </trkpt>
      <trkpt lat="42.024496207013726" lon="12.843426614999771">
        <ele>807.64001499999995</ele>
        <time>2017-06-11T08:57:14Z</time>
      </trkpt>
      <trkpt lat="42.024616906419396" lon="12.843243721872568">
        <ele>808.60998500000005</ele>
        <time>2017-06-11T08:57:30Z</time>
      </trkpt>
      <trkpt lat="42.024697624146938" lon="12.843055883422494">
        <ele>809.57000700000003</ele>
        <time>2017-06-11T08:57:44Z</time>
      </trkpt>
      <trkpt lat="42.024833662435412" lon="12.842846335843205">
        <ele>811.01000999999997</ele>
        <time>2017-06-11T08:57:59Z</time>
      </trkpt>
      <trkpt lat="42.024933071807027" lon="12.842622036114335">
        <ele>812.44995100000006</ele>
        <time>2017-06-11T08:58:17Z</time>
      </trkpt>
      <trkpt lat="42.025030637159944" lon="12.842311570420861">
        <ele>813.40997300000004</ele>
        <time>2017-06-11T08:58:34Z</time>
      </trkpt>
      <trkpt lat="42.025081431493163" lon="12.842110740020871">
        <ele>814.84997599999997</ele>
        <time>2017-06-11T08:58:50Z</time>
      </trkpt>
      <trkpt lat="42.025143625214696" lon="12.84186146222055">
        <ele>816.77996800000005</ele>
        <time>2017-06-11T08:59:06Z</time>
      </trkpt>
      <trkpt lat="42.025215039029717" lon="12.841631462797523">
        <ele>817.73999000000003</ele>
        <time>2017-06-11T08:59:20Z</time>
      </trkpt>
      <trkpt lat="42.025256110355258" lon="12.841448318213224">
        <ele>818.70001200000002</ele>
        <time>2017-06-11T08:59:34Z</time>
      </trkpt>
      <trkpt lat="42.02533196657896" lon="12.841141959652305">
        <ele>820.14001499999995</ele>
        <time>2017-06-11T08:59:51Z</time>
      </trkpt>
      <trkpt lat="42.025384772568941" lon="12.840882623568177">
        <ele>821.10003700000004</ele>
        <time>2017-06-11T09:00:08Z</time>
      </trkpt>
      <trkpt lat="42.025426598265767" lon="12.840624460950494">
        <ele>822.06005900000002</ele>
        <time>2017-06-11T09:00:24Z</time>
      </trkpt>
      <trkpt lat="42.025482086464763" lon="12.84040778875351">
        <ele>823.03002900000001</ele>
        <time>2017-06-11T09:00:39Z</time>
      </trkpt>
      <trkpt lat="42.025538999587297" lon="12.84012733027339">
        <ele>824.47003199999995</ele>
        <time>2017-06-11T09:00:56Z</time>
      </trkpt>
      <trkpt lat="42.025642599910498" lon="12.83986346796155">
        <ele>825.43005400000004</ele>
        <time>2017-06-11T09:01:14Z</time>
      </trkpt>
      <trkpt lat="42.025764640420675" lon="12.839655764400959">
        <ele>826.86999500000002</ele>
        <time>2017-06-11T09:01:29Z</time>
      </trkpt>
      <trkpt lat="42.025924315676093" lon="12.839490976184607">
        <ele>828.30999799999995</ele>
        <time>2017-06-11T09:01:46Z</time>
      </trkpt>
      <trkpt lat="42.026093378663063" lon="12.839379664510489">
        <ele>829.76000999999997</ele>
        <time>2017-06-11T09:02:02Z</time>
      </trkpt>
      <trkpt lat="42.026298819109797" lon="12.8393220808357">
        <ele>831.67999299999997</ele>
        <time>2017-06-11T09:02:19Z</time>
      </trkpt>
      <trkpt lat="42.026495458558202" lon="12.839345298707485">
        <ele>832.160034</ele>
        <time>2017-06-11T09:02:34Z</time>
      </trkpt>
      <trkpt lat="42.026678184047341" lon="12.839353261515498">
        <ele>833.60003700000004</ele>
        <time>2017-06-11T09:02:51Z</time>
      </trkpt>
      <trkpt lat="42.026709532365203" lon="12.839352758601308">
        <ele>833.60003700000004</ele>
        <time>2017-06-11T09:03:00Z</time>
      </trkpt>
      <trkpt lat="42.026719339191914" lon="12.839365834370255">
        <ele>833.60003700000004</ele>
        <time>2017-06-11T09:03:01Z</time>
      </trkpt>
      <trkpt lat="42.026727804914117" lon="12.839384777471423">
        <ele>833.60003700000004</ele>
        <time>2017-06-11T09:03:02Z</time>
      </trkpt>
      <trkpt lat="42.026739036664367" lon="12.839398439973593">
        <ele>833.60003700000004</ele>
        <time>2017-06-11T09:03:03Z</time>
      </trkpt>
      <trkpt lat="42.026749681681395" lon="12.839408833533525">
        <ele>833.60003700000004</ele>
        <time>2017-06-11T09:03:04Z</time>
      </trkpt>
      <trkpt lat="42.026900304481387" lon="12.839533807709813">
        <ele>834.56005900000002</ele>
        <time>2017-06-11T09:03:19Z</time>
      </trkpt>
      <trkpt lat="42.027016980573535" lon="12.839684598147869">
        <ele>835.03997800000002</ele>
        <time>2017-06-11T09:03:33Z</time>
      </trkpt>
      <trkpt lat="42.02704212628305" lon="12.839696584269404">
        <ele>835.51995799999997</ele>
        <time>2017-06-11T09:03:36Z</time>
      </trkpt>
      <trkpt lat="42.027249578386545" lon="12.83980973996222">
        <ele>837.93005400000004</ele>
        <time>2017-06-11T09:03:55Z</time>
      </trkpt>
      <trkpt lat="42.027417970821261" lon="12.83983756788075">
        <ele>838.88995399999999</ele>
        <time>2017-06-11T09:04:10Z</time>
      </trkpt>
      <trkpt lat="42.02761092223227" lon="12.839828515425324">
        <ele>840.80999799999995</ele>
        <time>2017-06-11T09:04:26Z</time>
      </trkpt>
      <trkpt lat="42.027703206986189" lon="12.839808566495776">
        <ele>841.77002000000005</ele>
        <time>2017-06-11T09:04:35Z</time>
      </trkpt>
      <trkpt lat="42.027718210592866" lon="12.839805381372571">
        <ele>841.77002000000005</ele>
        <time>2017-06-11T09:04:36Z</time>
      </trkpt>
      <trkpt lat="42.027733884751797" lon="12.839803118258715">
        <ele>841.77002000000005</ele>
        <time>2017-06-11T09:04:37Z</time>
      </trkpt>
      <trkpt lat="42.027747798711061" lon="12.8398004360497">
        <ele>841.77002000000005</ele>
        <time>2017-06-11T09:04:38Z</time>
      </trkpt>
      <trkpt lat="42.027763221412897" lon="12.839797334745526">
        <ele>842.25</ele>
        <time>2017-06-11T09:04:39Z</time>
      </trkpt>
      <trkpt lat="42.027777805924416" lon="12.839790964499116">
        <ele>842.25</ele>
        <time>2017-06-11T09:04:40Z</time>
      </trkpt>
      <trkpt lat="42.027791971340775" lon="12.83978383988142">
        <ele>842.25</ele>
        <time>2017-06-11T09:04:41Z</time>
      </trkpt>
      <trkpt lat="42.02780588530004" lon="12.839778224006295">
        <ele>842.25</ele>
        <time>2017-06-11T09:04:42Z</time>
      </trkpt>
      <trkpt lat="42.027951311320066" lon="12.839683340862393">
        <ele>843.68994099999998</ele>
        <time>2017-06-11T09:04:56Z</time>
      </trkpt>
      <trkpt lat="42.027995735406876" lon="12.839641766622663">
        <ele>844.660034</ele>
        <time>2017-06-11T09:05:02Z</time>
      </trkpt>
      <trkpt lat="42.028138060122728" lon="12.839447977021337">
        <ele>846.580017</ele>
        <time>2017-06-11T09:05:19Z</time>
      </trkpt>
      <trkpt lat="42.028203438967466" lon="12.8393514174968">
        <ele>847.06005900000002</ele>
        <time>2017-06-11T09:05:28Z</time>
      </trkpt>
      <trkpt lat="42.028210898861289" lon="12.839336581528187">
        <ele>847.53997800000002</ele>
        <time>2017-06-11T09:05:29Z</time>
      </trkpt>
      <trkpt lat="42.028218610212207" lon="12.839322835206985">
        <ele>847.53997800000002</ele>
        <time>2017-06-11T09:05:30Z</time>
      </trkpt>
      <trkpt lat="42.028345260769129" lon="12.839102977886796">
        <ele>848.97997999999995</ele>
        <time>2017-06-11T09:05:47Z</time>
      </trkpt>
      <trkpt lat="42.028414662927389" lon="12.838912373408675">
        <ele>850.90002400000003</ele>
        <time>2017-06-11T09:06:03Z</time>
      </trkpt>
      <trkpt lat="42.028530081734061" lon="12.838685223832726">
        <ele>852.830017</ele>
        <time>2017-06-11T09:06:20Z</time>
      </trkpt>
      <trkpt lat="42.028642063960433" lon="12.838510209694505">
        <ele>854.27002000000005</ele>
        <time>2017-06-11T09:06:35Z</time>
      </trkpt>
      <trkpt lat="42.028739964589477" lon="12.83831650391221">
        <ele>855.71002199999998</ele>
        <time>2017-06-11T09:06:51Z</time>
      </trkpt>
      <trkpt lat="42.028843397274613" lon="12.838110728189349">
        <ele>857.63000499999998</ele>
        <time>2017-06-11T09:07:07Z</time>
      </trkpt>
      <trkpt lat="42.028946494683623" lon="12.837922303006053">
        <ele>859.56005900000002</ele>
        <time>2017-06-11T09:07:23Z</time>
      </trkpt>
      <trkpt lat="42.029053028672934" lon="12.837746869772673">
        <ele>860.51995799999997</ele>
        <time>2017-06-11T09:07:39Z</time>
      </trkpt>
      <trkpt lat="42.029179930686951" lon="12.837570179253817">
        <ele>862.44000200000005</ele>
        <time>2017-06-11T09:07:54Z</time>
      </trkpt>
      <trkpt lat="42.029282609000802" lon="12.837424920871854">
        <ele>863.88000499999998</ele>
        <time>2017-06-11T09:08:07Z</time>
      </trkpt>
      <trkpt lat="42.029315466061234" lon="12.837396170943975">
        <ele>864.35998500000005</ele>
        <time>2017-06-11T09:08:12Z</time>
      </trkpt>
      <trkpt lat="42.029326027259231" lon="12.837384436279535">
        <ele>864.84002699999996</ele>
        <time>2017-06-11T09:08:13Z</time>
      </trkpt>
      <trkpt lat="42.029339019209146" lon="12.837372785434127">
        <ele>864.35998500000005</ele>
        <time>2017-06-11T09:08:14Z</time>
      </trkpt>
      <trkpt lat="42.029488803818822" lon="12.837240099906921">
        <ele>866.28997800000002</ele>
        <time>2017-06-11T09:08:29Z</time>
      </trkpt>
      <trkpt lat="42.029625764116645" lon="12.837156113237143">
        <ele>867.73004200000003</ele>
        <time>2017-06-11T09:08:43Z</time>
      </trkpt>
      <trkpt lat="42.029768759384751" lon="12.837106827646494">
        <ele>869.64996299999996</ele>
        <time>2017-06-11T09:08:57Z</time>
      </trkpt>
      <trkpt lat="42.029885519295931" lon="12.837033485993743">
        <ele>870.60998500000005</ele>
        <time>2017-06-11T09:09:09Z</time>
      </trkpt>
      <trkpt lat="42.030005715787411" lon="12.836940279230475">
        <ele>872.04998799999998</ele>
        <time>2017-06-11T09:09:23Z</time>
      </trkpt>
      <trkpt lat="42.030154159292579" lon="12.836871296167374">
        <ele>874.45996100000002</ele>
        <time>2017-06-11T09:09:37Z</time>
      </trkpt>
      <trkpt lat="42.030241163447499" lon="12.836880097165704">
        <ele>874.45996100000002</ele>
        <time>2017-06-11T09:09:52Z</time>
      </trkpt>
      <trkpt lat="42.030334118753672" lon="12.83685646019876">
        <ele>875.90002400000003</ele>
        <time>2017-06-11T09:10:02Z</time>
      </trkpt>
      <trkpt lat="42.030347194522619" lon="12.836849000304937">
        <ele>875.90002400000003</ele>
        <time>2017-06-11T09:10:03Z</time>
      </trkpt>
      <trkpt lat="42.030359683558345" lon="12.836841708049178">
        <ele>875.90002400000003</ele>
        <time>2017-06-11T09:10:04Z</time>
      </trkpt>
      <trkpt lat="42.030517514795065" lon="12.836759565398097">
        <ele>878.30004899999994</ele>
        <time>2017-06-11T09:10:17Z</time>
      </trkpt>
      <trkpt lat="42.03065263107419" lon="12.836696533486247">
        <ele>879.73999000000003</ele>
        <time>2017-06-11T09:10:30Z</time>
      </trkpt>
      <trkpt lat="42.030747011303902" lon="12.836657222360373">
        <ele>881.18994099999998</ele>
        <time>2017-06-11T09:10:40Z</time>
      </trkpt>
      <trkpt lat="42.030832171440125" lon="12.836586479097605">
        <ele>881.67004399999996</ele>
        <time>2017-06-11T09:10:49Z</time>
      </trkpt>
      <trkpt lat="42.030841978266835" lon="12.836585473269224">
        <ele>881.67004399999996</ele>
        <time>2017-06-11T09:10:50Z</time>
      </trkpt>
      <trkpt lat="42.030853796750307" lon="12.836582204326987">
        <ele>881.67004399999996</ele>
        <time>2017-06-11T09:10:51Z</time>
      </trkpt>
      <trkpt lat="42.030996540561318" lon="12.836529230698943">
        <ele>883.10998500000005</ele>
        <time>2017-06-11T09:11:05Z</time>
      </trkpt>
      <trkpt lat="42.031133836135268" lon="12.836481118574739">
        <ele>884.07000700000003</ele>
        <time>2017-06-11T09:11:18Z</time>
      </trkpt>
      <trkpt lat="42.031282363459468" lon="12.836423618718982">
        <ele>885.03002900000001</ele>
        <time>2017-06-11T09:11:32Z</time>
      </trkpt>
      <trkpt lat="42.031442038714886" lon="12.836329741403461">
        <ele>885.98999000000003</ele>
        <time>2017-06-11T09:11:46Z</time>
      </trkpt>
      <trkpt lat="42.031598277390003" lon="12.836250364780426">
        <ele>886.95001200000002</ele>
        <time>2017-06-11T09:12:00Z</time>
      </trkpt>
      <trkpt lat="42.031765663996339" lon="12.836215328425169">
        <ele>885.03002900000001</ele>
        <time>2017-06-11T09:12:14Z</time>
      </trkpt>
      <trkpt lat="42.031787540763617" lon="12.83621490933001">
        <ele>884.54998799999998</ele>
        <time>2017-06-11T09:12:16Z</time>
      </trkpt>
      <trkpt lat="42.031798772513866" lon="12.836206862702966">
        <ele>884.54998799999998</ele>
        <time>2017-06-11T09:12:17Z</time>
      </trkpt>
      <trkpt lat="42.031810758635402" lon="12.836200324818492">
        <ele>886.47003199999995</ele>
        <time>2017-06-11T09:12:18Z</time>
      </trkpt>
      <trkpt lat="42.031824924051762" lon="12.836197558790445">
        <ele>886.47003199999995</ele>
        <time>2017-06-11T09:12:19Z</time>
      </trkpt>
      <trkpt lat="42.031838418915868" lon="12.836196385324001">
        <ele>886.47003199999995</ele>
        <time>2017-06-11T09:12:20Z</time>
      </trkpt>
      <trkpt lat="42.031994238495827" lon="12.836198229342699">
        <ele>883.589966</ele>
        <time>2017-06-11T09:12:33Z</time>
      </trkpt>
      <trkpt lat="42.03200563788414" lon="12.836192194372416">
        <ele>883.589966</ele>
        <time>2017-06-11T09:12:34Z</time>
      </trkpt>
      <trkpt lat="42.032017624005675" lon="12.836187332868576">
        <ele>883.589966</ele>
        <time>2017-06-11T09:12:35Z</time>
      </trkpt>
      <trkpt lat="42.032032208517194" lon="12.836184734478593">
        <ele>883.10998500000005</ele>
        <time>2017-06-11T09:12:36Z</time>
      </trkpt>
      <trkpt lat="42.032045871019363" lon="12.836186494678259">
        <ele>883.10998500000005</ele>
        <time>2017-06-11T09:12:37Z</time>
      </trkpt>
      <trkpt lat="42.03205794095993" lon="12.836188841611147">
        <ele>883.10998500000005</ele>
        <time>2017-06-11T09:12:38Z</time>
      </trkpt>
      <trkpt lat="42.032108483836055" lon="12.836151458323002">
        <ele>881.67004399999996</ele>
        <time>2017-06-11T09:12:45Z</time>
      </trkpt>
      <trkpt lat="42.03211803920567" lon="12.836138717830181">
        <ele>881.18994099999998</ele>
        <time>2017-06-11T09:12:46Z</time>
      </trkpt>
      <trkpt lat="42.032125582918525" lon="12.836122959852219">
        <ele>881.18994099999998</ele>
        <time>2017-06-11T09:12:47Z</time>
      </trkpt>
      <trkpt lat="42.032164139673114" lon="12.836069986224174">
        <ele>880.71002199999998</ele>
        <time>2017-06-11T09:12:53Z</time>
      </trkpt>
      <trkpt lat="42.032166067510843" lon="12.83605707809329">
        <ele>880.21997099999999</ele>
        <time>2017-06-11T09:12:54Z</time>
      </trkpt>
      <trkpt lat="42.032168917357922" lon="12.836042996495962">
        <ele>879.73999000000003</ele>
        <time>2017-06-11T09:12:55Z</time>
      </trkpt>
      <trkpt lat="42.032208228483796" lon="12.835883740335703">
        <ele>878.30004899999994</ele>
        <time>2017-06-11T09:13:13Z</time>
      </trkpt>
      <trkpt lat="42.032217783853412" lon="12.835875609889627">
        <ele>878.77996800000005</ele>
        <time>2017-06-11T09:13:35Z</time>
      </trkpt>
      <trkpt lat="42.032213592901826" lon="12.835897067561746">
        <ele>878.77996800000005</ele>
        <time>2017-06-11T09:13:51Z</time>
      </trkpt>
      <trkpt lat="42.03221426345408" lon="12.835905281826854">
        <ele>878.30004899999994</ele>
        <time>2017-06-11T09:14:06Z</time>
      </trkpt>
      <trkpt lat="42.032207222655416" lon="12.835900001227856">
        <ele>878.30004899999994</ele>
        <time>2017-06-11T09:14:29Z</time>
      </trkpt>
      <trkpt lat="42.032226165756583" lon="12.835883405059576">
        <ele>878.77996800000005</ele>
        <time>2017-06-11T09:14:49Z</time>
      </trkpt>
      <trkpt lat="42.032263381406665" lon="12.835788941010833">
        <ele>878.77996800000005</ele>
        <time>2017-06-11T09:15:00Z</time>
      </trkpt>
      <trkpt lat="42.032277714461088" lon="12.835834287106991">
        <ele>878.77996800000005</ele>
        <time>2017-06-11T09:15:10Z</time>
      </trkpt>
      <trkpt lat="42.032276624813676" lon="12.835848201066256">
        <ele>878.77996800000005</ele>
        <time>2017-06-11T09:15:11Z</time>
      </trkpt>
      <trkpt lat="42.032276876270771" lon="12.835862534120679">
        <ele>878.30004899999994</ele>
        <time>2017-06-11T09:15:12Z</time>
      </trkpt>
      <trkpt lat="42.032281737774611" lon="12.835874520242214">
        <ele>878.30004899999994</ele>
        <time>2017-06-11T09:15:13Z</time>
      </trkpt>
      <trkpt lat="42.032290371134877" lon="12.835882231593132">
        <ele>878.30004899999994</ele>
        <time>2017-06-11T09:15:14Z</time>
      </trkpt>
      <trkpt lat="42.032298417761922" lon="12.835890362039208">
        <ele>878.30004899999994</ele>
        <time>2017-06-11T09:15:15Z</time>
      </trkpt>
      <trkpt lat="42.032306296750903" lon="12.835901929065585">
        <ele>877.82000700000003</ele>
        <time>2017-06-11T09:15:16Z</time>
      </trkpt>
      <trkpt lat="42.032315097749233" lon="12.835913831368089">
        <ele>877.82000700000003</ele>
        <time>2017-06-11T09:15:17Z</time>
      </trkpt>
      <trkpt lat="42.032323060557246" lon="12.835923135280609">
        <ele>877.82000700000003</ele>
        <time>2017-06-11T09:15:18Z</time>
      </trkpt>
      <trkpt lat="42.032353905960917" lon="12.835966302081943">
        <ele>877.34002699999996</ele>
        <time>2017-06-11T09:15:35Z</time>
      </trkpt>
      <trkpt lat="42.032368909567595" lon="12.835988262668252">
        <ele>877.82000700000003</ele>
        <time>2017-06-11T09:15:59Z</time>
      </trkpt>
      <trkpt lat="42.032350217923522" lon="12.8359788749367">
        <ele>877.82000700000003</ele>
        <time>2017-06-11T09:16:17Z</time>
      </trkpt>
      <trkpt lat="42.032281737774611" lon="12.835922883823514">
        <ele>876.85998500000005</ele>
        <time>2017-06-11T09:16:33Z</time>
      </trkpt>
      <trkpt lat="42.032266231253743" lon="12.835917770862579">
        <ele>878.77996800000005</ele>
        <time>2017-06-11T09:16:35Z</time>
      </trkpt>
      <trkpt lat="42.032224740833044" lon="12.835804782807827">
        <ele>880.21997099999999</ele>
        <time>2017-06-11T09:16:53Z</time>
      </trkpt>
      <trkpt lat="42.032302860170603" lon="12.835766561329365">
        <ele>878.77996800000005</ele>
        <time>2017-06-11T09:17:06Z</time>
      </trkpt>
      <trkpt lat="42.032302441075444" lon="12.835742589086294">
        <ele>879.25994900000001</ele>
        <time>2017-06-11T09:17:32Z</time>
      </trkpt>
      <trkpt lat="42.032331693917513" lon="12.835730435326695">
        <ele>880.21997099999999</ele>
        <time>2017-06-11T09:17:42Z</time>
      </trkpt>
      <trkpt lat="42.032315097749233" lon="12.835769997909665">
        <ele>880.71002199999998</ele>
        <time>2017-06-11T09:18:09Z</time>
      </trkpt>
      <trkpt lat="42.032340159639716" lon="12.835780307650566">
        <ele>880.71002199999998</ele>
        <time>2017-06-11T09:18:30Z</time>
      </trkpt>
      <trkpt lat="42.0324463583529" lon="12.835779134184122">
        <ele>881.67004399999996</ele>
        <time>2017-06-11T09:18:44Z</time>
      </trkpt>
      <trkpt lat="42.032569404691458" lon="12.835757676512003">
        <ele>884.07000700000003</ele>
        <time>2017-06-11T09:18:59Z</time>
      </trkpt>
      <trkpt lat="42.032637465745211" lon="12.835753988474607">
        <ele>883.589966</ele>
        <time>2017-06-11T09:19:12Z</time>
      </trkpt>
      <trkpt lat="42.032637298107147" lon="12.835755497217178">
        <ele>886.95001200000002</ele>
        <time>2017-06-11T09:19:14Z</time>
      </trkpt>
      <trkpt lat="42.032639561221004" lon="12.835754491388798">
        <ele>886.95001200000002</ele>
        <time>2017-06-11T09:19:15Z</time>
      </trkpt>
      <trkpt lat="42.032652217894793" lon="12.835751725360751">
        <ele>885.98999000000003</ele>
        <time>2017-06-11T09:19:17Z</time>
      </trkpt>
      <trkpt lat="42.032763110473752" lon="12.835753317922354">
        <ele>887.43005400000004</ele>
        <time>2017-06-11T09:19:29Z</time>
      </trkpt>
      <trkpt lat="42.032857490703464" lon="12.835758179426193">
        <ele>889.84002699999996</ele>
        <time>2017-06-11T09:19:44Z</time>
      </trkpt>
      <trkpt lat="42.032956816256046" lon="12.835613675415516">
        <ele>891.75994900000001</ele>
        <time>2017-06-11T09:20:00Z</time>
      </trkpt>
      <trkpt lat="42.032974837347865" lon="12.835611160844564">
        <ele>892.23999000000003</ele>
        <time>2017-06-11T09:20:06Z</time>
      </trkpt>
      <trkpt lat="42.032782724127173" lon="12.834933483973145">
        <ele>862.919983</ele>
        <time>2017-06-11T09:20:42Z</time>
      </trkpt>
      <trkpt lat="42.032772917300463" lon="12.835060721263289">
        <ele>862.919983</ele>
        <time>2017-06-11T09:20:43Z</time>
      </trkpt>
      <trkpt lat="42.032848605886102" lon="12.835456933826208">
        <ele>866.28997800000002</ele>
        <time>2017-06-11T09:21:05Z</time>
      </trkpt>
      <trkpt lat="42.03285682015121" lon="12.835464896634221">
        <ele>868.68994099999998</ele>
        <time>2017-06-11T09:21:07Z</time>
      </trkpt>
      <trkpt lat="42.032891772687435" lon="12.835489623248577">
        <ele>871.57000700000003</ele>
        <time>2017-06-11T09:21:10Z</time>
      </trkpt>
      <trkpt lat="42.032953295856714" lon="12.835537316277623">
        <ele>874.94000200000005</ele>
        <time>2017-06-11T09:21:14Z</time>
      </trkpt>
      <trkpt lat="42.032977687194943" lon="12.835568832233548">
        <ele>878.77996800000005</ele>
        <time>2017-06-11T09:21:19Z</time>
      </trkpt>
      <trkpt lat="42.033000234514475" lon="12.835563467815518">
        <ele>881.67004399999996</ele>
        <time>2017-06-11T09:21:24Z</time>
      </trkpt>
      <trkpt lat="42.033007023856044" lon="12.835571095347404">
        <ele>885.03002900000001</ele>
        <time>2017-06-11T09:21:30Z</time>
      </trkpt>
      <trkpt lat="42.033009203150868" lon="12.835571682080626">
        <ele>887.910034</ele>
        <time>2017-06-11T09:21:36Z</time>
      </trkpt>
      <trkpt lat="42.032987829297781" lon="12.835610825568438">
        <ele>891.27996800000005</ele>
        <time>2017-06-11T09:21:45Z</time>
      </trkpt>
      <trkpt lat="42.032981626689434" lon="12.835616860538721">
        <ele>891.27996800000005</ele>
        <time>2017-06-11T09:21:46Z</time>
      </trkpt>
      <trkpt lat="42.032952206209302" lon="12.835741164162755">
        <ele>892.71997099999999</ele>
        <time>2017-06-11T09:22:00Z</time>
      </trkpt>
      <trkpt lat="42.033060165122151" lon="12.835870580747724">
        <ele>891.75994900000001</ele>
        <time>2017-06-11T09:22:16Z</time>
      </trkpt>
      <trkpt lat="42.033141385763884" lon="12.835935791954398">
        <ele>856.18994099999998</ele>
        <time>2017-06-11T09:22:29Z</time>
      </trkpt>
      <trkpt lat="42.033143229782581" lon="12.835936965420842">
        <ele>891.27996800000005</ele>
        <time>2017-06-11T09:22:30Z</time>
      </trkpt>
      <trkpt lat="42.033192934468389" lon="12.835987759754062">
        <ele>889.84002699999996</ele>
        <time>2017-06-11T09:22:39Z</time>
      </trkpt>
      <trkpt lat="42.033268203958869" lon="12.836112901568413">
        <ele>888.40002400000003</ele>
        <time>2017-06-11T09:22:55Z</time>
      </trkpt>
      <trkpt lat="42.033331990242004" lon="12.836158834397793">
        <ele>888.40002400000003</ele>
        <time>2017-06-11T09:23:05Z</time>
      </trkpt>
      <trkpt lat="42.033387562260032" lon="12.836207533255219">
        <ele>888.40002400000003</ele>
        <time>2017-06-11T09:23:17Z</time>
      </trkpt>
      <trkpt lat="42.03344414010644" lon="12.836243575438857">
        <ele>888.88000499999998</ele>
        <time>2017-06-11T09:23:30Z</time>
      </trkpt>
      <trkpt lat="42.033545393496752" lon="12.836308786645532">
        <ele>889.84002699999996</ele>
        <time>2017-06-11T09:23:41Z</time>
      </trkpt>
      <trkpt lat="42.033675312995911" lon="12.836352875456214">
        <ele>889.84002699999996</ele>
        <time>2017-06-11T09:23:58Z</time>
      </trkpt>
      <trkpt lat="42.033686460927129" lon="12.836342817172408">
        <ele>888.88000499999998</ele>
        <time>2017-06-11T09:24:00Z</time>
      </trkpt>
      <trkpt lat="42.033770363777876" lon="12.836309038102627">
        <ele>886.47003199999995</ele>
        <time>2017-06-11T09:24:13Z</time>
      </trkpt>
      <trkpt lat="42.033794084563851" lon="12.836274923756719">
        <ele>884.54998799999998</ele>
        <time>2017-06-11T09:24:29Z</time>
      </trkpt>
      <trkpt lat="42.033858709037304" lon="12.836187165230513">
        <ele>883.10998500000005</ele>
        <time>2017-06-11T09:24:40Z</time>
      </trkpt>
      <trkpt lat="42.03388930298388" lon="12.836148105561733">
        <ele>883.10998500000005</ele>
        <time>2017-06-11T09:24:44Z</time>
      </trkpt>
      <trkpt lat="42.033995585516095" lon="12.835963536053896">
        <ele>881.67004399999996</ele>
        <time>2017-06-11T09:25:01Z</time>
      </trkpt>
      <trkpt lat="42.034026514738798" lon="12.835925314575434">
        <ele>881.67004399999996</ele>
        <time>2017-06-11T09:25:06Z</time>
      </trkpt>
      <trkpt lat="42.034067083150148" lon="12.835797071456909">
        <ele>881.18994099999998</ele>
        <time>2017-06-11T09:25:18Z</time>
      </trkpt>
      <trkpt lat="42.034117206931114" lon="12.835641335695982">
        <ele>878.77996800000005</ele>
        <time>2017-06-11T09:25:32Z</time>
      </trkpt>
      <trkpt lat="42.034140173345804" lon="12.835600515827537">
        <ele>878.77996800000005</ele>
        <time>2017-06-11T09:25:45Z</time>
      </trkpt>
      <trkpt lat="42.034163139760494" lon="12.835565395653248">
        <ele>878.77996800000005</ele>
        <time>2017-06-11T09:25:50Z</time>
      </trkpt>
      <trkpt lat="42.034237235784531" lon="12.835451820865273">
        <ele>876.85998500000005</ele>
        <time>2017-06-11T09:26:03Z</time>
      </trkpt>
      <trkpt lat="42.034266907721758" lon="12.835427429527044">
        <ele>876.85998500000005</ele>
        <time>2017-06-11T09:26:08Z</time>
      </trkpt>
      <trkpt lat="42.034402610734105" lon="12.835402535274625">
        <ele>875.90002400000003</ele>
        <time>2017-06-11T09:26:24Z</time>
      </trkpt>
      <trkpt lat="42.034465810284019" lon="12.835341431200504">
        <ele>873.5</ele>
        <time>2017-06-11T09:26:38Z</time>
      </trkpt>
      <trkpt lat="42.034553568810225" lon="12.835261216387153">
        <ele>871.089966</ele>
        <time>2017-06-11T09:26:54Z</time>
      </trkpt>
      <trkpt lat="42.034678878262639" lon="12.835121490061283">
        <ele>869.64996299999996</ele>
        <time>2017-06-11T09:27:13Z</time>
      </trkpt>
      <trkpt lat="42.034787759184837" lon="12.835008502006531">
        <ele>869.17004399999996</ele>
        <time>2017-06-11T09:27:27Z</time>
      </trkpt>
      <trkpt lat="42.034828159958124" lon="12.834956282749772">
        <ele>870.60998500000005</ele>
        <time>2017-06-11T09:27:43Z</time>
      </trkpt>
      <trkpt lat="42.034919438883662" lon="12.834948571398854">
        <ele>872.04998799999998</ele>
        <time>2017-06-11T09:27:59Z</time>
      </trkpt>
      <trkpt lat="42.034959085285664" lon="12.834908086806536">
        <ele>873.01000999999997</ele>
        <time>2017-06-11T09:28:05Z</time>
      </trkpt>
      <trkpt lat="42.035037958994508" lon="12.834799876436591">
        <ele>873.01000999999997</ele>
        <time>2017-06-11T09:28:18Z</time>
      </trkpt>
      <trkpt lat="42.035123538225889" lon="12.834689989686012">
        <ele>873.01000999999997</ele>
        <time>2017-06-11T09:28:32Z</time>
      </trkpt>
      <trkpt lat="42.035178272053599" lon="12.834622096270323">
        <ele>873.01000999999997</ele>
        <time>2017-06-11T09:28:46Z</time>
      </trkpt>
      <trkpt lat="42.03519294038415" lon="12.83461413346231">
        <ele>873.01000999999997</ele>
        <time>2017-06-11T09:28:48Z</time>
      </trkpt>
      <trkpt lat="42.035302491858602" lon="12.834578761830926">
        <ele>873.01000999999997</ele>
        <time>2017-06-11T09:29:01Z</time>
      </trkpt>
      <trkpt lat="42.035388825461268" lon="12.834565937519073">
        <ele>874.45996100000002</ele>
        <time>2017-06-11T09:29:16Z</time>
      </trkpt>
      <trkpt lat="42.0354666095227" lon="12.834542635828257">
        <ele>875.419983</ele>
        <time>2017-06-11T09:29:28Z</time>
      </trkpt>
      <trkpt lat="42.035523103550076" lon="12.834525033831596">
        <ele>873.97997999999995</ele>
        <time>2017-06-11T09:29:36Z</time>
      </trkpt>
      <trkpt lat="42.035541040822864" lon="12.834524782374501">
        <ele>873.97997999999995</ele>
        <time>2017-06-11T09:29:38Z</time>
      </trkpt>
      <trkpt lat="42.035662159323692" lon="12.834482034668326">
        <ele>873.01000999999997</ele>
        <time>2017-06-11T09:29:52Z</time>
      </trkpt>
      <trkpt lat="42.035761903971434" lon="12.83446803689003">
        <ele>873.01000999999997</ele>
        <time>2017-06-11T09:30:03Z</time>
      </trkpt>
      <trkpt lat="42.035861229524016" lon="12.834487482905388">
        <ele>874.45996100000002</ele>
        <time>2017-06-11T09:30:15Z</time>
      </trkpt>
      <trkpt lat="42.035985365509987" lon="12.834547832608223">
        <ele>877.34002699999996</ele>
        <time>2017-06-11T09:30:33Z</time>
      </trkpt>
      <trkpt lat="42.03606859780848" lon="12.834621090441942">
        <ele>880.71002199999998</ele>
        <time>2017-06-11T09:30:50Z</time>
      </trkpt>
      <trkpt lat="42.036144537851214" lon="12.834667023271322">
        <ele>883.589966</ele>
        <time>2017-06-11T09:31:05Z</time>
      </trkpt>
      <trkpt lat="42.036134395748377" lon="12.834687558934093">
        <ele>883.589966</ele>
        <time>2017-06-11T09:31:20Z</time>
      </trkpt>
      <trkpt lat="42.036102628335357" lon="12.834745980799198">
        <ele>885.98999000000003</ele>
        <time>2017-06-11T09:31:34Z</time>
      </trkpt>
      <trkpt lat="42.036145711317658" lon="12.834775568917394">
        <ele>887.910034</ele>
        <time>2017-06-11T09:31:46Z</time>
      </trkpt>
      <trkpt lat="42.036183765158057" lon="12.834836840629578">
        <ele>889.84002699999996</ele>
        <time>2017-06-11T09:31:59Z</time>
      </trkpt>
      <trkpt lat="42.036201031878591" lon="12.834823681041598">
        <ele>890.80004899999994</ele>
        <time>2017-06-11T09:32:18Z</time>
      </trkpt>
      <trkpt lat="42.036234140396118" lon="12.834870619699359">
        <ele>892.71997099999999</ele>
        <time>2017-06-11T09:32:40Z</time>
      </trkpt>
      <trkpt lat="42.036300860345364" lon="12.834941195324063">
        <ele>895.11999500000002</ele>
        <time>2017-06-11T09:32:55Z</time>
      </trkpt>
      <trkpt lat="42.036348637193441" lon="12.834977740421891">
        <ele>897.04998799999998</ele>
        <time>2017-06-11T09:33:13Z</time>
      </trkpt>
      <trkpt lat="42.03642088919878" lon="12.834983859211206">
        <ele>898.01000999999997</ele>
        <time>2017-06-11T09:33:29Z</time>
      </trkpt>
      <trkpt lat="42.036463133990765" lon="12.835039934143424">
        <ele>898.97003199999995</ele>
        <time>2017-06-11T09:33:43Z</time>
      </trkpt>
      <trkpt lat="42.036431869491935" lon="12.835092823952436">
        <ele>900.88995399999999</ele>
        <time>2017-06-11T09:33:57Z</time>
      </trkpt>
      <trkpt lat="42.036403371021152" lon="12.835146971046925">
        <ele>902.82000700000003</ele>
        <time>2017-06-11T09:34:12Z</time>
      </trkpt>
      <trkpt lat="42.036427007988095" lon="12.835160382091999">
        <ele>903.30004899999994</ele>
        <time>2017-06-11T09:34:18Z</time>
      </trkpt>
      <trkpt lat="42.036519711837173" lon="12.835157783702016">
        <ele>903.77996800000005</ele>
        <time>2017-06-11T09:34:30Z</time>
      </trkpt>
      <trkpt lat="42.036615097895265" lon="12.835135823115706">
        <ele>903.77996800000005</ele>
        <time>2017-06-11T09:34:43Z</time>
      </trkpt>
      <trkpt lat="42.036641165614128" lon="12.835138672962785">
        <ele>903.77996800000005</ele>
        <time>2017-06-11T09:34:46Z</time>
      </trkpt>
      <trkpt lat="42.036736719310284" lon="12.835172368213534">
        <ele>904.25994900000001</ele>
        <time>2017-06-11T09:34:55Z</time>
      </trkpt>
      <trkpt lat="42.036864878609776" lon="12.835174882784486">
        <ele>905.21997099999999</ele>
        <time>2017-06-11T09:35:09Z</time>
      </trkpt>
      <trkpt lat="42.036875691264868" lon="12.835173876956105">
        <ele>905.21997099999999</ele>
        <time>2017-06-11T09:35:10Z</time>
      </trkpt>
      <trkpt lat="42.036999827250838" lon="12.835219893604517">
        <ele>905.21997099999999</ele>
        <time>2017-06-11T09:35:25Z</time>
      </trkpt>
      <trkpt lat="42.037051375955343" lon="12.835212098434567">
        <ele>905.21997099999999</ele>
        <time>2017-06-11T09:35:36Z</time>
      </trkpt>
      <trkpt lat="42.037057410925627" lon="12.835211427882314">
        <ele>903.77996800000005</ele>
        <time>2017-06-11T09:35:38Z</time>
      </trkpt>
      <trkpt lat="42.037071660161018" lon="12.835205560550094">
        <ele>903.77996800000005</ele>
        <time>2017-06-11T09:35:40Z</time>
      </trkpt>
      <trkpt lat="42.037196634337306" lon="12.835169434547424">
        <ele>903.30004899999994</ele>
        <time>2017-06-11T09:35:56Z</time>
      </trkpt>
      <trkpt lat="42.037279363721609" lon="12.835171278566122">
        <ele>903.30004899999994</ele>
        <time>2017-06-11T09:36:05Z</time>
      </trkpt>
      <trkpt lat="42.037422358989716" lon="12.835074802860618">
        <ele>903.30004899999994</ele>
        <time>2017-06-11T09:36:17Z</time>
      </trkpt>
      <trkpt lat="42.037464939057827" lon="12.835057536140084">
        <ele>904.73999000000003</ele>
        <time>2017-06-11T09:36:21Z</time>
      </trkpt>
      <trkpt lat="42.037474326789379" lon="12.835054267197847">
        <ele>904.73999000000003</ele>
        <time>2017-06-11T09:36:22Z</time>
      </trkpt>
      <trkpt lat="42.037569461390376" lon="12.835003808140755">
        <ele>907.14001499999995</ele>
        <time>2017-06-11T09:36:33Z</time>
      </trkpt>
      <trkpt lat="42.037574658170342" lon="12.834999030455947">
        <ele>907.14001499999995</ele>
        <time>2017-06-11T09:36:34Z</time>
      </trkpt>
      <trkpt lat="42.037668032571673" lon="12.834971286356449">
        <ele>909.05999799999995</ele>
        <time>2017-06-11T09:36:46Z</time>
      </trkpt>
      <trkpt lat="42.037690663710237" lon="12.834961395710707">
        <ele>909.54003899999998</ele>
        <time>2017-06-11T09:36:49Z</time>
      </trkpt>
      <trkpt lat="42.037758640944958" lon="12.834966760128736">
        <ele>910.03002900000001</ele>
        <time>2017-06-11T09:37:00Z</time>
      </trkpt>
      <trkpt lat="42.03781932592392" lon="12.834967598319054">
        <ele>911.47003199999995</ele>
        <time>2017-06-11T09:37:12Z</time>
      </trkpt>
      <trkpt lat="42.037845561280847" lon="12.83495862968266">
        <ele>911.95001200000002</ele>
        <time>2017-06-11T09:37:16Z</time>
      </trkpt>
      <trkpt lat="42.037883531302214" lon="12.834973717108369">
        <ele>911.95001200000002</ele>
        <time>2017-06-11T09:37:31Z</time>
      </trkpt>
      <trkpt lat="42.037939438596368" lon="12.834960138425231">
        <ele>911.95001200000002</ele>
        <time>2017-06-11T09:37:43Z</time>
      </trkpt>
      <trkpt lat="42.03797816298902" lon="12.834921414032578">
        <ele>910.03002900000001</ele>
        <time>2017-06-11T09:37:51Z</time>
      </trkpt>
      <trkpt lat="42.038038764148951" lon="12.834845641627908">
        <ele>908.580017</ele>
        <time>2017-06-11T09:38:02Z</time>
      </trkpt>
      <trkpt lat="42.038089726120234" lon="12.834821082651615">
        <ele>907.14001499999995</ele>
        <time>2017-06-11T09:38:14Z</time>
      </trkpt>
      <trkpt lat="42.038264404982328" lon="12.834793422371149">
        <ele>904.73999000000003</ele>
        <time>2017-06-11T09:38:30Z</time>
      </trkpt>
      <trkpt lat="42.038374207913876" lon="12.834792667999864">
        <ele>902.82000700000003</ele>
        <time>2017-06-11T09:38:45Z</time>
      </trkpt>
      <trkpt lat="42.038514604791999" lon="12.83477146178484">
        <ele>901.84997599999997</ele>
        <time>2017-06-11T09:39:01Z</time>
      </trkpt>
      <trkpt lat="42.03866807743907" lon="12.83475243486464">
        <ele>900.410034</ele>
        <time>2017-06-11T09:39:16Z</time>
      </trkpt>
      <trkpt lat="42.038738988339901" lon="12.834686720743775">
        <ele>898.97003199999995</ele>
        <time>2017-06-11T09:39:33Z</time>
      </trkpt>
      <trkpt lat="42.038820460438728" lon="12.834601225331426">
        <ele>898.01000999999997</ele>
        <time>2017-06-11T09:39:48Z</time>
      </trkpt>
      <trkpt lat="42.038902770727873" lon="12.834540037438273">
        <ele>897.53002900000001</ele>
        <time>2017-06-11T09:40:01Z</time>
      </trkpt>
      <trkpt lat="42.038946440443397" lon="12.834472227841616">
        <ele>897.04998799999998</ele>
        <time>2017-06-11T09:40:08Z</time>
      </trkpt>
      <trkpt lat="42.038970664143562" lon="12.834387235343456">
        <ele>896.089966</ele>
        <time>2017-06-11T09:40:17Z</time>
      </trkpt>
      <trkpt lat="42.039034701883793" lon="12.834237534552813">
        <ele>894.64001499999995</ele>
        <time>2017-06-11T09:40:30Z</time>
      </trkpt>
      <trkpt lat="42.039075437933207" lon="12.83414063975215">
        <ele>893.20001200000002</ele>
        <time>2017-06-11T09:40:43Z</time>
      </trkpt>
      <trkpt lat="42.039077281951904" lon="12.834099065512419">
        <ele>892.71997099999999</ele>
        <time>2017-06-11T09:40:46Z</time>
      </trkpt>
      <trkpt lat="42.039135368540883" lon="12.834006194025278">
        <ele>891.75994900000001</ele>
        <time>2017-06-11T09:40:58Z</time>
      </trkpt>
      <trkpt lat="42.039257911965251" lon="12.833950035274029">
        <ele>891.27996800000005</ele>
        <time>2017-06-11T09:41:12Z</time>
      </trkpt>
      <trkpt lat="42.039446840062737" lon="12.833840902894735">
        <ele>890.32000700000003</ele>
        <time>2017-06-11T09:41:26Z</time>
      </trkpt>
      <trkpt lat="42.039543986320496" lon="12.833749623969197">
        <ele>889.35998500000005</ele>
        <time>2017-06-11T09:41:37Z</time>
      </trkpt>
      <trkpt lat="42.039594361558557" lon="12.833642000332475">
        <ele>886.95001200000002</ele>
        <time>2017-06-11T09:41:51Z</time>
      </trkpt>
      <trkpt lat="42.039641216397285" lon="12.833526078611612">
        <ele>885.51000999999997</ele>
        <time>2017-06-11T09:42:06Z</time>
      </trkpt>
      <trkpt lat="42.0397406257689" lon="12.833425160497427">
        <ele>885.03002900000001</ele>
        <time>2017-06-11T09:42:20Z</time>
      </trkpt>
      <trkpt lat="42.039766861125827" lon="12.833331031724811">
        <ele>885.98999000000003</ele>
        <time>2017-06-11T09:42:32Z</time>
      </trkpt>
      <trkpt lat="42.039766609668732" lon="12.833202369511127">
        <ele>887.43005400000004</ele>
        <time>2017-06-11T09:42:48Z</time>
      </trkpt>
      <trkpt lat="42.039775410667062" lon="12.833136487752199">
        <ele>887.910034</ele>
        <time>2017-06-11T09:42:56Z</time>
      </trkpt>
      <trkpt lat="42.039761412888765" lon="12.833077982068062">
        <ele>889.84002699999996</ele>
        <time>2017-06-11T09:43:02Z</time>
      </trkpt>
      <trkpt lat="42.039781864732504" lon="12.832942362874746">
        <ele>889.84002699999996</ele>
        <time>2017-06-11T09:43:16Z</time>
      </trkpt>
      <trkpt lat="42.039812207221985" lon="12.832845468074083">
        <ele>890.80004899999994</ele>
        <time>2017-06-11T09:43:30Z</time>
      </trkpt>
      <trkpt lat="42.039902899414301" lon="12.832744717597961">
        <ele>890.32000700000003</ele>
        <time>2017-06-11T09:43:44Z</time>
      </trkpt>
      <trkpt lat="42.039960566908121" lon="12.832679841667414">
        <ele>890.32000700000003</ele>
        <time>2017-06-11T09:43:55Z</time>
      </trkpt>
      <trkpt lat="42.04004262574017" lon="12.832579258829355">
        <ele>890.32000700000003</ele>
        <time>2017-06-11T09:44:08Z</time>
      </trkpt>
      <trkpt lat="42.040052013471723" lon="12.832541204988956">
        <ele>888.88000499999998</ele>
        <time>2017-06-11T09:44:13Z</time>
      </trkpt>
      <trkpt lat="42.04005628824234" lon="12.832530476152897">
        <ele>888.88000499999998</ele>
        <time>2017-06-11T09:44:14Z</time>
      </trkpt>
      <trkpt lat="42.040098868310452" lon="12.832467360422015">
        <ele>888.88000499999998</ele>
        <time>2017-06-11T09:44:27Z</time>
      </trkpt>
      <trkpt lat="42.040139771997929" lon="12.832388738170266">
        <ele>888.88000499999998</ele>
        <time>2017-06-11T09:44:35Z</time>
      </trkpt>
      <trkpt lat="42.040175562724471" lon="12.832315061241388">
        <ele>888.40002400000003</ele>
        <time>2017-06-11T09:44:49Z</time>
      </trkpt>
      <trkpt lat="42.040219902992249" lon="12.832233505323529">
        <ele>887.43005400000004</ele>
        <time>2017-06-11T09:45:00Z</time>
      </trkpt>
      <trkpt lat="42.040231637656689" lon="12.83221447840333">
        <ele>887.43005400000004</ele>
        <time>2017-06-11T09:45:02Z</time>
      </trkpt>
      <trkpt lat="42.04026491381228" lon="12.832172736525536">
        <ele>887.43005400000004</ele>
        <time>2017-06-11T09:45:07Z</time>
      </trkpt>
      <trkpt lat="42.040295926854014" lon="12.832109788432717">
        <ele>886.95001200000002</ele>
        <time>2017-06-11T09:45:12Z</time>
      </trkpt>
      <trkpt lat="42.040380416437984" lon="12.831977438181639">
        <ele>886.47003199999995</ele>
        <time>2017-06-11T09:45:26Z</time>
      </trkpt>
      <trkpt lat="42.040357114747167" lon="12.831832431256771">
        <ele>887.43005400000004</ele>
        <time>2017-06-11T09:45:36Z</time>
      </trkpt>
      <trkpt lat="42.040370190516114" lon="12.831653980538249">
        <ele>887.43005400000004</ele>
        <time>2017-06-11T09:45:47Z</time>
      </trkpt>
      <trkpt lat="42.040377398952842" lon="12.831568568944931">
        <ele>885.98999000000003</ele>
        <time>2017-06-11T09:45:56Z</time>
      </trkpt>
      <trkpt lat="42.040420901030302" lon="12.831493299454451">
        <ele>885.98999000000003</ele>
        <time>2017-06-11T09:46:07Z</time>
      </trkpt>
      <trkpt lat="42.040464738383889" lon="12.831390369683504">
        <ele>885.03002900000001</ele>
        <time>2017-06-11T09:46:19Z</time>
      </trkpt>
      <trkpt lat="42.040484938770533" lon="12.831327840685844">
        <ele>885.03002900000001</ele>
        <time>2017-06-11T09:46:29Z</time>
      </trkpt>
      <trkpt lat="42.040509665384889" lon="12.831272017210722">
        <ele>885.03002900000001</ele>
        <time>2017-06-11T09:46:34Z</time>
      </trkpt>
      <trkpt lat="42.040578229352832" lon="12.831067917868495">
        <ele>884.54998799999998</ele>
        <time>2017-06-11T09:46:51Z</time>
      </trkpt>
      <trkpt lat="42.04062701202929" lon="12.830947134643793">
        <ele>884.54998799999998</ele>
        <time>2017-06-11T09:47:02Z</time>
      </trkpt>
      <trkpt lat="42.040638159960508" lon="12.830912014469504">
        <ele>884.54998799999998</ele>
        <time>2017-06-11T09:47:06Z</time>
      </trkpt>
      <trkpt lat="42.040706388652325" lon="12.830873960629106">
        <ele>884.54998799999998</ele>
        <time>2017-06-11T09:47:17Z</time>
      </trkpt>
      <trkpt lat="42.040758524090052" lon="12.830816963687539">
        <ele>884.07000700000003</ele>
        <time>2017-06-11T09:47:30Z</time>
      </trkpt>
      <trkpt lat="42.040768833830953" lon="12.830804223194718">
        <ele>883.10998500000005</ele>
        <time>2017-06-11T09:47:33Z</time>
      </trkpt>
      <trkpt lat="42.040888359770179" lon="12.830751836299896">
        <ele>882.63000499999998</ele>
        <time>2017-06-11T09:47:52Z</time>
      </trkpt>
      <trkpt lat="42.040989780798554" lon="12.830677069723606">
        <ele>882.63000499999998</ele>
        <time>2017-06-11T09:48:04Z</time>
      </trkpt>
      <trkpt lat="42.041006460785866" lon="12.830653013661504">
        <ele>884.07000700000003</ele>
        <time>2017-06-11T09:48:07Z</time>
      </trkpt>
      <trkpt lat="42.041070498526096" lon="12.830569110810757">
        <ele>885.03002900000001</ele>
        <time>2017-06-11T09:48:17Z</time>
      </trkpt>
      <trkpt lat="42.04109949991107" lon="12.830522507429123">
        <ele>885.98999000000003</ele>
        <time>2017-06-11T09:48:27Z</time>
      </trkpt>
      <trkpt lat="42.04112053848803" lon="12.830460481345654">
        <ele>887.43005400000004</ele>
        <time>2017-06-11T09:48:35Z</time>
      </trkpt>
      <trkpt lat="42.041141660884023" lon="12.830399461090565">
        <ele>887.910034</ele>
        <time>2017-06-11T09:48:41Z</time>
      </trkpt>
      <trkpt lat="42.041161693632603" lon="12.830363670364022">
        <ele>888.88000499999998</ele>
        <time>2017-06-11T09:48:46Z</time>
      </trkpt>
      <trkpt lat="42.041194634512067" lon="12.830353863537312">
        <ele>889.84002699999996</ele>
        <time>2017-06-11T09:48:50Z</time>
      </trkpt>
      <trkpt lat="42.041251715272665" lon="12.830350762233138">
        <ele>889.84002699999996</ele>
        <time>2017-06-11T09:48:57Z</time>
      </trkpt>
      <trkpt lat="42.041302258148789" lon="12.830332824960351">
        <ele>890.32000700000003</ele>
        <time>2017-06-11T09:49:05Z</time>
      </trkpt>
      <trkpt lat="42.041369061917067" lon="12.830230062827468">
        <ele>890.32000700000003</ele>
        <time>2017-06-11T09:49:17Z</time>
      </trkpt>
      <trkpt lat="42.041380209848285" lon="12.830218663439155">
        <ele>890.32000700000003</ele>
        <time>2017-06-11T09:49:19Z</time>
      </trkpt>
      <trkpt lat="42.041455898433924" lon="12.830171976238489">
        <ele>891.75994900000001</ele>
        <time>2017-06-11T09:49:32Z</time>
      </trkpt>
      <trkpt lat="42.041463190689683" lon="12.830164264887571">
        <ele>891.75994900000001</ele>
        <time>2017-06-11T09:49:33Z</time>
      </trkpt>
      <trkpt lat="42.041526138782501" lon="12.830114141106606">
        <ele>893.67999299999997</ele>
        <time>2017-06-11T09:49:45Z</time>
      </trkpt>
      <trkpt lat="42.041535275056958" lon="12.830101735889912">
        <ele>893.67999299999997</ele>
        <time>2017-06-11T09:49:47Z</time>
      </trkpt>
      <trkpt lat="42.041584476828575" lon="12.830059910193086">
        <ele>894.15997300000004</ele>
        <time>2017-06-11T09:49:58Z</time>
      </trkpt>
      <trkpt lat="42.041605599224567" lon="12.830079440027475">
        <ele>894.15997300000004</ele>
        <time>2017-06-11T09:50:06Z</time>
      </trkpt>
      <trkpt lat="42.041639210656285" lon="12.830084888264537">
        <ele>896.089966</ele>
        <time>2017-06-11T09:50:12Z</time>
      </trkpt>
      <trkpt lat="42.041689837351441" lon="12.830102238804102">
        <ele>897.04998799999998</ele>
        <time>2017-06-11T09:50:22Z</time>
      </trkpt>
      <trkpt lat="42.041722359135747" lon="12.830117158591747">
        <ele>895.60998500000005</ele>
        <time>2017-06-11T09:50:26Z</time>
      </trkpt>
      <trkpt lat="42.041783966124058" lon="12.830166025087237">
        <ele>895.60998500000005</ele>
        <time>2017-06-11T09:50:35Z</time>
      </trkpt>
      <trkpt lat="42.041842974722385" lon="12.830171808600426">
        <ele>897.04998799999998</ele>
        <time>2017-06-11T09:50:42Z</time>
      </trkpt>
      <trkpt lat="42.041864767670631" lon="12.830181866884232">
        <ele>897.04998799999998</ele>
        <time>2017-06-11T09:50:46Z</time>
      </trkpt>
      <trkpt lat="42.041929559782147" lon="12.830220758914948">
        <ele>898.48999000000003</ele>
        <time>2017-06-11T09:50:58Z</time>
      </trkpt>
      <trkpt lat="42.041958393529058" lon="12.830210030078888">
        <ele>898.48999000000003</ele>
        <time>2017-06-11T09:51:02Z</time>
      </trkpt>
      <trkpt lat="42.042008433490992" lon="12.830182537436485">
        <ele>898.48999000000003</ele>
        <time>2017-06-11T09:51:08Z</time>
      </trkpt>
      <trkpt lat="42.04202838242054" lon="12.830173233523965">
        <ele>899.45001200000002</ele>
        <time>2017-06-11T09:51:11Z</time>
      </trkpt>
      <trkpt lat="42.042100131511688" lon="12.830168707296252">
        <ele>900.88995399999999</ele>
        <time>2017-06-11T09:51:21Z</time>
      </trkpt>
      <trkpt lat="42.042156541720033" lon="12.830181112512946">
        <ele>901.84997599999997</ele>
        <time>2017-06-11T09:51:31Z</time>
      </trkpt>
      <trkpt lat="42.042207168415189" lon="12.830186141654849">
        <ele>901.84997599999997</ele>
        <time>2017-06-11T09:51:43Z</time>
      </trkpt>
      <trkpt lat="42.04228931106627" lon="12.83014758490026">
        <ele>901.84997599999997</ele>
        <time>2017-06-11T09:51:54Z</time>
      </trkpt>
      <trkpt lat="42.042330130934715" lon="12.830116488039494">
        <ele>901.84997599999997</ele>
        <time>2017-06-11T09:52:02Z</time>
      </trkpt>
      <trkpt lat="42.042438508942723" lon="12.830103160813451">
        <ele>901.84997599999997</ele>
        <time>2017-06-11T09:52:13Z</time>
      </trkpt>
      <trkpt lat="42.04257127828896" lon="12.830146662890911">
        <ele>901.84997599999997</ele>
        <time>2017-06-11T09:52:26Z</time>
      </trkpt>
      <trkpt lat="42.042666664347053" lon="12.830083882436156">
        <ele>902.32995600000004</ele>
        <time>2017-06-11T09:52:39Z</time>
      </trkpt>
      <trkpt lat="42.042721314355731" lon="12.830080864951015">
        <ele>900.410034</ele>
        <time>2017-06-11T09:52:50Z</time>
      </trkpt>
      <trkpt lat="42.042741011828184" lon="12.830083882436156">
        <ele>900.410034</ele>
        <time>2017-06-11T09:52:52Z</time>
      </trkpt>
      <trkpt lat="42.042819634079933" lon="12.83006938174367">
        <ele>899.45001200000002</ele>
        <time>2017-06-11T09:53:06Z</time>
      </trkpt>
      <trkpt lat="42.042869590222836" lon="12.830028310418129">
        <ele>898.97003199999995</ele>
        <time>2017-06-11T09:53:24Z</time>
      </trkpt>
      <trkpt lat="42.042952738702297" lon="12.829921441152692">
        <ele>898.97003199999995</ele>
        <time>2017-06-11T09:53:37Z</time>
      </trkpt>
      <trkpt lat="42.043003784492612" lon="12.829809878021479">
        <ele>898.97003199999995</ele>
        <time>2017-06-11T09:53:50Z</time>
      </trkpt>
      <trkpt lat="42.043044771999121" lon="12.829756233841181">
        <ele>898.97003199999995</ele>
        <time>2017-06-11T09:53:58Z</time>
      </trkpt>
      <trkpt lat="42.043106630444527" lon="12.829719521105289">
        <ele>897.04998799999998</ele>
        <time>2017-06-11T09:54:10Z</time>
      </trkpt>
      <trkpt lat="42.043151305988431" lon="12.829650538042188">
        <ele>896.57000700000003</ele>
        <time>2017-06-11T09:54:18Z</time>
      </trkpt>
      <trkpt lat="42.043237388134003" lon="12.829596139490604">
        <ele>896.57000700000003</ele>
        <time>2017-06-11T09:54:30Z</time>
      </trkpt>
      <trkpt lat="42.043383987620473" lon="12.829550039023161">
        <ele>896.089966</ele>
        <time>2017-06-11T09:54:42Z</time>
      </trkpt>
      <trkpt lat="42.043436961248517" lon="12.829514164477587">
        <ele>897.53002900000001</ele>
        <time>2017-06-11T09:54:48Z</time>
      </trkpt>
      <trkpt lat="42.043554559350014" lon="12.829412994906306">
        <ele>897.53002900000001</ele>
        <time>2017-06-11T09:55:02Z</time>
      </trkpt>
      <trkpt lat="42.04371658153832" lon="12.829270586371422">
        <ele>897.53002900000001</ele>
        <time>2017-06-11T09:55:20Z</time>
      </trkpt>
      <trkpt lat="42.043825294822454" lon="12.829117616638541">
        <ele>898.48999000000003</ele>
        <time>2017-06-11T09:55:35Z</time>
      </trkpt>
      <trkpt lat="42.043821271508932" lon="12.829021811485291">
        <ele>898.97003199999995</ele>
        <time>2017-06-11T09:56:01Z</time>
      </trkpt>
      <trkpt lat="42.043851865455508" lon="12.828942183405161">
        <ele>899.45001200000002</ele>
        <time>2017-06-11T09:56:14Z</time>
      </trkpt>
      <trkpt lat="42.043871562927961" lon="12.828937992453575">
        <ele>899.45001200000002</ele>
        <time>2017-06-11T09:56:42Z</time>
      </trkpt>
      <trkpt lat="42.04392621293664" lon="12.828749483451247">
        <ele>899.93005400000004</ele>
        <time>2017-06-11T09:56:59Z</time>
      </trkpt>
      <trkpt lat="42.043986897915602" lon="12.828575894236565">
        <ele>899.93005400000004</ele>
        <time>2017-06-11T09:57:14Z</time>
      </trkpt>
      <trkpt lat="42.044033417478204" lon="12.828443292528391">
        <ele>901.36999500000002</ele>
        <time>2017-06-11T09:57:27Z</time>
      </trkpt>
      <trkpt lat="42.044072141870856" lon="12.828237935900688">
        <ele>902.32995600000004</ele>
        <time>2017-06-11T09:57:42Z</time>
      </trkpt>
      <trkpt lat="42.044076835736632" lon="12.828213796019554">
        <ele>902.32995600000004</ele>
        <time>2017-06-11T09:57:43Z</time>
      </trkpt>
      <trkpt lat="42.044143471866846" lon="12.828000895678997">
        <ele>903.77996800000005</ele>
        <time>2017-06-11T09:58:00Z</time>
      </trkpt>
      <trkpt lat="42.044192003086209" lon="12.827823534607887">
        <ele>905.21997099999999</ele>
        <time>2017-06-11T09:58:15Z</time>
      </trkpt>
      <trkpt lat="42.044291161000729" lon="12.827840466052294">
        <ele>904.73999000000003</ele>
        <time>2017-06-11T09:58:32Z</time>
      </trkpt>
      <trkpt lat="42.044333070516586" lon="12.827885393053293">
        <ele>905.21997099999999</ele>
        <time>2017-06-11T09:58:53Z</time>
      </trkpt>
      <trkpt lat="42.04444220289588" lon="12.827857481315732">
        <ele>906.17999299999997</ele>
        <time>2017-06-11T09:59:07Z</time>
      </trkpt>
      <trkpt lat="42.044539265334606" lon="12.827772572636604">
        <ele>909.05999799999995</ele>
        <time>2017-06-11T09:59:22Z</time>
      </trkpt>
      <trkpt lat="42.044641859829426" lon="12.827801825478673">
        <ele>910.98999000000003</ele>
        <time>2017-06-11T09:59:35Z</time>
      </trkpt>
      <trkpt lat="42.044756440445781" lon="12.827829904854298">
        <ele>912.43005400000004</ele>
        <time>2017-06-11T09:59:51Z</time>
      </trkpt>
      <trkpt lat="42.044782927259803" lon="12.827844824641943">
        <ele>913.38995399999999</ele>
        <time>2017-06-11T09:59:54Z</time>
      </trkpt>
      <trkpt lat="42.044893903657794" lon="12.827918417751789">
        <ele>914.82995600000004</ele>
        <time>2017-06-11T10:00:08Z</time>
      </trkpt>
      <trkpt lat="42.044957438483834" lon="12.827995866537094">
        <ele>916.27002000000005</ele>
        <time>2017-06-11T10:00:21Z</time>
      </trkpt>
      <trkpt lat="42.04502709209919" lon="12.828022269532084">
        <ele>917.23999000000003</ele>
        <time>2017-06-11T10:00:36Z</time>
      </trkpt>
      <trkpt lat="42.045102193951607" lon="12.828081613406539">
        <ele>917.23999000000003</ele>
        <time>2017-06-11T10:00:49Z</time>
      </trkpt>
      <trkpt lat="42.045180564746261" lon="12.82816719263792">
        <ele>919.15997300000004</ele>
        <time>2017-06-11T10:01:05Z</time>
      </trkpt>
      <trkpt lat="42.045295983552933" lon="12.828240701928735">
        <ele>921.080017</ele>
        <time>2017-06-11T10:01:19Z</time>
      </trkpt>
      <trkpt lat="42.045355830341578" lon="12.828315468505025">
        <ele>922.04003899999998</ele>
        <time>2017-06-11T10:01:31Z</time>
      </trkpt>
      <trkpt lat="42.045419281348586" lon="12.828406915068626">
        <ele>922.51995799999997</ele>
        <time>2017-06-11T10:01:44Z</time>
      </trkpt>
      <trkpt lat="42.04543118365109" lon="12.828482100740075">
        <ele>924.45001200000002</ele>
        <time>2017-06-11T10:01:55Z</time>
      </trkpt>
      <trkpt lat="42.045466136187315" lon="12.828474137932062">
        <ele>924.93005400000004</ele>
        <time>2017-06-11T10:02:10Z</time>
      </trkpt>
      <trkpt lat="42.045512069016695" lon="12.828444298356771">
        <ele>924.93005400000004</ele>
        <time>2017-06-11T10:02:36Z</time>
      </trkpt>
      <trkpt lat="42.045556828379631" lon="12.828465336933732">
        <ele>924.93005400000004</ele>
        <time>2017-06-11T10:03:06Z</time>
      </trkpt>
      <trkpt lat="42.04555531963706" lon="12.828508336097002">
        <ele>925.410034</ele>
        <time>2017-06-11T10:03:38Z</time>
      </trkpt>
      <trkpt lat="42.045551296323538" lon="12.828496433794498">
        <ele>925.410034</ele>
        <time>2017-06-11T10:03:43Z</time>
      </trkpt>
      <trkpt lat="42.045631762593985" lon="12.828451003879309">
        <ele>926.84997599999997</ele>
        <time>2017-06-11T10:03:56Z</time>
      </trkpt>
      <trkpt lat="42.045693034306169" lon="12.828442035242915">
        <ele>928.77002000000005</ele>
        <time>2017-06-11T10:04:03Z</time>
      </trkpt>
      <trkpt lat="42.045814907178283" lon="12.828390737995505">
        <ele>929.72997999999995</ele>
        <time>2017-06-11T10:04:14Z</time>
      </trkpt>
      <trkpt lat="42.04586461186409" lon="12.828371040523052">
        <ele>931.65002400000003</ele>
        <time>2017-06-11T10:04:28Z</time>
      </trkpt>
      <trkpt lat="42.045910628512502" lon="12.828411860391498">
        <ele>932.14001499999995</ele>
        <time>2017-06-11T10:04:50Z</time>
      </trkpt>
      <trkpt lat="42.045873496681452" lon="12.828443879261613">
        <ele>930.69000200000005</ele>
        <time>2017-06-11T10:05:06Z</time>
      </trkpt>
      <trkpt lat="42.045819601044059" lon="12.828495763242245">
        <ele>929.72997999999995</ele>
        <time>2017-06-11T10:05:19Z</time>
      </trkpt>
      <trkpt lat="42.045687083154917" lon="12.828499199822545">
        <ele>929.25</ele>
        <time>2017-06-11T10:05:34Z</time>
      </trkpt>
      <trkpt lat="42.045549200847745" lon="12.828483860939741">
        <ele>927.80999799999995</ele>
        <time>2017-06-11T10:05:50Z</time>
      </trkpt>
      <trkpt lat="42.045464962720871" lon="12.828502217307687">
        <ele>927.32995600000004</ele>
        <time>2017-06-11T10:06:01Z</time>
      </trkpt>
      <trkpt lat="42.045398661866784" lon="12.8285101801157">
        <ele>926.36999500000002</ele>
        <time>2017-06-11T10:06:18Z</time>
      </trkpt>
      <trkpt lat="42.045322638005018" lon="12.828450668603182">
        <ele>925.88995399999999</ele>
        <time>2017-06-11T10:06:32Z</time>
      </trkpt>
      <trkpt lat="42.045334540307522" lon="12.828475395217538">
        <ele>925.88995399999999</ele>
        <time>2017-06-11T10:06:50Z</time>
      </trkpt>
      <trkpt lat="42.045317776501179" lon="12.828494841232896">
        <ele>925.410034</ele>
        <time>2017-06-11T10:07:17Z</time>
      </trkpt>
      <trkpt lat="42.045356500893831" lon="12.828499116003513">
        <ele>925.88995399999999</ele>
        <time>2017-06-11T10:07:37Z</time>
      </trkpt>
      <trkpt lat="42.045386005192995" lon="12.828498110175133">
        <ele>927.80999799999995</ele>
        <time>2017-06-11T10:07:43Z</time>
      </trkpt>
      <trkpt lat="42.045469488948584" lon="12.828514035791159">
        <ele>928.28997800000002</ele>
        <time>2017-06-11T10:07:59Z</time>
      </trkpt>
      <trkpt lat="42.045556660741568" lon="12.828501714393497">
        <ele>928.77002000000005</ele>
        <time>2017-06-11T10:08:13Z</time>
      </trkpt>
      <trkpt lat="42.045637713745236" lon="12.828506994992495">
        <ele>929.72997999999995</ele>
        <time>2017-06-11T10:08:24Z</time>
      </trkpt>
      <trkpt lat="42.045769561082125" lon="12.828503306955099">
        <ele>931.65002400000003</ele>
        <time>2017-06-11T10:08:39Z</time>
      </trkpt>
      <trkpt lat="42.045880621299148" lon="12.828443208709359">
        <ele>933.580017</ele>
        <time>2017-06-11T10:08:54Z</time>
      </trkpt>
      <trkpt lat="42.045980030670762" lon="12.828444885089993">
        <ele>935.01995799999997</ele>
        <time>2017-06-11T10:09:09Z</time>
      </trkpt>
      <trkpt lat="42.04610550776124" lon="12.828506575897336">
        <ele>938.38000499999998</ele>
        <time>2017-06-11T10:09:27Z</time>
      </trkpt>
      <trkpt lat="42.046185471117496" lon="12.828526021912694">
        <ele>939.82995600000004</ele>
        <time>2017-06-11T10:09:44Z</time>
      </trkpt>
      <trkpt lat="42.046285383403301" lon="12.828569440171123">
        <ele>942.71002199999998</ele>
        <time>2017-06-11T10:09:59Z</time>
      </trkpt>
      <trkpt lat="42.04640599898994" lon="12.82859718427062">
        <ele>943.67004399999996</ele>
        <time>2017-06-11T10:10:14Z</time>
      </trkpt>
      <trkpt lat="42.046482022851706" lon="12.828587209805846">
        <ele>944.62994400000002</ele>
        <time>2017-06-11T10:10:26Z</time>
      </trkpt>
      <trkpt lat="42.04655259847641" lon="12.828672789037228">
        <ele>946.55999799999995</ele>
        <time>2017-06-11T10:10:43Z</time>
      </trkpt>
      <trkpt lat="42.046620910987258" lon="12.828782089054585">
        <ele>948.47997999999995</ele>
        <time>2017-06-11T10:10:59Z</time>
      </trkpt>
      <trkpt lat="42.046663239598274" lon="12.828841265290976">
        <ele>949.44000200000005</ele>
        <time>2017-06-11T10:11:15Z</time>
      </trkpt>
      <trkpt lat="42.046700958162546" lon="12.828931035473943">
        <ele>950.88000499999998</ele>
        <time>2017-06-11T10:11:33Z</time>
      </trkpt>
      <trkpt lat="42.046747980639338" lon="12.829022565856576">
        <ele>952.79998799999998</ele>
        <time>2017-06-11T10:11:49Z</time>
      </trkpt>
      <trkpt lat="42.046820065006614" lon="12.829124825075269">
        <ele>954.25</ele>
        <time>2017-06-11T10:12:07Z</time>
      </trkpt>
      <trkpt lat="42.046860465779901" lon="12.829195903614163">
        <ele>955.69000200000005</ele>
        <time>2017-06-11T10:12:21Z</time>
      </trkpt>
      <trkpt lat="42.046954091638327" lon="12.829269161447883">
        <ele>957.12994400000002</ele>
        <time>2017-06-11T10:12:37Z</time>
      </trkpt>
      <trkpt lat="42.047059871256351" lon="12.829352477565408">
        <ele>958.57000700000003</ele>
        <time>2017-06-11T10:12:54Z</time>
      </trkpt>
      <trkpt lat="42.047115862369537" lon="12.829420622438192">
        <ele>959.52996800000005</ele>
        <time>2017-06-11T10:13:07Z</time>
      </trkpt>
      <trkpt lat="42.047228766605258" lon="12.829497903585434">
        <ele>960.48999000000003</ele>
        <time>2017-06-11T10:13:23Z</time>
      </trkpt>
      <trkpt lat="42.047313423827291" lon="12.829576022922993">
        <ele>960.48999000000003</ele>
        <time>2017-06-11T10:13:39Z</time>
      </trkpt>
      <trkpt lat="42.047419538721442" lon="12.829657662659883">
        <ele>961.45996100000002</ele>
        <time>2017-06-11T10:13:57Z</time>
      </trkpt>
      <trkpt lat="42.047528000548482" lon="12.829758664593101">
        <ele>962.90002400000003</ele>
        <time>2017-06-11T10:14:10Z</time>
      </trkpt>
      <trkpt lat="42.047624392434955" lon="12.829835526645184">
        <ele>964.34002699999996</ele>
        <time>2017-06-11T10:14:25Z</time>
      </trkpt>
      <trkpt lat="42.047700332477689" lon="12.829926386475563">
        <ele>965.29998799999998</ele>
        <time>2017-06-11T10:14:41Z</time>
      </trkpt>
      <trkpt lat="42.047797394916415" lon="12.829997129738331">
        <ele>967.21997099999999</ele>
        <time>2017-06-11T10:14:57Z</time>
      </trkpt>
      <trkpt lat="42.047874676063657" lon="12.83003862015903">
        <ele>969.15002400000003</ele>
        <time>2017-06-11T10:15:13Z</time>
      </trkpt>
      <trkpt lat="42.047958159819245" lon="12.830026717856526">
        <ele>970.589966</ele>
        <time>2017-06-11T10:15:27Z</time>
      </trkpt>
      <trkpt lat="42.0480952039361" lon="12.830049935728312">
        <ele>972.51000999999997</ele>
        <time>2017-06-11T10:15:43Z</time>
      </trkpt>
      <trkpt lat="42.048200229182839" lon="12.830094778910279">
        <ele>974.42999299999997</ele>
        <time>2017-06-11T10:15:56Z</time>
      </trkpt>
      <trkpt lat="42.048323107883334" lon="12.83009092323482">
        <ele>975.39001499999995</ele>
        <time>2017-06-11T10:16:10Z</time>
      </trkpt>
      <trkpt lat="42.04840206541121" lon="12.830128641799092">
        <ele>976.35998500000005</ele>
        <time>2017-06-11T10:16:23Z</time>
      </trkpt>
      <trkpt lat="42.04848756082356" lon="12.830214388668537">
        <ele>977.80004899999994</ele>
        <time>2017-06-11T10:16:38Z</time>
      </trkpt>
      <trkpt lat="42.048563081771135" lon="12.830286724492908">
        <ele>978.28002900000001</ele>
        <time>2017-06-11T10:16:51Z</time>
      </trkpt>
      <trkpt lat="42.048650002107024" lon="12.830355539917946">
        <ele>979.24005099999999</ele>
        <time>2017-06-11T10:17:02Z</time>
      </trkpt>
      <trkpt lat="42.048721667379141" lon="12.830401640385389">
        <ele>979.71997099999999</ele>
        <time>2017-06-11T10:17:12Z</time>
      </trkpt>
      <trkpt lat="42.048778161406517" lon="12.830447489395738">
        <ele>980.67999299999997</ele>
        <time>2017-06-11T10:17:24Z</time>
      </trkpt>
      <trkpt lat="42.048832392320037" lon="12.830471880733967">
        <ele>981.15997300000004</ele>
        <time>2017-06-11T10:17:35Z</time>
      </trkpt>
      <trkpt lat="42.048878241330385" lon="12.830485962331295">
        <ele>981.64001499999995</ele>
        <time>2017-06-11T10:17:45Z</time>
      </trkpt>
      <trkpt lat="42.049023834988475" lon="12.830541785806417">
        <ele>983.089966</ele>
        <time>2017-06-11T10:18:03Z</time>
      </trkpt>
      <trkpt lat="42.049090471118689" lon="12.830582773312926">
        <ele>984.04998799999998</ele>
        <time>2017-06-11T10:18:14Z</time>
      </trkpt>
      <trkpt lat="42.049177223816514" lon="12.830669861286879">
        <ele>984.52996800000005</ele>
        <time>2017-06-11T10:18:27Z</time>
      </trkpt>
      <trkpt lat="42.049276633188128" lon="12.830781759694219">
        <ele>985.48999000000003</ele>
        <time>2017-06-11T10:18:41Z</time>
      </trkpt>
      <trkpt lat="42.049340922385454" lon="12.830851916223764">
        <ele>986.45001200000002</ele>
        <time>2017-06-11T10:18:52Z</time>
      </trkpt>
      <trkpt lat="42.049442259594798" lon="12.830937411636114">
        <ele>986.92999299999997</ele>
        <time>2017-06-11T10:19:07Z</time>
      </trkpt>
      <trkpt lat="42.049512835219502" lon="12.831057105213404">
        <ele>988.37005599999998</ele>
        <time>2017-06-11T10:19:21Z</time>
      </trkpt>
      <trkpt lat="42.049560695886612" lon="12.831187192350626">
        <ele>988.84997599999997</ele>
        <time>2017-06-11T10:19:39Z</time>
      </trkpt>
      <trkpt lat="42.049661697819829" lon="12.831269837915897">
        <ele>989.32995600000004</ele>
        <time>2017-06-11T10:19:56Z</time>
      </trkpt>
      <trkpt lat="42.049743169918656" lon="12.831337731331587">
        <ele>989.80999799999995</ele>
        <time>2017-06-11T10:20:09Z</time>
      </trkpt>
      <trkpt lat="42.049842579290271" lon="12.831383915618062">
        <ele>990.78002900000001</ele>
        <time>2017-06-11T10:20:24Z</time>
      </trkpt>
      <trkpt lat="42.049928409978747" lon="12.831397578120232">
        <ele>991.74005099999999</ele>
        <time>2017-06-11T10:20:41Z</time>
      </trkpt>
      <trkpt lat="42.050040978938341" lon="12.831400679424405">
        <ele>992.21997099999999</ele>
        <time>2017-06-11T10:20:57Z</time>
      </trkpt>
      <trkpt lat="42.050124630331993" lon="12.831416437402368">
        <ele>992.69995100000006</ele>
        <time>2017-06-11T10:21:13Z</time>
      </trkpt>
      <trkpt lat="42.050278941169381" lon="12.831505034118891">
        <ele>994.14001499999995</ele>
        <time>2017-06-11T10:21:32Z</time>
      </trkpt>
      <trkpt lat="42.050410034134984" lon="12.831575693562627">
        <ele>995.09997599999997</ele>
        <time>2017-06-11T10:21:49Z</time>
      </trkpt>
      <trkpt lat="42.050518412142992" lon="12.831631433218718">
        <ele>996.54003899999998</ele>
        <time>2017-06-11T10:22:08Z</time>
      </trkpt>
      <trkpt lat="42.050559483468533" lon="12.831682227551937">
        <ele>997.51000999999997</ele>
        <time>2017-06-11T10:22:24Z</time>
      </trkpt>
      <trkpt lat="42.050631316378713" lon="12.831761436536908">
        <ele>998.95001200000002</ele>
        <time>2017-06-11T10:22:37Z</time>
      </trkpt>
      <trkpt lat="42.050705999135971" lon="12.831860762089491">
        <ele>999.42999299999997</ele>
        <time>2017-06-11T10:22:53Z</time>
      </trkpt>
      <trkpt lat="42.050735168159008" lon="12.831904767081141">
        <ele>998.47003199999995</ele>
        <time>2017-06-11T10:22:58Z</time>
      </trkpt>
      <trkpt lat="42.050820663571358" lon="12.832028735429049">
        <ele>997.98999000000003</ele>
        <time>2017-06-11T10:23:13Z</time>
      </trkpt>
      <trkpt lat="42.050887299701571" lon="12.831969140097499">
        <ele>996.05999799999995</ele>
        <time>2017-06-11T10:23:29Z</time>
      </trkpt>
      <trkpt lat="42.051020236685872" lon="12.831969391554594">
        <ele>994.14001499999995</ele>
        <time>2017-06-11T10:23:44Z</time>
      </trkpt>
      <trkpt lat="42.05112811177969" lon="12.832029070705175">
        <ele>992.69995100000006</ele>
        <time>2017-06-11T10:23:56Z</time>
      </trkpt>
      <trkpt lat="42.051137834787369" lon="12.832036362960935">
        <ele>992.69995100000006</ele>
        <time>2017-06-11T10:23:57Z</time>
      </trkpt>
      <trkpt lat="42.051261216402054" lon="12.832128312438726">
        <ele>991.74005099999999</ele>
        <time>2017-06-11T10:24:09Z</time>
      </trkpt>
      <trkpt lat="42.05135241150856" lon="12.832229062914848">
        <ele>991.25994900000001</ele>
        <time>2017-06-11T10:24:22Z</time>
      </trkpt>
      <trkpt lat="42.05137588083744" lon="12.832237025722861">
        <ele>990.78002900000001</ele>
        <time>2017-06-11T10:24:26Z</time>
      </trkpt>
      <trkpt lat="42.05146380700171" lon="12.832288239151239">
        <ele>990.78002900000001</ele>
        <time>2017-06-11T10:24:38Z</time>
      </trkpt>
      <trkpt lat="42.051533460617065" lon="12.832352612167597">
        <ele>990.78002900000001</ele>
        <time>2017-06-11T10:24:50Z</time>
      </trkpt>
      <trkpt lat="42.051653740927577" lon="12.832427462562919">
        <ele>991.25994900000001</ele>
        <time>2017-06-11T10:25:06Z</time>
      </trkpt>
      <trkpt lat="42.051744684576988" lon="12.832484459504485">
        <ele>991.25994900000001</ele>
        <time>2017-06-11T10:25:17Z</time>
      </trkpt>
      <trkpt lat="42.051877370104194" lon="12.832584539428353">
        <ele>991.74005099999999</ele>
        <time>2017-06-11T10:25:30Z</time>
      </trkpt>
      <trkpt lat="42.051946185529232" lon="12.832618234679103">
        <ele>991.74005099999999</ele>
        <time>2017-06-11T10:25:41Z</time>
      </trkpt>
      <trkpt lat="42.052077613770962" lon="12.832661904394627">
        <ele>992.69995100000006</ele>
        <time>2017-06-11T10:25:53Z</time>
      </trkpt>
      <trkpt lat="42.052193703129888" lon="12.832641871646047">
        <ele>993.65997300000004</ele>
        <time>2017-06-11T10:26:07Z</time>
      </trkpt>
      <trkpt lat="42.052323706448078" lon="12.832498038187623">
        <ele>994.14001499999995</ele>
        <time>2017-06-11T10:26:22Z</time>
      </trkpt>
      <trkpt lat="42.05237072892487" lon="12.832426289096475">
        <ele>994.61999500000002</ele>
        <time>2017-06-11T10:26:30Z</time>
      </trkpt>
      <trkpt lat="42.052486566826701" lon="12.832208108156919">
        <ele>995.580017</ele>
        <time>2017-06-11T10:26:46Z</time>
      </trkpt>
      <trkpt lat="42.052509617060423" lon="12.83218028023839">
        <ele>996.05999799999995</ele>
        <time>2017-06-11T10:26:48Z</time>
      </trkpt>
      <trkpt lat="42.052637608721852" lon="12.832105094566941">
        <ele>997.51000999999997</ele>
        <time>2017-06-11T10:27:03Z</time>
      </trkpt>
      <trkpt lat="42.052657892927527" lon="12.832092605531216">
        <ele>997.51000999999997</ele>
        <time>2017-06-11T10:27:05Z</time>
      </trkpt>
      <trkpt lat="42.052764762192965" lon="12.832085229456425">
        <ele>998.47003199999995</ele>
        <time>2017-06-11T10:27:16Z</time>
      </trkpt>
      <trkpt lat="42.052920833230019" lon="12.831977689638734">
        <ele>999.910034</ele>
        <time>2017-06-11T10:27:30Z</time>
      </trkpt>
      <trkpt lat="42.052961736917496" lon="12.831944162026048">
        <ele>1000.870056</ele>
        <time>2017-06-11T10:27:35Z</time>
      </trkpt>
      <trkpt lat="42.053038263693452" lon="12.831857241690159">
        <ele>1001.349976</ele>
        <time>2017-06-11T10:27:43Z</time>
      </trkpt>
      <trkpt lat="42.053138762712479" lon="12.83169312402606">
        <ele>1002.309998</ele>
        <time>2017-06-11T10:27:56Z</time>
      </trkpt>
      <trkpt lat="42.053196933120489" lon="12.831592876464128">
        <ele>1003.27002</ele>
        <time>2017-06-11T10:28:05Z</time>
      </trkpt>
      <trkpt lat="42.05322727560997" lon="12.831526072695851">
        <ele>1004.22998</ele>
        <time>2017-06-11T10:28:11Z</time>
      </trkpt>
      <trkpt lat="42.053300198167562" lon="12.831454994156957">
        <ele>1004.719971</ele>
        <time>2017-06-11T10:28:22Z</time>
      </trkpt>
      <trkpt lat="42.053390135988593" lon="12.831364301964641">
        <ele>1006.6400149999999</ele>
        <time>2017-06-11T10:28:36Z</time>
      </trkpt>
      <trkpt lat="42.053473116829991" lon="12.831302024424076">
        <ele>1007.119995</ele>
        <time>2017-06-11T10:28:48Z</time>
      </trkpt>
      <trkpt lat="42.053569005802274" lon="12.831186437979341">
        <ele>1008.080017</ele>
        <time>2017-06-11T10:28:58Z</time>
      </trkpt>
      <trkpt lat="42.053631618618965" lon="12.831118041649461">
        <ele>1008.559998</ele>
        <time>2017-06-11T10:29:05Z</time>
      </trkpt>
      <trkpt lat="42.053735302761197" lon="12.831006562337279">
        <ele>1009.52002</ele>
        <time>2017-06-11T10:29:18Z</time>
      </trkpt>
      <trkpt lat="42.053789114579558" lon="12.83098116517067">
        <ele>1010.959961</ele>
        <time>2017-06-11T10:29:31Z</time>
      </trkpt>
      <trkpt lat="42.053815769031644" lon="12.830984434112906">
        <ele>1010.959961</ele>
        <time>2017-06-11T10:29:33Z</time>
      </trkpt>
      <trkpt lat="42.053946359083056" lon="12.830938585102558">
        <ele>1011.929993</ele>
        <time>2017-06-11T10:29:44Z</time>
      </trkpt>
      <trkpt lat="42.05404669046402" lon="12.830841103568673">
        <ele>1012.8900149999999</ele>
        <time>2017-06-11T10:29:54Z</time>
      </trkpt>
      <trkpt lat="42.054182393476367" lon="12.830685619264841">
        <ele>1014.329956</ele>
        <time>2017-06-11T10:30:08Z</time>
      </trkpt>
      <trkpt lat="42.054293118417263" lon="12.830586209893227">
        <ele>1016.25</ele>
        <time>2017-06-11T10:30:22Z</time>
      </trkpt>
      <trkpt lat="42.054301416501403" lon="12.830579001456499">
        <ele>1016.25</ele>
        <time>2017-06-11T10:30:23Z</time>
      </trkpt>
      <trkpt lat="42.054417422041297" lon="12.830524938181043">
        <ele>1017.690002</ele>
        <time>2017-06-11T10:30:36Z</time>
      </trkpt>
      <trkpt lat="42.05455781891942" lon="12.830390240997076">
        <ele>1018.169983</ele>
        <time>2017-06-11T10:30:49Z</time>
      </trkpt>
      <trkpt lat="42.054603081196547" lon="12.830327795818448">
        <ele>1018.650024</ele>
        <time>2017-06-11T10:30:55Z</time>
      </trkpt>
      <trkpt lat="42.054670304059982" lon="12.830292591825128">
        <ele>1018.650024</ele>
        <time>2017-06-11T10:31:01Z</time>
      </trkpt>
      <trkpt lat="42.054743058979511" lon="12.830274570733309">
        <ele>1019.130005</ele>
        <time>2017-06-11T10:31:07Z</time>
      </trkpt>
      <trkpt lat="42.054907428100705" lon="12.83024531789124">
        <ele>1020.099976</ele>
        <time>2017-06-11T10:31:21Z</time>
      </trkpt>
      <trkpt lat="42.054928382858634" lon="12.830242635682225">
        <ele>1020.099976</ele>
        <time>2017-06-11T10:31:23Z</time>
      </trkpt>
      <trkpt lat="42.05509283579886" lon="12.830241965129972">
        <ele>1020.580017</ele>
        <time>2017-06-11T10:31:36Z</time>
      </trkpt>
      <trkpt lat="42.055201129987836" lon="12.830255459994078">
        <ele>1021.059998</ele>
        <time>2017-06-11T10:31:45Z</time>
      </trkpt>
      <trkpt lat="42.055319231003523" lon="12.830219836905599">
        <ele>1021.540039</ele>
        <time>2017-06-11T10:31:59Z</time>
      </trkpt>
      <trkpt lat="42.055317806079984" lon="12.830217825248837">
        <ele>1021.540039</ele>
        <time>2017-06-11T10:32:00Z</time>
      </trkpt>
      <trkpt lat="42.05536792986095" lon="12.830176837742329">
        <ele>1021.540039</ele>
        <time>2017-06-11T10:32:06Z</time>
      </trkpt>
      <trkpt lat="42.055458035320044" lon="12.830194439738989">
        <ele>1021.540039</ele>
        <time>2017-06-11T10:32:17Z</time>
      </trkpt>
      <trkpt lat="42.055576136335731" lon="12.830081703141332">
        <ele>1021.540039</ele>
        <time>2017-06-11T10:32:30Z</time>
      </trkpt>
      <trkpt lat="42.055630702525377" lon="12.830031160265207">
        <ele>1021.540039</ele>
        <time>2017-06-11T10:32:36Z</time>
      </trkpt>
      <trkpt lat="42.055845279246569" lon="12.82990962266922">
        <ele>1021.540039</ele>
        <time>2017-06-11T10:32:54Z</time>
      </trkpt>
      <trkpt lat="42.056005038321018" lon="12.829825216904283">
        <ele>1021.540039</ele>
        <time>2017-06-11T10:33:08Z</time>
      </trkpt>
      <trkpt lat="42.056178711354733" lon="12.829742319881916">
        <ele>1021.540039</ele>
        <time>2017-06-11T10:33:23Z</time>
      </trkpt>
      <trkpt lat="42.056302763521671" lon="12.829724634066224">
        <ele>1021.540039</ele>
        <time>2017-06-11T10:33:34Z</time>
      </trkpt>
      <trkpt lat="42.056500827893615" lon="12.82964919693768">
        <ele>1021.540039</ele>
        <time>2017-06-11T10:33:51Z</time>
      </trkpt>
      <trkpt lat="42.056659581139684" lon="12.829604772850871">
        <ele>1021.540039</ele>
        <time>2017-06-11T10:34:05Z</time>
      </trkpt>
      <trkpt lat="42.056674584746361" lon="12.829605024307966">
        <ele>1021.540039</ele>
        <time>2017-06-11T10:34:06Z</time>
      </trkpt>
      <trkpt lat="42.0568279735744" lon="12.829556241631508">
        <ele>1022.02002</ele>
        <time>2017-06-11T10:34:19Z</time>
      </trkpt>
      <trkpt lat="42.056866195052862" lon="12.829558001831174">
        <ele>1022.02002</ele>
        <time>2017-06-11T10:34:23Z</time>
      </trkpt>
      <trkpt lat="42.056949092075229" lon="12.829532269388437">
        <ele>1022.980042</ele>
        <time>2017-06-11T10:34:31Z</time>
      </trkpt>
      <trkpt lat="42.057024613022804" lon="12.829559175297618">
        <ele>1022.980042</ele>
        <time>2017-06-11T10:34:37Z</time>
      </trkpt>
      <trkpt lat="42.05710013397038" lon="12.829697309061885">
        <ele>1023.459961</ele>
        <time>2017-06-11T10:34:49Z</time>
      </trkpt>
      <trkpt lat="42.057103905826807" lon="12.8297068644315">
        <ele>1023.459961</ele>
        <time>2017-06-11T10:34:50Z</time>
      </trkpt>
      <trkpt lat="42.057142965495586" lon="12.829822115600109">
        <ele>1024.900024</ele>
        <time>2017-06-11T10:35:02Z</time>
      </trkpt>
      <trkpt lat="42.057170961052179" lon="12.829884896054864">
        <ele>1025.380005</ele>
        <time>2017-06-11T10:35:13Z</time>
      </trkpt>
      <trkpt lat="42.057153526693583" lon="12.829880537465215">
        <ele>1025.380005</ele>
        <time>2017-06-11T10:35:27Z</time>
      </trkpt>
      <trkpt lat="42.057134583592415" lon="12.829876514151692">
        <ele>1025.380005</ele>
        <time>2017-06-11T10:35:40Z</time>
      </trkpt>
      <trkpt lat="42.057118825614452" lon="12.829867713153362">
        <ele>1025.380005</ele>
        <time>2017-06-11T10:35:59Z</time>
      </trkpt>
      <trkpt lat="42.057129386812449" lon="12.829881459474564">
        <ele>1025.8599850000001</ele>
        <time>2017-06-11T10:36:17Z</time>
      </trkpt>
      <trkpt lat="42.0571060013026" lon="12.829875340685248">
        <ele>1025.8599850000001</ele>
        <time>2017-06-11T10:36:39Z</time>
      </trkpt>
      <trkpt lat="42.057105582207441" lon="12.829873161390424">
        <ele>1025.380005</ele>
        <time>2017-06-11T10:36:47Z</time>
      </trkpt>
      <trkpt lat="42.057136595249176" lon="12.829879112541676">
        <ele>1025.380005</ele>
        <time>2017-06-11T10:37:00Z</time>
      </trkpt>
      <trkpt lat="42.057102229446173" lon="12.829877017065883">
        <ele>1025.380005</ele>
        <time>2017-06-11T10:37:19Z</time>
      </trkpt>
      <trkpt lat="42.057091165333986" lon="12.829845082014799">
        <ele>1025.380005</ele>
        <time>2017-06-11T10:37:31Z</time>
      </trkpt>
      <trkpt lat="42.057090662419796" lon="12.829838879406452">
        <ele>1025.380005</ele>
        <time>2017-06-11T10:37:54Z</time>
      </trkpt>
      <trkpt lat="42.057103989645839" lon="12.829865785315633">
        <ele>1025.380005</ele>
        <time>2017-06-11T10:38:18Z</time>
      </trkpt>
      <trkpt lat="42.057106839492917" lon="12.829908784478903">
        <ele>1025.380005</ele>
        <time>2017-06-11T10:38:32Z</time>
      </trkpt>
      <trkpt lat="42.057100385427475" lon="12.82991012558341">
        <ele>1024.900024</ele>
        <time>2017-06-11T10:38:43Z</time>
      </trkpt>
      <trkpt lat="42.057119160890579" lon="12.829915322363377">
        <ele>1024.900024</ele>
        <time>2017-06-11T10:39:08Z</time>
      </trkpt>
      <trkpt lat="42.057149335741997" lon="12.829911299049854">
        <ele>1024.900024</ele>
        <time>2017-06-11T10:39:24Z</time>
      </trkpt>
      <trkpt lat="42.057143216952682" lon="12.829908281564713">
        <ele>1024.900024</ele>
        <time>2017-06-11T10:39:56Z</time>
      </trkpt>
      <trkpt lat="42.057138858363032" lon="12.829909035935998">
        <ele>1024.900024</ele>
        <time>2017-06-11T10:40:16Z</time>
      </trkpt>
      <trkpt lat="42.057126704603434" lon="12.82989009283483">
        <ele>1024.900024</ele>
        <time>2017-06-11T10:40:44Z</time>
      </trkpt>
      <trkpt lat="42.057131817564368" lon="12.829913562163711">
        <ele>1024.900024</ele>
        <time>2017-06-11T10:41:15Z</time>
      </trkpt>
      <trkpt lat="42.057130727916956" lon="12.829902917146683">
        <ele>1024.900024</ele>
        <time>2017-06-11T10:41:31Z</time>
      </trkpt>
      <trkpt lat="42.057143971323967" lon="12.829906940460205">
        <ele>1024.900024</ele>
        <time>2017-06-11T10:41:58Z</time>
      </trkpt>
      <trkpt lat="42.057134499773383" lon="12.829902665689588">
        <ele>1024.900024</ele>
        <time>2017-06-11T10:42:12Z</time>
      </trkpt>
      <trkpt lat="42.057137433439493" lon="12.82990425825119">
        <ele>1024.900024</ele>
        <time>2017-06-11T10:42:13Z</time>
      </trkpt>
      <trkpt lat="42.057246314361691" lon="12.829997716471553">
        <ele>1024.900024</ele>
        <time>2017-06-11T10:42:24Z</time>
      </trkpt>
      <trkpt lat="42.057304820045829" lon="12.830034764483571">
        <ele>1026.3400879999999</ele>
        <time>2017-06-11T10:42:31Z</time>
      </trkpt>
      <trkpt lat="42.057313285768032" lon="12.830032920464873">
        <ele>1026.3400879999999</ele>
        <time>2017-06-11T10:42:38Z</time>
      </trkpt>
      <trkpt lat="42.057336336001754" lon="12.830039793625474">
        <ele>1026.3400879999999</ele>
        <time>2017-06-11T10:42:41Z</time>
      </trkpt>
      <trkpt lat="42.057366259396076" lon="12.830041889101267">
        <ele>1026.829956</ele>
        <time>2017-06-11T10:42:44Z</time>
      </trkpt>
      <trkpt lat="42.057489724829793" lon="12.830136269330978">
        <ele>1026.829956</ele>
        <time>2017-06-11T10:42:57Z</time>
      </trkpt>
      <trkpt lat="42.057551331818104" lon="12.830172562971711">
        <ele>1024.420044</ele>
        <time>2017-06-11T10:43:04Z</time>
      </trkpt>
      <trkpt lat="42.057575639337301" lon="12.830214891582727">
        <ele>1025.8599850000001</ele>
        <time>2017-06-11T10:43:07Z</time>
      </trkpt>
      <trkpt lat="42.057614363729954" lon="12.830299464985728">
        <ele>1026.3400879999999</ele>
        <time>2017-06-11T10:43:17Z</time>
      </trkpt>
      <trkpt lat="42.057686867192388" lon="12.830466935411096">
        <ele>1027.3100589999999</ele>
        <time>2017-06-11T10:43:32Z</time>
      </trkpt>
      <trkpt lat="42.057731039822102" lon="12.830552933737636">
        <ele>1028.2700199999999</ele>
        <time>2017-06-11T10:43:40Z</time>
      </trkpt>
      <trkpt lat="42.05779206007719" lon="12.830634824931622">
        <ele>1028.2700199999999</ele>
        <time>2017-06-11T10:43:51Z</time>
      </trkpt>
      <trkpt lat="42.05781158991158" lon="12.830650163814425">
        <ele>1028.2700199999999</ele>
        <time>2017-06-11T10:43:57Z</time>
      </trkpt>
      <trkpt lat="42.057838663458824" lon="12.830678829923272">
        <ele>1029.2299800000001</ele>
        <time>2017-06-11T10:44:01Z</time>
      </trkpt>
      <trkpt lat="42.057905718684196" lon="12.830943698063493">
        <ele>1029.7100829999999</ele>
        <time>2017-06-11T10:44:19Z</time>
      </trkpt>
      <trkpt lat="42.057947460561991" lon="12.831189371645451">
        <ele>1031.150024</ele>
        <time>2017-06-11T10:44:36Z</time>
      </trkpt>
      <trkpt lat="42.057958021759987" lon="12.831439319998026">
        <ele>1031.150024</ele>
        <time>2017-06-11T10:44:51Z</time>
      </trkpt>
      <trkpt lat="42.057899096980691" lon="12.831642832607031">
        <ele>1032.1099850000001</ele>
        <time>2017-06-11T10:45:07Z</time>
      </trkpt>
      <trkpt lat="42.057897336781025" lon="12.831680132076144">
        <ele>1032.1099850000001</ele>
        <time>2017-06-11T10:45:10Z</time>
      </trkpt>
      <trkpt lat="42.057889876887202" lon="12.831710306927562">
        <ele>1032.1099850000001</ele>
        <time>2017-06-11T10:45:12Z</time>
      </trkpt>
      <trkpt lat="42.057870682328939" lon="12.831921363249421">
        <ele>1032.1099850000001</ele>
        <time>2017-06-11T10:45:27Z</time>
      </trkpt>
      <trkpt lat="42.057841429486871" lon="12.832010798156261">
        <ele>1033.0699460000001</ele>
        <time>2017-06-11T10:45:38Z</time>
      </trkpt>
      <trkpt lat="42.057869592681527" lon="12.832133676856756">
        <ele>1033.5500489999999</ele>
        <time>2017-06-11T10:45:51Z</time>
      </trkpt>
      <trkpt lat="42.057875208556652" lon="12.832194864749908">
        <ele>1033.5500489999999</ele>
        <time>2017-06-11T10:45:57Z</time>
      </trkpt>
      <trkpt lat="42.057884680107236" lon="12.83222277648747">
        <ele>1032.589966</ele>
        <time>2017-06-11T10:45:59Z</time>
      </trkpt>
      <trkpt lat="42.057913597673178" lon="12.832319419831038">
        <ele>1034.5200199999999</ele>
        <time>2017-06-11T10:46:07Z</time>
      </trkpt>
      <trkpt lat="42.057914100587368" lon="12.832404160872102">
        <ele>1035</ele>
        <time>2017-06-11T10:46:20Z</time>
      </trkpt>
      <trkpt lat="42.057897672057152" lon="12.832530559971929">
        <ele>1035</ele>
        <time>2017-06-11T10:46:36Z</time>
      </trkpt>
      <trkpt lat="42.057902282103896" lon="12.832727115601301">
        <ele>1036.440063</ele>
        <time>2017-06-11T10:46:56Z</time>
      </trkpt>
      <trkpt lat="42.057889541611075" lon="12.832866674289107">
        <ele>1037.400024</ele>
        <time>2017-06-11T10:47:12Z</time>
      </trkpt>
      <trkpt lat="42.057843776419759" lon="12.833025259897113">
        <ele>1038.8400879999999</ele>
        <time>2017-06-11T10:47:32Z</time>
      </trkpt>
      <trkpt lat="42.057829024270177" lon="12.833179989829659">
        <ele>1039.799927</ele>
        <time>2017-06-11T10:47:49Z</time>
      </trkpt>
      <trkpt lat="42.057825336232781" lon="12.833363972604275">
        <ele>1041.25</ele>
        <time>2017-06-11T10:48:08Z</time>
      </trkpt>
      <trkpt lat="42.057837322354317" lon="12.833443433046341">
        <ele>1042.209961</ele>
        <time>2017-06-11T10:48:15Z</time>
      </trkpt>
      <trkpt lat="42.057869508862495" lon="12.833614088594913">
        <ele>1043.169922</ele>
        <time>2017-06-11T10:48:29Z</time>
      </trkpt>
      <trkpt lat="42.057837238535285" lon="12.83374342136085">
        <ele>1044.6099850000001</ele>
        <time>2017-06-11T10:48:43Z</time>
      </trkpt>
      <trkpt lat="42.057822737842798" lon="12.833848614245653">
        <ele>1045.089966</ele>
        <time>2017-06-11T10:48:57Z</time>
      </trkpt>
      <trkpt lat="42.057795077562332" lon="12.83393201418221">
        <ele>1047.48999</ele>
        <time>2017-06-11T10:49:11Z</time>
      </trkpt>
      <trkpt lat="42.057785103097558" lon="12.834024718031287">
        <ele>1047.48999</ele>
        <time>2017-06-11T10:49:30Z</time>
      </trkpt>
      <trkpt lat="42.057798514142632" lon="12.834164863452315">
        <ele>1047.969971</ele>
        <time>2017-06-11T10:49:41Z</time>
      </trkpt>
      <trkpt lat="42.0577949937433" lon="12.834303835406899">
        <ele>1049.420044</ele>
        <time>2017-06-11T10:49:54Z</time>
      </trkpt>
      <trkpt lat="42.057731207460165" lon="12.834444735199213">
        <ele>1051.8199460000001</ele>
        <time>2017-06-11T10:50:10Z</time>
      </trkpt>
      <trkpt lat="42.057685693725944" lon="12.834591837599874">
        <ele>1053.73999</ele>
        <time>2017-06-11T10:50:25Z</time>
      </trkpt>
      <trkpt lat="42.057680916041136" lon="12.834736760705709">
        <ele>1056.150024</ele>
        <time>2017-06-11T10:50:38Z</time>
      </trkpt>
      <trkpt lat="42.057660799473524" lon="12.834871038794518">
        <ele>1057.589966</ele>
        <time>2017-06-11T10:50:51Z</time>
      </trkpt>
      <trkpt lat="42.057644035667181" lon="12.834980003535748">
        <ele>1058.5500489999999</ele>
        <time>2017-06-11T10:51:04Z</time>
      </trkpt>
      <trkpt lat="42.057641437277198" lon="12.835067929700017">
        <ele>1059.030029</ele>
        <time>2017-06-11T10:51:14Z</time>
      </trkpt>
      <trkpt lat="42.057595420628786" lon="12.835212014615536">
        <ele>1059.98999</ele>
        <time>2017-06-11T10:51:28Z</time>
      </trkpt>
      <trkpt lat="42.057594666257501" lon="12.83534268848598">
        <ele>1061.429932</ele>
        <time>2017-06-11T10:51:42Z</time>
      </trkpt>
      <trkpt lat="42.057638503611088" lon="12.83546531572938">
        <ele>1062.869995</ele>
        <time>2017-06-11T10:51:55Z</time>
      </trkpt>
      <trkpt lat="42.057684017345309" lon="12.835511835291982">
        <ele>1064.3199460000001</ele>
        <time>2017-06-11T10:52:10Z</time>
      </trkpt>
      <trkpt lat="42.057711174711585" lon="12.835549470037222">
        <ele>1065.280029</ele>
        <time>2017-06-11T10:52:23Z</time>
      </trkpt>
      <trkpt lat="42.057745875790715" lon="12.835632534697652">
        <ele>1067.1999510000001</ele>
        <time>2017-06-11T10:52:37Z</time>
      </trkpt>
      <trkpt lat="42.057786863297224" lon="12.835708558559418">
        <ele>1068.6400149999999</ele>
        <time>2017-06-11T10:52:54Z</time>
      </trkpt>
      <trkpt lat="42.057853499427438" lon="12.835726160556078">
        <ele>1069.119995</ele>
        <time>2017-06-11T10:53:06Z</time>
      </trkpt>
      <trkpt lat="42.057855930179358" lon="12.835782319307327">
        <ele>1070.5699460000001</ele>
        <time>2017-06-11T10:53:22Z</time>
      </trkpt>
      <trkpt lat="42.057826761156321" lon="12.835845099762082">
        <ele>1072.01001</ele>
        <time>2017-06-11T10:53:36Z</time>
      </trkpt>
      <trkpt lat="42.057773536071181" lon="12.835905784741044">
        <ele>1073.929932</ele>
        <time>2017-06-11T10:53:50Z</time>
      </trkpt>
      <trkpt lat="42.057756939902902" lon="12.835973426699638">
        <ele>1075.849976</ele>
        <time>2017-06-11T10:54:06Z</time>
      </trkpt>
      <trkpt lat="42.057738834992051" lon="12.836068393662572">
        <ele>1078.26001</ele>
        <time>2017-06-11T10:54:20Z</time>
      </trkpt>
      <trkpt lat="42.057765824720263" lon="12.836207533255219">
        <ele>1079.6999510000001</ele>
        <time>2017-06-11T10:54:36Z</time>
      </trkpt>
      <trkpt lat="42.05783748999238" lon="12.836316665634513">
        <ele>1076.8100589999999</ele>
        <time>2017-06-11T10:54:50Z</time>
      </trkpt>
      <trkpt lat="42.057851403951645" lon="12.836372489109635">
        <ele>1075.849976</ele>
        <time>2017-06-11T10:55:03Z</time>
      </trkpt>
      <trkpt lat="42.057872610166669" lon="12.836455637589097">
        <ele>1073.450073</ele>
        <time>2017-06-11T10:55:17Z</time>
      </trkpt>
      <trkpt lat="42.057956010103226" lon="12.836544066667557">
        <ele>1070.5699460000001</ele>
        <time>2017-06-11T10:55:32Z</time>
      </trkpt>
      <trkpt lat="42.057969672605395" lon="12.836683373898268">
        <ele>1068.6400149999999</ele>
        <time>2017-06-11T10:55:47Z</time>
      </trkpt>
      <trkpt lat="42.057947209104896" lon="12.83673333004117">
        <ele>1068.6400149999999</ele>
        <time>2017-06-11T10:56:00Z</time>
      </trkpt>
      <trkpt lat="42.058013929054141" lon="12.836800217628479">
        <ele>1070.080078</ele>
        <time>2017-06-11T10:56:15Z</time>
      </trkpt>
      <trkpt lat="42.058111159130931" lon="12.836913373321295">
        <ele>1072.01001</ele>
        <time>2017-06-11T10:56:29Z</time>
      </trkpt>
      <trkpt lat="42.058212328702211" lon="12.836951594799757">
        <ele>1073.450073</ele>
        <time>2017-06-11T10:56:44Z</time>
      </trkpt>
      <trkpt lat="42.05831341445446" lon="12.836996437981725">
        <ele>1072.969971</ele>
        <time>2017-06-11T10:56:58Z</time>
      </trkpt>
      <trkpt lat="42.058379799127579" lon="12.837080424651504">
        <ele>1070.080078</ele>
        <time>2017-06-11T10:57:13Z</time>
      </trkpt>
      <trkpt lat="42.058457667008042" lon="12.837138678878546">
        <ele>1068.6400149999999</ele>
        <time>2017-06-11T10:57:26Z</time>
      </trkpt>
      <trkpt lat="42.058527488261461" lon="12.837209841236472">
        <ele>1067.1999510000001</ele>
        <time>2017-06-11T10:57:38Z</time>
      </trkpt>
      <trkpt lat="42.058592699468136" lon="12.837328277528286">
        <ele>1067.1999510000001</ele>
        <time>2017-06-11T10:57:51Z</time>
      </trkpt>
      <trkpt lat="42.058602590113878" lon="12.837475631386042">
        <ele>1068.6400149999999</ele>
        <time>2017-06-11T10:58:05Z</time>
      </trkpt>
      <trkpt lat="42.058591861277819" lon="12.837492981925607">
        <ele>1068.6400149999999</ele>
        <time>2017-06-11T10:58:07Z</time>
      </trkpt>
      <trkpt lat="42.058569565415382" lon="12.837590128183365">
        <ele>1067.1999510000001</ele>
        <time>2017-06-11T10:58:18Z</time>
      </trkpt>
      <trkpt lat="42.05857333727181" lon="12.837679060176015">
        <ele>1066.719971</ele>
        <time>2017-06-11T10:58:31Z</time>
      </trkpt>
      <trkpt lat="42.058586161583662" lon="12.837732536718249">
        <ele>1063.8400879999999</ele>
        <time>2017-06-11T10:58:49Z</time>
      </trkpt>
      <trkpt lat="42.058657072484493" lon="12.837838735431433">
        <ele>1062.3900149999999</ele>
        <time>2017-06-11T10:59:04Z</time>
      </trkpt>
      <trkpt lat="42.058734269812703" lon="12.837955998256803">
        <ele>1059.51001</ele>
        <time>2017-06-11T10:59:18Z</time>
      </trkpt>
      <trkpt lat="42.058777688071132" lon="12.838017186149955">
        <ele>1058.5500489999999</ele>
        <time>2017-06-11T10:59:26Z</time>
      </trkpt>
      <trkpt lat="42.058824626728892" lon="12.838148111477494">
        <ele>1056.630005</ele>
        <time>2017-06-11T10:59:40Z</time>
      </trkpt>
      <trkpt lat="42.058836529031396" lon="12.838186165317893">
        <ele>1056.150024</ele>
        <time>2017-06-11T10:59:43Z</time>
      </trkpt>
      <trkpt lat="42.058876510709524" lon="12.838337374851108">
        <ele>1054.219971</ele>
        <time>2017-06-11T10:59:58Z</time>
      </trkpt>
      <trkpt lat="42.058862596750259" lon="12.838394790887833">
        <ele>1053.26001</ele>
        <time>2017-06-11T11:00:12Z</time>
      </trkpt>
      <trkpt lat="42.058838037773967" lon="12.838398227468133">
        <ele>1053.26001</ele>
        <time>2017-06-11T11:00:30Z</time>
      </trkpt>
      <trkpt lat="42.058787662535906" lon="12.838639207184315">
        <ele>1050.380005</ele>
        <time>2017-06-11T11:00:48Z</time>
      </trkpt>
      <trkpt lat="42.058759499341249" lon="12.838749764487147">
        <ele>1047.48999</ele>
        <time>2017-06-11T11:01:03Z</time>
      </trkpt>
      <trkpt lat="42.05873703584075" lon="12.838868536055088">
        <ele>1044.6099850000001</ele>
        <time>2017-06-11T11:01:20Z</time>
      </trkpt>
      <trkpt lat="42.058721864596009" lon="12.838995773345232">
        <ele>1041.25</ele>
        <time>2017-06-11T11:01:35Z</time>
      </trkpt>
      <trkpt lat="42.058707196265459" lon="12.839140361174941">
        <ele>1038.3599850000001</ele>
        <time>2017-06-11T11:01:52Z</time>
      </trkpt>
      <trkpt lat="42.05870920792222" lon="12.839338928461075">
        <ele>1035.959961</ele>
        <time>2017-06-11T11:02:08Z</time>
      </trkpt>
      <trkpt lat="42.058742735534906" lon="12.839432470500469">
        <ele>1034.5200199999999</ele>
        <time>2017-06-11T11:02:19Z</time>
      </trkpt>
      <trkpt lat="42.058771317824721" lon="12.839506734162569">
        <ele>1034.040039</ele>
        <time>2017-06-11T11:02:34Z</time>
      </trkpt>
      <trkpt lat="42.058779029175639" lon="12.839485192671418">
        <ele>1034.040039</ele>
        <time>2017-06-11T11:02:59Z</time>
      </trkpt>
      <trkpt lat="42.058774586766958" lon="12.839487539604306">
        <ele>1034.040039</ele>
        <time>2017-06-11T11:03:18Z</time>
      </trkpt>
      <trkpt lat="42.058753380551934" lon="12.839499525725842">
        <ele>1034.040039</ele>
        <time>2017-06-11T11:03:38Z</time>
      </trkpt>
      <trkpt lat="42.058735610917211" lon="12.839565072208643">
        <ele>1033.5500489999999</ele>
        <time>2017-06-11T11:03:55Z</time>
      </trkpt>
      <trkpt lat="42.058741562068462" lon="12.839610502123833">
        <ele>1033.5500489999999</ele>
        <time>2017-06-11T11:03:59Z</time>
      </trkpt>
      <trkpt lat="42.058734688907862" lon="12.839733380824327">
        <ele>1033.5500489999999</ele>
        <time>2017-06-11T11:04:11Z</time>
      </trkpt>
      <trkpt lat="42.058735024183989" lon="12.839755928143859">
        <ele>1033.5500489999999</ele>
        <time>2017-06-11T11:04:13Z</time>
      </trkpt>
      <trkpt lat="42.058670064434409" lon="12.839968409389257">
        <ele>1033.5500489999999</ele>
        <time>2017-06-11T11:04:28Z</time>
      </trkpt>
      <trkpt lat="42.058644499629736" lon="12.840020293369889">
        <ele>1033.5500489999999</ele>
        <time>2017-06-11T11:04:32Z</time>
      </trkpt>
      <trkpt lat="42.058627735823393" lon="12.840153314173222">
        <ele>1033.5500489999999</ele>
        <time>2017-06-11T11:04:43Z</time>
      </trkpt>
      <trkpt lat="42.058598231524229" lon="12.840360766276717">
        <ele>1033.5500489999999</ele>
        <time>2017-06-11T11:04:58Z</time>
      </trkpt>
      <trkpt lat="42.058585491031408" lon="12.840405693277717">
        <ele>1033.5500489999999</ele>
        <time>2017-06-11T11:05:01Z</time>
      </trkpt>
      <trkpt lat="42.058570068329573" lon="12.840446177870035">
        <ele>1033.5500489999999</ele>
        <time>2017-06-11T11:05:04Z</time>
      </trkpt>
      <trkpt lat="42.058498989790678" lon="12.840667879208922">
        <ele>1033.5500489999999</ele>
        <time>2017-06-11T11:05:19Z</time>
      </trkpt>
      <trkpt lat="42.058408129960299" lon="12.840899638831615">
        <ele>1033.0699460000001</ele>
        <time>2017-06-11T11:05:35Z</time>
      </trkpt>
      <trkpt lat="42.058390360325575" lon="12.84106157720089">
        <ele>1032.589966</ele>
        <time>2017-06-11T11:05:47Z</time>
      </trkpt>
      <trkpt lat="42.058392791077495" lon="12.841081861406565">
        <ele>1032.589966</ele>
        <time>2017-06-11T11:05:49Z</time>
      </trkpt>
      <trkpt lat="42.058385163545609" lon="12.841247739270329">
        <ele>1031.630005</ele>
        <time>2017-06-11T11:06:03Z</time>
      </trkpt>
      <trkpt lat="42.058373680338264" lon="12.841402133926749">
        <ele>1031.150024</ele>
        <time>2017-06-11T11:06:10Z</time>
      </trkpt>
      <trkpt lat="42.058417769148946" lon="12.841671528294683">
        <ele>1031.150024</ele>
        <time>2017-06-11T11:06:26Z</time>
      </trkpt>
      <trkpt lat="42.058425396680832" lon="12.841890212148428">
        <ele>1031.150024</ele>
        <time>2017-06-11T11:06:40Z</time>
      </trkpt>
      <trkpt lat="42.058413410559297" lon="12.842050977051258">
        <ele>1030.669922</ele>
        <time>2017-06-11T11:06:54Z</time>
      </trkpt>
      <trkpt lat="42.058421038091183" lon="12.842131275683641">
        <ele>1030.669922</ele>
        <time>2017-06-11T11:07:01Z</time>
      </trkpt>
      <trkpt lat="42.058418858796358" lon="12.842164803296328">
        <ele>1030.669922</ele>
        <time>2017-06-11T11:07:03Z</time>
      </trkpt>
      <trkpt lat="42.05839010886848" lon="12.84238331951201">
        <ele>1032.589966</ele>
        <time>2017-06-11T11:07:17Z</time>
      </trkpt>
      <trkpt lat="42.058392958715558" lon="12.842396982014179">
        <ele>1032.589966</ele>
        <time>2017-06-11T11:07:18Z</time>
      </trkpt>
      <trkpt lat="42.058498235419393" lon="12.842709291726351">
        <ele>1032.589966</ele>
        <time>2017-06-11T11:07:33Z</time>
      </trkpt>
      <trkpt lat="42.05852597951889" lon="12.842896962538362">
        <ele>1031.150024</ele>
        <time>2017-06-11T11:07:46Z</time>
      </trkpt>
      <trkpt lat="42.0585548132658" lon="12.84300341270864">
        <ele>1032.1099850000001</ele>
        <time>2017-06-11T11:07:54Z</time>
      </trkpt>
      <trkpt lat="42.058566128835082" lon="12.843027384951711">
        <ele>1032.1099850000001</ele>
        <time>2017-06-11T11:07:55Z</time>
      </trkpt>
      <trkpt lat="42.058573504909873" lon="12.843042472377419">
        <ele>1032.1099850000001</ele>
        <time>2017-06-11T11:07:56Z</time>
      </trkpt>
      <trkpt lat="42.058622790500522" lon="12.843158058822155">
        <ele>1030.1899410000001</ele>
        <time>2017-06-11T11:08:04Z</time>
      </trkpt>
      <trkpt lat="42.058620192110538" lon="12.843173062428832">
        <ele>1030.1899410000001</ele>
        <time>2017-06-11T11:08:05Z</time>
      </trkpt>
      <trkpt lat="42.058646259829402" lon="12.843349585309625">
        <ele>1029.7100829999999</ele>
        <time>2017-06-11T11:08:16Z</time>
      </trkpt>
      <trkpt lat="42.058644415810704" lon="12.843437260016799">
        <ele>1029.7100829999999</ele>
        <time>2017-06-11T11:08:21Z</time>
      </trkpt>
      <trkpt lat="42.058640979230404" lon="12.84345586784184">
        <ele>1029.7100829999999</ele>
        <time>2017-06-11T11:08:22Z</time>
      </trkpt>
      <trkpt lat="42.058624885976315" lon="12.843551505357027">
        <ele>1029.2299800000001</ele>
        <time>2017-06-11T11:08:27Z</time>
      </trkpt>
      <trkpt lat="42.058629831299186" lon="12.84357413649559">
        <ele>1029.2299800000001</ele>
        <time>2017-06-11T11:08:28Z</time>
      </trkpt>
      <trkpt lat="42.05863100476563" lon="12.843601712957025">
        <ele>1029.2299800000001</ele>
        <time>2017-06-11T11:08:29Z</time>
      </trkpt>
      <trkpt lat="42.058626813814044" lon="12.843616381287575">
        <ele>1029.2299800000001</ele>
        <time>2017-06-11T11:08:30Z</time>
      </trkpt>
      <trkpt lat="42.05862270668149" lon="12.843630965799093">
        <ele>1029.2299800000001</ele>
        <time>2017-06-11T11:08:31Z</time>
      </trkpt>
      <trkpt lat="42.058618934825063" lon="12.843644795939326">
        <ele>1029.2299800000001</ele>
        <time>2017-06-11T11:08:32Z</time>
      </trkpt>
      <trkpt lat="42.058590184897184" lon="12.843906059861183">
        <ele>1030.1899410000001</ele>
        <time>2017-06-11T11:08:48Z</time>
      </trkpt>
      <trkpt lat="42.058563698083162" lon="12.844017287716269">
        <ele>1031.150024</ele>
        <time>2017-06-11T11:08:59Z</time>
      </trkpt>
      <trkpt lat="42.058566715568304" lon="12.84403488971293">
        <ele>1031.150024</ele>
        <time>2017-06-11T11:09:00Z</time>
      </trkpt>
      <trkpt lat="42.058569062501192" lon="12.844080319628119">
        <ele>1031.630005</ele>
        <time>2017-06-11T11:09:03Z</time>
      </trkpt>
      <trkpt lat="42.058566296473145" lon="12.844096664339304">
        <ele>1031.630005</ele>
        <time>2017-06-11T11:09:04Z</time>
      </trkpt>
      <trkpt lat="42.058565625920892" lon="12.844114769250154">
        <ele>1031.630005</ele>
        <time>2017-06-11T11:09:05Z</time>
      </trkpt>
      <trkpt lat="42.05856503918767" lon="12.8441365621984">
        <ele>1031.630005</ele>
        <time>2017-06-11T11:09:06Z</time>
      </trkpt>
      <trkpt lat="42.058564284816384" lon="12.844157433137298">
        <ele>1031.630005</ele>
        <time>2017-06-11T11:09:07Z</time>
      </trkpt>
      <trkpt lat="42.058565877377987" lon="12.84417905844748">
        <ele>1031.630005</ele>
        <time>2017-06-11T11:09:08Z</time>
      </trkpt>
      <trkpt lat="42.058569397777319" lon="12.844201186671853">
        <ele>1031.630005</ele>
        <time>2017-06-11T11:09:09Z</time>
      </trkpt>
      <trkpt lat="42.058574762195349" lon="12.844226416200399">
        <ele>1031.630005</ele>
        <time>2017-06-11T11:09:10Z</time>
      </trkpt>
      <trkpt lat="42.058608122169971" lon="12.844464462250471">
        <ele>1032.589966</ele>
        <time>2017-06-11T11:09:24Z</time>
      </trkpt>
      <trkpt lat="42.058606194332242" lon="12.84451617859304">
        <ele>1032.589966</ele>
        <time>2017-06-11T11:09:27Z</time>
      </trkpt>
      <trkpt lat="42.058612061664462" lon="12.844707369804382">
        <ele>1032.589966</ele>
        <time>2017-06-11T11:09:42Z</time>
      </trkpt>
      <trkpt lat="42.05865983851254" lon="12.844862435013056">
        <ele>1030.1899410000001</ele>
        <time>2017-06-11T11:09:54Z</time>
      </trkpt>
      <trkpt lat="42.058663358911872" lon="12.844957234337926">
        <ele>1029.7100829999999</ele>
        <time>2017-06-11T11:09:58Z</time>
      </trkpt>
      <trkpt lat="42.058668471872807" lon="12.84497500397265">
        <ele>1029.7100829999999</ele>
        <time>2017-06-11T11:09:59Z</time>
      </trkpt>
      <trkpt lat="42.058674925938249" lon="12.844988834112883">
        <ele>1029.7100829999999</ele>
        <time>2017-06-11T11:10:00Z</time>
      </trkpt>
      <trkpt lat="42.058680038899183" lon="12.845001826062799">
        <ele>1029.7100829999999</ele>
        <time>2017-06-11T11:10:01Z</time>
      </trkpt>
      <trkpt lat="42.058682972565293" lon="12.845013309270144">
        <ele>1029.7100829999999</ele>
        <time>2017-06-11T11:10:02Z</time>
      </trkpt>
      <trkpt lat="42.05879126675427" lon="12.845280189067125">
        <ele>1028.75</ele>
        <time>2017-06-11T11:10:21Z</time>
      </trkpt>
      <trkpt lat="42.058850862085819" lon="12.845501387491822">
        <ele>1028.75</ele>
        <time>2017-06-11T11:10:36Z</time>
      </trkpt>
      <trkpt lat="42.058916324749589" lon="12.845622170716524">
        <ele>1028.75</ele>
        <time>2017-06-11T11:10:48Z</time>
      </trkpt>
      <trkpt lat="42.058957060799003" lon="12.845700541511178">
        <ele>1028.75</ele>
        <time>2017-06-11T11:11:00Z</time>
      </trkpt>
      <trkpt lat="42.058940967544913" lon="12.845679419115186">
        <ele>1028.75</ele>
        <time>2017-06-11T11:11:26Z</time>
      </trkpt>
      <trkpt lat="42.058939626440406" lon="12.845690567046404">
        <ele>1028.2700199999999</ele>
        <time>2017-06-11T11:11:58Z</time>
      </trkpt>
      <trkpt lat="42.058951528742909" lon="12.845686124637723">
        <ele>1028.2700199999999</ele>
        <time>2017-06-11T11:12:24Z</time>
      </trkpt>
      <trkpt lat="42.058968041092157" lon="12.845691740512848">
        <ele>1029.2299800000001</ele>
        <time>2017-06-11T11:12:53Z</time>
      </trkpt>
      <trkpt lat="42.058959240093827" lon="12.845706576481462">
        <ele>1029.2299800000001</ele>
        <time>2017-06-11T11:13:04Z</time>
      </trkpt>
      <trkpt lat="42.058964436873794" lon="12.84571336582303">
        <ele>1029.2299800000001</ele>
        <time>2017-06-11T11:13:10Z</time>
      </trkpt>
      <trkpt lat="42.058954462409019" lon="12.845696434378624">
        <ele>1029.7100829999999</ele>
        <time>2017-06-11T11:13:25Z</time>
      </trkpt>
      <trkpt lat="42.05896426923573" lon="12.845693584531546">
        <ele>1029.7100829999999</ele>
        <time>2017-06-11T11:13:45Z</time>
      </trkpt>
      <trkpt lat="42.058952618390322" lon="12.845690064132214">
        <ele>1029.7100829999999</ele>
        <time>2017-06-11T11:14:19Z</time>
      </trkpt>
      <trkpt lat="42.058948427438736" lon="12.845680424943566">
        <ele>1029.7100829999999</ele>
        <time>2017-06-11T11:14:48Z</time>
      </trkpt>
      <trkpt lat="42.058951528742909" lon="12.845702469348907">
        <ele>1029.7100829999999</ele>
        <time>2017-06-11T11:15:23Z</time>
      </trkpt>
      <trkpt lat="42.05896619707346" lon="12.84572166390717">
        <ele>1030.1899410000001</ele>
        <time>2017-06-11T11:15:36Z</time>
      </trkpt>
      <trkpt lat="42.058981787413359" lon="12.845729794353247">
        <ele>1030.1899410000001</ele>
        <time>2017-06-11T11:16:10Z</time>
      </trkpt>
      <trkpt lat="42.058970220386982" lon="12.845726860687137">
        <ele>1030.1899410000001</ele>
        <time>2017-06-11T11:16:46Z</time>
      </trkpt>
      <trkpt lat="42.058922108262777" lon="12.845724681392312">
        <ele>1030.1899410000001</ele>
        <time>2017-06-11T11:17:22Z</time>
      </trkpt>
      <trkpt lat="42.058937698602676" lon="12.845746139064431">
        <ele>1030.1899410000001</ele>
        <time>2017-06-11T11:17:46Z</time>
      </trkpt>
      <trkpt lat="42.058935016393661" lon="12.845765082165599">
        <ele>1031.150024</ele>
        <time>2017-06-11T11:18:21Z</time>
      </trkpt>
      <trkpt lat="42.058934178203344" lon="12.845782013610005">
        <ele>1031.150024</ele>
        <time>2017-06-11T11:18:48Z</time>
      </trkpt>
      <trkpt lat="42.058934429660439" lon="12.845713617280126">
        <ele>1031.150024</ele>
        <time>2017-06-11T11:19:19Z</time>
      </trkpt>
      <trkpt lat="42.05898916348815" lon="12.845764998346567">
        <ele>1031.150024</ele>
        <time>2017-06-11T11:19:45Z</time>
      </trkpt>
      <trkpt lat="42.058969382196665" lon="12.845744797959924">
        <ele>1031.150024</ele>
        <time>2017-06-11T11:20:22Z</time>
      </trkpt>
      <trkpt lat="42.058981535956264" lon="12.84575242549181">
        <ele>1031.150024</ele>
        <time>2017-06-11T11:21:02Z</time>
      </trkpt>
      <trkpt lat="42.058976758271456" lon="12.845762064680457">
        <ele>1031.150024</ele>
        <time>2017-06-11T11:21:34Z</time>
      </trkpt>
      <trkpt lat="42.05898379907012" lon="12.845754772424698">
        <ele>1031.150024</ele>
        <time>2017-06-11T11:22:03Z</time>
      </trkpt>
      <trkpt lat="42.058955384418368" lon="12.845737086609006">
        <ele>1031.150024</ele>
        <time>2017-06-11T11:22:39Z</time>
      </trkpt>
      <trkpt lat="42.058976674452424" lon="12.845710013061762">
        <ele>1031.150024</ele>
        <time>2017-06-11T11:23:06Z</time>
      </trkpt>
      <trkpt lat="42.058976506814361" lon="12.845696685835719">
        <ele>1031.150024</ele>
        <time>2017-06-11T11:23:31Z</time>
      </trkpt>
      <trkpt lat="42.058965610340238" lon="12.845700038596988">
        <ele>1031.150024</ele>
        <time>2017-06-11T11:24:07Z</time>
      </trkpt>
      <trkpt lat="42.058949517086148" lon="12.845687968656421">
        <ele>1031.150024</ele>
        <time>2017-06-11T11:24:36Z</time>
      </trkpt>
      <trkpt lat="42.058979021385312" lon="12.84570406191051">
        <ele>1031.150024</ele>
        <time>2017-06-11T11:24:53Z</time>
      </trkpt>
      <trkpt lat="42.058974327519536" lon="12.845712527632713">
        <ele>1031.150024</ele>
        <time>2017-06-11T11:25:32Z</time>
      </trkpt>
      <trkpt lat="42.058972483500838" lon="12.845684196799994">
        <ele>1031.150024</ele>
        <time>2017-06-11T11:26:05Z</time>
      </trkpt>
      <trkpt lat="42.058974159881473" lon="12.845685370266438">
        <ele>1031.150024</ele>
        <time>2017-06-11T11:26:34Z</time>
      </trkpt>
      <trkpt lat="42.058961167931557" lon="12.845698529854417">
        <ele>1031.630005</ele>
        <time>2017-06-11T11:26:54Z</time>
      </trkpt>
      <trkpt lat="42.058943398296833" lon="12.845697859302163">
        <ele>1031.630005</ele>
        <time>2017-06-11T11:27:21Z</time>
      </trkpt>
      <trkpt lat="42.058943985030055" lon="12.845721328631043">
        <ele>1031.630005</ele>
        <time>2017-06-11T11:27:51Z</time>
      </trkpt>
      <trkpt lat="42.058948259800673" lon="12.845709174871445">
        <ele>1031.630005</ele>
        <time>2017-06-11T11:28:08Z</time>
      </trkpt>
      <trkpt lat="42.058962928131223" lon="12.84572116099298">
        <ele>1030.1899410000001</ele>
        <time>2017-06-11T11:28:31Z</time>
      </trkpt>
      <trkpt lat="42.058971393853426" lon="12.845709258690476">
        <ele>1031.630005</ele>
        <time>2017-06-11T11:28:51Z</time>
      </trkpt>
      <trkpt lat="42.058980194851756" lon="12.845728201791644">
        <ele>1031.630005</ele>
        <time>2017-06-11T11:29:17Z</time>
      </trkpt>
      <trkpt lat="42.058985978364944" lon="12.845728369429708">
        <ele>1031.630005</ele>
        <time>2017-06-11T11:29:47Z</time>
      </trkpt>
      <trkpt lat="42.058991175144911" lon="12.8457304649055">
        <ele>1030.1899410000001</ele>
        <time>2017-06-11T11:29:50Z</time>
      </trkpt>
      <trkpt lat="42.058987487107515" lon="12.845725603401661">
        <ele>1030.1899410000001</ele>
        <time>2017-06-11T11:30:16Z</time>
      </trkpt>
      <trkpt lat="42.058979775756598" lon="12.8457235917449">
        <ele>1030.669922</ele>
        <time>2017-06-11T11:30:37Z</time>
      </trkpt>
      <trkpt lat="42.058962760493159" lon="12.845697188749909">
        <ele>1030.669922</ele>
        <time>2017-06-11T11:30:59Z</time>
      </trkpt>
      <trkpt lat="42.058976506814361" lon="12.84570892341435">
        <ele>1030.669922</ele>
        <time>2017-06-11T11:31:32Z</time>
      </trkpt>
      <trkpt lat="42.058966364711523" lon="12.845715712755919">
        <ele>1030.669922</ele>
        <time>2017-06-11T11:32:18Z</time>
      </trkpt>
      <trkpt lat="42.05897550098598" lon="12.845711689442396">
        <ele>1030.669922</ele>
        <time>2017-06-11T11:32:50Z</time>
      </trkpt>
      <trkpt lat="42.058966364711523" lon="12.845703978091478">
        <ele>1030.669922</ele>
        <time>2017-06-11T11:33:28Z</time>
      </trkpt>
      <trkpt lat="42.058929400518537" lon="12.845660476014018">
        <ele>1030.669922</ele>
        <time>2017-06-11T11:33:44Z</time>
      </trkpt>
      <trkpt lat="42.058903332799673" lon="12.845600293949246">
        <ele>1030.669922</ele>
        <time>2017-06-11T11:33:57Z</time>
      </trkpt>
      <trkpt lat="42.058879276737571" lon="12.845579758286476">
        <ele>1030.1899410000001</ele>
        <time>2017-06-11T11:34:31Z</time>
      </trkpt>
      <trkpt lat="42.05885136500001" lon="12.845623595640063">
        <ele>1030.1899410000001</ele>
        <time>2017-06-11T11:35:14Z</time>
      </trkpt>
      <trkpt lat="42.058871984481812" lon="12.845634827390313">
        <ele>1030.1899410000001</ele>
        <time>2017-06-11T11:35:17Z</time>
      </trkpt>
      <trkpt lat="42.058881958946586" lon="12.845645640045404">
        <ele>1030.1899410000001</ele>
        <time>2017-06-11T11:35:18Z</time>
      </trkpt>
      <trkpt lat="42.058892603963614" lon="12.845656117424369">
        <ele>1030.1899410000001</ele>
        <time>2017-06-11T11:35:19Z</time>
      </trkpt>
      <trkpt lat="42.058902410790324" lon="12.845667935907841">
        <ele>1030.1899410000001</ele>
        <time>2017-06-11T11:35:20Z</time>
      </trkpt>
      <trkpt lat="42.058922694995999" lon="12.845680508762598">
        <ele>1030.1899410000001</ele>
        <time>2017-06-11T11:35:23Z</time>
      </trkpt>
      <trkpt lat="42.05893007107079" lon="12.845691572874784">
        <ele>1030.1899410000001</ele>
        <time>2017-06-11T11:35:24Z</time>
      </trkpt>
      <trkpt lat="42.058955384418368" lon="12.845693165436387">
        <ele>1030.1899410000001</ele>
        <time>2017-06-11T11:35:37Z</time>
      </trkpt>
      <trkpt lat="42.058968208730221" lon="12.845700709149241">
        <ele>1030.1899410000001</ele>
        <time>2017-06-11T11:35:58Z</time>
      </trkpt>
      <trkpt lat="42.05894960090518" lon="12.845711605623364">
        <ele>1029.7100829999999</ele>
        <time>2017-06-11T11:36:32Z</time>
      </trkpt>
      <trkpt lat="42.058953540399671" lon="12.845757286995649">
        <ele>1029.7100829999999</ele>
        <time>2017-06-11T11:36:55Z</time>
      </trkpt>
      <trkpt lat="42.058941973373294" lon="12.845760639756918">
        <ele>1029.7100829999999</ele>
        <time>2017-06-11T11:37:30Z</time>
      </trkpt>
      <trkpt lat="42.058964185416698" lon="12.845713533461094">
        <ele>1029.7100829999999</ele>
        <time>2017-06-11T11:37:46Z</time>
      </trkpt>
      <trkpt lat="42.058962341398001" lon="12.845711437985301">
        <ele>1029.7100829999999</ele>
        <time>2017-06-11T11:38:01Z</time>
      </trkpt>
      <trkpt lat="42.058967705816031" lon="12.845694338902831">
        <ele>1029.7100829999999</ele>
        <time>2017-06-11T11:38:31Z</time>
      </trkpt>
      <trkpt lat="42.058966616168618" lon="12.84570355899632">
        <ele>1030.669922</ele>
        <time>2017-06-11T11:38:46Z</time>
      </trkpt>
      <trkpt lat="42.05897013656795" lon="12.845690064132214">
        <ele>1030.669922</ele>
        <time>2017-06-11T11:39:09Z</time>
      </trkpt>
      <trkpt lat="42.058956809341908" lon="12.845662739127874">
        <ele>1030.669922</ele>
        <time>2017-06-11T11:39:40Z</time>
      </trkpt>
      <trkpt lat="42.05895739607513" lon="12.845678916200995">
        <ele>1031.150024</ele>
        <time>2017-06-11T11:40:03Z</time>
      </trkpt>
      <trkpt lat="42.058959659188986" lon="12.845686627551913">
        <ele>1029.7100829999999</ele>
        <time>2017-06-11T11:40:08Z</time>
      </trkpt>
      <trkpt lat="42.058961419388652" lon="12.845706408843398">
        <ele>1029.7100829999999</ele>
        <time>2017-06-11T11:40:28Z</time>
      </trkpt>
      <trkpt lat="42.058966867625713" lon="12.845721999183297">
        <ele>1029.7100829999999</ele>
        <time>2017-06-11T11:40:56Z</time>
      </trkpt>
      <trkpt lat="42.059005592018366" lon="12.845803890377283">
        <ele>1029.7100829999999</ele>
        <time>2017-06-11T11:41:11Z</time>
      </trkpt>
      <trkpt lat="42.059045238420367" lon="12.845876226201653">
        <ele>1031.150024</ele>
        <time>2017-06-11T11:41:20Z</time>
      </trkpt>
      <trkpt lat="42.059036772698164" lon="12.845877734944224">
        <ele>1031.630005</ele>
        <time>2017-06-11T11:41:34Z</time>
      </trkpt>
      <trkpt lat="42.059042723849416" lon="12.845880165696144">
        <ele>1031.630005</ele>
        <time>2017-06-11T11:41:35Z</time>
      </trkpt>
      <trkpt lat="42.059051105752587" lon="12.845895923674107">
        <ele>1031.630005</ele>
        <time>2017-06-11T11:41:36Z</time>
      </trkpt>
      <trkpt lat="42.05905613489449" lon="12.845915202051401">
        <ele>1031.630005</ele>
        <time>2017-06-11T11:41:37Z</time>
      </trkpt>
      <trkpt lat="42.059107683598995" lon="12.846062304452062">
        <ele>1031.630005</ele>
        <time>2017-06-11T11:41:48Z</time>
      </trkpt>
      <trkpt lat="42.059135511517525" lon="12.846107399091125">
        <ele>1031.630005</ele>
        <time>2017-06-11T11:41:53Z</time>
      </trkpt>
      <trkpt lat="42.059211619198322" lon="12.846172694116831">
        <ele>1029.7100829999999</ele>
        <time>2017-06-11T11:42:03Z</time>
      </trkpt>
      <trkpt lat="42.05921933054924" lon="12.846174370497465">
        <ele>1033.0699460000001</ele>
        <time>2017-06-11T11:42:04Z</time>
      </trkpt>
      <trkpt lat="42.059227460995317" lon="12.846174705773592">
        <ele>1033.0699460000001</ele>
        <time>2017-06-11T11:42:05Z</time>
      </trkpt>
      <trkpt lat="42.059236764907837" lon="12.846179064363241">
        <ele>1031.630005</ele>
        <time>2017-06-11T11:42:06Z</time>
      </trkpt>
      <trkpt lat="42.059246571734548" lon="12.846184764057398">
        <ele>1031.630005</ele>
        <time>2017-06-11T11:42:07Z</time>
      </trkpt>
      <trkpt lat="42.059257971122861" lon="12.846189122647047">
        <ele>1031.630005</ele>
        <time>2017-06-11T11:42:08Z</time>
      </trkpt>
      <trkpt lat="42.059271298348904" lon="12.846191804856062">
        <ele>1031.630005</ele>
        <time>2017-06-11T11:42:09Z</time>
      </trkpt>
      <trkpt lat="42.059379424899817" lon="12.846235474571586">
        <ele>1033.0699460000001</ele>
        <time>2017-06-11T11:42:20Z</time>
      </trkpt>
      <trkpt lat="42.059462741017342" lon="12.846322311088443">
        <ele>1032.589966</ele>
        <time>2017-06-11T11:42:31Z</time>
      </trkpt>
      <trkpt lat="42.059474810957909" lon="12.846325077116489">
        <ele>1032.589966</ele>
        <time>2017-06-11T11:42:32Z</time>
      </trkpt>
      <trkpt lat="42.059465171769261" lon="12.846341505646706">
        <ele>1032.589966</ele>
        <time>2017-06-11T11:42:38Z</time>
      </trkpt>
      <trkpt lat="42.059434996917844" lon="12.846351228654385">
        <ele>1032.589966</ele>
        <time>2017-06-11T11:42:43Z</time>
      </trkpt>
      <trkpt lat="42.059354865923524" lon="12.846468323841691">
        <ele>1030.669922</ele>
        <time>2017-06-11T11:42:54Z</time>
      </trkpt>
      <trkpt lat="42.05936836078763" lon="12.846573013812304">
        <ele>1029.7100829999999</ele>
        <time>2017-06-11T11:43:05Z</time>
      </trkpt>
      <trkpt lat="42.059356961399317" lon="12.846608888357878">
        <ele>1029.7100829999999</ele>
        <time>2017-06-11T11:43:09Z</time>
      </trkpt>
      <trkpt lat="42.059350339695811" lon="12.846738137304783">
        <ele>1029.7100829999999</ele>
        <time>2017-06-11T11:43:22Z</time>
      </trkpt>
      <trkpt lat="42.059381604194641" lon="12.846857998520136">
        <ele>1030.1899410000001</ele>
        <time>2017-06-11T11:43:34Z</time>
      </trkpt>
      <trkpt lat="42.059386465698481" lon="12.846865458413959">
        <ele>1030.1899410000001</ele>
        <time>2017-06-11T11:43:35Z</time>
      </trkpt>
      <trkpt lat="42.059488724917173" lon="12.846998060122132">
        <ele>1030.1899410000001</ele>
        <time>2017-06-11T11:43:49Z</time>
      </trkpt>
      <trkpt lat="42.059558881446719" lon="12.847049525007606">
        <ele>1032.1099850000001</ele>
        <time>2017-06-11T11:44:00Z</time>
      </trkpt>
      <trkpt lat="42.05961562693119" lon="12.847117502242327">
        <ele>1033.0699460000001</ele>
        <time>2017-06-11T11:44:12Z</time>
      </trkpt>
      <trkpt lat="42.059651836752892" lon="12.847237195819616">
        <ele>1035</ele>
        <time>2017-06-11T11:44:25Z</time>
      </trkpt>
      <trkpt lat="42.059628367424011" lon="12.847366612404585">
        <ele>1035</ele>
        <time>2017-06-11T11:44:39Z</time>
      </trkpt>
      <trkpt lat="42.059601461514831" lon="12.847436685115099">
        <ele>1035</ele>
        <time>2017-06-11T11:44:46Z</time>
      </trkpt>
      <trkpt lat="42.059542704373598" lon="12.847560066729784">
        <ele>1033.5500489999999</ele>
        <time>2017-06-11T11:44:58Z</time>
      </trkpt>
      <trkpt lat="42.05948025919497" lon="12.847687723115087">
        <ele>1032.1099850000001</ele>
        <time>2017-06-11T11:45:10Z</time>
      </trkpt>
      <trkpt lat="42.059470284730196" lon="12.847712198272347">
        <ele>1032.1099850000001</ele>
        <time>2017-06-11T11:45:12Z</time>
      </trkpt>
      <trkpt lat="42.059395266696811" lon="12.847890313714743">
        <ele>1032.1099850000001</ele>
        <time>2017-06-11T11:45:26Z</time>
      </trkpt>
      <trkpt lat="42.059375233948231" lon="12.848027860745788">
        <ele>1032.1099850000001</ele>
        <time>2017-06-11T11:45:40Z</time>
      </trkpt>
      <trkpt lat="42.059364169836044" lon="12.848082929849625">
        <ele>1033.0699460000001</ele>
        <time>2017-06-11T11:45:46Z</time>
      </trkpt>
      <trkpt lat="42.059354111552238" lon="12.848119726404548">
        <ele>1034.040039</ele>
        <time>2017-06-11T11:45:49Z</time>
      </trkpt>
      <trkpt lat="42.059365091845393" lon="12.848262386396527">
        <ele>1034.5200199999999</ele>
        <time>2017-06-11T11:46:01Z</time>
      </trkpt>
      <trkpt lat="42.059381939470768" lon="12.848397837951779">
        <ele>1035.959961</ele>
        <time>2017-06-11T11:46:13Z</time>
      </trkpt>
      <trkpt lat="42.059384034946561" lon="12.84851660951972">
        <ele>1037.880005</ele>
        <time>2017-06-11T11:46:24Z</time>
      </trkpt>
      <trkpt lat="42.059397110715508" lon="12.848575115203857">
        <ele>1039.799927</ele>
        <time>2017-06-11T11:46:30Z</time>
      </trkpt>
      <trkpt lat="42.059473469853401" lon="12.848633117973804">
        <ele>1041.25</ele>
        <time>2017-06-11T11:46:44Z</time>
      </trkpt>
      <trkpt lat="42.059487467631698" lon="12.848655413836241">
        <ele>1041.7299800000001</ele>
        <time>2017-06-11T11:46:48Z</time>
      </trkpt>
      <trkpt lat="42.059538681060076" lon="12.848685085773468">
        <ele>1043.650024</ele>
        <time>2017-06-11T11:46:59Z</time>
      </trkpt>
      <trkpt lat="42.059592073783278" lon="12.8487369697541">
        <ele>1046.0500489999999</ele>
        <time>2017-06-11T11:47:13Z</time>
      </trkpt>
      <trkpt lat="42.059641862288117" lon="12.848786758258939">
        <ele>1047.01001</ele>
        <time>2017-06-11T11:47:24Z</time>
      </trkpt>
      <trkpt lat="42.05967421643436" lon="12.848840234801173">
        <ele>1049.420044</ele>
        <time>2017-06-11T11:47:38Z</time>
      </trkpt>
      <trkpt lat="42.05967279151082" lon="12.848959760740399">
        <ele>1050.8599850000001</ele>
        <time>2017-06-11T11:47:53Z</time>
      </trkpt>
      <trkpt lat="42.059717886149883" lon="12.848898069933057">
        <ele>1051.3400879999999</ele>
        <time>2017-06-11T11:48:04Z</time>
      </trkpt>
      <trkpt lat="42.059787288308144" lon="12.848823638632894">
        <ele>1051.8199460000001</ele>
        <time>2017-06-11T11:48:16Z</time>
      </trkpt>
      <trkpt lat="42.059846464544535" lon="12.848756834864616">
        <ele>1052.299927</ele>
        <time>2017-06-11T11:48:26Z</time>
      </trkpt>
      <trkpt lat="42.059899941086769" lon="12.848729761317372">
        <ele>1052.780029</ele>
        <time>2017-06-11T11:48:37Z</time>
      </trkpt>
      <trkpt lat="42.059949059039354" lon="12.848702101036906">
        <ele>1053.26001</ele>
        <time>2017-06-11T11:48:58Z</time>
      </trkpt>
      <trkpt lat="42.059986777603626" lon="12.84861333668232">
        <ele>1053.26001</ele>
        <time>2017-06-11T11:49:10Z</time>
      </trkpt>
      <trkpt lat="42.059981161728501" lon="12.848634039983153">
        <ele>1053.26001</ele>
        <time>2017-06-11T11:49:19Z</time>
      </trkpt>
      <trkpt lat="42.059921314939857" lon="12.848768820986152">
        <ele>1054.219971</ele>
        <time>2017-06-11T11:49:33Z</time>
      </trkpt>
      <trkpt lat="42.059814613312483" lon="12.848898824304342">
        <ele>1052.299927</ele>
        <time>2017-06-11T11:49:51Z</time>
      </trkpt>
      <trkpt lat="42.059783097356558" lon="12.84893436357379">
        <ele>1051.8199460000001</ele>
        <time>2017-06-11T11:49:56Z</time>
      </trkpt>
      <trkpt lat="42.059763735160232" lon="12.848952636122704">
        <ele>1051.8199460000001</ele>
        <time>2017-06-11T11:49:58Z</time>
      </trkpt>
      <trkpt lat="42.059691734611988" lon="12.849162435159087">
        <ele>1051.8199460000001</ele>
        <time>2017-06-11T11:50:14Z</time>
      </trkpt>
      <trkpt lat="42.059688130393624" lon="12.849230915307999">
        <ele>1053.26001</ele>
        <time>2017-06-11T11:50:19Z</time>
      </trkpt>
      <trkpt lat="42.059684107080102" lon="12.849281206727028">
        <ele>1051.8199460000001</ele>
        <time>2017-06-11T11:50:33Z</time>
      </trkpt>
      <trkpt lat="42.059571705758572" lon="12.84914206713438">
        <ele>1051.8199460000001</ele>
        <time>2017-06-11T11:50:51Z</time>
      </trkpt>
      <trkpt lat="42.05941379070282" lon="12.849089177325368">
        <ele>1051.3400879999999</ele>
        <time>2017-06-11T11:51:06Z</time>
      </trkpt>
      <trkpt lat="42.059396272525191" lon="12.849095296114683">
        <ele>1051.3400879999999</ele>
        <time>2017-06-11T11:51:08Z</time>
      </trkpt>
      <trkpt lat="42.059332737699151" lon="12.849120274186134">
        <ele>1051.3400879999999</ele>
        <time>2017-06-11T11:51:15Z</time>
      </trkpt>
      <trkpt lat="42.059175577014685" lon="12.849275758489966">
        <ele>1052.780029</ele>
        <time>2017-06-11T11:51:35Z</time>
      </trkpt>
      <trkpt lat="42.059164261445403" lon="12.849339293316007">
        <ele>1052.299927</ele>
        <time>2017-06-11T11:51:42Z</time>
      </trkpt>
      <trkpt lat="42.059153113514185" lon="12.849389584735036">
        <ele>1053.73999</ele>
        <time>2017-06-11T11:51:46Z</time>
      </trkpt>
      <trkpt lat="42.059157975018024" lon="12.849487736821175">
        <ele>1051.8199460000001</ele>
        <time>2017-06-11T11:51:53Z</time>
      </trkpt>
      <trkpt lat="42.059179935604334" lon="12.849715137854218">
        <ele>1048.940063</ele>
        <time>2017-06-11T11:52:07Z</time>
      </trkpt>
      <trkpt lat="42.059192340821028" lon="12.849730392917991">
        <ele>1048.450073</ele>
        <time>2017-06-11T11:52:10Z</time>
      </trkpt>
      <trkpt lat="42.059211535379291" lon="12.849793508648872">
        <ele>1047.48999</ele>
        <time>2017-06-11T11:52:14Z</time>
      </trkpt>
      <trkpt lat="42.059276914224029" lon="12.849967600777745">
        <ele>1046.530029</ele>
        <time>2017-06-11T11:52:28Z</time>
      </trkpt>
      <trkpt lat="42.059333240613341" lon="12.850121827796102">
        <ele>1043.169922</ele>
        <time>2017-06-11T11:52:41Z</time>
      </trkpt>
      <trkpt lat="42.059353608638048" lon="12.850133059546351">
        <ele>1042.6899410000001</ele>
        <time>2017-06-11T11:52:47Z</time>
      </trkpt>
      <trkpt lat="42.059446480125189" lon="12.850212100893259">
        <ele>1041.25</ele>
        <time>2017-06-11T11:52:59Z</time>
      </trkpt>
      <trkpt lat="42.059489814564586" lon="12.850289801135659">
        <ele>1038.8400879999999</ele>
        <time>2017-06-11T11:53:08Z</time>
      </trkpt>
      <trkpt lat="42.059571202844381" lon="12.850403040647507">
        <ele>1037.880005</ele>
        <time>2017-06-11T11:53:19Z</time>
      </trkpt>
      <trkpt lat="42.059566425159574" lon="12.850504964590073">
        <ele>1035.959961</ele>
        <time>2017-06-11T11:53:31Z</time>
      </trkpt>
      <trkpt lat="42.059600204229355" lon="12.850576378405094">
        <ele>1035</ele>
        <time>2017-06-11T11:53:42Z</time>
      </trkpt>
      <trkpt lat="42.059618309140205" lon="12.850756673142314">
        <ele>1034.040039</ele>
        <time>2017-06-11T11:53:55Z</time>
      </trkpt>
      <trkpt lat="42.059617890045047" lon="12.850787099450827">
        <ele>1034.040039</ele>
        <time>2017-06-11T11:54:10Z</time>
      </trkpt>
      <trkpt lat="42.059610262513161" lon="12.850857339799404">
        <ele>1033.5500489999999</ele>
        <time>2017-06-11T11:54:20Z</time>
      </trkpt>
      <trkpt lat="42.059644293040037" lon="12.850988684222102">
        <ele>1032.589966</ele>
        <time>2017-06-11T11:54:34Z</time>
      </trkpt>
      <trkpt lat="42.059646807610989" lon="12.851000167429447">
        <ele>1032.589966</ele>
        <time>2017-06-11T11:54:35Z</time>
      </trkpt>
      <trkpt lat="42.059724424034357" lon="12.85116545855999">
        <ele>1031.150024</ele>
        <time>2017-06-11T11:54:49Z</time>
      </trkpt>
      <trkpt lat="42.059733308851719" lon="12.851205440238118">
        <ele>1031.150024</ele>
        <time>2017-06-11T11:54:56Z</time>
      </trkpt>
      <trkpt lat="42.059751665219665" lon="12.851253133267164">
        <ele>1030.1899410000001</ele>
        <time>2017-06-11T11:55:01Z</time>
      </trkpt>
      <trkpt lat="42.059761891141534" lon="12.851358661428094">
        <ele>1029.2299800000001</ele>
        <time>2017-06-11T11:55:13Z</time>
      </trkpt>
      <trkpt lat="42.059763818979263" lon="12.851506434381008">
        <ele>1026.829956</ele>
        <time>2017-06-11T11:55:26Z</time>
      </trkpt>
      <trkpt lat="42.059787958860397" lon="12.851607520133257">
        <ele>1027.3100589999999</ele>
        <time>2017-06-11T11:55:39Z</time>
      </trkpt>
      <trkpt lat="42.059789635241032" lon="12.851668372750282">
        <ele>1025.8599850000001</ele>
        <time>2017-06-11T11:55:46Z</time>
      </trkpt>
      <trkpt lat="42.059816708788276" lon="12.851743390783668">
        <ele>1025.8599850000001</ele>
        <time>2017-06-11T11:56:08Z</time>
      </trkpt>
      <trkpt lat="42.059856858104467" lon="12.851865766569972">
        <ele>1024.900024</ele>
        <time>2017-06-11T11:56:19Z</time>
      </trkpt>
      <trkpt lat="42.059885691851377" lon="12.852015634998679">
        <ele>1022.02002</ele>
        <time>2017-06-11T11:56:33Z</time>
      </trkpt>
      <trkpt lat="42.059885188937187" lon="12.852052096277475">
        <ele>1021.540039</ele>
        <time>2017-06-11T11:56:36Z</time>
      </trkpt>
      <trkpt lat="42.059887871146202" lon="12.852114038541913">
        <ele>1021.540039</ele>
        <time>2017-06-11T11:56:40Z</time>
      </trkpt>
      <trkpt lat="42.059865072369576" lon="12.852296680212021">
        <ele>1018.169983</ele>
        <time>2017-06-11T11:56:56Z</time>
      </trkpt>
      <trkpt lat="42.059802627190948" lon="12.852441519498825">
        <ele>1016.25</ele>
        <time>2017-06-11T11:57:11Z</time>
      </trkpt>
      <trkpt lat="42.059779576957226" lon="12.852509496733546">
        <ele>1014.809998</ele>
        <time>2017-06-11T11:57:17Z</time>
      </trkpt>
      <trkpt lat="42.059752335771918" lon="12.852692725136876">
        <ele>1013.370056</ele>
        <time>2017-06-11T11:57:34Z</time>
      </trkpt>
      <trkpt lat="42.059767423197627" lon="12.85276765935123">
        <ele>1010.480042</ele>
        <time>2017-06-11T11:57:48Z</time>
      </trkpt>
      <trkpt lat="42.059779660776258" lon="12.852784590795636">
        <ele>1010.480042</ele>
        <time>2017-06-11T11:57:52Z</time>
      </trkpt>
      <trkpt lat="42.059853840619326" lon="12.852878635749221">
        <ele>1008.559998</ele>
        <time>2017-06-11T11:58:04Z</time>
      </trkpt>
      <trkpt lat="42.059895833954215" lon="12.853048536926508">
        <ele>1007.599976</ele>
        <time>2017-06-11T11:58:21Z</time>
      </trkpt>
      <trkpt lat="42.059891559183598" lon="12.853111736476421">
        <ele>1006.159973</ele>
        <time>2017-06-11T11:58:26Z</time>
      </trkpt>
      <trkpt lat="42.059875382110476" lon="12.853291360661387">
        <ele>1002.309998</ele>
        <time>2017-06-11T11:58:43Z</time>
      </trkpt>
      <trkpt lat="42.059865491464734" lon="12.853416921570897">
        <ele>1001.349976</ele>
        <time>2017-06-11T11:58:58Z</time>
      </trkpt>
      <trkpt lat="42.059840597212315" lon="12.853457909077406">
        <ele>1001.349976</ele>
        <time>2017-06-11T11:59:24Z</time>
      </trkpt>
      <trkpt lat="42.059852834790945" lon="12.853454640135169">
        <ele>1001.829956</ele>
        <time>2017-06-11T11:59:51Z</time>
      </trkpt>
      <trkpt lat="42.059867503121495" lon="12.853472828865051">
        <ele>1001.829956</ele>
        <time>2017-06-11T12:00:21Z</time>
      </trkpt>
      <trkpt lat="42.059891391545534" lon="12.853587493300438">
        <ele>1000.3900149999999</ele>
        <time>2017-06-11T12:00:34Z</time>
      </trkpt>
      <trkpt lat="42.059893738478422" lon="12.853595539927483">
        <ele>999.910034</ele>
        <time>2017-06-11T12:00:35Z</time>
      </trkpt>
      <trkpt lat="42.059928188100457" lon="12.853707438334823">
        <ele>998.47003199999995</ele>
        <time>2017-06-11T12:00:47Z</time>
      </trkpt>
      <trkpt lat="42.059951238334179" lon="12.853851020336151">
        <ele>997.02002000000005</ele>
        <time>2017-06-11T12:00:58Z</time>
      </trkpt>
      <trkpt lat="42.059970768168569" lon="12.853984292596579">
        <ele>996.54003899999998</ele>
        <time>2017-06-11T12:01:09Z</time>
      </trkpt>
      <trkpt lat="42.059974037110806" lon="12.854022262617946">
        <ele>996.05999799999995</ele>
        <time>2017-06-11T12:01:12Z</time>
      </trkpt>
      <trkpt lat="42.059938665479422" lon="12.85417246632278">
        <ele>996.05999799999995</ele>
        <time>2017-06-11T12:01:24Z</time>
      </trkpt>
      <trkpt lat="42.059895414859056" lon="12.85434152930975">
        <ele>994.61999500000002</ele>
        <time>2017-06-11T12:01:38Z</time>
      </trkpt>
      <trkpt lat="42.059891391545534" lon="12.85435569472611">
        <ele>994.61999500000002</ele>
        <time>2017-06-11T12:01:39Z</time>
      </trkpt>
      <trkpt lat="42.059822408482432" lon="12.854497684165835">
        <ele>993.65997300000004</ele>
        <time>2017-06-11T12:01:53Z</time>
      </trkpt>
      <trkpt lat="42.059851912781596" lon="12.854615701362491">
        <ele>994.61999500000002</ele>
        <time>2017-06-11T12:02:02Z</time>
      </trkpt>
      <trkpt lat="42.059886613860726" lon="12.854773364961147">
        <ele>996.54003899999998</ele>
        <time>2017-06-11T12:02:15Z</time>
      </trkpt>
      <trkpt lat="42.059893067926168" lon="12.854791637510061">
        <ele>996.54003899999998</ele>
        <time>2017-06-11T12:02:17Z</time>
      </trkpt>
      <trkpt lat="42.059910921379924" lon="12.854844778776169">
        <ele>996.54003899999998</ele>
        <time>2017-06-11T12:02:21Z</time>
      </trkpt>
      <trkpt lat="42.059923494234681" lon="12.854888699948788">
        <ele>997.02002000000005</ele>
        <time>2017-06-11T12:02:24Z</time>
      </trkpt>
      <trkpt lat="42.060013264417648" lon="12.854956341907382">
        <ele>995.580017</ele>
        <time>2017-06-11T12:02:33Z</time>
      </trkpt>
      <trkpt lat="42.060059029608965" lon="12.855080896988511">
        <ele>992.69995100000006</ele>
        <time>2017-06-11T12:02:47Z</time>
      </trkpt>
      <trkpt lat="42.060115188360214" lon="12.855169493705034">
        <ele>990.30004899999994</ele>
        <time>2017-06-11T12:03:00Z</time>
      </trkpt>
      <trkpt lat="42.060164390131831" lon="12.85525331273675">
        <ele>988.37005599999998</ele>
        <time>2017-06-11T12:03:15Z</time>
      </trkpt>
      <trkpt lat="42.060240162536502" lon="12.855299664661288">
        <ele>986.45001200000002</ele>
        <time>2017-06-11T12:03:30Z</time>
      </trkpt>
      <trkpt lat="42.060302440077066" lon="12.855420699343085">
        <ele>983.57000700000003</ele>
        <time>2017-06-11T12:03:46Z</time>
      </trkpt>
      <trkpt lat="42.060341835021973" lon="12.855592360720038">
        <ele>982.11999500000002</ele>
        <time>2017-06-11T12:04:00Z</time>
      </trkpt>
      <trkpt lat="42.060360359027982" lon="12.855753125622869">
        <ele>980.19995100000006</ele>
        <time>2017-06-11T12:04:15Z</time>
      </trkpt>
      <trkpt lat="42.060384163632989" lon="12.855953620746732">
        <ele>977.32000700000003</ele>
        <time>2017-06-11T12:04:33Z</time>
      </trkpt>
      <trkpt lat="42.060374775901437" lon="12.856106674298644">
        <ele>975.39001499999995</ele>
        <time>2017-06-11T12:04:47Z</time>
      </trkpt>
      <trkpt lat="42.060380140319467" lon="12.856134586036205">
        <ele>975.39001499999995</ele>
        <time>2017-06-11T12:04:49Z</time>
      </trkpt>
      <trkpt lat="42.060405537486076" lon="12.85627406090498">
        <ele>974.42999299999997</ele>
        <time>2017-06-11T12:05:03Z</time>
      </trkpt>
      <trkpt lat="42.060324987396598" lon="12.856383612379432">
        <ele>972.51000999999997</ele>
        <time>2017-06-11T12:05:17Z</time>
      </trkpt>
      <trkpt lat="42.060319371521473" lon="12.856392664834857">
        <ele>972.02996800000005</ele>
        <time>2017-06-11T12:05:18Z</time>
      </trkpt>
      <trkpt lat="42.060287101194263" lon="12.856587460264564">
        <ele>972.02996800000005</ele>
        <time>2017-06-11T12:05:32Z</time>
      </trkpt>
      <trkpt lat="42.06028358079493" lon="12.856711596250534">
        <ele>972.98999000000003</ele>
        <time>2017-06-11T12:05:45Z</time>
      </trkpt>
      <trkpt lat="42.060281233862042" lon="12.856821902096272">
        <ele>974.42999299999997</ele>
        <time>2017-06-11T12:05:54Z</time>
      </trkpt>
      <trkpt lat="42.060243934392929" lon="12.856932124122977">
        <ele>975.39001499999995</ele>
        <time>2017-06-11T12:06:09Z</time>
      </trkpt>
      <trkpt lat="42.060219459235668" lon="12.857112670317292">
        <ele>977.80004899999994</ele>
        <time>2017-06-11T12:06:24Z</time>
      </trkpt>
      <trkpt lat="42.060195822268724" lon="12.857231022790074">
        <ele>978.75994900000001</ele>
        <time>2017-06-11T12:06:37Z</time>
      </trkpt>
      <trkpt lat="42.060156930238008" lon="12.857348872348666">
        <ele>980.19995100000006</ele>
        <time>2017-06-11T12:06:49Z</time>
      </trkpt>
      <trkpt lat="42.060137987136841" lon="12.857365636155009">
        <ele>980.19995100000006</ele>
        <time>2017-06-11T12:06:51Z</time>
      </trkpt>
      <trkpt lat="42.060019969940186" lon="12.857502177357674">
        <ele>978.75994900000001</ele>
        <time>2017-06-11T12:07:05Z</time>
      </trkpt>
      <trkpt lat="42.0599121786654" lon="12.85763394087553">
        <ele>976.84002699999996</ele>
        <time>2017-06-11T12:07:19Z</time>
      </trkpt>
      <trkpt lat="42.05980908125639" lon="12.857714239507914">
        <ele>973.95001200000002</ele>
        <time>2017-06-11T12:07:31Z</time>
      </trkpt>
      <trkpt lat="42.059750910848379" lon="12.85781909711659">
        <ele>971.07000700000003</ele>
        <time>2017-06-11T12:07:44Z</time>
      </trkpt>
      <trkpt lat="42.05969818867743" lon="12.858008360490203">
        <ele>968.17999299999997</ele>
        <time>2017-06-11T12:08:01Z</time>
      </trkpt>
      <trkpt lat="42.059578495100141" lon="12.858209693804383">
        <ele>966.25994900000001</ele>
        <time>2017-06-11T12:08:17Z</time>
      </trkpt>
      <trkpt lat="42.059570616111159" lon="12.858403734862804">
        <ele>963.85998500000005</ele>
        <time>2017-06-11T12:08:31Z</time>
      </trkpt>
      <trkpt lat="42.059538261964917" lon="12.858555028215051">
        <ele>961.94000200000005</ele>
        <time>2017-06-11T12:08:42Z</time>
      </trkpt>
      <trkpt lat="42.059528287500143" lon="12.858635578304529">
        <ele>960.48999000000003</ele>
        <time>2017-06-11T12:08:51Z</time>
      </trkpt>
      <trkpt lat="42.059473805129528" lon="12.858820399269462">
        <ele>958.089966</ele>
        <time>2017-06-11T12:09:08Z</time>
      </trkpt>
      <trkpt lat="42.059475062415004" lon="12.858983008190989">
        <ele>956.65002400000003</ele>
        <time>2017-06-11T12:09:19Z</time>
      </trkpt>
      <trkpt lat="42.059479840099812" lon="12.859024163335562">
        <ele>956.17004399999996</ele>
        <time>2017-06-11T12:09:31Z</time>
      </trkpt>
      <trkpt lat="42.05949492752552" lon="12.859163135290146">
        <ele>955.21002199999998</ele>
        <time>2017-06-11T12:09:44Z</time>
      </trkpt>
      <trkpt lat="42.059507165104151" lon="12.859270088374615">
        <ele>953.77002000000005</ele>
        <time>2017-06-11T12:09:57Z</time>
      </trkpt>
      <trkpt lat="42.059536585584283" lon="12.859350638464093">
        <ele>953.77002000000005</ele>
        <time>2017-06-11T12:10:14Z</time>
      </trkpt>
      <trkpt lat="42.059546140953898" lon="12.859365558251739">
        <ele>953.77002000000005</ele>
        <time>2017-06-11T12:10:16Z</time>
      </trkpt>
      <trkpt lat="42.059601629152894" lon="12.859429512172937">
        <ele>952.79998799999998</ele>
        <time>2017-06-11T12:10:22Z</time>
      </trkpt>
      <trkpt lat="42.059667007997632" lon="12.85955423489213">
        <ele>952.32000700000003</ele>
        <time>2017-06-11T12:10:31Z</time>
      </trkpt>
      <trkpt lat="42.059685280546546" lon="12.859579799696803">
        <ele>952.32000700000003</ele>
        <time>2017-06-11T12:10:33Z</time>
      </trkpt>
      <trkpt lat="42.059784438461065" lon="12.859730422496796">
        <ele>950.88000499999998</ele>
        <time>2017-06-11T12:10:49Z</time>
      </trkpt>
      <trkpt lat="42.059931624680758" lon="12.85987232811749">
        <ele>948.95996100000002</ele>
        <time>2017-06-11T12:11:05Z</time>
      </trkpt>
      <trkpt lat="42.060114936903119" lon="12.860047593712807">
        <ele>948.95996100000002</ele>
        <time>2017-06-11T12:11:22Z</time>
      </trkpt>
      <trkpt lat="42.060176711529493" lon="12.860091431066394">
        <ele>948.95996100000002</ele>
        <time>2017-06-11T12:11:29Z</time>
      </trkpt>
      <trkpt lat="42.060327334329486" lon="12.860147841274738">
        <ele>948.00006099999996</ele>
        <time>2017-06-11T12:11:44Z</time>
      </trkpt>
      <trkpt lat="42.060457421466708" lon="12.860225541517138">
        <ele>946.55999799999995</ele>
        <time>2017-06-11T12:11:57Z</time>
      </trkpt>
      <trkpt lat="42.060547778382897" lon="12.860297122970223">
        <ele>945.589966</ele>
        <time>2017-06-11T12:12:05Z</time>
      </trkpt>
      <trkpt lat="42.060682140290737" lon="12.860364262014627">
        <ele>944.62994400000002</ele>
        <time>2017-06-11T12:12:17Z</time>
      </trkpt>
      <trkpt lat="42.060790685936809" lon="12.860382618382573">
        <ele>944.15002400000003</ele>
        <time>2017-06-11T12:12:26Z</time>
      </trkpt>
      <trkpt lat="42.060891017317772" lon="12.860506335273385">
        <ele>942.71002199999998</ele>
        <time>2017-06-11T12:12:40Z</time>
      </trkpt>
      <trkpt lat="42.060917336493731" lon="12.860555285587907">
        <ele>942.22997999999995</ele>
        <time>2017-06-11T12:12:45Z</time>
      </trkpt>
      <trkpt lat="42.061078939586878" lon="12.860629968345165">
        <ele>941.75</ele>
        <time>2017-06-11T12:12:58Z</time>
      </trkpt>
      <trkpt lat="42.06111665815115" lon="12.860657041892409">
        <ele>941.27002000000005</ele>
        <time>2017-06-11T12:13:02Z</time>
      </trkpt>
      <trkpt lat="42.061172733083367" lon="12.860686127096415">
        <ele>940.78997800000002</ele>
        <time>2017-06-11T12:13:06Z</time>
      </trkpt>
      <trkpt lat="42.061270466074347" lon="12.860725773498416">
        <ele>939.82995600000004</ele>
        <time>2017-06-11T12:13:19Z</time>
      </trkpt>
      <trkpt lat="42.061320841312408" lon="12.860794169828296">
        <ele>938.85998500000005</ele>
        <time>2017-06-11T12:13:26Z</time>
      </trkpt>
      <trkpt lat="42.061413628980517" lon="12.860926687717438">
        <ele>938.38000499999998</ele>
        <time>2017-06-11T12:13:37Z</time>
      </trkpt>
      <trkpt lat="42.061490071937442" lon="12.861038837581873">
        <ele>937.90002400000003</ele>
        <time>2017-06-11T12:13:46Z</time>
      </trkpt>
      <trkpt lat="42.061551678925753" lon="12.861146796494722">
        <ele>936.45996100000002</ele>
        <time>2017-06-11T12:13:54Z</time>
      </trkpt>
      <trkpt lat="42.061627702787519" lon="12.86122240126133">
        <ele>935.50006099999996</ele>
        <time>2017-06-11T12:13:59Z</time>
      </trkpt>
      <trkpt lat="42.061721831560135" lon="12.861297503113747">
        <ele>935.01995799999997</ele>
        <time>2017-06-11T12:14:11Z</time>
      </trkpt>
      <trkpt lat="42.061796514317393" lon="12.861347459256649">
        <ele>934.05999799999995</ele>
        <time>2017-06-11T12:14:25Z</time>
      </trkpt>
      <trkpt lat="42.061860971152782" lon="12.861395319923759">
        <ele>933.580017</ele>
        <time>2017-06-11T12:14:42Z</time>
      </trkpt>
      <trkpt lat="42.061870358884335" lon="12.861353158950806">
        <ele>934.05999799999995</ele>
        <time>2017-06-11T12:14:54Z</time>
      </trkpt>
      <trkpt lat="42.061839262023568" lon="12.861348381265998">
        <ele>935.01995799999997</ele>
        <time>2017-06-11T12:15:09Z</time>
      </trkpt>
      <trkpt lat="42.061789808794856" lon="12.861385010182858">
        <ele>935.50006099999996</ele>
        <time>2017-06-11T12:15:37Z</time>
      </trkpt>
      <trkpt lat="42.061795759946108" lon="12.861370677128434">
        <ele>934.05999799999995</ele>
        <time>2017-06-11T12:15:43Z</time>
      </trkpt>
      <trkpt lat="42.061779331415892" lon="12.861426835879683">
        <ele>932.61999500000002</ele>
        <time>2017-06-11T12:15:58Z</time>
      </trkpt>
      <trkpt lat="42.061788802966475" lon="12.861440917477012">
        <ele>932.61999500000002</ele>
        <time>2017-06-11T12:15:59Z</time>
      </trkpt>
      <trkpt lat="42.061878405511379" lon="12.861564382910728">
        <ele>934.54003899999998</ele>
        <time>2017-06-11T12:16:09Z</time>
      </trkpt>
      <trkpt lat="42.061952417716384" lon="12.861635880544782">
        <ele>933.10003700000004</ele>
        <time>2017-06-11T12:16:16Z</time>
      </trkpt>
      <trkpt lat="42.061975132673979" lon="12.861689440906048">
        <ele>932.61999500000002</ele>
        <time>2017-06-11T12:16:20Z</time>
      </trkpt>
      <trkpt lat="42.061975635588169" lon="12.861725483089685">
        <ele>932.14001499999995</ele>
        <time>2017-06-11T12:16:22Z</time>
      </trkpt>
      <trkpt lat="42.062019221484661" lon="12.861817264929414">
        <ele>931.65002400000003</ele>
        <time>2017-06-11T12:16:30Z</time>
      </trkpt>
      <trkpt lat="42.062034141272306" lon="12.861845763400197">
        <ele>931.65002400000003</ele>
        <time>2017-06-11T12:16:32Z</time>
      </trkpt>
      <trkpt lat="42.062121480703354" lon="12.862066626548767">
        <ele>929.72997999999995</ele>
        <time>2017-06-11T12:16:45Z</time>
      </trkpt>
      <trkpt lat="42.062168838456273" lon="12.862163102254272">
        <ele>929.72997999999995</ele>
        <time>2017-06-11T12:16:50Z</time>
      </trkpt>
      <trkpt lat="42.062213262543082" lon="12.862260416150093">
        <ele>928.28997800000002</ele>
        <time>2017-06-11T12:16:56Z</time>
      </trkpt>
      <trkpt lat="42.06229473464191" lon="12.862430987879634">
        <ele>925.88995399999999</ele>
        <time>2017-06-11T12:17:09Z</time>
      </trkpt>
      <trkpt lat="42.062378888949752" lon="12.862544227391481">
        <ele>923.95996100000002</ele>
        <time>2017-06-11T12:17:22Z</time>
      </trkpt>
      <trkpt lat="42.062388863414526" lon="12.862554034218192">
        <ele>923.95996100000002</ele>
        <time>2017-06-11T12:17:23Z</time>
      </trkpt>
      <trkpt lat="42.062493469566107" lon="12.862704237923026">
        <ele>920.60003700000004</ele>
        <time>2017-06-11T12:17:37Z</time>
      </trkpt>
      <trkpt lat="42.062547197565436" lon="12.862881096079946">
        <ele>918.67999299999997</ele>
        <time>2017-06-11T12:17:48Z</time>
      </trkpt>
      <trkpt lat="42.062566140666604" lon="12.862951923161745">
        <ele>918.20001200000002</ele>
        <time>2017-06-11T12:17:52Z</time>
      </trkpt>
      <trkpt lat="42.062593465670943" lon="12.863058792427182">
        <ele>917.23999000000003</ele>
        <time>2017-06-11T12:17:58Z</time>
      </trkpt>
      <trkpt lat="42.062626825645566" lon="12.863228861242533">
        <ele>916.75</ele>
        <time>2017-06-11T12:18:09Z</time>
      </trkpt>
      <trkpt lat="42.062646858394146" lon="12.863392727449536">
        <ele>916.75</ele>
        <time>2017-06-11T12:18:23Z</time>
      </trkpt>
      <trkpt lat="42.062653061002493" lon="12.863521473482251">
        <ele>916.27002000000005</ele>
        <time>2017-06-11T12:18:30Z</time>
      </trkpt>
      <trkpt lat="42.062698239460588" lon="12.863681064918637">
        <ele>914.82995600000004</ele>
        <time>2017-06-11T12:18:43Z</time>
      </trkpt>
      <trkpt lat="42.062742412090302" lon="12.863879296928644">
        <ele>913.86999500000002</ele>
        <time>2017-06-11T12:18:57Z</time>
      </trkpt>
      <trkpt lat="42.062818519771099" lon="12.864067135378718">
        <ele>910.98999000000003</ele>
        <time>2017-06-11T12:19:12Z</time>
      </trkpt>
      <trkpt lat="42.062845341861248" lon="12.864268468692899">
        <ele>910.03002900000001</ele>
        <time>2017-06-11T12:19:29Z</time>
      </trkpt>
      <trkpt lat="42.062853304669261" lon="12.864442560821772">
        <ele>909.05999799999995</ele>
        <time>2017-06-11T12:19:44Z</time>
      </trkpt>
      <trkpt lat="42.062799241393805" lon="12.864647833630443">
        <ele>907.61999500000002</ele>
        <time>2017-06-11T12:20:00Z</time>
      </trkpt>
      <trkpt lat="42.062809718772769" lon="12.864796360954642">
        <ele>906.65997300000004</ele>
        <time>2017-06-11T12:20:12Z</time>
      </trkpt>
      <trkpt lat="42.062807204201818" lon="12.864824859425426">
        <ele>908.10003700000004</ele>
        <time>2017-06-11T12:20:17Z</time>
      </trkpt>
      <trkpt lat="42.062874678522348" lon="12.864956874400377">
        <ele>906.65997300000004</ele>
        <time>2017-06-11T12:20:32Z</time>
      </trkpt>
      <trkpt lat="42.062905607745051" lon="12.865036921575665">
        <ele>907.14001499999995</ele>
        <time>2017-06-11T12:20:38Z</time>
      </trkpt>
      <trkpt lat="42.062895465642214" lon="12.865178994834423">
        <ele>905.70001200000002</ele>
        <time>2017-06-11T12:20:51Z</time>
      </trkpt>
      <trkpt lat="42.062891693785787" lon="12.865315703675151">
        <ele>904.73999000000003</ele>
        <time>2017-06-11T12:21:05Z</time>
      </trkpt>
      <trkpt lat="42.062893118709326" lon="12.865384686738253">
        <ele>903.77996800000005</ele>
        <time>2017-06-11T12:21:10Z</time>
      </trkpt>
      <trkpt lat="42.062904099002481" lon="12.865461464971304">
        <ele>903.30004899999994</ele>
        <time>2017-06-11T12:21:14Z</time>
      </trkpt>
      <trkpt lat="42.062920611351728" lon="12.865704372525215">
        <ele>901.84997599999997</ele>
        <time>2017-06-11T12:21:30Z</time>
      </trkpt>
      <trkpt lat="42.062910133972764" lon="12.865760363638401">
        <ele>901.84997599999997</ele>
        <time>2017-06-11T12:21:33Z</time>
      </trkpt>
      <trkpt lat="42.06291826441884" lon="12.865876033902168">
        <ele>901.36999500000002</ele>
        <time>2017-06-11T12:21:41Z</time>
      </trkpt>
      <trkpt lat="42.06293486058712" lon="12.865978376939893">
        <ele>900.410034</ele>
        <time>2017-06-11T12:21:48Z</time>
      </trkpt>
      <trkpt lat="42.062882473692298" lon="12.86615221761167">
        <ele>898.01000999999997</ele>
        <time>2017-06-11T12:22:02Z</time>
      </trkpt>
      <trkpt lat="42.062852634117007" lon="12.866287501528859">
        <ele>897.53002900000001</ele>
        <time>2017-06-11T12:22:11Z</time>
      </trkpt>
      <trkpt lat="42.062836959958076" lon="12.866352964192629">
        <ele>896.57000700000003</ele>
        <time>2017-06-11T12:22:16Z</time>
      </trkpt>
      <trkpt lat="42.062812484800816" lon="12.866527391597629">
        <ele>896.089966</ele>
        <time>2017-06-11T12:22:29Z</time>
      </trkpt>
      <trkpt lat="42.062805108726025" lon="12.866556812077761">
        <ele>896.089966</ele>
        <time>2017-06-11T12:22:32Z</time>
      </trkpt>
      <trkpt lat="42.062784489244223" lon="12.866649013012648">
        <ele>896.089966</ele>
        <time>2017-06-11T12:22:39Z</time>
      </trkpt>
      <trkpt lat="42.062740735709667" lon="12.866790080443025">
        <ele>894.64001499999995</ele>
        <time>2017-06-11T12:22:54Z</time>
      </trkpt>
      <trkpt lat="42.062733024358749" lon="12.866858979687095">
        <ele>892.23999000000003</ele>
        <time>2017-06-11T12:23:06Z</time>
      </trkpt>
      <trkpt lat="42.062689438462257" lon="12.867015469819307">
        <ele>889.84002699999996</ele>
        <time>2017-06-11T12:23:20Z</time>
      </trkpt>
      <trkpt lat="42.062597069889307" lon="12.867166511714458">
        <ele>887.43005400000004</ele>
        <time>2017-06-11T12:23:34Z</time>
      </trkpt>
      <trkpt lat="42.062541665509343" lon="12.867220658808947">
        <ele>885.98999000000003</ele>
        <time>2017-06-11T12:23:47Z</time>
      </trkpt>
      <trkpt lat="42.062494475394487" lon="12.86723448894918">
        <ele>885.98999000000003</ele>
        <time>2017-06-11T12:24:07Z</time>
      </trkpt>
      <trkpt lat="42.062459522858262" lon="12.867268938571215">
        <ele>885.98999000000003</ele>
        <time>2017-06-11T12:24:12Z</time>
      </trkpt>
      <trkpt lat="42.062375033274293" lon="12.867355523630977">
        <ele>885.51000999999997</ele>
        <time>2017-06-11T12:24:26Z</time>
      </trkpt>
      <trkpt lat="42.062306134030223" lon="12.867508661001921">
        <ele>884.54998799999998</ele>
        <time>2017-06-11T12:24:39Z</time>
      </trkpt>
      <trkpt lat="42.062302865087986" lon="12.8675477206707">
        <ele>884.07000700000003</ele>
        <time>2017-06-11T12:24:43Z</time>
      </trkpt>
      <trkpt lat="42.062279731035233" lon="12.867647297680378">
        <ele>883.10998500000005</ele>
        <time>2017-06-11T12:24:50Z</time>
      </trkpt>
      <trkpt lat="42.062266236171126" lon="12.867733715102077">
        <ele>882.14996299999996</ele>
        <time>2017-06-11T12:24:56Z</time>
      </trkpt>
      <trkpt lat="42.062233714386821" lon="12.867818539962173">
        <ele>881.67004399999996</ele>
        <time>2017-06-11T12:25:01Z</time>
      </trkpt>
      <trkpt lat="42.062162384390831" lon="12.868037559092045">
        <ele>880.71002199999998</ele>
        <time>2017-06-11T12:25:17Z</time>
      </trkpt>
      <trkpt lat="42.062103962525725" lon="12.868185332044959">
        <ele>880.21997099999999</ele>
        <time>2017-06-11T12:25:29Z</time>
      </trkpt>
      <trkpt lat="42.062068171799183" lon="12.868302427232265">
        <ele>879.25994900000001</ele>
        <time>2017-06-11T12:25:37Z</time>
      </trkpt>
      <trkpt lat="42.062058784067631" lon="12.868413319811225">
        <ele>878.77996800000005</ele>
        <time>2017-06-11T12:25:46Z</time>
      </trkpt>
      <trkpt lat="42.061969432979822" lon="12.868599984794855">
        <ele>877.34002699999996</ele>
        <time>2017-06-11T12:26:01Z</time>
      </trkpt>
      <trkpt lat="42.061911262571812" lon="12.868770891800523">
        <ele>876.38000499999998</ele>
        <time>2017-06-11T12:26:14Z</time>
      </trkpt>
      <trkpt lat="42.06188578158617" lon="12.868799138814211">
        <ele>876.38000499999998</ele>
        <time>2017-06-11T12:26:16Z</time>
      </trkpt>
      <trkpt lat="42.061814703047276" lon="12.868947833776474">
        <ele>874.45996100000002</ele>
        <time>2017-06-11T12:26:29Z</time>
      </trkpt>
      <trkpt lat="42.061782935634255" lon="12.869087727740407">
        <ele>873.5</ele>
        <time>2017-06-11T12:26:40Z</time>
      </trkpt>
      <trkpt lat="42.061713617295027" lon="12.869227705523372">
        <ele>872.53002900000001</ele>
        <time>2017-06-11T12:26:54Z</time>
      </trkpt>
      <trkpt lat="42.061593169346452" lon="12.869398696348071">
        <ele>871.57000700000003</ele>
        <time>2017-06-11T12:27:07Z</time>
      </trkpt>
      <trkpt lat="42.06157791428268" lon="12.869434487074614">
        <ele>871.089966</ele>
        <time>2017-06-11T12:27:11Z</time>
      </trkpt>
      <trkpt lat="42.061544973403215" lon="12.869492992758751">
        <ele>871.089966</ele>
        <time>2017-06-11T12:27:16Z</time>
      </trkpt>
      <trkpt lat="42.061419077217579" lon="12.869670102372766">
        <ele>870.60998500000005</ele>
        <time>2017-06-11T12:27:32Z</time>
      </trkpt>
      <trkpt lat="42.061289073899388" lon="12.869802117347717">
        <ele>869.17004399999996</ele>
        <time>2017-06-11T12:27:47Z</time>
      </trkpt>
      <trkpt lat="42.061214139685035" lon="12.869861209765077">
        <ele>867.73004200000003</ele>
        <time>2017-06-11T12:27:55Z</time>
      </trkpt>
      <trkpt lat="42.061090841889381" lon="12.870040163397789">
        <ele>866.28997800000002</ele>
        <time>2017-06-11T12:28:09Z</time>
      </trkpt>
      <trkpt lat="42.060960084199905" lon="12.87017653696239">
        <ele>865.32000700000003</ele>
        <time>2017-06-11T12:28:22Z</time>
      </trkpt>
      <trkpt lat="42.060904512181878" lon="12.870215931907296">
        <ele>864.35998500000005</ele>
        <time>2017-06-11T12:28:28Z</time>
      </trkpt>
      <trkpt lat="42.060734862461686" lon="12.870317017659545">
        <ele>863.40002400000003</ele>
        <time>2017-06-11T12:28:43Z</time>
      </trkpt>
      <trkpt lat="42.060554819181561" lon="12.870305869728327">
        <ele>862.44000200000005</ele>
        <time>2017-06-11T12:28:59Z</time>
      </trkpt>
      <trkpt lat="42.060549287125468" lon="12.870307713747025">
        <ele>862.44000200000005</ele>
        <time>2017-06-11T12:29:04Z</time>
      </trkpt>
      <trkpt lat="42.060482064262033" lon="12.870278963819146">
        <ele>861.95996100000002</ele>
        <time>2017-06-11T12:29:12Z</time>
      </trkpt>
      <trkpt lat="42.060379385948181" lon="12.870312491431832">
        <ele>860.03997800000002</ele>
        <time>2017-06-11T12:29:24Z</time>
      </trkpt>
      <trkpt lat="42.060356587171555" lon="12.870338978245854">
        <ele>859.56005900000002</ele>
        <time>2017-06-11T12:29:39Z</time>
      </trkpt>
      <trkpt lat="42.060366561636329" lon="12.870317604392767">
        <ele>859.080017</ele>
        <time>2017-06-11T12:29:55Z</time>
      </trkpt>
      <trkpt lat="42.060375530272722" lon="12.870278963819146">
        <ele>859.080017</ele>
        <time>2017-06-11T12:30:16Z</time>
      </trkpt>
      <trkpt lat="42.060381732881069" lon="12.870258260518312">
        <ele>859.080017</ele>
        <time>2017-06-11T12:30:41Z</time>
      </trkpt>
      <trkpt lat="42.060334039852023" lon="12.870317939668894">
        <ele>858.10998500000005</ele>
        <time>2017-06-11T12:30:54Z</time>
      </trkpt>
      <trkpt lat="42.060285676270723" lon="12.87031969986856">
        <ele>856.18994099999998</ele>
        <time>2017-06-11T12:31:13Z</time>
      </trkpt>
      <trkpt lat="42.06016531214118" lon="12.870377618819475">
        <ele>857.63000499999998</ele>
        <time>2017-06-11T12:31:29Z</time>
      </trkpt>
      <trkpt lat="42.060094401240349" lon="12.870397567749023">
        <ele>859.080017</ele>
        <time>2017-06-11T12:31:45Z</time>
      </trkpt>
      <trkpt lat="42.060102196410298" lon="12.870445009320974">
        <ele>860.51995799999997</ele>
        <time>2017-06-11T12:32:03Z</time>
      </trkpt>
      <trkpt lat="42.060098340734839" lon="12.870432687923312">
        <ele>858.589966</ele>
        <time>2017-06-11T12:32:05Z</time>
      </trkpt>
      <trkpt lat="42.060074536129832" lon="12.870310312137008">
        <ele>858.589966</ele>
        <time>2017-06-11T12:32:30Z</time>
      </trkpt>
      <trkpt lat="42.060112422332168" lon="12.870265636593103">
        <ele>858.589966</ele>
        <time>2017-06-11T12:32:54Z</time>
      </trkpt>
      <trkpt lat="42.060137987136841" lon="12.870329590514302">
        <ele>858.589966</ele>
        <time>2017-06-11T12:33:24Z</time>
      </trkpt>
      <trkpt lat="42.060194397345185" lon="12.870320035144687">
        <ele>858.589966</ele>
        <time>2017-06-11T12:33:48Z</time>
      </trkpt>
      <trkpt lat="42.060162965208292" lon="12.870442159473896">
        <ele>859.080017</ele>
        <time>2017-06-11T12:34:03Z</time>
      </trkpt>
      <trkpt lat="42.060149805620313" lon="12.870475267991424">
        <ele>859.080017</ele>
        <time>2017-06-11T12:34:06Z</time>
      </trkpt>
      <trkpt lat="42.060130275785923" lon="12.870624214410782">
        <ele>859.080017</ele>
        <time>2017-06-11T12:34:20Z</time>
      </trkpt>
      <trkpt lat="42.060133293271065" lon="12.870653299614787">
        <ele>860.03997800000002</ele>
        <time>2017-06-11T12:34:22Z</time>
      </trkpt>
      <trkpt lat="42.060088030993938" lon="12.870807610452175">
        <ele>860.51995799999997</ele>
        <time>2017-06-11T12:34:36Z</time>
      </trkpt>
      <trkpt lat="42.060069590806961" lon="12.870941134169698">
        <ele>859.080017</ele>
        <time>2017-06-11T12:34:47Z</time>
      </trkpt>
      <trkpt lat="42.060071770101786" lon="12.871139282360673">
        <ele>857.63000499999998</ele>
        <time>2017-06-11T12:35:03Z</time>
      </trkpt>
      <trkpt lat="42.060080235823989" lon="12.871346734464169">
        <ele>855.71002199999998</ele>
        <time>2017-06-11T12:35:18Z</time>
      </trkpt>
      <trkpt lat="42.060085935518146" lon="12.871530801057816">
        <ele>853.78997800000002</ele>
        <time>2017-06-11T12:35:29Z</time>
      </trkpt>
      <trkpt lat="42.060118792578578" lon="12.871767673641443">
        <ele>852.830017</ele>
        <time>2017-06-11T12:35:43Z</time>
      </trkpt>
      <trkpt lat="42.060124240815639" lon="12.871826682239771">
        <ele>852.34997599999997</ele>
        <time>2017-06-11T12:35:48Z</time>
      </trkpt>
      <trkpt lat="42.060111165046692" lon="12.871861634775996">
        <ele>852.34997599999997</ele>
        <time>2017-06-11T12:35:50Z</time>
      </trkpt>
      <trkpt lat="42.060117619112134" lon="12.871959200128913">
        <ele>851.38000499999998</ele>
        <time>2017-06-11T12:35:57Z</time>
      </trkpt>
      <trkpt lat="42.060131784528494" lon="12.872159779071808">
        <ele>850.90002400000003</ele>
        <time>2017-06-11T12:36:11Z</time>
      </trkpt>
      <trkpt lat="42.060185428708792" lon="12.872298834845424">
        <ele>849.45996100000002</ele>
        <time>2017-06-11T12:36:23Z</time>
      </trkpt>
      <trkpt lat="42.060270085930824" lon="12.872469071298838">
        <ele>848.5</ele>
        <time>2017-06-11T12:36:35Z</time>
      </trkpt>
      <trkpt lat="42.060292465612292" lon="12.87268272601068">
        <ele>847.53997800000002</ele>
        <time>2017-06-11T12:36:48Z</time>
      </trkpt>
      <trkpt lat="42.060304870828986" lon="12.872839132323861">
        <ele>846.580017</ele>
        <time>2017-06-11T12:36:59Z</time>
      </trkpt>
      <trkpt lat="42.060299338772893" lon="12.872893530875444">
        <ele>846.580017</ele>
        <time>2017-06-11T12:37:02Z</time>
      </trkpt>
      <trkpt lat="42.060246532782912" lon="12.873038621619344">
        <ele>846.580017</ele>
        <time>2017-06-11T12:37:17Z</time>
      </trkpt>
      <trkpt lat="42.060218788683414" lon="12.873074160888791">
        <ele>846.580017</ele>
        <time>2017-06-11T12:37:22Z</time>
      </trkpt>
      <trkpt lat="42.06019951030612" lon="12.873082794249058">
        <ele>846.580017</ele>
        <time>2017-06-11T12:37:24Z</time>
      </trkpt>
      <trkpt lat="42.060169838368893" lon="12.873087069019675">
        <ele>846.580017</ele>
        <time>2017-06-11T12:37:27Z</time>
      </trkpt>
      <trkpt lat="42.060037069022655" lon="12.873122692108154">
        <ele>848.01995799999997</ele>
        <time>2017-06-11T12:37:40Z</time>
      </trkpt>
      <trkpt lat="42.059935815632343" lon="12.873164182528853">
        <ele>848.97997999999995</ele>
        <time>2017-06-11T12:37:53Z</time>
      </trkpt>
      <trkpt lat="42.059859372675419" lon="12.873163260519505">
        <ele>849.94000200000005</ele>
        <time>2017-06-11T12:38:04Z</time>
      </trkpt>
      <trkpt lat="42.059766501188278" lon="12.873174827545881">
        <ele>850.90002400000003</ele>
        <time>2017-06-11T12:38:17Z</time>
      </trkpt>
      <trkpt lat="42.059676898643374" lon="12.873256802558899">
        <ele>851.38000499999998</ele>
        <time>2017-06-11T12:38:37Z</time>
      </trkpt>
      <trkpt lat="42.059633815661073" lon="12.873253868892789">
        <ele>852.830017</ele>
        <time>2017-06-11T12:38:54Z</time>
      </trkpt>
      <trkpt lat="42.059565419331193" lon="12.87323241122067">
        <ele>852.830017</ele>
        <time>2017-06-11T12:39:07Z</time>
      </trkpt>
      <trkpt lat="42.059532897546887" lon="12.87324070930481">
        <ele>853.78997800000002</ele>
        <time>2017-06-11T12:39:24Z</time>
      </trkpt>
      <trkpt lat="42.059557707980275" lon="12.873326372355223">
        <ele>853.78997800000002</ele>
        <time>2017-06-11T12:39:48Z</time>
      </trkpt>
      <trkpt lat="42.05949786119163" lon="12.873354619368911">
        <ele>854.27002000000005</ele>
        <time>2017-06-11T12:40:08Z</time>
      </trkpt>
      <trkpt lat="42.059430303052068" lon="12.873321259394288">
        <ele>854.27002000000005</ele>
        <time>2017-06-11T12:40:22Z</time>
      </trkpt>
      <trkpt lat="42.059371881186962" lon="12.873322768136859">
        <ele>854.27002000000005</ele>
        <time>2017-06-11T12:40:39Z</time>
      </trkpt>
      <trkpt lat="42.059279261156917" lon="12.873383034020662">
        <ele>855.23004200000003</ele>
        <time>2017-06-11T12:40:55Z</time>
      </trkpt>
      <trkpt lat="42.059206087142229" lon="12.873434331268072">
        <ele>856.67004399999996</ele>
        <time>2017-06-11T12:41:09Z</time>
      </trkpt>
      <trkpt lat="42.059148335829377" lon="12.873494094237685">
        <ele>857.14996299999996</ele>
        <time>2017-06-11T12:41:25Z</time>
      </trkpt>
      <trkpt lat="42.059091506525874" lon="12.873570118099451">
        <ele>858.589966</ele>
        <time>2017-06-11T12:41:38Z</time>
      </trkpt>
      <trkpt lat="42.059062169864774" lon="12.87358470261097">
        <ele>859.080017</ele>
        <time>2017-06-11T12:41:51Z</time>
      </trkpt>
      <trkpt lat="42.059020176529884" lon="12.87363113835454">
        <ele>859.080017</ele>
        <time>2017-06-11T12:41:58Z</time>
      </trkpt>
      <trkpt lat="42.058971226215363" lon="12.873725015670061">
        <ele>859.080017</ele>
        <time>2017-06-11T12:42:12Z</time>
      </trkpt>
      <trkpt lat="42.058945074677467" lon="12.87375669926405">
        <ele>859.56005900000002</ele>
        <time>2017-06-11T12:42:27Z</time>
      </trkpt>
      <trkpt lat="42.058886736631393" lon="12.873788382858038">
        <ele>861.47997999999995</ele>
        <time>2017-06-11T12:42:42Z</time>
      </trkpt>
      <trkpt lat="42.058879025280476" lon="12.873901119455695">
        <ele>861.47997999999995</ele>
        <time>2017-06-11T12:42:57Z</time>
      </trkpt>
      <trkpt lat="42.058863518759608" lon="12.873952919617295">
        <ele>861.47997999999995</ele>
        <time>2017-06-11T12:43:12Z</time>
      </trkpt>
      <trkpt lat="42.058865698054433" lon="12.873949902132154">
        <ele>861.47997999999995</ele>
        <time>2017-06-11T12:43:24Z</time>
      </trkpt>
      <trkpt lat="42.058870224282146" lon="12.873976640403271">
        <ele>861.47997999999995</ele>
        <time>2017-06-11T12:43:42Z</time>
      </trkpt>
      <trkpt lat="42.058864273130894" lon="12.873982423916459">
        <ele>861.47997999999995</ele>
        <time>2017-06-11T12:44:01Z</time>
      </trkpt>
      <trkpt lat="42.058852789923549" lon="12.87396389991045">
        <ele>861.47997999999995</ele>
        <time>2017-06-11T12:44:32Z</time>
      </trkpt>
      <trkpt lat="42.058862932026386" lon="12.874008994549513">
        <ele>860.03997800000002</ele>
        <time>2017-06-11T12:44:49Z</time>
      </trkpt>
      <trkpt lat="42.05891540274024" lon="12.874039337038994">
        <ele>860.03997800000002</ele>
        <time>2017-06-11T12:45:02Z</time>
      </trkpt>
      <trkpt lat="42.058935686945915" lon="12.874082922935486">
        <ele>860.03997800000002</ele>
        <time>2017-06-11T12:45:30Z</time>
      </trkpt>
      <trkpt lat="42.058964436873794" lon="12.874065237119794">
        <ele>860.03997800000002</ele>
        <time>2017-06-11T12:45:52Z</time>
      </trkpt>
      <trkpt lat="42.059004083275795" lon="12.87412516772747">
        <ele>862.919983</ele>
        <time>2017-06-11T12:46:04Z</time>
      </trkpt>
      <trkpt lat="42.058954378589988" lon="12.874265313148499">
        <ele>864.35998500000005</ele>
        <time>2017-06-11T12:46:22Z</time>
      </trkpt>
      <trkpt lat="42.058897214010358" lon="12.874327758327127">
        <ele>864.35998500000005</ele>
        <time>2017-06-11T12:46:38Z</time>
      </trkpt>
      <trkpt lat="42.058888580650091" lon="12.874326081946492">
        <ele>862.919983</ele>
        <time>2017-06-11T12:46:40Z</time>
      </trkpt>
      <trkpt lat="42.058839462697506" lon="12.874349132180214">
        <ele>862.44000200000005</ele>
        <time>2017-06-11T12:46:53Z</time>
      </trkpt>
      <trkpt lat="42.058761678636074" lon="12.874373607337475">
        <ele>862.44000200000005</ele>
        <time>2017-06-11T12:47:06Z</time>
      </trkpt>
      <trkpt lat="42.058792440220714" lon="12.874339912086725">
        <ele>862.44000200000005</ele>
        <time>2017-06-11T12:47:27Z</time>
      </trkpt>
      <trkpt lat="42.058815406635404" lon="12.874281741678715">
        <ele>862.44000200000005</ele>
        <time>2017-06-11T12:47:40Z</time>
      </trkpt>
      <trkpt lat="42.058859160169959" lon="12.874212088063359">
        <ele>863.88000499999998</ele>
        <time>2017-06-11T12:47:53Z</time>
      </trkpt>
      <trkpt lat="42.058898219838738" lon="12.874120892956853">
        <ele>862.919983</ele>
        <time>2017-06-11T12:48:08Z</time>
      </trkpt>
      <trkpt lat="42.058937782421708" lon="12.874004384502769">
        <ele>862.919983</ele>
        <time>2017-06-11T12:48:27Z</time>
      </trkpt>
      <trkpt lat="42.059045322239399" lon="12.873886032029986">
        <ele>861.47997999999995</ele>
        <time>2017-06-11T12:48:42Z</time>
      </trkpt>
      <trkpt lat="42.059056889265776" lon="12.873862311244011">
        <ele>861</ele>
        <time>2017-06-11T12:48:52Z</time>
      </trkpt>
      <trkpt lat="42.059029899537563" lon="12.873856863006949">
        <ele>860.03997800000002</ele>
        <time>2017-06-11T12:48:56Z</time>
      </trkpt>
      <trkpt lat="42.058990839868784" lon="12.873725015670061">
        <ele>857.63000499999998</ele>
        <time>2017-06-11T12:49:09Z</time>
      </trkpt>
      <trkpt lat="42.058988241478801" lon="12.873709928244352">
        <ele>857.63000499999998</ele>
        <time>2017-06-11T12:49:10Z</time>
      </trkpt>
      <trkpt lat="42.058998635038733" lon="12.873575733974576">
        <ele>857.63000499999998</ele>
        <time>2017-06-11T12:49:23Z</time>
      </trkpt>
      <trkpt lat="42.059002323076129" lon="12.873556036502123">
        <ele>857.63000499999998</ele>
        <time>2017-06-11T12:49:25Z</time>
      </trkpt>
      <trkpt lat="42.059069713577628" lon="12.873488813638687">
        <ele>856.67004399999996</ele>
        <time>2017-06-11T12:49:37Z</time>
      </trkpt>
      <trkpt lat="42.059158477932215" lon="12.873414633795619">
        <ele>856.18994099999998</ele>
        <time>2017-06-11T12:49:50Z</time>
      </trkpt>
      <trkpt lat="42.059226538985968" lon="12.873407090082765">
        <ele>854.27002000000005</ele>
        <time>2017-06-11T12:50:01Z</time>
      </trkpt>
      <trkpt lat="42.059312621131539" lon="12.873291419818997">
        <ele>853.30999799999995</ele>
        <time>2017-06-11T12:50:13Z</time>
      </trkpt>
      <trkpt lat="42.0594631601125" lon="12.873240122571588">
        <ele>853.30999799999995</ele>
        <time>2017-06-11T12:50:28Z</time>
      </trkpt>
      <trkpt lat="42.059529293328524" lon="12.873190669342875">
        <ele>852.34997599999997</ele>
        <time>2017-06-11T12:50:40Z</time>
      </trkpt>
      <trkpt lat="42.059562401846051" lon="12.873168876394629">
        <ele>851.86999500000002</ele>
        <time>2017-06-11T12:50:44Z</time>
      </trkpt>
      <trkpt lat="42.059757616370916" lon="12.873169463127851">
        <ele>850.90002400000003</ele>
        <time>2017-06-11T12:50:58Z</time>
      </trkpt>
      <trkpt lat="42.059899521991611" lon="12.873152866959572">
        <ele>849.45996100000002</ele>
        <time>2017-06-11T12:51:18Z</time>
      </trkpt>
      <trkpt lat="42.059977892786264" lon="12.873144568875432">
        <ele>848.5</ele>
        <time>2017-06-11T12:51:31Z</time>
      </trkpt>
      <trkpt lat="42.060090210288763" lon="12.873123362660408">
        <ele>848.01995799999997</ele>
        <time>2017-06-11T12:51:43Z</time>
      </trkpt>
      <trkpt lat="42.060188362374902" lon="12.87313861772418">
        <ele>848.01995799999997</ele>
        <time>2017-06-11T12:51:59Z</time>
      </trkpt>
      <trkpt lat="42.060227086767554" lon="12.873134259134531">
        <ele>847.53997800000002</ele>
        <time>2017-06-11T12:52:23Z</time>
      </trkpt>
      <trkpt lat="42.060219878330827" lon="12.873148927465081">
        <ele>847.53997800000002</ele>
        <time>2017-06-11T12:52:41Z</time>
      </trkpt>
      <trkpt lat="42.060256758704782" lon="12.873187987133861">
        <ele>846.580017</ele>
        <time>2017-06-11T12:52:56Z</time>
      </trkpt>
      <trkpt lat="42.060316437855363" lon="12.873269626870751">
        <ele>844.660034</ele>
        <time>2017-06-11T12:53:12Z</time>
      </trkpt>
      <trkpt lat="42.06036563962698" lon="12.87346450611949">
        <ele>844.17999299999997</ele>
        <time>2017-06-11T12:53:28Z</time>
      </trkpt>
      <trkpt lat="42.060441579669714" lon="12.873569363728166">
        <ele>841.77002000000005</ele>
        <time>2017-06-11T12:53:40Z</time>
      </trkpt>
      <trkpt lat="42.060449039563537" lon="12.873594677075744">
        <ele>841.77002000000005</ele>
        <time>2017-06-11T12:53:42Z</time>
      </trkpt>
      <trkpt lat="42.06042573787272" lon="12.873783269897103">
        <ele>840.330017</ele>
        <time>2017-06-11T12:53:57Z</time>
      </trkpt>
      <trkpt lat="42.060442334040999" lon="12.873840183019638">
        <ele>839.84997599999997</ele>
        <time>2017-06-11T12:54:01Z</time>
      </trkpt>
      <trkpt lat="42.060600416734815" lon="12.874055933207273">
        <ele>838.40997300000004</ele>
        <time>2017-06-11T12:54:19Z</time>
      </trkpt>
      <trkpt lat="42.060658670961857" lon="12.874111505225301">
        <ele>837.93005400000004</ele>
        <time>2017-06-11T12:54:26Z</time>
      </trkpt>
      <trkpt lat="42.060759672895074" lon="12.8742565959692">
        <ele>836.47997999999995</ele>
        <time>2017-06-11T12:54:41Z</time>
      </trkpt>
      <trkpt lat="42.060840474441648" lon="12.874404536560178">
        <ele>835.51995799999997</ele>
        <time>2017-06-11T12:54:55Z</time>
      </trkpt>
      <trkpt lat="42.060886574909091" lon="12.874575862661004">
        <ele>833.60003700000004</ele>
        <time>2017-06-11T12:55:10Z</time>
      </trkpt>
      <trkpt lat="42.061016662046313" lon="12.874764204025269">
        <ele>831.67999299999997</ele>
        <time>2017-06-11T12:55:24Z</time>
      </trkpt>
      <trkpt lat="42.06116946414113" lon="12.874961514025927">
        <ele>830.23999000000003</ele>
        <time>2017-06-11T12:55:42Z</time>
      </trkpt>
      <trkpt lat="42.061222018674016" lon="12.875128984451294">
        <ele>828.78997800000002</ele>
        <time>2017-06-11T12:55:55Z</time>
      </trkpt>
      <trkpt lat="42.061345316469669" lon="12.875298634171486">
        <ele>826.86999500000002</ele>
        <time>2017-06-11T12:56:08Z</time>
      </trkpt>
      <trkpt lat="42.061456292867661" lon="12.875455459579825">
        <ele>825.43005400000004</ele>
        <time>2017-06-11T12:56:21Z</time>
      </trkpt>
      <trkpt lat="42.061552433297038" lon="12.875577919185162">
        <ele>823.03002900000001</ele>
        <time>2017-06-11T12:56:34Z</time>
      </trkpt>
      <trkpt lat="42.061700206249952" lon="12.87570339627564">
        <ele>820.14001499999995</ele>
        <time>2017-06-11T12:56:50Z</time>
      </trkpt>
      <trkpt lat="42.061832137405872" lon="12.875868435949087">
        <ele>817.73999000000003</ele>
        <time>2017-06-11T12:57:05Z</time>
      </trkpt>
      <trkpt lat="42.061950992792845" lon="12.876068595796824">
        <ele>815.81994599999996</ele>
        <time>2017-06-11T12:57:21Z</time>
      </trkpt>
      <trkpt lat="42.062068339437246" lon="12.876234808936715">
        <ele>814.84997599999997</ele>
        <time>2017-06-11T12:57:35Z</time>
      </trkpt>
      <trkpt lat="42.06220680847764" lon="12.876400016248226">
        <ele>814.84997599999997</ele>
        <time>2017-06-11T12:57:52Z</time>
      </trkpt>
      <trkpt lat="42.062325160950422" lon="12.876509232446551">
        <ele>813.40997300000004</ele>
        <time>2017-06-11T12:58:07Z</time>
      </trkpt>
      <trkpt lat="42.062456589192152" lon="12.876619203016162">
        <ele>811.48999000000003</ele>
        <time>2017-06-11T12:58:22Z</time>
      </trkpt>
      <trkpt lat="42.062537306919694" lon="12.876646695658565">
        <ele>810.04998799999998</ele>
        <time>2017-06-11T12:58:29Z</time>
      </trkpt>
      <trkpt lat="42.062733024358749" lon="12.876687599346042">
        <ele>809.089966</ele>
        <time>2017-06-11T12:58:47Z</time>
      </trkpt>
      <trkpt lat="42.062916168943048" lon="12.876783823594451">
        <ele>809.089966</ele>
        <time>2017-06-11T12:59:06Z</time>
      </trkpt>
      <trkpt lat="42.063011974096298" lon="12.876816429197788">
        <ele>810.53002900000001</ele>
        <time>2017-06-11T12:59:18Z</time>
      </trkpt>
      <trkpt lat="42.063116496428847" lon="12.876856159418821">
        <ele>811.01000999999997</ele>
        <time>2017-06-11T12:59:26Z</time>
      </trkpt>
      <trkpt lat="42.063269466161728" lon="12.876891195774078">
        <ele>811.48999000000003</ele>
        <time>2017-06-11T12:59:38Z</time>
      </trkpt>
      <trkpt lat="42.06329352222383" lon="12.876900164410472">
        <ele>811.48999000000003</ele>
        <time>2017-06-11T12:59:40Z</time>
      </trkpt>
      <trkpt lat="42.063452359288931" lon="12.876975266262889">
        <ele>811.97003199999995</ele>
        <time>2017-06-11T12:59:53Z</time>
      </trkpt>
      <trkpt lat="42.063603987917304" lon="12.877063192427158">
        <ele>812.44995100000006</ele>
        <time>2017-06-11T13:00:05Z</time>
      </trkpt>
      <trkpt lat="42.063643885776401" lon="12.877116082236171">
        <ele>812.93005400000004</ele>
        <time>2017-06-11T13:00:11Z</time>
      </trkpt>
      <trkpt lat="42.063750084489584" lon="12.877269135788083">
        <ele>814.84997599999997</ele>
        <time>2017-06-11T13:00:25Z</time>
      </trkpt>
      <trkpt lat="42.063816301524639" lon="12.877361001446843">
        <ele>815.81994599999996</ele>
        <time>2017-06-11T13:00:34Z</time>
      </trkpt>
      <trkpt lat="42.063867263495922" lon="12.877462338656187">
        <ele>815.81994599999996</ele>
        <time>2017-06-11T13:00:42Z</time>
      </trkpt>
      <trkpt lat="42.063910011202097" lon="12.87756803445518">
        <ele>815.81994599999996</ele>
        <time>2017-06-11T13:00:52Z</time>
      </trkpt>
      <trkpt lat="42.063980335369706" lon="12.87766283378005">
        <ele>812.44995100000006</ele>
        <time>2017-06-11T13:01:02Z</time>
      </trkpt>
      <trkpt lat="42.064055185765028" lon="12.877828208729625">
        <ele>810.04998799999998</ele>
        <time>2017-06-11T13:01:16Z</time>
      </trkpt>
      <trkpt lat="42.064088797196746" lon="12.877899035811424">
        <ele>809.089966</ele>
        <time>2017-06-11T13:01:27Z</time>
      </trkpt>
      <trkpt lat="42.064124336466193" lon="12.877990985289216">
        <ele>807.64001499999995</ele>
        <time>2017-06-11T13:01:34Z</time>
      </trkpt>
      <trkpt lat="42.064122324809432" lon="12.878202460706234">
        <ele>805.23999000000003</ele>
        <time>2017-06-11T13:01:47Z</time>
      </trkpt>
      <trkpt lat="42.064094329252839" lon="12.878314862027764">
        <ele>803.31994599999996</ele>
        <time>2017-06-11T13:01:59Z</time>
      </trkpt>
      <trkpt lat="42.064109919592738" lon="12.87843681871891">
        <ele>801.88000499999998</ele>
        <time>2017-06-11T13:02:17Z</time>
      </trkpt>
      <trkpt lat="42.064115619286895" lon="12.878541927784681">
        <ele>799.94995100000006</ele>
        <time>2017-06-11T13:02:26Z</time>
      </trkpt>
      <trkpt lat="42.064116541296244" lon="12.878641840070486">
        <ele>797.07000700000003</ele>
        <time>2017-06-11T13:02:38Z</time>
      </trkpt>
      <trkpt lat="42.064071865752339" lon="12.878829007968307">
        <ele>795.14996299999996</ele>
        <time>2017-06-11T13:02:51Z</time>
      </trkpt>
      <trkpt lat="42.064070105552673" lon="12.879016678780317">
        <ele>792.73999000000003</ele>
        <time>2017-06-11T13:03:04Z</time>
      </trkpt>
      <trkpt lat="42.064059963449836" lon="12.879174929112196">
        <ele>789.86004600000001</ele>
        <time>2017-06-11T13:03:19Z</time>
      </trkpt>
      <trkpt lat="42.06400690600276" lon="12.879295460879803">
        <ele>787.46002199999998</ele>
        <time>2017-06-11T13:03:32Z</time>
      </trkpt>
      <trkpt lat="42.06393213942647" lon="12.879336196929216">
        <ele>786.01995799999997</ele>
        <time>2017-06-11T13:03:49Z</time>
      </trkpt>
      <trkpt lat="42.063900539651513" lon="12.879367377609015">
        <ele>784.57000700000003</ele>
        <time>2017-06-11T13:03:55Z</time>
      </trkpt>
      <trkpt lat="42.06383298151195" lon="12.87942579947412">
        <ele>783.13000499999998</ele>
        <time>2017-06-11T13:04:05Z</time>
      </trkpt>
      <trkpt lat="42.063769614323974" lon="12.879508277401328">
        <ele>781.69006300000001</ele>
        <time>2017-06-11T13:04:18Z</time>
      </trkpt>
      <trkpt lat="42.063760226592422" lon="12.879636520519853">
        <ele>780.25</ele>
        <time>2017-06-11T13:04:32Z</time>
      </trkpt>
      <trkpt lat="42.063791574910283" lon="12.879783036187291">
        <ele>777.84002699999996</ele>
        <time>2017-06-11T13:04:44Z</time>
      </trkpt>
      <trkpt lat="42.063840189948678" lon="12.880015382543206">
        <ele>776.88000499999998</ele>
        <time>2017-06-11T13:04:51Z</time>
      </trkpt>
      <trkpt lat="42.063911687582731" lon="12.880212692543864">
        <ele>774.96002199999998</ele>
        <time>2017-06-11T13:05:03Z</time>
      </trkpt>
      <trkpt lat="42.063943706452847" lon="12.880326099693775">
        <ele>774.47997999999995</ele>
        <time>2017-06-11T13:05:22Z</time>
      </trkpt>
      <trkpt lat="42.063961140811443" lon="12.880377396941185">
        <ele>773.51995799999997</ele>
        <time>2017-06-11T13:05:34Z</time>
      </trkpt>
      <trkpt lat="42.063937420025468" lon="12.880521062761545">
        <ele>772.07995600000004</ele>
        <time>2017-06-11T13:05:47Z</time>
      </trkpt>
      <trkpt lat="42.063946891576052" lon="12.880641259253025">
        <ele>770.14996299999996</ele>
        <time>2017-06-11T13:06:02Z</time>
      </trkpt>
      <trkpt lat="42.063890313729644" lon="12.88082130253315">
        <ele>768.23004200000003</ele>
        <time>2017-06-11T13:06:17Z</time>
      </trkpt>
      <trkpt lat="42.063862904906273" lon="12.880880897864699">
        <ele>767.27002000000005</ele>
        <time>2017-06-11T13:06:23Z</time>
      </trkpt>
      <trkpt lat="42.063789060339332" lon="12.881062366068363">
        <ele>766.30999799999995</ele>
        <time>2017-06-11T13:06:37Z</time>
      </trkpt>
      <trkpt lat="42.0637371763587" lon="12.881302172318101">
        <ele>764.39001499999995</ele>
        <time>2017-06-11T13:06:52Z</time>
      </trkpt>
      <trkpt lat="42.063737763091922" lon="12.881424715742469">
        <ele>762.94000200000005</ele>
        <time>2017-06-11T13:07:01Z</time>
      </trkpt>
      <trkpt lat="42.063805405050516" lon="12.881590593606234">
        <ele>760.05999799999995</ele>
        <time>2017-06-11T13:07:14Z</time>
      </trkpt>
      <trkpt lat="42.063836082816124" lon="12.88163342513144">
        <ele>759.57995600000004</ele>
        <time>2017-06-11T13:07:18Z</time>
      </trkpt>
      <trkpt lat="42.063940102234483" lon="12.881786311045289">
        <ele>757.17999299999997</ele>
        <time>2017-06-11T13:07:33Z</time>
      </trkpt>
      <trkpt lat="42.06400053575635" lon="12.881927210837603">
        <ele>755.25</ele>
        <time>2017-06-11T13:07:48Z</time>
      </trkpt>
      <trkpt lat="42.064020903781056" lon="12.88203751668334">
        <ele>753.330017</ele>
        <time>2017-06-11T13:07:55Z</time>
      </trkpt>
      <trkpt lat="42.064042864367366" lon="12.882175566628575">
        <ele>751.40997300000004</ele>
        <time>2017-06-11T13:08:11Z</time>
      </trkpt>
      <trkpt lat="42.064086701720953" lon="12.88234488107264">
        <ele>748.51995799999997</ele>
        <time>2017-06-11T13:08:27Z</time>
      </trkpt>
      <trkpt lat="42.064172280952334" lon="12.882589967921376">
        <ele>745.64001499999995</ele>
        <time>2017-06-11T13:08:46Z</time>
      </trkpt>
      <trkpt lat="42.064188709482551" lon="12.882846370339394">
        <ele>745.160034</ele>
        <time>2017-06-11T13:09:01Z</time>
      </trkpt>
      <trkpt lat="42.064214274287224" lon="12.883016103878617">
        <ele>744.20001200000002</ele>
        <time>2017-06-11T13:09:21Z</time>
      </trkpt>
      <trkpt lat="42.064214861020446" lon="12.883133785799146">
        <ele>743.23999000000003</ele>
        <time>2017-06-11T13:09:39Z</time>
      </trkpt>
      <trkpt lat="42.064215028658509" lon="12.883149795234203">
        <ele>743.23999000000003</ele>
        <time>2017-06-11T13:09:40Z</time>
      </trkpt>
      <trkpt lat="42.064235815778375" lon="12.883273595944047">
        <ele>742.27996800000005</ele>
        <time>2017-06-11T13:09:49Z</time>
      </trkpt>
      <trkpt lat="42.064298177137971" lon="12.883477695286274">
        <ele>740.34997599999997</ele>
        <time>2017-06-11T13:10:04Z</time>
      </trkpt>
      <trkpt lat="42.064362801611423" lon="12.88364508189261">
        <ele>737.94995100000006</ele>
        <time>2017-06-11T13:10:18Z</time>
      </trkpt>
      <trkpt lat="42.064372440800071" lon="12.883821101859212">
        <ele>736.51000999999997</ele>
        <time>2017-06-11T13:10:32Z</time>
      </trkpt>
      <trkpt lat="42.064474616199732" lon="12.883852031081915">
        <ele>734.10003700000004</ele>
        <time>2017-06-11T13:10:45Z</time>
      </trkpt>
      <trkpt lat="42.06448090262711" lon="12.883850689977407">
        <ele>734.10003700000004</ele>
        <time>2017-06-11T13:10:46Z</time>
      </trkpt>
      <trkpt lat="42.06468659453094" lon="12.883819760754704">
        <ele>731.70001200000002</ele>
        <time>2017-06-11T13:11:02Z</time>
      </trkpt>
      <trkpt lat="42.064806036651134" lon="12.883839625865221">
        <ele>731.22003199999995</ele>
        <time>2017-06-11T13:11:15Z</time>
      </trkpt>
      <trkpt lat="42.064854400232434" lon="12.883916404098272">
        <ele>728.339966</ele>
        <time>2017-06-11T13:11:25Z</time>
      </trkpt>
      <trkpt lat="42.064854400232434" lon="12.884000139310956">
        <ele>726.40997300000004</ele>
        <time>2017-06-11T13:11:34Z</time>
      </trkpt>
      <trkpt lat="42.064799666404724" lon="12.884107008576393">
        <ele>724.49005099999999</ele>
        <time>2017-06-11T13:11:49Z</time>
      </trkpt>
      <trkpt lat="42.064783070236444" lon="12.884123269468546">
        <ele>724.01000999999997</ele>
        <time>2017-06-11T13:11:51Z</time>
      </trkpt>
      <trkpt lat="42.064832858741283" lon="12.884176075458527">
        <ele>721.13000499999998</ele>
        <time>2017-06-11T13:12:04Z</time>
      </trkpt>
      <trkpt lat="42.064815340563655" lon="12.884253775700927">
        <ele>718.72003199999995</ele>
        <time>2017-06-11T13:12:16Z</time>
      </trkpt>
      <trkpt lat="42.064757673069835" lon="12.884348826482892">
        <ele>715.36004600000001</ele>
        <time>2017-06-11T13:12:30Z</time>
      </trkpt>
      <trkpt lat="42.064680140465498" lon="12.884490229189396">
        <ele>711.99005099999999</ele>
        <time>2017-06-11T13:12:44Z</time>
      </trkpt>
      <trkpt lat="42.064624819904566" lon="12.884637834504247">
        <ele>711.03002900000001</ele>
        <time>2017-06-11T13:12:55Z</time>
      </trkpt>
      <trkpt lat="42.064620964229107" lon="12.884682677686214">
        <ele>710.54998799999998</ele>
        <time>2017-06-11T13:12:59Z</time>
      </trkpt>
      <trkpt lat="42.064633285626769" lon="12.884800611063838">
        <ele>709.59002699999996</ele>
        <time>2017-06-11T13:13:08Z</time>
      </trkpt>
      <trkpt lat="42.064664382487535" lon="12.884872863069177">
        <ele>708.14996299999996</ele>
        <time>2017-06-11T13:13:14Z</time>
      </trkpt>
      <trkpt lat="42.064725905656815" lon="12.884980738162994">
        <ele>706.22997999999995</ele>
        <time>2017-06-11T13:13:26Z</time>
      </trkpt>
      <trkpt lat="42.064822465181351" lon="12.885066568851471">
        <ele>704.29998799999998</ele>
        <time>2017-06-11T13:13:40Z</time>
      </trkpt>
      <trkpt lat="42.064826404675841" lon="12.885076962411404">
        <ele>703.339966</ele>
        <time>2017-06-11T13:13:41Z</time>
      </trkpt>
      <trkpt lat="42.064851298928261" lon="12.885127421468496">
        <ele>702.86004600000001</ele>
        <time>2017-06-11T13:13:54Z</time>
      </trkpt>
      <trkpt lat="42.06488499417901" lon="12.885223478078842">
        <ele>701.90002400000003</ele>
        <time>2017-06-11T13:14:04Z</time>
      </trkpt>
      <trkpt lat="42.064878037199378" lon="12.885379213839769">
        <ele>699.5</ele>
        <time>2017-06-11T13:14:19Z</time>
      </trkpt>
      <trkpt lat="42.064877534285188" lon="12.885488932952285">
        <ele>697.09002699999996</ele>
        <time>2017-06-11T13:14:31Z</time>
      </trkpt>
      <trkpt lat="42.064920198172331" lon="12.885550959035754">
        <ele>694.20996100000002</ele>
        <time>2017-06-11T13:14:41Z</time>
      </trkpt>
      <trkpt lat="42.064936123788357" lon="12.885644668713212">
        <ele>691.80999799999995</ele>
        <time>2017-06-11T13:14:52Z</time>
      </trkpt>
      <trkpt lat="42.064908463507891" lon="12.885739468038082">
        <ele>689.87994400000002</ele>
        <time>2017-06-11T13:15:05Z</time>
      </trkpt>
      <trkpt lat="42.064906535670161" lon="12.885752040892839">
        <ele>689.87994400000002</ele>
        <time>2017-06-11T13:15:18Z</time>
      </trkpt>
      <trkpt lat="42.064834032207727" lon="12.885797135531902">
        <ele>687.96002199999998</ele>
        <time>2017-06-11T13:15:27Z</time>
      </trkpt>
      <trkpt lat="42.06477602943778" lon="12.88584977388382">
        <ele>686.52002000000005</ele>
        <time>2017-06-11T13:15:37Z</time>
      </trkpt>
      <trkpt lat="42.0647266600281" lon="12.885928563773632">
        <ele>683.14996299999996</ele>
        <time>2017-06-11T13:15:49Z</time>
      </trkpt>
      <trkpt lat="42.064635464921594" lon="12.885992685332894">
        <ele>680.27002000000005</ele>
        <time>2017-06-11T13:16:02Z</time>
      </trkpt>
      <trkpt lat="42.064601266756654" lon="12.886069882661104">
        <ele>678.35003700000004</ele>
        <time>2017-06-11T13:16:13Z</time>
      </trkpt>
      <trkpt lat="42.064602021127939" lon="12.886206759139895">
        <ele>676.42004399999996</ele>
        <time>2017-06-11T13:16:26Z</time>
      </trkpt>
      <trkpt lat="42.064644685015082" lon="12.88632033392787">
        <ele>674.5</ele>
        <time>2017-06-11T13:16:37Z</time>
      </trkpt>
      <trkpt lat="42.06468072719872" lon="12.886412534862757">
        <ele>673.05999799999995</ele>
        <time>2017-06-11T13:16:48Z</time>
      </trkpt>
      <trkpt lat="42.064700340852141" lon="12.886507669463754">
        <ele>672.09997599999997</ele>
        <time>2017-06-11T13:17:00Z</time>
      </trkpt>
      <trkpt lat="42.064784159883857" lon="12.886607833206654">
        <ele>670.17999299999997</ele>
        <time>2017-06-11T13:17:14Z</time>
      </trkpt>
      <trkpt lat="42.064799414947629" lon="12.886626189574599">
        <ele>670.17999299999997</ele>
        <time>2017-06-11T13:17:16Z</time>
      </trkpt>
      <trkpt lat="42.064900416880846" lon="12.886757282540202">
        <ele>668.72997999999995</ele>
        <time>2017-06-11T13:17:28Z</time>
      </trkpt>
      <trkpt lat="42.06500762142241" lon="12.88690865971148">
        <ele>666.330017</ele>
        <time>2017-06-11T13:17:41Z</time>
      </trkpt>
      <trkpt lat="42.065106779336929" lon="12.887031706050038">
        <ele>663.92999299999997</ele>
        <time>2017-06-11T13:17:56Z</time>
      </trkpt>
      <trkpt lat="42.065178360790014" lon="12.887195739895105">
        <ele>660.55999799999995</ele>
        <time>2017-06-11T13:18:12Z</time>
      </trkpt>
      <trkpt lat="42.065233765169978" lon="12.887334795668721">
        <ele>657.67999299999997</ele>
        <time>2017-06-11T13:18:26Z</time>
      </trkpt>
      <trkpt lat="42.065275590866804" lon="12.887528333812952">
        <ele>655.27996800000005</ele>
        <time>2017-06-11T13:18:40Z</time>
      </trkpt>
      <trkpt lat="42.065285481512547" lon="12.887600334361196">
        <ele>654.30999799999995</ele>
        <time>2017-06-11T13:18:46Z</time>
      </trkpt>
      <trkpt lat="42.065312638878822" lon="12.887724637985229">
        <ele>652.86999500000002</ele>
        <time>2017-06-11T13:18:55Z</time>
      </trkpt>
      <trkpt lat="42.065336024388671" lon="12.887823041528463">
        <ele>651.42999299999997</ele>
        <time>2017-06-11T13:19:03Z</time>
      </trkpt>
      <trkpt lat="42.065360583364964" lon="12.887902334332466">
        <ele>649.98999000000003</ele>
        <time>2017-06-11T13:19:17Z</time>
      </trkpt>
      <trkpt lat="42.065412970259786" lon="12.888048933818936">
        <ele>648.07000700000003</ele>
        <time>2017-06-11T13:19:30Z</time>
      </trkpt>
      <trkpt lat="42.065465021878481" lon="12.888188827782869">
        <ele>646.62005599999998</ele>
        <time>2017-06-11T13:19:42Z</time>
      </trkpt>
      <trkpt lat="42.065502824261785" lon="12.888242974877357">
        <ele>645.660034</ele>
        <time>2017-06-11T13:19:47Z</time>
      </trkpt>
      <trkpt lat="42.065519085153937" lon="12.888264767825603">
        <ele>645.660034</ele>
        <time>2017-06-11T13:19:49Z</time>
      </trkpt>
      <trkpt lat="42.065638694912195" lon="12.888423940166831">
        <ele>643.73999000000003</ele>
        <time>2017-06-11T13:20:04Z</time>
      </trkpt>
      <trkpt lat="42.065664427354932" lon="12.88845612667501">
        <ele>643.26000999999997</ele>
        <time>2017-06-11T13:20:07Z</time>
      </trkpt>
      <trkpt lat="42.065719915553927" lon="12.888552183285356">
        <ele>642.77996800000005</ele>
        <time>2017-06-11T13:20:15Z</time>
      </trkpt>
      <trkpt lat="42.065761908888817" lon="12.888621417805552">
        <ele>642.29998799999998</ele>
        <time>2017-06-11T13:20:21Z</time>
      </trkpt>
      <trkpt lat="42.065768865868449" lon="12.888680510222912">
        <ele>641.82000700000003</ele>
        <time>2017-06-11T13:20:25Z</time>
      </trkpt>
      <trkpt lat="42.065777415409684" lon="12.888805819675326">
        <ele>639.40997300000004</ele>
        <time>2017-06-11T13:20:37Z</time>
      </trkpt>
      <trkpt lat="42.06579820252955" lon="12.888860302045941">
        <ele>638.92999299999997</ele>
        <time>2017-06-11T13:20:45Z</time>
      </trkpt>
      <trkpt lat="42.065780684351921" lon="12.888936409726739">
        <ele>637.96997099999999</ele>
        <time>2017-06-11T13:20:52Z</time>
      </trkpt>
      <trkpt lat="42.065797699615359" lon="12.889063730835915">
        <ele>635.57000700000003</ele>
        <time>2017-06-11T13:21:05Z</time>
      </trkpt>
      <trkpt lat="42.065799795091152" lon="12.889150902628899">
        <ele>634.13000499999998</ele>
        <time>2017-06-11T13:21:12Z</time>
      </trkpt>
      <trkpt lat="42.065820917487144" lon="12.889190632849932">
        <ele>632.67999299999997</ele>
        <time>2017-06-11T13:21:17Z</time>
      </trkpt>
      <trkpt lat="42.065914459526539" lon="12.889215359464288">
        <ele>630.27996800000005</ele>
        <time>2017-06-11T13:21:30Z</time>
      </trkpt>
      <trkpt lat="42.066020658239722" lon="12.889211336150765">
        <ele>628.35998500000005</ele>
        <time>2017-06-11T13:21:44Z</time>
      </trkpt>
      <trkpt lat="42.066062735393643" lon="12.889268668368459">
        <ele>627.87994400000002</ele>
        <time>2017-06-11T13:21:51Z</time>
      </trkpt>
      <trkpt lat="42.066082265228033" lon="12.889308566227555">
        <ele>626.92004399999996</ele>
        <time>2017-06-11T13:21:55Z</time>
      </trkpt>
      <trkpt lat="42.066081594675779" lon="12.889368161559105">
        <ele>626.44000200000005</ele>
        <time>2017-06-11T13:22:00Z</time>
      </trkpt>
      <trkpt lat="42.066090730950236" lon="12.889406299218535">
        <ele>625.96002199999998</ele>
        <time>2017-06-11T13:22:03Z</time>
      </trkpt>
      <trkpt lat="42.066092994064093" lon="12.889532279223204">
        <ele>624.03002900000001</ele>
        <time>2017-06-11T13:22:14Z</time>
      </trkpt>
      <trkpt lat="42.066103722900152" lon="12.889619283378124">
        <ele>622.59002699999996</ele>
        <time>2017-06-11T13:22:21Z</time>
      </trkpt>
      <trkpt lat="42.066147811710835" lon="12.889710729941726">
        <ele>621.14996299999996</ele>
        <time>2017-06-11T13:22:35Z</time>
      </trkpt>
      <trkpt lat="42.066133562475443" lon="12.889807373285294">
        <ele>619.71002199999998</ele>
        <time>2017-06-11T13:22:49Z</time>
      </trkpt>
      <trkpt lat="42.066137585788965" lon="12.889840314164758">
        <ele>619.22997999999995</ele>
        <time>2017-06-11T13:22:53Z</time>
      </trkpt>
      <trkpt lat="42.066216710954905" lon="12.889921870082617">
        <ele>616.82000700000003</ele>
        <time>2017-06-11T13:23:06Z</time>
      </trkpt>
      <trkpt lat="42.066263565793633" lon="12.890000073239207">
        <ele>614.89996299999996</ele>
        <time>2017-06-11T13:23:18Z</time>
      </trkpt>
      <trkpt lat="42.066301703453064" lon="12.89004759863019">
        <ele>613.94000200000005</ele>
        <time>2017-06-11T13:23:31Z</time>
      </trkpt>
      <trkpt lat="42.066314527764916" lon="12.890064865350723">
        <ele>612.97997999999995</ele>
        <time>2017-06-11T13:23:49Z</time>
      </trkpt>
      <trkpt lat="42.066391389816999" lon="12.890147091820836">
        <ele>610.57000700000003</ele>
        <time>2017-06-11T13:24:04Z</time>
      </trkpt>
      <trkpt lat="42.066335063427687" lon="12.890209704637527">
        <ele>608.169983</ele>
        <time>2017-06-11T13:24:17Z</time>
      </trkpt>
      <trkpt lat="42.066366160288453" lon="12.890287740156054">
        <ele>605.76995799999997</ele>
        <time>2017-06-11T13:24:31Z</time>
      </trkpt>
      <trkpt lat="42.066420894116163" lon="12.890378935262561">
        <ele>603.84997599999997</ele>
        <time>2017-06-11T13:24:45Z</time>
      </trkpt>
      <trkpt lat="42.066464563831687" lon="12.890431573614478">
        <ele>601.44000200000005</ele>
        <time>2017-06-11T13:24:58Z</time>
      </trkpt>
      <trkpt lat="42.066376889124513" lon="12.890479685738683">
        <ele>598.55999799999995</ele>
        <time>2017-06-11T13:25:13Z</time>
      </trkpt>
      <trkpt lat="42.066300362348557" lon="12.890530563890934">
        <ele>597.11999500000002</ele>
        <time>2017-06-11T13:25:26Z</time>
      </trkpt>
      <trkpt lat="42.066256105899811" lon="12.89054405875504">
        <ele>596.14996299999996</ele>
        <time>2017-06-11T13:25:50Z</time>
      </trkpt>
      <trkpt lat="42.066175891086459" lon="12.890570377930999">
        <ele>594.22997999999995</ele>
        <time>2017-06-11T13:26:04Z</time>
      </trkpt>
      <trkpt lat="42.066134735941887" lon="12.890665428712964">
        <ele>590.86999500000002</ele>
        <time>2017-06-11T13:26:18Z</time>
      </trkpt>
      <trkpt lat="42.066100873053074" lon="12.890761904418468">
        <ele>587.97997999999995</ele>
        <time>2017-06-11T13:26:31Z</time>
      </trkpt>
      <trkpt lat="42.066055275499821" lon="12.890873216092587">
        <ele>585.580017</ele>
        <time>2017-06-11T13:26:46Z</time>
      </trkpt>
      <trkpt lat="42.066049408167601" lon="12.890947982668877">
        <ele>583.65997300000004</ele>
        <time>2017-06-11T13:27:01Z</time>
      </trkpt>
      <trkpt lat="42.066075140610337" lon="12.890985617414117">
        <ele>582.22003199999995</ele>
        <time>2017-06-11T13:27:13Z</time>
      </trkpt>
      <trkpt lat="42.066086120903492" lon="12.89105367846787">
        <ele>579.80999799999995</ele>
        <time>2017-06-11T13:27:27Z</time>
      </trkpt>
      <trkpt lat="42.066117720678449" lon="12.891103131696582">
        <ele>577.89001499999995</ele>
        <time>2017-06-11T13:27:40Z</time>
      </trkpt>
      <trkpt lat="42.066156696528196" lon="12.891149735078216">
        <ele>576.92999299999997</ele>
        <time>2017-06-11T13:28:03Z</time>
      </trkpt>
      <trkpt lat="42.066130628809333" lon="12.891242187470198">
        <ele>575.01000999999997</ele>
        <time>2017-06-11T13:28:14Z</time>
      </trkpt>
      <trkpt lat="42.066079331561923" lon="12.891326760873199">
        <ele>572.59997599999997</ele>
        <time>2017-06-11T13:28:27Z</time>
      </trkpt>
      <trkpt lat="42.066055862233043" lon="12.891428517177701">
        <ele>569.23999000000003</ele>
        <time>2017-06-11T13:28:40Z</time>
      </trkpt>
      <trkpt lat="42.06606893800199" lon="12.891537565737963">
        <ele>567.32000700000003</ele>
        <time>2017-06-11T13:28:53Z</time>
      </trkpt>
      <trkpt lat="42.06604303792119" lon="12.891634209081531">
        <ele>564.90997300000004</ele>
        <time>2017-06-11T13:29:05Z</time>
      </trkpt>
      <trkpt lat="42.066029878333211" lon="12.891742419451475">
        <ele>562.98999000000003</ele>
        <time>2017-06-11T13:29:21Z</time>
      </trkpt>
      <trkpt lat="42.06600783392787" lon="12.891887929290533">
        <ele>561.07000700000003</ele>
        <time>2017-06-11T13:29:35Z</time>
      </trkpt>
      <trkpt lat="42.065999284386635" lon="12.89195473305881">
        <ele>559.14001499999995</ele>
        <time>2017-06-11T13:29:49Z</time>
      </trkpt>
      <trkpt lat="42.065969277173281" lon="12.891935035586357">
        <ele>559.14001499999995</ele>
        <time>2017-06-11T13:30:14Z</time>
      </trkpt>
      <trkpt lat="42.065976234152913" lon="12.891934113577008">
        <ele>558.17999299999997</ele>
        <time>2017-06-11T13:30:54Z</time>
      </trkpt>
      <trkpt lat="42.065972127020359" lon="12.892026482149959">
        <ele>556.73999000000003</ele>
        <time>2017-06-11T13:31:22Z</time>
      </trkpt>
      <trkpt lat="42.066035578027368" lon="12.892133016139269">
        <ele>553.85998500000005</ele>
        <time>2017-06-11T13:31:36Z</time>
      </trkpt>
      <trkpt lat="42.066074134781957" lon="12.892233682796359">
        <ele>550.97003199999995</ele>
        <time>2017-06-11T13:31:47Z</time>
      </trkpt>
      <trkpt lat="42.06608310341835" lon="12.892341641709208">
        <ele>549.04998799999998</ele>
        <time>2017-06-11T13:32:02Z</time>
      </trkpt>
      <trkpt lat="42.066099783405662" lon="12.892480194568634">
        <ele>546.64996299999996</ele>
        <time>2017-06-11T13:32:18Z</time>
      </trkpt>
      <trkpt lat="42.066127359867096" lon="12.892599385231733">
        <ele>545.69000200000005</ele>
        <time>2017-06-11T13:32:34Z</time>
      </trkpt>
      <trkpt lat="42.066151667386293" lon="12.892675912007689">
        <ele>543.76000999999997</ele>
        <time>2017-06-11T13:32:48Z</time>
      </trkpt>
      <trkpt lat="42.066172622144222" lon="12.892740871757269">
        <ele>542.32000700000003</ele>
        <time>2017-06-11T13:32:57Z</time>
      </trkpt>
      <trkpt lat="42.066233390942216" lon="12.89283961057663">
        <ele>539.919983</ele>
        <time>2017-06-11T13:33:11Z</time>
      </trkpt>
      <trkpt lat="42.066274210810661" lon="12.892937092110515">
        <ele>537.51000999999997</ele>
        <time>2017-06-11T13:33:26Z</time>
      </trkpt>
      <trkpt lat="42.06631570123136" lon="12.893045470118523">
        <ele>536.07000700000003</ele>
        <time>2017-06-11T13:33:36Z</time>
      </trkpt>
      <trkpt lat="42.06635719165206" lon="12.893211180344224">
        <ele>533.19000200000005</ele>
        <time>2017-06-11T13:33:51Z</time>
      </trkpt>
      <trkpt lat="42.06637722440064" lon="12.893286030739546">
        <ele>530.78997800000002</ele>
        <time>2017-06-11T13:34:02Z</time>
      </trkpt>
      <trkpt lat="42.06640463322401" lon="12.893432630226016">
        <ele>527.89996299999996</ele>
        <time>2017-06-11T13:34:18Z</time>
      </trkpt>
      <trkpt lat="42.06642466597259" lon="12.89349926635623">
        <ele>525.97997999999995</ele>
        <time>2017-06-11T13:34:33Z</time>
      </trkpt>
      <trkpt lat="42.066457187756896" lon="12.893592389300466">
        <ele>523.57995600000004</ele>
        <time>2017-06-11T13:34:47Z</time>
      </trkpt>
      <trkpt lat="42.066491637378931" lon="12.893716022372246">
        <ele>520.21002199999998</ele>
        <time>2017-06-11T13:35:01Z</time>
      </trkpt>
      <trkpt lat="42.066523069515824" lon="12.893784921616316">
        <ele>518.77002000000005</ele>
        <time>2017-06-11T13:35:13Z</time>
      </trkpt>
      <trkpt lat="42.06657906062901" lon="12.893865220248699">
        <ele>516.85003700000004</ele>
        <time>2017-06-11T13:35:27Z</time>
      </trkpt>
      <trkpt lat="42.066638823598623" lon="12.893926408141851">
        <ele>514.44000200000005</ele>
        <time>2017-06-11T13:35:41Z</time>
      </trkpt>
      <trkpt lat="42.066651815548539" lon="12.893942501395941">
        <ele>513.96002199999998</ele>
        <time>2017-06-11T13:35:44Z</time>
      </trkpt>
      <trkpt lat="42.066706968471408" lon="12.894027829170227">
        <ele>512.52002000000005</ele>
        <time>2017-06-11T13:35:57Z</time>
      </trkpt>
      <trkpt lat="42.066773939877748" lon="12.894099578261375">
        <ele>510.60000600000001</ele>
        <time>2017-06-11T13:36:13Z</time>
      </trkpt>
      <trkpt lat="42.066846862435341" lon="12.894234610721469">
        <ele>508.19000199999999</ele>
        <time>2017-06-11T13:36:30Z</time>
      </trkpt>
      <trkpt lat="42.066904362291098" lon="12.894300241023302">
        <ele>506.75003099999998</ele>
        <time>2017-06-11T13:36:38Z</time>
      </trkpt>
      <trkpt lat="42.066968735307455" lon="12.894419180229306">
        <ele>505.30999800000001</ele>
        <time>2017-06-11T13:36:53Z</time>
      </trkpt>
      <trkpt lat="42.067010141909122" lon="12.894496880471706">
        <ele>504.35000600000001</ele>
        <time>2017-06-11T13:37:10Z</time>
      </trkpt>
      <trkpt lat="42.067076023668051" lon="12.894609533250332">
        <ele>502.91000400000001</ele>
        <time>2017-06-11T13:37:24Z</time>
      </trkpt>
      <trkpt lat="42.067200159654021" lon="12.894757306203246">
        <ele>501.459991</ele>
        <time>2017-06-11T13:37:41Z</time>
      </trkpt>
      <trkpt lat="42.067280877381563" lon="12.894857386127114">
        <ele>500.02001999999999</ele>
        <time>2017-06-11T13:37:55Z</time>
      </trkpt>
      <trkpt lat="42.067385986447334" lon="12.894963920116425">
        <ele>499.540009</ele>
        <time>2017-06-11T13:38:09Z</time>
      </trkpt>
      <trkpt lat="42.067522779107094" lon="12.895099371671677">
        <ele>498.57998700000002</ele>
        <time>2017-06-11T13:38:24Z</time>
      </trkpt>
      <trkpt lat="42.067634677514434" lon="12.895194925367832">
        <ele>497.61999500000002</ele>
        <time>2017-06-11T13:38:36Z</time>
      </trkpt>
      <trkpt lat="42.067708689719439" lon="12.895185789093375">
        <ele>496.17999300000002</ele>
        <time>2017-06-11T13:38:49Z</time>
      </trkpt>
      <trkpt lat="42.06772000528872" lon="12.895176820456982">
        <ele>495.70001200000002</ele>
        <time>2017-06-11T13:38:51Z</time>
      </trkpt>
      <trkpt lat="42.067799130454659" lon="12.895103059709072">
        <ele>493.290009</ele>
        <time>2017-06-11T13:39:04Z</time>
      </trkpt>
      <trkpt lat="42.06780893728137" lon="12.895099874585867">
        <ele>492.32998700000002</ele>
        <time>2017-06-11T13:39:05Z</time>
      </trkpt>
      <trkpt lat="42.067919913679361" lon="12.895083110779524">
        <ele>490.41000400000001</ele>
        <time>2017-06-11T13:39:19Z</time>
      </trkpt>
      <trkpt lat="42.068018736317754" lon="12.89514253847301">
        <ele>488.00997899999999</ele>
        <time>2017-06-11T13:39:33Z</time>
      </trkpt>
      <trkpt lat="42.068100292235613" lon="12.895227782428265">
        <ele>486.55999800000001</ele>
        <time>2017-06-11T13:39:45Z</time>
      </trkpt>
      <trkpt lat="42.068177238106728" lon="12.895316127687693">
        <ele>484.64001500000001</ele>
        <time>2017-06-11T13:39:57Z</time>
      </trkpt>
      <trkpt lat="42.068235576152802" lon="12.895412938669324">
        <ele>483.20001200000002</ele>
        <time>2017-06-11T13:40:08Z</time>
      </trkpt>
      <trkpt lat="42.068278240039945" lon="12.895536068826914">
        <ele>481.28002900000001</ele>
        <time>2017-06-11T13:40:19Z</time>
      </trkpt>
      <trkpt lat="42.068286621943116" lon="12.895568422973156">
        <ele>481.28002900000001</ele>
        <time>2017-06-11T13:40:23Z</time>
      </trkpt>
      <trkpt lat="42.068369016051292" lon="12.895685266703367">
        <ele>477.91000400000001</ele>
        <time>2017-06-11T13:40:38Z</time>
      </trkpt>
      <trkpt lat="42.068426432088017" lon="12.895743772387505">
        <ele>475.98998999999998</ele>
        <time>2017-06-11T13:40:48Z</time>
      </trkpt>
      <trkpt lat="42.068453589454293" lon="12.895905962213874">
        <ele>473.58999599999999</ele>
        <time>2017-06-11T13:41:02Z</time>
      </trkpt>
      <trkpt lat="42.068462474271655" lon="12.896052226424217">
        <ele>471.17999300000002</ele>
        <time>2017-06-11T13:41:14Z</time>
      </trkpt>
      <trkpt lat="42.068491727113724" lon="12.896104697138071">
        <ele>470.22000100000002</ele>
        <time>2017-06-11T13:41:22Z</time>
      </trkpt>
      <trkpt lat="42.068473286926746" lon="12.896298822015524">
        <ele>467.33999599999999</ele>
        <time>2017-06-11T13:41:38Z</time>
      </trkpt>
      <trkpt lat="42.068389467895031" lon="12.896407535299659">
        <ele>465.89999399999999</ele>
        <time>2017-06-11T13:41:50Z</time>
      </trkpt>
      <trkpt lat="42.06830489449203" lon="12.896485067903996">
        <ele>464.45001200000002</ele>
        <time>2017-06-11T13:42:01Z</time>
      </trkpt>
      <trkpt lat="42.06822082400322" lon="12.896574083715677">
        <ele>463.00997899999999</ele>
        <time>2017-06-11T13:42:13Z</time>
      </trkpt>
      <trkpt lat="42.068133065477014" lon="12.896727304905653">
        <ele>461.57000699999998</ele>
        <time>2017-06-11T13:42:29Z</time>
      </trkpt>
      <trkpt lat="42.068046228960156" lon="12.896852362900972">
        <ele>462.529968</ele>
        <time>2017-06-11T13:42:42Z</time>
      </trkpt>
      <trkpt lat="42.06795210018754" lon="12.897025616839528">
        <ele>463.48998999999998</ele>
        <time>2017-06-11T13:42:59Z</time>
      </trkpt>
      <trkpt lat="42.067930391058326" lon="12.897087140008807">
        <ele>464.45001200000002</ele>
        <time>2017-06-11T13:43:05Z</time>
      </trkpt>
      <trkpt lat="42.067903904244304" lon="12.897159224376082">
        <ele>464.92999300000002</ele>
        <time>2017-06-11T13:43:21Z</time>
      </trkpt>
      <trkpt lat="42.067903904244304" lon="12.897230889648199">
        <ele>465.42001299999998</ele>
        <time>2017-06-11T13:43:28Z</time>
      </trkpt>
      <trkpt lat="42.067837100476027" lon="12.897448902949691">
        <ele>466.38000499999998</ele>
        <time>2017-06-11T13:43:48Z</time>
      </trkpt>
      <trkpt lat="42.067791419103742" lon="12.897616038098931">
        <ele>466.38000499999998</ele>
        <time>2017-06-11T13:44:02Z</time>
      </trkpt>
      <trkpt lat="42.067723860964179" lon="12.897791219875216">
        <ele>466.85998499999999</ele>
        <time>2017-06-11T13:44:16Z</time>
      </trkpt>
      <trkpt lat="42.06770047545433" lon="12.897884929552674">
        <ele>466.85998499999999</ele>
        <time>2017-06-11T13:44:24Z</time>
      </trkpt>
      <trkpt lat="42.067643981426954" lon="12.897888701409101">
        <ele>466.85998499999999</ele>
        <time>2017-06-11T13:44:31Z</time>
      </trkpt>
      <trkpt lat="42.067622020840645" lon="12.89788031950593">
        <ele>466.85998499999999</ele>
        <time>2017-06-11T13:44:34Z</time>
      </trkpt>
      <trkpt lat="42.06756804138422" lon="12.897846372798085">
        <ele>466.85998499999999</ele>
        <time>2017-06-11T13:44:41Z</time>
      </trkpt>
      <trkpt lat="42.067508529871702" lon="12.897802786901593">
        <ele>466.85998499999999</ele>
        <time>2017-06-11T13:44:48Z</time>
      </trkpt>
      <trkpt lat="42.067487658932805" lon="12.897792560979724">
        <ele>466.38000499999998</ele>
        <time>2017-06-11T13:44:50Z</time>
      </trkpt>
      <trkpt lat="42.06743560731411" lon="12.897773534059525">
        <ele>466.38000499999998</ele>
        <time>2017-06-11T13:44:55Z</time>
      </trkpt>
      <trkpt lat="42.067415239289403" lon="12.897765068337321">
        <ele>466.38000499999998</ele>
        <time>2017-06-11T13:44:57Z</time>
      </trkpt>
      <trkpt lat="42.067373329773545" lon="12.897735899314284">
        <ele>466.38000499999998</ele>
        <time>2017-06-11T13:45:02Z</time>
      </trkpt>
      <trkpt lat="42.067293534055352" lon="12.897745789960027">
        <ele>466.38000499999998</ele>
        <time>2017-06-11T13:45:10Z</time>
      </trkpt>
      <trkpt lat="42.067200494930148" lon="12.897810162976384">
        <ele>466.38000499999998</ele>
        <time>2017-06-11T13:45:21Z</time>
      </trkpt>
      <trkpt lat="42.067148191854358" lon="12.897842768579721">
        <ele>466.38000499999998</ele>
        <time>2017-06-11T13:45:27Z</time>
      </trkpt>
      <trkpt lat="42.067130003124475" lon="12.897856933996081">
        <ele>466.38000499999998</ele>
        <time>2017-06-11T13:45:29Z</time>
      </trkpt>
      <trkpt lat="42.067095134407282" lon="12.897891299799085">
        <ele>466.85998499999999</ele>
        <time>2017-06-11T13:45:33Z</time>
      </trkpt>
      <trkpt lat="42.067077783867717" lon="12.897906471043825">
        <ele>466.85998499999999</ele>
        <time>2017-06-11T13:45:35Z</time>
      </trkpt>
      <trkpt lat="42.067045597359538" lon="12.897941339761019">
        <ele>466.38000499999998</ele>
        <time>2017-06-11T13:45:39Z</time>
      </trkpt>
      <trkpt lat="42.067006537690759" lon="12.897971179336309">
        <ele>466.38000499999998</ele>
        <time>2017-06-11T13:45:44Z</time>
      </trkpt>
      <trkpt lat="42.066885335370898" lon="12.898056171834469">
        <ele>466.85998499999999</ele>
        <time>2017-06-11T13:45:58Z</time>
      </trkpt>
      <trkpt lat="42.066768407821655" lon="12.898143092170358">
        <ele>467.33999599999999</ele>
        <time>2017-06-11T13:46:11Z</time>
      </trkpt>
      <trkpt lat="42.066638739779592" lon="12.898224899545312">
        <ele>467.82000699999998</ele>
        <time>2017-06-11T13:46:24Z</time>
      </trkpt>
      <trkpt lat="42.066600099205971" lon="12.898257086053491">
        <ele>467.82000699999998</ele>
        <time>2017-06-11T13:46:28Z</time>
      </trkpt>
      <trkpt lat="42.066539162769914" lon="12.898290529847145">
        <ele>467.82000699999998</ele>
        <time>2017-06-11T13:46:34Z</time>
      </trkpt>
      <trkpt lat="42.066414104774594" lon="12.898369990289211">
        <ele>467.82000699999998</ele>
        <time>2017-06-11T13:46:47Z</time>
      </trkpt>
      <trkpt lat="42.06635576672852" lon="12.898421622812748">
        <ele>467.82000699999998</ele>
        <time>2017-06-11T13:46:54Z</time>
      </trkpt>
      <trkpt lat="42.066278485581279" lon="12.898475266993046">
        <ele>467.82000699999998</ele>
        <time>2017-06-11T13:47:03Z</time>
      </trkpt>
      <trkpt lat="42.066236324608326" lon="12.898396896198392">
        <ele>467.82000699999998</ele>
        <time>2017-06-11T13:47:14Z</time>
      </trkpt>
      <trkpt lat="42.066243113949895" lon="12.898394884541631">
        <ele>467.33999599999999</ele>
        <time>2017-06-11T13:47:36Z</time>
      </trkpt>
      <trkpt lat="42.066223416477442" lon="12.89838164113462">
        <ele>468.30001800000002</ele>
        <time>2017-06-11T13:47:58Z</time>
      </trkpt>
      <trkpt lat="42.066266164183617" lon="12.898423299193382">
        <ele>467.82000699999998</ele>
        <time>2017-06-11T13:48:36Z</time>
      </trkpt>
      <trkpt lat="42.06628879532218" lon="12.89845590479672">
        <ele>467.82000699999998</ele>
        <time>2017-06-11T13:48:47Z</time>
      </trkpt>
      <trkpt lat="42.066288376227021" lon="12.898461939767003">
        <ele>466.38000499999998</ele>
        <time>2017-06-11T13:48:50Z</time>
      </trkpt>
      <trkpt lat="42.066290136426687" lon="12.898455234244466">
        <ele>465.89999399999999</ele>
        <time>2017-06-11T13:49:03Z</time>
      </trkpt>
      <trkpt lat="42.066281838342547" lon="12.898475602269173">
        <ele>465.89999399999999</ele>
        <time>2017-06-11T13:49:09Z</time>
      </trkpt>
      <trkpt lat="42.066240515559912" lon="12.898521199822426">
        <ele>465.42001299999998</ele>
        <time>2017-06-11T13:49:20Z</time>
      </trkpt>
      <trkpt lat="42.066244203597307" lon="12.898523882031441">
        <ele>465.42001299999998</ele>
        <time>2017-06-11T13:49:21Z</time>
      </trkpt>
      <trkpt lat="42.066253507509828" lon="12.898594122380018">
        <ele>465.42001299999998</ele>
        <time>2017-06-11T13:49:34Z</time>
      </trkpt>
      <trkpt lat="42.066316120326519" lon="12.898706858977675">
        <ele>463.00997899999999</ele>
        <time>2017-06-11T13:49:48Z</time>
      </trkpt>
      <trkpt lat="42.066338919103146" lon="12.898757988587022">
        <ele>463.00997899999999</ele>
        <time>2017-06-11T13:49:53Z</time>
      </trkpt>
      <trkpt lat="42.066355012357235" lon="12.898879107087851">
        <ele>462.05001800000002</ele>
        <time>2017-06-11T13:50:04Z</time>
      </trkpt>
      <trkpt lat="42.066369177773595" lon="12.898938534781337">
        <ele>461.57000699999998</ele>
        <time>2017-06-11T13:50:08Z</time>
      </trkpt>
      <trkpt lat="42.06633523106575" lon="12.899100305512547">
        <ele>460.60998499999999</ele>
        <time>2017-06-11T13:50:20Z</time>
      </trkpt>
      <trkpt lat="42.066190559417009" lon="12.899297112599015">
        <ele>459.64999399999999</ele>
        <time>2017-06-11T13:50:39Z</time>
      </trkpt>
      <trkpt lat="42.066082181409001" lon="12.899444298818707">
        <ele>458.209991</ele>
        <time>2017-06-11T13:50:54Z</time>
      </trkpt>
      <trkpt lat="42.066070195287466" lon="12.899464918300509">
        <ele>458.209991</ele>
        <time>2017-06-11T13:50:56Z</time>
      </trkpt>
      <trkpt lat="42.06601177342236" lon="12.899648984894156">
        <ele>454.83999599999999</ele>
        <time>2017-06-11T13:51:12Z</time>
      </trkpt>
      <trkpt lat="42.066009175032377" lon="12.899660971015692">
        <ele>454.83999599999999</ele>
        <time>2017-06-11T13:51:13Z</time>
      </trkpt>
      <trkpt lat="42.065993081778288" lon="12.899777228012681">
        <ele>453.39999399999999</ele>
        <time>2017-06-11T13:51:28Z</time>
      </trkpt>
      <trkpt lat="42.065981598570943" lon="12.899903124198318">
        <ele>451.959991</ele>
        <time>2017-06-11T13:51:39Z</time>
      </trkpt>
      <trkpt lat="42.065980928018689" lon="12.900058859959245">
        <ele>450.51998900000001</ele>
        <time>2017-06-11T13:51:52Z</time>
      </trkpt>
      <trkpt lat="42.066014371812344" lon="12.900140834972262">
        <ele>449.07000699999998</ele>
        <time>2017-06-11T13:52:05Z</time>
      </trkpt>
      <trkpt lat="42.066091317683458" lon="12.900281064212322">
        <ele>446.67001299999998</ele>
        <time>2017-06-11T13:52:19Z</time>
      </trkpt>
      <trkpt lat="42.066135406494141" lon="12.900370666757226">
        <ele>445.709991</ele>
        <time>2017-06-11T13:52:27Z</time>
      </trkpt>
      <trkpt lat="42.066255016252398" lon="12.900472758337855">
        <ele>442.82000699999998</ele>
        <time>2017-06-11T13:52:44Z</time>
      </trkpt>
      <trkpt lat="42.066328022629023" lon="12.900522965937853">
        <ele>441.85998499999999</ele>
        <time>2017-06-11T13:52:55Z</time>
      </trkpt>
      <trkpt lat="42.066416367888451" lon="12.900671074166894">
        <ele>440.89999399999999</ele>
        <time>2017-06-11T13:53:07Z</time>
      </trkpt>
      <trkpt lat="42.066447883844376" lon="12.900756821036339">
        <ele>439.94000199999999</ele>
        <time>2017-06-11T13:53:15Z</time>
      </trkpt>
      <trkpt lat="42.066470934078097" lon="12.90086193010211">
        <ele>439.94000199999999</ele>
        <time>2017-06-11T13:53:22Z</time>
      </trkpt>
      <trkpt lat="42.066522985696793" lon="12.90103149600327">
        <ele>439.459991</ele>
        <time>2017-06-11T13:53:35Z</time>
      </trkpt>
      <trkpt lat="42.066546371206641" lon="12.90114289149642">
        <ele>439.459991</ele>
        <time>2017-06-11T13:53:45Z</time>
      </trkpt>
      <trkpt lat="42.06654486246407" lon="12.901317570358515">
        <ele>439.459991</ele>
        <time>2017-06-11T13:53:58Z</time>
      </trkpt>
      <trkpt lat="42.066526422277093" lon="12.901445981115103">
        <ele>439.459991</ele>
        <time>2017-06-11T13:54:13Z</time>
      </trkpt>
      <trkpt lat="42.066513011232018" lon="12.901485459879041">
        <ele>439.459991</ele>
        <time>2017-06-11T13:54:27Z</time>
      </trkpt>
      <trkpt lat="42.06648426130414" lon="12.901583863422275">
        <ele>441.38000499999998</ele>
        <time>2017-06-11T13:54:39Z</time>
      </trkpt>
      <trkpt lat="42.066424414515495" lon="12.901678578928113">
        <ele>442.33999599999999</ele>
        <time>2017-06-11T13:54:53Z</time>
      </trkpt>
      <trkpt lat="42.066376218572259" lon="12.901711268350482">
        <ele>443.30999800000001</ele>
        <time>2017-06-11T13:55:08Z</time>
      </trkpt>
      <trkpt lat="42.066373536363244" lon="12.90174001827836">
        <ele>443.30999800000001</ele>
        <time>2017-06-11T13:55:24Z</time>
      </trkpt>
      <trkpt lat="42.066396335139871" lon="12.901737587526441">
        <ele>442.82000699999998</ele>
        <time>2017-06-11T13:55:38Z</time>
      </trkpt>
      <trkpt lat="42.06638703122735" lon="12.901725601404905">
        <ele>442.82000699999998</ele>
        <time>2017-06-11T13:55:53Z</time>
      </trkpt>
      <trkpt lat="42.066369177773595" lon="12.901713363826275">
        <ele>442.82000699999998</ele>
        <time>2017-06-11T13:55:55Z</time>
      </trkpt>
      <trkpt lat="42.066310839727521" lon="12.901708586141467">
        <ele>442.82000699999998</ele>
        <time>2017-06-11T13:56:01Z</time>
      </trkpt>
      <trkpt lat="42.0662238355726" lon="12.901628706604242">
        <ele>442.82000699999998</ele>
        <time>2017-06-11T13:56:13Z</time>
      </trkpt>
      <trkpt lat="42.066231295466423" lon="12.901609931141138">
        <ele>442.82000699999998</ele>
        <time>2017-06-11T13:56:28Z</time>
      </trkpt>
      <trkpt lat="42.066256273537874" lon="12.901614876464009">
        <ele>442.33999599999999</ele>
        <time>2017-06-11T13:56:57Z</time>
      </trkpt>
      <trkpt lat="42.066246634349227" lon="12.901617223396897">
        <ele>442.33999599999999</ele>
        <time>2017-06-11T13:57:24Z</time>
      </trkpt>
      <trkpt lat="42.066122833639383" lon="12.901625940576196">
        <ele>442.33999599999999</ele>
        <time>2017-06-11T13:57:38Z</time>
      </trkpt>
      <trkpt lat="42.066029878333211" lon="12.9016671795398">
        <ele>442.82000699999998</ele>
        <time>2017-06-11T13:57:47Z</time>
      </trkpt>
      <trkpt lat="42.065998697653413" lon="12.901683691889048">
        <ele>442.82000699999998</ele>
        <time>2017-06-11T13:57:50Z</time>
      </trkpt>
      <trkpt lat="42.065853774547577" lon="12.901754602789879">
        <ele>443.30999800000001</ele>
        <time>2017-06-11T13:58:05Z</time>
      </trkpt>
      <trkpt lat="42.065709941089153" lon="12.901859125122428">
        <ele>443.30999800000001</ele>
        <time>2017-06-11T13:58:20Z</time>
      </trkpt>
      <trkpt lat="42.065601563081145" lon="12.901994325220585">
        <ele>441.38000499999998</ele>
        <time>2017-06-11T13:58:36Z</time>
      </trkpt>
      <trkpt lat="42.065451359376311" lon="12.902194736525416">
        <ele>439.94000199999999</ele>
        <time>2017-06-11T13:58:53Z</time>
      </trkpt>
      <trkpt lat="42.065332168713212" lon="12.902337815612555">
        <ele>438.01998900000001</ele>
        <time>2017-06-11T13:59:07Z</time>
      </trkpt>
      <trkpt lat="42.065218174830079" lon="12.902474859729409">
        <ele>435.60998499999999</ele>
        <time>2017-06-11T13:59:23Z</time>
      </trkpt>
      <trkpt lat="42.06510879099369" lon="12.902620621025562">
        <ele>432.73001099999999</ele>
        <time>2017-06-11T13:59:39Z</time>
      </trkpt>
      <trkpt lat="42.065000832080841" lon="12.902730507776141">
        <ele>431.28997800000002</ele>
        <time>2017-06-11T13:59:52Z</time>
      </trkpt>
      <trkpt lat="42.064936459064484" lon="12.902814159169793">
        <ele>429.85000600000001</ele>
        <time>2017-06-11T14:00:00Z</time>
      </trkpt>
      <trkpt lat="42.06486638635397" lon="12.9029899276793">
        <ele>427.92001299999998</ele>
        <time>2017-06-11T14:00:15Z</time>
      </trkpt>
      <trkpt lat="42.064837804064155" lon="12.903160164132714">
        <ele>426.48001099999999</ele>
        <time>2017-06-11T14:00:28Z</time>
      </trkpt>
      <trkpt lat="42.064814167097211" lon="12.903337860479951">
        <ele>425.03997800000002</ele>
        <time>2017-06-11T14:00:40Z</time>
      </trkpt>
      <trkpt lat="42.064794972538948" lon="12.903501391410828">
        <ele>423.11999500000002</ele>
        <time>2017-06-11T14:00:52Z</time>
      </trkpt>
      <trkpt lat="42.064854316413403" lon="12.903647739440203">
        <ele>421.68002300000001</ele>
        <time>2017-06-11T14:01:03Z</time>
      </trkpt>
      <trkpt lat="42.064906116575003" lon="12.903672968968749">
        <ele>421.68002300000001</ele>
        <time>2017-06-11T14:01:08Z</time>
      </trkpt>
      <trkpt lat="42.065024133771658" lon="12.903650840744376">
        <ele>420.709991</ele>
        <time>2017-06-11T14:01:20Z</time>
      </trkpt>
      <trkpt lat="42.065076436847448" lon="12.903661485761404">
        <ele>420.709991</ele>
        <time>2017-06-11T14:01:25Z</time>
      </trkpt>
      <trkpt lat="42.065246338024735" lon="12.903642458841205">
        <ele>420.709991</ele>
        <time>2017-06-11T14:01:40Z</time>
      </trkpt>
      <trkpt lat="42.065405091270804" lon="12.903627539053559">
        <ele>422.63998400000003</ele>
        <time>2017-06-11T14:01:55Z</time>
      </trkpt>
      <trkpt lat="42.065558228641748" lon="12.903607590124011">
        <ele>423.11999500000002</ele>
        <time>2017-06-11T14:02:10Z</time>
      </trkpt>
      <trkpt lat="42.065705079585314" lon="12.903581438586116">
        <ele>423.11999500000002</ele>
        <time>2017-06-11T14:02:25Z</time>
      </trkpt>
      <trkpt lat="42.065837681293488" lon="12.903535924851894">
        <ele>423.11999500000002</ele>
        <time>2017-06-11T14:02:40Z</time>
      </trkpt>
      <trkpt lat="42.065962739288807" lon="12.903449339792132">
        <ele>423.11999500000002</ele>
        <time>2017-06-11T14:02:54Z</time>
      </trkpt>
      <trkpt lat="42.066084863618016" lon="12.903357641771436">
        <ele>421.68002300000001</ele>
        <time>2017-06-11T14:03:06Z</time>
      </trkpt>
      <trkpt lat="42.066179160028696" lon="12.903278265148401">
        <ele>421.19000199999999</ele>
        <time>2017-06-11T14:03:17Z</time>
      </trkpt>
      <trkpt lat="42.066199360415339" lon="12.90326208807528">
        <ele>421.19000199999999</ele>
        <time>2017-06-11T14:03:19Z</time>
      </trkpt>
      <trkpt lat="42.066333219408989" lon="12.903200229629874">
        <ele>419.75</ele>
        <time>2017-06-11T14:03:33Z</time>
      </trkpt>
      <trkpt lat="42.066475711762905" lon="12.903062263503671">
        <ele>417.35000600000001</ele>
        <time>2017-06-11T14:03:50Z</time>
      </trkpt>
      <trkpt lat="42.066612336784601" lon="12.902895463630557">
        <ele>415.43002300000001</ele>
        <time>2017-06-11T14:04:07Z</time>
      </trkpt>
      <trkpt lat="42.066658437252045" lon="12.902793623507023">
        <ele>415.43002300000001</ele>
        <time>2017-06-11T14:04:15Z</time>
      </trkpt>
      <trkpt lat="42.066673440858722" lon="12.902765041217208">
        <ele>414.95001200000002</ele>
        <time>2017-06-11T14:04:17Z</time>
      </trkpt>
      <trkpt lat="42.066762205213308" lon="12.902645599097013">
        <ele>413.5</ele>
        <time>2017-06-11T14:04:28Z</time>
      </trkpt>
      <trkpt lat="42.066801516339183" lon="12.902755318209529">
        <ele>412.53997800000002</ele>
        <time>2017-06-11T14:04:37Z</time>
      </trkpt>
      <trkpt lat="42.066757259890437" lon="12.902947934344411">
        <ele>412.53997800000002</ele>
        <time>2017-06-11T14:04:50Z</time>
      </trkpt>
      <trkpt lat="42.066678637638688" lon="12.903148764744401">
        <ele>412.05999800000001</ele>
        <time>2017-06-11T14:05:04Z</time>
      </trkpt>
      <trkpt lat="42.066591633483768" lon="12.903311960399151">
        <ele>411.580017</ele>
        <time>2017-06-11T14:05:17Z</time>
      </trkpt>
      <trkpt lat="42.066574534401298" lon="12.903348505496979">
        <ele>411.580017</ele>
        <time>2017-06-11T14:05:20Z</time>
      </trkpt>
      <trkpt lat="42.066510329023004" lon="12.903505330905318">
        <ele>411.10000600000001</ele>
        <time>2017-06-11T14:05:31Z</time>
      </trkpt>
      <trkpt lat="42.066423576325178" lon="12.903603734448552">
        <ele>411.10000600000001</ele>
        <time>2017-06-11T14:05:41Z</time>
      </trkpt>
      <trkpt lat="42.066433802247047" lon="12.903761314228177">
        <ele>409.18002300000001</ele>
        <time>2017-06-11T14:05:53Z</time>
      </trkpt>
      <trkpt lat="42.066482836380601" lon="12.903963988646865">
        <ele>406.76998900000001</ele>
        <time>2017-06-11T14:06:08Z</time>
      </trkpt>
      <trkpt lat="42.066463641822338" lon="12.904137661680579">
        <ele>405.330017</ele>
        <time>2017-06-11T14:06:19Z</time>
      </trkpt>
      <trkpt lat="42.066445033997297" lon="12.904191808775067">
        <ele>405.330017</ele>
        <time>2017-06-11T14:06:23Z</time>
      </trkpt>
      <trkpt lat="42.066386863589287" lon="12.904286775738001">
        <ele>404.85000600000001</ele>
        <time>2017-06-11T14:06:31Z</time>
      </trkpt>
      <trkpt lat="42.066374458372593" lon="12.904303791001439">
        <ele>404.85000600000001</ele>
        <time>2017-06-11T14:06:46Z</time>
      </trkpt>
      <trkpt lat="42.066375212743878" lon="12.904371181502938">
        <ele>404.85000600000001</ele>
        <time>2017-06-11T14:06:50Z</time>
      </trkpt>
      <trkpt lat="42.066315114498138" lon="12.90462976321578">
        <ele>404.85000600000001</ele>
        <time>2017-06-11T14:07:07Z</time>
      </trkpt>
      <trkpt lat="42.066256441175938" lon="12.90478658862412">
        <ele>404.36999500000002</ele>
        <time>2017-06-11T14:07:18Z</time>
      </trkpt>
      <trkpt lat="42.066169437021017" lon="12.904743505641818">
        <ele>403.88998400000003</ele>
        <time>2017-06-11T14:07:29Z</time>
      </trkpt>
      <trkpt lat="42.066168431192636" lon="12.904701428487897">
        <ele>403.88998400000003</ele>
        <time>2017-06-11T14:07:39Z</time>
      </trkpt>
      <trkpt lat="42.066187877207994" lon="12.904715593904257">
        <ele>403.88998400000003</ele>
        <time>2017-06-11T14:07:42Z</time>
      </trkpt>
      <trkpt lat="42.066197181120515" lon="12.904699500650167">
        <ele>403.88998400000003</ele>
        <time>2017-06-11T14:07:44Z</time>
      </trkpt>
      <trkpt lat="42.066176477819681" lon="12.904635882005095">
        <ele>403.88998400000003</ele>
        <time>2017-06-11T14:07:55Z</time>
      </trkpt>
      <trkpt lat="42.066141441464424" lon="12.904530018568039">
        <ele>403.41000400000001</ele>
        <time>2017-06-11T14:08:15Z</time>
      </trkpt>
      <trkpt lat="42.066147392615676" lon="12.90446606464684">
        <ele>403.41000400000001</ele>
        <time>2017-06-11T14:08:38Z</time>
      </trkpt>
      <trkpt lat="42.06607329659164" lon="12.904471680521965">
        <ele>402.93002300000001</ele>
        <time>2017-06-11T14:09:03Z</time>
      </trkpt>
      <trkpt lat="42.06610020250082" lon="12.904486432671547">
        <ele>402.45001200000002</ele>
        <time>2017-06-11T14:09:30Z</time>
      </trkpt>
      <trkpt lat="42.066099783405662" lon="12.90448852814734">
        <ele>401.97000100000002</ele>
        <time>2017-06-11T14:09:58Z</time>
      </trkpt>
      <trkpt lat="42.066159462556243" lon="12.904418623074889">
        <ele>401.48998999999998</ele>
        <time>2017-06-11T14:10:27Z</time>
      </trkpt>
      <trkpt lat="42.066137418150902" lon="12.90442893281579">
        <ele>401.48998999999998</ele>
        <time>2017-06-11T14:10:59Z</time>
      </trkpt>
      <trkpt lat="42.066040271893144" lon="12.904517697170377">
        <ele>401.01001000000002</ele>
        <time>2017-06-11T14:11:22Z</time>
      </trkpt>
      <trkpt lat="42.066077906638384" lon="12.9045613668859">
        <ele>401.01001000000002</ele>
        <time>2017-06-11T14:11:54Z</time>
      </trkpt>
      <trkpt lat="42.066162982955575" lon="12.904415437951684">
        <ele>400.52999899999998</ele>
        <time>2017-06-11T14:12:25Z</time>
      </trkpt>
      <trkpt lat="42.066093916073442" lon="12.904514595866203">
        <ele>400.04998799999998</ele>
        <time>2017-06-11T14:13:03Z</time>
      </trkpt>
      <trkpt lat="42.066151583567262" lon="12.904481403529644">
        <ele>400.04998799999998</ele>
        <time>2017-06-11T14:13:33Z</time>
      </trkpt>
      <trkpt lat="42.066168934106827" lon="12.90443773381412">
        <ele>399.57000699999998</ele>
        <time>2017-06-11T14:13:58Z</time>
      </trkpt>
      <trkpt lat="42.066157199442387" lon="12.904395405203104">
        <ele>399.57000699999998</ele>
        <time>2017-06-11T14:14:25Z</time>
      </trkpt>
      <trkpt lat="42.066155858337879" lon="12.904311334714293">
        <ele>400.04998799999998</ele>
        <time>2017-06-11T14:14:52Z</time>
      </trkpt>
      <trkpt lat="42.066174633800983" lon="12.904783068224788">
        <ele>407.73998999999998</ele>
        <time>2017-06-12T06:14:05Z</time>
      </trkpt>
      <trkpt lat="42.066176561638713" lon="12.904782565310597">
        <ele>407.73998999999998</ele>
        <time>2017-06-12T06:14:06Z</time>
      </trkpt>
      <trkpt lat="42.066158959642053" lon="12.904769740998745">
        <ele>406.76998900000001</ele>
        <time>2017-06-12T06:14:32Z</time>
      </trkpt>
      <trkpt lat="42.0661979354918" lon="12.904768735170364">
        <ele>406.28997800000002</ele>
        <time>2017-06-12T06:15:00Z</time>
      </trkpt>
      <trkpt lat="42.066216375678778" lon="12.904763873666525">
        <ele>406.28997800000002</ele>
        <time>2017-06-12T06:15:18Z</time>
      </trkpt>
      <trkpt lat="42.066303715109825" lon="12.904717437922955">
        <ele>406.28997800000002</ele>
        <time>2017-06-12T06:15:46Z</time>
      </trkpt>
      <trkpt lat="42.066287621855736" lon="12.904758593067527">
        <ele>406.28997800000002</ele>
        <time>2017-06-12T06:16:18Z</time>
      </trkpt>
      <trkpt lat="42.066257111728191" lon="12.904656585305929">
        <ele>406.28997800000002</ele>
        <time>2017-06-12T06:16:30Z</time>
      </trkpt>
      <trkpt lat="42.066287370398641" lon="12.904451228678226">
        <ele>406.28997800000002</ele>
        <time>2017-06-12T06:16:45Z</time>
      </trkpt>
      <trkpt lat="42.066321903839707" lon="12.904395991936326">
        <ele>406.28997800000002</ele>
        <time>2017-06-12T06:16:49Z</time>
      </trkpt>
      <trkpt lat="42.066380912438035" lon="12.904180074110627">
        <ele>405.80999800000001</ele>
        <time>2017-06-12T06:17:04Z</time>
      </trkpt>
      <trkpt lat="42.066404465585947" lon="12.904106313362718">
        <ele>407.26001000000002</ele>
        <time>2017-06-12T06:17:08Z</time>
      </trkpt>
      <trkpt lat="42.066389881074429" lon="12.904030038043857">
        <ele>407.73998999999998</ele>
        <time>2017-06-12T06:17:15Z</time>
      </trkpt>
      <trkpt lat="42.066377559676766" lon="12.903961641713977">
        <ele>408.22000100000002</ele>
        <time>2017-06-12T06:17:19Z</time>
      </trkpt>
      <trkpt lat="42.066337410360575" lon="12.903750417754054">
        <ele>410.61999500000002</ele>
        <time>2017-06-12T06:17:36Z</time>
      </trkpt>
      <trkpt lat="42.066367669031024" lon="12.903622509911656">
        <ele>412.05999800000001</ele>
        <time>2017-06-12T06:17:46Z</time>
      </trkpt>
      <trkpt lat="42.066524913534522" lon="12.903403239324689">
        <ele>413.01998900000001</ele>
        <time>2017-06-12T06:18:03Z</time>
      </trkpt>
      <trkpt lat="42.066670758649707" lon="12.903134515509009">
        <ele>413.01998900000001</ele>
        <time>2017-06-12T06:18:21Z</time>
      </trkpt>
      <trkpt lat="42.066681906580925" lon="12.903041141107678">
        <ele>413.5</ele>
        <time>2017-06-12T06:18:28Z</time>
      </trkpt>
      <trkpt lat="42.066704537719488" lon="12.902960423380136">
        <ele>413.5</ele>
        <time>2017-06-12T06:18:33Z</time>
      </trkpt>
      <trkpt lat="42.066800175234675" lon="12.902627997100353">
        <ele>413.98001099999999</ele>
        <time>2017-06-12T06:18:51Z</time>
      </trkpt>
      <trkpt lat="42.066872091963887" lon="12.902469076216221">
        <ele>413.98001099999999</ele>
        <time>2017-06-12T06:19:06Z</time>
      </trkpt>
      <trkpt lat="42.066892208531499" lon="12.902427585795522">
        <ele>413.98001099999999</ele>
        <time>2017-06-12T06:19:09Z</time>
      </trkpt>
      <trkpt lat="42.067047106102109" lon="12.902149390429258">
        <ele>414.47000100000002</ele>
        <time>2017-06-12T06:19:26Z</time>
      </trkpt>
      <trkpt lat="42.067234106361866" lon="12.901884270831943">
        <ele>413.98001099999999</ele>
        <time>2017-06-12T06:19:43Z</time>
      </trkpt>
      <trkpt lat="42.067352961748838" lon="12.901780921965837">
        <ele>413.98001099999999</ele>
        <time>2017-06-12T06:19:57Z</time>
      </trkpt>
      <trkpt lat="42.069066306576133" lon="12.904170686379075">
        <ele>413.01998900000001</ele>
        <time>2017-06-12T06:26:36Z</time>
      </trkpt>
      <trkpt lat="42.06906370818615" lon="12.904173200950027">
        <ele>413.01998900000001</ele>
        <time>2017-06-12T06:26:37Z</time>
      </trkpt>
      <trkpt lat="42.069029761478305" lon="12.904105391353369">
        <ele>410.13998400000003</ele>
        <time>2017-06-12T06:27:02Z</time>
      </trkpt>
      <trkpt lat="42.069012830033898" lon="12.90407664142549">
        <ele>407.26001000000002</ele>
        <time>2017-06-12T06:27:08Z</time>
      </trkpt>
      <trkpt lat="42.068971088156104" lon="12.904053004458547">
        <ele>404.85000600000001</ele>
        <time>2017-06-12T06:27:37Z</time>
      </trkpt>
      <trkpt lat="42.068993216380477" lon="12.90406976826489">
        <ele>404.85000600000001</ele>
        <time>2017-06-12T06:28:05Z</time>
      </trkpt>
      <trkpt lat="42.068983158096671" lon="12.904126094654202">
        <ele>404.36999500000002</ele>
        <time>2017-06-12T06:28:22Z</time>
      </trkpt>
      <trkpt lat="42.06897527910769" lon="12.904209829866886">
        <ele>404.36999500000002</ele>
        <time>2017-06-12T06:28:27Z</time>
      </trkpt>
      <trkpt lat="42.068919958546758" lon="12.904556002467871">
        <ele>404.36999500000002</ele>
        <time>2017-06-12T06:28:47Z</time>
      </trkpt>
      <trkpt lat="42.068919120356441" lon="12.904759263619781">
        <ele>404.36999500000002</ele>
        <time>2017-06-12T06:28:58Z</time>
      </trkpt>
      <trkpt lat="42.068908978253603" lon="12.905035028234124">
        <ele>403.88998400000003</ele>
        <time>2017-06-12T06:29:12Z</time>
      </trkpt>
      <trkpt lat="42.068865140900016" lon="12.905369466170669">
        <ele>403.88998400000003</ele>
        <time>2017-06-12T06:29:30Z</time>
      </trkpt>
      <trkpt lat="42.068809065967798" lon="12.905701640993357">
        <ele>403.88998400000003</ele>
        <time>2017-06-12T06:29:50Z</time>
      </trkpt>
      <trkpt lat="42.068804539740086" lon="12.905761487782001">
        <ele>405.330017</ele>
        <time>2017-06-12T06:29:55Z</time>
      </trkpt>
      <trkpt lat="42.068745782598853" lon="12.905932394787669">
        <ele>405.80999800000001</ele>
        <time>2017-06-12T06:30:06Z</time>
      </trkpt>
      <trkpt lat="42.068642685189843" lon="12.906157867982984">
        <ele>406.76998900000001</ele>
        <time>2017-06-12T06:30:21Z</time>
      </trkpt>
      <trkpt lat="42.068558363243937" lon="12.90635752491653">
        <ele>408.22000100000002</ele>
        <time>2017-06-12T06:30:37Z</time>
      </trkpt>
      <trkpt lat="42.06848275847733" lon="12.906562797725201">
        <ele>411.10000600000001</ele>
        <time>2017-06-12T06:30:54Z</time>
      </trkpt>
      <trkpt lat="42.068371865898371" lon="12.906732866540551">
        <ele>413.01998900000001</ele>
        <time>2017-06-12T06:31:10Z</time>
      </trkpt>
      <trkpt lat="42.068291315808892" lon="12.90676161646843">
        <ele>413.5</ele>
        <time>2017-06-12T06:31:16Z</time>
      </trkpt>
      <trkpt lat="42.068136837333441" lon="12.90689111687243">
        <ele>414.95001200000002</ele>
        <time>2017-06-12T06:31:32Z</time>
      </trkpt>
      <trkpt lat="42.06800146959722" lon="12.907070238143206">
        <ele>417.35000600000001</ele>
        <time>2017-06-12T06:31:48Z</time>
      </trkpt>
      <trkpt lat="42.067884709686041" lon="12.907185740768909">
        <ele>418.78997800000002</ele>
        <time>2017-06-12T06:32:03Z</time>
      </trkpt>
      <trkpt lat="42.067736936733127" lon="12.907283138483763">
        <ele>421.19000199999999</ele>
        <time>2017-06-12T06:32:18Z</time>
      </trkpt>
      <trkpt lat="42.067610621452332" lon="12.907464858144522">
        <ele>422.63998400000003</ele>
        <time>2017-06-12T06:32:35Z</time>
      </trkpt>
      <trkpt lat="42.067540381103754" lon="12.907703993842006">
        <ele>425.03997800000002</ele>
        <time>2017-06-12T06:32:52Z</time>
      </trkpt>
      <trkpt lat="42.067487826570868" lon="12.907925024628639">
        <ele>426</ele>
        <time>2017-06-12T06:33:08Z</time>
      </trkpt>
      <trkpt lat="42.067377269268036" lon="12.90814395993948">
        <ele>427.44000199999999</ele>
        <time>2017-06-12T06:33:23Z</time>
      </trkpt>
      <trkpt lat="42.067378023639321" lon="12.908157538622618">
        <ele>427.44000199999999</ele>
        <time>2017-06-12T06:33:24Z</time>
      </trkpt>
      <trkpt lat="42.067308705300093" lon="12.908429363742471">
        <ele>428.39999399999999</ele>
        <time>2017-06-12T06:33:41Z</time>
      </trkpt>
      <trkpt lat="42.067269561812282" lon="12.908711079508066">
        <ele>430.330017</ele>
        <time>2017-06-12T06:33:57Z</time>
      </trkpt>
      <trkpt lat="42.067266292870045" lon="12.908761790022254">
        <ele>430.330017</ele>
        <time>2017-06-12T06:34:02Z</time>
      </trkpt>
      <trkpt lat="42.067256737500429" lon="12.908819625154138">
        <ele>431.28997800000002</ele>
        <time>2017-06-12T06:34:06Z</time>
      </trkpt>
      <trkpt lat="42.067237794399261" lon="12.909096227958798">
        <ele>433.69000199999999</ele>
        <time>2017-06-12T06:34:25Z</time>
      </trkpt>
      <trkpt lat="42.067208373919129" lon="12.909340308979154">
        <ele>435.13000499999998</ele>
        <time>2017-06-12T06:34:42Z</time>
      </trkpt>
      <trkpt lat="42.067173840478063" lon="12.909456063061953">
        <ele>435.60998499999999</ele>
        <time>2017-06-12T06:34:49Z</time>
      </trkpt>
      <trkpt lat="42.067082561552525" lon="12.909642392769456">
        <ele>437.05999800000001</ele>
        <time>2017-06-12T06:35:05Z</time>
      </trkpt>
      <trkpt lat="42.066932106390595" lon="12.909675668925047">
        <ele>438.5</ele>
        <time>2017-06-12T06:35:19Z</time>
      </trkpt>
      <trkpt lat="42.066783076152205" lon="12.909669801592827">
        <ele>440.89999399999999</ele>
        <time>2017-06-12T06:35:34Z</time>
      </trkpt>
      <trkpt lat="42.066621221601963" lon="12.90967726148665">
        <ele>443.30999800000001</ele>
        <time>2017-06-12T06:35:50Z</time>
      </trkpt>
      <trkpt lat="42.066524662077427" lon="12.909751860424876">
        <ele>445.709991</ele>
        <time>2017-06-12T06:36:06Z</time>
      </trkpt>
      <trkpt lat="42.066412260755897" lon="12.909883037209511">
        <ele>448.10998499999999</ele>
        <time>2017-06-12T06:36:23Z</time>
      </trkpt>
      <trkpt lat="42.066322490572929" lon="12.909997701644897">
        <ele>450.51998900000001</ele>
        <time>2017-06-12T06:36:37Z</time>
      </trkpt>
      <trkpt lat="42.066328106448054" lon="12.91001345962286">
        <ele>450.51998900000001</ele>
        <time>2017-06-12T06:36:41Z</time>
      </trkpt>
      <trkpt lat="42.066266164183617" lon="12.910161064937711">
        <ele>452.44000199999999</ele>
        <time>2017-06-12T06:36:55Z</time>
      </trkpt>
      <trkpt lat="42.06617689691484" lon="12.910305066034198">
        <ele>453.88000499999998</ele>
        <time>2017-06-12T06:37:08Z</time>
      </trkpt>
      <trkpt lat="42.066072206944227" lon="12.910471698269248">
        <ele>456.75997899999999</ele>
        <time>2017-06-12T06:37:24Z</time>
      </trkpt>
      <trkpt lat="42.066005570814013" lon="12.910583429038525">
        <ele>458.209991</ele>
        <time>2017-06-12T06:37:36Z</time>
      </trkpt>
      <trkpt lat="42.065946059301496" lon="12.910728268325329">
        <ele>460.60998499999999</ele>
        <time>2017-06-12T06:37:50Z</time>
      </trkpt>
      <trkpt lat="42.065869616344571" lon="12.910838490352035">
        <ele>462.529968</ele>
        <time>2017-06-12T06:38:03Z</time>
      </trkpt>
      <trkpt lat="42.065818570554256" lon="12.910942425951362">
        <ele>463.48998999999998</ele>
        <time>2017-06-12T06:38:14Z</time>
      </trkpt>
      <trkpt lat="42.065832065418363" lon="12.91115733794868">
        <ele>467.33999599999999</ele>
        <time>2017-06-12T06:38:31Z</time>
      </trkpt>
      <trkpt lat="42.065863162279129" lon="12.911214167252183">
        <ele>467.82000699999998</ele>
        <time>2017-06-12T06:38:44Z</time>
      </trkpt>
      <trkpt lat="42.065870705991983" lon="12.9112150054425">
        <ele>467.82000699999998</ele>
        <time>2017-06-12T06:38:59Z</time>
      </trkpt>
      <trkpt lat="42.06584514118731" lon="12.911196062341332">
        <ele>468.30001800000002</ele>
        <time>2017-06-12T06:39:22Z</time>
      </trkpt>
      <trkpt lat="42.065857378765941" lon="12.911204360425472">
        <ele>468.30001800000002</ele>
        <time>2017-06-12T06:39:39Z</time>
      </trkpt>
      <trkpt lat="42.06586224026978" lon="12.911216765642166">
        <ele>468.30001800000002</ele>
        <time>2017-06-12T06:39:40Z</time>
      </trkpt>
      <trkpt lat="42.065889565274119" lon="12.911253729835153">
        <ele>468.30001800000002</ele>
        <time>2017-06-12T06:39:57Z</time>
      </trkpt>
      <trkpt lat="42.06594530493021" lon="12.911397060379386">
        <ele>468.30001800000002</ele>
        <time>2017-06-12T06:40:15Z</time>
      </trkpt>
      <trkpt lat="42.065954441204667" lon="12.911425139755011">
        <ele>467.33999599999999</ele>
        <time>2017-06-12T06:40:17Z</time>
      </trkpt>
      <trkpt lat="42.066024681553245" lon="12.911676429212093">
        <ele>464.45001200000002</ele>
        <time>2017-06-12T06:40:35Z</time>
      </trkpt>
      <trkpt lat="42.066066339612007" lon="12.911860411986709">
        <ele>461.57000699999998</ele>
        <time>2017-06-12T06:40:48Z</time>
      </trkpt>
      <trkpt lat="42.066128114238381" lon="12.912085466086864">
        <ele>460.13000499999998</ele>
        <time>2017-06-12T06:41:02Z</time>
      </trkpt>
      <trkpt lat="42.066168012097478" lon="12.912200465798378">
        <ele>459.64999399999999</ele>
        <time>2017-06-12T06:41:10Z</time>
      </trkpt>
      <trkpt lat="42.066202210262418" lon="12.912513865157962">
        <ele>458.209991</ele>
        <time>2017-06-12T06:41:28Z</time>
      </trkpt>
      <trkpt lat="42.066210340708494" lon="12.912702206522226">
        <ele>459.64999399999999</ele>
        <time>2017-06-12T06:41:38Z</time>
      </trkpt>
      <trkpt lat="42.066208077594638" lon="12.912743110209703">
        <ele>458.209991</ele>
        <time>2017-06-12T06:41:40Z</time>
      </trkpt>
      <trkpt lat="42.06629516556859" lon="12.912930194288492">
        <ele>454.83999599999999</ele>
        <time>2017-06-12T06:41:52Z</time>
      </trkpt>
      <trkpt lat="42.066404717043042" lon="12.912985011935234">
        <ele>451.48001099999999</ele>
        <time>2017-06-12T06:42:04Z</time>
      </trkpt>
      <trkpt lat="42.066512173041701" lon="12.91318810544908">
        <ele>448.10998499999999</ele>
        <time>2017-06-12T06:42:19Z</time>
      </trkpt>
      <trkpt lat="42.066581910476089" lon="12.913384577259421">
        <ele>444.75</ele>
        <time>2017-06-12T06:42:34Z</time>
      </trkpt>
      <trkpt lat="42.066708728671074" lon="12.913655312731862">
        <ele>441.38000499999998</ele>
        <time>2017-06-12T06:42:49Z</time>
      </trkpt>
      <trkpt lat="42.066719708964229" lon="12.913733934983611">
        <ele>439.459991</ele>
        <time>2017-06-12T06:43:01Z</time>
      </trkpt>
      <trkpt lat="42.066709734499454" lon="12.913777688518167">
        <ele>440.89999399999999</ele>
        <time>2017-06-12T06:43:06Z</time>
      </trkpt>
      <trkpt lat="42.066699340939522" lon="12.913798559457064">
        <ele>440.89999399999999</ele>
        <time>2017-06-12T06:43:13Z</time>
      </trkpt>
      <trkpt lat="42.066559782251716" lon="12.913868715986609">
        <ele>442.82000699999998</ele>
        <time>2017-06-12T06:43:26Z</time>
      </trkpt>
      <trkpt lat="42.066451488062739" lon="12.91403098963201">
        <ele>445.709991</ele>
        <time>2017-06-12T06:43:43Z</time>
      </trkpt>
      <trkpt lat="42.066367417573929" lon="12.914145234972239">
        <ele>448.10998499999999</ele>
        <time>2017-06-12T06:43:58Z</time>
      </trkpt>
      <trkpt lat="42.066283095628023" lon="12.914183875545859">
        <ele>450.029968</ele>
        <time>2017-06-12T06:44:07Z</time>
      </trkpt>
      <trkpt lat="42.066206065937877" lon="12.914268532767892">
        <ele>451.48001099999999</ele>
        <time>2017-06-12T06:44:19Z</time>
      </trkpt>
      <trkpt lat="42.066141273826361" lon="12.91439644061029">
        <ele>454.83999599999999</ele>
        <time>2017-06-12T06:44:34Z</time>
      </trkpt>
      <trkpt lat="42.066125683486462" lon="12.914433237165213">
        <ele>454.83999599999999</ele>
        <time>2017-06-12T06:44:38Z</time>
      </trkpt>
      <trkpt lat="42.066122498363256" lon="12.914551924914122">
        <ele>456.75997899999999</ele>
        <time>2017-06-12T06:44:50Z</time>
      </trkpt>
      <trkpt lat="42.066165329888463" lon="12.914550164714456">
        <ele>459.64999399999999</ele>
        <time>2017-06-12T06:45:02Z</time>
      </trkpt>
      <trkpt lat="42.06623263657093" lon="12.91456013917923">
        <ele>461.57000699999998</ele>
        <time>2017-06-12T06:45:14Z</time>
      </trkpt>
      <trkpt lat="42.066280664876103" lon="12.914564581587911">
        <ele>462.529968</ele>
        <time>2017-06-12T06:45:22Z</time>
      </trkpt>
      <trkpt lat="42.06638066098094" lon="12.914576064795256">
        <ele>464.92999300000002</ele>
        <time>2017-06-12T06:45:35Z</time>
      </trkpt>
      <trkpt lat="42.066464982926846" lon="12.914560893550515">
        <ele>466.85998499999999</ele>
        <time>2017-06-12T06:45:46Z</time>
      </trkpt>
      <trkpt lat="42.0665536634624" lon="12.914582183584571">
        <ele>468.779968</ele>
        <time>2017-06-12T06:45:58Z</time>
      </trkpt>
      <trkpt lat="42.066586436703801" lon="12.914676815271378">
        <ele>470.70001200000002</ele>
        <time>2017-06-12T06:46:07Z</time>
      </trkpt>
      <trkpt lat="42.066588113084435" lon="12.914684107527137">
        <ele>470.70001200000002</ele>
        <time>2017-06-12T06:46:08Z</time>
      </trkpt>
      <trkpt lat="42.066580234095454" lon="12.914727190509439">
        <ele>470.70001200000002</ele>
        <time>2017-06-12T06:46:12Z</time>
      </trkpt>
      <trkpt lat="42.066578809171915" lon="12.914751665666699">
        <ele>472.14001500000001</ele>
        <time>2017-06-12T06:46:14Z</time>
      </trkpt>
      <trkpt lat="42.066578306257725" lon="12.914767507463694">
        <ele>472.14001500000001</ele>
        <time>2017-06-12T06:46:16Z</time>
      </trkpt>
      <trkpt lat="42.066598339006305" lon="12.914915196597576">
        <ele>473.58999599999999</ele>
        <time>2017-06-12T06:46:29Z</time>
      </trkpt>
      <trkpt lat="42.066612839698792" lon="12.915092306211591">
        <ele>475.029968</ele>
        <time>2017-06-12T06:46:42Z</time>
      </trkpt>
      <trkpt lat="42.066612588241696" lon="12.91521686129272">
        <ele>476.47000100000002</ele>
        <time>2017-06-12T06:46:52Z</time>
      </trkpt>
      <trkpt lat="42.066617030650377" lon="12.915363796055317">
        <ele>477.42999300000002</ele>
        <time>2017-06-12T06:47:06Z</time>
      </trkpt>
      <trkpt lat="42.066610241308808" lon="12.915559764951468">
        <ele>479.83999599999999</ele>
        <time>2017-06-12T06:47:22Z</time>
      </trkpt>
      <trkpt lat="42.066608397290111" lon="12.915746010839939">
        <ele>482.23998999999998</ele>
        <time>2017-06-12T06:47:36Z</time>
      </trkpt>
      <trkpt lat="42.066618874669075" lon="12.915904680266976">
        <ele>484.16000400000001</ele>
        <time>2017-06-12T06:47:49Z</time>
      </trkpt>
      <trkpt lat="42.066676039248705" lon="12.91606561280787">
        <ele>486.07998700000002</ele>
        <time>2017-06-12T06:48:03Z</time>
      </trkpt>
      <trkpt lat="42.066704789176583" lon="12.91622587479651">
        <ele>487.53002900000001</ele>
        <time>2017-06-12T06:48:16Z</time>
      </trkpt>
      <trkpt lat="42.066706884652376" lon="12.916264766827226">
        <ele>487.53002900000001</ele>
        <time>2017-06-12T06:48:19Z</time>
      </trkpt>
      <trkpt lat="42.066737897694111" lon="12.916488563641906">
        <ele>488.00997899999999</ele>
        <time>2017-06-12T06:48:34Z</time>
      </trkpt>
      <trkpt lat="42.066786764189601" lon="12.916655112057924">
        <ele>488.00997899999999</ele>
        <time>2017-06-12T06:48:48Z</time>
      </trkpt>
      <trkpt lat="42.066854238510132" lon="12.916814787313342">
        <ele>488.00997899999999</ele>
        <time>2017-06-12T06:49:02Z</time>
      </trkpt>
      <trkpt lat="42.066853567957878" lon="12.916984604671597">
        <ele>488.00997899999999</ele>
        <time>2017-06-12T06:49:15Z</time>
      </trkpt>
      <trkpt lat="42.066846778616309" lon="12.917142435908318">
        <ele>489.45001200000002</ele>
        <time>2017-06-12T06:49:28Z</time>
      </trkpt>
      <trkpt lat="42.066853316500783" lon="12.917304458096623">
        <ele>490.41000400000001</ele>
        <time>2017-06-12T06:49:41Z</time>
      </trkpt>
      <trkpt lat="42.066759271547198" lon="12.917365562170744">
        <ele>494.25997899999999</ele>
        <time>2017-06-12T06:49:56Z</time>
      </trkpt>
      <trkpt lat="42.066657934337854" lon="12.917395569384098">
        <ele>496.17999300000002</ele>
        <time>2017-06-12T06:50:09Z</time>
      </trkpt>
      <trkpt lat="42.06651016138494" lon="12.917394395917654">
        <ele>499.05999800000001</ele>
        <time>2017-06-12T06:50:26Z</time>
      </trkpt>
      <trkpt lat="42.066379906609654" lon="12.917404286563396">
        <ele>500.02001999999999</ele>
        <time>2017-06-12T06:50:41Z</time>
      </trkpt>
      <trkpt lat="42.066321484744549" lon="12.917443597689271">
        <ele>500.02001999999999</ele>
        <time>2017-06-12T06:50:49Z</time>
      </trkpt>
      <trkpt lat="42.066226014867425" lon="12.917566979303956">
        <ele>500.50003099999998</ele>
        <time>2017-06-12T06:51:03Z</time>
      </trkpt>
      <trkpt lat="42.066169772297144" lon="12.917714165523648">
        <ele>500.50003099999998</ele>
        <time>2017-06-12T06:51:15Z</time>
      </trkpt>
      <trkpt lat="42.066148230805993" lon="12.9178720805794">
        <ele>500.97998000000001</ele>
        <time>2017-06-12T06:51:26Z</time>
      </trkpt>
      <trkpt lat="42.06614856608212" lon="12.91792438365519">
        <ele>500.97998000000001</ele>
        <time>2017-06-12T06:51:30Z</time>
      </trkpt>
      <trkpt lat="42.066096011549234" lon="12.918109707534313">
        <ele>500.97998000000001</ele>
        <time>2017-06-12T06:51:44Z</time>
      </trkpt>
      <trkpt lat="42.066052593290806" lon="12.918312465772033">
        <ele>501.459991</ele>
        <time>2017-06-12T06:51:58Z</time>
      </trkpt>
      <trkpt lat="42.066004397347569" lon="12.918572640046477">
        <ele>502.42999300000002</ele>
        <time>2017-06-12T06:52:16Z</time>
      </trkpt>
      <trkpt lat="42.065997021272779" lon="12.91876869276166">
        <ele>502.91000400000001</ele>
        <time>2017-06-12T06:52:28Z</time>
      </trkpt>
      <trkpt lat="42.066003894433379" lon="12.918972289189696">
        <ele>502.91000400000001</ele>
        <time>2017-06-12T06:52:42Z</time>
      </trkpt>
      <trkpt lat="42.066003140062094" lon="12.919008582830429">
        <ele>502.91000400000001</ele>
        <time>2017-06-12T06:52:57Z</time>
      </trkpt>
      <trkpt lat="42.066003726795316" lon="12.919105561450124">
        <ele>501.95001200000002</ele>
        <time>2017-06-12T06:53:12Z</time>
      </trkpt>
      <trkpt lat="42.066005989909172" lon="12.919262386858463">
        <ele>500.50003099999998</ele>
        <time>2017-06-12T06:53:27Z</time>
      </trkpt>
      <trkpt lat="42.066005822271109" lon="12.919347966089845">
        <ele>501.95001200000002</ele>
        <time>2017-06-12T06:53:39Z</time>
      </trkpt>
      <trkpt lat="42.066029878333211" lon="12.919423738494515">
        <ele>504.35000600000001</ele>
        <time>2017-06-12T06:53:52Z</time>
      </trkpt>
      <trkpt lat="42.066035913303494" lon="12.919511161744595">
        <ele>506.27001999999999</ele>
        <time>2017-06-12T06:54:05Z</time>
      </trkpt>
      <trkpt lat="42.066072374582291" lon="12.919515687972307">
        <ele>506.75003099999998</ele>
        <time>2017-06-12T06:54:21Z</time>
      </trkpt>
      <trkpt lat="42.066083941608667" lon="12.919536810368299">
        <ele>508.67001299999998</ele>
        <time>2017-06-12T06:54:33Z</time>
      </trkpt>
      <trkpt lat="42.066105231642723" lon="12.919616522267461">
        <ele>511.07998700000002</ele>
        <time>2017-06-12T06:54:48Z</time>
      </trkpt>
      <trkpt lat="42.066079499199986" lon="12.91962331160903">
        <ele>511.55999800000001</ele>
        <time>2017-06-12T06:54:51Z</time>
      </trkpt>
      <trkpt lat="42.065985789522529" lon="12.919659940525889">
        <ele>515.39996299999996</ele>
        <time>2017-06-12T06:55:03Z</time>
      </trkpt>
      <trkpt lat="42.065873891115189" lon="12.919632531702518">
        <ele>517.32995600000004</ele>
        <time>2017-06-12T06:55:20Z</time>
      </trkpt>
      <trkpt lat="42.065856037661433" lon="12.919637309387326">
        <ele>516.36999500000002</ele>
        <time>2017-06-12T06:55:24Z</time>
      </trkpt>
      <trkpt lat="42.065839860588312" lon="12.919645439833403">
        <ele>517.80999799999995</ele>
        <time>2017-06-12T06:55:29Z</time>
      </trkpt>
      <trkpt lat="42.065836926922202" lon="12.919710818678141">
        <ele>520.21002199999998</ele>
        <time>2017-06-12T06:55:46Z</time>
      </trkpt>
      <trkpt lat="42.065754365175962" lon="12.919722218066454">
        <ele>522.60998500000005</ele>
        <time>2017-06-12T06:56:00Z</time>
      </trkpt>
      <trkpt lat="42.065707761794329" lon="12.919769575819373">
        <ele>523.57995600000004</ele>
        <time>2017-06-12T06:56:12Z</time>
      </trkpt>
      <trkpt lat="42.065611286088824" lon="12.919834116473794">
        <ele>525.97997999999995</ele>
        <time>2017-06-12T06:56:28Z</time>
      </trkpt>
      <trkpt lat="42.065584380179644" lon="12.919890861958265">
        <ele>527.89996299999996</ele>
        <time>2017-06-12T06:56:43Z</time>
      </trkpt>
      <trkpt lat="42.065525203943253" lon="12.919948864728212">
        <ele>529.34002699999996</ele>
        <time>2017-06-12T06:56:56Z</time>
      </trkpt>
      <trkpt lat="42.065493604168296" lon="12.919974094256759">
        <ele>529.82000700000003</ele>
        <time>2017-06-12T06:57:08Z</time>
      </trkpt>
      <trkpt lat="42.065495029091835" lon="12.919962527230382">
        <ele>530.29998799999998</ele>
        <time>2017-06-12T06:57:30Z</time>
      </trkpt>
      <trkpt lat="42.065479941666126" lon="12.919965963810682">
        <ele>530.78997800000002</ele>
        <time>2017-06-12T06:57:54Z</time>
      </trkpt>
      <trkpt lat="42.065449766814709" lon="12.919983901083469">
        <ele>530.78997800000002</ele>
        <time>2017-06-12T06:58:02Z</time>
      </trkpt>
      <trkpt lat="42.065358068794012" lon="12.920044586062431">
        <ele>529.34002699999996</ele>
        <time>2017-06-12T06:58:13Z</time>
      </trkpt>
      <trkpt lat="42.065255725756288" lon="12.920195711776614">
        <ele>529.34002699999996</ele>
        <time>2017-06-12T06:58:29Z</time>
      </trkpt>
      <trkpt lat="42.065220437943935" lon="12.92026536539197">
        <ele>530.78997800000002</ele>
        <time>2017-06-12T06:58:36Z</time>
      </trkpt>
      <trkpt lat="42.065136199817061" lon="12.920380365103483">
        <ele>532.22997999999995</ele>
        <time>2017-06-12T06:58:50Z</time>
      </trkpt>
      <trkpt lat="42.065057996660471" lon="12.920466614887118">
        <ele>534.14996299999996</ele>
        <time>2017-06-12T06:59:07Z</time>
      </trkpt>
      <trkpt lat="42.065009465441108" lon="12.92061623185873">
        <ele>536.54998799999998</ele>
        <time>2017-06-12T06:59:22Z</time>
      </trkpt>
      <trkpt lat="42.064922461286187" lon="12.920738775283098">
        <ele>538.47997999999995</ele>
        <time>2017-06-12T06:59:36Z</time>
      </trkpt>
      <trkpt lat="42.064825063571334" lon="12.920806836336851">
        <ele>539.919983</ele>
        <time>2017-06-12T06:59:51Z</time>
      </trkpt>
      <trkpt lat="42.064814502373338" lon="12.920904820784926">
        <ele>542.32000700000003</ele>
        <time>2017-06-12T07:00:05Z</time>
      </trkpt>
      <trkpt lat="42.064782232046127" lon="12.920976988971233">
        <ele>544.23999000000003</ele>
        <time>2017-06-12T07:00:19Z</time>
      </trkpt>
      <trkpt lat="42.064704615622759" lon="12.921047480776906">
        <ele>546.64996299999996</ele>
        <time>2017-06-12T07:00:36Z</time>
      </trkpt>
      <trkpt lat="42.064676033332944" lon="12.921134065836668">
        <ele>549.52996800000005</ele>
        <time>2017-06-12T07:00:49Z</time>
      </trkpt>
      <trkpt lat="42.064606212079525" lon="12.921187961474061">
        <ele>551.45001200000002</ele>
        <time>2017-06-12T07:01:05Z</time>
      </trkpt>
      <trkpt lat="42.064550640061498" lon="12.92123188264668">
        <ele>553.85998500000005</ele>
        <time>2017-06-12T07:01:19Z</time>
      </trkpt>
      <trkpt lat="42.06447646021843" lon="12.921303799375892">
        <ele>556.73999000000003</ele>
        <time>2017-06-12T07:01:34Z</time>
      </trkpt>
      <trkpt lat="42.064476208761334" lon="12.921309331431985">
        <ele>556.73999000000003</ele>
        <time>2017-06-12T07:01:35Z</time>
      </trkpt>
      <trkpt lat="42.064426504075527" lon="12.921398431062698">
        <ele>558.65997300000004</ele>
        <time>2017-06-12T07:01:50Z</time>
      </trkpt>
      <trkpt lat="42.064370596781373" lon="12.921475041657686">
        <ele>561.07000700000003</ele>
        <time>2017-06-12T07:02:06Z</time>
      </trkpt>
      <trkpt lat="42.064302703365684" lon="12.921556429937482">
        <ele>563.95001200000002</ele>
        <time>2017-06-12T07:02:23Z</time>
      </trkpt>
      <trkpt lat="42.064230786636472" lon="12.92165013961494">
        <ele>566.34997599999997</ele>
        <time>2017-06-12T07:02:41Z</time>
      </trkpt>
      <trkpt lat="42.064193403348327" lon="12.921715602278709">
        <ele>568.76000999999997</ele>
        <time>2017-06-12T07:02:55Z</time>
      </trkpt>
      <trkpt lat="42.064133305102587" lon="12.921807467937469">
        <ele>571.64001499999995</ele>
        <time>2017-06-12T07:03:14Z</time>
      </trkpt>
      <trkpt lat="42.06407924182713" lon="12.921898579224944">
        <ele>574.52996800000005</ele>
        <time>2017-06-12T07:03:33Z</time>
      </trkpt>
      <trkpt lat="42.064040433615446" lon="12.922012321650982">
        <ele>577.89001499999995</ele>
        <time>2017-06-12T07:03:50Z</time>
      </trkpt>
      <trkpt lat="42.064033811911941" lon="12.922115502879024">
        <ele>579.330017</ele>
        <time>2017-06-12T07:04:01Z</time>
      </trkpt>
      <trkpt lat="42.064019478857517" lon="12.922282721847296">
        <ele>580.76995799999997</ele>
        <time>2017-06-12T07:04:16Z</time>
      </trkpt>
      <trkpt lat="42.064001122489572" lon="12.922337958589196">
        <ele>582.22003199999995</ele>
        <time>2017-06-12T07:04:29Z</time>
      </trkpt>
      <trkpt lat="42.064028615131974" lon="12.922355392947793">
        <ele>582.22003199999995</ele>
        <time>2017-06-12T07:04:43Z</time>
      </trkpt>
      <trkpt lat="42.064050827175379" lon="12.922333180904388">
        <ele>582.22003199999995</ele>
        <time>2017-06-12T07:04:52Z</time>
      </trkpt>
      <trkpt lat="42.064148392528296" lon="12.922399062663317">
        <ele>583.17999299999997</ele>
        <time>2017-06-12T07:05:05Z</time>
      </trkpt>
      <trkpt lat="42.064199103042483" lon="12.922479696571827">
        <ele>585.580017</ele>
        <time>2017-06-12T07:05:17Z</time>
      </trkpt>
      <trkpt lat="42.064229864627123" lon="12.922501573339105">
        <ele>586.54003899999998</ele>
        <time>2017-06-12T07:05:30Z</time>
      </trkpt>
      <trkpt lat="42.064284095540643" lon="12.92260835878551">
        <ele>587.97997999999995</ele>
        <time>2017-06-12T07:05:43Z</time>
      </trkpt>
      <trkpt lat="42.064369339495897" lon="12.922702487558126">
        <ele>589.90997300000004</ele>
        <time>2017-06-12T07:05:57Z</time>
      </trkpt>
      <trkpt lat="42.064432790502906" lon="12.922748839482665">
        <ele>591.34997599999997</ele>
        <time>2017-06-12T07:06:07Z</time>
      </trkpt>
      <trkpt lat="42.064472939819098" lon="12.922874065116048">
        <ele>593.75</ele>
        <time>2017-06-12T07:06:22Z</time>
      </trkpt>
      <trkpt lat="42.064522141590714" lon="12.922977162525058">
        <ele>595.669983</ele>
        <time>2017-06-12T07:06:36Z</time>
      </trkpt>
      <trkpt lat="42.064603362232447" lon="12.923080762848258">
        <ele>599.04003899999998</ele>
        <time>2017-06-12T07:06:54Z</time>
      </trkpt>
      <trkpt lat="42.064668573439121" lon="12.923146141692996">
        <ele>600.96002199999998</ele>
        <time>2017-06-12T07:07:07Z</time>
      </trkpt>
      <trkpt lat="42.064713919535279" lon="12.923220237717032">
        <ele>602.39996299999996</ele>
        <time>2017-06-12T07:07:20Z</time>
      </trkpt>
      <trkpt lat="42.06476186402142" lon="12.923251334577799">
        <ele>605.29003899999998</ele>
        <time>2017-06-12T07:07:32Z</time>
      </trkpt>
      <trkpt lat="42.064809137955308" lon="12.923340937122703">
        <ele>607.69000200000005</ele>
        <time>2017-06-12T07:07:47Z</time>
      </trkpt>
      <trkpt lat="42.06482489593327" lon="12.923425091430545">
        <ele>609.60998500000005</ele>
        <time>2017-06-12T07:07:58Z</time>
      </trkpt>
      <trkpt lat="42.064891280606389" lon="12.923475885763764">
        <ele>611.54003899999998</ele>
        <time>2017-06-12T07:08:10Z</time>
      </trkpt>
      <trkpt lat="42.064944002777338" lon="12.923512933775783">
        <ele>612.97997999999995</ele>
        <time>2017-06-12T07:08:23Z</time>
      </trkpt>
      <trkpt lat="42.064984235912561" lon="12.923596166074276">
        <ele>615.38000499999998</ele>
        <time>2017-06-12T07:08:36Z</time>
      </trkpt>
      <trkpt lat="42.065012734383345" lon="12.923675375059247">
        <ele>616.82000700000003</ele>
        <time>2017-06-12T07:08:48Z</time>
      </trkpt>
      <trkpt lat="42.065053721889853" lon="12.923783166334033">
        <ele>618.75</ele>
        <time>2017-06-12T07:09:02Z</time>
      </trkpt>
      <trkpt lat="42.065096301957965" lon="12.923811664804816">
        <ele>620.669983</ele>
        <time>2017-06-12T07:09:15Z</time>
      </trkpt>
      <trkpt lat="42.065139384940267" lon="12.923838403075933">
        <ele>623.54998799999998</ele>
        <time>2017-06-12T07:09:28Z</time>
      </trkpt>
      <trkpt lat="42.065215995535254" lon="12.923961114138365">
        <ele>625.96002199999998</ele>
        <time>2017-06-12T07:09:43Z</time>
      </trkpt>
      <trkpt lat="42.065272238105536" lon="12.924068067222834">
        <ele>626.92004399999996</ele>
        <time>2017-06-12T07:09:55Z</time>
      </trkpt>
      <trkpt lat="42.065324038267136" lon="12.924163285642862">
        <ele>628.35998500000005</ele>
        <time>2017-06-12T07:10:06Z</time>
      </trkpt>
      <trkpt lat="42.065366199240088" lon="12.924270238727331">
        <ele>629.79998799999998</ele>
        <time>2017-06-12T07:10:17Z</time>
      </trkpt>
      <trkpt lat="42.065387237817049" lon="12.924382723867893">
        <ele>631.23999000000003</ele>
        <time>2017-06-12T07:10:29Z</time>
      </trkpt>
      <trkpt lat="42.065415568649769" lon="12.924493784084916">
        <ele>632.20001200000002</ele>
        <time>2017-06-12T07:10:40Z</time>
      </trkpt>
      <trkpt lat="42.065426465123892" lon="12.924574920907617">
        <ele>634.13000499999998</ele>
        <time>2017-06-12T07:10:51Z</time>
      </trkpt>
      <trkpt lat="42.065430739894509" lon="12.924669636413455">
        <ele>635.57000700000003</ele>
        <time>2017-06-12T07:11:03Z</time>
      </trkpt>
      <trkpt lat="42.065437780693173" lon="12.924762759357691">
        <ele>637.48999000000003</ele>
        <time>2017-06-12T07:11:14Z</time>
      </trkpt>
      <trkpt lat="42.065452868118882" lon="12.924879938364029">
        <ele>639.40997300000004</ele>
        <time>2017-06-12T07:11:26Z</time>
      </trkpt>
      <trkpt lat="42.065473319962621" lon="12.924983287230134">
        <ele>641.82000700000003</ele>
        <time>2017-06-12T07:11:38Z</time>
      </trkpt>
      <trkpt lat="42.065481534227729" lon="12.925041960552335">
        <ele>641.82000700000003</ele>
        <time>2017-06-12T07:11:54Z</time>
      </trkpt>
      <trkpt lat="42.065479271113873" lon="12.925115721300244">
        <ele>642.29998799999998</ele>
        <time>2017-06-12T07:12:15Z</time>
      </trkpt>
      <trkpt lat="42.065496621653438" lon="12.925236839801073">
        <ele>642.29998799999998</ele>
        <time>2017-06-12T07:12:28Z</time>
      </trkpt>
      <trkpt lat="42.065551606938243" lon="12.925409423187375">
        <ele>644.70001200000002</ele>
        <time>2017-06-12T07:12:43Z</time>
      </trkpt>
      <trkpt lat="42.065588403493166" lon="12.925588879734278">
        <ele>645.17999299999997</ele>
        <time>2017-06-12T07:12:55Z</time>
      </trkpt>
      <trkpt lat="42.065612962469459" lon="12.925742939114571">
        <ele>646.62005599999998</ele>
        <time>2017-06-12T07:13:10Z</time>
      </trkpt>
      <trkpt lat="42.065620170906186" lon="12.925868416205049">
        <ele>648.55004899999994</ele>
        <time>2017-06-12T07:13:24Z</time>
      </trkpt>
      <trkpt lat="42.065637437626719" lon="12.925984589383006">
        <ele>650.46997099999999</ele>
        <time>2017-06-12T07:13:37Z</time>
      </trkpt>
      <trkpt lat="42.065698374062777" lon="12.926051309332252">
        <ele>652.39001499999995</ele>
        <time>2017-06-12T07:13:51Z</time>
      </trkpt>
      <trkpt lat="42.065755873918533" lon="12.926071425899863">
        <ele>653.35003700000004</ele>
        <time>2017-06-12T07:14:03Z</time>
      </trkpt>
      <trkpt lat="42.065791999921203" lon="12.92612842284143">
        <ele>651.90997300000004</ele>
        <time>2017-06-12T07:14:12Z</time>
      </trkpt>
      <trkpt lat="42.065832987427711" lon="12.926237219944596">
        <ele>649.50994900000001</ele>
        <time>2017-06-12T07:14:27Z</time>
      </trkpt>
      <trkpt lat="42.065903730690479" lon="12.926284074783325">
        <ele>646.62005599999998</ele>
        <time>2017-06-12T07:14:41Z</time>
      </trkpt>
      <trkpt lat="42.065969612449408" lon="12.926339730620384">
        <ele>643.73999000000003</ele>
        <time>2017-06-12T07:14:55Z</time>
      </trkpt>
      <trkpt lat="42.066034488379955" lon="12.926421705633402">
        <ele>641.339966</ele>
        <time>2017-06-12T07:15:09Z</time>
      </trkpt>
      <trkpt lat="42.066059382632375" lon="12.926477361470461">
        <ele>640.37994400000002</ele>
        <time>2017-06-12T07:15:26Z</time>
      </trkpt>
      <trkpt lat="42.066069189459085" lon="12.926558163017035">
        <ele>640.37994400000002</ele>
        <time>2017-06-12T07:15:52Z</time>
      </trkpt>
      <trkpt lat="42.066116966307163" lon="12.926510386168957">
        <ele>640.37994400000002</ele>
        <time>2017-06-12T07:16:19Z</time>
      </trkpt>
      <trkpt lat="42.066122498363256" lon="12.926541399210691">
        <ele>640.85998500000005</ele>
        <time>2017-06-12T07:16:54Z</time>
      </trkpt>
      <trkpt lat="42.066083019599319" lon="12.926473338156939">
        <ele>640.85998500000005</ele>
        <time>2017-06-12T07:17:17Z</time>
      </trkpt>
      <trkpt lat="42.066079583019018" lon="12.926469063386321">
        <ele>640.85998500000005</ele>
        <time>2017-06-12T07:17:40Z</time>
      </trkpt>
      <trkpt lat="42.066121827811003" lon="12.926449282094836">
        <ele>640.85998500000005</ele>
        <time>2017-06-12T07:18:02Z</time>
      </trkpt>
      <trkpt lat="42.066185111179948" lon="12.926478534936905">
        <ele>637.96997099999999</ele>
        <time>2017-06-12T07:18:17Z</time>
      </trkpt>
      <trkpt lat="42.066244790330529" lon="12.926520612090826">
        <ele>634.60998500000005</ele>
        <time>2017-06-12T07:18:32Z</time>
      </trkpt>
      <trkpt lat="42.066281922161579" lon="12.926542488858104">
        <ele>632.20001200000002</ele>
        <time>2017-06-12T07:18:47Z</time>
      </trkpt>
      <trkpt lat="42.066345540806651" lon="12.926548775285482">
        <ele>628.839966</ele>
        <time>2017-06-12T07:19:02Z</time>
      </trkpt>
      <trkpt lat="42.06641586497426" lon="12.926573837175965">
        <ele>626.92004399999996</ele>
        <time>2017-06-12T07:19:18Z</time>
      </trkpt>
      <trkpt lat="42.066422319039702" lon="12.926628990098834">
        <ele>627.87994400000002</ele>
        <time>2017-06-12T07:19:29Z</time>
      </trkpt>
      <trkpt lat="42.066417625173926" lon="12.926649358123541">
        <ele>626.44000200000005</ele>
        <time>2017-06-12T07:19:31Z</time>
      </trkpt>
      <trkpt lat="42.066415613517165" lon="12.926709540188313">
        <ele>627.87994400000002</ele>
        <time>2017-06-12T07:19:36Z</time>
      </trkpt>
      <trkpt lat="42.066379906609654" lon="12.926761507987976">
        <ele>628.839966</ele>
        <time>2017-06-12T07:19:51Z</time>
      </trkpt>
      <trkpt lat="42.066353838890791" lon="12.926753461360931">
        <ele>629.32000700000003</ele>
        <time>2017-06-12T07:20:13Z</time>
      </trkpt>
      <trkpt lat="42.066368758678436" lon="12.926763938739896">
        <ele>629.32000700000003</ele>
        <time>2017-06-12T07:20:27Z</time>
      </trkpt>
      <trkpt lat="42.06637823022902" lon="12.926774164661765">
        <ele>629.79998799999998</ele>
        <time>2017-06-12T07:20:51Z</time>
      </trkpt>
      <trkpt lat="42.06639532931149" lon="12.926777098327875">
        <ele>630.76000999999997</ele>
        <time>2017-06-12T07:21:13Z</time>
      </trkpt>
      <trkpt lat="42.066386863589287" lon="12.926791431382298">
        <ele>630.76000999999997</ele>
        <time>2017-06-12T07:21:38Z</time>
      </trkpt>
      <trkpt lat="42.06635576672852" lon="12.926838202401996">
        <ele>630.76000999999997</ele>
        <time>2017-06-12T07:21:53Z</time>
      </trkpt>
      <trkpt lat="42.066299021244049" lon="12.92694834060967">
        <ele>631.23999000000003</ele>
        <time>2017-06-12T07:22:09Z</time>
      </trkpt>
      <trkpt lat="42.06625510007143" lon="12.927085971459746">
        <ele>632.20001200000002</ele>
        <time>2017-06-12T07:22:24Z</time>
      </trkpt>
      <trkpt lat="42.066179579123855" lon="12.927196780219674">
        <ele>628.839966</ele>
        <time>2017-06-12T07:22:41Z</time>
      </trkpt>
      <trkpt lat="42.066152673214674" lon="12.927297782152891">
        <ele>627.87994400000002</ele>
        <time>2017-06-12T07:22:54Z</time>
      </trkpt>
      <trkpt lat="42.066089138388634" lon="12.927498696371913">
        <ele>626.92004399999996</ele>
        <time>2017-06-12T07:23:11Z</time>
      </trkpt>
      <trkpt lat="42.065999703481793" lon="12.927616881206632">
        <ele>623.54998799999998</ele>
        <time>2017-06-12T07:23:23Z</time>
      </trkpt>
      <trkpt lat="42.065889565274119" lon="12.927767336368561">
        <ele>622.59002699999996</ele>
        <time>2017-06-12T07:23:39Z</time>
      </trkpt>
      <trkpt lat="42.065833490341902" lon="12.927965819835663">
        <ele>622.10998500000005</ele>
        <time>2017-06-12T07:23:58Z</time>
      </trkpt>
      <trkpt lat="42.065776325762272" lon="12.92811862193048">
        <ele>622.59002699999996</ele>
        <time>2017-06-12T07:24:14Z</time>
      </trkpt>
      <trkpt lat="42.065706923604012" lon="12.928239237517118">
        <ele>624.98999000000003</ele>
        <time>2017-06-12T07:24:28Z</time>
      </trkpt>
      <trkpt lat="42.065572310239077" lon="12.928402097895741">
        <ele>627.39996299999996</ele>
        <time>2017-06-12T07:24:47Z</time>
      </trkpt>
      <trkpt lat="42.065480193123221" lon="12.928548781201243">
        <ele>627.87994400000002</ele>
        <time>2017-06-12T07:25:02Z</time>
      </trkpt>
      <trkpt lat="42.065434260293841" lon="12.928619189187884">
        <ele>627.87994400000002</ele>
        <time>2017-06-12T07:25:09Z</time>
      </trkpt>
      <trkpt lat="42.065325966104865" lon="12.928775763139129">
        <ele>627.39996299999996</ele>
        <time>2017-06-12T07:25:24Z</time>
      </trkpt>
      <trkpt lat="42.065284308046103" lon="12.928926134482026">
        <ele>628.839966</ele>
        <time>2017-06-12T07:25:39Z</time>
      </trkpt>
      <trkpt lat="42.065287074074149" lon="12.929117660969496">
        <ele>629.79998799999998</ele>
        <time>2017-06-12T07:25:53Z</time>
      </trkpt>
      <trkpt lat="42.065341472625732" lon="12.929277839139104">
        <ele>632.67999299999997</ele>
        <time>2017-06-12T07:26:09Z</time>
      </trkpt>
      <trkpt lat="42.065316159278154" lon="12.929475735872984">
        <ele>632.67999299999997</ele>
        <time>2017-06-12T07:26:25Z</time>
      </trkpt>
      <trkpt lat="42.065312974154949" lon="12.929691486060619">
        <ele>633.169983</ele>
        <time>2017-06-12T07:26:41Z</time>
      </trkpt>
      <trkpt lat="42.065292522311211" lon="12.929891059175134">
        <ele>631.72003199999995</ele>
        <time>2017-06-12T07:26:56Z</time>
      </trkpt>
      <trkpt lat="42.065323535352945" lon="12.930094068869948">
        <ele>629.32000700000003</ele>
        <time>2017-06-12T07:27:10Z</time>
      </trkpt>
      <trkpt lat="42.065327810123563" lon="12.930286936461926">
        <ele>625.96002199999998</ele>
        <time>2017-06-12T07:27:26Z</time>
      </trkpt>
      <trkpt lat="42.065425794571638" lon="12.930391123518348">
        <ele>624.03002900000001</ele>
        <time>2017-06-12T07:27:40Z</time>
      </trkpt>
      <trkpt lat="42.065540459007025" lon="12.930395314469934">
        <ele>623.54998799999998</ele>
        <time>2017-06-12T07:27:54Z</time>
      </trkpt>
      <trkpt lat="42.065561916679144" lon="12.930390201508999">
        <ele>623.54998799999998</ele>
        <time>2017-06-12T07:27:56Z</time>
      </trkpt>
      <trkpt lat="42.06573911011219" lon="12.93040000833571">
        <ele>623.54998799999998</ele>
        <time>2017-06-12T07:28:11Z</time>
      </trkpt>
      <trkpt lat="42.065853858366609" lon="12.930428422987461">
        <ele>622.59002699999996</ele>
        <time>2017-06-12T07:28:25Z</time>
      </trkpt>
      <trkpt lat="42.065955195575953" lon="12.930520121008158">
        <ele>621.14996299999996</ele>
        <time>2017-06-12T07:28:37Z</time>
      </trkpt>
      <trkpt lat="42.066080840304494" lon="12.930533615872264">
        <ele>619.71002199999998</ele>
        <time>2017-06-12T07:28:52Z</time>
      </trkpt>
      <trkpt lat="42.066103806719184" lon="12.930549373850226">
        <ele>619.22997999999995</ele>
        <time>2017-06-12T07:28:56Z</time>
      </trkpt>
      <trkpt lat="42.066240515559912" lon="12.930720029398799">
        <ele>617.78002900000001</ele>
        <time>2017-06-12T07:29:13Z</time>
      </trkpt>
      <trkpt lat="42.066244874149561" lon="12.930746516212821">
        <ele>617.78002900000001</ele>
        <time>2017-06-12T07:29:15Z</time>
      </trkpt>
      <trkpt lat="42.066296674311161" lon="12.930956482887268">
        <ele>615.85998500000005</ele>
        <time>2017-06-12T07:29:29Z</time>
      </trkpt>
      <trkpt lat="42.066383427008986" lon="12.931065866723657">
        <ele>614.419983</ele>
        <time>2017-06-12T07:29:42Z</time>
      </trkpt>
      <trkpt lat="42.066482501104474" lon="12.931163515895605">
        <ele>612.97997999999995</ele>
        <time>2017-06-12T07:29:56Z</time>
      </trkpt>
      <trkpt lat="42.066492140293121" lon="12.931169969961047">
        <ele>612.01995799999997</ele>
        <time>2017-06-12T07:29:57Z</time>
      </trkpt>
      <trkpt lat="42.066610660403967" lon="12.931295530870557">
        <ele>609.13000499999998</ele>
        <time>2017-06-12T07:30:12Z</time>
      </trkpt>
      <trkpt lat="42.066590962931514" lon="12.931374991312623">
        <ele>606.25</ele>
        <time>2017-06-12T07:30:23Z</time>
      </trkpt>
      <trkpt lat="42.066613510251045" lon="12.931473730131984">
        <ele>603.35998500000005</ele>
        <time>2017-06-12T07:30:36Z</time>
      </trkpt>
      <trkpt lat="42.066697077825665" lon="12.931566433981061">
        <ele>600.96002199999998</ele>
        <time>2017-06-12T07:30:50Z</time>
      </trkpt>
      <trkpt lat="42.066777795553207" lon="12.931605158373713">
        <ele>599.04003899999998</ele>
        <time>2017-06-12T07:31:00Z</time>
      </trkpt>
      <trkpt lat="42.066899919882417" lon="12.931641284376383">
        <ele>598.080017</ele>
        <time>2017-06-12T07:31:14Z</time>
      </trkpt>
      <trkpt lat="42.067009974271059" lon="12.931713117286563">
        <ele>596.64001499999995</ele>
        <time>2017-06-12T07:31:29Z</time>
      </trkpt>
      <trkpt lat="42.067053476348519" lon="12.931781513616443">
        <ele>595.19000200000005</ele>
        <time>2017-06-12T07:31:37Z</time>
      </trkpt>
      <trkpt lat="42.067035371437669" lon="12.931920737028122">
        <ele>593.26995799999997</ele>
        <time>2017-06-12T07:31:50Z</time>
      </trkpt>
      <trkpt lat="42.067154562100768" lon="12.9320427775383">
        <ele>590.86999500000002</ele>
        <time>2017-06-12T07:32:07Z</time>
      </trkpt>
      <trkpt lat="42.067164536565542" lon="12.932048728689551">
        <ele>590.86999500000002</ele>
        <time>2017-06-12T07:32:08Z</time>
      </trkpt>
      <trkpt lat="42.067249780520797" lon="12.932157777249813">
        <ele>588.46002199999998</ele>
        <time>2017-06-12T07:32:22Z</time>
      </trkpt>
      <trkpt lat="42.067382298409939" lon="12.932308735325933">
        <ele>586.05999799999995</ele>
        <time>2017-06-12T07:32:40Z</time>
      </trkpt>
      <trkpt lat="42.067492604255676" lon="12.932352237403393">
        <ele>586.05999799999995</ele>
        <time>2017-06-12T07:32:52Z</time>
      </trkpt>
      <trkpt lat="42.067626463249326" lon="12.932420885190368">
        <ele>585.09997599999997</ele>
        <time>2017-06-12T07:33:07Z</time>
      </trkpt>
      <trkpt lat="42.067733835428953" lon="12.932449299842119">
        <ele>584.61999500000002</ele>
        <time>2017-06-12T07:33:22Z</time>
      </trkpt>
      <trkpt lat="42.067763675004244" lon="12.932404205203056">
        <ele>585.580017</ele>
        <time>2017-06-12T07:33:30Z</time>
      </trkpt>
      <trkpt lat="42.067879261448979" lon="12.932339161634445">
        <ele>587.01995799999997</ele>
        <time>2017-06-12T07:33:45Z</time>
      </trkpt>
      <trkpt lat="42.067999122664332" lon="12.932358775287867">
        <ele>587.01995799999997</ele>
        <time>2017-06-12T07:33:58Z</time>
      </trkpt>
      <trkpt lat="42.068114122375846" lon="12.932375371456146">
        <ele>587.01995799999997</ele>
        <time>2017-06-12T07:34:13Z</time>
      </trkpt>
      <trkpt lat="42.068167766556144" lon="12.932396661490202">
        <ele>585.580017</ele>
        <time>2017-06-12T07:34:18Z</time>
      </trkpt>
      <trkpt lat="42.068306487053633" lon="12.932478720322251">
        <ele>584.14001499999995</ele>
        <time>2017-06-12T07:34:32Z</time>
      </trkpt>
      <trkpt lat="42.068441268056631" lon="12.932519121095538">
        <ele>584.14001499999995</ele>
        <time>2017-06-12T07:34:45Z</time>
      </trkpt>
      <trkpt lat="42.068624496459961" lon="12.932598916813731">
        <ele>584.14001499999995</ele>
        <time>2017-06-12T07:35:00Z</time>
      </trkpt>
      <trkpt lat="42.068748464807868" lon="12.932660523802042">
        <ele>584.61999500000002</ele>
        <time>2017-06-12T07:35:14Z</time>
      </trkpt>
      <trkpt lat="42.068812167271972" lon="12.932694302871823">
        <ele>585.580017</ele>
        <time>2017-06-12T07:35:21Z</time>
      </trkpt>
      <trkpt lat="42.068845527246594" lon="12.932729087769985">
        <ele>584.61999500000002</ele>
        <time>2017-06-12T07:35:25Z</time>
      </trkpt>
      <trkpt lat="42.068963963538408" lon="12.9328025970608">
        <ele>584.14001499999995</ele>
        <time>2017-06-12T07:35:41Z</time>
      </trkpt>
      <trkpt lat="42.06912430934608" lon="12.932845931500196">
        <ele>587.01995799999997</ele>
        <time>2017-06-12T07:35:58Z</time>
      </trkpt>
      <trkpt lat="42.069274010136724" lon="12.93282900005579">
        <ele>587.97997999999995</ele>
        <time>2017-06-12T07:36:16Z</time>
      </trkpt>
      <trkpt lat="42.069464614614844" lon="12.932888260111213">
        <ele>586.54003899999998</ele>
        <time>2017-06-12T07:36:32Z</time>
      </trkpt>
      <trkpt lat="42.069529825821519" lon="12.932917177677155">
        <ele>587.97997999999995</ele>
        <time>2017-06-12T07:36:39Z</time>
      </trkpt>
      <trkpt lat="42.069687824696302" lon="12.93297216296196">
        <ele>589.90997300000004</ele>
        <time>2017-06-12T07:36:54Z</time>
      </trkpt>
      <trkpt lat="42.069817828014493" lon="12.933039302006364">
        <ele>590.39001499999995</ele>
        <time>2017-06-12T07:37:10Z</time>
      </trkpt>
      <trkpt lat="42.069947412237525" lon="12.933124965056777">
        <ele>590.86999500000002</ele>
        <time>2017-06-12T07:37:26Z</time>
      </trkpt>
      <trkpt lat="42.070042965933681" lon="12.933177184313536">
        <ele>590.86999500000002</ele>
        <time>2017-06-12T07:37:41Z</time>
      </trkpt>
      <trkpt lat="42.07018168643117" lon="12.933126473799348">
        <ele>592.79003899999998</ele>
        <time>2017-06-12T07:37:57Z</time>
      </trkpt>
      <trkpt lat="42.070322502404451" lon="12.933092275634408">
        <ele>593.26995799999997</ele>
        <time>2017-06-12T07:38:14Z</time>
      </trkpt>
      <trkpt lat="42.070437669754028" lon="12.933149859309196">
        <ele>593.26995799999997</ele>
        <time>2017-06-12T07:38:28Z</time>
      </trkpt>
      <trkpt lat="42.070608241483569" lon="12.933137789368629">
        <ele>593.26995799999997</ele>
        <time>2017-06-12T07:38:45Z</time>
      </trkpt>
      <trkpt lat="42.070757020264864" lon="12.933182967826724">
        <ele>594.22997999999995</ele>
        <time>2017-06-12T07:38:58Z</time>
      </trkpt>
      <trkpt lat="42.070856261998415" lon="12.933215741068125">
        <ele>594.71002199999998</ele>
        <time>2017-06-12T07:39:13Z</time>
      </trkpt>
      <trkpt lat="42.070894902572036" lon="12.933265613391995">
        <ele>594.71002199999998</ele>
        <time>2017-06-12T07:39:25Z</time>
      </trkpt>
      <trkpt lat="42.070902027189732" lon="12.933393185958266">
        <ele>594.71002199999998</ele>
        <time>2017-06-12T07:39:39Z</time>
      </trkpt>
      <trkpt lat="42.070929184556007" lon="12.933466359972954">
        <ele>594.71002199999998</ele>
        <time>2017-06-12T07:39:44Z</time>
      </trkpt>
      <trkpt lat="42.070996658876538" lon="12.933551939204335">
        <ele>593.26995799999997</ele>
        <time>2017-06-12T07:39:54Z</time>
      </trkpt>
      <trkpt lat="42.071104785427451" lon="12.93358052149415">
        <ele>592.79003899999998</ele>
        <time>2017-06-12T07:40:09Z</time>
      </trkpt>
      <trkpt lat="42.071135966107249" lon="12.933676159009337">
        <ele>590.39001499999995</ele>
        <time>2017-06-12T07:40:22Z</time>
      </trkpt>
      <trkpt lat="42.071204697713256" lon="12.933648498728871">
        <ele>588.46002199999998</ele>
        <time>2017-06-12T07:40:36Z</time>
      </trkpt>
      <trkpt lat="42.071277536451817" lon="12.933673225343227">
        <ele>586.05999799999995</ele>
        <time>2017-06-12T07:40:50Z</time>
      </trkpt>
      <trkpt lat="42.071328330785036" lon="12.933699376881123">
        <ele>583.65997300000004</ele>
        <time>2017-06-12T07:41:09Z</time>
      </trkpt>
      <trkpt lat="42.07134073600173" lon="12.933699125424027">
        <ele>583.17999299999997</ele>
        <time>2017-06-12T07:41:24Z</time>
      </trkpt>
      <trkpt lat="42.071453975513577" lon="12.933714631944895">
        <ele>582.70001200000002</ele>
        <time>2017-06-12T07:41:58Z</time>
      </trkpt>
      <trkpt lat="42.071389434859157" lon="12.933635925874114">
        <ele>581.72997999999995</ele>
        <time>2017-06-12T07:42:22Z</time>
      </trkpt>
      <trkpt lat="42.071335120126605" lon="12.933629890903831">
        <ele>581.72997999999995</ele>
        <time>2017-06-12T07:42:55Z</time>
      </trkpt>
      <trkpt lat="42.071325900033116" lon="12.93362352065742">
        <ele>581.25</ele>
        <time>2017-06-12T07:43:27Z</time>
      </trkpt>
      <trkpt lat="42.071324978023767" lon="12.933615138754249">
        <ele>581.25</ele>
        <time>2017-06-12T07:43:55Z</time>
      </trkpt>
      <trkpt lat="42.071359260007739" lon="12.933605164289474">
        <ele>579.80999799999995</ele>
        <time>2017-06-12T07:44:01Z</time>
      </trkpt>
      <trkpt lat="42.071402510628104" lon="12.933592675253749">
        <ele>577.89001499999995</ele>
        <time>2017-06-12T07:44:06Z</time>
      </trkpt>
      <trkpt lat="42.071495465934277" lon="12.933507012203336">
        <ele>574.52996800000005</ele>
        <time>2017-06-12T07:44:17Z</time>
      </trkpt>
      <trkpt lat="42.071507535874844" lon="12.933497205376625">
        <ele>573.55999799999995</ele>
        <time>2017-06-12T07:44:19Z</time>
      </trkpt>
      <trkpt lat="42.07158456556499" lon="12.93353358283639">
        <ele>570.67999299999997</ele>
        <time>2017-06-12T07:44:27Z</time>
      </trkpt>
      <trkpt lat="42.071621613577008" lon="12.933642296120524">
        <ele>567.79998799999998</ele>
        <time>2017-06-12T07:44:37Z</time>
      </trkpt>
      <trkpt lat="42.071684477850795" lon="12.933774311095476">
        <ele>565.86999500000002</ele>
        <time>2017-06-12T07:44:50Z</time>
      </trkpt>
      <trkpt lat="42.071703840047121" lon="12.933820076286793">
        <ele>565.39001499999995</ele>
        <time>2017-06-12T07:44:53Z</time>
      </trkpt>
      <trkpt lat="42.071710461750627" lon="12.93398654088378">
        <ele>562.98999000000003</ele>
        <time>2017-06-12T07:45:08Z</time>
      </trkpt>
      <trkpt lat="42.071725632995367" lon="12.933977320790291">
        <ele>562.51000999999997</ele>
        <time>2017-06-12T07:45:24Z</time>
      </trkpt>
      <trkpt lat="42.071779360994697" lon="12.933938428759575">
        <ele>559.14001499999995</ele>
        <time>2017-06-12T07:45:37Z</time>
      </trkpt>
      <trkpt lat="42.071841470897198" lon="12.933863662183285">
        <ele>556.26000999999997</ele>
        <time>2017-06-12T07:45:52Z</time>
      </trkpt>
      <trkpt lat="42.071887822821736" lon="12.933820998296142">
        <ele>553.38000499999998</ele>
        <time>2017-06-12T07:46:07Z</time>
      </trkpt>
      <trkpt lat="42.071941969916224" lon="12.933821668848395">
        <ele>551.45001200000002</ele>
        <time>2017-06-12T07:46:23Z</time>
      </trkpt>
      <trkpt lat="42.071954710409045" lon="12.933822926133871">
        <ele>550.01000999999997</ele>
        <time>2017-06-12T07:46:39Z</time>
      </trkpt>
      <trkpt lat="42.071983879432082" lon="12.933769701048732">
        <ele>548.57000700000003</ele>
        <time>2017-06-12T07:46:57Z</time>
      </trkpt>
      <trkpt lat="42.072043223306537" lon="12.933771880343556">
        <ele>546.64996299999996</ele>
        <time>2017-06-12T07:47:10Z</time>
      </trkpt>
      <trkpt lat="42.072067111730576" lon="12.933807168155909">
        <ele>546.64996299999996</ele>
        <time>2017-06-12T07:47:30Z</time>
      </trkpt>
      <trkpt lat="42.072164425626397" lon="12.933791913092136">
        <ele>544.72003199999995</ele>
        <time>2017-06-12T07:47:41Z</time>
      </trkpt>
      <trkpt lat="42.072278503328562" lon="12.933776490390301">
        <ele>544.72003199999995</ele>
        <time>2017-06-12T07:47:53Z</time>
      </trkpt>
      <trkpt lat="42.072301134467125" lon="12.933773892000318">
        <ele>544.72003199999995</ele>
        <time>2017-06-12T07:47:55Z</time>
      </trkpt>
      <trkpt lat="42.072404231876135" lon="12.933755116537213">
        <ele>542.79998799999998</ele>
        <time>2017-06-12T07:48:09Z</time>
      </trkpt>
      <trkpt lat="42.072465419769287" lon="12.933722678571939">
        <ele>539.44000200000005</ele>
        <time>2017-06-12T07:48:20Z</time>
      </trkpt>
      <trkpt lat="42.072565332055092" lon="12.933702059090137">
        <ele>536.07000700000003</ele>
        <time>2017-06-12T07:48:33Z</time>
      </trkpt>
      <trkpt lat="42.072666836902499" lon="12.933607427403331">
        <ele>534.14996299999996</ele>
        <time>2017-06-12T07:48:47Z</time>
      </trkpt>
      <trkpt lat="42.072706902399659" lon="12.933652941137552">
        <ele>530.78997800000002</ele>
        <time>2017-06-12T07:48:58Z</time>
      </trkpt>
      <trkpt lat="42.07270790822804" lon="12.933662412688136">
        <ele>530.78997800000002</ele>
        <time>2017-06-12T07:48:59Z</time>
      </trkpt>
      <trkpt lat="42.072745794430375" lon="12.933796523138881">
        <ele>527.89996299999996</ele>
        <time>2017-06-12T07:49:13Z</time>
      </trkpt>
      <trkpt lat="42.072776723653078" lon="12.933897776529193">
        <ele>525.97997999999995</ele>
        <time>2017-06-12T07:49:28Z</time>
      </trkpt>
      <trkpt lat="42.072771275416017" lon="12.933926610276103">
        <ele>525.97997999999995</ele>
        <time>2017-06-12T07:49:33Z</time>
      </trkpt>
      <trkpt lat="42.072749314829707" lon="12.933984277769923">
        <ele>522.13000499999998</ele>
        <time>2017-06-12T07:49:48Z</time>
      </trkpt>
      <trkpt lat="42.072797175496817" lon="12.933992659673095">
        <ele>518.77002000000005</ele>
        <time>2017-06-12T07:50:00Z</time>
      </trkpt>
      <trkpt lat="42.072816034778953" lon="12.93403398245573">
        <ele>515.39996299999996</ele>
        <time>2017-06-12T07:50:13Z</time>
      </trkpt>
      <trkpt lat="42.072869259864092" lon="12.934092907235026">
        <ele>512.52002000000005</ele>
        <time>2017-06-12T07:50:28Z</time>
      </trkpt>
      <trkpt lat="42.072884095832705" lon="12.934136912226677">
        <ele>509.63998400000003</ele>
        <time>2017-06-12T07:50:42Z</time>
      </trkpt>
      <trkpt lat="42.072871271520853" lon="12.93418443761766">
        <ele>508.67001299999998</ele>
        <time>2017-06-12T07:50:57Z</time>
      </trkpt>
      <trkpt lat="42.072861799970269" lon="12.934197764843702">
        <ele>506.27001999999999</ele>
        <time>2017-06-12T07:51:15Z</time>
      </trkpt>
      <trkpt lat="42.072870181873441" lon="12.934177732095122">
        <ele>506.75003099999998</ele>
        <time>2017-06-12T07:51:28Z</time>
      </trkpt>
      <trkpt lat="42.072895159944892" lon="12.93416490778327">
        <ele>505.30999800000001</ele>
        <time>2017-06-12T07:51:39Z</time>
      </trkpt>
      <trkpt lat="42.0728774741292" lon="12.934213439002633">
        <ele>505.30999800000001</ele>
        <time>2017-06-12T07:51:56Z</time>
      </trkpt>
      <trkpt lat="42.072890801355243" lon="12.934300526976585">
        <ele>504.82998700000002</ele>
        <time>2017-06-12T07:52:13Z</time>
      </trkpt>
      <trkpt lat="42.072894908487797" lon="12.934295916929841">
        <ele>504.82998700000002</ele>
        <time>2017-06-12T07:52:42Z</time>
      </trkpt>
      <trkpt lat="42.072895662859082" lon="12.934292983263731">
        <ele>504.82998700000002</ele>
        <time>2017-06-12T07:52:43Z</time>
      </trkpt>
      <trkpt lat="42.07291116937995" lon="12.934237662702799">
        <ele>506.27001999999999</ele>
        <time>2017-06-12T07:52:48Z</time>
      </trkpt>
      <trkpt lat="42.072895998135209" lon="12.934126183390617">
        <ele>507.709991</ele>
        <time>2017-06-12T07:53:02Z</time>
      </trkpt>
      <trkpt lat="42.072928100824356" lon="12.934016715735197">
        <ele>510.11999500000002</ele>
        <time>2017-06-12T07:53:15Z</time>
      </trkpt>
      <trkpt lat="42.072947127744555" lon="12.933933734893799">
        <ele>511.55999800000001</ele>
        <time>2017-06-12T07:53:27Z</time>
      </trkpt>
      <trkpt lat="42.07296933978796" lon="12.933882270008326">
        <ele>513.47997999999995</ele>
        <time>2017-06-12T07:53:39Z</time>
      </trkpt>
      <trkpt lat="42.073022564873099" lon="12.933870535343885">
        <ele>516.36999500000002</ele>
        <time>2017-06-12T07:53:51Z</time>
      </trkpt>
      <trkpt lat="42.0730812381953" lon="12.933914372697473">
        <ele>517.80999799999995</ele>
        <time>2017-06-12T07:54:05Z</time>
      </trkpt>
      <trkpt lat="42.073135636746883" lon="12.934010261669755">
        <ele>520.69000200000005</ele>
        <time>2017-06-12T07:54:19Z</time>
      </trkpt>
      <trkpt lat="42.073170924559236" lon="12.934051835909486">
        <ele>522.60998500000005</ele>
        <time>2017-06-12T07:54:33Z</time>
      </trkpt>
      <trkpt lat="42.073184587061405" lon="12.934056278318167">
        <ele>524.05999799999995</ele>
        <time>2017-06-12T07:54:55Z</time>
      </trkpt>
      <trkpt lat="42.073231609538198" lon="12.934100534766912">
        <ele>525.97997999999995</ele>
        <time>2017-06-12T07:55:12Z</time>
      </trkpt>
      <trkpt lat="42.073220126330853" lon="12.934089386835694">
        <ele>529.34002699999996</ele>
        <time>2017-06-12T07:55:24Z</time>
      </trkpt>
      <trkpt lat="42.073191963136196" lon="12.934013027697802">
        <ele>531.27002000000005</ele>
        <time>2017-06-12T07:55:36Z</time>
      </trkpt>
      <trkpt lat="42.073231022804976" lon="12.933977488428354">
        <ele>533.19000200000005</ele>
        <time>2017-06-12T07:55:47Z</time>
      </trkpt>
      <trkpt lat="42.073272429406643" lon="12.933944463729858">
        <ele>535.59002699999996</ele>
        <time>2017-06-12T07:55:59Z</time>
      </trkpt>
      <trkpt lat="42.073290701955557" lon="12.933890232816339">
        <ele>537.98999000000003</ele>
        <time>2017-06-12T07:56:12Z</time>
      </trkpt>
      <trkpt lat="42.073317104950547" lon="12.933868607506156">
        <ele>539.919983</ele>
        <time>2017-06-12T07:56:22Z</time>
      </trkpt>
      <trkpt lat="42.073357421904802" lon="12.933829128742218">
        <ele>541.84002699999996</ele>
        <time>2017-06-12T07:56:33Z</time>
      </trkpt>
      <trkpt lat="42.073420118540525" lon="12.933930298313498">
        <ele>542.32000700000003</ele>
        <time>2017-06-12T07:56:48Z</time>
      </trkpt>
      <trkpt lat="42.073466638103127" lon="12.933955695480108">
        <ele>542.79998799999998</ele>
        <time>2017-06-12T07:57:00Z</time>
      </trkpt>
      <trkpt lat="42.07354836165905" lon="12.934025265276432">
        <ele>544.72003199999995</ele>
        <time>2017-06-12T07:57:12Z</time>
      </trkpt>
      <trkpt lat="42.073609968647361" lon="12.934085195884109">
        <ele>546.169983</ele>
        <time>2017-06-12T07:57:23Z</time>
      </trkpt>
      <trkpt lat="42.073654141277075" lon="12.934194412082434">
        <ele>547.13000499999998</ele>
        <time>2017-06-12T07:57:34Z</time>
      </trkpt>
      <trkpt lat="42.073713736608624" lon="12.934224084019661">
        <ele>549.04998799999998</ele>
        <time>2017-06-12T07:57:48Z</time>
      </trkpt>
      <trkpt lat="42.073777690529823" lon="12.934243278577924">
        <ele>551.45001200000002</ele>
        <time>2017-06-12T07:58:00Z</time>
      </trkpt>
      <trkpt lat="42.073831083253026" lon="12.934286780655384">
        <ele>553.38000499999998</ele>
        <time>2017-06-12T07:58:11Z</time>
      </trkpt>
      <trkpt lat="42.073873830959201" lon="12.934351908043027">
        <ele>554.82000700000003</ele>
        <time>2017-06-12T07:58:22Z</time>
      </trkpt>
      <trkpt lat="42.073909537866712" lon="12.934503788128495">
        <ele>557.70001200000002</ele>
        <time>2017-06-12T07:58:39Z</time>
      </trkpt>
      <trkpt lat="42.073942814022303" lon="12.934589115902781">
        <ele>560.10998500000005</ele>
        <time>2017-06-12T07:58:53Z</time>
      </trkpt>
      <trkpt lat="42.07396661862731" lon="12.934665139764547">
        <ele>562.51000999999997</ele>
        <time>2017-06-12T07:59:07Z</time>
      </trkpt>
      <trkpt lat="42.073937365785241" lon="12.934682741761208">
        <ele>563.47003199999995</ele>
        <time>2017-06-12T07:59:23Z</time>
      </trkpt>
      <trkpt lat="42.073955973610282" lon="12.93475859798491">
        <ele>563.47003199999995</ele>
        <time>2017-06-12T07:59:37Z</time>
      </trkpt>
      <trkpt lat="42.073993105441332" lon="12.934836633503437">
        <ele>564.90997300000004</ele>
        <time>2017-06-12T07:59:49Z</time>
      </trkpt>
      <trkpt lat="42.074034931138158" lon="12.934978120028973">
        <ele>566.34997599999997</ele>
        <time>2017-06-12T08:00:03Z</time>
      </trkpt>
      <trkpt lat="42.074037110432982" lon="12.934989100322127">
        <ele>566.34997599999997</ele>
        <time>2017-06-12T08:00:04Z</time>
      </trkpt>
      <trkpt lat="42.074071895331144" lon="12.935116672888398">
        <ele>566.830017</ele>
        <time>2017-06-12T08:00:20Z</time>
      </trkpt>
      <trkpt lat="42.074108440428972" lon="12.935222368687391">
        <ele>567.32000700000003</ele>
        <time>2017-06-12T08:00:31Z</time>
      </trkpt>
      <trkpt lat="42.074114810675383" lon="12.935230666771531">
        <ele>567.32000700000003</ele>
        <time>2017-06-12T08:00:32Z</time>
      </trkpt>
      <trkpt lat="42.074147583916783" lon="12.935335859656334">
        <ele>568.76000999999997</ele>
        <time>2017-06-12T08:00:44Z</time>
      </trkpt>
      <trkpt lat="42.074145572260022" lon="12.935388414189219">
        <ele>569.72003199999995</ele>
        <time>2017-06-12T08:00:54Z</time>
      </trkpt>
      <trkpt lat="42.074134591966867" lon="12.935550939291716">
        <ele>572.11999500000002</ele>
        <time>2017-06-12T08:01:08Z</time>
      </trkpt>
      <trkpt lat="42.074101315811276" lon="12.935666777193546">
        <ele>574.04003899999998</ele>
        <time>2017-06-12T08:01:20Z</time>
      </trkpt>
      <trkpt lat="42.074096035212278" lon="12.935775490477681">
        <ele>575.48999000000003</ele>
        <time>2017-06-12T08:01:33Z</time>
      </trkpt>
      <trkpt lat="42.074122186750174" lon="12.93578278273344">
        <ele>577.40997300000004</ele>
        <time>2017-06-12T08:01:41Z</time>
      </trkpt>
      <trkpt lat="42.074158061295748" lon="12.935781441628933">
        <ele>578.36999500000002</ele>
        <time>2017-06-12T08:01:48Z</time>
      </trkpt>
      <trkpt lat="42.074241461232305" lon="12.935831816866994">
        <ele>580.29003899999998</ele>
        <time>2017-06-12T08:02:02Z</time>
      </trkpt>
      <trkpt lat="42.074293596670032" lon="12.93593960814178">
        <ele>582.70001200000002</ele>
        <time>2017-06-12T08:02:15Z</time>
      </trkpt>
      <trkpt lat="42.074325112625957" lon="12.936040861532092">
        <ele>584.61999500000002</ele>
        <time>2017-06-12T08:02:26Z</time>
      </trkpt>
      <trkpt lat="42.07435604184866" lon="12.936135912314057">
        <ele>586.05999799999995</ele>
        <time>2017-06-12T08:02:38Z</time>
      </trkpt>
      <trkpt lat="42.074366183951497" lon="12.936179414391518">
        <ele>587.97997999999995</ele>
        <time>2017-06-12T08:02:53Z</time>
      </trkpt>
      <trkpt lat="42.07440591417253" lon="12.936233477666974">
        <ele>589.90997300000004</ele>
        <time>2017-06-12T08:03:05Z</time>
      </trkpt>
      <trkpt lat="42.074477495625615" lon="12.936293324455619">
        <ele>591.830017</ele>
        <time>2017-06-12T08:03:19Z</time>
      </trkpt>
      <trkpt lat="42.074511693790555" lon="12.936372365802526">
        <ele>594.22997999999995</ele>
        <time>2017-06-12T08:03:30Z</time>
      </trkpt>
      <trkpt lat="42.074560225009918" lon="12.93639013543725">
        <ele>595.19000200000005</ele>
        <time>2017-06-12T08:03:41Z</time>
      </trkpt>
      <trkpt lat="42.074583610519767" lon="12.936502369120717">
        <ele>597.11999500000002</ele>
        <time>2017-06-12T08:03:53Z</time>
      </trkpt>
      <trkpt lat="42.074639014899731" lon="12.936547379940748">
        <ele>599.51995799999997</ele>
        <time>2017-06-12T08:04:06Z</time>
      </trkpt>
      <trkpt lat="42.074703136458993" lon="12.9366016946733">
        <ele>600.96002199999998</ele>
        <time>2017-06-12T08:04:17Z</time>
      </trkpt>
      <trkpt lat="42.074761725962162" lon="12.93667159974575">
        <ele>603.35998500000005</ele>
        <time>2017-06-12T08:04:31Z</time>
      </trkpt>
      <trkpt lat="42.074830709025264" lon="12.936723399907351">
        <ele>604.330017</ele>
        <time>2017-06-12T08:04:42Z</time>
      </trkpt>
      <trkpt lat="42.074878318235278" lon="12.936834460124373">
        <ele>606.72997999999995</ele>
        <time>2017-06-12T08:04:54Z</time>
      </trkpt>
      <trkpt lat="42.074911259114742" lon="12.936863461509347">
        <ele>607.69000200000005</ele>
        <time>2017-06-12T08:05:00Z</time>
      </trkpt>
      <trkpt lat="42.074977727606893" lon="12.936925822868943">
        <ele>608.64996299999996</ele>
        <time>2017-06-12T08:05:12Z</time>
      </trkpt>
      <trkpt lat="42.074999269098043" lon="12.936959601938725">
        <ele>609.60998500000005</ele>
        <time>2017-06-12T08:05:25Z</time>
      </trkpt>
      <trkpt lat="42.074998766183853" lon="12.936986507847905">
        <ele>610.09002699999996</ele>
        <time>2017-06-12T08:05:40Z</time>
      </trkpt>
      <trkpt lat="42.075062301009893" lon="12.936919704079628">
        <ele>610.09002699999996</ele>
        <time>2017-06-12T08:05:55Z</time>
      </trkpt>
      <trkpt lat="42.075103204697371" lon="12.936876872554421">
        <ele>609.13000499999998</ele>
        <time>2017-06-12T08:06:00Z</time>
      </trkpt>
      <trkpt lat="42.075121309608221" lon="12.936847116798162">
        <ele>609.13000499999998</ele>
        <time>2017-06-12T08:06:03Z</time>
      </trkpt>
      <trkpt lat="42.07520336844027" lon="12.936747036874294">
        <ele>609.13000499999998</ele>
        <time>2017-06-12T08:06:17Z</time>
      </trkpt>
      <trkpt lat="42.075211582705379" lon="12.936727087944746">
        <ele>608.64996299999996</ele>
        <time>2017-06-12T08:06:22Z</time>
      </trkpt>
      <trkpt lat="42.07523756660521" lon="12.936624996364117">
        <ele>608.169983</ele>
        <time>2017-06-12T08:06:36Z</time>
      </trkpt>
      <trkpt lat="42.07524293102324" lon="12.936585769057274">
        <ele>609.60998500000005</ele>
        <time>2017-06-12T08:06:51Z</time>
      </trkpt>
      <trkpt lat="42.07525416277349" lon="12.936602365225554">
        <ele>609.60998500000005</ele>
        <time>2017-06-12T08:07:07Z</time>
      </trkpt>
      <trkpt lat="42.075242595747113" lon="12.936615021899343">
        <ele>608.169983</ele>
        <time>2017-06-12T08:07:10Z</time>
      </trkpt>
      <trkpt lat="42.075253240764141" lon="12.936653662472963">
        <ele>608.169983</ele>
        <time>2017-06-12T08:07:22Z</time>
      </trkpt>
      <trkpt lat="42.075212085619569" lon="12.936722729355097">
        <ele>608.169983</ele>
        <time>2017-06-12T08:07:45Z</time>
      </trkpt>
      <trkpt lat="42.075202278792858" lon="12.936758436262608">
        <ele>609.13000499999998</ele>
        <time>2017-06-12T08:07:58Z</time>
      </trkpt>
      <trkpt lat="42.075257012620568" lon="12.936809733510017">
        <ele>610.09002699999996</ele>
        <time>2017-06-12T08:08:14Z</time>
      </trkpt>
      <trkpt lat="42.075324570760131" lon="12.936852900311351">
        <ele>612.97997999999995</ele>
        <time>2017-06-12T08:08:27Z</time>
      </trkpt>
      <trkpt lat="42.075255671516061" lon="12.936812583357096">
        <ele>611.54003899999998</ele>
        <time>2017-06-12T08:08:38Z</time>
      </trkpt>
      <trkpt lat="42.075183838605881" lon="12.93675902299583">
        <ele>608.169983</ele>
        <time>2017-06-12T08:08:52Z</time>
      </trkpt>
      <trkpt lat="42.075171181932092" lon="12.936785677447915">
        <ele>608.169983</ele>
        <time>2017-06-12T08:08:55Z</time>
      </trkpt>
      <trkpt lat="42.075135391205549" lon="12.936885505914688">
        <ele>609.60998500000005</ele>
        <time>2017-06-12T08:09:10Z</time>
      </trkpt>
      <trkpt lat="42.075120890513062" lon="12.936886679381132">
        <ele>609.60998500000005</ele>
        <time>2017-06-12T08:09:25Z</time>
      </trkpt>
      <trkpt lat="42.075103372335434" lon="12.93683429248631">
        <ele>608.64996299999996</ele>
        <time>2017-06-12T08:09:39Z</time>
      </trkpt>
      <trkpt lat="42.075102282688022" lon="12.936857594177127">
        <ele>608.64996299999996</ele>
        <time>2017-06-12T08:09:51Z</time>
      </trkpt>
      <trkpt lat="42.075101863592863" lon="12.936863461509347">
        <ele>608.64996299999996</ele>
        <time>2017-06-12T08:10:17Z</time>
      </trkpt>
      <trkpt lat="42.075123572722077" lon="12.936879638582468">
        <ele>608.64996299999996</ele>
        <time>2017-06-12T08:10:41Z</time>
      </trkpt>
      <trkpt lat="42.075127679854631" lon="12.936845775693655">
        <ele>608.64996299999996</ele>
        <time>2017-06-12T08:10:47Z</time>
      </trkpt>
      <trkpt lat="42.075213426724076" lon="12.93672189116478">
        <ele>608.64996299999996</ele>
        <time>2017-06-12T08:11:03Z</time>
      </trkpt>
      <trkpt lat="42.075252737849951" lon="12.936586774885654">
        <ele>608.64996299999996</ele>
        <time>2017-06-12T08:11:17Z</time>
      </trkpt>
      <trkpt lat="42.075269082561135" lon="12.93653329834342">
        <ele>608.64996299999996</ele>
        <time>2017-06-12T08:11:22Z</time>
      </trkpt>
      <trkpt lat="42.075300011783838" lon="12.936325594782829">
        <ele>610.57000700000003</ele>
        <time>2017-06-12T08:11:37Z</time>
      </trkpt>
      <trkpt lat="42.07539196126163" lon="12.936222497373819">
        <ele>611.05999799999995</ele>
        <time>2017-06-12T08:11:51Z</time>
      </trkpt>
      <trkpt lat="42.07540025934577" lon="12.936190478503704">
        <ele>611.54003899999998</ele>
        <time>2017-06-12T08:12:07Z</time>
      </trkpt>
      <trkpt lat="42.075366312637925" lon="12.936233393847942">
        <ele>611.54003899999998</ele>
        <time>2017-06-12T08:12:20Z</time>
      </trkpt>
      <trkpt lat="42.075283667072654" lon="12.936310507357121">
        <ele>610.09002699999996</ele>
        <time>2017-06-12T08:12:33Z</time>
      </trkpt>
      <trkpt lat="42.075288193300366" lon="12.93642676435411">
        <ele>609.13000499999998</ele>
        <time>2017-06-12T08:12:46Z</time>
      </trkpt>
      <trkpt lat="42.07526003010571" lon="12.936557102948427">
        <ele>608.169983</ele>
        <time>2017-06-12T08:13:00Z</time>
      </trkpt>
      <trkpt lat="42.07521996460855" lon="12.93667646124959">
        <ele>608.169983</ele>
        <time>2017-06-12T08:13:15Z</time>
      </trkpt>
      <trkpt lat="42.075145533308387" lon="12.936795568093657">
        <ele>609.13000499999998</ele>
        <time>2017-06-12T08:13:27Z</time>
      </trkpt>
      <trkpt lat="42.075127093121409" lon="12.9368865955621">
        <ele>609.13000499999998</ele>
        <time>2017-06-12T08:13:42Z</time>
      </trkpt>
      <trkpt lat="42.075132876634598" lon="12.936963373795152">
        <ele>610.57000700000003</ele>
        <time>2017-06-12T08:13:55Z</time>
      </trkpt>
      <trkpt lat="42.075149388983846" lon="12.936928337439895">
        <ele>610.57000700000003</ele>
        <time>2017-06-12T08:14:06Z</time>
      </trkpt>
      <trkpt lat="42.075226837769151" lon="12.936871089041233">
        <ele>610.57000700000003</ele>
        <time>2017-06-12T08:14:20Z</time>
      </trkpt>
      <trkpt lat="42.075252989307046" lon="12.936933115124702">
        <ele>612.97997999999995</ele>
        <time>2017-06-12T08:14:35Z</time>
      </trkpt>
      <trkpt lat="42.07522826269269" lon="12.936940407380462">
        <ele>613.94000200000005</ele>
        <time>2017-06-12T08:14:47Z</time>
      </trkpt>
      <trkpt lat="42.075253995135427" lon="12.937028836458921">
        <ele>615.38000499999998</ele>
        <time>2017-06-12T08:15:02Z</time>
      </trkpt>
      <trkpt lat="42.075275117531419" lon="12.937059765681624">
        <ele>615.85998500000005</ele>
        <time>2017-06-12T08:15:16Z</time>
      </trkpt>
      <trkpt lat="42.075244020670652" lon="12.937040822580457">
        <ele>616.34002699999996</ele>
        <time>2017-06-12T08:15:37Z</time>
      </trkpt>
      <trkpt lat="42.075217869132757" lon="12.936975359916687">
        <ele>613.94000200000005</ele>
        <time>2017-06-12T08:15:53Z</time>
      </trkpt>
      <trkpt lat="42.075215773656964" lon="12.936913166195154">
        <ele>612.5</ele>
        <time>2017-06-12T08:16:03Z</time>
      </trkpt>
      <trkpt lat="42.075185514986515" lon="12.936874274164438">
        <ele>611.05999799999995</ele>
        <time>2017-06-12T08:16:15Z</time>
      </trkpt>
      <trkpt lat="42.075106306001544" lon="12.936864383518696">
        <ele>610.09002699999996</ele>
        <time>2017-06-12T08:16:29Z</time>
      </trkpt>
      <trkpt lat="42.075097924098372" lon="12.936863293871284">
        <ele>609.13000499999998</ele>
        <time>2017-06-12T08:16:44Z</time>
      </trkpt>
      <trkpt lat="42.075119633227587" lon="12.936804033815861">
        <ele>608.64996299999996</ele>
        <time>2017-06-12T08:16:54Z</time>
      </trkpt>
      <trkpt lat="42.07517696544528" lon="12.936790874227881">
        <ele>608.64996299999996</ele>
        <time>2017-06-12T08:17:06Z</time>
      </trkpt>
      <trkpt lat="42.075162883847952" lon="12.936804872006178">
        <ele>608.64996299999996</ele>
        <time>2017-06-12T08:17:35Z</time>
      </trkpt>
      <trkpt lat="42.07511929795146" lon="12.936842506751418">
        <ele>608.64996299999996</ele>
        <time>2017-06-12T08:17:50Z</time>
      </trkpt>
      <trkpt lat="42.075120722874999" lon="12.936852984130383">
        <ele>608.64996299999996</ele>
        <time>2017-06-12T08:18:17Z</time>
      </trkpt>
      <trkpt lat="42.075101109221578" lon="12.936895731836557">
        <ele>608.64996299999996</ele>
        <time>2017-06-12T08:18:37Z</time>
      </trkpt>
      <trkpt lat="42.07512516528368" lon="12.936876034364104">
        <ele>608.64996299999996</ele>
        <time>2017-06-12T08:19:07Z</time>
      </trkpt>
      <trkpt lat="42.075142180547118" lon="12.936857929453254">
        <ele>608.64996299999996</ele>
        <time>2017-06-12T08:19:29Z</time>
      </trkpt>
      <trkpt lat="42.075147209689021" lon="12.936838399618864">
        <ele>608.169983</ele>
        <time>2017-06-12T08:19:49Z</time>
      </trkpt>
      <trkpt lat="42.075162632390857" lon="12.936808727681637">
        <ele>608.169983</ele>
        <time>2017-06-12T08:19:53Z</time>
      </trkpt>
      <trkpt lat="42.075204374268651" lon="12.936764471232891">
        <ele>608.169983</ele>
        <time>2017-06-12T08:20:06Z</time>
      </trkpt>
      <trkpt lat="42.075222982093692" lon="12.936758939176798">
        <ele>608.169983</ele>
        <time>2017-06-12T08:20:31Z</time>
      </trkpt>
      <trkpt lat="42.075208565220237" lon="12.936760280281305">
        <ele>608.169983</ele>
        <time>2017-06-12T08:20:56Z</time>
      </trkpt>
      <trkpt lat="42.075198506936431" lon="12.936763130128384">
        <ele>608.169983</ele>
        <time>2017-06-12T08:21:25Z</time>
      </trkpt>
      <trkpt lat="42.07513153553009" lon="12.936824066564441">
        <ele>608.169983</ele>
        <time>2017-06-12T08:21:42Z</time>
      </trkpt>
      <trkpt lat="42.07513933070004" lon="12.936847200617194">
        <ele>609.13000499999998</ele>
        <time>2017-06-12T08:22:10Z</time>
      </trkpt>
      <trkpt lat="42.075109072029591" lon="12.936842925846577">
        <ele>609.60998500000005</ele>
        <time>2017-06-12T08:22:46Z</time>
      </trkpt>
      <trkpt lat="42.075119633227587" lon="12.936842003837228">
        <ele>609.60998500000005</ele>
        <time>2017-06-12T08:23:16Z</time>
      </trkpt>
      <trkpt lat="42.07511586137116" lon="12.93684552423656">
        <ele>608.64996299999996</ele>
        <time>2017-06-12T08:23:29Z</time>
      </trkpt>
      <trkpt lat="42.075106808915734" lon="12.936832364648581">
        <ele>608.64996299999996</ele>
        <time>2017-06-12T08:23:49Z</time>
      </trkpt>
      <trkpt lat="42.075107479467988" lon="12.936858013272285">
        <ele>608.64996299999996</ele>
        <time>2017-06-12T08:24:13Z</time>
      </trkpt>
      <trkpt lat="42.075103623792529" lon="12.936861701309681">
        <ele>608.64996299999996</ele>
        <time>2017-06-12T08:24:36Z</time>
      </trkpt>
      <trkpt lat="42.075106138363481" lon="12.936843764036894">
        <ele>608.64996299999996</ele>
        <time>2017-06-12T08:25:00Z</time>
      </trkpt>
      <trkpt lat="42.075123740360141" lon="12.936867065727711">
        <ele>608.64996299999996</ele>
        <time>2017-06-12T08:25:26Z</time>
      </trkpt>
      <trkpt lat="42.075121477246284" lon="12.936841500923038">
        <ele>608.64996299999996</ele>
        <time>2017-06-12T08:25:57Z</time>
      </trkpt>
      <trkpt lat="42.075125584378839" lon="12.936839070171118">
        <ele>608.64996299999996</ele>
        <time>2017-06-12T08:26:17Z</time>
      </trkpt>
      <trkpt lat="42.07513639703393" lon="12.936843177303672">
        <ele>608.64996299999996</ele>
        <time>2017-06-12T08:26:35Z</time>
      </trkpt>
      <trkpt lat="42.075130781158805" lon="12.936829179525375">
        <ele>608.64996299999996</ele>
        <time>2017-06-12T08:26:54Z</time>
      </trkpt>
      <trkpt lat="42.075137738138437" lon="12.936818702146411">
        <ele>608.64996299999996</ele>
        <time>2017-06-12T08:26:57Z</time>
      </trkpt>
      <trkpt lat="42.075095241889358" lon="12.936865221709013">
        <ele>608.169983</ele>
        <time>2017-06-12T08:27:11Z</time>
      </trkpt>
      <trkpt lat="42.075040759518743" lon="12.93693982064724">
        <ele>609.60998500000005</ele>
        <time>2017-06-12T08:27:21Z</time>
      </trkpt>
      <trkpt lat="42.074994659051299" lon="12.936977539211512">
        <ele>610.09002699999996</ele>
        <time>2017-06-12T08:27:28Z</time>
      </trkpt>
      <trkpt lat="42.074919892475009" lon="12.937055826187134">
        <ele>611.05999799999995</ele>
        <time>2017-06-12T08:27:44Z</time>
      </trkpt>
      <trkpt lat="42.074811011552811" lon="12.937130676582456">
        <ele>612.5</ele>
        <time>2017-06-12T08:28:00Z</time>
      </trkpt>
      <trkpt lat="42.074789805337787" lon="12.937222877517343">
        <ele>612.97997999999995</ele>
        <time>2017-06-12T08:28:13Z</time>
      </trkpt>
      <trkpt lat="42.074807407334447" lon="12.937219440937042">
        <ele>612.97997999999995</ele>
        <time>2017-06-12T08:28:35Z</time>
      </trkpt>
      <trkpt lat="42.074798438698053" lon="12.937174178659916">
        <ele>612.97997999999995</ele>
        <time>2017-06-12T08:28:52Z</time>
      </trkpt>
      <trkpt lat="42.074853926897049" lon="12.937124809250236">
        <ele>612.01995799999997</ele>
        <time>2017-06-12T08:28:59Z</time>
      </trkpt>
      <trkpt lat="42.074940092861652" lon="12.937079882249236">
        <ele>611.54003899999998</ele>
        <time>2017-06-12T08:29:08Z</time>
      </trkpt>
      <trkpt lat="42.074996335431933" lon="12.936981730163097">
        <ele>610.09002699999996</ele>
        <time>2017-06-12T08:29:19Z</time>
      </trkpt>
      <trkpt lat="42.07509683445096" lon="12.936867736279964">
        <ele>609.13000499999998</ele>
        <time>2017-06-12T08:29:32Z</time>
      </trkpt>
      <trkpt lat="42.075104378163815" lon="12.936859941110015">
        <ele>609.13000499999998</ele>
        <time>2017-06-12T08:29:33Z</time>
      </trkpt>
      <trkpt lat="42.07518333569169" lon="12.936779139563441">
        <ele>609.13000499999998</ele>
        <time>2017-06-12T08:29:48Z</time>
      </trkpt>
      <trkpt lat="42.075195237994194" lon="12.936766315251589">
        <ele>608.169983</ele>
        <time>2017-06-12T08:30:06Z</time>
      </trkpt>
      <trkpt lat="42.07519356161356" lon="12.93676782399416">
        <ele>609.60998500000005</ele>
        <time>2017-06-12T08:30:31Z</time>
      </trkpt>
      <trkpt lat="42.075175959616899" lon="12.93679766356945">
        <ele>609.60998500000005</ele>
        <time>2017-06-12T08:30:58Z</time>
      </trkpt>
      <trkpt lat="42.075173193588853" lon="12.936799423769116">
        <ele>609.60998500000005</ele>
        <time>2017-06-12T08:31:21Z</time>
      </trkpt>
      <trkpt lat="42.075198423117399" lon="12.936809062957764">
        <ele>609.60998500000005</ele>
        <time>2017-06-12T08:31:48Z</time>
      </trkpt>
      <trkpt lat="42.075192388147116" lon="12.936804033815861">
        <ele>609.60998500000005</ele>
        <time>2017-06-12T08:32:00Z</time>
      </trkpt>
      <trkpt lat="42.075034640729427" lon="12.936957087367773">
        <ele>603.84997599999997</ele>
        <time>2017-06-12T08:33:06Z</time>
      </trkpt>
      <trkpt lat="42.075034892186522" lon="12.936954740434885">
        <ele>603.84997599999997</ele>
        <time>2017-06-12T08:33:07Z</time>
      </trkpt>
      <trkpt lat="42.075170427560806" lon="12.936767572537065">
        <ele>605.76995799999997</ele>
        <time>2017-06-12T08:33:38Z</time>
      </trkpt>
      <trkpt lat="42.075163135305047" lon="12.936795316636562">
        <ele>607.69000200000005</ele>
        <time>2017-06-12T08:33:55Z</time>
      </trkpt>
      <trkpt lat="42.075143940746784" lon="12.936811493709683">
        <ele>607.69000200000005</ele>
        <time>2017-06-12T08:33:57Z</time>
      </trkpt>
      <trkpt lat="42.075079400092363" lon="12.936869161203504">
        <ele>609.13000499999998</ele>
        <time>2017-06-12T08:34:11Z</time>
      </trkpt>
      <trkpt lat="42.075079064816236" lon="12.936875615268946">
        <ele>607.69000200000005</ele>
        <time>2017-06-12T08:34:13Z</time>
      </trkpt>
      <trkpt lat="42.07507973536849" lon="12.936876285821199">
        <ele>609.60998500000005</ele>
        <time>2017-06-12T08:34:15Z</time>
      </trkpt>
      <trkpt lat="42.075100438669324" lon="12.936862371861935">
        <ele>608.169983</ele>
        <time>2017-06-12T08:34:37Z</time>
      </trkpt>
      <trkpt lat="42.075090296566486" lon="12.936846865341067">
        <ele>608.169983</ele>
        <time>2017-06-12T08:35:08Z</time>
      </trkpt>
      <trkpt lat="42.075073281303048" lon="12.936832197010517">
        <ele>608.169983</ele>
        <time>2017-06-12T08:35:36Z</time>
      </trkpt>
      <trkpt lat="42.07507437095046" lon="12.936871089041233">
        <ele>608.169983</ele>
        <time>2017-06-12T08:36:03Z</time>
      </trkpt>
      <trkpt lat="42.075054505839944" lon="12.936884835362434">
        <ele>608.169983</ele>
        <time>2017-06-12T08:36:45Z</time>
      </trkpt>
      <trkpt lat="42.075092978775501" lon="12.936886763200164">
        <ele>608.64996299999996</ele>
        <time>2017-06-12T08:37:03Z</time>
      </trkpt>
      <trkpt lat="42.075139163061976" lon="12.93688609264791">
        <ele>608.64996299999996</ele>
        <time>2017-06-12T08:37:28Z</time>
      </trkpt>
      <trkpt lat="42.075121812522411" lon="12.936881817877293">
        <ele>608.64996299999996</ele>
        <time>2017-06-12T08:37:46Z</time>
      </trkpt>
      <trkpt lat="42.074953336268663" lon="12.9370126593858">
        <ele>609.60998500000005</ele>
        <time>2017-06-12T08:38:02Z</time>
      </trkpt>
      <trkpt lat="42.07486473955214" lon="12.937118522822857">
        <ele>611.05999799999995</ele>
        <time>2017-06-12T08:38:15Z</time>
      </trkpt>
      <trkpt lat="42.074813609942794" lon="12.937220362946391">
        <ele>612.97997999999995</ele>
        <time>2017-06-12T08:38:28Z</time>
      </trkpt>
      <trkpt lat="42.07483783364296" lon="12.937237629666924">
        <ele>613.46002199999998</ele>
        <time>2017-06-12T08:38:33Z</time>
      </trkpt>
      <trkpt lat="42.074955431744456" lon="12.937241736799479">
        <ele>612.97997999999995</ele>
        <time>2017-06-12T08:38:47Z</time>
      </trkpt>
      <trkpt lat="42.075069593265653" lon="12.937269564718008">
        <ele>614.89996299999996</ele>
        <time>2017-06-12T08:39:01Z</time>
      </trkpt>
      <trkpt lat="42.075157519429922" lon="12.937386827543378">
        <ele>617.29998799999998</ele>
        <time>2017-06-12T08:39:16Z</time>
      </trkpt>
      <trkpt lat="42.075245780870318" lon="12.937411218881607">
        <ele>619.71002199999998</ele>
        <time>2017-06-12T08:39:29Z</time>
      </trkpt>
      <trkpt lat="42.07532892934978" lon="12.937320861965418">
        <ele>620.19000200000005</ele>
        <time>2017-06-12T08:39:44Z</time>
      </trkpt>
      <trkpt lat="42.075419370085001" lon="12.937273336574435">
        <ele>622.59002699999996</ele>
        <time>2017-06-12T08:39:56Z</time>
      </trkpt>
      <trkpt lat="42.075525065883994" lon="12.937229415401816">
        <ele>624.03002900000001</ele>
        <time>2017-06-12T08:40:09Z</time>
      </trkpt>
      <trkpt lat="42.075577201321721" lon="12.937246430665255">
        <ele>625.46997099999999</ele>
        <time>2017-06-12T08:40:18Z</time>
      </trkpt>
      <trkpt lat="42.075655236840248" lon="12.937274007126689">
        <ele>627.87994400000002</ele>
        <time>2017-06-12T08:40:31Z</time>
      </trkpt>
      <trkpt lat="42.07572815939784" lon="12.937290100380778">
        <ele>630.27996800000005</ele>
        <time>2017-06-12T08:40:44Z</time>
      </trkpt>
      <trkpt lat="42.075795885175467" lon="12.937326561659575">
        <ele>632.20001200000002</ele>
        <time>2017-06-12T08:40:56Z</time>
      </trkpt>
      <trkpt lat="42.075853636488318" lon="12.937366040423512">
        <ele>633.65002400000003</ele>
        <time>2017-06-12T08:41:07Z</time>
      </trkpt>
      <trkpt lat="42.075901161879301" lon="12.93742991052568">
        <ele>636.05004899999994</ele>
        <time>2017-06-12T08:41:19Z</time>
      </trkpt>
      <trkpt lat="42.075919602066278" lon="12.937405938282609">
        <ele>638.45001200000002</ele>
        <time>2017-06-12T08:41:27Z</time>
      </trkpt>
      <trkpt lat="42.075911806896329" lon="12.937403423711658">
        <ele>638.45001200000002</ele>
        <time>2017-06-12T08:41:29Z</time>
      </trkpt>
      <trkpt lat="42.07595631480217" lon="12.937340559437871">
        <ele>639.40997300000004</ele>
        <time>2017-06-12T08:41:41Z</time>
      </trkpt>
      <trkpt lat="42.076011383906007" lon="12.937324130907655">
        <ele>640.85998500000005</ele>
        <time>2017-06-12T08:41:49Z</time>
      </trkpt>
      <trkpt lat="42.076030913740396" lon="12.937315665185452">
        <ele>641.339966</ele>
        <time>2017-06-12T08:41:52Z</time>
      </trkpt>
      <trkpt lat="42.076050024479628" lon="12.937300661578774">
        <ele>641.339966</ele>
        <time>2017-06-12T08:41:55Z</time>
      </trkpt>
      <trkpt lat="42.076108530163765" lon="12.937264116480947">
        <ele>644.22003199999995</ele>
        <time>2017-06-12T08:42:07Z</time>
      </trkpt>
      <trkpt lat="42.076165862381458" lon="12.937222039327025">
        <ele>646.13995399999999</ele>
        <time>2017-06-12T08:42:20Z</time>
      </trkpt>
      <trkpt lat="42.076200060546398" lon="12.937134616076946">
        <ele>649.03002900000001</ele>
        <time>2017-06-12T08:42:32Z</time>
      </trkpt>
      <trkpt lat="42.07626267336309" lon="12.93708591721952">
        <ele>650.46997099999999</ele>
        <time>2017-06-12T08:42:44Z</time>
      </trkpt>
      <trkpt lat="42.076325286179781" lon="12.93705171905458">
        <ele>651.42999299999997</ele>
        <time>2017-06-12T08:42:55Z</time>
      </trkpt>
      <trkpt lat="42.076333165168762" lon="12.937040906399488">
        <ele>652.86999500000002</ele>
        <time>2017-06-12T08:42:58Z</time>
      </trkpt>
      <trkpt lat="42.076382031664252" lon="12.937069740146399">
        <ele>653.830017</ele>
        <time>2017-06-12T08:43:08Z</time>
      </trkpt>
      <trkpt lat="42.076388988643885" lon="12.937073763459921">
        <ele>653.830017</ele>
        <time>2017-06-12T08:43:09Z</time>
      </trkpt>
      <trkpt lat="42.07643760368228" lon="12.937122294679284">
        <ele>655.76000999999997</ele>
        <time>2017-06-12T08:43:21Z</time>
      </trkpt>
      <trkpt lat="42.076475573703647" lon="12.937169903889298">
        <ele>657.20001200000002</ele>
        <time>2017-06-12T08:43:32Z</time>
      </trkpt>
      <trkpt lat="42.076526787132025" lon="12.937170658260584">
        <ele>659.59997599999997</ele>
        <time>2017-06-12T08:43:44Z</time>
      </trkpt>
      <trkpt lat="42.076548663899302" lon="12.937139226123691">
        <ele>659.59997599999997</ele>
        <time>2017-06-12T08:43:49Z</time>
      </trkpt>
      <trkpt lat="42.076595183461905" lon="12.937124641612172">
        <ele>660.55999799999995</ele>
        <time>2017-06-12T08:43:56Z</time>
      </trkpt>
      <trkpt lat="42.076712278649211" lon="12.937143417075276">
        <ele>662.48999000000003</ele>
        <time>2017-06-12T08:44:10Z</time>
      </trkpt>
      <trkpt lat="42.076720241457224" lon="12.937147105112672">
        <ele>662.48999000000003</ele>
        <time>2017-06-12T08:44:11Z</time>
      </trkpt>
      <trkpt lat="42.076755864545703" lon="12.937182476744056">
        <ele>663.45001200000002</ele>
        <time>2017-06-12T08:44:27Z</time>
      </trkpt>
      <trkpt lat="42.076775310561061" lon="12.937219776213169">
        <ele>663.92999299999997</ele>
        <time>2017-06-12T08:44:45Z</time>
      </trkpt>
      <trkpt lat="42.076807664707303" lon="12.937218435108662">
        <ele>664.89001499999995</ele>
        <time>2017-06-12T08:44:49Z</time>
      </trkpt>
      <trkpt lat="42.076911181211472" lon="12.93717241846025">
        <ele>666.330017</ele>
        <time>2017-06-12T08:45:01Z</time>
      </trkpt>
      <trkpt lat="42.077029785141349" lon="12.937158588320017">
        <ele>668.24993900000004</ele>
        <time>2017-06-12T08:45:15Z</time>
      </trkpt>
      <trkpt lat="42.077102120965719" lon="12.937158085405827">
        <ele>669.70001200000002</ele>
        <time>2017-06-12T08:45:29Z</time>
      </trkpt>
      <trkpt lat="42.077116202563047" lon="12.937172167003155">
        <ele>670.17999299999997</ele>
        <time>2017-06-12T08:45:36Z</time>
      </trkpt>
      <trkpt lat="42.077253833413124" lon="12.937195468693972">
        <ele>672.57995600000004</ele>
        <time>2017-06-12T08:45:51Z</time>
      </trkpt>
      <trkpt lat="42.077337820082903" lon="12.937208041548729">
        <ele>674.97997999999995</ele>
        <time>2017-06-12T08:46:02Z</time>
      </trkpt>
      <trkpt lat="42.077367827296257" lon="12.937207538634539">
        <ele>675.46002199999998</ele>
        <time>2017-06-12T08:46:06Z</time>
      </trkpt>
      <trkpt lat="42.077447371557355" lon="12.937199324369431">
        <ele>677.39001499999995</ele>
        <time>2017-06-12T08:46:18Z</time>
      </trkpt>
      <trkpt lat="42.077539237216115" lon="12.937217932194471">
        <ele>680.74993900000004</ele>
        <time>2017-06-12T08:46:31Z</time>
      </trkpt>
      <trkpt lat="42.077618110924959" lon="12.937218183651567">
        <ele>682.669983</ele>
        <time>2017-06-12T08:46:43Z</time>
      </trkpt>
      <trkpt lat="42.077703606337309" lon="12.93722472153604">
        <ele>684.59997599999997</ele>
        <time>2017-06-12T08:46:55Z</time>
      </trkpt>
      <trkpt lat="42.077761525288224" lon="12.937223464250565">
        <ele>686.03997800000002</ele>
        <time>2017-06-12T08:47:05Z</time>
      </trkpt>
      <trkpt lat="42.077818270772696" lon="12.93726772069931">
        <ele>687</ele>
        <time>2017-06-12T08:47:16Z</time>
      </trkpt>
      <trkpt lat="42.077785497531295" lon="12.93733661994338">
        <ele>687.47997999999995</ele>
        <time>2017-06-12T08:47:28Z</time>
      </trkpt>
      <trkpt lat="42.077767560258508" lon="12.937370482832193">
        <ele>687.47997999999995</ele>
        <time>2017-06-12T08:47:31Z</time>
      </trkpt>
      <trkpt lat="42.077749958261847" lon="12.937390264123678">
        <ele>687.47997999999995</ele>
        <time>2017-06-12T08:47:34Z</time>
      </trkpt>
      <trkpt lat="42.077715089544654" lon="12.937469640746713">
        <ele>687.47997999999995</ele>
        <time>2017-06-12T08:47:42Z</time>
      </trkpt>
      <trkpt lat="42.077698074281216" lon="12.937512472271919">
        <ele>686.52002000000005</ele>
        <time>2017-06-12T08:47:45Z</time>
      </trkpt>
      <trkpt lat="42.077622134238482" lon="12.9376688785851">
        <ele>686.03997800000002</ele>
        <time>2017-06-12T08:48:00Z</time>
      </trkpt>
      <trkpt lat="42.077579637989402" lon="12.937704836949706">
        <ele>686.03997800000002</ele>
        <time>2017-06-12T08:48:05Z</time>
      </trkpt>
      <trkpt lat="42.077458603307605" lon="12.937836265191436">
        <ele>685.55999799999995</ele>
        <time>2017-06-12T08:48:19Z</time>
      </trkpt>
      <trkpt lat="42.077429769560695" lon="12.937861997634172">
        <ele>685.55999799999995</ele>
        <time>2017-06-12T08:48:22Z</time>
      </trkpt>
      <trkpt lat="42.077290462329984" lon="12.93796693906188">
        <ele>685.07995600000004</ele>
        <time>2017-06-12T08:48:36Z</time>
      </trkpt>
      <trkpt lat="42.077142102643847" lon="12.938038604333997">
        <ele>684.12005599999998</ele>
        <time>2017-06-12T08:48:50Z</time>
      </trkpt>
      <trkpt lat="42.077074041590095" lon="12.938098115846515">
        <ele>683.63000499999998</ele>
        <time>2017-06-12T08:48:59Z</time>
      </trkpt>
      <trkpt lat="42.076977314427495" lon="12.938335239887238">
        <ele>683.63000499999998</ele>
        <time>2017-06-12T08:49:17Z</time>
      </trkpt>
      <trkpt lat="42.077006064355373" lon="12.938516791909933">
        <ele>684.59997599999997</ele>
        <time>2017-06-12T08:49:30Z</time>
      </trkpt>
      <trkpt lat="42.077014613896608" lon="12.938557779416442">
        <ele>685.07995600000004</ele>
        <time>2017-06-12T08:49:32Z</time>
      </trkpt>
      <trkpt lat="42.077065240591764" lon="12.938791634514928">
        <ele>686.52002000000005</ele>
        <time>2017-06-12T08:49:50Z</time>
      </trkpt>
      <trkpt lat="42.077130870893598" lon="12.938993303105235">
        <ele>687</ele>
        <time>2017-06-12T08:50:05Z</time>
      </trkpt>
      <trkpt lat="42.077142102643847" lon="12.939046360552311">
        <ele>687</ele>
        <time>2017-06-12T08:50:08Z</time>
      </trkpt>
      <trkpt lat="42.077174792066216" lon="12.939113834872842">
        <ele>687.47997999999995</ele>
        <time>2017-06-12T08:50:14Z</time>
      </trkpt>
      <trkpt lat="42.077288534492254" lon="12.939307037740946">
        <ele>687.47997999999995</ele>
        <time>2017-06-12T08:50:29Z</time>
      </trkpt>
      <trkpt lat="42.077385429292917" lon="12.93943963944912">
        <ele>687.96002199999998</ele>
        <time>2017-06-12T08:50:41Z</time>
      </trkpt>
      <trkpt lat="42.077467823401093" lon="12.939624041318893">
        <ele>688.92004399999996</ele>
        <time>2017-06-12T08:50:55Z</time>
      </trkpt>
      <trkpt lat="42.077526077628136" lon="12.939871978014708">
        <ele>689.87994400000002</ele>
        <time>2017-06-12T08:51:11Z</time>
      </trkpt>
      <trkpt lat="42.077548792585731" lon="12.939937021583319">
        <ele>690.36004600000001</ele>
        <time>2017-06-12T08:51:17Z</time>
      </trkpt>
      <trkpt lat="42.077623140066862" lon="12.940141288563609">
        <ele>691.330017</ele>
        <time>2017-06-12T08:51:32Z</time>
      </trkpt>
      <trkpt lat="42.077697403728962" lon="12.94029425829649">
        <ele>693.24993900000004</ele>
        <time>2017-06-12T08:51:46Z</time>
      </trkpt>
      <trkpt lat="42.077786335721612" lon="12.940451167523861">
        <ele>694.69000200000005</ele>
        <time>2017-06-12T08:52:00Z</time>
      </trkpt>
      <trkpt lat="42.077853390946984" lon="12.940639173611999">
        <ele>696.13000499999998</ele>
        <time>2017-06-12T08:52:13Z</time>
      </trkpt>
      <trkpt lat="42.077908962965012" lon="12.940769512206316">
        <ele>697.57000700000003</ele>
        <time>2017-06-12T08:52:25Z</time>
      </trkpt>
      <trkpt lat="42.077988926321268" lon="12.940885266289115">
        <ele>698.53002900000001</ele>
        <time>2017-06-12T08:52:36Z</time>
      </trkpt>
      <trkpt lat="42.07799831405282" lon="12.940900688990951">
        <ele>698.53002900000001</ele>
        <time>2017-06-12T08:52:38Z</time>
      </trkpt>
      <trkpt lat="42.078045587986708" lon="12.941071260720491">
        <ele>699.97997999999995</ele>
        <time>2017-06-12T08:52:51Z</time>
      </trkpt>
      <trkpt lat="42.078098058700562" lon="12.941216100007296">
        <ele>701.42004399999996</ele>
        <time>2017-06-12T08:53:03Z</time>
      </trkpt>
      <trkpt lat="42.078138124197721" lon="12.941367728635669">
        <ele>702.86004600000001</ele>
        <time>2017-06-12T08:53:15Z</time>
      </trkpt>
      <trkpt lat="42.078183218836784" lon="12.94146403670311">
        <ele>703.82000700000003</ele>
        <time>2017-06-12T08:53:23Z</time>
      </trkpt>
      <trkpt lat="42.078195037320256" lon="12.941510891541839">
        <ele>704.29998799999998</ele>
        <time>2017-06-12T08:53:26Z</time>
      </trkpt>
      <trkpt lat="42.07822646945715" lon="12.941561182960868">
        <ele>704.77996800000005</ele>
        <time>2017-06-12T08:53:31Z</time>
      </trkpt>
      <trkpt lat="42.078245496377349" lon="12.94162136502564">
        <ele>705.26000999999997</ele>
        <time>2017-06-12T08:53:35Z</time>
      </trkpt>
      <trkpt lat="42.078263266012073" lon="12.941657658666372">
        <ele>705.74993900000004</ele>
        <time>2017-06-12T08:53:39Z</time>
      </trkpt>
      <trkpt lat="42.078304085880518" lon="12.941743824630976">
        <ele>706.70996100000002</ele>
        <time>2017-06-12T08:53:46Z</time>
      </trkpt>
      <trkpt lat="42.078423863276839" lon="12.941881623119116">
        <ele>707.669983</ele>
        <time>2017-06-12T08:54:00Z</time>
      </trkpt>
      <trkpt lat="42.078505335375667" lon="12.941985726356506">
        <ele>707.669983</ele>
        <time>2017-06-12T08:54:12Z</time>
      </trkpt>
      <trkpt lat="42.078502234071493" lon="12.94198103249073">
        <ele>708.14996299999996</ele>
        <time>2017-06-12T08:54:32Z</time>
      </trkpt>
      <trkpt lat="42.078511286526918" lon="12.942072059959173">
        <ele>708.14996299999996</ele>
        <time>2017-06-12T08:54:44Z</time>
      </trkpt>
      <trkpt lat="42.078505419194698" lon="12.94209293089807">
        <ele>708.14996299999996</ele>
        <time>2017-06-12T08:54:52Z</time>
      </trkpt>
      <trkpt lat="42.07851036451757" lon="12.942094607278705">
        <ele>706.70996100000002</ele>
        <time>2017-06-12T08:55:02Z</time>
      </trkpt>
      <trkpt lat="42.078513382002711" lon="12.942134588956833">
        <ele>706.70996100000002</ele>
        <time>2017-06-12T08:55:13Z</time>
      </trkpt>
      <trkpt lat="42.078522434458137" lon="12.942243218421936">
        <ele>708.14996299999996</ele>
        <time>2017-06-12T08:55:28Z</time>
      </trkpt>
      <trkpt lat="42.078417576849461" lon="12.9423797596246">
        <ele>711.03002900000001</ele>
        <time>2017-06-12T08:55:42Z</time>
      </trkpt>
      <trkpt lat="42.078320514410734" lon="12.942431811243296">
        <ele>712.94995100000006</ele>
        <time>2017-06-12T08:55:57Z</time>
      </trkpt>
      <trkpt lat="42.078182129189372" lon="12.94246232137084">
        <ele>714.87994400000002</ele>
        <time>2017-06-12T08:56:12Z</time>
      </trkpt>
      <trkpt lat="42.078085485845804" lon="12.942526359111071">
        <ele>717.27996800000005</ele>
        <time>2017-06-12T08:56:28Z</time>
      </trkpt>
      <trkpt lat="42.078000074252486" lon="12.942521162331104">
        <ele>720.160034</ele>
        <time>2017-06-12T08:56:44Z</time>
      </trkpt>
      <trkpt lat="42.077888678759336" lon="12.942545637488365">
        <ele>722.09002699999996</ele>
        <time>2017-06-12T08:57:00Z</time>
      </trkpt>
      <trkpt lat="42.077794717624784" lon="12.94256491586566">
        <ele>724.49005099999999</ele>
        <time>2017-06-12T08:57:15Z</time>
      </trkpt>
      <trkpt lat="42.077714838087559" lon="12.942626103758812">
        <ele>725.92999299999997</ele>
        <time>2017-06-12T08:57:30Z</time>
      </trkpt>
      <trkpt lat="42.077602939680219" lon="12.942718723788857">
        <ele>728.339966</ele>
        <time>2017-06-12T08:57:49Z</time>
      </trkpt>
      <trkpt lat="42.077585840597749" lon="12.942721741273999">
        <ele>728.339966</ele>
        <time>2017-06-12T08:57:51Z</time>
      </trkpt>
      <trkpt lat="42.077477462589741" lon="12.94268662109971">
        <ele>731.22003199999995</ele>
        <time>2017-06-12T08:58:06Z</time>
      </trkpt>
      <trkpt lat="42.077422812581062" lon="12.942651165649295">
        <ele>732.17999299999997</ele>
        <time>2017-06-12T08:58:15Z</time>
      </trkpt>
      <trkpt lat="42.077374365180731" lon="12.942612525075674">
        <ele>733.61999500000002</ele>
        <time>2017-06-12T08:58:22Z</time>
      </trkpt>
      <trkpt lat="42.077279230579734" lon="12.942572375759482">
        <ele>734.57995600000004</ele>
        <time>2017-06-12T08:58:36Z</time>
      </trkpt>
      <trkpt lat="42.07716716453433" lon="12.942494675517082">
        <ele>734.57995600000004</ele>
        <time>2017-06-12T08:58:49Z</time>
      </trkpt>
      <trkpt lat="42.077083177864552" lon="12.942432314157486">
        <ele>736.03002900000001</ele>
        <time>2017-06-12T08:59:02Z</time>
      </trkpt>
      <trkpt lat="42.076982595026493" lon="12.94237095862627">
        <ele>737.46997099999999</ele>
        <time>2017-06-12T08:59:16Z</time>
      </trkpt>
      <trkpt lat="42.076889807358384" lon="12.942365258932114">
        <ele>738.42999299999997</ele>
        <time>2017-06-12T08:59:27Z</time>
      </trkpt>
      <trkpt lat="42.076786877587438" lon="12.942370623350143">
        <ele>741.30999799999995</ele>
        <time>2017-06-12T08:59:41Z</time>
      </trkpt>
      <trkpt lat="42.076777573674917" lon="12.942376658320427">
        <ele>741.30999799999995</ele>
        <time>2017-06-12T08:59:43Z</time>
      </trkpt>
      <trkpt lat="42.076723510399461" lon="12.942386884242296">
        <ele>742.27996800000005</ele>
        <time>2017-06-12T08:59:50Z</time>
      </trkpt>
      <trkpt lat="42.076591663062572" lon="12.942338939756155">
        <ele>742.27996800000005</ele>
        <time>2017-06-12T09:00:04Z</time>
      </trkpt>
      <trkpt lat="42.076496025547385" lon="12.942328462377191">
        <ele>742.76000999999997</ele>
        <time>2017-06-12T09:00:14Z</time>
      </trkpt>
      <trkpt lat="42.076424863189459" lon="12.942353105172515">
        <ele>744.20001200000002</ele>
        <time>2017-06-12T09:00:28Z</time>
      </trkpt>
      <trkpt lat="42.076357891783118" lon="12.94238998554647">
        <ele>746.11999500000002</ele>
        <time>2017-06-12T09:00:40Z</time>
      </trkpt>
      <trkpt lat="42.076341463252902" lon="12.942452179268003">
        <ele>748.03997800000002</ele>
        <time>2017-06-12T09:00:53Z</time>
      </trkpt>
      <trkpt lat="42.076336015015841" lon="12.942540440708399">
        <ele>749.96997099999999</ele>
        <time>2017-06-12T09:01:04Z</time>
      </trkpt>
      <trkpt lat="42.076315227895975" lon="12.942648734897375">
        <ele>750.92999299999997</ele>
        <time>2017-06-12T09:01:16Z</time>
      </trkpt>
      <trkpt lat="42.076367698609829" lon="12.942697936668992">
        <ele>752.84997599999997</ele>
        <time>2017-06-12T09:01:26Z</time>
      </trkpt>
      <trkpt lat="42.076430898159742" lon="12.942738002166152">
        <ele>755.25</ele>
        <time>2017-06-12T09:01:38Z</time>
      </trkpt>
      <trkpt lat="42.076434167101979" lon="12.942738085985184">
        <ele>754.77002000000005</ele>
        <time>2017-06-12T09:01:39Z</time>
      </trkpt>
      <trkpt lat="42.07644741050899" lon="12.942731464281678">
        <ele>754.77002000000005</ele>
        <time>2017-06-12T09:01:41Z</time>
      </trkpt>
      <trkpt lat="42.076520919799805" lon="12.942727105692029">
        <ele>755.25</ele>
        <time>2017-06-12T09:01:52Z</time>
      </trkpt>
      <trkpt lat="42.076577162370086" lon="12.942770691588521">
        <ele>758.14001499999995</ele>
        <time>2017-06-12T09:02:05Z</time>
      </trkpt>
      <trkpt lat="42.076652431860566" lon="12.942864987999201">
        <ele>760.53997800000002</ele>
        <time>2017-06-12T09:02:19Z</time>
      </trkpt>
      <trkpt lat="42.076695933938026" lon="12.942886780947447">
        <ele>761.01995799999997</ele>
        <time>2017-06-12T09:02:25Z</time>
      </trkpt>
      <trkpt lat="42.076719403266907" lon="12.942888792604208">
        <ele>761.01995799999997</ele>
        <time>2017-06-12T09:02:28Z</time>
      </trkpt>
      <trkpt lat="42.076792661100626" lon="12.942906394600868">
        <ele>761.97997999999995</ele>
        <time>2017-06-12T09:02:36Z</time>
      </trkpt>
      <trkpt lat="42.076896009966731" lon="12.942959284409881">
        <ele>762.94000200000005</ele>
        <time>2017-06-12T09:02:50Z</time>
      </trkpt>
      <trkpt lat="42.076966837048531" lon="12.943051401525736">
        <ele>764.39001499999995</ele>
        <time>2017-06-12T09:03:03Z</time>
      </trkpt>
      <trkpt lat="42.076939009130001" lon="12.94314393773675">
        <ele>765.34997599999997</ele>
        <time>2017-06-12T09:03:17Z</time>
      </trkpt>
      <trkpt lat="42.076882096007466" lon="12.943260613828897">
        <ele>766.30999799999995</ele>
        <time>2017-06-12T09:03:30Z</time>
      </trkpt>
      <trkpt lat="42.076868433505297" lon="12.943335380405188">
        <ele>769.19006300000001</ele>
        <time>2017-06-12T09:03:46Z</time>
      </trkpt>
      <trkpt lat="42.076896177604795" lon="12.943359268829226">
        <ele>772.07995600000004</ele>
        <time>2017-06-12T09:03:57Z</time>
      </trkpt>
      <trkpt lat="42.076911265030503" lon="12.943403022363782">
        <ele>773.51995799999997</ele>
        <time>2017-06-12T09:04:06Z</time>
      </trkpt>
      <trkpt lat="42.076949737966061" lon="12.943451134487987">
        <ele>774.47997999999995</ele>
        <time>2017-06-12T09:04:22Z</time>
      </trkpt>
      <trkpt lat="42.077020984143019" lon="12.943438226357102">
        <ele>776.40002400000003</ele>
        <time>2017-06-12T09:04:34Z</time>
      </trkpt>
      <trkpt lat="42.077094158157706" lon="12.94349773786962">
        <ele>776.88000499999998</ele>
        <time>2017-06-12T09:04:47Z</time>
      </trkpt>
      <trkpt lat="42.077165823429823" lon="12.943586837500334">
        <ele>776.88000499999998</ele>
        <time>2017-06-12T09:05:01Z</time>
      </trkpt>
      <trkpt lat="42.077224915847182" lon="12.943691359832883">
        <ele>775.44000200000005</ele>
        <time>2017-06-12T09:05:14Z</time>
      </trkpt>
      <trkpt lat="42.07727026194334" lon="12.943800576031208">
        <ele>777.36004600000001</ele>
        <time>2017-06-12T09:05:27Z</time>
      </trkpt>
      <trkpt lat="42.07732206210494" lon="12.943911300972104">
        <ele>778.31994599999996</ele>
        <time>2017-06-12T09:05:42Z</time>
      </trkpt>
      <trkpt lat="42.077382663264871" lon="12.943974668160081">
        <ele>778.80999799999995</ele>
        <time>2017-06-12T09:05:57Z</time>
      </trkpt>
      <trkpt lat="42.077393559738994" lon="12.944038202986121">
        <ele>779.29003899999998</ele>
        <time>2017-06-12T09:06:20Z</time>
      </trkpt>
      <trkpt lat="42.077401522547007" lon="12.944093523547053">
        <ele>777.84002699999996</ele>
        <time>2017-06-12T09:06:38Z</time>
      </trkpt>
      <trkpt lat="42.077467320486903" lon="12.944177761673927">
        <ele>778.80999799999995</ele>
        <time>2017-06-12T09:06:49Z</time>
      </trkpt>
      <trkpt lat="42.077530436217785" lon="12.944326540455222">
        <ele>775.919983</ele>
        <time>2017-06-12T09:07:05Z</time>
      </trkpt>
      <trkpt lat="42.077624229714274" lon="12.944429470226169">
        <ele>773.51995799999997</ele>
        <time>2017-06-12T09:07:19Z</time>
      </trkpt>
      <trkpt lat="42.077706875279546" lon="12.944386387243867">
        <ele>771.60003700000004</ele>
        <time>2017-06-12T09:07:33Z</time>
      </trkpt>
      <trkpt lat="42.077770996838808" lon="12.944317907094955">
        <ele>771.10998500000005</ele>
        <time>2017-06-12T09:07:46Z</time>
      </trkpt>
      <trkpt lat="42.077815840020776" lon="12.944314889609814">
        <ele>771.10998500000005</ele>
        <time>2017-06-12T09:07:55Z</time>
      </trkpt>
      <trkpt lat="42.077956320717931" lon="12.944253031164408">
        <ele>771.60003700000004</ele>
        <time>2017-06-12T09:08:11Z</time>
      </trkpt>
      <trkpt lat="42.078117169439793" lon="12.94420768506825">
        <ele>770.14996299999996</ele>
        <time>2017-06-12T09:08:26Z</time>
      </trkpt>
      <trkpt lat="42.078202161937952" lon="12.944212798029184">
        <ele>769.19006300000001</ele>
        <time>2017-06-12T09:08:36Z</time>
      </trkpt>
      <trkpt lat="42.078294027596712" lon="12.944185892120004">
        <ele>770.63000499999998</ele>
        <time>2017-06-12T09:08:51Z</time>
      </trkpt>
      <trkpt lat="42.07840726710856" lon="12.944239117205143">
        <ele>768.70996100000002</ele>
        <time>2017-06-12T09:09:04Z</time>
      </trkpt>
      <trkpt lat="42.078475579619408" lon="12.944284463301301">
        <ele>769.19006300000001</ele>
        <time>2017-06-12T09:09:11Z</time>
      </trkpt>
      <trkpt lat="42.078550262376666" lon="12.944426536560059">
        <ele>769.19006300000001</ele>
        <time>2017-06-12T09:09:23Z</time>
      </trkpt>
      <trkpt lat="42.078627962619066" lon="12.944503063336015">
        <ele>771.10998500000005</ele>
        <time>2017-06-12T09:09:36Z</time>
      </trkpt>
      <trkpt lat="42.078632572665811" lon="12.944508092477918">
        <ele>771.10998500000005</ele>
        <time>2017-06-12T09:09:37Z</time>
      </trkpt>
      <trkpt lat="42.078662579879165" lon="12.944567687809467">
        <ele>771.10998500000005</ele>
        <time>2017-06-12T09:09:45Z</time>
      </trkpt>
      <trkpt lat="42.07873709499836" lon="12.944540195167065">
        <ele>772.55999799999995</ele>
        <time>2017-06-12T09:09:57Z</time>
      </trkpt>
      <trkpt lat="42.078782441094518" lon="12.944559305906296">
        <ele>773.03997800000002</ele>
        <time>2017-06-12T09:10:16Z</time>
      </trkpt>
      <trkpt lat="42.078771963715553" lon="12.944566262885928">
        <ele>773.03997800000002</ele>
        <time>2017-06-12T09:10:33Z</time>
      </trkpt>
      <trkpt lat="42.078722091391683" lon="12.944607837125659">
        <ele>773.03997800000002</ele>
        <time>2017-06-12T09:10:46Z</time>
      </trkpt>
      <trkpt lat="42.078675823286176" lon="12.944628624245524">
        <ele>771.10998500000005</ele>
        <time>2017-06-12T09:10:58Z</time>
      </trkpt>
      <trkpt lat="42.078690240159631" lon="12.944708839058876">
        <ele>771.10998500000005</ele>
        <time>2017-06-12T09:11:07Z</time>
      </trkpt>
      <trkpt lat="42.078724438324571" lon="12.944790814071894">
        <ele>772.07995600000004</ele>
        <time>2017-06-12T09:11:17Z</time>
      </trkpt>
      <trkpt lat="42.078798618167639" lon="12.944928696379066">
        <ele>774</ele>
        <time>2017-06-12T09:11:30Z</time>
      </trkpt>
      <trkpt lat="42.078873468562961" lon="12.94498804025352">
        <ele>775.919983</ele>
        <time>2017-06-12T09:11:43Z</time>
      </trkpt>
      <trkpt lat="42.078891238197684" lon="12.945013688877225">
        <ele>776.40002400000003</ele>
        <time>2017-06-12T09:11:48Z</time>
      </trkpt>
      <trkpt lat="42.078968267887831" lon="12.945104632526636">
        <ele>777.84002699999996</ele>
        <time>2017-06-12T09:12:01Z</time>
      </trkpt>
      <trkpt lat="42.079001627862453" lon="12.94512583874166">
        <ele>778.31994599999996</ele>
        <time>2017-06-12T09:12:06Z</time>
      </trkpt>
      <trkpt lat="42.079041441902518" lon="12.9451375734061">
        <ele>779.77002000000005</ele>
        <time>2017-06-12T09:12:12Z</time>
      </trkpt>
      <trkpt lat="42.079070610925555" lon="12.945155678316951">
        <ele>781.20996100000002</ele>
        <time>2017-06-12T09:12:16Z</time>
      </trkpt>
      <trkpt lat="42.079115873202682" lon="12.945186188444495">
        <ele>781.69006300000001</ele>
        <time>2017-06-12T09:12:25Z</time>
      </trkpt>
      <trkpt lat="42.079122914001346" lon="12.945182835683227">
        <ele>781.69006300000001</ele>
        <time>2017-06-12T09:12:26Z</time>
      </trkpt>
      <trkpt lat="42.079173373058438" lon="12.945202868431807">
        <ele>782.169983</ele>
        <time>2017-06-12T09:12:33Z</time>
      </trkpt>
      <trkpt lat="42.079236740246415" lon="12.945240419358015">
        <ele>783.13000499999998</ele>
        <time>2017-06-12T09:12:43Z</time>
      </trkpt>
      <trkpt lat="42.079310417175293" lon="12.9452308639884">
        <ele>785.04998799999998</ele>
        <time>2017-06-12T09:12:55Z</time>
      </trkpt>
      <trkpt lat="42.079375041648746" lon="12.945242011919618">
        <ele>786.5</ele>
        <time>2017-06-12T09:13:07Z</time>
      </trkpt>
      <trkpt lat="42.079433966428041" lon="12.945262882858515">
        <ele>786.97997999999995</ele>
        <time>2017-06-12T09:13:17Z</time>
      </trkpt>
      <trkpt lat="42.079491298645735" lon="12.94523379765451">
        <ele>788.419983</ele>
        <time>2017-06-12T09:13:28Z</time>
      </trkpt>
      <trkpt lat="42.079556761309505" lon="12.94524846598506">
        <ele>788.90002400000003</ele>
        <time>2017-06-12T09:13:39Z</time>
      </trkpt>
      <trkpt lat="42.079613087698817" lon="12.945290626958013">
        <ele>790.34002699999996</ele>
        <time>2017-06-12T09:13:48Z</time>
      </trkpt>
      <trkpt lat="42.07962641492486" lon="12.945285765454173">
        <ele>790.34002699999996</ele>
        <time>2017-06-12T09:13:50Z</time>
      </trkpt>
      <trkpt lat="42.079703360795975" lon="12.94530420564115">
        <ele>792.26000999999997</ele>
        <time>2017-06-12T09:14:03Z</time>
      </trkpt>
      <trkpt lat="42.07972020842135" lon="12.945310911163688">
        <ele>793.21997099999999</ele>
        <time>2017-06-12T09:14:15Z</time>
      </trkpt>
      <trkpt lat="42.079745018854737" lon="12.945345193147659">
        <ele>793.70996100000002</ele>
        <time>2017-06-12T09:14:26Z</time>
      </trkpt>
      <trkpt lat="42.079757340252399" lon="12.945308983325958">
        <ele>793.70996100000002</ele>
        <time>2017-06-12T09:14:41Z</time>
      </trkpt>
      <trkpt lat="42.079785922542214" lon="12.945247460156679">
        <ele>793.70996100000002</ele>
        <time>2017-06-12T09:14:51Z</time>
      </trkpt>
      <trkpt lat="42.079785084351897" lon="12.945181326940656">
        <ele>794.19006300000001</ele>
        <time>2017-06-12T09:15:07Z</time>
      </trkpt>
      <trkpt lat="42.079778965562582" lon="12.945199683308601">
        <ele>794.19006300000001</ele>
        <time>2017-06-12T09:15:33Z</time>
      </trkpt>
      <trkpt lat="42.079793717712164" lon="12.945201778784394">
        <ele>794.19006300000001</ele>
        <time>2017-06-12T09:15:49Z</time>
      </trkpt>
      <trkpt lat="42.079805368557572" lon="12.945227259770036">
        <ele>794.19006300000001</ele>
        <time>2017-06-12T09:15:55Z</time>
      </trkpt>
      <trkpt lat="42.079806625843048" lon="12.945252070203424">
        <ele>794.19006300000001</ele>
        <time>2017-06-12T09:15:57Z</time>
      </trkpt>
      <trkpt lat="42.079741666093469" lon="12.945449380204082">
        <ele>794.669983</ele>
        <time>2017-06-12T09:16:13Z</time>
      </trkpt>
      <trkpt lat="42.079676371067762" lon="12.945678541436791">
        <ele>794.669983</ele>
        <time>2017-06-12T09:16:28Z</time>
      </trkpt>
      <trkpt lat="42.079638317227364" lon="12.945854477584362">
        <ele>794.669983</ele>
        <time>2017-06-12T09:16:40Z</time>
      </trkpt>
      <trkpt lat="42.079661283642054" lon="12.946060001850128">
        <ele>793.70996100000002</ele>
        <time>2017-06-12T09:16:53Z</time>
      </trkpt>
      <trkpt lat="42.079718615859747" lon="12.946256306022406">
        <ele>793.70996100000002</ele>
        <time>2017-06-12T09:17:07Z</time>
      </trkpt>
      <trkpt lat="42.079829340800643" lon="12.946458728983998">
        <ele>792.73999000000003</ele>
        <time>2017-06-12T09:17:23Z</time>
      </trkpt>
      <trkpt lat="42.079951716586947" lon="12.946684621274471">
        <ele>792.73999000000003</ele>
        <time>2017-06-12T09:17:40Z</time>
      </trkpt>
      <trkpt lat="42.079959260299802" lon="12.946696439757943">
        <ele>792.73999000000003</ele>
        <time>2017-06-12T09:17:41Z</time>
      </trkpt>
      <trkpt lat="42.079988932237029" lon="12.9467539396137">
        <ele>792.73999000000003</ele>
        <time>2017-06-12T09:17:45Z</time>
      </trkpt>
      <trkpt lat="42.080053724348545" lon="12.94692937284708">
        <ele>791.77996800000005</ele>
        <time>2017-06-12T09:17:57Z</time>
      </trkpt>
      <trkpt lat="42.080141566693783" lon="12.947056358680129">
        <ele>791.77996800000005</ele>
        <time>2017-06-12T09:18:10Z</time>
      </trkpt>
      <trkpt lat="42.080170903354883" lon="12.947143781930208">
        <ele>791.77996800000005</ele>
        <time>2017-06-12T09:18:15Z</time>
      </trkpt>
      <trkpt lat="42.080178363248706" lon="12.947166580706835">
        <ele>791.77996800000005</ele>
        <time>2017-06-12T09:18:16Z</time>
      </trkpt>
      <trkpt lat="42.080187080428004" lon="12.947188876569271">
        <ele>791.77996800000005</ele>
        <time>2017-06-12T09:18:17Z</time>
      </trkpt>
      <trkpt lat="42.080192780122161" lon="12.947210166603327">
        <ele>791.77996800000005</ele>
        <time>2017-06-12T09:18:18Z</time>
      </trkpt>
      <trkpt lat="42.080197306349874" lon="12.94722986407578">
        <ele>791.77996800000005</ele>
        <time>2017-06-12T09:18:19Z</time>
      </trkpt>
      <trkpt lat="42.080202838405967" lon="12.947254758328199">
        <ele>791.77996800000005</ele>
        <time>2017-06-12T09:18:20Z</time>
      </trkpt>
      <trkpt lat="42.08027089945972" lon="12.947486517950892">
        <ele>791.29998799999998</ele>
        <time>2017-06-12T09:18:34Z</time>
      </trkpt>
      <trkpt lat="42.080328483134508" lon="12.947690114378929">
        <ele>791.29998799999998</ele>
        <time>2017-06-12T09:18:47Z</time>
      </trkpt>
      <trkpt lat="42.080335859209299" lon="12.947918688878417">
        <ele>791.29998799999998</ele>
        <time>2017-06-12T09:19:01Z</time>
      </trkpt>
      <trkpt lat="42.08034566603601" lon="12.948238039389253">
        <ele>791.29998799999998</ele>
        <time>2017-06-12T09:19:19Z</time>
      </trkpt>
      <trkpt lat="42.080341726541519" lon="12.948506008833647">
        <ele>791.29998799999998</ele>
        <time>2017-06-12T09:19:37Z</time>
      </trkpt>
      <trkpt lat="42.080332841724157" lon="12.948580859228969">
        <ele>791.29998799999998</ele>
        <time>2017-06-12T09:19:41Z</time>
      </trkpt>
      <trkpt lat="42.08033393137157" lon="12.948598796501756">
        <ele>791.29998799999998</ele>
        <time>2017-06-12T09:19:42Z</time>
      </trkpt>
      <trkpt lat="42.080321861431003" lon="12.948813876137137">
        <ele>791.29998799999998</ele>
        <time>2017-06-12T09:19:56Z</time>
      </trkpt>
      <trkpt lat="42.080351281911135" lon="12.949080169200897">
        <ele>792.73999000000003</ele>
        <time>2017-06-12T09:20:12Z</time>
      </trkpt>
      <trkpt lat="42.080353880301118" lon="12.94909936375916">
        <ele>792.73999000000003</ele>
        <time>2017-06-12T09:20:13Z</time>
      </trkpt>
      <trkpt lat="42.080357568338513" lon="12.949120234698057">
        <ele>792.73999000000003</ele>
        <time>2017-06-12T09:20:14Z</time>
      </trkpt>
      <trkpt lat="42.080368380993605" lon="12.949356269091368">
        <ele>793.21997099999999</ele>
        <time>2017-06-12T09:20:27Z</time>
      </trkpt>
      <trkpt lat="42.080417918041348" lon="12.949510999023914">
        <ele>794.19006300000001</ele>
        <time>2017-06-12T09:20:40Z</time>
      </trkpt>
      <trkpt lat="42.080420684069395" lon="12.94952692463994">
        <ele>794.19006300000001</ele>
        <time>2017-06-12T09:20:41Z</time>
      </trkpt>
      <trkpt lat="42.0804238691926" lon="12.949544107541442">
        <ele>794.19006300000001</ele>
        <time>2017-06-12T09:20:42Z</time>
      </trkpt>
      <trkpt lat="42.080456390976906" lon="12.94965541921556">
        <ele>794.19006300000001</ele>
        <time>2017-06-12T09:20:49Z</time>
      </trkpt>
      <trkpt lat="42.08046049810946" lon="12.949674613773823">
        <ele>794.19006300000001</ele>
        <time>2017-06-12T09:20:50Z</time>
      </trkpt>
      <trkpt lat="42.080501820892096" lon="12.949765138328075">
        <ele>794.669983</ele>
        <time>2017-06-12T09:20:57Z</time>
      </trkpt>
      <trkpt lat="42.080509699881077" lon="12.949782572686672">
        <ele>794.669983</ele>
        <time>2017-06-12T09:20:58Z</time>
      </trkpt>
      <trkpt lat="42.080522859469056" lon="12.94980981387198">
        <ele>794.669983</ele>
        <time>2017-06-12T09:21:00Z</time>
      </trkpt>
      <trkpt lat="42.080532163381577" lon="12.949824566021562">
        <ele>794.669983</ele>
        <time>2017-06-12T09:21:01Z</time>
      </trkpt>
      <trkpt lat="42.080576419830322" lon="12.949857339262962">
        <ele>794.669983</ele>
        <time>2017-06-12T09:21:16Z</time>
      </trkpt>
      <trkpt lat="42.080632075667381" lon="12.949970997869968">
        <ele>795.14996299999996</ele>
        <time>2017-06-12T09:21:29Z</time>
      </trkpt>
      <trkpt lat="42.080662837252021" lon="12.950005028396845">
        <ele>795.14996299999996</ele>
        <time>2017-06-12T09:21:32Z</time>
      </trkpt>
      <trkpt lat="42.080673985183239" lon="12.950023133307695">
        <ele>795.14996299999996</ele>
        <time>2017-06-12T09:21:33Z</time>
      </trkpt>
      <trkpt lat="42.080732993781567" lon="12.950125895440578">
        <ele>796.10998500000005</ele>
        <time>2017-06-12T09:21:42Z</time>
      </trkpt>
      <trkpt lat="42.08074196241796" lon="12.950141318142414">
        <ele>796.10998500000005</ele>
        <time>2017-06-12T09:21:43Z</time>
      </trkpt>
      <trkpt lat="42.080827206373215" lon="12.950252462178469">
        <ele>796.589966</ele>
        <time>2017-06-12T09:22:00Z</time>
      </trkpt>
      <trkpt lat="42.080802395939827" lon="12.950435439124703">
        <ele>796.589966</ele>
        <time>2017-06-12T09:22:20Z</time>
      </trkpt>
      <trkpt lat="42.080748500302434" lon="12.950489167124033">
        <ele>796.10998500000005</ele>
        <time>2017-06-12T09:22:26Z</time>
      </trkpt>
      <trkpt lat="42.080560913309455" lon="12.950491597875953">
        <ele>796.10998500000005</ele>
        <time>2017-06-12T09:22:40Z</time>
      </trkpt>
      <trkpt lat="42.08038036711514" lon="12.950502075254917">
        <ele>796.589966</ele>
        <time>2017-06-12T09:22:56Z</time>
      </trkpt>
      <trkpt lat="42.080117762088776" lon="12.950553204864264">
        <ele>797.07000700000003</ele>
        <time>2017-06-12T09:23:14Z</time>
      </trkpt>
      <trkpt lat="42.079915758222342" lon="12.950524874031544">
        <ele>796.589966</ele>
        <time>2017-06-12T09:23:29Z</time>
      </trkpt>
      <trkpt lat="42.079768907278776" lon="12.950488077476621">
        <ele>796.589966</ele>
        <time>2017-06-12T09:23:42Z</time>
      </trkpt>
      <trkpt lat="42.079756334424019" lon="12.950490172952414">
        <ele>796.589966</ele>
        <time>2017-06-12T09:23:43Z</time>
      </trkpt>
      <trkpt lat="42.079742336645722" lon="12.950490592047572">
        <ele>796.589966</ele>
        <time>2017-06-12T09:23:44Z</time>
      </trkpt>
      <trkpt lat="42.079730937257409" lon="12.950490759685636">
        <ele>796.589966</ele>
        <time>2017-06-12T09:23:45Z</time>
      </trkpt>
      <trkpt lat="42.079721800982952" lon="12.950494028627872">
        <ele>796.589966</ele>
        <time>2017-06-12T09:23:46Z</time>
      </trkpt>
      <trkpt lat="42.079710233956575" lon="12.95049880631268">
        <ele>796.589966</ele>
        <time>2017-06-12T09:23:47Z</time>
      </trkpt>
      <trkpt lat="42.079592971131206" lon="12.950641717761755">
        <ele>796.589966</ele>
        <time>2017-06-12T09:24:02Z</time>
      </trkpt>
      <trkpt lat="42.079567741602659" lon="12.95067273080349">
        <ele>795.14996299999996</ele>
        <time>2017-06-12T09:24:06Z</time>
      </trkpt>
      <trkpt lat="42.079405300319195" lon="12.95083986595273">
        <ele>795.14996299999996</ele>
        <time>2017-06-12T09:24:25Z</time>
      </trkpt>
      <trkpt lat="42.079183263704181" lon="12.95102309435606">
        <ele>794.669983</ele>
        <time>2017-06-12T09:24:45Z</time>
      </trkpt>
      <trkpt lat="42.078974302858114" lon="12.951202969998121">
        <ele>794.669983</ele>
        <time>2017-06-12T09:25:03Z</time>
      </trkpt>
      <trkpt lat="42.078813035041094" lon="12.951334230601788">
        <ele>794.19006300000001</ele>
        <time>2017-06-12T09:25:17Z</time>
      </trkpt>
      <trkpt lat="42.078611282631755" lon="12.951455013826489">
        <ele>795.63000499999998</ele>
        <time>2017-06-12T09:25:35Z</time>
      </trkpt>
      <trkpt lat="42.078535761684179" lon="12.951511088758707">
        <ele>795.63000499999998</ele>
        <time>2017-06-12T09:25:41Z</time>
      </trkpt>
      <trkpt lat="42.078522434458137" lon="12.951521566137671">
        <ele>795.63000499999998</ele>
        <time>2017-06-12T09:25:42Z</time>
      </trkpt>
      <trkpt lat="42.078358987346292" lon="12.951657772064209">
        <ele>795.63000499999998</ele>
        <time>2017-06-12T09:25:58Z</time>
      </trkpt>
      <trkpt lat="42.0782186742872" lon="12.951756259426475">
        <ele>795.63000499999998</ele>
        <time>2017-06-12T09:26:11Z</time>
      </trkpt>
      <trkpt lat="42.078016670420766" lon="12.951902858912945">
        <ele>795.63000499999998</ele>
        <time>2017-06-12T09:26:29Z</time>
      </trkpt>
      <trkpt lat="42.077982975170016" lon="12.95192020945251">
        <ele>794.19006300000001</ele>
        <time>2017-06-12T09:26:32Z</time>
      </trkpt>
      <trkpt lat="42.077801506966352" lon="12.952023977413774">
        <ele>793.70996100000002</ele>
        <time>2017-06-12T09:26:48Z</time>
      </trkpt>
      <trkpt lat="42.077599335461855" lon="12.952149705961347">
        <ele>793.70996100000002</ele>
        <time>2017-06-12T09:27:06Z</time>
      </trkpt>
      <trkpt lat="42.07753362134099" lon="12.952184323221445">
        <ele>793.70996100000002</ele>
        <time>2017-06-12T09:27:12Z</time>
      </trkpt>
      <trkpt lat="42.077499758452177" lon="12.952198907732964">
        <ele>793.70996100000002</ele>
        <time>2017-06-12T09:27:14Z</time>
      </trkpt>
      <trkpt lat="42.077480815351009" lon="12.952205361798406">
        <ele>793.70996100000002</ele>
        <time>2017-06-12T09:27:15Z</time>
      </trkpt>
      <trkpt lat="42.077236231416464" lon="12.952271997928619">
        <ele>793.21997099999999</ele>
        <time>2017-06-12T09:27:31Z</time>
      </trkpt>
      <trkpt lat="42.077199434861541" lon="12.952271578833461">
        <ele>793.70996100000002</ele>
        <time>2017-06-12T09:27:34Z</time>
      </trkpt>
      <trkpt lat="42.077186862006783" lon="12.952266130596399">
        <ele>793.70996100000002</ele>
        <time>2017-06-12T09:27:35Z</time>
      </trkpt>
      <trkpt lat="42.077173534780741" lon="12.952261436730623">
        <ele>793.70996100000002</ele>
        <time>2017-06-12T09:27:36Z</time>
      </trkpt>
      <trkpt lat="42.076975302770734" lon="12.952125063166022">
        <ele>793.21997099999999</ele>
        <time>2017-06-12T09:27:53Z</time>
      </trkpt>
      <trkpt lat="42.076928364112973" lon="12.952098911628127">
        <ele>793.21997099999999</ele>
        <time>2017-06-12T09:27:56Z</time>
      </trkpt>
      <trkpt lat="42.076743878424168" lon="12.952010901644826">
        <ele>793.21997099999999</ele>
        <time>2017-06-12T09:28:10Z</time>
      </trkpt>
      <trkpt lat="42.076540198177099" lon="12.951964633539319">
        <ele>794.669983</ele>
        <time>2017-06-12T09:28:26Z</time>
      </trkpt>
      <trkpt lat="42.076412038877606" lon="12.95192264020443">
        <ele>794.669983</ele>
        <time>2017-06-12T09:28:36Z</time>
      </trkpt>
      <trkpt lat="42.076399466022849" lon="12.951913336291909">
        <ele>794.669983</ele>
        <time>2017-06-12T09:28:37Z</time>
      </trkpt>
      <trkpt lat="42.076387479901314" lon="12.951900260522962">
        <ele>794.669983</ele>
        <time>2017-06-12T09:28:38Z</time>
      </trkpt>
      <trkpt lat="42.076376834884286" lon="12.951888106763363">
        <ele>794.669983</ele>
        <time>2017-06-12T09:28:39Z</time>
      </trkpt>
      <trkpt lat="42.076277928426862" lon="12.951711835339665">
        <ele>794.669983</ele>
        <time>2017-06-12T09:28:52Z</time>
      </trkpt>
      <trkpt lat="42.07617181353271" lon="12.951406231150031">
        <ele>794.669983</ele>
        <time>2017-06-12T09:29:08Z</time>
      </trkpt>
      <trkpt lat="42.076169634237885" lon="12.951365830376744">
        <ele>794.669983</ele>
        <time>2017-06-12T09:29:10Z</time>
      </trkpt>
      <trkpt lat="42.076165108010173" lon="12.951320735737681">
        <ele>793.21997099999999</ele>
        <time>2017-06-12T09:29:16Z</time>
      </trkpt>
      <trkpt lat="42.076150188222528" lon="12.951316796243191">
        <ele>793.21997099999999</ele>
        <time>2017-06-12T09:29:17Z</time>
      </trkpt>
      <trkpt lat="42.076135938987136" lon="12.951312437653542">
        <ele>793.21997099999999</ele>
        <time>2017-06-12T09:29:18Z</time>
      </trkpt>
      <trkpt lat="42.076124623417854" lon="12.951312018558383">
        <ele>793.21997099999999</ele>
        <time>2017-06-12T09:29:19Z</time>
      </trkpt>
      <trkpt lat="42.07611221820116" lon="12.951310761272907">
        <ele>793.21997099999999</ele>
        <time>2017-06-12T09:29:20Z</time>
      </trkpt>
      <trkpt lat="42.076099058613181" lon="12.951305061578751">
        <ele>793.21997099999999</ele>
        <time>2017-06-12T09:29:21Z</time>
      </trkpt>
      <trkpt lat="42.076088413596153" lon="12.951298439875245">
        <ele>793.21997099999999</ele>
        <time>2017-06-12T09:29:22Z</time>
      </trkpt>
      <trkpt lat="42.075915662571788" lon="12.951204478740692">
        <ele>793.21997099999999</ele>
        <time>2017-06-12T09:29:39Z</time>
      </trkpt>
      <trkpt lat="42.075698236003518" lon="12.951037008315325">
        <ele>792.73999000000003</ele>
        <time>2017-06-12T09:29:56Z</time>
      </trkpt>
      <trkpt lat="42.07546379417181" lon="12.950833663344383">
        <ele>792.73999000000003</ele>
        <time>2017-06-12T09:30:14Z</time>
      </trkpt>
      <trkpt lat="42.075298670679331" lon="12.95088772661984">
        <ele>792.26000999999997</ele>
        <time>2017-06-12T09:30:28Z</time>
      </trkpt>
      <trkpt lat="42.075292216613889" lon="12.950916225090623">
        <ele>792.26000999999997</ele>
        <time>2017-06-12T09:30:30Z</time>
      </trkpt>
      <trkpt lat="42.075338819995522" lon="12.951185284182429">
        <ele>791.77996800000005</ele>
        <time>2017-06-12T09:30:44Z</time>
      </trkpt>
      <trkpt lat="42.075415095314384" lon="12.951409164816141">
        <ele>793.21997099999999</ele>
        <time>2017-06-12T09:31:00Z</time>
      </trkpt>
      <trkpt lat="42.075491119176149" lon="12.951723989099264">
        <ele>794.19006300000001</ele>
        <time>2017-06-12T09:31:18Z</time>
      </trkpt>
      <trkpt lat="42.075498411431909" lon="12.95177411288023">
        <ele>794.19006300000001</ele>
        <time>2017-06-12T09:31:21Z</time>
      </trkpt>
      <trkpt lat="42.075552558526397" lon="12.952006040140986">
        <ele>795.14996299999996</ele>
        <time>2017-06-12T09:31:37Z</time>
      </trkpt>
      <trkpt lat="42.075616512447596" lon="12.95229353941977">
        <ele>795.63000499999998</ele>
        <time>2017-06-12T09:31:55Z</time>
      </trkpt>
      <trkpt lat="42.075675940141082" lon="12.952584391459823">
        <ele>796.589966</ele>
        <time>2017-06-12T09:32:13Z</time>
      </trkpt>
      <trkpt lat="42.075718687847257" lon="12.952846409752965">
        <ele>798.03002900000001</ele>
        <time>2017-06-12T09:32:29Z</time>
      </trkpt>
      <trkpt lat="42.075774595141411" lon="12.95310658402741">
        <ele>798.51000999999997</ele>
        <time>2017-06-12T09:32:46Z</time>
      </trkpt>
      <trkpt lat="42.075807619839907" lon="12.953352341428399">
        <ele>799.94995100000006</ele>
        <time>2017-06-12T09:33:02Z</time>
      </trkpt>
      <trkpt lat="42.075842404738069" lon="12.953575970605016">
        <ele>800.919983</ele>
        <time>2017-06-12T09:33:16Z</time>
      </trkpt>
      <trkpt lat="42.075838465243578" lon="12.953817788511515">
        <ele>802.36004600000001</ele>
        <time>2017-06-12T09:33:32Z</time>
      </trkpt>
      <trkpt lat="42.075843578204513" lon="12.954036304727197">
        <ele>803.31994599999996</ele>
        <time>2017-06-12T09:33:47Z</time>
      </trkpt>
      <trkpt lat="42.07585422322154" lon="12.954225316643715">
        <ele>804.27996800000005</ele>
        <time>2017-06-12T09:34:00Z</time>
      </trkpt>
      <trkpt lat="42.075852965936065" lon="12.954244092106819">
        <ele>804.27996800000005</ele>
        <time>2017-06-12T09:34:01Z</time>
      </trkpt>
      <trkpt lat="42.075854474678636" lon="12.954261358827353">
        <ele>804.27996800000005</ele>
        <time>2017-06-12T09:34:02Z</time>
      </trkpt>
      <trkpt lat="42.075843159109354" lon="12.954483730718493">
        <ele>804.76000999999997</ele>
        <time>2017-06-12T09:34:15Z</time>
      </trkpt>
      <trkpt lat="42.075841734185815" lon="12.954502087086439">
        <ele>804.76000999999997</ele>
        <time>2017-06-12T09:34:16Z</time>
      </trkpt>
      <trkpt lat="42.075841566547751" lon="12.954520862549543">
        <ele>805.23999000000003</ele>
        <time>2017-06-12T09:34:17Z</time>
      </trkpt>
      <trkpt lat="42.075841315090656" lon="12.954540308564901">
        <ele>805.23999000000003</ele>
        <time>2017-06-12T09:34:18Z</time>
      </trkpt>
      <trkpt lat="42.075840476900339" lon="12.954558162018657">
        <ele>805.23999000000003</ele>
        <time>2017-06-12T09:34:19Z</time>
      </trkpt>
      <trkpt lat="42.075817678123713" lon="12.954692523926497">
        <ele>805.23999000000003</ele>
        <time>2017-06-12T09:34:29Z</time>
      </trkpt>
      <trkpt lat="42.075811559334397" lon="12.954706270247698">
        <ele>805.23999000000003</ele>
        <time>2017-06-12T09:34:30Z</time>
      </trkpt>
      <trkpt lat="42.075804434716702" lon="12.954741725698113">
        <ele>805.23999000000003</ele>
        <time>2017-06-12T09:34:32Z</time>
      </trkpt>
      <trkpt lat="42.075808541849256" lon="12.954978011548519">
        <ele>805.71997099999999</ele>
        <time>2017-06-12T09:34:47Z</time>
      </trkpt>
      <trkpt lat="42.075781803578138" lon="12.955211363732815">
        <ele>806.20001200000002</ele>
        <time>2017-06-12T09:35:05Z</time>
      </trkpt>
      <trkpt lat="42.075766464695334" lon="12.955486876890063">
        <ele>806.20001200000002</ele>
        <time>2017-06-12T09:35:22Z</time>
      </trkpt>
      <trkpt lat="42.075748024508357" lon="12.95567580498755">
        <ele>807.160034</ele>
        <time>2017-06-12T09:35:34Z</time>
      </trkpt>
      <trkpt lat="42.075718184933066" lon="12.955927010625601">
        <ele>808.13000499999998</ele>
        <time>2017-06-12T09:35:50Z</time>
      </trkpt>
      <trkpt lat="42.075711814686656" lon="12.955959532409906">
        <ele>808.13000499999998</ele>
        <time>2017-06-12T09:35:52Z</time>
      </trkpt>
      <trkpt lat="42.075708294287324" lon="12.955979313701391">
        <ele>808.13000499999998</ele>
        <time>2017-06-12T09:35:53Z</time>
      </trkpt>
      <trkpt lat="42.075699996203184" lon="12.956010662019253">
        <ele>808.13000499999998</ele>
        <time>2017-06-12T09:35:55Z</time>
      </trkpt>
      <trkpt lat="42.075674012303352" lon="12.956093139946461">
        <ele>808.60998500000005</ele>
        <time>2017-06-12T09:36:00Z</time>
      </trkpt>
      <trkpt lat="42.075648866593838" lon="12.956299334764481">
        <ele>809.089966</ele>
        <time>2017-06-12T09:36:15Z</time>
      </trkpt>
      <trkpt lat="42.075595138594508" lon="12.956515001133084">
        <ele>810.04998799999998</ele>
        <time>2017-06-12T09:36:29Z</time>
      </trkpt>
      <trkpt lat="42.07555322907865" lon="12.956798225641251">
        <ele>811.01000999999997</ele>
        <time>2017-06-12T09:36:43Z</time>
      </trkpt>
      <trkpt lat="42.075537387281656" lon="12.956894282251596">
        <ele>811.01000999999997</ele>
        <time>2017-06-12T09:36:50Z</time>
      </trkpt>
      <trkpt lat="42.075533615425229" lon="12.956912219524384">
        <ele>811.01000999999997</ele>
        <time>2017-06-12T09:36:51Z</time>
      </trkpt>
      <trkpt lat="42.07547795958817" lon="12.957124700769782">
        <ele>811.97003199999995</ele>
        <time>2017-06-12T09:37:03Z</time>
      </trkpt>
      <trkpt lat="42.075459687039256" lon="12.957291668280959">
        <ele>811.97003199999995</ele>
        <time>2017-06-12T09:37:12Z</time>
      </trkpt>
      <trkpt lat="42.075456669554114" lon="12.957309270277619">
        <ele>811.97003199999995</ele>
        <time>2017-06-12T09:37:13Z</time>
      </trkpt>
      <trkpt lat="42.075454238802195" lon="12.957326536998153">
        <ele>811.97003199999995</ele>
        <time>2017-06-12T09:37:14Z</time>
      </trkpt>
      <trkpt lat="42.075421465560794" lon="12.9575365036726">
        <ele>812.44995100000006</ele>
        <time>2017-06-12T09:37:28Z</time>
      </trkpt>
      <trkpt lat="42.075415011495352" lon="12.957558464258909">
        <ele>812.44995100000006</ele>
        <time>2017-06-12T09:37:29Z</time>
      </trkpt>
      <trkpt lat="42.075335467234254" lon="12.957766084000468">
        <ele>813.40997300000004</ele>
        <time>2017-06-12T09:37:44Z</time>
      </trkpt>
      <trkpt lat="42.075239662081003" lon="12.95798409730196">
        <ele>814.84997599999997</ele>
        <time>2017-06-12T09:37:59Z</time>
      </trkpt>
      <trkpt lat="42.075146036222577" lon="12.958244439214468">
        <ele>814.84997599999997</ele>
        <time>2017-06-12T09:38:17Z</time>
      </trkpt>
      <trkpt lat="42.075123824179173" lon="12.958333538845181">
        <ele>814.84997599999997</ele>
        <time>2017-06-12T09:38:25Z</time>
      </trkpt>
      <trkpt lat="42.075122063979506" lon="12.958350637927651">
        <ele>814.84997599999997</ele>
        <time>2017-06-12T09:38:26Z</time>
      </trkpt>
      <trkpt lat="42.075118627399206" lon="12.958368575200438">
        <ele>814.84997599999997</ele>
        <time>2017-06-12T09:38:27Z</time>
      </trkpt>
      <trkpt lat="42.075115777552128" lon="12.958386428654194">
        <ele>814.84997599999997</ele>
        <time>2017-06-12T09:38:28Z</time>
      </trkpt>
      <trkpt lat="42.075115526095033" lon="12.958405539393425">
        <ele>814.84997599999997</ele>
        <time>2017-06-12T09:38:29Z</time>
      </trkpt>
      <trkpt lat="42.075115526095033" lon="12.958425069227815">
        <ele>815.34002699999996</ele>
        <time>2017-06-12T09:38:30Z</time>
      </trkpt>
      <trkpt lat="42.075114101171494" lon="12.958443174138665">
        <ele>815.34002699999996</ele>
        <time>2017-06-12T09:38:31Z</time>
      </trkpt>
      <trkpt lat="42.075112340971828" lon="12.958462033420801">
        <ele>815.34002699999996</ele>
        <time>2017-06-12T09:38:32Z</time>
      </trkpt>
      <trkpt lat="42.075111418962479" lon="12.958635035902262">
        <ele>815.81994599999996</ele>
        <time>2017-06-12T09:38:44Z</time>
      </trkpt>
      <trkpt lat="42.075104294344783" lon="12.958667892962694">
        <ele>815.81994599999996</ele>
        <time>2017-06-12T09:38:46Z</time>
      </trkpt>
      <trkpt lat="42.075100438669324" lon="12.958687338978052">
        <ele>815.81994599999996</ele>
        <time>2017-06-12T09:38:47Z</time>
      </trkpt>
      <trkpt lat="42.07509733736515" lon="12.9587072879076">
        <ele>815.81994599999996</ele>
        <time>2017-06-12T09:38:48Z</time>
      </trkpt>
      <trkpt lat="42.075086524710059" lon="12.958776019513607">
        <ele>816.29998799999998</ele>
        <time>2017-06-12T09:38:51Z</time>
      </trkpt>
      <trkpt lat="42.075061462819576" lon="12.959008198231459">
        <ele>817.26000999999997</ele>
        <time>2017-06-12T09:39:05Z</time>
      </trkpt>
      <trkpt lat="42.075043525546789" lon="12.95917390845716">
        <ele>817.73999000000003</ele>
        <time>2017-06-12T09:39:18Z</time>
      </trkpt>
      <trkpt lat="42.074960377067327" lon="12.959287734702229">
        <ele>817.73999000000003</ele>
        <time>2017-06-12T09:39:29Z</time>
      </trkpt>
      <trkpt lat="42.074872031807899" lon="12.959322268143296">
        <ele>817.73999000000003</ele>
        <time>2017-06-12T09:39:45Z</time>
      </trkpt>
      <trkpt lat="42.074739094823599" lon="12.959284968674183">
        <ele>818.70001200000002</ele>
        <time>2017-06-12T09:39:57Z</time>
      </trkpt>
      <trkpt lat="42.074692575260997" lon="12.959261583164334">
        <ele>819.17999299999997</ele>
        <time>2017-06-12T09:40:00Z</time>
      </trkpt>
      <trkpt lat="42.074627364054322" lon="12.959218500182033">
        <ele>819.17999299999997</ele>
        <time>2017-06-12T09:40:05Z</time>
      </trkpt>
      <trkpt lat="42.074552094563842" lon="12.959195282310247">
        <ele>819.17999299999997</ele>
        <time>2017-06-12T09:40:13Z</time>
      </trkpt>
      <trkpt lat="42.074539521709085" lon="12.959190672263503">
        <ele>819.17999299999997</ele>
        <time>2017-06-12T09:40:14Z</time>
      </trkpt>
      <trkpt lat="42.074430137872696" lon="12.959160078316927">
        <ele>820.14001499999995</ele>
        <time>2017-06-12T09:40:24Z</time>
      </trkpt>
      <trkpt lat="42.074416223913431" lon="12.959151612594724">
        <ele>820.14001499999995</ele>
        <time>2017-06-12T09:40:25Z</time>
      </trkpt>
      <trkpt lat="42.074336176738143" lon="12.959094531834126">
        <ele>821.10003700000004</ele>
        <time>2017-06-12T09:40:32Z</time>
      </trkpt>
      <trkpt lat="42.074156636372209" lon="12.958981962874532">
        <ele>819.660034</ele>
        <time>2017-06-12T09:40:47Z</time>
      </trkpt>
      <trkpt lat="42.074089916422963" lon="12.958960169926286">
        <ele>821.10003700000004</ele>
        <time>2017-06-12T09:40:52Z</time>
      </trkpt>
      <trkpt lat="42.074049934744835" lon="12.958952877670527">
        <ele>821.10003700000004</ele>
        <time>2017-06-12T09:40:55Z</time>
      </trkpt>
      <trkpt lat="42.074034260585904" lon="12.958950363099575">
        <ele>821.10003700000004</ele>
        <time>2017-06-12T09:40:56Z</time>
      </trkpt>
      <trkpt lat="42.073853714391589" lon="12.958941562101245">
        <ele>822.06005900000002</ele>
        <time>2017-06-12T09:41:11Z</time>
      </trkpt>
      <trkpt lat="42.073838878422976" lon="12.958941562101245">
        <ele>822.06005900000002</ele>
        <time>2017-06-12T09:41:12Z</time>
      </trkpt>
      <trkpt lat="42.073824796825647" lon="12.958941981196404">
        <ele>822.06005900000002</ele>
        <time>2017-06-12T09:41:13Z</time>
      </trkpt>
      <trkpt lat="42.0738117210567" lon="12.958939969539642">
        <ele>822.54998799999998</ele>
        <time>2017-06-12T09:41:14Z</time>
      </trkpt>
      <trkpt lat="42.073799232020974" lon="12.958939969539642">
        <ele>822.54998799999998</ele>
        <time>2017-06-12T09:41:15Z</time>
      </trkpt>
      <trkpt lat="42.073782635852695" lon="12.958947094157338">
        <ele>822.54998799999998</ele>
        <time>2017-06-12T09:41:17Z</time>
      </trkpt>
      <trkpt lat="42.073770817369223" lon="12.958950866013765">
        <ele>823.03002900000001</ele>
        <time>2017-06-12T09:41:18Z</time>
      </trkpt>
      <trkpt lat="42.073689261451364" lon="12.95897408388555">
        <ele>823.03002900000001</ele>
        <time>2017-06-12T09:41:24Z</time>
      </trkpt>
      <trkpt lat="42.073675598949194" lon="12.958980286493897">
        <ele>823.03002900000001</ele>
        <time>2017-06-12T09:41:25Z</time>
      </trkpt>
      <trkpt lat="42.073661265894771" lon="12.958984896540642">
        <ele>823.03002900000001</ele>
        <time>2017-06-12T09:41:26Z</time>
      </trkpt>
      <trkpt lat="42.073644921183586" lon="12.958991434425116">
        <ele>823.03002900000001</ele>
        <time>2017-06-12T09:41:27Z</time>
      </trkpt>
      <trkpt lat="42.07362798973918" lon="12.959000905975699">
        <ele>823.03002900000001</ele>
        <time>2017-06-12T09:41:28Z</time>
      </trkpt>
      <trkpt lat="42.073612734675407" lon="12.959008114412427">
        <ele>823.03002900000001</ele>
        <time>2017-06-12T09:41:29Z</time>
      </trkpt>
      <trkpt lat="42.073597395792603" lon="12.959014233201742">
        <ele>823.03002900000001</ele>
        <time>2017-06-12T09:41:30Z</time>
      </trkpt>
      <trkpt lat="42.073431769385934" lon="12.959123281762004">
        <ele>823.03002900000001</ele>
        <time>2017-06-12T09:41:46Z</time>
      </trkpt>
      <trkpt lat="42.07323856651783" lon="12.95921640470624">
        <ele>823.03002900000001</ele>
        <time>2017-06-12T09:42:02Z</time>
      </trkpt>
      <trkpt lat="42.073069335892797" lon="12.95926284044981">
        <ele>823.51000999999997</ele>
        <time>2017-06-12T09:42:16Z</time>
      </trkpt>
      <trkpt lat="42.072849394753575" lon="12.959315227344632">
        <ele>824.94995100000006</ele>
        <time>2017-06-12T09:42:33Z</time>
      </trkpt>
      <trkpt lat="42.072667339816689" lon="12.959359986707568">
        <ele>826.86999500000002</ele>
        <time>2017-06-12T09:42:49Z</time>
      </trkpt>
      <trkpt lat="42.072552591562271" lon="12.959453193470836">
        <ele>828.30999799999995</ele>
        <time>2017-06-12T09:43:04Z</time>
      </trkpt>
      <trkpt lat="42.072448404505849" lon="12.959592919796705">
        <ele>830.23999000000003</ele>
        <time>2017-06-12T09:43:19Z</time>
      </trkpt>
      <trkpt lat="42.072410434484482" lon="12.959743794053793">
        <ele>832.160034</ele>
        <time>2017-06-12T09:43:33Z</time>
      </trkpt>
      <trkpt lat="42.072403309866786" lon="12.959935571998358">
        <ele>833.11999500000002</ele>
        <time>2017-06-12T09:43:47Z</time>
      </trkpt>
      <trkpt lat="42.072403896600008" lon="12.959948228672147">
        <ele>833.60003700000004</ele>
        <time>2017-06-12T09:43:48Z</time>
      </trkpt>
      <trkpt lat="42.072404734790325" lon="12.959964070469141">
        <ele>833.60003700000004</ele>
        <time>2017-06-12T09:43:49Z</time>
      </trkpt>
      <trkpt lat="42.072426360100508" lon="12.960201865062118">
        <ele>834.080017</ele>
        <time>2017-06-12T09:44:05Z</time>
      </trkpt>
      <trkpt lat="42.072467934340239" lon="12.960412837564945">
        <ele>835.03997800000002</ele>
        <time>2017-06-12T09:44:19Z</time>
      </trkpt>
      <trkpt lat="42.072476064786315" lon="12.960485927760601">
        <ele>835.51995799999997</ele>
        <time>2017-06-12T09:44:25Z</time>
      </trkpt>
      <trkpt lat="42.07247631624341" lon="12.960502104833722">
        <ele>835.51995799999997</ele>
        <time>2017-06-12T09:44:26Z</time>
      </trkpt>
      <trkpt lat="42.072527278214693" lon="12.960717603564262">
        <ele>835.51995799999997</ele>
        <time>2017-06-12T09:44:39Z</time>
      </trkpt>
      <trkpt lat="42.072597434744239" lon="12.960911309346557">
        <ele>835.51995799999997</ele>
        <time>2017-06-12T09:44:53Z</time>
      </trkpt>
      <trkpt lat="42.072599027305841" lon="12.960937293246388">
        <ele>835.51995799999997</ele>
        <time>2017-06-12T09:44:55Z</time>
      </trkpt>
      <trkpt lat="42.072601374238729" lon="12.960954224690795">
        <ele>835.51995799999997</ele>
        <time>2017-06-12T09:44:56Z</time>
      </trkpt>
      <trkpt lat="42.072625095024705" lon="12.961167460307479">
        <ele>835.51995799999997</ele>
        <time>2017-06-12T09:45:09Z</time>
      </trkpt>
      <trkpt lat="42.072623921558261" lon="12.961182463914156">
        <ele>835.51995799999997</ele>
        <time>2017-06-12T09:45:10Z</time>
      </trkpt>
      <trkpt lat="42.072624424472451" lon="12.961199395358562">
        <ele>835.51995799999997</ele>
        <time>2017-06-12T09:45:11Z</time>
      </trkpt>
      <trkpt lat="42.072626603767276" lon="12.961217500269413">
        <ele>835.51995799999997</ele>
        <time>2017-06-12T09:45:12Z</time>
      </trkpt>
      <trkpt lat="42.072629788890481" lon="12.961234599351883">
        <ele>835.51995799999997</ele>
        <time>2017-06-12T09:45:13Z</time>
      </trkpt>
      <trkpt lat="42.072691731154919" lon="12.961459569633007">
        <ele>836.47997999999995</ele>
        <time>2017-06-12T09:45:28Z</time>
      </trkpt>
      <trkpt lat="42.072634901851416" lon="12.961639864370227">
        <ele>836.47997999999995</ele>
        <time>2017-06-12T09:45:41Z</time>
      </trkpt>
      <trkpt lat="42.072572624310851" lon="12.96169183216989">
        <ele>836.47997999999995</ele>
        <time>2017-06-12T09:45:48Z</time>
      </trkpt>
      <trkpt lat="42.072433568537235" lon="12.961915964260697">
        <ele>837.93005400000004</ele>
        <time>2017-06-12T09:46:05Z</time>
      </trkpt>
      <trkpt lat="42.072395430877805" lon="12.9620177205652">
        <ele>839.36999500000002</ele>
        <time>2017-06-12T09:46:14Z</time>
      </trkpt>
      <trkpt lat="42.072392497211695" lon="12.962033059448004">
        <ele>839.36999500000002</ele>
        <time>2017-06-12T09:46:15Z</time>
      </trkpt>
      <trkpt lat="42.072389228269458" lon="12.962050158530474">
        <ele>839.36999500000002</ele>
        <time>2017-06-12T09:46:16Z</time>
      </trkpt>
      <trkpt lat="42.072387216612697" lon="12.962066335603595">
        <ele>839.36999500000002</ele>
        <time>2017-06-12T09:46:17Z</time>
      </trkpt>
      <trkpt lat="42.072385540232062" lon="12.962085865437984">
        <ele>839.36999500000002</ele>
        <time>2017-06-12T09:46:18Z</time>
      </trkpt>
      <trkpt lat="42.072390988469124" lon="12.962244534865022">
        <ele>839.84997599999997</ele>
        <time>2017-06-12T09:46:30Z</time>
      </trkpt>
      <trkpt lat="42.072422420606017" lon="12.962498841807246">
        <ele>840.80999799999995</ele>
        <time>2017-06-12T09:46:46Z</time>
      </trkpt>
      <trkpt lat="42.072416804730892" lon="12.962719788774848">
        <ele>842.73004200000003</ele>
        <time>2017-06-12T09:47:01Z</time>
      </trkpt>
      <trkpt lat="42.072397777810693" lon="12.962930593639612">
        <ele>844.17999299999997</ele>
        <time>2017-06-12T09:47:15Z</time>
      </trkpt>
      <trkpt lat="42.072383193299174" lon="12.96304970048368">
        <ele>844.660034</ele>
        <time>2017-06-12T09:47:24Z</time>
      </trkpt>
      <trkpt lat="42.072385037317872" lon="12.963067218661308">
        <ele>844.660034</ele>
        <time>2017-06-12T09:47:25Z</time>
      </trkpt>
      <trkpt lat="42.072388138622046" lon="12.963085826486349">
        <ele>844.660034</ele>
        <time>2017-06-12T09:47:26Z</time>
      </trkpt>
      <trkpt lat="42.072392161935568" lon="12.963105440139771">
        <ele>844.660034</ele>
        <time>2017-06-12T09:47:27Z</time>
      </trkpt>
      <trkpt lat="42.072421666234732" lon="12.963295206427574">
        <ele>846.10003700000004</ele>
        <time>2017-06-12T09:47:41Z</time>
      </trkpt>
      <trkpt lat="42.072428958490491" lon="12.963323537260294">
        <ele>847.06005900000002</ele>
        <time>2017-06-12T09:47:43Z</time>
      </trkpt>
      <trkpt lat="42.072476735338569" lon="12.963496958836913">
        <ele>848.5</ele>
        <time>2017-06-12T09:47:56Z</time>
      </trkpt>
      <trkpt lat="42.072480507194996" lon="12.963518165051937">
        <ele>848.5</ele>
        <time>2017-06-12T09:47:58Z</time>
      </trkpt>
      <trkpt lat="42.072482937946916" lon="12.963537024334073">
        <ele>848.97997999999995</ele>
        <time>2017-06-12T09:47:59Z</time>
      </trkpt>
      <trkpt lat="42.072486458346248" lon="12.963558062911034">
        <ele>848.97997999999995</ele>
        <time>2017-06-12T09:48:00Z</time>
      </trkpt>
      <trkpt lat="42.072476986795664" lon="12.963640708476305">
        <ele>849.45996100000002</ele>
        <time>2017-06-12T09:48:12Z</time>
      </trkpt>
      <trkpt lat="42.072476902976632" lon="12.963655963540077">
        <ele>849.94000200000005</ele>
        <time>2017-06-12T09:48:13Z</time>
      </trkpt>
      <trkpt lat="42.072476232424378" lon="12.963672559708357">
        <ele>849.94000200000005</ele>
        <time>2017-06-12T09:48:14Z</time>
      </trkpt>
      <trkpt lat="42.072468940168619" lon="12.963714301586151">
        <ele>850.419983</ele>
        <time>2017-06-12T09:48:18Z</time>
      </trkpt>
      <trkpt lat="42.072463659569621" lon="12.963740536943078">
        <ele>850.419983</ele>
        <time>2017-06-12T09:48:20Z</time>
      </trkpt>
      <trkpt lat="42.072459636256099" lon="12.963754199445248">
        <ele>850.419983</ele>
        <time>2017-06-12T09:48:21Z</time>
      </trkpt>
      <trkpt lat="42.072434322908521" lon="12.963852938264608">
        <ele>851.86999500000002</ele>
        <time>2017-06-12T09:48:31Z</time>
      </trkpt>
      <trkpt lat="42.072430634871125" lon="12.96386961825192">
        <ele>851.86999500000002</ele>
        <time>2017-06-12T09:48:32Z</time>
      </trkpt>
      <trkpt lat="42.072427365928888" lon="12.963888058438897">
        <ele>852.34997599999997</ele>
        <time>2017-06-12T09:48:33Z</time>
      </trkpt>
      <trkpt lat="42.072415295988321" lon="12.964069275185466">
        <ele>853.78997800000002</ele>
        <time>2017-06-12T09:48:46Z</time>
      </trkpt>
      <trkpt lat="42.072359640151262" lon="12.964207241311669">
        <ele>854.27002000000005</ele>
        <time>2017-06-12T09:48:59Z</time>
      </trkpt>
      <trkpt lat="42.072324939072132" lon="12.964220819994807">
        <ele>854.75</ele>
        <time>2017-06-12T09:49:03Z</time>
      </trkpt>
      <trkpt lat="42.072309767827392" lon="12.964219814166427">
        <ele>854.75</ele>
        <time>2017-06-12T09:49:04Z</time>
      </trkpt>
      <trkpt lat="42.07229602150619" lon="12.964218640699983">
        <ele>854.75</ele>
        <time>2017-06-12T09:49:05Z</time>
      </trkpt>
      <trkpt lat="42.072264673188329" lon="12.964213360100985">
        <ele>854.75</ele>
        <time>2017-06-12T09:49:09Z</time>
      </trkpt>
      <trkpt lat="42.072117067873478" lon="12.96405041590333">
        <ele>855.71002199999998</ele>
        <time>2017-06-12T09:49:25Z</time>
      </trkpt>
      <trkpt lat="42.072042804211378" lon="12.963993502780795">
        <ele>855.71002199999998</ele>
        <time>2017-06-12T09:49:32Z</time>
      </trkpt>
      <trkpt lat="42.071928139775991" lon="12.963938685134053">
        <ele>855.71002199999998</ele>
        <time>2017-06-12T09:49:42Z</time>
      </trkpt>
      <trkpt lat="42.071914980188012" lon="12.963930638507009">
        <ele>855.71002199999998</ele>
        <time>2017-06-12T09:49:43Z</time>
      </trkpt>
      <trkpt lat="42.071903077885509" lon="12.963920077309012">
        <ele>855.71002199999998</ele>
        <time>2017-06-12T09:49:44Z</time>
      </trkpt>
      <trkpt lat="42.071890337392688" lon="12.963908510282636">
        <ele>855.71002199999998</ele>
        <time>2017-06-12T09:49:45Z</time>
      </trkpt>
      <trkpt lat="42.071877429261804" lon="12.963898200541735">
        <ele>855.71002199999998</ele>
        <time>2017-06-12T09:49:46Z</time>
      </trkpt>
      <trkpt lat="42.071725130081177" lon="12.963740034028888">
        <ele>855.71002199999998</ele>
        <time>2017-06-12T09:50:01Z</time>
      </trkpt>
      <trkpt lat="42.071553636342287" lon="12.963605839759111">
        <ele>857.14996299999996</ele>
        <time>2017-06-12T09:50:17Z</time>
      </trkpt>
      <trkpt lat="42.071487084031105" lon="12.963600978255272">
        <ele>857.63000499999998</ele>
        <time>2017-06-12T09:50:24Z</time>
      </trkpt>
      <trkpt lat="42.071476271376014" lon="12.963603911921382">
        <ele>857.63000499999998</ele>
        <time>2017-06-12T09:50:25Z</time>
      </trkpt>
      <trkpt lat="42.071448359638453" lon="12.963610282167792">
        <ele>858.10998500000005</ele>
        <time>2017-06-12T09:50:29Z</time>
      </trkpt>
      <trkpt lat="42.071438133716583" lon="12.963614137843251">
        <ele>858.10998500000005</ele>
        <time>2017-06-12T09:50:30Z</time>
      </trkpt>
      <trkpt lat="42.07142723724246" lon="12.963618664070964">
        <ele>858.589966</ele>
        <time>2017-06-12T09:50:31Z</time>
      </trkpt>
      <trkpt lat="42.071334701031446" lon="12.963669877499342">
        <ele>860.51995799999997</ele>
        <time>2017-06-12T09:50:43Z</time>
      </trkpt>
      <trkpt lat="42.071330090984702" lon="12.963678259402514">
        <ele>860.51995799999997</ele>
        <time>2017-06-12T09:50:44Z</time>
      </trkpt>
      <trkpt lat="42.071324726566672" lon="12.963703908026218">
        <ele>861.47997999999995</ele>
        <time>2017-06-12T09:50:49Z</time>
      </trkpt>
      <trkpt lat="42.07136370241642" lon="12.963751517236233">
        <ele>862.44000200000005</ele>
        <time>2017-06-12T09:51:00Z</time>
      </trkpt>
      <trkpt lat="42.071377281099558" lon="12.963755624368787">
        <ele>862.44000200000005</ele>
        <time>2017-06-12T09:51:02Z</time>
      </trkpt>
      <trkpt lat="42.071412485092878" lon="12.963761324062943">
        <ele>863.40002400000003</ele>
        <time>2017-06-12T09:51:14Z</time>
      </trkpt>
      <trkpt lat="42.071413407102227" lon="12.96375285834074">
        <ele>863.40002400000003</ele>
        <time>2017-06-12T09:51:36Z</time>
      </trkpt>
      <trkpt lat="42.071412485092878" lon="12.96376409009099">
        <ele>863.40002400000003</ele>
        <time>2017-06-12T09:51:57Z</time>
      </trkpt>
      <trkpt lat="42.071407036855817" lon="12.963788397610188">
        <ele>863.40002400000003</ele>
        <time>2017-06-12T09:52:36Z</time>
      </trkpt>
      <trkpt lat="42.071406114846468" lon="12.963797366246581">
        <ele>863.40002400000003</ele>
        <time>2017-06-12T09:53:06Z</time>
      </trkpt>
      <trkpt lat="42.071409467607737" lon="12.96380952000618">
        <ele>864.35998500000005</ele>
        <time>2017-06-12T09:53:41Z</time>
      </trkpt>
      <trkpt lat="42.07141013815999" lon="12.96379342675209">
        <ele>864.35998500000005</ele>
        <time>2017-06-12T09:54:07Z</time>
      </trkpt>
      <trkpt lat="42.071398068219423" lon="12.963707596063614">
        <ele>864.35998500000005</ele>
        <time>2017-06-12T09:54:39Z</time>
      </trkpt>
      <trkpt lat="42.071418017148972" lon="12.963768867775798">
        <ele>864.35998500000005</ele>
        <time>2017-06-12T09:54:58Z</time>
      </trkpt>
      <trkpt lat="42.071407036855817" lon="12.963800299912691">
        <ele>864.35998500000005</ele>
        <time>2017-06-12T09:55:27Z</time>
      </trkpt>
      <trkpt lat="42.07141600549221" lon="12.963780267164111">
        <ele>863.40002400000003</ele>
        <time>2017-06-12T09:55:51Z</time>
      </trkpt>
      <trkpt lat="42.071434697136283" lon="12.963799796998501">
        <ele>863.40002400000003</ele>
        <time>2017-06-12T09:55:55Z</time>
      </trkpt>
      <trkpt lat="42.071474427357316" lon="12.963819410651922">
        <ele>864.84002699999996</ele>
        <time>2017-06-12T09:56:00Z</time>
      </trkpt>
      <trkpt lat="42.071515833958983" lon="12.963855285197496">
        <ele>865.80004899999994</ele>
        <time>2017-06-12T09:56:06Z</time>
      </trkpt>
      <trkpt lat="42.07160945981741" lon="12.963989730924368">
        <ele>867.73004200000003</ele>
        <time>2017-06-12T09:56:20Z</time>
      </trkpt>
      <trkpt lat="42.071629241108894" lon="12.964022001251578">
        <ele>867.73004200000003</ele>
        <time>2017-06-12T09:56:24Z</time>
      </trkpt>
      <trkpt lat="42.071642065420747" lon="12.96405142173171">
        <ele>868.21002199999998</ele>
        <time>2017-06-12T09:56:39Z</time>
      </trkpt>
      <trkpt lat="42.071657739579678" lon="12.964075477793813">
        <ele>868.68994099999998</ele>
        <time>2017-06-12T09:56:42Z</time>
      </trkpt>
      <trkpt lat="42.071663690730929" lon="12.964086877182126">
        <ele>868.68994099999998</ele>
        <time>2017-06-12T09:56:43Z</time>
      </trkpt>
      <trkpt lat="42.071679281070828" lon="12.964105485007167">
        <ele>868.68994099999998</ele>
        <time>2017-06-12T09:56:46Z</time>
      </trkpt>
      <trkpt lat="42.071687998250127" lon="12.964119734242558">
        <ele>869.64996299999996</ele>
        <time>2017-06-12T09:56:47Z</time>
      </trkpt>
      <trkpt lat="42.071738876402378" lon="12.964177401736379">
        <ele>870.13000499999998</ele>
        <time>2017-06-12T09:56:55Z</time>
      </trkpt>
      <trkpt lat="42.071746839210391" lon="12.964188968762755">
        <ele>870.60998500000005</ele>
        <time>2017-06-12T09:56:56Z</time>
      </trkpt>
      <trkpt lat="42.0718102902174" lon="12.964268093928695">
        <ele>872.04998799999998</ele>
        <time>2017-06-12T09:57:08Z</time>
      </trkpt>
      <trkpt lat="42.07183082588017" lon="12.964283935725689">
        <ele>873.01000999999997</ele>
        <time>2017-06-12T09:57:11Z</time>
      </trkpt>
      <trkpt lat="42.071908358484507" lon="12.964352834969759">
        <ele>874.94000200000005</ele>
        <time>2017-06-12T09:57:24Z</time>
      </trkpt>
      <trkpt lat="42.071984801441431" lon="12.964423662051558">
        <ele>876.85998500000005</ele>
        <time>2017-06-12T09:57:35Z</time>
      </trkpt>
      <trkpt lat="42.072038277983665" lon="12.964499518275261">
        <ele>877.82000700000003</ele>
        <time>2017-06-12T09:57:45Z</time>
      </trkpt>
      <trkpt lat="42.072076834738255" lon="12.964563220739365">
        <ele>878.77996800000005</ele>
        <time>2017-06-12T09:57:53Z</time>
      </trkpt>
      <trkpt lat="42.072127796709538" lon="12.964641340076923">
        <ele>879.73999000000003</ele>
        <time>2017-06-12T09:58:03Z</time>
      </trkpt>
      <trkpt lat="42.072135927155614" lon="12.96465240418911">
        <ele>880.21997099999999</ele>
        <time>2017-06-12T09:58:04Z</time>
      </trkpt>
      <trkpt lat="42.072195438668132" lon="12.964714681729674">
        <ele>881.18994099999998</ele>
        <time>2017-06-12T09:58:14Z</time>
      </trkpt>
      <trkpt lat="42.072203736752272" lon="12.964725159108639">
        <ele>881.67004399999996</ele>
        <time>2017-06-12T09:58:15Z</time>
      </trkpt>
      <trkpt lat="42.072244388982654" lon="12.964767403900623">
        <ele>883.10998500000005</ele>
        <time>2017-06-12T09:58:21Z</time>
      </trkpt>
      <trkpt lat="42.072253609076142" lon="12.96477654017508">
        <ele>883.10998500000005</ele>
        <time>2017-06-12T09:58:22Z</time>
      </trkpt>
      <trkpt lat="42.072272803634405" lon="12.964792130514979">
        <ele>882.63000499999998</ele>
        <time>2017-06-12T09:58:25Z</time>
      </trkpt>
      <trkpt lat="42.072301805019379" lon="12.964812917634845">
        <ele>884.07000700000003</ele>
        <time>2017-06-12T09:58:29Z</time>
      </trkpt>
      <trkpt lat="42.072382438927889" lon="12.96486153267324">
        <ele>885.03002900000001</ele>
        <time>2017-06-12T09:58:40Z</time>
      </trkpt>
      <trkpt lat="42.072458127513528" lon="12.964922385290265">
        <ele>885.98999000000003</ele>
        <time>2017-06-12T09:58:51Z</time>
      </trkpt>
      <trkpt lat="42.072470281273127" lon="12.964934874325991">
        <ele>885.98999000000003</ele>
        <time>2017-06-12T09:58:53Z</time>
      </trkpt>
      <trkpt lat="42.072479836642742" lon="12.964942920953035">
        <ele>886.47003199999995</ele>
        <time>2017-06-12T09:58:54Z</time>
      </trkpt>
      <trkpt lat="42.072531133890152" lon="12.965005533769727">
        <ele>886.95001200000002</ele>
        <time>2017-06-12T09:59:01Z</time>
      </trkpt>
      <trkpt lat="42.072540940716863" lon="12.965017687529325">
        <ele>886.95001200000002</ele>
        <time>2017-06-12T09:59:02Z</time>
      </trkpt>
      <trkpt lat="42.072561392560601" lon="12.965063620358706">
        <ele>887.43005400000004</ele>
        <time>2017-06-12T09:59:06Z</time>
      </trkpt>
      <trkpt lat="42.072574635967612" lon="12.965097902342677">
        <ele>888.40002400000003</ele>
        <time>2017-06-12T09:59:09Z</time>
      </trkpt>
      <trkpt lat="42.072614617645741" lon="12.965204017236829">
        <ele>889.35998500000005</ele>
        <time>2017-06-12T09:59:20Z</time>
      </trkpt>
      <trkpt lat="42.072639763355255" lon="12.965279035270214">
        <ele>889.84002699999996</ele>
        <time>2017-06-12T09:59:27Z</time>
      </trkpt>
      <trkpt lat="42.072645965963602" lon="12.965291859582067">
        <ele>889.84002699999996</ele>
        <time>2017-06-12T09:59:28Z</time>
      </trkpt>
      <trkpt lat="42.072657281532884" lon="12.965316837653518">
        <ele>890.32000700000003</ele>
        <time>2017-06-12T09:59:31Z</time>
      </trkpt>
      <trkpt lat="42.072698771953583" lon="12.965401327237487">
        <ele>891.27996800000005</ele>
        <time>2017-06-12T09:59:41Z</time>
      </trkpt>
      <trkpt lat="42.072739927098155" lon="12.965496629476547">
        <ele>893.20001200000002</ele>
        <time>2017-06-12T09:59:51Z</time>
      </trkpt>
      <trkpt lat="42.0727773103863" lon="12.96556418761611">
        <ele>893.67999299999997</ele>
        <time>2017-06-12T10:00:00Z</time>
      </trkpt>
      <trkpt lat="42.072784435003996" lon="12.965572318062186">
        <ele>894.15997300000004</ele>
        <time>2017-06-12T10:00:01Z</time>
      </trkpt>
      <trkpt lat="42.072797259315848" lon="12.965586315840483">
        <ele>894.15997300000004</ele>
        <time>2017-06-12T10:00:04Z</time>
      </trkpt>
      <trkpt lat="42.072810837998986" lon="12.965611964464188">
        <ele>894.64001499999995</ele>
        <time>2017-06-12T10:00:07Z</time>
      </trkpt>
      <trkpt lat="42.072829864919186" lon="12.965654460713267">
        <ele>895.11999500000002</ele>
        <time>2017-06-12T10:00:11Z</time>
      </trkpt>
      <trkpt lat="42.07286573946476" lon="12.965751523151994">
        <ele>897.04998799999998</ele>
        <time>2017-06-12T10:00:22Z</time>
      </trkpt>
      <trkpt lat="42.072884263470769" lon="12.965851435437799">
        <ele>898.48999000000003</ele>
        <time>2017-06-12T10:00:33Z</time>
      </trkpt>
      <trkpt lat="42.072932962328196" lon="12.965949336066842">
        <ele>899.93005400000004</ele>
        <time>2017-06-12T10:00:45Z</time>
      </trkpt>
      <trkpt lat="42.072977721691132" lon="12.966014966368675">
        <ele>901.36999500000002</ele>
        <time>2017-06-12T10:00:56Z</time>
      </trkpt>
      <trkpt lat="42.072999682277441" lon="12.966033238917589">
        <ele>901.84997599999997</ele>
        <time>2017-06-12T10:01:00Z</time>
      </trkpt>
      <trkpt lat="42.073020804673433" lon="12.966052601113915">
        <ele>902.82000700000003</ele>
        <time>2017-06-12T10:01:03Z</time>
      </trkpt>
      <trkpt lat="42.073054332286119" lon="12.966081015765667">
        <ele>902.82000700000003</ele>
        <time>2017-06-12T10:01:09Z</time>
      </trkpt>
      <trkpt lat="42.073131781071424" lon="12.966098533943295">
        <ele>904.73999000000003</ele>
        <time>2017-06-12T10:01:20Z</time>
      </trkpt>
      <trkpt lat="42.073153238743544" lon="12.966094762086868">
        <ele>904.73999000000003</ele>
        <time>2017-06-12T10:01:23Z</time>
      </trkpt>
      <trkpt lat="42.073191041126847" lon="12.966099623590708">
        <ele>906.17999299999997</ele>
        <time>2017-06-12T10:01:28Z</time>
      </trkpt>
      <trkpt lat="42.073242841288447" lon="12.966084871441126">
        <ele>907.61999500000002</ele>
        <time>2017-06-12T10:01:38Z</time>
      </trkpt>
      <trkpt lat="42.073297239840031" lon="12.966068107634783">
        <ele>908.580017</ele>
        <time>2017-06-12T10:01:49Z</time>
      </trkpt>
      <trkpt lat="42.073309225961566" lon="12.966149160638452">
        <ele>909.05999799999995</ele>
        <time>2017-06-12T10:01:58Z</time>
      </trkpt>
      <trkpt lat="42.073238817974925" lon="12.966229459270835">
        <ele>909.54003899999998</ele>
        <time>2017-06-12T10:02:10Z</time>
      </trkpt>
      <trkpt lat="42.0732297655195" lon="12.96623800881207">
        <ele>910.03002900000001</ele>
        <time>2017-06-12T10:02:11Z</time>
      </trkpt>
      <trkpt lat="42.073156759142876" lon="12.966312859207392">
        <ele>910.51000999999997</ele>
        <time>2017-06-12T10:02:22Z</time>
      </trkpt>
      <trkpt lat="42.073138738051057" lon="12.966339597478509">
        <ele>911.47003199999995</ele>
        <time>2017-06-12T10:02:25Z</time>
      </trkpt>
      <trkpt lat="42.073128763586283" lon="12.966352086514235">
        <ele>911.47003199999995</ele>
        <time>2017-06-12T10:02:26Z</time>
      </trkpt>
      <trkpt lat="42.073105210438371" lon="12.966381087899208">
        <ele>911.95001200000002</ele>
        <time>2017-06-12T10:02:30Z</time>
      </trkpt>
      <trkpt lat="42.07306019961834" lon="12.966412017121911">
        <ele>913.38995399999999</ele>
        <time>2017-06-12T10:02:35Z</time>
      </trkpt>
      <trkpt lat="42.07297520712018" lon="12.966422662138939">
        <ele>913.38995399999999</ele>
        <time>2017-06-12T10:02:47Z</time>
      </trkpt>
      <trkpt lat="42.072914941236377" lon="12.966420734301209">
        <ele>914.34997599999997</ele>
        <time>2017-06-12T10:03:08Z</time>
      </trkpt>
      <trkpt lat="42.072815867140889" lon="12.966465828940272">
        <ele>915.30999799999995</ele>
        <time>2017-06-12T10:03:20Z</time>
      </trkpt>
      <trkpt lat="42.072746381163597" lon="12.966493237763643">
        <ele>915.78997800000002</ele>
        <time>2017-06-12T10:03:28Z</time>
      </trkpt>
      <trkpt lat="42.072655269876122" lon="12.966499021276832">
        <ele>916.75</ele>
        <time>2017-06-12T10:03:38Z</time>
      </trkpt>
      <trkpt lat="42.072640517726541" lon="12.966497261077166">
        <ele>916.75</ele>
        <time>2017-06-12T10:03:40Z</time>
      </trkpt>
      <trkpt lat="42.072621574625373" lon="12.966501787304878">
        <ele>917.23999000000003</ele>
        <time>2017-06-12T10:03:42Z</time>
      </trkpt>
      <trkpt lat="42.072604140266776" lon="12.966504385694861">
        <ele>917.23999000000003</ele>
        <time>2017-06-12T10:03:44Z</time>
      </trkpt>
      <trkpt lat="42.072494588792324" lon="12.966498266905546">
        <ele>918.67999299999997</ele>
        <time>2017-06-12T10:03:56Z</time>
      </trkpt>
      <trkpt lat="42.072406075894833" lon="12.966477479785681">
        <ele>919.15997300000004</ele>
        <time>2017-06-12T10:04:08Z</time>
      </trkpt>
      <trkpt lat="42.072260230779648" lon="12.966454178094864">
        <ele>919.15997300000004</ele>
        <time>2017-06-12T10:04:22Z</time>
      </trkpt>
      <trkpt lat="42.072147578001022" lon="12.966408915817738">
        <ele>920.60003700000004</ele>
        <time>2017-06-12T10:04:35Z</time>
      </trkpt>
      <trkpt lat="42.072134586051106" lon="12.966397097334266">
        <ele>921.080017</ele>
        <time>2017-06-12T10:04:57Z</time>
      </trkpt>
      <trkpt lat="42.072099465876818" lon="12.966385362669826">
        <ele>922.04003899999998</ele>
        <time>2017-06-12T10:05:10Z</time>
      </trkpt>
      <trkpt lat="42.072080438956618" lon="12.966343788430095">
        <ele>922.51995799999997</ele>
        <time>2017-06-12T10:05:14Z</time>
      </trkpt>
      <trkpt lat="42.072074906900525" lon="12.966332137584686">
        <ele>922.51995799999997</ele>
        <time>2017-06-12T10:05:15Z</time>
      </trkpt>
      <trkpt lat="42.072069039568305" lon="12.966319061815739">
        <ele>922.51995799999997</ele>
        <time>2017-06-12T10:05:16Z</time>
      </trkpt>
      <trkpt lat="42.072060825303197" lon="12.96630498021841">
        <ele>922.51995799999997</ele>
        <time>2017-06-12T10:05:17Z</time>
      </trkpt>
      <trkpt lat="42.072052024304867" lon="12.966293664649129">
        <ele>922.51995799999997</ele>
        <time>2017-06-12T10:05:18Z</time>
      </trkpt>
      <trkpt lat="42.072041463106871" lon="12.966280924156308">
        <ele>922.51995799999997</ele>
        <time>2017-06-12T10:05:19Z</time>
      </trkpt>
      <trkpt lat="42.072031069546938" lon="12.966270698234439">
        <ele>922.51995799999997</ele>
        <time>2017-06-12T10:05:20Z</time>
      </trkpt>
      <trkpt lat="42.07202042452991" lon="12.966262400150299">
        <ele>922.51995799999997</ele>
        <time>2017-06-12T10:05:21Z</time>
      </trkpt>
      <trkpt lat="42.07190609537065" lon="12.96623214147985">
        <ele>923.47997999999995</ele>
        <time>2017-06-12T10:05:36Z</time>
      </trkpt>
      <trkpt lat="42.071904670447111" lon="12.966282935813069">
        <ele>923.47997999999995</ele>
        <time>2017-06-12T10:05:41Z</time>
      </trkpt>
      <trkpt lat="42.0719173271209" lon="12.966403132304549">
        <ele>923.47997999999995</ele>
        <time>2017-06-12T10:05:50Z</time>
      </trkpt>
      <trkpt lat="42.071934007108212" lon="12.966450238600373">
        <ele>923.95996100000002</ele>
        <time>2017-06-12T10:05:54Z</time>
      </trkpt>
      <trkpt lat="42.071984130889177" lon="12.966534560546279">
        <ele>923.95996100000002</ele>
        <time>2017-06-12T10:06:07Z</time>
      </trkpt>
      <trkpt lat="42.072026459500194" lon="12.966538835316896">
        <ele>924.93005400000004</ele>
        <time>2017-06-12T10:06:23Z</time>
      </trkpt>
      <trkpt lat="42.071993602439761" lon="12.966563059017062">
        <ele>923.95996100000002</ele>
        <time>2017-06-12T10:06:34Z</time>
      </trkpt>
      <trkpt lat="42.071910789236426" lon="12.966530118137598">
        <ele>923.47997999999995</ele>
        <time>2017-06-12T10:06:44Z</time>
      </trkpt>
      <trkpt lat="42.07189922221005" lon="12.966528777033091">
        <ele>923.47997999999995</ele>
        <time>2017-06-12T10:06:45Z</time>
      </trkpt>
      <trkpt lat="42.071812469512224" lon="12.966496758162975">
        <ele>922.04003899999998</ele>
        <time>2017-06-12T10:07:02Z</time>
      </trkpt>
      <trkpt lat="42.07169545814395" lon="12.966432804241776">
        <ele>919.15997300000004</ele>
        <time>2017-06-12T10:07:17Z</time>
      </trkpt>
      <trkpt lat="42.071529161185026" lon="12.966352002695203">
        <ele>916.75</ele>
        <time>2017-06-12T10:07:35Z</time>
      </trkpt>
      <trkpt lat="42.07150200381875" lon="12.966337334364653">
        <ele>916.75</ele>
        <time>2017-06-12T10:07:38Z</time>
      </trkpt>
      <trkpt lat="42.071466380730271" lon="12.966304058209062">
        <ele>917.71997099999999</ele>
        <time>2017-06-12T10:07:42Z</time>
      </trkpt>
      <trkpt lat="42.071439977735281" lon="12.966284109279513">
        <ele>916.27002000000005</ele>
        <time>2017-06-12T10:07:45Z</time>
      </trkpt>
      <trkpt lat="42.07139546982944" lon="12.966226860880852">
        <ele>915.30999799999995</ele>
        <time>2017-06-12T10:07:57Z</time>
      </trkpt>
      <trkpt lat="42.071392703801394" lon="12.966229291632771">
        <ele>915.30999799999995</ele>
        <time>2017-06-12T10:08:04Z</time>
      </trkpt>
      <trkpt lat="42.071379376575351" lon="12.966215712949634">
        <ele>915.30999799999995</ele>
        <time>2017-06-12T10:08:05Z</time>
      </trkpt>
      <trkpt lat="42.07136663608253" lon="12.96620624139905">
        <ele>915.30999799999995</ele>
        <time>2017-06-12T10:08:06Z</time>
      </trkpt>
      <trkpt lat="42.071351297199726" lon="12.966195596382022">
        <ele>915.30999799999995</ele>
        <time>2017-06-12T10:08:07Z</time>
      </trkpt>
      <trkpt lat="42.07133780233562" lon="12.966185119003057">
        <ele>915.30999799999995</ele>
        <time>2017-06-12T10:08:08Z</time>
      </trkpt>
      <trkpt lat="42.071327241137624" lon="12.966175898909569">
        <ele>914.82995600000004</ele>
        <time>2017-06-12T10:08:09Z</time>
      </trkpt>
      <trkpt lat="42.071292037144303" lon="12.966154273599386">
        <ele>914.34997599999997</ele>
        <time>2017-06-12T10:08:13Z</time>
      </trkpt>
      <trkpt lat="42.071257336065173" lon="12.966139102354646">
        <ele>913.38995399999999</ele>
        <time>2017-06-12T10:08:16Z</time>
      </trkpt>
      <trkpt lat="42.071172595024109" lon="12.966164834797382">
        <ele>911.95001200000002</ele>
        <time>2017-06-12T10:08:28Z</time>
      </trkpt>
      <trkpt lat="42.071144012734294" lon="12.966217640787363">
        <ele>911.47003199999995</ele>
        <time>2017-06-12T10:08:34Z</time>
      </trkpt>
      <trkpt lat="42.071139067411423" lon="12.966245636343956">
        <ele>910.98999000000003</ele>
        <time>2017-06-12T10:08:37Z</time>
      </trkpt>
      <trkpt lat="42.07114040851593" lon="12.966256868094206">
        <ele>910.51000999999997</ele>
        <time>2017-06-12T10:08:38Z</time>
      </trkpt>
      <trkpt lat="42.071141833439469" lon="12.966268938034773">
        <ele>910.51000999999997</ele>
        <time>2017-06-12T10:08:39Z</time>
      </trkpt>
      <trkpt lat="42.071144683286548" lon="12.966281427070498">
        <ele>910.51000999999997</ele>
        <time>2017-06-12T10:08:40Z</time>
      </trkpt>
      <trkpt lat="42.071147114038467" lon="12.966295089572668">
        <ele>910.51000999999997</ele>
        <time>2017-06-12T10:08:41Z</time>
      </trkpt>
      <trkpt lat="42.071150802075863" lon="12.966307662427425">
        <ele>910.51000999999997</ele>
        <time>2017-06-12T10:08:42Z</time>
      </trkpt>
      <trkpt lat="42.071222215890884" lon="12.966503882780671">
        <ele>909.05999799999995</ele>
        <time>2017-06-12T10:08:59Z</time>
      </trkpt>
      <trkpt lat="42.071256581693888" lon="12.966622486710548">
        <ele>907.61999500000002</ele>
        <time>2017-06-12T10:09:07Z</time>
      </trkpt>
      <trkpt lat="42.07126404158771" lon="12.966636903584003">
        <ele>907.61999500000002</ele>
        <time>2017-06-12T10:09:08Z</time>
      </trkpt>
      <trkpt lat="42.071350207552314" lon="12.966844690963626">
        <ele>905.21997099999999</ele>
        <time>2017-06-12T10:09:25Z</time>
      </trkpt>
      <trkpt lat="42.071414832025766" lon="12.967017693445086">
        <ele>903.77996800000005</ele>
        <time>2017-06-12T10:09:37Z</time>
      </trkpt>
      <trkpt lat="42.071437127888203" lon="12.96725339256227">
        <ele>901.84997599999997</ele>
        <time>2017-06-12T10:09:51Z</time>
      </trkpt>
      <trkpt lat="42.071417095139623" lon="12.967453887686133">
        <ele>899.45001200000002</ele>
        <time>2017-06-12T10:10:06Z</time>
      </trkpt>
      <trkpt lat="42.071305783465505" lon="12.967673493549228">
        <ele>897.53002900000001</ele>
        <time>2017-06-12T10:10:22Z</time>
      </trkpt>
      <trkpt lat="42.071229005232453" lon="12.967871222645044">
        <ele>894.64001499999995</ele>
        <time>2017-06-12T10:10:39Z</time>
      </trkpt>
      <trkpt lat="42.071181060746312" lon="12.968087140470743">
        <ele>892.71997099999999</ele>
        <time>2017-06-12T10:10:52Z</time>
      </trkpt>
      <trkpt lat="42.071168068796396" lon="12.968158135190606">
        <ele>892.23999000000003</ele>
        <time>2017-06-12T10:10:57Z</time>
      </trkpt>
      <trkpt lat="42.071160608902574" lon="12.968174563720822">
        <ele>892.23999000000003</ele>
        <time>2017-06-12T10:10:58Z</time>
      </trkpt>
      <trkpt lat="42.071153065189719" lon="12.968192417174578">
        <ele>892.23999000000003</ele>
        <time>2017-06-12T10:10:59Z</time>
      </trkpt>
      <trkpt lat="42.071146862581372" lon="12.968210941180587">
        <ele>892.23999000000003</ele>
        <time>2017-06-12T10:11:00Z</time>
      </trkpt>
      <trkpt lat="42.071143928915262" lon="12.968225190415978">
        <ele>892.23999000000003</ele>
        <time>2017-06-12T10:11:01Z</time>
      </trkpt>
      <trkpt lat="42.071141079068184" lon="12.96823600307107">
        <ele>892.23999000000003</ele>
        <time>2017-06-12T10:11:02Z</time>
      </trkpt>
      <trkpt lat="42.071120040491223" lon="12.968285959213972">
        <ele>891.75994900000001</ele>
        <time>2017-06-12T10:11:07Z</time>
      </trkpt>
      <trkpt lat="42.071108724921942" lon="12.968296771869063">
        <ele>891.75994900000001</ele>
        <time>2017-06-12T10:11:08Z</time>
      </trkpt>
      <trkpt lat="42.071095816791058" lon="12.968306578695774">
        <ele>891.75994900000001</ele>
        <time>2017-06-12T10:11:09Z</time>
      </trkpt>
      <trkpt lat="42.071081316098571" lon="12.968313116580248">
        <ele>891.75994900000001</ele>
        <time>2017-06-12T10:11:10Z</time>
      </trkpt>
      <trkpt lat="42.071065977215767" lon="12.968319235369563">
        <ele>891.75994900000001</ele>
        <time>2017-06-12T10:11:11Z</time>
      </trkpt>
      <trkpt lat="42.071050135418773" lon="12.96832543797791">
        <ele>891.75994900000001</ele>
        <time>2017-06-12T10:11:12Z</time>
      </trkpt>
      <trkpt lat="42.071034461259842" lon="12.968329880386591">
        <ele>891.27996800000005</ele>
        <time>2017-06-12T10:11:13Z</time>
      </trkpt>
      <trkpt lat="42.071017865091562" lon="12.968335663899779">
        <ele>891.27996800000005</ele>
        <time>2017-06-12T10:11:14Z</time>
      </trkpt>
      <trkpt lat="42.071000933647156" lon="12.968342201784253">
        <ele>891.27996800000005</ele>
        <time>2017-06-12T10:11:15Z</time>
      </trkpt>
      <trkpt lat="42.070986265316606" lon="12.968346308916807">
        <ele>891.27996800000005</ele>
        <time>2017-06-12T10:11:16Z</time>
      </trkpt>
      <trkpt lat="42.070976039394736" lon="12.968349829316139">
        <ele>891.27996800000005</ele>
        <time>2017-06-12T10:11:17Z</time>
      </trkpt>
      <trkpt lat="42.070845365524292" lon="12.968400372192264">
        <ele>889.84002699999996</ele>
        <time>2017-06-12T10:11:30Z</time>
      </trkpt>
      <trkpt lat="42.070718631148338" lon="12.968432810157537">
        <ele>887.910034</ele>
        <time>2017-06-12T10:11:42Z</time>
      </trkpt>
      <trkpt lat="42.070595836266875" lon="12.96854630112648">
        <ele>885.51000999999997</ele>
        <time>2017-06-12T10:11:57Z</time>
      </trkpt>
      <trkpt lat="42.070581000298262" lon="12.968589216470718">
        <ele>885.03002900000001</ele>
        <time>2017-06-12T10:12:03Z</time>
      </trkpt>
      <trkpt lat="42.070556860417128" lon="12.968632383272052">
        <ele>885.51000999999997</ele>
        <time>2017-06-12T10:12:15Z</time>
      </trkpt>
      <trkpt lat="42.070537498220801" lon="12.968793399631977">
        <ele>884.07000700000003</ele>
        <time>2017-06-12T10:12:27Z</time>
      </trkpt>
      <trkpt lat="42.070540515705943" lon="12.968815779313445">
        <ele>883.589966</ele>
        <time>2017-06-12T10:12:29Z</time>
      </trkpt>
      <trkpt lat="42.070581503212452" lon="12.968925582244992">
        <ele>883.589966</ele>
        <time>2017-06-12T10:12:40Z</time>
      </trkpt>
      <trkpt lat="42.070604888722301" lon="12.969059189781547">
        <ele>883.589966</ele>
        <time>2017-06-12T10:12:49Z</time>
      </trkpt>
      <trkpt lat="42.070598769932985" lon="12.969074109569192">
        <ele>883.589966</ele>
        <time>2017-06-12T10:12:50Z</time>
      </trkpt>
      <trkpt lat="42.070582089945674" lon="12.969137141481042">
        <ele>885.03002900000001</ele>
        <time>2017-06-12T10:12:56Z</time>
      </trkpt>
      <trkpt lat="42.070461558178067" lon="12.969259936362505">
        <ele>886.47003199999995</ele>
        <time>2017-06-12T10:13:11Z</time>
      </trkpt>
      <trkpt lat="42.070414703339338" lon="12.969396477565169">
        <ele>888.40002400000003</ele>
        <time>2017-06-12T10:13:25Z</time>
      </trkpt>
      <trkpt lat="42.070411937311292" lon="12.969536790624261">
        <ele>890.32000700000003</ele>
        <time>2017-06-12T10:13:38Z</time>
      </trkpt>
      <trkpt lat="42.070431215688586" lon="12.969649275764823">
        <ele>891.75994900000001</ele>
        <time>2017-06-12T10:13:52Z</time>
      </trkpt>
      <trkpt lat="42.070395424962044" lon="12.969805933535099">
        <ele>891.75994900000001</ele>
        <time>2017-06-12T10:14:03Z</time>
      </trkpt>
      <trkpt lat="42.07036248408258" lon="12.969965441152453">
        <ele>891.75994900000001</ele>
        <time>2017-06-12T10:14:15Z</time>
      </trkpt>
      <trkpt lat="42.070297189056873" lon="12.970121093094349">
        <ele>888.88000499999998</ele>
        <time>2017-06-12T10:14:31Z</time>
      </trkpt>
      <trkpt lat="42.07026768475771" lon="12.97013777308166">
        <ele>887.910034</ele>
        <time>2017-06-12T10:14:35Z</time>
      </trkpt>
      <trkpt lat="42.070206329226494" lon="12.970227794721723">
        <ele>886.47003199999995</ele>
        <time>2017-06-12T10:14:43Z</time>
      </trkpt>
      <trkpt lat="42.070191325619817" lon="12.970239361748099">
        <ele>886.47003199999995</ele>
        <time>2017-06-12T10:14:44Z</time>
      </trkpt>
      <trkpt lat="42.070177160203457" lon="12.970247324556112">
        <ele>886.47003199999995</ele>
        <time>2017-06-12T10:14:45Z</time>
      </trkpt>
      <trkpt lat="42.070164503529668" lon="12.970255790278316">
        <ele>886.47003199999995</ele>
        <time>2017-06-12T10:14:46Z</time>
      </trkpt>
      <trkpt lat="42.070157630369067" lon="12.970263417810202">
        <ele>886.47003199999995</ele>
        <time>2017-06-12T10:14:47Z</time>
      </trkpt>
      <trkpt lat="42.070140782743692" lon="12.97031806781888">
        <ele>886.47003199999995</ele>
        <time>2017-06-12T10:14:52Z</time>
      </trkpt>
      <trkpt lat="42.070135585963726" lon="12.970331897959113">
        <ele>886.47003199999995</ele>
        <time>2017-06-12T10:14:53Z</time>
      </trkpt>
      <trkpt lat="42.070131562650204" lon="12.970345141366124">
        <ele>886.47003199999995</ele>
        <time>2017-06-12T10:14:54Z</time>
      </trkpt>
      <trkpt lat="42.070120330899954" lon="12.970366179943085">
        <ele>886.47003199999995</ele>
        <time>2017-06-12T10:14:56Z</time>
      </trkpt>
      <trkpt lat="42.069999631494284" lon="12.970454441383481">
        <ele>885.98999000000003</ele>
        <time>2017-06-12T10:15:09Z</time>
      </trkpt>
      <trkpt lat="42.069894773885608" lon="12.970522502437234">
        <ele>885.98999000000003</ele>
        <time>2017-06-12T10:15:22Z</time>
      </trkpt>
      <trkpt lat="42.069831658154726" lon="12.970600873231888">
        <ele>885.98999000000003</ele>
        <time>2017-06-12T10:15:31Z</time>
      </trkpt>
      <trkpt lat="42.069761333987117" lon="12.970690559595823">
        <ele>885.98999000000003</ele>
        <time>2017-06-12T10:15:41Z</time>
      </trkpt>
      <trkpt lat="42.069665109738708" lon="12.970779659226537">
        <ele>884.54998799999998</ele>
        <time>2017-06-12T10:15:51Z</time>
      </trkpt>
      <trkpt lat="42.069560335949063" lon="12.970812432467937">
        <ele>882.63000499999998</ele>
        <time>2017-06-12T10:16:00Z</time>
      </trkpt>
      <trkpt lat="42.069549858570099" lon="12.970819221809506">
        <ele>881.67004399999996</ele>
        <time>2017-06-12T10:16:01Z</time>
      </trkpt>
      <trkpt lat="42.069541476666927" lon="12.970828609541059">
        <ele>881.67004399999996</ele>
        <time>2017-06-12T10:16:02Z</time>
      </trkpt>
      <trkpt lat="42.069536028429866" lon="12.970839589834213">
        <ele>881.67004399999996</ele>
        <time>2017-06-12T10:16:03Z</time>
      </trkpt>
      <trkpt lat="42.069532172754407" lon="12.970852078869939">
        <ele>881.67004399999996</ele>
        <time>2017-06-12T10:16:04Z</time>
      </trkpt>
      <trkpt lat="42.069511134177446" lon="12.970923911780119">
        <ele>880.71002199999998</ele>
        <time>2017-06-12T10:16:11Z</time>
      </trkpt>
      <trkpt lat="42.069493113085628" lon="12.970942603424191">
        <ele>880.71002199999998</ele>
        <time>2017-06-12T10:16:13Z</time>
      </trkpt>
      <trkpt lat="42.069457238540053" lon="12.971068834885955">
        <ele>879.25994900000001</ele>
        <time>2017-06-12T10:16:26Z</time>
      </trkpt>
      <trkpt lat="42.069357661530375" lon="12.971267066895962">
        <ele>875.90002400000003</ele>
        <time>2017-06-12T10:16:45Z</time>
      </trkpt>
      <trkpt lat="42.069335700944066" lon="12.971303528174758">
        <ele>875.90002400000003</ele>
        <time>2017-06-12T10:16:48Z</time>
      </trkpt>
      <trkpt lat="42.069324972108006" lon="12.971313837915659">
        <ele>875.419983</ele>
        <time>2017-06-12T10:16:49Z</time>
      </trkpt>
      <trkpt lat="42.069314997643232" lon="12.971324482932687">
        <ele>875.419983</ele>
        <time>2017-06-12T10:16:50Z</time>
      </trkpt>
      <trkpt lat="42.069304268807173" lon="12.971333032473922">
        <ele>875.419983</ele>
        <time>2017-06-12T10:16:51Z</time>
      </trkpt>
      <trkpt lat="42.069293791428208" lon="12.971339905634522">
        <ele>875.419983</ele>
        <time>2017-06-12T10:16:52Z</time>
      </trkpt>
      <trkpt lat="42.069268226623535" lon="12.971443505957723">
        <ele>874.45996100000002</ele>
        <time>2017-06-12T10:17:00Z</time>
      </trkpt>
      <trkpt lat="42.069258503615856" lon="12.971456833183765">
        <ele>874.45996100000002</ele>
        <time>2017-06-12T10:17:01Z</time>
      </trkpt>
      <trkpt lat="42.06924500875175" lon="12.97147368080914">
        <ele>874.45996100000002</ele>
        <time>2017-06-12T10:17:02Z</time>
      </trkpt>
      <trkpt lat="42.069233022630215" lon="12.971488097682595">
        <ele>873.97997999999995</ele>
        <time>2017-06-12T10:17:03Z</time>
      </trkpt>
      <trkpt lat="42.069221874698997" lon="12.971503436565399">
        <ele>873.97997999999995</ele>
        <time>2017-06-12T10:17:04Z</time>
      </trkpt>
      <trkpt lat="42.069165464490652" lon="12.971686162054539">
        <ele>873.5</ele>
        <time>2017-06-12T10:17:17Z</time>
      </trkpt>
      <trkpt lat="42.069119196385145" lon="12.971758833155036">
        <ele>873.5</ele>
        <time>2017-06-12T10:17:24Z</time>
      </trkpt>
      <trkpt lat="42.069103438407183" lon="12.971764365211129">
        <ele>873.5</ele>
        <time>2017-06-12T10:17:25Z</time>
      </trkpt>
      <trkpt lat="42.06908717751503" lon="12.971771489828825">
        <ele>873.5</ele>
        <time>2017-06-12T10:17:26Z</time>
      </trkpt>
      <trkpt lat="42.069073095917702" lon="12.971780961379409">
        <ele>873.5</ele>
        <time>2017-06-12T10:17:27Z</time>
      </trkpt>
      <trkpt lat="42.069062367081642" lon="12.971788924187422">
        <ele>873.5</ele>
        <time>2017-06-12T10:17:28Z</time>
      </trkpt>
      <trkpt lat="42.069053566083312" lon="12.971796886995435">
        <ele>873.01000999999997</ele>
        <time>2017-06-12T10:17:29Z</time>
      </trkpt>
      <trkpt lat="42.068968992680311" lon="12.971871234476566">
        <ele>872.53002900000001</ele>
        <time>2017-06-12T10:17:42Z</time>
      </trkpt>
      <trkpt lat="42.06895038485527" lon="12.971894619986415">
        <ele>871.089966</ele>
        <time>2017-06-12T10:17:46Z</time>
      </trkpt>
      <trkpt lat="42.068939907476306" lon="12.97189679928124">
        <ele>871.089966</ele>
        <time>2017-06-12T10:17:47Z</time>
      </trkpt>
      <trkpt lat="42.068874780088663" lon="12.971893865615129">
        <ele>870.60998500000005</ele>
        <time>2017-06-12T10:17:52Z</time>
      </trkpt>
      <trkpt lat="42.068862039595842" lon="12.97189436852932">
        <ele>870.13000499999998</ele>
        <time>2017-06-12T10:17:53Z</time>
      </trkpt>
      <trkpt lat="42.068838989362121" lon="12.971924459561706">
        <ele>869.64996299999996</ele>
        <time>2017-06-12T10:17:58Z</time>
      </trkpt>
      <trkpt lat="42.06883161328733" lon="12.971935691311955">
        <ele>869.64996299999996</ele>
        <time>2017-06-12T10:17:59Z</time>
      </trkpt>
      <trkpt lat="42.068821638822556" lon="12.9719471745193">
        <ele>869.64996299999996</ele>
        <time>2017-06-12T10:18:00Z</time>
      </trkpt>
      <trkpt lat="42.068808982148767" lon="12.971953963860869">
        <ele>868.68994099999998</ele>
        <time>2017-06-12T10:18:01Z</time>
      </trkpt>
      <trkpt lat="42.06879741512239" lon="12.971956562250853">
        <ele>868.68994099999998</ele>
        <time>2017-06-12T10:18:02Z</time>
      </trkpt>
      <trkpt lat="42.068787189200521" lon="12.971963435411453">
        <ele>868.68994099999998</ele>
        <time>2017-06-12T10:18:03Z</time>
      </trkpt>
      <trkpt lat="42.068780986592174" lon="12.971971230581403">
        <ele>868.21002199999998</ele>
        <time>2017-06-12T10:18:04Z</time>
      </trkpt>
      <trkpt lat="42.068741759285331" lon="12.972025126218796">
        <ele>865.80004899999994</ele>
        <time>2017-06-12T10:18:16Z</time>
      </trkpt>
      <trkpt lat="42.068692641332746" lon="12.972045829519629">
        <ele>864.84002699999996</ele>
        <time>2017-06-12T10:18:21Z</time>
      </trkpt>
      <trkpt lat="42.068676464259624" lon="12.972048260271549">
        <ele>864.84002699999996</ele>
        <time>2017-06-12T10:18:22Z</time>
      </trkpt>
      <trkpt lat="42.068661209195852" lon="12.972045661881566">
        <ele>864.84002699999996</ele>
        <time>2017-06-12T10:18:23Z</time>
      </trkpt>
      <trkpt lat="42.068646876141429" lon="12.97204339876771">
        <ele>864.84002699999996</ele>
        <time>2017-06-12T10:18:24Z</time>
      </trkpt>
      <trkpt lat="42.068632040172815" lon="12.972041806206107">
        <ele>864.84002699999996</ele>
        <time>2017-06-12T10:18:25Z</time>
      </trkpt>
      <trkpt lat="42.068618796765804" lon="12.972041806206107">
        <ele>864.84002699999996</ele>
        <time>2017-06-12T10:18:26Z</time>
      </trkpt>
      <trkpt lat="42.068604212254286" lon="12.9720404651016">
        <ele>864.84002699999996</ele>
        <time>2017-06-12T10:18:27Z</time>
      </trkpt>
      <trkpt lat="42.068592309951782" lon="12.972039794549346">
        <ele>864.84002699999996</ele>
        <time>2017-06-12T10:18:28Z</time>
      </trkpt>
      <trkpt lat="42.068581329658628" lon="12.972038788720965">
        <ele>864.84002699999996</ele>
        <time>2017-06-12T10:18:29Z</time>
      </trkpt>
      <trkpt lat="42.068546125665307" lon="12.972034430131316">
        <ele>864.84002699999996</ele>
        <time>2017-06-12T10:18:33Z</time>
      </trkpt>
      <trkpt lat="42.068530200049281" lon="12.972033591940999">
        <ele>864.84002699999996</ele>
        <time>2017-06-12T10:18:34Z</time>
      </trkpt>
      <trkpt lat="42.06851745955646" lon="12.972033424302936">
        <ele>864.84002699999996</ele>
        <time>2017-06-12T10:18:35Z</time>
      </trkpt>
      <trkpt lat="42.068504132330418" lon="12.97203560359776">
        <ele>864.84002699999996</ele>
        <time>2017-06-12T10:18:36Z</time>
      </trkpt>
      <trkpt lat="42.068452835083008" lon="12.972045578062534">
        <ele>864.35998500000005</ele>
        <time>2017-06-12T10:18:46Z</time>
      </trkpt>
      <trkpt lat="42.068397430703044" lon="12.972069215029478">
        <ele>863.88000499999998</ele>
        <time>2017-06-12T10:18:59Z</time>
      </trkpt>
      <trkpt lat="42.068325681611896" lon="12.972079860046506">
        <ele>862.44000200000005</ele>
        <time>2017-06-12T10:19:08Z</time>
      </trkpt>
      <trkpt lat="42.068316964432597" lon="12.972085224464536">
        <ele>861.95996100000002</ele>
        <time>2017-06-12T10:19:09Z</time>
      </trkpt>
      <trkpt lat="42.068305732682347" lon="12.972087236121297">
        <ele>861.95996100000002</ele>
        <time>2017-06-12T10:19:10Z</time>
      </trkpt>
      <trkpt lat="42.068179836496711" lon="12.972072064876556">
        <ele>859.56005900000002</ele>
        <time>2017-06-12T10:19:23Z</time>
      </trkpt>
      <trkpt lat="42.068088138476014" lon="12.97209176234901">
        <ele>857.63000499999998</ele>
        <time>2017-06-12T10:19:37Z</time>
      </trkpt>
      <trkpt lat="42.068050839006901" lon="12.972100395709276">
        <ele>856.67004399999996</ele>
        <time>2017-06-12T10:19:41Z</time>
      </trkpt>
      <trkpt lat="42.067964840680361" lon="12.972103664651513">
        <ele>854.75</ele>
        <time>2017-06-12T10:19:52Z</time>
      </trkpt>
      <trkpt lat="42.067951261997223" lon="12.972097713500261">
        <ele>854.27002000000005</ele>
        <time>2017-06-12T10:19:53Z</time>
      </trkpt>
      <trkpt lat="42.067915806546807" lon="12.97209033742547">
        <ele>854.27002000000005</ele>
        <time>2017-06-12T10:19:56Z</time>
      </trkpt>
      <trkpt lat="42.067855121567845" lon="12.972077177837491">
        <ele>852.34997599999997</ele>
        <time>2017-06-12T10:20:07Z</time>
      </trkpt>
      <trkpt lat="42.067788736894727" lon="12.972059911116958">
        <ele>851.38000499999998</ele>
        <time>2017-06-12T10:20:22Z</time>
      </trkpt>
      <trkpt lat="42.067779013887048" lon="12.972057312726974">
        <ele>851.38000499999998</ele>
        <time>2017-06-12T10:20:23Z</time>
      </trkpt>
      <trkpt lat="42.067683627828956" lon="12.972086230292916">
        <ele>849.94000200000005</ele>
        <time>2017-06-12T10:20:35Z</time>
      </trkpt>
      <trkpt lat="42.067557061091065" lon="12.972120512276888">
        <ele>847.06005900000002</ele>
        <time>2017-06-12T10:20:50Z</time>
      </trkpt>
      <trkpt lat="42.067519929260015" lon="12.972146915271878">
        <ele>846.10003700000004</ele>
        <time>2017-06-12T10:21:00Z</time>
      </trkpt>
      <trkpt lat="42.067479025572538" lon="12.972136437892914">
        <ele>846.10003700000004</ele>
        <time>2017-06-12T10:21:07Z</time>
      </trkpt>
      <trkpt lat="42.067389171570539" lon="12.972092013806105">
        <ele>845.14001499999995</ele>
        <time>2017-06-12T10:21:17Z</time>
      </trkpt>
      <trkpt lat="42.067351033911109" lon="12.972084637731314">
        <ele>845.14001499999995</ele>
        <time>2017-06-12T10:21:22Z</time>
      </trkpt>
      <trkpt lat="42.067337622866035" lon="12.972084218636155">
        <ele>845.14001499999995</ele>
        <time>2017-06-12T10:21:23Z</time>
      </trkpt>
      <trkpt lat="42.067322535440326" lon="12.972082877531648">
        <ele>844.17999299999997</ele>
        <time>2017-06-12T10:21:24Z</time>
      </trkpt>
      <trkpt lat="42.067162692546844" lon="12.972057061269879">
        <ele>842.73004200000003</ele>
        <time>2017-06-12T10:21:38Z</time>
      </trkpt>
      <trkpt lat="42.067136541008949" lon="12.972071478143334">
        <ele>842.73004200000003</ele>
        <time>2017-06-12T10:21:49Z</time>
      </trkpt>
      <trkpt lat="42.067138217389584" lon="12.972078938037157">
        <ele>842.73004200000003</ele>
        <time>2017-06-12T10:21:50Z</time>
      </trkpt>
      <trkpt lat="42.067169481888413" lon="12.972141802310944">
        <ele>841.77002000000005</ele>
        <time>2017-06-12T10:21:57Z</time>
      </trkpt>
      <trkpt lat="42.067193705588579" lon="12.972252694889903">
        <ele>841.77002000000005</ele>
        <time>2017-06-12T10:22:11Z</time>
      </trkpt>
      <trkpt lat="42.067217007279396" lon="12.972300807014108">
        <ele>840.80999799999995</ele>
        <time>2017-06-12T10:22:16Z</time>
      </trkpt>
      <trkpt lat="42.067253300920129" lon="12.972479425370693">
        <ele>839.36999500000002</ele>
        <time>2017-06-12T10:22:30Z</time>
      </trkpt>
      <trkpt lat="42.067258665338159" lon="12.972573805600405">
        <ele>837.44995100000006</ele>
        <time>2017-06-12T10:22:38Z</time>
      </trkpt>
      <trkpt lat="42.067292360588908" lon="12.972707664594054">
        <ele>834.080017</ele>
        <time>2017-06-12T10:22:52Z</time>
      </trkpt>
      <trkpt lat="42.067327732220292" lon="12.97282861545682">
        <ele>831.20001200000002</ele>
        <time>2017-06-12T10:23:03Z</time>
      </trkpt>
      <trkpt lat="42.067396882921457" lon="12.972932802513242">
        <ele>828.78997800000002</ele>
        <time>2017-06-12T10:23:16Z</time>
      </trkpt>
      <trkpt lat="42.067434182390571" lon="12.972990721464157">
        <ele>828.30999799999995</ele>
        <time>2017-06-12T10:23:23Z</time>
      </trkpt>
      <trkpt lat="42.067474583163857" lon="12.973089711740613">
        <ele>825.43005400000004</ele>
        <time>2017-06-12T10:23:35Z</time>
      </trkpt>
      <trkpt lat="42.067534932866693" lon="12.973248716443777">
        <ele>822.06005900000002</ele>
        <time>2017-06-12T10:23:49Z</time>
      </trkpt>
      <trkpt lat="42.067584218457341" lon="12.973371092230082">
        <ele>819.17999299999997</ele>
        <time>2017-06-12T10:24:02Z</time>
      </trkpt>
      <trkpt lat="42.067624116316438" lon="12.97352347522974">
        <ele>816.77996800000005</ele>
        <time>2017-06-12T10:24:16Z</time>
      </trkpt>
      <trkpt lat="42.067670384421945" lon="12.973693795502186">
        <ele>814.36999500000002</ele>
        <time>2017-06-12T10:24:29Z</time>
      </trkpt>
      <trkpt lat="42.067690165713429" lon="12.973750540986657">
        <ele>813.88995399999999</ele>
        <time>2017-06-12T10:24:34Z</time>
      </trkpt>
      <trkpt lat="42.067645993083715" lon="12.973892614245415">
        <ele>811.97003199999995</ele>
        <time>2017-06-12T10:24:49Z</time>
      </trkpt>
      <trkpt lat="42.067641634494066" lon="12.973931171000004">
        <ele>811.01000999999997</ele>
        <time>2017-06-12T10:24:52Z</time>
      </trkpt>
      <trkpt lat="42.067737439647317" lon="12.974034938961267">
        <ele>808.60998500000005</ele>
        <time>2017-06-12T10:25:08Z</time>
      </trkpt>
      <trkpt lat="42.067774571478367" lon="12.974101826548576">
        <ele>808.60998500000005</ele>
        <time>2017-06-12T10:25:14Z</time>
      </trkpt>
      <trkpt lat="42.067751940339804" lon="12.974178269505501">
        <ele>808.60998500000005</ele>
        <time>2017-06-12T10:25:21Z</time>
      </trkpt>
      <trkpt lat="42.067668540403247" lon="12.974334675818682">
        <ele>808.13000499999998</ele>
        <time>2017-06-12T10:25:35Z</time>
      </trkpt>
      <trkpt lat="42.067586481571198" lon="12.974525028839707">
        <ele>808.13000499999998</ele>
        <time>2017-06-12T10:25:50Z</time>
      </trkpt>
      <trkpt lat="42.06751624122262" lon="12.974661067128181">
        <ele>806.67999299999997</ele>
        <time>2017-06-12T10:26:02Z</time>
      </trkpt>
      <trkpt lat="42.067487491294742" lon="12.974714040756226">
        <ele>806.67999299999997</ele>
        <time>2017-06-12T10:26:08Z</time>
      </trkpt>
      <trkpt lat="42.067387159913778" lon="12.974859215319157">
        <ele>805.23999000000003</ele>
        <time>2017-06-12T10:26:22Z</time>
      </trkpt>
      <trkpt lat="42.06727048382163" lon="12.975038085132837">
        <ele>803.79998799999998</ele>
        <time>2017-06-12T10:26:37Z</time>
      </trkpt>
      <trkpt lat="42.067179121077061" lon="12.975222989916801">
        <ele>802.36004600000001</ele>
        <time>2017-06-12T10:26:52Z</time>
      </trkpt>
      <trkpt lat="42.067098319530487" lon="12.975382665172219">
        <ele>799.47003199999995</ele>
        <time>2017-06-12T10:27:06Z</time>
      </trkpt>
      <trkpt lat="42.067016428336501" lon="12.975540161132813">
        <ele>797.07000700000003</ele>
        <time>2017-06-12T10:27:21Z</time>
      </trkpt>
      <trkpt lat="42.067010561004281" lon="12.975557008758187">
        <ele>796.589966</ele>
        <time>2017-06-12T10:27:23Z</time>
      </trkpt>
      <trkpt lat="42.066994803026319" lon="12.975613418966532">
        <ele>796.589966</ele>
        <time>2017-06-12T10:27:27Z</time>
      </trkpt>
      <trkpt lat="42.066895812749863" lon="12.975811315700412">
        <ele>795.14996299999996</ele>
        <time>2017-06-12T10:27:43Z</time>
      </trkpt>
      <trkpt lat="42.06687368452549" lon="12.975854063406587">
        <ele>794.19006300000001</ele>
        <time>2017-06-12T10:27:47Z</time>
      </trkpt>
      <trkpt lat="42.066866140812635" lon="12.975882980972528">
        <ele>794.19006300000001</ele>
        <time>2017-06-12T10:27:49Z</time>
      </trkpt>
      <trkpt lat="42.066838312894106" lon="12.976054977625608">
        <ele>792.26000999999997</ele>
        <time>2017-06-12T10:28:01Z</time>
      </trkpt>
      <trkpt lat="42.066811406984925" lon="12.976124379783869">
        <ele>792.26000999999997</ele>
        <time>2017-06-12T10:28:06Z</time>
      </trkpt>
      <trkpt lat="42.066782740876079" lon="12.976204762235284">
        <ele>791.77996800000005</ele>
        <time>2017-06-12T10:28:12Z</time>
      </trkpt>
      <trkpt lat="42.066766982898116" lon="12.976248599588871">
        <ele>791.77996800000005</ele>
        <time>2017-06-12T10:28:15Z</time>
      </trkpt>
      <trkpt lat="42.066721636801958" lon="12.976322025060654">
        <ele>791.29998799999998</ele>
        <time>2017-06-12T10:28:22Z</time>
      </trkpt>
      <trkpt lat="42.066673524677753" lon="12.976484885439277">
        <ele>789.86004600000001</ele>
        <time>2017-06-12T10:28:35Z</time>
      </trkpt>
      <trkpt lat="42.066584173589945" lon="12.976635927334428">
        <ele>789.86004600000001</ele>
        <time>2017-06-12T10:28:48Z</time>
      </trkpt>
      <trkpt lat="42.066550897434354" lon="12.976706335321069">
        <ele>788.90002400000003</ele>
        <time>2017-06-12T10:28:57Z</time>
      </trkpt>
      <trkpt lat="42.066501695662737" lon="12.976790321990848">
        <ele>787.46002199999998</ele>
        <time>2017-06-12T10:29:06Z</time>
      </trkpt>
      <trkpt lat="42.066391808912158" lon="12.976918984204531">
        <ele>785.04998799999998</ele>
        <time>2017-06-12T10:29:22Z</time>
      </trkpt>
      <trkpt lat="42.06634595990181" lon="12.977015459910035">
        <ele>785.04998799999998</ele>
        <time>2017-06-12T10:29:35Z</time>
      </trkpt>
      <trkpt lat="42.066279323771596" lon="12.977153928950429">
        <ele>782.64996299999996</ele>
        <time>2017-06-12T10:29:48Z</time>
      </trkpt>
      <trkpt lat="42.066257782280445" lon="12.97721017152071">
        <ele>782.64996299999996</ele>
        <time>2017-06-12T10:30:00Z</time>
      </trkpt>
      <trkpt lat="42.066222159191966" lon="12.977297930046916">
        <ele>782.64996299999996</ele>
        <time>2017-06-12T10:30:13Z</time>
      </trkpt>
      <trkpt lat="42.066199192777276" lon="12.97731033526361">
        <ele>782.64996299999996</ele>
        <time>2017-06-12T10:30:16Z</time>
      </trkpt>
      <trkpt lat="42.066142363473773" lon="12.977317459881306">
        <ele>782.64996299999996</ele>
        <time>2017-06-12T10:30:21Z</time>
      </trkpt>
      <trkpt lat="42.066013533622026" lon="12.97738803550601">
        <ele>782.169983</ele>
        <time>2017-06-12T10:30:35Z</time>
      </trkpt>
      <trkpt lat="42.065929630771279" lon="12.977490462362766">
        <ele>781.69006300000001</ele>
        <time>2017-06-12T10:30:48Z</time>
      </trkpt>
      <trkpt lat="42.065900964662433" lon="12.977544525638223">
        <ele>778.31994599999996</ele>
        <time>2017-06-12T10:30:53Z</time>
      </trkpt>
      <trkpt lat="42.065894762054086" lon="12.977554081007838">
        <ele>781.20996100000002</ele>
        <time>2017-06-12T10:30:54Z</time>
      </trkpt>
      <trkpt lat="42.065888475626707" lon="12.97756539657712">
        <ele>781.20996100000002</ele>
        <time>2017-06-12T10:30:55Z</time>
      </trkpt>
      <trkpt lat="42.065865928307176" lon="12.977595236152411">
        <ele>779.77002000000005</ele>
        <time>2017-06-12T10:30:58Z</time>
      </trkpt>
      <trkpt lat="42.065743301063776" lon="12.977729262784123">
        <ele>777.36004600000001</ele>
        <time>2017-06-12T10:31:14Z</time>
      </trkpt>
      <trkpt lat="42.065634168684483" lon="12.977878041565418">
        <ele>774</ele>
        <time>2017-06-12T10:31:30Z</time>
      </trkpt>
      <trkpt lat="42.065558983013034" lon="12.977961106225848">
        <ele>772.07995600000004</ele>
        <time>2017-06-12T10:31:46Z</time>
      </trkpt>
      <trkpt lat="42.065556216984987" lon="12.977965213358402">
        <ele>772.07995600000004</ele>
        <time>2017-06-12T10:31:47Z</time>
      </trkpt>
      <trkpt lat="42.065542219206691" lon="12.977984491735697">
        <ele>772.07995600000004</ele>
        <time>2017-06-12T10:31:49Z</time>
      </trkpt>
      <trkpt lat="42.06542101688683" lon="12.978175766766071">
        <ele>771.10998500000005</ele>
        <time>2017-06-12T10:32:05Z</time>
      </trkpt>
      <trkpt lat="42.06528908573091" lon="12.978322533890605">
        <ele>769.669983</ele>
        <time>2017-06-12T10:32:18Z</time>
      </trkpt>
      <trkpt lat="42.065170481801033" lon="12.978488160297275">
        <ele>768.70996100000002</ele>
        <time>2017-06-12T10:32:32Z</time>
      </trkpt>
      <trkpt lat="42.065118094906211" lon="12.978577259927988">
        <ele>767.75</ele>
        <time>2017-06-12T10:32:40Z</time>
      </trkpt>
      <trkpt lat="42.065031761303544" lon="12.978675160557032">
        <ele>766.79003899999998</ele>
        <time>2017-06-12T10:32:54Z</time>
      </trkpt>
      <trkpt lat="42.064936961978674" lon="12.978836679831147">
        <ele>764.39001499999995</ele>
        <time>2017-06-12T10:33:08Z</time>
      </trkpt>
      <trkpt lat="42.064860519021749" lon="12.978941034525633">
        <ele>761.5</ele>
        <time>2017-06-12T10:33:19Z</time>
      </trkpt>
      <trkpt lat="42.06474375911057" lon="12.979052765294909">
        <ele>759.57995600000004</ele>
        <time>2017-06-12T10:33:33Z</time>
      </trkpt>
      <trkpt lat="42.064727079123259" lon="12.979051927104592">
        <ele>759.57995600000004</ele>
        <time>2017-06-12T10:33:35Z</time>
      </trkpt>
      <trkpt lat="42.064581988379359" lon="12.979127783328295">
        <ele>759.57995600000004</ele>
        <time>2017-06-12T10:33:49Z</time>
      </trkpt>
      <trkpt lat="42.06457226537168" lon="12.979132728651166">
        <ele>759.57995600000004</ele>
        <time>2017-06-12T10:33:51Z</time>
      </trkpt>
      <trkpt lat="42.064437232911587" lon="12.979237670078874">
        <ele>759.57995600000004</ele>
        <time>2017-06-12T10:34:05Z</time>
      </trkpt>
      <trkpt lat="42.064332878217101" lon="12.979359710589051">
        <ele>759.10003700000004</ele>
        <time>2017-06-12T10:34:18Z</time>
      </trkpt>
      <trkpt lat="42.064229696989059" lon="12.979501783847809">
        <ele>759.10003700000004</ele>
        <time>2017-06-12T10:34:31Z</time>
      </trkpt>
      <trkpt lat="42.064142189919949" lon="12.979655424132943">
        <ele>758.61993399999994</ele>
        <time>2017-06-12T10:34:45Z</time>
      </trkpt>
      <trkpt lat="42.064083516597748" lon="12.979844184592366">
        <ele>758.61993399999994</ele>
        <time>2017-06-12T10:34:59Z</time>
      </trkpt>
      <trkpt lat="42.064050910994411" lon="12.980001680552959">
        <ele>758.14001499999995</ele>
        <time>2017-06-12T10:35:11Z</time>
      </trkpt>
      <trkpt lat="42.064051162451506" lon="12.980084996670485">
        <ele>757.660034</ele>
        <time>2017-06-12T10:35:16Z</time>
      </trkpt>
      <trkpt lat="42.064013779163361" lon="12.980311140418053">
        <ele>757.660034</ele>
        <time>2017-06-12T10:35:32Z</time>
      </trkpt>
      <trkpt lat="42.063971618190408" lon="12.980530075728893">
        <ele>757.17999299999997</ele>
        <time>2017-06-12T10:35:46Z</time>
      </trkpt>
      <trkpt lat="42.063925685361028" lon="12.980722524225712">
        <ele>757.17999299999997</ele>
        <time>2017-06-12T10:35:59Z</time>
      </trkpt>
      <trkpt lat="42.063912190496922" lon="12.980903070420027">
        <ele>757.17999299999997</ele>
        <time>2017-06-12T10:36:12Z</time>
      </trkpt>
      <trkpt lat="42.063904898241162" lon="12.980957301333547">
        <ele>757.17999299999997</ele>
        <time>2017-06-12T10:36:16Z</time>
      </trkpt>
      <trkpt lat="42.063881931826472" lon="12.981207333505154">
        <ele>757.17999299999997</ele>
        <time>2017-06-12T10:36:32Z</time>
      </trkpt>
      <trkpt lat="42.063879417255521" lon="12.981225186958909">
        <ele>757.17999299999997</ele>
        <time>2017-06-12T10:36:34Z</time>
      </trkpt>
      <trkpt lat="42.063851589336991" lon="12.981472034007311">
        <ele>758.14001499999995</ele>
        <time>2017-06-12T10:36:50Z</time>
      </trkpt>
      <trkpt lat="42.063838010653853" lon="12.981687113642693">
        <ele>758.14001499999995</ele>
        <time>2017-06-12T10:37:04Z</time>
      </trkpt>
      <trkpt lat="42.063831640407443" lon="12.981741260737181">
        <ele>758.61993399999994</ele>
        <time>2017-06-12T10:37:08Z</time>
      </trkpt>
      <trkpt lat="42.063833232969046" lon="12.981807561591268">
        <ele>758.14001499999995</ele>
        <time>2017-06-12T10:37:12Z</time>
      </trkpt>
      <trkpt lat="42.063836418092251" lon="12.982031861320138">
        <ele>758.14001499999995</ele>
        <time>2017-06-12T10:37:26Z</time>
      </trkpt>
      <trkpt lat="42.063834238797426" lon="12.982084415853024">
        <ele>758.14001499999995</ele>
        <time>2017-06-12T10:37:30Z</time>
      </trkpt>
      <trkpt lat="42.063839938491583" lon="12.982149040326476">
        <ele>758.14001499999995</ele>
        <time>2017-06-12T10:37:34Z</time>
      </trkpt>
      <trkpt lat="42.063850332051516" lon="12.982366215437651">
        <ele>758.14001499999995</ele>
        <time>2017-06-12T10:37:49Z</time>
      </trkpt>
      <trkpt lat="42.063855361193419" lon="12.982561178505421">
        <ele>758.61993399999994</ele>
        <time>2017-06-12T10:38:02Z</time>
      </trkpt>
      <trkpt lat="42.063848739489913" lon="12.982822777703404">
        <ele>758.61993399999994</ele>
        <time>2017-06-12T10:38:18Z</time>
      </trkpt>
      <trkpt lat="42.063851421698928" lon="12.982889665290713">
        <ele>757.17999299999997</ele>
        <time>2017-06-12T10:38:22Z</time>
      </trkpt>
      <trkpt lat="42.063886374235153" lon="12.983140535652637">
        <ele>755.73004200000003</ele>
        <time>2017-06-12T10:38:39Z</time>
      </trkpt>
      <trkpt lat="42.063983520492911" lon="12.983353519812226">
        <ele>753.80999799999995</ele>
        <time>2017-06-12T10:38:53Z</time>
      </trkpt>
      <trkpt lat="42.064103800803423" lon="12.983541861176491">
        <ele>753.330017</ele>
        <time>2017-06-12T10:39:09Z</time>
      </trkpt>
      <trkpt lat="42.064190721139312" lon="12.983661806210876">
        <ele>754.29003899999998</ele>
        <time>2017-06-12T10:39:21Z</time>
      </trkpt>
      <trkpt lat="42.064239168539643" lon="12.983668763190508">
        <ele>754.29003899999998</ele>
        <time>2017-06-12T10:39:25Z</time>
      </trkpt>
      <trkpt lat="42.064359365031123" lon="12.983743362128735">
        <ele>754.29003899999998</ele>
        <time>2017-06-12T10:39:37Z</time>
      </trkpt>
      <trkpt lat="42.06437386572361" lon="12.983840592205524">
        <ele>754.29003899999998</ele>
        <time>2017-06-12T10:39:42Z</time>
      </trkpt>
      <trkpt lat="42.064314940944314" lon="12.984022395685315">
        <ele>755.25</ele>
        <time>2017-06-12T10:39:54Z</time>
      </trkpt>
      <trkpt lat="42.064184602349997" lon="12.984171928837895">
        <ele>756.20996100000002</ele>
        <time>2017-06-12T10:40:07Z</time>
      </trkpt>
      <trkpt lat="42.064031632617116" lon="12.984276534989476">
        <ele>756.69006300000001</ele>
        <time>2017-06-12T10:40:23Z</time>
      </trkpt>
      <trkpt lat="42.063903640955687" lon="12.984336297959089">
        <ele>758.14001499999995</ele>
        <time>2017-06-12T10:40:36Z</time>
      </trkpt>
      <trkpt lat="42.063766596838832" lon="12.984402934089303">
        <ele>759.57995600000004</ele>
        <time>2017-06-12T10:40:50Z</time>
      </trkpt>
      <trkpt lat="42.063668863847852" lon="12.984467223286629">
        <ele>760.53997800000002</ele>
        <time>2017-06-12T10:41:02Z</time>
      </trkpt>
      <trkpt lat="42.063572891056538" lon="12.984514161944389">
        <ele>761.01995799999997</ele>
        <time>2017-06-12T10:41:14Z</time>
      </trkpt>
      <trkpt lat="42.063481360673904" lon="12.984586162492633">
        <ele>761.5</ele>
        <time>2017-06-12T10:41:26Z</time>
      </trkpt>
      <trkpt lat="42.063437858596444" lon="12.984625138342381">
        <ele>761.5</ele>
        <time>2017-06-12T10:41:32Z</time>
      </trkpt>
      <trkpt lat="42.063401229679585" lon="12.984661683440208">
        <ele>761.97997999999995</ele>
        <time>2017-06-12T10:41:36Z</time>
      </trkpt>
      <trkpt lat="42.063296958804131" lon="12.984770061448216">
        <ele>762.94000200000005</ele>
        <time>2017-06-12T10:41:49Z</time>
      </trkpt>
      <trkpt lat="42.063264604657888" lon="12.984814820811152">
        <ele>762.94000200000005</ele>
        <time>2017-06-12T10:41:54Z</time>
      </trkpt>
      <trkpt lat="42.063182881101966" lon="12.984926886856556">
        <ele>763.90002400000003</ele>
        <time>2017-06-12T10:42:07Z</time>
      </trkpt>
      <trkpt lat="42.063136026263237" lon="12.985033001750708">
        <ele>764.86999500000002</ele>
        <time>2017-06-12T10:42:17Z</time>
      </trkpt>
      <trkpt lat="42.063089171424508" lon="12.985152024775743">
        <ele>765.830017</ele>
        <time>2017-06-12T10:42:29Z</time>
      </trkpt>
      <trkpt lat="42.063044412061572" lon="12.98518655821681">
        <ele>765.830017</ele>
        <time>2017-06-12T10:42:45Z</time>
      </trkpt>
      <trkpt lat="42.063023373484612" lon="12.985184462741017">
        <ele>765.830017</ele>
        <time>2017-06-12T10:42:58Z</time>
      </trkpt>
      <trkpt lat="42.063013818114996" lon="12.985273310914636">
        <ele>765.830017</ele>
        <time>2017-06-12T10:43:08Z</time>
      </trkpt>
      <trkpt lat="42.063023624941707" lon="12.985217235982418">
        <ele>765.830017</ele>
        <time>2017-06-12T10:43:19Z</time>
      </trkpt>
      <trkpt lat="42.063022870570421" lon="12.985203489661217">
        <ele>765.830017</ele>
        <time>2017-06-12T10:43:20Z</time>
      </trkpt>
      <trkpt lat="42.063024882227182" lon="12.985176164656878">
        <ele>765.830017</ele>
        <time>2017-06-12T10:43:23Z</time>
      </trkpt>
      <trkpt lat="42.063028402626514" lon="12.985157808288932">
        <ele>765.830017</ele>
        <time>2017-06-12T10:43:24Z</time>
      </trkpt>
      <trkpt lat="42.063029827550054" lon="12.985145570710301">
        <ele>765.830017</ele>
        <time>2017-06-12T10:43:25Z</time>
      </trkpt>
      <trkpt lat="42.063044076785445" lon="12.985158059746027">
        <ele>765.34997599999997</ele>
        <time>2017-06-12T10:43:38Z</time>
      </trkpt>
      <trkpt lat="42.063039634376764" lon="12.985139116644859">
        <ele>765.34997599999997</ele>
        <time>2017-06-12T10:44:09Z</time>
      </trkpt>
      <trkpt lat="42.063023038208485" lon="12.985143475234509">
        <ele>765.34997599999997</ele>
        <time>2017-06-12T10:44:40Z</time>
      </trkpt>
      <trkpt lat="42.063040724024177" lon="12.985149510204792">
        <ele>765.34997599999997</ele>
        <time>2017-06-12T10:45:08Z</time>
      </trkpt>
      <trkpt lat="42.063038712367415" lon="12.985152024775743">
        <ele>764.39001499999995</ele>
        <time>2017-06-12T10:45:35Z</time>
      </trkpt>
      <trkpt lat="42.06303452141583" lon="12.985155377537012">
        <ele>763.90002400000003</ele>
        <time>2017-06-12T10:45:56Z</time>
      </trkpt>
      <trkpt lat="42.063038880005479" lon="12.985163340345025">
        <ele>763.90002400000003</ele>
        <time>2017-06-12T10:46:31Z</time>
      </trkpt>
      <trkpt lat="42.063036365434527" lon="12.985164765268564">
        <ele>763.90002400000003</ele>
        <time>2017-06-12T10:47:05Z</time>
      </trkpt>
      <trkpt lat="42.06305312924087" lon="12.985141715034842">
        <ele>763.90002400000003</ele>
        <time>2017-06-12T10:47:26Z</time>
      </trkpt>
      <trkpt lat="42.063062265515327" lon="12.985144816339016">
        <ele>763.90002400000003</ele>
        <time>2017-06-12T10:47:27Z</time>
      </trkpt>
      <trkpt lat="42.063065702095628" lon="12.985157808288932">
        <ele>763.90002400000003</ele>
        <time>2017-06-12T10:47:28Z</time>
      </trkpt>
      <trkpt lat="42.063048183917999" lon="12.985185803845525">
        <ele>763.90002400000003</ele>
        <time>2017-06-12T10:47:40Z</time>
      </trkpt>
      <trkpt lat="42.063038712367415" lon="12.985200807452202">
        <ele>763.90002400000003</ele>
        <time>2017-06-12T10:48:20Z</time>
      </trkpt>
      <trkpt lat="42.063037119805813" lon="12.985193431377411">
        <ele>763.90002400000003</ele>
        <time>2017-06-12T10:48:43Z</time>
      </trkpt>
      <trkpt lat="42.063037371262908" lon="12.985186139121652">
        <ele>763.90002400000003</ele>
        <time>2017-06-12T10:49:17Z</time>
      </trkpt>
      <trkpt lat="42.063044663518667" lon="12.98519971780479">
        <ele>763.419983</ele>
        <time>2017-06-12T10:49:33Z</time>
      </trkpt>
      <trkpt lat="42.063036533072591" lon="12.985252691432834">
        <ele>763.419983</ele>
        <time>2017-06-12T10:49:37Z</time>
      </trkpt>
      <trkpt lat="42.062997305765748" lon="12.985454192385077">
        <ele>763.419983</ele>
        <time>2017-06-12T10:49:52Z</time>
      </trkpt>
      <trkpt lat="42.062928909435868" lon="12.985622165724635">
        <ele>761.97997999999995</ele>
        <time>2017-06-12T10:50:05Z</time>
      </trkpt>
      <trkpt lat="42.062865123152733" lon="12.985701290890574">
        <ele>760.53997800000002</ele>
        <time>2017-06-12T10:50:13Z</time>
      </trkpt>
      <trkpt lat="42.062846263870597" lon="12.985717384144664">
        <ele>760.53997800000002</ele>
        <time>2017-06-12T10:50:16Z</time>
      </trkpt>
      <trkpt lat="42.06271106377244" lon="12.985865576192737">
        <ele>759.10003700000004</ele>
        <time>2017-06-12T10:50:32Z</time>
      </trkpt>
      <trkpt lat="42.062596064060926" lon="12.986006559804082">
        <ele>756.69006300000001</ele>
        <time>2017-06-12T10:50:46Z</time>
      </trkpt>
      <trkpt lat="42.062464719638228" lon="12.986141089349985">
        <ele>755.25</ele>
        <time>2017-06-12T10:51:00Z</time>
      </trkpt>
      <trkpt lat="42.062354162335396" lon="12.986277462914586">
        <ele>753.330017</ele>
        <time>2017-06-12T10:51:14Z</time>
      </trkpt>
      <trkpt lat="42.062226003035903" lon="12.986416686326265">
        <ele>752.36999500000002</ele>
        <time>2017-06-12T10:51:28Z</time>
      </trkpt>
      <trkpt lat="42.062077224254608" lon="12.986529171466827">
        <ele>750.92999299999997</ele>
        <time>2017-06-12T10:51:43Z</time>
      </trkpt>
      <trkpt lat="42.061926769092679" lon="12.986637130379677">
        <ele>748.51995799999997</ele>
        <time>2017-06-12T10:51:57Z</time>
      </trkpt>
      <trkpt lat="42.061910089105368" lon="12.986657582223415">
        <ele>748.03997800000002</ele>
        <time>2017-06-12T10:52:00Z</time>
      </trkpt>
      <trkpt lat="42.061780085787177" lon="12.986825639382005">
        <ele>746.11999500000002</ele>
        <time>2017-06-12T10:52:15Z</time>
      </trkpt>
      <trkpt lat="42.061683861538768" lon="12.98698715865612">
        <ele>743.72003199999995</ele>
        <time>2017-06-12T10:52:29Z</time>
      </trkpt>
      <trkpt lat="42.061676234006882" lon="12.98699839040637">
        <ele>743.23999000000003</ele>
        <time>2017-06-12T10:52:32Z</time>
      </trkpt>
      <trkpt lat="42.061614459380507" lon="12.987246327102184">
        <ele>739.86999500000002</ele>
        <time>2017-06-12T10:52:50Z</time>
      </trkpt>
      <trkpt lat="42.061621332541108" lon="12.987284632399678">
        <ele>739.39001499999995</ele>
        <time>2017-06-12T10:52:54Z</time>
      </trkpt>
      <trkpt lat="42.061597779393196" lon="12.987488899379969">
        <ele>736.51000999999997</ele>
        <time>2017-06-12T10:53:08Z</time>
      </trkpt>
      <trkpt lat="42.061541033908725" lon="12.987695261836052">
        <ele>733.61999500000002</ele>
        <time>2017-06-12T10:53:22Z</time>
      </trkpt>
      <trkpt lat="42.061464926227927" lon="12.987922662869096">
        <ele>731.70001200000002</ele>
        <time>2017-06-12T10:53:37Z</time>
      </trkpt>
      <trkpt lat="42.061384879052639" lon="12.988155428320169">
        <ele>729.77996800000005</ele>
        <time>2017-06-12T10:53:52Z</time>
      </trkpt>
      <trkpt lat="42.061293181031942" lon="12.98842809163034">
        <ele>727.86004600000001</ele>
        <time>2017-06-12T10:54:08Z</time>
      </trkpt>
      <trkpt lat="42.061242386698723" lon="12.98863822594285">
        <ele>726.40997300000004</ele>
        <time>2017-06-12T10:54:22Z</time>
      </trkpt>
      <trkpt lat="42.06120852380991" lon="12.988827070221305">
        <ele>724.96997099999999</ele>
        <time>2017-06-12T10:54:36Z</time>
      </trkpt>
      <trkpt lat="42.061141803860664" lon="12.989126890897751">
        <ele>723.53002900000001</ele>
        <time>2017-06-12T10:54:53Z</time>
      </trkpt>
      <trkpt lat="42.061138367280364" lon="12.98916201107204">
        <ele>723.53002900000001</ele>
        <time>2017-06-12T10:54:55Z</time>
      </trkpt>
      <trkpt lat="42.061141300946474" lon="12.989180199801922">
        <ele>723.53002900000001</ele>
        <time>2017-06-12T10:54:56Z</time>
      </trkpt>
      <trkpt lat="42.061143731698394" lon="12.989200567826629">
        <ele>723.53002900000001</ele>
        <time>2017-06-12T10:54:57Z</time>
      </trkpt>
      <trkpt lat="42.061136439442635" lon="12.989458059892058">
        <ele>721.60998500000005</ele>
        <time>2017-06-12T10:55:13Z</time>
      </trkpt>
      <trkpt lat="42.061091009527445" lon="12.989670122042298">
        <ele>720.160034</ele>
        <time>2017-06-12T10:55:28Z</time>
      </trkpt>
      <trkpt lat="42.06104482524097" lon="12.989962482824922">
        <ele>718.23999000000003</ele>
        <time>2017-06-12T10:55:46Z</time>
      </trkpt>
      <trkpt lat="42.061046333983541" lon="12.99006650224328">
        <ele>716.79998799999998</ele>
        <time>2017-06-12T10:55:52Z</time>
      </trkpt>
      <trkpt lat="42.061052117496729" lon="12.990253586322069">
        <ele>714.40002400000003</ele>
        <time>2017-06-12T10:56:04Z</time>
      </trkpt>
      <trkpt lat="42.061050105839968" lon="12.99026976339519">
        <ele>714.40002400000003</ele>
        <time>2017-06-12T10:56:05Z</time>
      </trkpt>
      <trkpt lat="42.06104876473546" lon="12.990287533029914">
        <ele>713.92004399999996</ele>
        <time>2017-06-12T10:56:06Z</time>
      </trkpt>
      <trkpt lat="42.061024121940136" lon="12.99052088521421">
        <ele>711.99005099999999</ele>
        <time>2017-06-12T10:56:21Z</time>
      </trkpt>
      <trkpt lat="42.061019595712423" lon="12.990558268502355">
        <ele>711.51000999999997</ele>
        <time>2017-06-12T10:56:23Z</time>
      </trkpt>
      <trkpt lat="42.061014482751489" lon="12.990575535222888">
        <ele>711.51000999999997</ele>
        <time>2017-06-12T10:56:24Z</time>
      </trkpt>
      <trkpt lat="42.060986403375864" lon="12.990696234628558">
        <ele>710.54998799999998</ele>
        <time>2017-06-12T10:56:34Z</time>
      </trkpt>
      <trkpt lat="42.06097106449306" lon="12.990810899063945">
        <ele>709.59002699999996</ele>
        <time>2017-06-12T10:56:42Z</time>
      </trkpt>
      <trkpt lat="42.060966705903411" lon="12.990827159956098">
        <ele>708.63000499999998</ele>
        <time>2017-06-12T10:56:43Z</time>
      </trkpt>
      <trkpt lat="42.060927227139473" lon="12.990997396409512">
        <ele>707.669983</ele>
        <time>2017-06-12T10:56:55Z</time>
      </trkpt>
      <trkpt lat="42.060925969853997" lon="12.991018015891314">
        <ele>707.669983</ele>
        <time>2017-06-12T10:56:56Z</time>
      </trkpt>
      <trkpt lat="42.060923036187887" lon="12.991035114973783">
        <ele>707.669983</ele>
        <time>2017-06-12T10:56:57Z</time>
      </trkpt>
      <trkpt lat="42.060918007045984" lon="12.991056237369776">
        <ele>707.19000200000005</ele>
        <time>2017-06-12T10:56:58Z</time>
      </trkpt>
      <trkpt lat="42.060911720618606" lon="12.991072917357087">
        <ele>707.19000200000005</ele>
        <time>2017-06-12T10:56:59Z</time>
      </trkpt>
      <trkpt lat="42.060906691476703" lon="12.991086579859257">
        <ele>707.19000200000005</ele>
        <time>2017-06-12T10:57:00Z</time>
      </trkpt>
      <trkpt lat="42.060900740325451" lon="12.991103678941727">
        <ele>707.19000200000005</ele>
        <time>2017-06-12T10:57:01Z</time>
      </trkpt>
      <trkpt lat="42.060895208269358" lon="12.991124214604497">
        <ele>706.70996100000002</ele>
        <time>2017-06-12T10:57:02Z</time>
      </trkpt>
      <trkpt lat="42.060887580737472" lon="12.99114583991468">
        <ele>706.70996100000002</ele>
        <time>2017-06-12T10:57:03Z</time>
      </trkpt>
      <trkpt lat="42.060880539938807" lon="12.99116151407361">
        <ele>706.70996100000002</ele>
        <time>2017-06-12T10:57:04Z</time>
      </trkpt>
      <trkpt lat="42.06083619967103" lon="12.991302665323019">
        <ele>704.77996800000005</ele>
        <time>2017-06-12T10:57:14Z</time>
      </trkpt>
      <trkpt lat="42.060831170529127" lon="12.991320434957743">
        <ele>704.29998799999998</ele>
        <time>2017-06-12T10:57:15Z</time>
      </trkpt>
      <trkpt lat="42.060825806111097" lon="12.991335019469261">
        <ele>704.29998799999998</ele>
        <time>2017-06-12T10:57:16Z</time>
      </trkpt>
      <trkpt lat="42.060755314305425" lon="12.991574238985777">
        <ele>702.37994400000002</ele>
        <time>2017-06-12T10:57:32Z</time>
      </trkpt>
      <trkpt lat="42.060651127249002" lon="12.991778505966067">
        <ele>699.97997999999995</ele>
        <time>2017-06-12T10:57:46Z</time>
      </trkpt>
      <trkpt lat="42.060568230226636" lon="12.992008505389094">
        <ele>697.57000700000003</ele>
        <time>2017-06-12T10:58:01Z</time>
      </trkpt>
      <trkpt lat="42.060532439500093" lon="12.992181675508618">
        <ele>696.60998500000005</ele>
        <time>2017-06-12T10:58:15Z</time>
      </trkpt>
      <trkpt lat="42.06052883528173" lon="12.99219936132431">
        <ele>696.60998500000005</ele>
        <time>2017-06-12T10:58:16Z</time>
      </trkpt>
      <trkpt lat="42.060476532205939" lon="12.992343530058861">
        <ele>695.64996299999996</ele>
        <time>2017-06-12T10:58:25Z</time>
      </trkpt>
      <trkpt lat="42.060473514720798" lon="12.992359958589077">
        <ele>695.64996299999996</ele>
        <time>2017-06-12T10:58:26Z</time>
      </trkpt>
      <trkpt lat="42.060468904674053" lon="12.992377476766706">
        <ele>695.169983</ele>
        <time>2017-06-12T10:58:27Z</time>
      </trkpt>
      <trkpt lat="42.060465971007943" lon="12.992398766800761">
        <ele>695.169983</ele>
        <time>2017-06-12T10:58:28Z</time>
      </trkpt>
      <trkpt lat="42.060463121160865" lon="12.992418128997087">
        <ele>695.169983</ele>
        <time>2017-06-12T10:58:29Z</time>
      </trkpt>
      <trkpt lat="42.060383912175894" lon="12.992622228339314">
        <ele>694.20996100000002</ele>
        <time>2017-06-12T10:58:44Z</time>
      </trkpt>
      <trkpt lat="42.060332866385579" lon="12.992873685434461">
        <ele>692.29003899999998</ele>
        <time>2017-06-12T10:59:00Z</time>
      </trkpt>
      <trkpt lat="42.060274109244347" lon="12.993122125044465">
        <ele>691.330017</ele>
        <time>2017-06-12T10:59:15Z</time>
      </trkpt>
      <trkpt lat="42.060244772583246" lon="12.993214158341289">
        <ele>690.839966</ele>
        <time>2017-06-12T10:59:21Z</time>
      </trkpt>
      <trkpt lat="42.060235887765884" lon="12.993230922147632">
        <ele>690.839966</ele>
        <time>2017-06-12T10:59:22Z</time>
      </trkpt>
      <trkpt lat="42.06022784113884" lon="12.993246763944626">
        <ele>690.839966</ele>
        <time>2017-06-12T10:59:23Z</time>
      </trkpt>
      <trkpt lat="42.060122983530164" lon="12.993500400334597">
        <ele>688.92004399999996</ele>
        <time>2017-06-12T10:59:39Z</time>
      </trkpt>
      <trkpt lat="42.060016365721822" lon="12.993822935968637">
        <ele>688.44000200000005</ele>
        <time>2017-06-12T10:59:58Z</time>
      </trkpt>
      <trkpt lat="42.059971522539854" lon="12.994071627035737">
        <ele>687</ele>
        <time>2017-06-12T11:00:14Z</time>
      </trkpt>
      <trkpt lat="42.059953920543194" lon="12.994128204882145">
        <ele>686.52002000000005</ele>
        <time>2017-06-12T11:00:17Z</time>
      </trkpt>
      <trkpt lat="42.059952663257718" lon="12.994146561250091">
        <ele>686.52002000000005</ele>
        <time>2017-06-12T11:00:18Z</time>
      </trkpt>
      <trkpt lat="42.059950567781925" lon="12.994166510179639">
        <ele>686.52002000000005</ele>
        <time>2017-06-12T11:00:19Z</time>
      </trkpt>
      <trkpt lat="42.059910586103797" lon="12.994404388591647">
        <ele>685.07995600000004</ele>
        <time>2017-06-12T11:00:35Z</time>
      </trkpt>
      <trkpt lat="42.059902707114816" lon="12.994415201246738">
        <ele>685.07995600000004</ele>
        <time>2017-06-12T11:00:36Z</time>
      </trkpt>
      <trkpt lat="42.059897007420659" lon="12.994429785758257">
        <ele>685.07995600000004</ele>
        <time>2017-06-12T11:00:37Z</time>
      </trkpt>
      <trkpt lat="42.059894409030676" lon="12.994443029165268">
        <ele>685.07995600000004</ele>
        <time>2017-06-12T11:00:38Z</time>
      </trkpt>
      <trkpt lat="42.059880327433348" lon="12.994680237025023">
        <ele>684.12005599999998</ele>
        <time>2017-06-12T11:00:53Z</time>
      </trkpt>
      <trkpt lat="42.059806734323502" lon="12.994980560615659">
        <ele>682.19000200000005</ele>
        <time>2017-06-12T11:01:10Z</time>
      </trkpt>
      <trkpt lat="42.059757532551885" lon="12.995230508968234">
        <ele>681.70996100000002</ele>
        <time>2017-06-12T11:01:26Z</time>
      </trkpt>
      <trkpt lat="42.059723837301135" lon="12.99546729773283">
        <ele>680.27002000000005</ele>
        <time>2017-06-12T11:01:41Z</time>
      </trkpt>
      <trkpt lat="42.059738002717495" lon="12.995731830596924">
        <ele>678.830017</ele>
        <time>2017-06-12T11:01:57Z</time>
      </trkpt>
      <trkpt lat="42.059730878099799" lon="12.995957471430302">
        <ele>678.35003700000004</ele>
        <time>2017-06-12T11:02:12Z</time>
      </trkpt>
      <trkpt lat="42.059708666056395" lon="12.996216891333461">
        <ele>676.90997300000004</ele>
        <time>2017-06-12T11:02:28Z</time>
      </trkpt>
      <trkpt lat="42.059660218656063" lon="12.996441693976521">
        <ele>675.94000200000005</ele>
        <time>2017-06-12T11:02:43Z</time>
      </trkpt>
      <trkpt lat="42.059632558375597" lon="12.996564824134111">
        <ele>675.46002199999998</ele>
        <time>2017-06-12T11:02:49Z</time>
      </trkpt>
      <trkpt lat="42.05962928943336" lon="12.996581420302391">
        <ele>675.46002199999998</ele>
        <time>2017-06-12T11:02:50Z</time>
      </trkpt>
      <trkpt lat="42.059588385745883" lon="12.996861794963479">
        <ele>674.97997999999995</ele>
        <time>2017-06-12T11:03:06Z</time>
      </trkpt>
      <trkpt lat="42.05957505851984" lon="12.997114509344101">
        <ele>673.53997800000002</ele>
        <time>2017-06-12T11:03:22Z</time>
      </trkpt>
      <trkpt lat="42.059569358825684" lon="12.997132362797856">
        <ele>673.53997800000002</ele>
        <time>2017-06-12T11:03:23Z</time>
      </trkpt>
      <trkpt lat="42.059567933902144" lon="12.997150886803865">
        <ele>673.53997800000002</ele>
        <time>2017-06-12T11:03:24Z</time>
      </trkpt>
      <trkpt lat="42.059571705758572" lon="12.997489012777805">
        <ele>673.05999799999995</ele>
        <time>2017-06-12T11:03:44Z</time>
      </trkpt>
      <trkpt lat="42.059613196179271" lon="12.997729489579797">
        <ele>672.57995600000004</ele>
        <time>2017-06-12T11:03:59Z</time>
      </trkpt>
      <trkpt lat="42.059595594182611" lon="12.997780535370111">
        <ele>672.57995600000004</ele>
        <time>2017-06-12T11:04:15Z</time>
      </trkpt>
      <trkpt lat="42.059586960822344" lon="12.997785480692983">
        <ele>672.57995600000004</ele>
        <time>2017-06-12T11:04:16Z</time>
      </trkpt>
      <trkpt lat="42.059571705758572" lon="12.99778682179749">
        <ele>672.57995600000004</ele>
        <time>2017-06-12T11:04:17Z</time>
      </trkpt>
      <trkpt lat="42.05955452285707" lon="12.997782379388809">
        <ele>672.57995600000004</ele>
        <time>2017-06-12T11:04:18Z</time>
      </trkpt>
      <trkpt lat="42.059543374925852" lon="12.997769303619862">
        <ele>672.57995600000004</ele>
        <time>2017-06-12T11:04:19Z</time>
      </trkpt>
      <trkpt lat="42.059537675231695" lon="12.997756227850914">
        <ele>672.57995600000004</ele>
        <time>2017-06-12T11:04:20Z</time>
      </trkpt>
      <trkpt lat="42.059529460966587" lon="12.997746001929045">
        <ele>672.57995600000004</ele>
        <time>2017-06-12T11:04:21Z</time>
      </trkpt>
      <trkpt lat="42.05952032469213" lon="12.997733596712351">
        <ele>672.57995600000004</ele>
        <time>2017-06-12T11:04:22Z</time>
      </trkpt>
      <trkpt lat="42.05950859002769" lon="12.99772135913372">
        <ele>672.57995600000004</ele>
        <time>2017-06-12T11:04:23Z</time>
      </trkpt>
      <trkpt lat="42.059497777372599" lon="12.997710462659597">
        <ele>672.57995600000004</ele>
        <time>2017-06-12T11:04:24Z</time>
      </trkpt>
      <trkpt lat="42.059487886726856" lon="12.997698979452252">
        <ele>672.57995600000004</ele>
        <time>2017-06-12T11:04:25Z</time>
      </trkpt>
      <trkpt lat="42.059476738795638" lon="12.997686238959432">
        <ele>672.57995600000004</ele>
        <time>2017-06-12T11:04:26Z</time>
      </trkpt>
      <trkpt lat="42.059467937797308" lon="12.997673163190484">
        <ele>672.57995600000004</ele>
        <time>2017-06-12T11:04:27Z</time>
      </trkpt>
      <trkpt lat="42.059447905048728" lon="12.997587416321039">
        <ele>672.57995600000004</ele>
        <time>2017-06-12T11:04:42Z</time>
      </trkpt>
      <trkpt lat="42.059457711875439" lon="12.997580878436565">
        <ele>672.09997599999997</ele>
        <time>2017-06-12T11:05:05Z</time>
      </trkpt>
      <trkpt lat="42.059457460418344" lon="12.997571993619204">
        <ele>672.09997599999997</ele>
        <time>2017-06-12T11:05:35Z</time>
      </trkpt>
      <trkpt lat="42.059454191476107" lon="12.997587416321039">
        <ele>672.09997599999997</ele>
        <time>2017-06-12T11:06:05Z</time>
      </trkpt>
      <trkpt lat="42.059458298608661" lon="12.997550703585148">
        <ele>672.09997599999997</ele>
        <time>2017-06-12T11:06:26Z</time>
      </trkpt>
      <trkpt lat="42.059456203132868" lon="12.997550116851926">
        <ele>671.62005599999998</ele>
        <time>2017-06-12T11:07:06Z</time>
      </trkpt>
      <trkpt lat="42.059434661641717" lon="12.997568976134062">
        <ele>671.62005599999998</ele>
        <time>2017-06-12T11:07:26Z</time>
      </trkpt>
      <trkpt lat="42.059421334415674" lon="12.997603677213192">
        <ele>671.62005599999998</ele>
        <time>2017-06-12T11:07:50Z</time>
      </trkpt>
      <trkpt lat="42.059465004131198" lon="12.997658830136061">
        <ele>671.62005599999998</ele>
        <time>2017-06-12T11:08:01Z</time>
      </trkpt>
      <trkpt lat="42.059491239488125" lon="12.997683808207512">
        <ele>671.62005599999998</ele>
        <time>2017-06-12T11:08:04Z</time>
      </trkpt>
      <trkpt lat="42.059500962495804" lon="12.997699230909348">
        <ele>671.62005599999998</ele>
        <time>2017-06-12T11:08:05Z</time>
      </trkpt>
      <trkpt lat="42.059509512037039" lon="12.997713731601834">
        <ele>671.62005599999998</ele>
        <time>2017-06-12T11:08:06Z</time>
      </trkpt>
      <trkpt lat="42.059519402682781" lon="12.997727813199162">
        <ele>671.62005599999998</ele>
        <time>2017-06-12T11:08:07Z</time>
      </trkpt>
      <trkpt lat="42.059618560597301" lon="12.997828060761094">
        <ele>671.13995399999999</ele>
        <time>2017-06-12T11:08:17Z</time>
      </trkpt>
      <trkpt lat="42.059630211442709" lon="12.997834933921695">
        <ele>671.13995399999999</ele>
        <time>2017-06-12T11:08:18Z</time>
      </trkpt>
      <trkpt lat="42.059663236141205" lon="12.997867204248905">
        <ele>671.13995399999999</ele>
        <time>2017-06-12T11:08:23Z</time>
      </trkpt>
      <trkpt lat="42.05967421643436" lon="12.997879777103662">
        <ele>670.660034</ele>
        <time>2017-06-12T11:08:24Z</time>
      </trkpt>
      <trkpt lat="42.059686034917831" lon="12.997891176491976">
        <ele>670.660034</ele>
        <time>2017-06-12T11:08:25Z</time>
      </trkpt>
      <trkpt lat="42.059694835916162" lon="12.997899139299989">
        <ele>670.660034</ele>
        <time>2017-06-12T11:08:26Z</time>
      </trkpt>
      <trkpt lat="42.059704558923841" lon="12.997909616678953">
        <ele>670.660034</ele>
        <time>2017-06-12T11:08:27Z</time>
      </trkpt>
      <trkpt lat="42.059852164238691" lon="12.998008439317346">
        <ele>670.660034</ele>
        <time>2017-06-12T11:08:42Z</time>
      </trkpt>
      <trkpt lat="42.059884183108807" lon="12.998013971373439">
        <ele>670.660034</ele>
        <time>2017-06-12T11:08:45Z</time>
      </trkpt>
      <trkpt lat="42.060076715424657" lon="12.998164594173431">
        <ele>670.17999299999997</ele>
        <time>2017-06-12T11:09:04Z</time>
      </trkpt>
      <trkpt lat="42.060244688764215" lon="12.998268781229854">
        <ele>669.70001200000002</ele>
        <time>2017-06-12T11:09:19Z</time>
      </trkpt>
      <trkpt lat="42.060419786721468" lon="12.998397862538695">
        <ele>669.70001200000002</ele>
        <time>2017-06-12T11:09:35Z</time>
      </trkpt>
      <trkpt lat="42.060587340965867" lon="12.998518561944366">
        <ele>669.22003199999995</ele>
        <time>2017-06-12T11:09:52Z</time>
      </trkpt>
      <trkpt lat="42.060668477788568" lon="12.998568769544363">
        <ele>669.22003199999995</ele>
        <time>2017-06-12T11:09:59Z</time>
      </trkpt>
      <trkpt lat="42.060682559385896" lon="12.998573966324329">
        <ele>669.22003199999995</ele>
        <time>2017-06-12T11:10:00Z</time>
      </trkpt>
      <trkpt lat="42.060697060078382" lon="12.998582767322659">
        <ele>669.22003199999995</ele>
        <time>2017-06-12T11:10:01Z</time>
      </trkpt>
      <trkpt lat="42.06082253716886" lon="12.99867756664753">
        <ele>669.22003199999995</ele>
        <time>2017-06-12T11:10:14Z</time>
      </trkpt>
      <trkpt lat="42.060999060049653" lon="12.998835984617472">
        <ele>669.22003199999995</ele>
        <time>2017-06-12T11:10:30Z</time>
      </trkpt>
      <trkpt lat="42.061010878533125" lon="12.998845539987087">
        <ele>669.22003199999995</ele>
        <time>2017-06-12T11:10:31Z</time>
      </trkpt>
      <trkpt lat="42.061167117208242" lon="12.998970011249185">
        <ele>668.72997999999995</ele>
        <time>2017-06-12T11:10:46Z</time>
      </trkpt>
      <trkpt lat="42.061191089451313" lon="12.998994737863541">
        <ele>668.72997999999995</ele>
        <time>2017-06-12T11:10:48Z</time>
      </trkpt>
      <trkpt lat="42.061256216838956" lon="12.999030193313956">
        <ele>668.24993900000004</ele>
        <time>2017-06-12T11:10:55Z</time>
      </trkpt>
      <trkpt lat="42.061270885169506" lon="12.999025918543339">
        <ele>668.24993900000004</ele>
        <time>2017-06-12T11:10:56Z</time>
      </trkpt>
      <trkpt lat="42.061282619833946" lon="12.999028768390417">
        <ele>668.24993900000004</ele>
        <time>2017-06-12T11:10:57Z</time>
      </trkpt>
      <trkpt lat="42.061293767765164" lon="12.999033378437161">
        <ele>668.24993900000004</ele>
        <time>2017-06-12T11:10:58Z</time>
      </trkpt>
      <trkpt lat="42.061395104974508" lon="12.999083502218127">
        <ele>667.29003899999998</ele>
        <time>2017-06-12T11:11:13Z</time>
      </trkpt>
      <trkpt lat="42.061462327837944" lon="12.999065816402435">
        <ele>666.80999799999995</ele>
        <time>2017-06-12T11:11:26Z</time>
      </trkpt>
      <trkpt lat="42.061538938432932" lon="12.998942602425814">
        <ele>666.80999799999995</ele>
        <time>2017-06-12T11:11:51Z</time>
      </trkpt>
      <trkpt lat="42.061518402770162" lon="12.999007310718298">
        <ele>666.80999799999995</ele>
        <time>2017-06-12T11:12:08Z</time>
      </trkpt>
      <trkpt lat="42.061459477990866" lon="12.99904209561646">
        <ele>666.80999799999995</ele>
        <time>2017-06-12T11:12:14Z</time>
      </trkpt>
      <trkpt lat="42.061448665335774" lon="12.999046538025141">
        <ele>666.80999799999995</ele>
        <time>2017-06-12T11:12:15Z</time>
      </trkpt>
      <trkpt lat="42.061436092481017" lon="12.999052740633488">
        <ele>666.80999799999995</ele>
        <time>2017-06-12T11:12:16Z</time>
      </trkpt>
      <trkpt lat="42.061470374464989" lon="12.998967077583075">
        <ele>666.330017</ele>
        <time>2017-06-12T11:12:41Z</time>
      </trkpt>
      <trkpt lat="42.061587637290359" lon="12.998950984328985">
        <ele>665.36999500000002</ele>
        <time>2017-06-12T11:13:10Z</time>
      </trkpt>
      <trkpt lat="42.061573136597872" lon="12.998968586325645">
        <ele>665.85003700000004</ele>
        <time>2017-06-12T11:13:12Z</time>
      </trkpt>
      <trkpt lat="42.061412539333105" lon="12.999037317931652">
        <ele>666.80999799999995</ele>
        <time>2017-06-12T11:49:53Z</time>
      </trkpt>
      <trkpt lat="42.061426620930433" lon="12.999075287953019">
        <ele>666.80999799999995</ele>
        <time>2017-06-12T11:50:13Z</time>
      </trkpt>
      <trkpt lat="42.061435086652637" lon="12.999089201912284">
        <ele>666.80999799999995</ele>
        <time>2017-06-12T11:50:41Z</time>
      </trkpt>
      <trkpt lat="42.061417484655976" lon="12.999117281287909">
        <ele>666.80999799999995</ele>
        <time>2017-06-12T11:51:03Z</time>
      </trkpt>
      <trkpt lat="42.061416478827596" lon="12.999103534966707">
        <ele>668.24993900000004</ele>
        <time>2017-06-12T11:51:28Z</time>
      </trkpt>
      <trkpt lat="42.061414299532771" lon="12.999100768938661">
        <ele>668.24993900000004</ele>
        <time>2017-06-12T11:51:55Z</time>
      </trkpt>
      <trkpt lat="42.061423603445292" lon="12.999050980433822">
        <ele>667.77002000000005</ele>
        <time>2017-06-12T11:52:19Z</time>
      </trkpt>
      <trkpt lat="42.061404827982187" lon="12.999098002910614">
        <ele>667.77002000000005</ele>
        <time>2017-06-12T11:52:37Z</time>
      </trkpt>
      <trkpt lat="42.061412371695042" lon="12.999075707048178">
        <ele>667.77002000000005</ele>
        <time>2017-06-12T11:52:52Z</time>
      </trkpt>
      <trkpt lat="42.061439864337444" lon="12.999089537188411">
        <ele>667.77002000000005</ele>
        <time>2017-06-12T11:53:09Z</time>
      </trkpt>
      <trkpt lat="42.061347328126431" lon="12.999252062290907">
        <ele>667.77002000000005</ele>
        <time>2017-06-12T11:53:21Z</time>
      </trkpt>
      <trkpt lat="42.061284799128771" lon="12.99927712418139">
        <ele>668.24993900000004</ele>
        <time>2017-06-12T11:53:27Z</time>
      </trkpt>
      <trkpt lat="42.061198214069009" lon="12.999334540218115">
        <ele>670.17999299999997</ele>
        <time>2017-06-12T11:53:37Z</time>
      </trkpt>
      <trkpt lat="42.061078269034624" lon="12.999470829963684">
        <ele>671.13995399999999</ele>
        <time>2017-06-12T11:53:53Z</time>
      </trkpt>
      <trkpt lat="42.060975339263678" lon="12.999614495784044">
        <ele>673.05999799999995</ele>
        <time>2017-06-12T11:54:08Z</time>
      </trkpt>
      <trkpt lat="42.060908284038305" lon="12.999729076400399">
        <ele>674.5</ele>
        <time>2017-06-12T11:54:21Z</time>
      </trkpt>
      <trkpt lat="42.060866123065352" lon="12.999747013673186">
        <ele>674.97997999999995</ele>
        <time>2017-06-12T11:54:27Z</time>
      </trkpt>
      <trkpt lat="42.06077023409307" lon="12.999764196574688">
        <ele>675.94000200000005</ele>
        <time>2017-06-12T11:54:36Z</time>
      </trkpt>
      <trkpt lat="42.060738299041986" lon="12.999783558771014">
        <ele>676.90997300000004</ele>
        <time>2017-06-12T11:54:42Z</time>
      </trkpt>
      <trkpt lat="42.060644840821624" lon="12.999970139935613">
        <ele>679.30999799999995</ele>
        <time>2017-06-12T11:54:58Z</time>
      </trkpt>
      <trkpt lat="42.06048633903265" lon="13.000073824077845">
        <ele>681.70996100000002</ele>
        <time>2017-06-12T11:55:17Z</time>
      </trkpt>
      <trkpt lat="42.06043210811913" lon="13.000144483521581">
        <ele>682.669983</ele>
        <time>2017-06-12T11:55:25Z</time>
      </trkpt>
      <trkpt lat="42.060309564694762" lon="13.000293597579002">
        <ele>685.07995600000004</ele>
        <time>2017-06-12T11:55:41Z</time>
      </trkpt>
      <trkpt lat="42.060358263552189" lon="13.000343469902873">
        <ele>686.03997800000002</ele>
        <time>2017-06-12T11:55:55Z</time>
      </trkpt>
      <trkpt lat="42.060348875820637" lon="13.000367861241102">
        <ele>687</ele>
        <time>2017-06-12T11:56:12Z</time>
      </trkpt>
      <trkpt lat="42.06042381003499" lon="13.000338273122907">
        <ele>688.44000200000005</ele>
        <time>2017-06-12T11:56:28Z</time>
      </trkpt>
      <trkpt lat="42.060407884418964" lon="13.000327795743942">
        <ele>687</ele>
        <time>2017-06-12T11:56:35Z</time>
      </trkpt>
      <trkpt lat="42.060349965468049" lon="13.000350594520569">
        <ele>685.55999799999995</ele>
        <time>2017-06-12T11:56:52Z</time>
      </trkpt>
      <trkpt lat="42.060292465612292" lon="13.00033601000905">
        <ele>685.55999799999995</ele>
        <time>2017-06-12T11:57:18Z</time>
      </trkpt>
      <trkpt lat="42.06028793938458" lon="13.000294184312224">
        <ele>685.07995600000004</ele>
        <time>2017-06-12T11:57:32Z</time>
      </trkpt>
      <trkpt lat="42.060344265773892" lon="13.000221764668822">
        <ele>684.12005599999998</ele>
        <time>2017-06-12T11:57:39Z</time>
      </trkpt>
      <trkpt lat="42.06038810312748" lon="13.000143561512232">
        <ele>683.63000499999998</ele>
        <time>2017-06-12T11:57:44Z</time>
      </trkpt>
      <trkpt lat="42.060418780893087" lon="13.000101903453469">
        <ele>682.19000200000005</ele>
        <time>2017-06-12T11:57:50Z</time>
      </trkpt>
      <trkpt lat="42.060445435345173" lon="13.000008361414075">
        <ele>681.22997999999995</ele>
        <time>2017-06-12T11:58:04Z</time>
      </trkpt>
      <trkpt lat="42.06050930544734" lon="12.999979108572006">
        <ele>679.79003899999998</ele>
        <time>2017-06-12T11:58:16Z</time>
      </trkpt>
      <trkpt lat="42.060545263811946" lon="12.999949604272842">
        <ele>678.35003700000004</ele>
        <time>2017-06-12T11:58:22Z</time>
      </trkpt>
      <trkpt lat="42.060649115592241" lon="12.999881291761994">
        <ele>677.39001499999995</ele>
        <time>2017-06-12T11:58:30Z</time>
      </trkpt>
      <trkpt lat="42.060690941289067" lon="12.999827731400728">
        <ele>676.90997300000004</ele>
        <time>2017-06-12T11:58:34Z</time>
      </trkpt>
      <trkpt lat="42.060718601569533" lon="12.999807363376021">
        <ele>676.42004399999996</ele>
        <time>2017-06-12T11:58:36Z</time>
      </trkpt>
      <trkpt lat="42.06087970174849" lon="12.999708037823439">
        <ele>674.97997999999995</ele>
        <time>2017-06-12T11:58:50Z</time>
      </trkpt>
      <trkpt lat="42.060924964025617" lon="12.999685993418097">
        <ele>674.5</ele>
        <time>2017-06-12T11:58:54Z</time>
      </trkpt>
      <trkpt lat="42.061027558520436" lon="12.999557834118605">
        <ele>672.09997599999997</ele>
        <time>2017-06-12T11:59:08Z</time>
      </trkpt>
      <trkpt lat="42.061057817190886" lon="12.999524138867855">
        <ele>671.13995399999999</ele>
        <time>2017-06-12T11:59:12Z</time>
      </trkpt>
      <trkpt lat="42.061214558780193" lon="12.999362032860518">
        <ele>668.72997999999995</ele>
        <time>2017-06-12T11:59:29Z</time>
      </trkpt>
      <trkpt lat="42.061274237930775" lon="12.999270586296916">
        <ele>667.77002000000005</ele>
        <time>2017-06-12T11:59:37Z</time>
      </trkpt>
      <trkpt lat="42.06142351962626" lon="12.999152485281229">
        <ele>666.330017</ele>
        <time>2017-06-12T11:59:51Z</time>
      </trkpt>
      <trkpt lat="42.061488060280681" lon="12.999355578795075">
        <ele>665.36999500000002</ele>
        <time>2017-06-12T12:00:04Z</time>
      </trkpt>
      <trkpt lat="42.061514463275671" lon="12.999538974836469">
        <ele>664.89001499999995</ele>
        <time>2017-06-12T12:00:17Z</time>
      </trkpt>
      <trkpt lat="42.061551092192531" lon="12.999771237373352">
        <ele>664.40997300000004</ele>
        <time>2017-06-12T12:00:32Z</time>
      </trkpt>
      <trkpt lat="42.061585038900375" lon="12.999973073601723">
        <ele>663.92999299999997</ele>
        <time>2017-06-12T12:00:46Z</time>
      </trkpt>
      <trkpt lat="42.061607502400875" lon="13.000034764409065">
        <ele>663.92999299999997</ele>
        <time>2017-06-12T12:00:50Z</time>
      </trkpt>
      <trkpt lat="42.061685035005212" lon="13.000221680849791">
        <ele>663.45001200000002</ele>
        <time>2017-06-12T12:01:03Z</time>
      </trkpt>
      <trkpt lat="42.061720825731754" lon="13.00040147267282">
        <ele>662.48999000000003</ele>
        <time>2017-06-12T12:01:15Z</time>
      </trkpt>
      <trkpt lat="42.061740774661303" lon="13.000696012750268">
        <ele>661.52002000000005</ele>
        <time>2017-06-12T12:01:34Z</time>
      </trkpt>
      <trkpt lat="42.061750330030918" lon="13.000822830945253">
        <ele>661.52002000000005</ele>
        <time>2017-06-12T12:01:44Z</time>
      </trkpt>
      <trkpt lat="42.061750665307045" lon="13.000954007729888">
        <ele>661.03997800000002</ele>
        <time>2017-06-12T12:01:52Z</time>
      </trkpt>
      <trkpt lat="42.061746809631586" lon="13.001090465113521">
        <ele>661.03997800000002</ele>
        <time>2017-06-12T12:02:01Z</time>
      </trkpt>
      <trkpt lat="42.061730464920402" lon="13.001176211982965">
        <ele>661.03997800000002</ele>
        <time>2017-06-12T12:02:07Z</time>
      </trkpt>
      <trkpt lat="42.061685035005212" lon="13.001423813402653">
        <ele>661.03997800000002</ele>
        <time>2017-06-12T12:02:23Z</time>
      </trkpt>
      <trkpt lat="42.061682101339102" lon="13.00143638625741">
        <ele>661.03997800000002</ele>
        <time>2017-06-12T12:02:24Z</time>
      </trkpt>
      <trkpt lat="42.061637425795197" lon="13.001643335446715">
        <ele>660.55999799999995</ele>
        <time>2017-06-12T12:02:40Z</time>
      </trkpt>
      <trkpt lat="42.061614627018571" lon="13.001733860000968">
        <ele>659.12005599999998</ele>
        <time>2017-06-12T12:02:52Z</time>
      </trkpt>
      <trkpt lat="42.061537513509393" lon="13.001853134483099">
        <ele>656.23999000000003</ele>
        <time>2017-06-12T12:03:07Z</time>
      </trkpt>
      <trkpt lat="42.061498034745455" lon="13.001894289627671">
        <ele>654.79998799999998</ele>
        <time>2017-06-12T12:03:26Z</time>
      </trkpt>
      <trkpt lat="42.06141036003828" lon="13.002005517482758">
        <ele>651.42999299999997</ele>
        <time>2017-06-12T12:03:39Z</time>
      </trkpt>
      <trkpt lat="42.061297539621592" lon="13.002108279615641">
        <ele>648.07000700000003</ele>
        <time>2017-06-12T12:03:52Z</time>
      </trkpt>
      <trkpt lat="42.061204668134451" lon="13.002238199114799">
        <ele>645.17999299999997</ele>
        <time>2017-06-12T12:04:06Z</time>
      </trkpt>
      <trkpt lat="42.06113719381392" lon="13.002322018146515">
        <ele>641.82000700000003</ele>
        <time>2017-06-12T12:04:18Z</time>
      </trkpt>
      <trkpt lat="42.06107173115015" lon="13.00242586992681">
        <ele>638.92999299999997</ele>
        <time>2017-06-12T12:04:32Z</time>
      </trkpt>
      <trkpt lat="42.061019176617265" lon="13.002541204914451">
        <ele>636.53002900000001</ele>
        <time>2017-06-12T12:04:44Z</time>
      </trkpt>
      <trkpt lat="42.060980787500739" lon="13.002653019502759">
        <ele>633.65002400000003</ele>
        <time>2017-06-12T12:04:57Z</time>
      </trkpt>
      <trkpt lat="42.060941560193896" lon="13.00273465923965">
        <ele>632.20001200000002</ele>
        <time>2017-06-12T12:05:11Z</time>
      </trkpt>
      <trkpt lat="42.06092563457787" lon="13.002757541835308">
        <ele>631.23999000000003</ele>
        <time>2017-06-12T12:05:36Z</time>
      </trkpt>
      <trkpt lat="42.060931837186217" lon="13.002772461622953">
        <ele>630.76000999999997</ele>
        <time>2017-06-12T12:05:54Z</time>
      </trkpt>
      <trkpt lat="42.060904260724783" lon="13.00276986323297">
        <ele>630.76000999999997</ele>
        <time>2017-06-12T12:06:20Z</time>
      </trkpt>
      <trkpt lat="42.060906691476703" lon="13.002800708636642">
        <ele>630.76000999999997</ele>
        <time>2017-06-12T12:06:41Z</time>
      </trkpt>
      <trkpt lat="42.06089923158288" lon="13.002776736393571">
        <ele>630.76000999999997</ele>
        <time>2017-06-12T12:07:08Z</time>
      </trkpt>
      <trkpt lat="42.060936028137803" lon="13.002796182408929">
        <ele>630.76000999999997</ele>
        <time>2017-06-12T12:07:31Z</time>
      </trkpt>
      <trkpt lat="42.060924461111426" lon="13.002780340611935">
        <ele>630.76000999999997</ele>
        <time>2017-06-12T12:07:54Z</time>
      </trkpt>
      <trkpt lat="42.060918593779206" lon="13.002754105255008">
        <ele>630.76000999999997</ele>
        <time>2017-06-12T12:08:19Z</time>
      </trkpt>
      <trkpt lat="42.060924125835299" lon="13.002775311470032">
        <ele>630.76000999999997</ele>
        <time>2017-06-12T12:08:38Z</time>
      </trkpt>
      <trkpt lat="42.060903841629624" lon="13.002799283713102">
        <ele>632.20001200000002</ele>
        <time>2017-06-12T12:08:52Z</time>
      </trkpt>
      <trkpt lat="42.060894034802914" lon="13.002846138551831">
        <ele>630.76000999999997</ele>
        <time>2017-06-12T12:09:06Z</time>
      </trkpt>
      <trkpt lat="42.060916917398572" lon="13.002919983118773">
        <ele>629.79998799999998</ele>
        <time>2017-06-12T12:09:13Z</time>
      </trkpt>
      <trkpt lat="42.060873080044985" lon="13.002932304516435">
        <ele>627.87994400000002</ele>
        <time>2017-06-12T12:09:24Z</time>
      </trkpt>
      <trkpt lat="42.06084793433547" lon="13.002993240952492">
        <ele>624.98999000000003</ele>
        <time>2017-06-12T12:09:36Z</time>
      </trkpt>
      <trkpt lat="42.060843324288726" lon="13.003000533208251">
        <ele>624.50994900000001</ele>
        <time>2017-06-12T12:09:37Z</time>
      </trkpt>
      <trkpt lat="42.060785237699747" lon="13.003092063590884">
        <ele>624.03002900000001</ele>
        <time>2017-06-12T12:09:52Z</time>
      </trkpt>
      <trkpt lat="42.060752464458346" lon="13.003181163221598">
        <ele>625.96002199999998</ele>
        <time>2017-06-12T12:10:06Z</time>
      </trkpt>
      <trkpt lat="42.060792027041316" lon="13.003127602860332">
        <ele>625.96002199999998</ele>
        <time>2017-06-12T12:10:19Z</time>
      </trkpt>
      <trkpt lat="42.060819268226624" lon="13.003124669194221">
        <ele>624.50994900000001</ele>
        <time>2017-06-12T12:10:21Z</time>
      </trkpt>
      <trkpt lat="42.060845335945487" lon="13.003120729699731">
        <ele>624.03002900000001</ele>
        <time>2017-06-12T12:10:22Z</time>
      </trkpt>
      <trkpt lat="42.060914738103747" lon="13.002949990332127">
        <ele>626.44000200000005</ele>
        <time>2017-06-12T12:10:39Z</time>
      </trkpt>
      <trkpt lat="42.060952205210924" lon="13.002939261496067">
        <ele>627.87994400000002</ele>
        <time>2017-06-12T12:10:46Z</time>
      </trkpt>
      <trkpt lat="42.060960838571191" lon="13.002976225689054">
        <ele>628.35998500000005</ele>
        <time>2017-06-12T12:10:49Z</time>
      </trkpt>
      <trkpt lat="42.060934519395232" lon="13.003108995035291">
        <ele>628.35998500000005</ele>
        <time>2017-06-12T12:11:00Z</time>
      </trkpt>
      <trkpt lat="42.06086746416986" lon="13.003249559551477">
        <ele>626.44000200000005</ele>
        <time>2017-06-12T12:11:15Z</time>
      </trkpt>
      <trkpt lat="42.060836283490062" lon="13.003311166539788">
        <ele>625.96002199999998</ele>
        <time>2017-06-12T12:11:30Z</time>
      </trkpt>
      <trkpt lat="42.060772413387895" lon="13.003390040248632">
        <ele>625.46997099999999</ele>
        <time>2017-06-12T12:11:48Z</time>
      </trkpt>
      <trkpt lat="42.060786914080381" lon="13.003382831811905">
        <ele>624.98999000000003</ele>
        <time>2017-06-12T12:12:10Z</time>
      </trkpt>
      <trkpt lat="42.060729581862688" lon="13.003447875380516">
        <ele>624.50994900000001</ele>
        <time>2017-06-12T12:12:31Z</time>
      </trkpt>
      <trkpt lat="42.060665125027299" lon="13.003578800708055">
        <ele>623.07000700000003</ele>
        <time>2017-06-12T12:12:46Z</time>
      </trkpt>
      <trkpt lat="42.060668226331472" lon="13.003612076863647">
        <ele>622.59002699999996</ele>
        <time>2017-06-12T12:13:00Z</time>
      </trkpt>
      <trkpt lat="42.060657162219286" lon="13.003676868975163">
        <ele>622.59002699999996</ele>
        <time>2017-06-12T12:13:15Z</time>
      </trkpt>
      <trkpt lat="42.060665963217616" lon="13.003726070746779">
        <ele>622.10998500000005</ele>
        <time>2017-06-12T12:13:19Z</time>
      </trkpt>
      <trkpt lat="42.06068909727037" lon="13.003877867013216">
        <ele>622.10998500000005</ele>
        <time>2017-06-12T12:13:33Z</time>
      </trkpt>
      <trkpt lat="42.060667388141155" lon="13.004019688814878">
        <ele>621.14996299999996</ele>
        <time>2017-06-12T12:13:47Z</time>
      </trkpt>
      <trkpt lat="42.060596058145165" lon="13.004157906398177">
        <ele>618.75</ele>
        <time>2017-06-12T12:14:01Z</time>
      </trkpt>
      <trkpt lat="42.060560267418623" lon="13.004289167001843">
        <ele>616.34002699999996</ele>
        <time>2017-06-12T12:14:14Z</time>
      </trkpt>
      <trkpt lat="42.060498241335154" lon="13.004407184198499">
        <ele>614.89996299999996</ele>
        <time>2017-06-12T12:14:29Z</time>
      </trkpt>
      <trkpt lat="42.060463204979897" lon="13.004515478387475">
        <ele>613.94000200000005</ele>
        <time>2017-06-12T12:14:43Z</time>
      </trkpt>
      <trkpt lat="42.060433533042669" lon="13.00455235876143">
        <ele>613.46002199999998</ele>
        <time>2017-06-12T12:14:47Z</time>
      </trkpt>
      <trkpt lat="42.060375111177564" lon="13.004561075940728">
        <ele>611.54003899999998</ele>
        <time>2017-06-12T12:15:02Z</time>
      </trkpt>
      <trkpt lat="42.060315599665046" lon="13.00455772317946">
        <ele>611.05999799999995</ele>
        <time>2017-06-12T12:15:22Z</time>
      </trkpt>
      <trkpt lat="42.060305960476398" lon="13.004586221650243">
        <ele>611.05999799999995</ele>
        <time>2017-06-12T12:15:43Z</time>
      </trkpt>
      <trkpt lat="42.060290202498436" lon="13.004640033468604">
        <ele>610.57000700000003</ele>
        <time>2017-06-12T12:15:59Z</time>
      </trkpt>
      <trkpt lat="42.060282658785582" lon="13.004673309624195">
        <ele>610.57000700000003</ele>
        <time>2017-06-12T12:16:12Z</time>
      </trkpt>
      <trkpt lat="42.060268074274063" lon="13.004840360954404">
        <ele>610.09002699999996</ele>
        <time>2017-06-12T12:16:26Z</time>
      </trkpt>
      <trkpt lat="42.060190876945853" lon="13.004991235211492">
        <ele>609.13000499999998</ele>
        <time>2017-06-12T12:16:41Z</time>
      </trkpt>
      <trkpt lat="42.060115858912468" lon="13.004974806681275">
        <ele>609.13000499999998</ele>
        <time>2017-06-12T12:16:55Z</time>
      </trkpt>
      <trkpt lat="42.060099430382252" lon="13.004941362887621">
        <ele>609.13000499999998</ele>
        <time>2017-06-12T12:17:13Z</time>
      </trkpt>
      <trkpt lat="42.060065902769566" lon="13.004877408966422">
        <ele>610.57000700000003</ele>
        <time>2017-06-12T12:17:30Z</time>
      </trkpt>
      <trkpt lat="42.060107309371233" lon="13.00491982139647">
        <ele>609.13000499999998</ele>
        <time>2017-06-12T12:17:39Z</time>
      </trkpt>
      <trkpt lat="42.060161707922816" lon="13.005012022331357">
        <ele>609.13000499999998</ele>
        <time>2017-06-12T12:17:52Z</time>
      </trkpt>
      <trkpt lat="42.06018827855587" lon="13.005110677331686">
        <ele>609.13000499999998</ele>
        <time>2017-06-12T12:18:08Z</time>
      </trkpt>
      <trkpt lat="42.060186685994267" lon="13.005123836919665">
        <ele>610.09002699999996</ele>
        <time>2017-06-12T12:18:14Z</time>
      </trkpt>
      <trkpt lat="42.060233959928155" lon="13.005219222977757">
        <ele>612.01995799999997</ele>
        <time>2017-06-12T12:18:26Z</time>
      </trkpt>
      <trkpt lat="42.060169503092766" lon="13.00533757545054">
        <ele>612.01995799999997</ele>
        <time>2017-06-12T12:18:44Z</time>
      </trkpt>
      <trkpt lat="42.060129102319479" lon="13.005362302064896">
        <ele>610.57000700000003</ele>
        <time>2017-06-12T12:18:49Z</time>
      </trkpt>
      <trkpt lat="42.060063723474741" lon="13.005432123318315">
        <ele>609.60998500000005</ele>
        <time>2017-06-12T12:19:01Z</time>
      </trkpt>
      <trkpt lat="42.060015862807631" lon="13.005491970106959">
        <ele>608.64996299999996</ele>
        <time>2017-06-12T12:19:17Z</time>
      </trkpt>
      <trkpt lat="42.059977389872074" lon="13.005501441657543">
        <ele>608.64996299999996</ele>
        <time>2017-06-12T12:19:39Z</time>
      </trkpt>
      <trkpt lat="42.059966493397951" lon="13.005585260689259">
        <ele>608.64996299999996</ele>
        <time>2017-06-12T12:19:50Z</time>
      </trkpt>
      <trkpt lat="42.060024496167898" lon="13.005732027813792">
        <ele>608.64996299999996</ele>
        <time>2017-06-12T12:20:05Z</time>
      </trkpt>
      <trkpt lat="42.059966661036015" lon="13.005814589560032">
        <ele>608.64996299999996</ele>
        <time>2017-06-12T12:20:19Z</time>
      </trkpt>
      <trkpt lat="42.059947131201625" lon="13.005890110507607">
        <ele>610.09002699999996</ele>
        <time>2017-06-12T12:20:32Z</time>
      </trkpt>
      <trkpt lat="42.059942102059722" lon="13.005947275087237">
        <ele>611.05999799999995</ele>
        <time>2017-06-12T12:20:44Z</time>
      </trkpt>
      <trkpt lat="42.059940593317151" lon="13.005952136591077">
        <ele>610.57000700000003</ele>
        <time>2017-06-12T12:20:47Z</time>
      </trkpt>
      <trkpt lat="42.059930535033345" lon="13.005971666425467">
        <ele>611.05999799999995</ele>
        <time>2017-06-12T12:20:49Z</time>
      </trkpt>
      <trkpt lat="42.059914441779256" lon="13.006016258150339">
        <ele>610.57000700000003</ele>
        <time>2017-06-12T12:21:02Z</time>
      </trkpt>
      <trkpt lat="42.059940341860056" lon="13.006001422181726">
        <ele>611.05999799999995</ele>
        <time>2017-06-12T12:21:15Z</time>
      </trkpt>
      <trkpt lat="42.059919470921159" lon="13.006065962836146">
        <ele>612.01995799999997</ele>
        <time>2017-06-12T12:21:30Z</time>
      </trkpt>
      <trkpt lat="42.059900863096118" lon="13.006097981706262">
        <ele>612.01995799999997</ele>
        <time>2017-06-12T12:21:43Z</time>
      </trkpt>
      <trkpt lat="42.059874460101128" lon="13.006107620894909">
        <ele>612.01995799999997</ele>
        <time>2017-06-12T12:21:56Z</time>
      </trkpt>
      <trkpt lat="42.059884434565902" lon="13.006081888452172">
        <ele>612.5</ele>
        <time>2017-06-12T12:22:17Z</time>
      </trkpt>
      <trkpt lat="42.059865910559893" lon="13.006061688065529">
        <ele>612.5</ele>
        <time>2017-06-12T12:22:41Z</time>
      </trkpt>
      <trkpt lat="42.059856522828341" lon="13.006095718592405">
        <ele>612.5</ele>
        <time>2017-06-12T12:22:57Z</time>
      </trkpt>
      <trkpt lat="42.059841770678759" lon="13.00613603554666">
        <ele>612.5</ele>
        <time>2017-06-12T12:23:14Z</time>
      </trkpt>
      <trkpt lat="42.059859540313482" lon="13.00614139996469">
        <ele>612.5</ele>
        <time>2017-06-12T12:23:37Z</time>
      </trkpt>
      <trkpt lat="42.059873873367906" lon="13.006117511540651">
        <ele>612.5</ele>
        <time>2017-06-12T12:23:51Z</time>
      </trkpt>
      <trkpt lat="42.059894660487771" lon="13.006064118817449">
        <ele>612.5</ele>
        <time>2017-06-12T12:24:07Z</time>
      </trkpt>
      <trkpt lat="42.059908574447036" lon="13.006023382768035">
        <ele>612.5</ele>
        <time>2017-06-12T12:24:26Z</time>
      </trkpt>
      <trkpt lat="42.059902539476752" lon="13.005969738587737">
        <ele>611.05999799999995</ele>
        <time>2017-06-12T12:24:42Z</time>
      </trkpt>
      <trkpt lat="42.059941263869405" lon="13.005884494632483">
        <ele>610.09002699999996</ele>
        <time>2017-06-12T12:24:55Z</time>
      </trkpt>
      <trkpt lat="42.059971941635013" lon="13.005809811875224">
        <ele>609.13000499999998</ele>
        <time>2017-06-12T12:25:08Z</time>
      </trkpt>
      <trkpt lat="42.060049138963223" lon="13.005727920681238">
        <ele>608.64996299999996</ele>
        <time>2017-06-12T12:25:21Z</time>
      </trkpt>
      <trkpt lat="42.060056766495109" lon="13.005704032257199">
        <ele>608.64996299999996</ele>
        <time>2017-06-12T12:25:23Z</time>
      </trkpt>
      <trkpt lat="42.06010177731514" lon="13.005552068352699">
        <ele>608.64996299999996</ele>
        <time>2017-06-12T12:25:37Z</time>
      </trkpt>
      <trkpt lat="42.060130275785923" lon="13.005373030900955">
        <ele>610.09002699999996</ele>
        <time>2017-06-12T12:25:52Z</time>
      </trkpt>
      <trkpt lat="42.060182578861713" lon="13.00531268119812">
        <ele>611.05999799999995</ele>
        <time>2017-06-12T12:26:07Z</time>
      </trkpt>
      <trkpt lat="42.060274528339505" lon="13.0051841866225">
        <ele>612.01995799999997</ele>
        <time>2017-06-12T12:26:22Z</time>
      </trkpt>
      <trkpt lat="42.06028793938458" lon="13.005128614604473">
        <ele>612.5</ele>
        <time>2017-06-12T12:26:27Z</time>
      </trkpt>
      <trkpt lat="42.060383073985577" lon="13.004989977926016">
        <ele>612.97997999999995</ele>
        <time>2017-06-12T12:26:44Z</time>
      </trkpt>
      <trkpt lat="42.060441663488746" lon="13.004890736192465">
        <ele>613.94000200000005</ele>
        <time>2017-06-12T12:26:56Z</time>
      </trkpt>
      <trkpt lat="42.060481561347842" lon="13.004793422296643">
        <ele>614.419983</ele>
        <time>2017-06-12T12:27:09Z</time>
      </trkpt>
      <trkpt lat="42.060485417023301" lon="13.004759475588799">
        <ele>614.419983</ele>
        <time>2017-06-12T12:27:21Z</time>
      </trkpt>
      <trkpt lat="42.060496732592583" lon="13.004704741761088">
        <ele>613.94000200000005</ele>
        <time>2017-06-12T12:27:32Z</time>
      </trkpt>
      <trkpt lat="42.060499079525471" lon="13.00466526299715">
        <ele>614.419983</ele>
        <time>2017-06-12T12:27:43Z</time>
      </trkpt>
      <trkpt lat="42.060506036505103" lon="13.004573229700327">
        <ele>614.89996299999996</ele>
        <time>2017-06-12T12:27:57Z</time>
      </trkpt>
      <trkpt lat="42.060519363731146" lon="13.004549341276288">
        <ele>616.34002699999996</ele>
        <time>2017-06-12T12:28:10Z</time>
      </trkpt>
      <trkpt lat="42.060539061203599" lon="13.00447516143322">
        <ele>617.29998799999998</ele>
        <time>2017-06-12T12:28:21Z</time>
      </trkpt>
      <trkpt lat="42.06055766902864" lon="13.004383631050587">
        <ele>617.29998799999998</ele>
        <time>2017-06-12T12:28:34Z</time>
      </trkpt>
      <trkpt lat="42.060555992648005" lon="13.004327137023211">
        <ele>615.85998500000005</ele>
        <time>2017-06-12T12:28:41Z</time>
      </trkpt>
      <trkpt lat="42.060583988204598" lon="13.00423527136445">
        <ele>615.38000499999998</ele>
        <time>2017-06-12T12:28:53Z</time>
      </trkpt>
      <trkpt lat="42.060629585757852" lon="13.00412186421454">
        <ele>617.29998799999998</ele>
        <time>2017-06-12T12:29:07Z</time>
      </trkpt>
      <trkpt lat="42.060688678175211" lon="13.003993788734078">
        <ele>619.22997999999995</ele>
        <time>2017-06-12T12:29:20Z</time>
      </trkpt>
      <trkpt lat="42.060711979866028" lon="13.003876022994518">
        <ele>620.669983</ele>
        <time>2017-06-12T12:29:34Z</time>
      </trkpt>
      <trkpt lat="42.060690689831972" lon="13.003731016069651">
        <ele>620.669983</ele>
        <time>2017-06-12T12:29:47Z</time>
      </trkpt>
      <trkpt lat="42.060692701488733" lon="13.003701260313392">
        <ele>620.669983</ele>
        <time>2017-06-12T12:29:49Z</time>
      </trkpt>
      <trkpt lat="42.060701502487063" lon="13.003567736595869">
        <ele>621.63000499999998</ele>
        <time>2017-06-12T12:30:03Z</time>
      </trkpt>
      <trkpt lat="42.060758164152503" lon="13.003462962806225">
        <ele>623.07000700000003</ele>
        <time>2017-06-12T12:30:20Z</time>
      </trkpt>
      <trkpt lat="42.06084550358355" lon="13.003337904810905">
        <ele>624.50994900000001</ele>
        <time>2017-06-12T12:30:38Z</time>
      </trkpt>
      <trkpt lat="42.060898561030626" lon="13.003201531246305">
        <ele>624.50994900000001</ele>
        <time>2017-06-12T12:30:52Z</time>
      </trkpt>
      <trkpt lat="42.06090996041894" lon="13.003163561224937">
        <ele>624.50994900000001</ele>
        <time>2017-06-12T12:30:55Z</time>
      </trkpt>
      <trkpt lat="42.060947008430958" lon="13.003002125769854">
        <ele>625.96002199999998</ele>
        <time>2017-06-12T12:31:10Z</time>
      </trkpt>
      <trkpt lat="42.060924209654331" lon="13.002907996997237">
        <ele>626.44000200000005</ele>
        <time>2017-06-12T12:31:25Z</time>
      </trkpt>
      <trkpt lat="42.060896130278707" lon="13.002944374457002">
        <ele>624.50994900000001</ele>
        <time>2017-06-12T12:31:36Z</time>
      </trkpt>
      <trkpt lat="42.06084550358355" lon="13.003025762736797">
        <ele>621.63000499999998</ele>
        <time>2017-06-12T12:31:48Z</time>
      </trkpt>
      <trkpt lat="42.060784734785557" lon="13.003124082460999">
        <ele>622.10998500000005</ele>
        <time>2017-06-12T12:32:03Z</time>
      </trkpt>
      <trkpt lat="42.06073360517621" lon="13.003208236768842">
        <ele>623.54998799999998</ele>
        <time>2017-06-12T12:32:17Z</time>
      </trkpt>
      <trkpt lat="42.060728659853339" lon="13.00319692119956">
        <ele>623.54998799999998</ele>
        <time>2017-06-12T12:32:32Z</time>
      </trkpt>
      <trkpt lat="42.060722373425961" lon="13.003169512376189">
        <ele>623.54998799999998</ele>
        <time>2017-06-12T12:32:57Z</time>
      </trkpt>
      <trkpt lat="42.060735281556845" lon="13.003208991140127">
        <ele>623.54998799999998</ele>
        <time>2017-06-12T12:33:18Z</time>
      </trkpt>
      <trkpt lat="42.060757158324122" lon="13.00322181545198">
        <ele>622.10998500000005</ele>
        <time>2017-06-12T12:33:52Z</time>
      </trkpt>
      <trkpt lat="42.060751458629966" lon="13.003254923969507">
        <ele>622.10998500000005</ele>
        <time>2017-06-12T12:34:21Z</time>
      </trkpt>
      <trkpt lat="42.060691528022289" lon="13.003170099109411">
        <ele>622.10998500000005</ele>
        <time>2017-06-12T12:34:42Z</time>
      </trkpt>
      <trkpt lat="42.060733018442988" lon="13.003199268132448">
        <ele>622.10998500000005</ele>
        <time>2017-06-12T12:35:05Z</time>
      </trkpt>
      <trkpt lat="42.060730587691069" lon="13.003216702491045">
        <ele>622.10998500000005</ele>
        <time>2017-06-12T12:35:11Z</time>
      </trkpt>
      <trkpt lat="42.060736874118447" lon="13.003247464075685">
        <ele>622.10998500000005</ele>
        <time>2017-06-12T12:35:28Z</time>
      </trkpt>
      <trkpt lat="42.060760762542486" lon="13.003185940906405">
        <ele>622.10998500000005</ele>
        <time>2017-06-12T12:35:44Z</time>
      </trkpt>
      <trkpt lat="42.060723463073373" lon="13.003185437992215">
        <ele>622.10998500000005</ele>
        <time>2017-06-12T12:36:03Z</time>
      </trkpt>
      <trkpt lat="42.060734108090401" lon="13.003212260082364">
        <ele>622.59002699999996</ele>
        <time>2017-06-12T12:36:36Z</time>
      </trkpt>
      <trkpt lat="42.06073259934783" lon="13.003209913149476">
        <ele>623.07000700000003</ele>
        <time>2017-06-12T12:36:55Z</time>
      </trkpt>
      <trkpt lat="42.060732934623957" lon="13.003186360001564">
        <ele>622.59002699999996</ele>
        <time>2017-06-12T12:37:26Z</time>
      </trkpt>
      <trkpt lat="42.060733940452337" lon="13.003184599801898">
        <ele>624.50994900000001</ele>
        <time>2017-06-12T12:37:29Z</time>
      </trkpt>
      <trkpt lat="42.060741316527128" lon="13.003158280625939">
        <ele>623.07000700000003</ele>
        <time>2017-06-12T12:37:52Z</time>
      </trkpt>
      <trkpt lat="42.060805689543486" lon="13.003096673637629">
        <ele>621.63000499999998</ele>
        <time>2017-06-12T12:38:06Z</time>
      </trkpt>
      <trkpt lat="42.060898309573531" lon="13.002929287031293">
        <ele>622.59002699999996</ele>
        <time>2017-06-12T12:38:22Z</time>
      </trkpt>
      <trkpt lat="42.06095295958221" lon="13.002842869609594">
        <ele>625.96002199999998</ele>
        <time>2017-06-12T12:38:41Z</time>
      </trkpt>
      <trkpt lat="42.060972321778536" lon="13.002693671733141">
        <ele>627.87994400000002</ele>
        <time>2017-06-12T12:39:00Z</time>
      </trkpt>
      <trkpt lat="42.061010878533125" lon="13.002551011741161">
        <ele>630.27996800000005</ele>
        <time>2017-06-12T12:39:19Z</time>
      </trkpt>
      <trkpt lat="42.061045663431287" lon="13.002432407811284">
        <ele>633.169983</ele>
        <time>2017-06-12T12:39:39Z</time>
      </trkpt>
      <trkpt lat="42.061104839667678" lon="13.002317240461707">
        <ele>635.57000700000003</ele>
        <time>2017-06-12T12:39:55Z</time>
      </trkpt>
      <trkpt lat="42.061159322038293" lon="13.002295363694429">
        <ele>637.48999000000003</ele>
        <time>2017-06-12T12:40:08Z</time>
      </trkpt>
      <trkpt lat="42.06120072863996" lon="13.002260997891426">
        <ele>639.40997300000004</ele>
        <time>2017-06-12T12:40:22Z</time>
      </trkpt>
      <trkpt lat="42.061249762773514" lon="13.002197798341513">
        <ele>641.82000700000003</ele>
        <time>2017-06-12T12:40:36Z</time>
      </trkpt>
      <trkpt lat="42.061307262629271" lon="13.002124289050698">
        <ele>643.26000999999997</ele>
        <time>2017-06-12T12:40:48Z</time>
      </trkpt>
      <trkpt lat="42.061370629817247" lon="13.002058239653707">
        <ele>645.17999299999997</ele>
        <time>2017-06-12T12:41:02Z</time>
      </trkpt>
      <trkpt lat="42.061436176300049" lon="13.001980539411306">
        <ele>648.55004899999994</ele>
        <time>2017-06-12T12:41:16Z</time>
      </trkpt>
      <trkpt lat="42.061490826308727" lon="13.00190987996757">
        <ele>649.98999000000003</ele>
        <time>2017-06-12T12:41:30Z</time>
      </trkpt>
      <trkpt lat="42.061495436355472" lon="13.001906275749207">
        <ele>649.98999000000003</ele>
        <time>2017-06-12T12:41:31Z</time>
      </trkpt>
      <trkpt lat="42.061577411368489" lon="13.00181407481432">
        <ele>651.90997300000004</ele>
        <time>2017-06-12T12:41:46Z</time>
      </trkpt>
      <trkpt lat="42.061641868203878" lon="13.001715922728181">
        <ele>654.30999799999995</ele>
        <time>2017-06-12T12:42:00Z</time>
      </trkpt>
      <trkpt lat="42.061679335311055" lon="13.001581812277436">
        <ele>656.23999000000003</ele>
        <time>2017-06-12T12:42:13Z</time>
      </trkpt>
      <trkpt lat="42.061697859317064" lon="13.001458263024688">
        <ele>657.67999299999997</ele>
        <time>2017-06-12T12:42:26Z</time>
      </trkpt>
      <trkpt lat="42.061713533475995" lon="13.001413838937879">
        <ele>657.67999299999997</ele>
        <time>2017-06-12T12:42:31Z</time>
      </trkpt>
      <trkpt lat="42.061747731640935" lon="13.001335384324193">
        <ele>657.67999299999997</ele>
        <time>2017-06-12T12:42:38Z</time>
      </trkpt>
      <trkpt lat="42.061761980876327" lon="13.001127010211349">
        <ele>657.67999299999997</ele>
        <time>2017-06-12T12:42:55Z</time>
      </trkpt>
      <trkpt lat="42.061756700277328" lon="13.001018967479467">
        <ele>657.67999299999997</ele>
        <time>2017-06-12T12:43:07Z</time>
      </trkpt>
      <trkpt lat="42.061747396364808" lon="13.000827776268125">
        <ele>656.23999000000003</ele>
        <time>2017-06-12T12:43:20Z</time>
      </trkpt>
      <trkpt lat="42.061731889843941" lon="13.000646810978651">
        <ele>656.23999000000003</ele>
        <time>2017-06-12T12:43:32Z</time>
      </trkpt>
      <trkpt lat="42.061703391373158" lon="13.000460565090179">
        <ele>657.67999299999997</ele>
        <time>2017-06-12T12:43:46Z</time>
      </trkpt>
      <trkpt lat="42.061693333089352" lon="13.00034430809319">
        <ele>658.160034</ele>
        <time>2017-06-12T12:43:53Z</time>
      </trkpt>
      <trkpt lat="42.061653938144445" lon="13.000104501843452">
        <ele>659.59997599999997</ele>
        <time>2017-06-12T12:44:10Z</time>
      </trkpt>
      <trkpt lat="42.061624936759472" lon="12.999918926507235">
        <ele>659.59997599999997</ele>
        <time>2017-06-12T12:44:23Z</time>
      </trkpt>
      <trkpt lat="42.061605826020241" lon="12.999865366145968">
        <ele>659.59997599999997</ele>
        <time>2017-06-12T12:44:31Z</time>
      </trkpt>
      <trkpt lat="42.061537262052298" lon="12.999925464391708">
        <ele>660.07995600000004</ele>
        <time>2017-06-12T12:44:37Z</time>
      </trkpt>
      <trkpt lat="42.061380939558148" lon="12.999905180186033">
        <ele>663.45001200000002</ele>
        <time>2017-06-12T12:44:53Z</time>
      </trkpt>
      <trkpt lat="42.061326038092375" lon="12.999805938452482">
        <ele>665.85003700000004</ele>
        <time>2017-06-12T12:45:06Z</time>
      </trkpt>
      <trkpt lat="42.061350680887699" lon="12.999913981184363">
        <ele>666.80999799999995</ele>
        <time>2017-06-12T12:45:18Z</time>
      </trkpt>
      <trkpt lat="42.06138881854713" lon="13.000014061108232">
        <ele>667.29003899999998</ele>
        <time>2017-06-12T12:45:28Z</time>
      </trkpt>
      <trkpt lat="42.061416814103723" lon="13.000083295628428">
        <ele>667.77002000000005</ele>
        <time>2017-06-12T12:45:34Z</time>
      </trkpt>
      <trkpt lat="42.06144455820322" lon="13.000241881236434">
        <ele>668.72997999999995</ele>
        <time>2017-06-12T12:45:48Z</time>
      </trkpt>
      <trkpt lat="42.061456711962819" lon="13.000437933951616">
        <ele>669.22003199999995</ele>
        <time>2017-06-12T12:46:04Z</time>
      </trkpt>
      <trkpt lat="42.061427207663655" lon="13.000651337206364">
        <ele>671.13995399999999</ele>
        <time>2017-06-12T12:46:22Z</time>
      </trkpt>
      <trkpt lat="42.061397787183523" lon="13.000806821510196">
        <ele>673.05999799999995</ele>
        <time>2017-06-12T12:46:36Z</time>
      </trkpt>
      <trkpt lat="42.061388734728098" lon="13.000855604186654">
        <ele>673.53997800000002</ele>
        <time>2017-06-12T12:46:40Z</time>
      </trkpt>
      <trkpt lat="42.061338778585196" lon="13.00099709071219">
        <ele>674.97997999999995</ele>
        <time>2017-06-12T12:46:55Z</time>
      </trkpt>
      <trkpt lat="42.061260407790542" lon="13.001180738210678">
        <ele>675.94000200000005</ele>
        <time>2017-06-12T12:47:11Z</time>
      </trkpt>
      <trkpt lat="42.061207769438624" lon="13.001295821741223">
        <ele>676.90997300000004</ele>
        <time>2017-06-12T12:47:22Z</time>
      </trkpt>
      <trkpt lat="42.061078771948814" lon="13.001457760110497">
        <ele>678.830017</ele>
        <time>2017-06-12T12:47:41Z</time>
      </trkpt>
      <trkpt lat="42.060860674828291" lon="13.001517858356237">
        <ele>679.79003899999998</ele>
        <time>2017-06-12T12:48:02Z</time>
      </trkpt>
      <trkpt lat="42.060697395354509" lon="13.001506458967924">
        <ele>681.22997999999995</ele>
        <time>2017-06-12T12:48:18Z</time>
      </trkpt>
      <trkpt lat="42.060515005141497" lon="13.001409228891134">
        <ele>682.19000200000005</ele>
        <time>2017-06-12T12:48:36Z</time>
      </trkpt>
      <trkpt lat="42.060377206653357" lon="13.001318704336882">
        <ele>683.63000499999998</ele>
        <time>2017-06-12T12:48:51Z</time>
      </trkpt>
      <trkpt lat="42.060239408165216" lon="13.001343933865428">
        <ele>684.59997599999997</ele>
        <time>2017-06-12T12:49:06Z</time>
      </trkpt>
      <trkpt lat="42.060148967429996" lon="13.001367235556245">
        <ele>685.55999799999995</ele>
        <time>2017-06-12T12:49:18Z</time>
      </trkpt>
      <trkpt lat="42.060070093721151" lon="13.001436470076442">
        <ele>686.52002000000005</ele>
        <time>2017-06-12T12:49:28Z</time>
      </trkpt>
      <trkpt lat="42.059943359345198" lon="13.001499669626355">
        <ele>688.92004399999996</ele>
        <time>2017-06-12T12:49:43Z</time>
      </trkpt>
      <trkpt lat="42.059824503958225" lon="13.001592541113496">
        <ele>691.330017</ele>
        <time>2017-06-12T12:49:59Z</time>
      </trkpt>
      <trkpt lat="42.05976071767509" lon="13.001569490879774">
        <ele>692.77002000000005</ele>
        <time>2017-06-12T12:50:08Z</time>
      </trkpt>
      <trkpt lat="42.059648567810655" lon="13.001451641321182">
        <ele>694.20996100000002</ele>
        <time>2017-06-12T12:50:24Z</time>
      </trkpt>
      <trkpt lat="42.059578914195299" lon="13.001419538632035">
        <ele>695.169983</ele>
        <time>2017-06-12T12:50:34Z</time>
      </trkpt>
      <trkpt lat="42.059448072686791" lon="13.001327337697148">
        <ele>696.60998500000005</ele>
        <time>2017-06-12T12:50:51Z</time>
      </trkpt>
      <trkpt lat="42.0593595597893" lon="13.001242931932211">
        <ele>697.09002699999996</ele>
        <time>2017-06-12T12:51:04Z</time>
      </trkpt>
      <trkpt lat="42.059331312775612" lon="13.001281069591641">
        <ele>697.09002699999996</ele>
        <time>2017-06-12T12:51:18Z</time>
      </trkpt>
      <trkpt lat="42.059208936989307" lon="13.001460777595639">
        <ele>698.53002900000001</ele>
        <time>2017-06-12T12:51:37Z</time>
      </trkpt>
      <trkpt lat="42.059170296415687" lon="13.001639312133193">
        <ele>700.94000200000005</ele>
        <time>2017-06-12T12:51:53Z</time>
      </trkpt>
      <trkpt lat="42.059092009440064" lon="13.001823127269745">
        <ele>701.90002400000003</ele>
        <time>2017-06-12T12:52:12Z</time>
      </trkpt>
      <trkpt lat="42.059006933122873" lon="13.001970062032342">
        <ele>702.37994400000002</ele>
        <time>2017-06-12T12:52:25Z</time>
      </trkpt>
      <trkpt lat="42.058936525136232" lon="13.002094700932503">
        <ele>701.42004399999996</ele>
        <time>2017-06-12T12:52:38Z</time>
      </trkpt>
      <trkpt lat="42.05886653624475" lon="13.002181118354201">
        <ele>700.94000200000005</ele>
        <time>2017-06-12T12:52:51Z</time>
      </trkpt>
      <trkpt lat="42.058813562616706" lon="13.002273989841342">
        <ele>700.46002199999998</ele>
        <time>2017-06-12T12:53:05Z</time>
      </trkpt>
      <trkpt lat="42.058740807697177" lon="13.002396197989583">
        <ele>697.57000700000003</ele>
        <time>2017-06-12T12:53:18Z</time>
      </trkpt>
      <trkpt lat="42.058681799098849" lon="13.002565428614616">
        <ele>694.69000200000005</ele>
        <time>2017-06-12T12:53:34Z</time>
      </trkpt>
      <trkpt lat="42.058674339205027" lon="13.002707837149501">
        <ele>691.80999799999995</ele>
        <time>2017-06-12T12:53:46Z</time>
      </trkpt>
      <trkpt lat="42.058695964515209" lon="13.002907829359174">
        <ele>688.44000200000005</ele>
        <time>2017-06-12T12:54:00Z</time>
      </trkpt>
      <trkpt lat="42.058734185993671" lon="13.003069264814258">
        <ele>685.55999799999995</ele>
        <time>2017-06-12T12:54:14Z</time>
      </trkpt>
      <trkpt lat="42.058747932314873" lon="13.003183258697391">
        <ele>684.12005599999998</ele>
        <time>2017-06-12T12:54:27Z</time>
      </trkpt>
      <trkpt lat="42.058781376108527" lon="13.003375958651304">
        <ele>681.70996100000002</ele>
        <time>2017-06-12T12:54:40Z</time>
      </trkpt>
      <trkpt lat="42.05886360257864" lon="13.003568910062313">
        <ele>680.74993900000004</ele>
        <time>2017-06-12T12:54:54Z</time>
      </trkpt>
      <trkpt lat="42.05895739607513" lon="13.00375834107399">
        <ele>682.19000200000005</ele>
        <time>2017-06-12T12:55:08Z</time>
      </trkpt>
      <trkpt lat="42.058962676674128" lon="13.003769405186176">
        <ele>682.19000200000005</ele>
        <time>2017-06-12T12:55:09Z</time>
      </trkpt>
      <trkpt lat="42.05903023481369" lon="13.004000326618552">
        <ele>682.669983</ele>
        <time>2017-06-12T12:55:24Z</time>
      </trkpt>
      <trkpt lat="42.059045238420367" lon="13.004089090973139">
        <ele>681.22997999999995</ele>
        <time>2017-06-12T12:55:29Z</time>
      </trkpt>
      <trkpt lat="42.059117490425706" lon="13.004153715446591">
        <ele>678.35003700000004</ele>
        <time>2017-06-12T12:55:44Z</time>
      </trkpt>
      <trkpt lat="42.059205081313848" lon="13.004185315221548">
        <ele>675.46002199999998</ele>
        <time>2017-06-12T12:55:57Z</time>
      </trkpt>
      <trkpt lat="42.059275740757585" lon="13.004184141755104">
        <ele>672.57995600000004</ele>
        <time>2017-06-12T12:56:13Z</time>
      </trkpt>
      <trkpt lat="42.059358805418015" lon="13.004202833399177">
        <ele>669.70001200000002</ele>
        <time>2017-06-12T12:56:30Z</time>
      </trkpt>
      <trkpt lat="42.059435499832034" lon="13.004300985485315">
        <ele>666.80999799999995</ele>
        <time>2017-06-12T12:56:46Z</time>
      </trkpt>
      <trkpt lat="42.059378670528531" lon="13.004380613565445">
        <ele>663.92999299999997</ele>
        <time>2017-06-12T12:57:01Z</time>
      </trkpt>
      <trkpt lat="42.05935369245708" lon="13.004417661577463">
        <ele>662.96997099999999</ele>
        <time>2017-06-12T12:57:06Z</time>
      </trkpt>
      <trkpt lat="42.059250259771943" lon="13.004515897482634">
        <ele>660.55999799999995</ele>
        <time>2017-06-12T12:57:21Z</time>
      </trkpt>
      <trkpt lat="42.059234334155917" lon="13.004544982686639">
        <ele>659.12005599999998</ele>
        <time>2017-06-12T12:57:25Z</time>
      </trkpt>
      <trkpt lat="42.059195777401328" lon="13.004612205550075">
        <ele>657.20001200000002</ele>
        <time>2017-06-12T12:57:34Z</time>
      </trkpt>
      <trkpt lat="42.059151101857424" lon="13.004679260775447">
        <ele>655.76000999999997</ele>
        <time>2017-06-12T12:57:42Z</time>
      </trkpt>
      <trkpt lat="42.058999137952924" lon="13.00477716140449">
        <ele>652.86999500000002</ele>
        <time>2017-06-12T12:57:58Z</time>
      </trkpt>
      <trkpt lat="42.05897550098598" lon="13.004805995151401">
        <ele>651.90997300000004</ele>
        <time>2017-06-12T12:58:01Z</time>
      </trkpt>
      <trkpt lat="42.058969801291823" lon="13.004845222458243">
        <ele>651.42999299999997</ele>
        <time>2017-06-12T12:58:04Z</time>
      </trkpt>
      <trkpt lat="42.058972986415029" lon="13.004922587424517">
        <ele>649.50994900000001</ele>
        <time>2017-06-12T12:58:10Z</time>
      </trkpt>
      <trkpt lat="42.058957563713193" lon="13.004984194412827">
        <ele>648.55004899999994</ele>
        <time>2017-06-12T12:58:14Z</time>
      </trkpt>
      <trkpt lat="42.0589589048177" lon="13.005017805844545">
        <ele>648.07000700000003</ele>
        <time>2017-06-12T12:58:16Z</time>
      </trkpt>
      <trkpt lat="42.058986984193325" lon="13.005141690373421">
        <ele>645.17999299999997</ele>
        <time>2017-06-12T12:58:28Z</time>
      </trkpt>
      <trkpt lat="42.059083124622703" lon="13.005155436694622">
        <ele>642.77996800000005</ele>
        <time>2017-06-12T12:58:40Z</time>
      </trkpt>
      <trkpt lat="42.059145234525204" lon="13.005036329850554">
        <ele>639.40997300000004</ele>
        <time>2017-06-12T12:58:52Z</time>
      </trkpt>
      <trkpt lat="42.05919929780066" lon="13.005029624328017">
        <ele>637.00994900000001</ele>
        <time>2017-06-12T12:58:59Z</time>
      </trkpt>
      <trkpt lat="42.059276159852743" lon="13.005038760602474">
        <ele>636.05004899999994</ele>
        <time>2017-06-12T12:59:05Z</time>
      </trkpt>
      <trkpt lat="42.059407336637378" lon="13.005030965432525">
        <ele>632.20001200000002</ele>
        <time>2017-06-12T12:59:23Z</time>
      </trkpt>
      <trkpt lat="42.059441031888127" lon="13.005156693980098">
        <ele>629.32000700000003</ele>
        <time>2017-06-12T12:59:36Z</time>
      </trkpt>
      <trkpt lat="42.059412617236376" lon="13.005182761698961">
        <ele>628.839966</ele>
        <time>2017-06-12T12:59:39Z</time>
      </trkpt>
      <trkpt lat="42.059382358565927" lon="13.005184018984437">
        <ele>627.87994400000002</ele>
        <time>2017-06-12T12:59:42Z</time>
      </trkpt>
      <trkpt lat="42.059379341080785" lon="13.005287619307637">
        <ele>624.50994900000001</ele>
        <time>2017-06-12T12:59:55Z</time>
      </trkpt>
      <trkpt lat="42.059385040774941" lon="13.005326511338353">
        <ele>623.54998799999998</ele>
        <time>2017-06-12T13:00:09Z</time>
      </trkpt>
      <trkpt lat="42.05937079153955" lon="13.005470428615808">
        <ele>620.669983</ele>
        <time>2017-06-12T13:00:23Z</time>
      </trkpt>
      <trkpt lat="42.059287559241056" lon="13.005669079720974">
        <ele>618.26000999999997</ele>
        <time>2017-06-12T13:00:37Z</time>
      </trkpt>
      <trkpt lat="42.059258725494146" lon="13.005715180188417">
        <ele>618.26000999999997</ele>
        <time>2017-06-12T13:00:41Z</time>
      </trkpt>
      <trkpt lat="42.059148922562599" lon="13.005872005596757">
        <ele>616.82000700000003</ele>
        <time>2017-06-12T13:00:54Z</time>
      </trkpt>
      <trkpt lat="42.059127883985639" lon="13.005902683362365">
        <ele>615.85998500000005</ele>
        <time>2017-06-12T13:00:57Z</time>
      </trkpt>
      <trkpt lat="42.059104330837727" lon="13.00598256289959">
        <ele>614.89996299999996</ele>
        <time>2017-06-12T13:01:02Z</time>
      </trkpt>
      <trkpt lat="42.059091590344906" lon="13.006006786599755">
        <ele>613.94000200000005</ele>
        <time>2017-06-12T13:01:04Z</time>
      </trkpt>
      <trkpt lat="42.059051021933556" lon="13.006034279242158">
        <ele>612.97997999999995</ele>
        <time>2017-06-12T13:01:08Z</time>
      </trkpt>
      <trkpt lat="42.058963431045413" lon="13.006182806566358">
        <ele>611.54003899999998</ele>
        <time>2017-06-12T13:01:21Z</time>
      </trkpt>
      <trkpt lat="42.058882797136903" lon="13.006246676668525">
        <ele>608.169983</ele>
        <time>2017-06-12T13:01:31Z</time>
      </trkpt>
      <trkpt lat="42.058772575110197" lon="13.006331417709589">
        <ele>605.29003899999998</ele>
        <time>2017-06-12T13:01:45Z</time>
      </trkpt>
      <trkpt lat="42.058737706393003" lon="13.00641993060708">
        <ele>602.39996299999996</ele>
        <time>2017-06-12T13:01:58Z</time>
      </trkpt>
      <trkpt lat="42.058736784383655" lon="13.006429988890886">
        <ele>602.39996299999996</ele>
        <time>2017-06-12T13:01:59Z</time>
      </trkpt>
      <trkpt lat="42.058580797165632" lon="13.006550772115588">
        <ele>600.96002199999998</ele>
        <time>2017-06-12T13:02:14Z</time>
      </trkpt>
      <trkpt lat="42.058432940393686" lon="13.006655462086201">
        <ele>598.55999799999995</ele>
        <time>2017-06-12T13:02:29Z</time>
      </trkpt>
      <trkpt lat="42.058399412781" lon="13.006673902273178">
        <ele>598.55999799999995</ele>
        <time>2017-06-12T13:02:34Z</time>
      </trkpt>
      <trkpt lat="42.058377536013722" lon="13.006676668301225">
        <ele>598.55999799999995</ele>
        <time>2017-06-12T13:02:36Z</time>
      </trkpt>
      <trkpt lat="42.058345265686512" lon="13.006705334410071">
        <ele>600</ele>
        <time>2017-06-12T13:02:39Z</time>
      </trkpt>
      <trkpt lat="42.058302266523242" lon="13.006797200068831">
        <ele>601.44000200000005</ele>
        <time>2017-06-12T13:02:48Z</time>
      </trkpt>
      <trkpt lat="42.058252897113562" lon="13.006909769028425">
        <ele>603.35998500000005</ele>
        <time>2017-06-12T13:02:58Z</time>
      </trkpt>
      <trkpt lat="42.058224398642778" lon="13.007016805931926">
        <ele>601.44000200000005</ele>
        <time>2017-06-12T13:03:06Z</time>
      </trkpt>
      <trkpt lat="42.058216519653797" lon="13.00713867880404">
        <ele>600.47997999999995</ele>
        <time>2017-06-12T13:03:15Z</time>
      </trkpt>
      <trkpt lat="42.058233786374331" lon="13.007291061803699">
        <ele>599.04003899999998</ele>
        <time>2017-06-12T13:03:27Z</time>
      </trkpt>
      <trkpt lat="42.058257339522243" lon="13.00740203820169">
        <ele>598.080017</ele>
        <time>2017-06-12T13:03:34Z</time>
      </trkpt>
      <trkpt lat="42.058246778324246" lon="13.007570262998343">
        <ele>596.64001499999995</ele>
        <time>2017-06-12T13:03:46Z</time>
      </trkpt>
      <trkpt lat="42.058234037831426" lon="13.007610328495502">
        <ele>596.64001499999995</ele>
        <time>2017-06-12T13:03:50Z</time>
      </trkpt>
      <trkpt lat="42.058149799704552" lon="13.00792733207345">
        <ele>594.71002199999998</ele>
        <time>2017-06-12T13:04:05Z</time>
      </trkpt>
      <trkpt lat="42.058126162737608" lon="13.008002769201994">
        <ele>594.22997999999995</ele>
        <time>2017-06-12T13:04:09Z</time>
      </trkpt>
      <trkpt lat="42.058134460821748" lon="13.008132437244058">
        <ele>593.26995799999997</ele>
        <time>2017-06-12T13:04:15Z</time>
      </trkpt>
      <trkpt lat="42.058143094182014" lon="13.008246598765254">
        <ele>591.830017</ele>
        <time>2017-06-12T13:04:22Z</time>
      </trkpt>
      <trkpt lat="42.058127084746957" lon="13.008311558514833">
        <ele>590.86999500000002</ele>
        <time>2017-06-12T13:04:26Z</time>
      </trkpt>
      <trkpt lat="42.058123229071498" lon="13.008342320099473">
        <ele>590.39001499999995</ele>
        <time>2017-06-12T13:04:28Z</time>
      </trkpt>
      <trkpt lat="42.058139406144619" lon="13.00852102227509">
        <ele>589.90997300000004</ele>
        <time>2017-06-12T13:04:41Z</time>
      </trkpt>
      <trkpt lat="42.058149464428425" lon="13.008547341451049">
        <ele>589.90997300000004</ele>
        <time>2017-06-12T13:04:43Z</time>
      </trkpt>
      <trkpt lat="42.058114428073168" lon="13.008822603151202">
        <ele>589.90997300000004</ele>
        <time>2017-06-12T13:04:57Z</time>
      </trkpt>
      <trkpt lat="42.058084504678845" lon="13.009109934791923">
        <ele>589.90997300000004</ele>
        <time>2017-06-12T13:05:10Z</time>
      </trkpt>
      <trkpt lat="42.058021640405059" lon="13.00932333804667">
        <ele>589.90997300000004</ele>
        <time>2017-06-12T13:05:24Z</time>
      </trkpt>
      <trkpt lat="42.057999512180686" lon="13.009428279474378">
        <ele>589.90997300000004</ele>
        <time>2017-06-12T13:05:32Z</time>
      </trkpt>
      <trkpt lat="42.057982664555311" lon="13.009495921432972">
        <ele>589.42999299999997</ele>
        <time>2017-06-12T13:05:37Z</time>
      </trkpt>
      <trkpt lat="42.058037733659148" lon="13.009829185903072">
        <ele>588.95001200000002</ele>
        <time>2017-06-12T13:05:53Z</time>
      </trkpt>
      <trkpt lat="42.05808131955564" lon="13.010156834498048">
        <ele>587.01995799999997</ele>
        <time>2017-06-12T13:06:09Z</time>
      </trkpt>
      <trkpt lat="42.058144602924585" lon="13.010415332391858">
        <ele>587.01995799999997</ele>
        <time>2017-06-12T13:06:24Z</time>
      </trkpt>
      <trkpt lat="42.05816438421607" lon="13.010563272982836">
        <ele>586.54003899999998</ele>
        <time>2017-06-12T13:06:31Z</time>
      </trkpt>
      <trkpt lat="42.058143513277173" lon="13.010631585493684">
        <ele>586.54003899999998</ele>
        <time>2017-06-12T13:06:35Z</time>
      </trkpt>
      <trkpt lat="42.058103363960981" lon="13.010715572163463">
        <ele>586.54003899999998</ele>
        <time>2017-06-12T13:06:48Z</time>
      </trkpt>
      <trkpt lat="42.058101687580347" lon="13.010710040107369">
        <ele>586.54003899999998</ele>
        <time>2017-06-12T13:07:16Z</time>
      </trkpt>
      <trkpt lat="42.05810378305614" lon="13.010750859975815">
        <ele>586.54003899999998</ele>
        <time>2017-06-12T13:07:38Z</time>
      </trkpt>
      <trkpt lat="42.058118032291532" lon="13.010774916037917">
        <ele>586.54003899999998</ele>
        <time>2017-06-12T13:07:55Z</time>
      </trkpt>
      <trkpt lat="42.058109901845455" lon="13.010747758671641">
        <ele>586.54003899999998</ele>
        <time>2017-06-12T13:08:15Z</time>
      </trkpt>
      <trkpt lat="42.058061035349965" lon="13.010903662070632">
        <ele>586.54003899999998</ele>
        <time>2017-06-12T13:08:27Z</time>
      </trkpt>
      <trkpt lat="42.058004038408399" lon="13.01124514080584">
        <ele>586.54003899999998</ele>
        <time>2017-06-12T13:08:44Z</time>
      </trkpt>
      <trkpt lat="42.057937234640121" lon="13.011489221826196">
        <ele>586.54003899999998</ele>
        <time>2017-06-12T13:08:59Z</time>
      </trkpt>
      <trkpt lat="42.057932876050472" lon="13.011504309251904">
        <ele>587.97997999999995</ele>
        <time>2017-06-12T13:09:00Z</time>
      </trkpt>
      <trkpt lat="42.057862300425768" lon="13.011637665331364">
        <ele>588.95001200000002</ele>
        <time>2017-06-12T13:09:13Z</time>
      </trkpt>
      <trkpt lat="42.05784922465682" lon="13.011668007820845">
        <ele>588.95001200000002</ele>
        <time>2017-06-12T13:09:17Z</time>
      </trkpt>
      <trkpt lat="42.057853918522596" lon="13.011704385280609">
        <ele>589.42999299999997</ele>
        <time>2017-06-12T13:09:29Z</time>
      </trkpt>
      <trkpt lat="42.057848135009408" lon="13.011754341423512">
        <ele>589.42999299999997</ele>
        <time>2017-06-12T13:09:36Z</time>
      </trkpt>
      <trkpt lat="42.057763477787375" lon="13.011924074962735">
        <ele>589.42999299999997</ele>
        <time>2017-06-12T13:09:48Z</time>
      </trkpt>
      <trkpt lat="42.057739840820432" lon="13.011939497664571">
        <ele>588.46002199999998</ele>
        <time>2017-06-12T13:09:50Z</time>
      </trkpt>
      <trkpt lat="42.057593325152993" lon="13.012023232877254">
        <ele>587.01995799999997</ele>
        <time>2017-06-12T13:10:05Z</time>
      </trkpt>
      <trkpt lat="42.057529119774699" lon="13.012064639478922">
        <ele>586.54003899999998</ele>
        <time>2017-06-12T13:10:12Z</time>
      </trkpt>
      <trkpt lat="42.057393165305257" lon="13.012234792113304">
        <ele>585.09997599999997</ele>
        <time>2017-06-12T13:10:29Z</time>
      </trkpt>
      <trkpt lat="42.057241871953011" lon="13.012489518150687">
        <ele>584.61999500000002</ele>
        <time>2017-06-12T13:10:47Z</time>
      </trkpt>
      <trkpt lat="42.057171715423465" lon="13.012771988287568">
        <ele>583.17999299999997</ele>
        <time>2017-06-12T13:11:04Z</time>
      </trkpt>
      <trkpt lat="42.057078424841166" lon="13.012953540310264">
        <ele>582.70001200000002</ele>
        <time>2017-06-12T13:11:18Z</time>
      </trkpt>
      <trkpt lat="42.056950433179736" lon="13.013224527239799">
        <ele>582.22003199999995</ele>
        <time>2017-06-12T13:11:35Z</time>
      </trkpt>
      <trkpt lat="42.056794781237841" lon="13.013347908854485">
        <ele>580.76995799999997</ele>
        <time>2017-06-12T13:11:48Z</time>
      </trkpt>
      <trkpt lat="42.056649774312973" lon="13.013374982401729">
        <ele>579.80999799999995</ele>
        <time>2017-06-12T13:11:58Z</time>
      </trkpt>
      <trkpt lat="42.056519268080592" lon="13.013564329594374">
        <ele>579.330017</ele>
        <time>2017-06-12T13:12:13Z</time>
      </trkpt>
      <trkpt lat="42.056563859805465" lon="13.013677233830094">
        <ele>579.330017</ele>
        <time>2017-06-12T13:12:20Z</time>
      </trkpt>
      <trkpt lat="42.056586826220155" lon="13.013741690665483">
        <ele>580.76995799999997</ele>
        <time>2017-06-12T13:12:25Z</time>
      </trkpt>
      <trkpt lat="42.056632004678249" lon="13.013809081166983">
        <ele>581.72997999999995</ele>
        <time>2017-06-12T13:12:36Z</time>
      </trkpt>
      <trkpt lat="42.056581629440188" lon="13.013947298750281">
        <ele>581.25</ele>
        <time>2017-06-12T13:12:47Z</time>
      </trkpt>
      <trkpt lat="42.056605685502291" lon="13.013953501358628">
        <ele>580.29003899999998</ele>
        <time>2017-06-12T13:13:02Z</time>
      </trkpt>
      <trkpt lat="42.056645834818482" lon="13.013989459723234">
        <ele>580.29003899999998</ele>
        <time>2017-06-12T13:13:14Z</time>
      </trkpt>
      <trkpt lat="42.056701574474573" lon="13.01403472200036">
        <ele>581.25</ele>
        <time>2017-06-12T13:13:25Z</time>
      </trkpt>
      <trkpt lat="42.056698640808463" lon="13.014039164409041">
        <ele>581.25</ele>
        <time>2017-06-12T13:13:40Z</time>
      </trkpt>
      <trkpt lat="42.056677769869566" lon="13.014049222692847">
        <ele>581.25</ele>
        <time>2017-06-12T13:14:14Z</time>
      </trkpt>
      <trkpt lat="42.056703334674239" lon="13.014052994549274">
        <ele>581.72997999999995</ele>
        <time>2017-06-12T13:14:37Z</time>
      </trkpt>
      <trkpt lat="42.056729989126325" lon="13.014073697850108">
        <ele>581.72997999999995</ele>
        <time>2017-06-12T13:14:50Z</time>
      </trkpt>
      <trkpt lat="42.056726636365056" lon="13.014083337038755">
        <ele>581.72997999999995</ele>
        <time>2017-06-12T13:15:01Z</time>
      </trkpt>
      <trkpt lat="42.056753039360046" lon="13.014177465811372">
        <ele>580.29003899999998</ele>
        <time>2017-06-12T13:15:09Z</time>
      </trkpt>
      <trkpt lat="42.05678841099143" lon="13.014310738071799">
        <ele>578.36999500000002</ele>
        <time>2017-06-12T13:15:26Z</time>
      </trkpt>
      <trkpt lat="42.056797295808792" lon="13.014339739456773">
        <ele>578.36999500000002</ele>
        <time>2017-06-12T13:15:29Z</time>
      </trkpt>
      <trkpt lat="42.056825459003448" lon="13.014430431649089">
        <ele>577.89001499999995</ele>
        <time>2017-06-12T13:15:35Z</time>
      </trkpt>
      <trkpt lat="42.056857226416469" lon="13.014496564865112">
        <ele>577.89001499999995</ele>
        <time>2017-06-12T13:15:40Z</time>
      </trkpt>
      <trkpt lat="42.056864937767386" lon="13.014540066942573">
        <ele>577.40997300000004</ele>
        <time>2017-06-12T13:15:43Z</time>
      </trkpt>
      <trkpt lat="42.056784890592098" lon="13.014652635902166">
        <ele>579.330017</ele>
        <time>2017-06-12T13:15:55Z</time>
      </trkpt>
      <trkpt lat="42.056664358824492" lon="13.014822034165263">
        <ele>580.76995799999997</ele>
        <time>2017-06-12T13:16:11Z</time>
      </trkpt>
      <trkpt lat="42.056597806513309" lon="13.014932340011001">
        <ele>582.22003199999995</ele>
        <time>2017-06-12T13:16:21Z</time>
      </trkpt>
      <trkpt lat="42.056590262800455" lon="13.014978524297476">
        <ele>582.22003199999995</ele>
        <time>2017-06-12T13:16:24Z</time>
      </trkpt>
      <trkpt lat="42.056520190089941" lon="13.015081705525517">
        <ele>583.17999299999997</ele>
        <time>2017-06-12T13:16:38Z</time>
      </trkpt>
      <trkpt lat="42.056417260318995" lon="13.015232076868415">
        <ele>586.05999799999995</ele>
        <time>2017-06-12T13:16:53Z</time>
      </trkpt>
      <trkpt lat="42.056408962234855" lon="13.015267280861735">
        <ele>586.54003899999998</ele>
        <time>2017-06-12T13:16:58Z</time>
      </trkpt>
      <trkpt lat="42.056434191763401" lon="13.015565006062388">
        <ele>586.54003899999998</ele>
        <time>2017-06-12T13:17:16Z</time>
      </trkpt>
      <trkpt lat="42.056329920887947" lon="13.015643963590264">
        <ele>589.42999299999997</ele>
        <time>2017-06-12T13:17:29Z</time>
      </trkpt>
      <trkpt lat="42.056305194273591" lon="13.015634659677744">
        <ele>589.42999299999997</ele>
        <time>2017-06-12T13:17:44Z</time>
      </trkpt>
      <trkpt lat="42.056237468495965" lon="13.015624098479748">
        <ele>590.86999500000002</ele>
        <time>2017-06-12T13:18:00Z</time>
      </trkpt>
      <trkpt lat="42.056163959205151" lon="13.015633737668395">
        <ele>592.79003899999998</ele>
        <time>2017-06-12T13:18:07Z</time>
      </trkpt>
      <trkpt lat="42.056133868172765" lon="13.015658296644688">
        <ele>590.86999500000002</ele>
        <time>2017-06-12T13:18:10Z</time>
      </trkpt>
      <trkpt lat="42.056092293933034" lon="13.015707498416305">
        <ele>593.75</ele>
        <time>2017-06-12T13:18:16Z</time>
      </trkpt>
      <trkpt lat="42.056034039705992" lon="13.015784025192261">
        <ele>595.19000200000005</ele>
        <time>2017-06-12T13:18:25Z</time>
      </trkpt>
      <trkpt lat="42.055938234552741" lon="13.015803303569555">
        <ele>596.14996299999996</ele>
        <time>2017-06-12T13:18:36Z</time>
      </trkpt>
      <trkpt lat="42.055834131315351" lon="13.015846386551857">
        <ele>596.14996299999996</ele>
        <time>2017-06-12T13:18:49Z</time>
      </trkpt>
      <trkpt lat="42.05574419349432" lon="13.015831634402275">
        <ele>596.14996299999996</ele>
        <time>2017-06-12T13:18:59Z</time>
      </trkpt>
      <trkpt lat="42.055660123005509" lon="13.015815373510122">
        <ele>594.71002199999998</ele>
        <time>2017-06-12T13:19:08Z</time>
      </trkpt>
      <trkpt lat="42.05557806417346" lon="13.015849739313126">
        <ele>594.22997999999995</ele>
        <time>2017-06-12T13:19:19Z</time>
      </trkpt>
      <trkpt lat="42.055531293153763" lon="13.015914615243673">
        <ele>595.669983</ele>
        <time>2017-06-12T13:19:23Z</time>
      </trkpt>
      <trkpt lat="42.055435236543417" lon="13.016005977988243">
        <ele>595.669983</ele>
        <time>2017-06-12T13:19:35Z</time>
      </trkpt>
      <trkpt lat="42.055376898497343" lon="13.016018634662032">
        <ele>595.19000200000005</ele>
        <time>2017-06-12T13:19:42Z</time>
      </trkpt>
      <trkpt lat="42.055227532982826" lon="13.015967169776559">
        <ele>597.59997599999997</ele>
        <time>2017-06-12T13:19:55Z</time>
      </trkpt>
      <trkpt lat="42.05507573671639" lon="13.015881758183241">
        <ele>598.080017</ele>
        <time>2017-06-12T13:20:08Z</time>
      </trkpt>
      <trkpt lat="42.054945062845945" lon="13.015830963850021">
        <ele>599.04003899999998</ele>
        <time>2017-06-12T13:20:20Z</time>
      </trkpt>
      <trkpt lat="42.054886138066649" lon="13.015833059325814">
        <ele>600.96002199999998</ele>
        <time>2017-06-12T13:20:28Z</time>
      </trkpt>
      <trkpt lat="42.054857304319739" lon="13.015830712392926">
        <ele>601.44000200000005</ele>
        <time>2017-06-12T13:20:42Z</time>
      </trkpt>
      <trkpt lat="42.054703999310732" lon="13.015825934708118">
        <ele>602.88000499999998</ele>
        <time>2017-06-12T13:20:56Z</time>
      </trkpt>
      <trkpt lat="42.054561171680689" lon="13.015879159793258">
        <ele>604.80999799999995</ele>
        <time>2017-06-12T13:21:10Z</time>
      </trkpt>
      <trkpt lat="42.054423624649644" lon="13.015961134806275">
        <ele>606.25</ele>
        <time>2017-06-12T13:21:24Z</time>
      </trkpt>
      <trkpt lat="42.054329328238964" lon="13.015999188646674">
        <ele>607.21002199999998</ele>
        <time>2017-06-12T13:21:37Z</time>
      </trkpt>
      <trkpt lat="42.054229583591223" lon="13.016062639653683">
        <ele>607.69000200000005</ele>
        <time>2017-06-12T13:21:49Z</time>
      </trkpt>
      <trkpt lat="42.054203515872359" lon="13.016082001850009">
        <ele>607.69000200000005</ele>
        <time>2017-06-12T13:21:53Z</time>
      </trkpt>
      <trkpt lat="42.054074266925454" lon="13.016234636306763">
        <ele>609.13000499999998</ele>
        <time>2017-06-12T13:22:07Z</time>
      </trkpt>
      <trkpt lat="42.054014839231968" lon="13.016322562471032">
        <ele>610.09002699999996</ele>
        <time>2017-06-12T13:22:20Z</time>
      </trkpt>
      <trkpt lat="42.053896319121122" lon="13.016468407586217">
        <ele>611.54003899999998</ele>
        <time>2017-06-12T13:22:34Z</time>
      </trkpt>
      <trkpt lat="42.053885338827968" lon="13.016480309888721">
        <ele>612.01995799999997</ele>
        <time>2017-06-12T13:22:36Z</time>
      </trkpt>
      <trkpt lat="42.053809482604265" lon="13.016655491665006">
        <ele>612.01995799999997</ele>
        <time>2017-06-12T13:22:53Z</time>
      </trkpt>
      <trkpt lat="42.053731698542833" lon="13.016838300973177">
        <ele>612.01995799999997</ele>
        <time>2017-06-12T13:23:08Z</time>
      </trkpt>
      <trkpt lat="42.053704541176558" lon="13.017080370336771">
        <ele>612.01995799999997</ele>
        <time>2017-06-12T13:23:23Z</time>
      </trkpt>
      <trkpt lat="42.053672773763537" lon="13.01722789183259">
        <ele>612.01995799999997</ele>
        <time>2017-06-12T13:23:34Z</time>
      </trkpt>
      <trkpt lat="42.053658021613955" lon="13.017267789691687">
        <ele>610.57000700000003</ele>
        <time>2017-06-12T13:23:36Z</time>
      </trkpt>
      <trkpt lat="42.053612340241671" lon="13.017307436093688">
        <ele>610.57000700000003</ele>
        <time>2017-06-12T13:23:43Z</time>
      </trkpt>
      <trkpt lat="42.0535175409168" lon="13.017377005890012">
        <ele>612.01995799999997</ele>
        <time>2017-06-12T13:23:54Z</time>
      </trkpt>
      <trkpt lat="42.053436236456037" lon="13.017401564866304">
        <ele>612.01995799999997</ele>
        <time>2017-06-12T13:24:03Z</time>
      </trkpt>
      <trkpt lat="42.053327187895775" lon="13.017335180193186">
        <ele>612.97997999999995</ele>
        <time>2017-06-12T13:24:14Z</time>
      </trkpt>
      <trkpt lat="42.053236914798617" lon="13.017343478277326">
        <ele>615.85998500000005</ele>
        <time>2017-06-12T13:24:24Z</time>
      </trkpt>
      <trkpt lat="42.053225766867399" lon="13.017339538782835">
        <ele>615.85998500000005</ele>
        <time>2017-06-12T13:24:25Z</time>
      </trkpt>
      <trkpt lat="42.053170194849372" lon="13.017317662015557">
        <ele>617.78002900000001</ele>
        <time>2017-06-12T13:24:31Z</time>
      </trkpt>
      <trkpt lat="42.053052680566907" lon="13.017282541841269">
        <ele>619.22997999999995</ele>
        <time>2017-06-12T13:24:44Z</time>
      </trkpt>
      <trkpt lat="42.052988978102803" lon="13.01727868616581">
        <ele>620.19000200000005</ele>
        <time>2017-06-12T13:24:52Z</time>
      </trkpt>
      <trkpt lat="42.052907338365912" lon="13.017296958714724">
        <ele>622.59002699999996</ele>
        <time>2017-06-12T13:25:04Z</time>
      </trkpt>
      <trkpt lat="42.052898705005646" lon="13.017293605953455">
        <ele>622.59002699999996</ele>
        <time>2017-06-12T13:25:05Z</time>
      </trkpt>
      <trkpt lat="42.052827123552561" lon="13.017284888774157">
        <ele>624.50994900000001</ele>
        <time>2017-06-12T13:25:16Z</time>
      </trkpt>
      <trkpt lat="42.052723187953234" lon="13.01724842749536">
        <ele>626.44000200000005</ele>
        <time>2017-06-12T13:25:27Z</time>
      </trkpt>
      <trkpt lat="42.052716230973601" lon="13.017245158553123">
        <ele>626.44000200000005</ele>
        <time>2017-06-12T13:25:28Z</time>
      </trkpt>
      <trkpt lat="42.052639871835709" lon="13.017251696437597">
        <ele>628.35998500000005</ele>
        <time>2017-06-12T13:25:39Z</time>
      </trkpt>
      <trkpt lat="42.052592681720853" lon="13.017245410010219">
        <ele>629.79998799999998</ele>
        <time>2017-06-12T13:25:47Z</time>
      </trkpt>
      <trkpt lat="42.052561668679118" lon="13.017247840762138">
        <ele>631.23999000000003</ele>
        <time>2017-06-12T13:25:53Z</time>
      </trkpt>
      <trkpt lat="42.052475335076451" lon="13.017199896275997">
        <ele>633.65002400000003</ele>
        <time>2017-06-12T13:26:05Z</time>
      </trkpt>
      <trkpt lat="42.052438203245401" lon="13.017172571271658">
        <ele>634.13000499999998</ele>
        <time>2017-06-12T13:26:10Z</time>
      </trkpt>
      <trkpt lat="42.052415236830711" lon="13.017164608463645">
        <ele>635.57000700000003</ele>
        <time>2017-06-12T13:26:22Z</time>
      </trkpt>
      <trkpt lat="42.052416829392314" lon="13.017133008688688">
        <ele>635.57000700000003</ele>
        <time>2017-06-12T13:26:49Z</time>
      </trkpt>
      <trkpt lat="42.052348265424371" lon="13.017139965668321">
        <ele>635.57000700000003</ele>
        <time>2017-06-12T13:27:04Z</time>
      </trkpt>
      <trkpt lat="42.05228716135025" lon="13.017120435833931">
        <ele>636.53002900000001</ele>
        <time>2017-06-12T13:27:10Z</time>
      </trkpt>
      <trkpt lat="42.052173838019371" lon="13.017090260982513">
        <ele>637.96997099999999</ele>
        <time>2017-06-12T13:27:21Z</time>
      </trkpt>
      <trkpt lat="42.052165707573295" lon="13.017091937363148">
        <ele>637.96997099999999</ele>
        <time>2017-06-12T13:27:22Z</time>
      </trkpt>
      <trkpt lat="42.052080212160945" lon="13.017077771946788">
        <ele>639.40997300000004</ele>
        <time>2017-06-12T13:27:33Z</time>
      </trkpt>
      <trkpt lat="42.051945934072137" lon="13.016955312341452">
        <ele>639.40997300000004</ele>
        <time>2017-06-12T13:27:49Z</time>
      </trkpt>
      <trkpt lat="42.051908299326897" lon="13.016937710344791">
        <ele>639.40997300000004</ele>
        <time>2017-06-12T13:27:53Z</time>
      </trkpt>
      <trkpt lat="42.051855912432075" lon="13.016930921003222">
        <ele>639.89001499999995</ele>
        <time>2017-06-12T13:27:59Z</time>
      </trkpt>
      <trkpt lat="42.051853565499187" lon="13.016908289864659">
        <ele>640.37994400000002</ele>
        <time>2017-06-12T13:28:09Z</time>
      </trkpt>
      <trkpt lat="42.051854906603694" lon="13.016889682039618">
        <ele>640.85998500000005</ele>
        <time>2017-06-12T13:28:32Z</time>
      </trkpt>
      <trkpt lat="42.051848787814379" lon="13.01688733510673">
        <ele>640.85998500000005</ele>
        <time>2017-06-12T13:28:34Z</time>
      </trkpt>
      <trkpt lat="42.051721131429076" lon="13.016853472217917">
        <ele>639.89001499999995</ele>
        <time>2017-06-12T13:28:49Z</time>
      </trkpt>
      <trkpt lat="42.051655165851116" lon="13.016851712018251">
        <ele>641.339966</ele>
        <time>2017-06-12T13:28:55Z</time>
      </trkpt>
      <trkpt lat="42.051555840298533" lon="13.016856238245964">
        <ele>642.77996800000005</ele>
        <time>2017-06-12T13:29:09Z</time>
      </trkpt>
      <trkpt lat="42.051385939121246" lon="13.016826985403895">
        <ele>643.73999000000003</ele>
        <time>2017-06-12T13:29:25Z</time>
      </trkpt>
      <trkpt lat="42.051224503666162" lon="13.016734197735786">
        <ele>643.73999000000003</ele>
        <time>2017-06-12T13:29:41Z</time>
      </trkpt>
      <trkpt lat="42.051094081252813" lon="13.016633028164506">
        <ele>645.17999299999997</ele>
        <time>2017-06-12T13:29:54Z</time>
      </trkpt>
      <trkpt lat="42.050986206158996" lon="13.016608133912086">
        <ele>645.17999299999997</ele>
        <time>2017-06-12T13:30:04Z</time>
      </trkpt>
      <trkpt lat="42.050804235041142" lon="13.016627160832286">
        <ele>646.13995399999999</ele>
        <time>2017-06-12T13:30:21Z</time>
      </trkpt>
      <trkpt lat="42.050781771540642" lon="13.016626574099064">
        <ele>646.13995399999999</ele>
        <time>2017-06-12T13:30:23Z</time>
      </trkpt>
      <trkpt lat="42.050756458193064" lon="13.016619784757495">
        <ele>647.09997599999997</ele>
        <time>2017-06-12T13:30:34Z</time>
      </trkpt>
      <trkpt lat="42.050747573375702" lon="13.016619365662336">
        <ele>647.09997599999997</ele>
        <time>2017-06-12T13:30:47Z</time>
      </trkpt>
      <trkpt lat="42.050661658868194" lon="13.016603104770184">
        <ele>647.59002699999996</ele>
        <time>2017-06-12T13:30:58Z</time>
      </trkpt>
      <trkpt lat="42.050610696896911" lon="13.016636883839965">
        <ele>648.55004899999994</ele>
        <time>2017-06-12T13:31:13Z</time>
      </trkpt>
      <trkpt lat="42.05059208907187" lon="13.016645601019263">
        <ele>649.03002900000001</ele>
        <time>2017-06-12T13:31:25Z</time>
      </trkpt>
      <trkpt lat="42.050585467368364" lon="13.016741573810577">
        <ele>650.46997099999999</ele>
        <time>2017-06-12T13:31:38Z</time>
      </trkpt>
      <trkpt lat="42.050636764615774" lon="13.016831092536449">
        <ele>652.86999500000002</ele>
        <time>2017-06-12T13:31:51Z</time>
      </trkpt>
      <trkpt lat="42.050651432946324" lon="13.016949193552136">
        <ele>655.27996800000005</ele>
        <time>2017-06-12T13:32:05Z</time>
      </trkpt>
      <trkpt lat="42.050651181489229" lon="13.01707056351006">
        <ele>657.20001200000002</ele>
        <time>2017-06-12T13:32:19Z</time>
      </trkpt>
      <trkpt lat="42.050673980265856" lon="13.017170475795865">
        <ele>659.59997599999997</ele>
        <time>2017-06-12T13:32:32Z</time>
      </trkpt>
      <trkpt lat="42.050679931417108" lon="13.017251864075661">
        <ele>661.52002000000005</ele>
        <time>2017-06-12T13:32:44Z</time>
      </trkpt>
      <trkpt lat="42.050700886175036" lon="13.017362672835588">
        <ele>663.45001200000002</ele>
        <time>2017-06-12T13:32:57Z</time>
      </trkpt>
      <trkpt lat="42.05073282122612" lon="13.017474235966802">
        <ele>665.36999500000002</ele>
        <time>2017-06-12T13:33:11Z</time>
      </trkpt>
      <trkpt lat="42.050742628052831" lon="13.017512541264296">
        <ele>666.80999799999995</ele>
        <time>2017-06-12T13:33:25Z</time>
      </trkpt>
      <trkpt lat="42.050782777369022" lon="13.017559815198183">
        <ele>668.72997999999995</ele>
        <time>2017-06-12T13:33:37Z</time>
      </trkpt>
      <trkpt lat="42.050804235041142" lon="13.017645059153438">
        <ele>670.17999299999997</ele>
        <time>2017-06-12T13:33:53Z</time>
      </trkpt>
      <trkpt lat="42.050778083503246" lon="13.01765251904726">
        <ele>670.660034</ele>
        <time>2017-06-12T13:34:20Z</time>
      </trkpt>
      <trkpt lat="42.050845725461841" lon="13.017720161005855">
        <ele>672.09997599999997</ele>
        <time>2017-06-12T13:34:39Z</time>
      </trkpt>
      <trkpt lat="42.050880007445812" lon="13.017783779650927">
        <ele>673.53997800000002</ele>
        <time>2017-06-12T13:34:51Z</time>
      </trkpt>
      <trkpt lat="42.050880594179034" lon="13.017810015007854">
        <ele>674.97997999999995</ele>
        <time>2017-06-12T13:34:55Z</time>
      </trkpt>
      <trkpt lat="42.050893167033792" lon="13.017863826826215">
        <ele>676.90997300000004</ele>
        <time>2017-06-12T13:35:11Z</time>
      </trkpt>
      <trkpt lat="42.050932226702571" lon="13.017926104366779">
        <ele>679.30999799999995</ele>
        <time>2017-06-12T13:35:23Z</time>
      </trkpt>
      <trkpt lat="42.050972711294889" lon="13.017975892871618">
        <ele>681.70996100000002</ele>
        <time>2017-06-12T13:35:38Z</time>
      </trkpt>
      <trkpt lat="42.050990061834455" lon="13.018001960590482">
        <ele>682.669983</ele>
        <time>2017-06-12T13:35:50Z</time>
      </trkpt>
      <trkpt lat="42.051017638295889" lon="13.018085863441229">
        <ele>683.63000499999998</ele>
        <time>2017-06-12T13:36:05Z</time>
      </trkpt>
      <trkpt lat="42.051035659387708" lon="13.018142441287637">
        <ele>686.03997800000002</ele>
        <time>2017-06-12T13:36:17Z</time>
      </trkpt>
      <trkpt lat="42.051082765683532" lon="13.018219135701656">
        <ele>688.44000200000005</ele>
        <time>2017-06-12T13:36:31Z</time>
      </trkpt>
      <trkpt lat="42.051123501732945" lon="13.018287532031536">
        <ele>691.330017</ele>
        <time>2017-06-12T13:36:45Z</time>
      </trkpt>
      <trkpt lat="42.051142361015081" lon="13.018365735188127">
        <ele>693.72997999999995</ele>
        <time>2017-06-12T13:36:57Z</time>
      </trkpt>
      <trkpt lat="42.051172535866499" lon="13.018412422388792">
        <ele>695.169983</ele>
        <time>2017-06-12T13:37:09Z</time>
      </trkpt>
      <trkpt lat="42.051202962175012" lon="13.018468078225851">
        <ele>697.09002699999996</ele>
        <time>2017-06-12T13:37:22Z</time>
      </trkpt>
      <trkpt lat="42.051215283572674" lon="13.018543180078268">
        <ele>700.46002199999998</ele>
        <time>2017-06-12T13:37:36Z</time>
      </trkpt>
      <trkpt lat="42.051236405968666" lon="13.018606128171086">
        <ele>702.37994400000002</ele>
        <time>2017-06-12T13:37:50Z</time>
      </trkpt>
      <trkpt lat="42.051260713487864" lon="13.01865323446691">
        <ele>704.29998799999998</ele>
        <time>2017-06-12T13:38:01Z</time>
      </trkpt>
      <trkpt lat="42.051269095391035" lon="13.018730264157057">
        <ele>706.22997999999995</ele>
        <time>2017-06-12T13:38:13Z</time>
      </trkpt>
      <trkpt lat="42.051296671852469" lon="13.018799917772412">
        <ele>708.63000499999998</ele>
        <time>2017-06-12T13:38:24Z</time>
      </trkpt>
      <trkpt lat="42.051340425387025" lon="13.018841492012143">
        <ele>710.54998799999998</ele>
        <time>2017-06-12T13:38:37Z</time>
      </trkpt>
      <trkpt lat="42.051373869180679" lon="13.018924137577415">
        <ele>713.44000200000005</ele>
        <time>2017-06-12T13:38:54Z</time>
      </trkpt>
      <trkpt lat="42.051407061517239" lon="13.018968561664224">
        <ele>714.87994400000002</ele>
        <time>2017-06-12T13:39:08Z</time>
      </trkpt>
      <trkpt lat="42.051424412056804" lon="13.019043076783419">
        <ele>717.27996800000005</ele>
        <time>2017-06-12T13:39:21Z</time>
      </trkpt>
      <trkpt lat="42.051424076780677" lon="13.019085321575403">
        <ele>718.72003199999995</ele>
        <time>2017-06-12T13:39:34Z</time>
      </trkpt>
      <trkpt lat="42.051372611895204" lon="13.019168889150023">
        <ele>721.13000499999998</ele>
        <time>2017-06-12T13:39:46Z</time>
      </trkpt>
      <trkpt lat="42.051356434822083" lon="13.019249103963375">
        <ele>722.57000700000003</ele>
        <time>2017-06-12T13:39:57Z</time>
      </trkpt>
      <trkpt lat="42.051349561661482" lon="13.019269136711955">
        <ele>722.57000700000003</ele>
        <time>2017-06-12T13:40:00Z</time>
      </trkpt>
      <trkpt lat="42.051300359889865" lon="13.019336862489581">
        <ele>724.01000999999997</ele>
        <time>2017-06-12T13:40:11Z</time>
      </trkpt>
      <trkpt lat="42.051277309656143" lon="13.019347507506609">
        <ele>724.01000999999997</ele>
        <time>2017-06-12T13:40:33Z</time>
      </trkpt>
      <trkpt lat="42.051287535578012" lon="13.019352201372385">
        <ele>724.01000999999997</ele>
        <time>2017-06-12T13:41:11Z</time>
      </trkpt>
      <trkpt lat="42.05128250643611" lon="13.01933191716671">
        <ele>723.04998799999998</ele>
        <time>2017-06-12T13:41:30Z</time>
      </trkpt>
      <trkpt lat="42.051259204745293" lon="13.019415736198425">
        <ele>723.04998799999998</ele>
        <time>2017-06-12T13:41:52Z</time>
      </trkpt>
      <trkpt lat="42.051255265250802" lon="13.019437361508608">
        <ele>724.49005099999999</ele>
        <time>2017-06-12T13:41:54Z</time>
      </trkpt>
      <trkpt lat="42.051240261644125" lon="13.019490838050842">
        <ele>724.49005099999999</ele>
        <time>2017-06-12T13:42:01Z</time>
      </trkpt>
      <trkpt lat="42.051167339086533" lon="13.019584966823459">
        <ele>723.53002900000001</ele>
        <time>2017-06-12T13:42:14Z</time>
      </trkpt>
      <trkpt lat="42.051143534481525" lon="13.019603993743658">
        <ele>722.57000700000003</ele>
        <time>2017-06-12T13:42:18Z</time>
      </trkpt>
      <trkpt lat="42.051108162850142" lon="13.019630396738648">
        <ele>722.09002699999996</ele>
        <time>2017-06-12T13:42:35Z</time>
      </trkpt>
      <trkpt lat="42.051078071817756" lon="13.019712707027793">
        <ele>721.60998500000005</ele>
        <time>2017-06-12T13:42:45Z</time>
      </trkpt>
      <trkpt lat="42.051075221970677" lon="13.019726537168026">
        <ele>721.60998500000005</ele>
        <time>2017-06-12T13:42:47Z</time>
      </trkpt>
      <trkpt lat="42.051070863381028" lon="13.019760902971029">
        <ele>722.57000700000003</ele>
        <time>2017-06-12T13:42:50Z</time>
      </trkpt>
      <trkpt lat="42.051064325496554" lon="13.019825275987387">
        <ele>723.53002900000001</ele>
        <time>2017-06-12T13:42:55Z</time>
      </trkpt>
      <trkpt lat="42.051062816753983" lon="13.019953100010753">
        <ele>725.44995100000006</ele>
        <time>2017-06-12T13:43:07Z</time>
      </trkpt>
      <trkpt lat="42.051071114838123" lon="13.020000122487545">
        <ele>725.44995100000006</ele>
        <time>2017-06-12T13:43:12Z</time>
      </trkpt>
      <trkpt lat="42.051075808703899" lon="13.020047731697559">
        <ele>725.92999299999997</ele>
        <time>2017-06-12T13:43:18Z</time>
      </trkpt>
      <trkpt lat="42.051071031019092" lon="13.020067764446139">
        <ele>726.40997300000004</ele>
        <time>2017-06-12T13:43:20Z</time>
      </trkpt>
      <trkpt lat="42.051070528104901" lon="13.020119564607739">
        <ele>726.89001499999995</ele>
        <time>2017-06-12T13:43:25Z</time>
      </trkpt>
      <trkpt lat="42.051077401265502" lon="13.020170358940959">
        <ele>726.89001499999995</ele>
        <time>2017-06-12T13:43:29Z</time>
      </trkpt>
      <trkpt lat="42.051035575568676" lon="13.020316623151302">
        <ele>726.89001499999995</ele>
        <time>2017-06-12T13:43:41Z</time>
      </trkpt>
      <trkpt lat="42.051026774570346" lon="13.020341685041785">
        <ele>725.44995100000006</ele>
        <time>2017-06-12T13:43:44Z</time>
      </trkpt>
      <trkpt lat="42.051030714064837" lon="13.020415529608727">
        <ele>724.96997099999999</ele>
        <time>2017-06-12T13:43:50Z</time>
      </trkpt>
      <trkpt lat="42.051029708236456" lon="13.020472275093198">
        <ele>724.96997099999999</ele>
        <time>2017-06-12T13:43:54Z</time>
      </trkpt>
      <trkpt lat="42.051034569740295" lon="13.020537402480841">
        <ele>724.96997099999999</ele>
        <time>2017-06-12T13:43:59Z</time>
      </trkpt>
      <trkpt lat="42.051017973572016" lon="13.020608983933926">
        <ele>724.49005099999999</ele>
        <time>2017-06-12T13:44:05Z</time>
      </trkpt>
      <trkpt lat="42.050989894196391" lon="13.020669165998697">
        <ele>724.49005099999999</ele>
        <time>2017-06-12T13:44:09Z</time>
      </trkpt>
      <trkpt lat="42.050977908074856" lon="13.020715434104204">
        <ele>724.01000999999997</ele>
        <time>2017-06-12T13:44:13Z</time>
      </trkpt>
      <trkpt lat="42.050957288593054" lon="13.02081199362874">
        <ele>724.01000999999997</ele>
        <time>2017-06-12T13:44:20Z</time>
      </trkpt>
      <trkpt lat="42.05092828720808" lon="13.021014584228396">
        <ele>724.01000999999997</ele>
        <time>2017-06-12T13:44:35Z</time>
      </trkpt>
      <trkpt lat="42.05093851312995" lon="13.021148778498173">
        <ele>725.92999299999997</ele>
        <time>2017-06-12T13:44:45Z</time>
      </trkpt>
      <trkpt lat="42.050943877547979" lon="13.021228993311524">
        <ele>726.40997300000004</ele>
        <time>2017-06-12T13:44:51Z</time>
      </trkpt>
      <trkpt lat="42.050967263057828" lon="13.021405767649412">
        <ele>727.36999500000002</ele>
        <time>2017-06-12T13:45:05Z</time>
      </trkpt>
      <trkpt lat="42.050970364362001" lon="13.021432338282466">
        <ele>727.86004600000001</ele>
        <time>2017-06-12T13:45:08Z</time>
      </trkpt>
      <trkpt lat="42.050978662446141" lon="13.021482964977622">
        <ele>728.339966</ele>
        <time>2017-06-12T13:45:12Z</time>
      </trkpt>
      <trkpt lat="42.050983440130949" lon="13.02153903990984">
        <ele>728.339966</ele>
        <time>2017-06-12T13:45:24Z</time>
      </trkpt>
      <trkpt lat="42.051000706851482" lon="13.021560162305832">
        <ele>729.29998799999998</ele>
        <time>2017-06-12T13:45:28Z</time>
      </trkpt>
      <trkpt lat="42.051056111231446" lon="13.021686058491468">
        <ele>731.22003199999995</ele>
        <time>2017-06-12T13:45:41Z</time>
      </trkpt>
      <trkpt lat="42.051086788997054" lon="13.021796615794301">
        <ele>733.14001499999995</ele>
        <time>2017-06-12T13:45:52Z</time>
      </trkpt>
      <trkpt lat="42.051088213920593" lon="13.021813211962581">
        <ele>733.14001499999995</ele>
        <time>2017-06-12T13:45:54Z</time>
      </trkpt>
      <trkpt lat="42.051085866987705" lon="13.021845566108823">
        <ele>733.61999500000002</ele>
        <time>2017-06-12T13:45:57Z</time>
      </trkpt>
      <trkpt lat="42.051091566681862" lon="13.021891666576266">
        <ele>734.10003700000004</ele>
        <time>2017-06-12T13:46:01Z</time>
      </trkpt>
      <trkpt lat="42.051103133708239" lon="13.021959308534861">
        <ele>735.07000700000003</ele>
        <time>2017-06-12T13:46:08Z</time>
      </trkpt>
      <trkpt lat="42.051118724048138" lon="13.022086713463068">
        <ele>736.03002900000001</ele>
        <time>2017-06-12T13:46:20Z</time>
      </trkpt>
      <trkpt lat="42.051138672977686" lon="13.022209173068404">
        <ele>737.46997099999999</ele>
        <time>2017-06-12T13:46:32Z</time>
      </trkpt>
      <trkpt lat="42.051139930263162" lon="13.022242113947868">
        <ele>738.42999299999997</ele>
        <time>2017-06-12T13:46:35Z</time>
      </trkpt>
      <trkpt lat="42.051146887242794" lon="13.022348061203957">
        <ele>739.39001499999995</ele>
        <time>2017-06-12T13:46:45Z</time>
      </trkpt>
      <trkpt lat="42.051148563623428" lon="13.022413104772568">
        <ele>740.34997599999997</ele>
        <time>2017-06-12T13:46:51Z</time>
      </trkpt>
      <trkpt lat="42.051139930263162" lon="13.022450068965554">
        <ele>740.830017</ele>
        <time>2017-06-12T13:46:55Z</time>
      </trkpt>
      <trkpt lat="42.051133140921593" lon="13.022501701489091">
        <ele>741.79003899999998</ele>
        <time>2017-06-12T13:47:01Z</time>
      </trkpt>
      <trkpt lat="42.051109336316586" lon="13.022576216608286">
        <ele>743.72003199999995</ele>
        <time>2017-06-12T13:47:13Z</time>
      </trkpt>
      <trkpt lat="42.051089974120259" lon="13.022558027878404">
        <ele>743.72003199999995</ele>
        <time>2017-06-12T13:47:40Z</time>
      </trkpt>
      <trkpt lat="42.051096176728606" lon="13.02256909199059">
        <ele>743.72003199999995</ele>
        <time>2017-06-12T13:47:42Z</time>
      </trkpt>
      <trkpt lat="42.051094667986035" lon="13.022605637088418">
        <ele>743.72003199999995</ele>
        <time>2017-06-12T13:47:45Z</time>
      </trkpt>
      <trkpt lat="42.051080837845802" lon="13.022638326510787">
        <ele>744.20001200000002</ele>
        <time>2017-06-12T13:48:01Z</time>
      </trkpt>
      <trkpt lat="42.051077736541629" lon="13.02265408448875">
        <ele>744.67999299999997</ele>
        <time>2017-06-12T13:48:05Z</time>
      </trkpt>
      <trkpt lat="42.051048735156655" lon="13.022773778066039">
        <ele>745.160034</ele>
        <time>2017-06-12T13:48:17Z</time>
      </trkpt>
      <trkpt lat="42.051033396273851" lon="13.022851729765534">
        <ele>743.72003199999995</ele>
        <time>2017-06-12T13:48:25Z</time>
      </trkpt>
      <trkpt lat="42.051025601103902" lon="13.022906463593245">
        <ele>744.20001200000002</ele>
        <time>2017-06-12T13:48:33Z</time>
      </trkpt>
      <trkpt lat="42.051017638295889" lon="13.022944517433643">
        <ele>743.72003199999995</ele>
        <time>2017-06-12T13:48:37Z</time>
      </trkpt>
      <trkpt lat="42.051009759306908" lon="13.022978296503425">
        <ele>743.72003199999995</ele>
        <time>2017-06-12T13:48:40Z</time>
      </trkpt>
      <trkpt lat="42.050998024642467" lon="13.023005286231637">
        <ele>744.67999299999997</ele>
        <time>2017-06-12T13:48:42Z</time>
      </trkpt>
      <trkpt lat="42.05099031329155" lon="13.023045687004924">
        <ele>745.64001499999995</ele>
        <time>2017-06-12T13:48:46Z</time>
      </trkpt>
      <trkpt lat="42.050989475101233" lon="13.023076029494405">
        <ele>745.64001499999995</ele>
        <time>2017-06-12T13:48:49Z</time>
      </trkpt>
      <trkpt lat="42.050983440130949" lon="13.02311290986836">
        <ele>746.11999500000002</ele>
        <time>2017-06-12T13:48:53Z</time>
      </trkpt>
      <trkpt lat="42.050983859226108" lon="13.023180635645986">
        <ele>746.60003700000004</ele>
        <time>2017-06-12T13:49:01Z</time>
      </trkpt>
      <trkpt lat="42.050965335220098" lon="13.023265292868018">
        <ele>748.03997800000002</ele>
        <time>2017-06-12T13:49:13Z</time>
      </trkpt>
      <trkpt lat="42.050958462059498" lon="13.023359589278698">
        <ele>749</ele>
        <time>2017-06-12T13:49:25Z</time>
      </trkpt>
      <trkpt lat="42.050952510908246" lon="13.023398062214255">
        <ele>749</ele>
        <time>2017-06-12T13:49:29Z</time>
      </trkpt>
      <trkpt lat="42.050942284986377" lon="13.023535776883364">
        <ele>750.44995100000006</ele>
        <time>2017-06-12T13:49:42Z</time>
      </trkpt>
      <trkpt lat="42.050923425704241" lon="13.023644909262657">
        <ele>750.92999299999997</ele>
        <time>2017-06-12T13:49:53Z</time>
      </trkpt>
      <trkpt lat="42.050905572250485" lon="13.023738786578178">
        <ele>752.36999500000002</ele>
        <time>2017-06-12T13:50:03Z</time>
      </trkpt>
      <trkpt lat="42.050893502309918" lon="13.023805087432265">
        <ele>752.84997599999997</ele>
        <time>2017-06-12T13:50:09Z</time>
      </trkpt>
      <trkpt lat="42.050885958597064" lon="13.023852109909058">
        <ele>752.84997599999997</ele>
        <time>2017-06-12T13:50:13Z</time>
      </trkpt>
      <trkpt lat="42.050874559208751" lon="13.023936180397868">
        <ele>753.80999799999995</ele>
        <time>2017-06-12T13:50:21Z</time>
      </trkpt>
      <trkpt lat="42.050865506753325" lon="13.02398269996047">
        <ele>753.80999799999995</ele>
        <time>2017-06-12T13:50:25Z</time>
      </trkpt>
      <trkpt lat="42.050847820937634" lon="13.024092670530081">
        <ele>754.77002000000005</ele>
        <time>2017-06-12T13:50:36Z</time>
      </trkpt>
      <trkpt lat="42.050826866179705" lon="13.02422259002924">
        <ele>755.25</ele>
        <time>2017-06-12T13:50:48Z</time>
      </trkpt>
      <trkpt lat="42.050822423771024" lon="13.024242538958788">
        <ele>755.25</ele>
        <time>2017-06-12T13:50:52Z</time>
      </trkpt>
      <trkpt lat="42.050814460963011" lon="13.024299032986164">
        <ele>755.73004200000003</ele>
        <time>2017-06-12T13:50:57Z</time>
      </trkpt>
      <trkpt lat="42.050791578367352" lon="13.024397436529398">
        <ele>756.69006300000001</ele>
        <time>2017-06-12T13:51:05Z</time>
      </trkpt>
      <trkpt lat="42.050744807347655" lon="13.024545377120376">
        <ele>756.69006300000001</ele>
        <time>2017-06-12T13:51:18Z</time>
      </trkpt>
      <trkpt lat="42.050733072683215" lon="13.024617964401841">
        <ele>756.69006300000001</ele>
        <time>2017-06-12T13:51:24Z</time>
      </trkpt>
      <trkpt lat="42.050721505656838" lon="13.024665238335729">
        <ele>756.69006300000001</ele>
        <time>2017-06-12T13:51:28Z</time>
      </trkpt>
      <trkpt lat="42.050714129582047" lon="13.024707483127713">
        <ele>757.17999299999997</ele>
        <time>2017-06-12T13:51:32Z</time>
      </trkpt>
      <trkpt lat="42.050666268914938" lon="13.024847209453583">
        <ele>757.660034</ele>
        <time>2017-06-12T13:51:45Z</time>
      </trkpt>
      <trkpt lat="42.050657467916608" lon="13.024869337677956">
        <ele>758.14001499999995</ele>
        <time>2017-06-12T13:51:48Z</time>
      </trkpt>
      <trkpt lat="42.050639698281884" lon="13.024906469509006">
        <ele>758.14001499999995</ele>
        <time>2017-06-12T13:51:52Z</time>
      </trkpt>
      <trkpt lat="42.050617570057511" lon="13.024959359318018">
        <ele>758.61993399999994</ele>
        <time>2017-06-12T13:51:58Z</time>
      </trkpt>
      <trkpt lat="42.050595274195075" lon="13.025017194449902">
        <ele>759.10003700000004</ele>
        <time>2017-06-12T13:52:05Z</time>
      </trkpt>
      <trkpt lat="42.050558477640152" lon="13.02509481087327">
        <ele>760.05999799999995</ele>
        <time>2017-06-12T13:52:16Z</time>
      </trkpt>
      <trkpt lat="42.050512628629804" lon="13.025161027908325">
        <ele>761.01995799999997</ele>
        <time>2017-06-12T13:52:26Z</time>
      </trkpt>
      <trkpt lat="42.050509862601757" lon="13.025166895240545">
        <ele>761.01995799999997</ele>
        <time>2017-06-12T13:52:27Z</time>
      </trkpt>
      <trkpt lat="42.050443226471543" lon="13.025227161124349">
        <ele>762.94000200000005</ele>
        <time>2017-06-12T13:52:37Z</time>
      </trkpt>
      <trkpt lat="42.050350941717625" lon="13.025291869416833">
        <ele>764.39001499999995</ele>
        <time>2017-06-12T13:52:50Z</time>
      </trkpt>
      <trkpt lat="42.05028623342514" lon="13.025347525253892">
        <ele>765.830017</ele>
        <time>2017-06-12T13:53:00Z</time>
      </trkpt>
      <trkpt lat="42.050214903429151" lon="13.025412736460567">
        <ele>767.27002000000005</ele>
        <time>2017-06-12T13:53:11Z</time>
      </trkpt>
      <trkpt lat="42.050168635323644" lon="13.025474762544036">
        <ele>768.23004200000003</ele>
        <time>2017-06-12T13:53:21Z</time>
      </trkpt>
      <trkpt lat="42.050123540684581" lon="13.025544667616487">
        <ele>768.70996100000002</ele>
        <time>2017-06-12T13:53:35Z</time>
      </trkpt>
      <trkpt lat="42.050128905102611" lon="13.025556821376085">
        <ele>768.70996100000002</ele>
        <time>2017-06-12T13:53:40Z</time>
      </trkpt>
      <trkpt lat="42.050126222893596" lon="13.025593534111977">
        <ele>769.19006300000001</ele>
        <time>2017-06-12T13:53:44Z</time>
      </trkpt>
      <trkpt lat="42.050117505714297" lon="13.025649022310972">
        <ele>769.669983</ele>
        <time>2017-06-12T13:53:48Z</time>
      </trkpt>
      <trkpt lat="42.050108704715967" lon="13.02569922991097">
        <ele>770.14996299999996</ele>
        <time>2017-06-12T13:53:52Z</time>
      </trkpt>
      <trkpt lat="42.050089258700609" lon="13.025876926258206">
        <ele>771.10998500000005</ele>
        <time>2017-06-12T13:54:05Z</time>
      </trkpt>
      <trkpt lat="42.050082972273231" lon="13.026029728353024">
        <ele>771.60003700000004</ele>
        <time>2017-06-12T13:54:17Z</time>
      </trkpt>
      <trkpt lat="42.050071740522981" lon="13.026143470779061">
        <ele>771.60003700000004</ele>
        <time>2017-06-12T13:54:28Z</time>
      </trkpt>
      <trkpt lat="42.050064783543348" lon="13.026163084432483">
        <ele>770.14996299999996</ele>
        <time>2017-06-12T13:54:30Z</time>
      </trkpt>
      <trkpt lat="42.050058664754033" lon="13.026174735277891">
        <ele>770.14996299999996</ele>
        <time>2017-06-12T13:54:31Z</time>
      </trkpt>
      <trkpt lat="42.050025640055537" lon="13.026332817971706">
        <ele>769.19006300000001</ele>
        <time>2017-06-12T13:54:44Z</time>
      </trkpt>
      <trkpt lat="42.050023460760713" lon="13.026354862377048">
        <ele>769.19006300000001</ele>
        <time>2017-06-12T13:54:46Z</time>
      </trkpt>
      <trkpt lat="42.050022119656205" lon="13.02637992426753">
        <ele>768.70996100000002</ele>
        <time>2017-06-12T13:54:48Z</time>
      </trkpt>
      <trkpt lat="42.049988340586424" lon="13.026547227054834">
        <ele>767.75</ele>
        <time>2017-06-12T13:55:01Z</time>
      </trkpt>
      <trkpt lat="42.049970822408795" lon="13.026686366647482">
        <ele>767.27002000000005</ele>
        <time>2017-06-12T13:55:12Z</time>
      </trkpt>
      <trkpt lat="42.049959087744355" lon="13.026747470721602">
        <ele>767.27002000000005</ele>
        <time>2017-06-12T13:55:17Z</time>
      </trkpt>
      <trkpt lat="42.049929918721318" lon="13.026775466278195">
        <ele>767.27002000000005</ele>
        <time>2017-06-12T13:55:21Z</time>
      </trkpt>
      <trkpt lat="42.049894295632839" lon="13.026812765747309">
        <ele>766.30999799999995</ele>
        <time>2017-06-12T13:55:27Z</time>
      </trkpt>
      <trkpt lat="42.04985766671598" lon="13.026944361627102">
        <ele>764.86999500000002</ele>
        <time>2017-06-12T13:55:39Z</time>
      </trkpt>
      <trkpt lat="42.049846770241857" lon="13.027015272527933">
        <ele>765.34997599999997</ele>
        <time>2017-06-12T13:55:46Z</time>
      </trkpt>
      <trkpt lat="42.049850039184093" lon="13.027046537026763">
        <ele>765.34997599999997</ele>
        <time>2017-06-12T13:55:49Z</time>
      </trkpt>
      <trkpt lat="42.049821708351374" lon="13.027090290561318">
        <ele>766.30999799999995</ele>
        <time>2017-06-12T13:55:53Z</time>
      </trkpt>
      <trkpt lat="42.049787258729339" lon="13.027144772931933">
        <ele>766.79003899999998</ele>
        <time>2017-06-12T13:55:58Z</time>
      </trkpt>
      <trkpt lat="42.049766136333346" lon="13.02718467079103">
        <ele>767.27002000000005</ele>
        <time>2017-06-12T13:56:02Z</time>
      </trkpt>
      <trkpt lat="42.049685334786773" lon="13.027300089597702">
        <ele>767.27002000000005</ele>
        <time>2017-06-12T13:56:15Z</time>
      </trkpt>
      <trkpt lat="42.049653567373753" lon="13.027349459007382">
        <ele>767.27002000000005</ele>
        <time>2017-06-12T13:56:21Z</time>
      </trkpt>
      <trkpt lat="42.04955767840147" lon="13.027507374063134">
        <ele>765.830017</ele>
        <time>2017-06-12T13:56:37Z</time>
      </trkpt>
      <trkpt lat="42.049554660916328" lon="13.027497818693519">
        <ele>765.830017</ele>
        <time>2017-06-12T13:56:38Z</time>
      </trkpt>
      <trkpt lat="42.049494478851557" lon="13.027614327147603">
        <ele>764.86999500000002</ele>
        <time>2017-06-12T13:56:53Z</time>
      </trkpt>
      <trkpt lat="42.049462711438537" lon="13.027682136744261">
        <ele>764.39001499999995</ele>
        <time>2017-06-12T13:57:00Z</time>
      </trkpt>
      <trkpt lat="42.049407139420509" lon="13.027887493371964">
        <ele>763.90002400000003</ele>
        <time>2017-06-12T13:57:14Z</time>
      </trkpt>
      <trkpt lat="42.049331534653902" lon="13.028057226911187">
        <ele>762.94000200000005</ele>
        <time>2017-06-12T13:57:28Z</time>
      </trkpt>
      <trkpt lat="42.049270514398813" lon="13.028238695114851">
        <ele>762.46002199999998</ele>
        <time>2017-06-12T13:57:41Z</time>
      </trkpt>
      <trkpt lat="42.049219971522689" lon="13.028402393683791">
        <ele>762.46002199999998</ele>
        <time>2017-06-12T13:57:54Z</time>
      </trkpt>
      <trkpt lat="42.049197340384126" lon="13.02845117636025">
        <ele>761.97997999999995</ele>
        <time>2017-06-12T13:57:58Z</time>
      </trkpt>
      <trkpt lat="42.049086699262261" lon="13.028583526611328">
        <ele>760.53997800000002</ele>
        <time>2017-06-12T13:58:12Z</time>
      </trkpt>
      <trkpt lat="42.049015033990145" lon="13.028654102236032">
        <ele>759.10003700000004</ele>
        <time>2017-06-12T13:58:22Z</time>
      </trkpt>
      <trkpt lat="42.048906991258264" lon="13.028808161616325">
        <ele>757.660034</ele>
        <time>2017-06-12T13:58:36Z</time>
      </trkpt>
      <trkpt lat="42.048841612413526" lon="13.028883095830679">
        <ele>754.77002000000005</ele>
        <time>2017-06-12T13:58:47Z</time>
      </trkpt>
      <trkpt lat="42.048783358186483" lon="13.028900362551212">
        <ele>751.89001499999995</ele>
        <time>2017-06-12T13:58:56Z</time>
      </trkpt>
      <trkpt lat="42.048700796440244" lon="13.02892760373652">
        <ele>749.49005099999999</ele>
        <time>2017-06-12T13:59:09Z</time>
      </trkpt>
      <trkpt lat="42.048614965751767" lon="13.02894277498126">
        <ele>746.11999500000002</ele>
        <time>2017-06-12T13:59:22Z</time>
      </trkpt>
      <trkpt lat="42.048516059294343" lon="13.029014859348536">
        <ele>743.72003199999995</ele>
        <time>2017-06-12T13:59:38Z</time>
      </trkpt>
      <trkpt lat="42.048452775925398" lon="13.029084429144859">
        <ele>741.79003899999998</ele>
        <time>2017-06-12T13:59:51Z</time>
      </trkpt>
      <trkpt lat="42.04844506457448" lon="13.029091637581587">
        <ele>741.79003899999998</ele>
        <time>2017-06-12T13:59:52Z</time>
      </trkpt>
      <trkpt lat="42.048354875296354" lon="13.029219210147858">
        <ele>739.39001499999995</ele>
        <time>2017-06-12T14:00:06Z</time>
      </trkpt>
      <trkpt lat="42.048325035721064" lon="13.029259610921144">
        <ele>738.42999299999997</ele>
        <time>2017-06-12T14:00:10Z</time>
      </trkpt>
      <trkpt lat="42.04830139875412" lon="13.029309315606952">
        <ele>737.46997099999999</ele>
        <time>2017-06-12T14:00:15Z</time>
      </trkpt>
      <trkpt lat="42.048221938312054" lon="13.029400426894426">
        <ele>735.54998799999998</ele>
        <time>2017-06-12T14:00:28Z</time>
      </trkpt>
      <trkpt lat="42.048168713226914" lon="13.029542164877057">
        <ele>734.10003700000004</ele>
        <time>2017-06-12T14:00:41Z</time>
      </trkpt>
      <trkpt lat="42.048093527555466" lon="13.029628917574883">
        <ele>733.61999500000002</ele>
        <time>2017-06-12T14:00:56Z</time>
      </trkpt>
      <trkpt lat="42.048035440966487" lon="13.029776103794575">
        <ele>731.70001200000002</ele>
        <time>2017-06-12T14:01:10Z</time>
      </trkpt>
      <trkpt lat="42.048009121790528" lon="13.029864532873034">
        <ele>731.22003199999995</ele>
        <time>2017-06-12T14:01:25Z</time>
      </trkpt>
      <trkpt lat="42.047990681603551" lon="13.029915662482381">
        <ele>731.22003199999995</ele>
        <time>2017-06-12T14:01:28Z</time>
      </trkpt>
      <trkpt lat="42.047951621934772" lon="13.030106518417597">
        <ele>729.29998799999998</ele>
        <time>2017-06-12T14:01:42Z</time>
      </trkpt>
      <trkpt lat="42.04794080927968" lon="13.030227301642299">
        <ele>728.82000700000003</ele>
        <time>2017-06-12T14:01:51Z</time>
      </trkpt>
      <trkpt lat="42.047883393242955" lon="13.030392341315746">
        <ele>726.40997300000004</ele>
        <time>2017-06-12T14:02:04Z</time>
      </trkpt>
      <trkpt lat="42.047898061573505" lon="13.03061437793076">
        <ele>726.40997300000004</ele>
        <time>2017-06-12T14:02:18Z</time>
      </trkpt>
      <trkpt lat="42.047937037423253" lon="13.030775897204876">
        <ele>725.92999299999997</ele>
        <time>2017-06-12T14:02:32Z</time>
      </trkpt>
      <trkpt lat="42.048011887818575" lon="13.030890226364136">
        <ele>727.86004600000001</ele>
        <time>2017-06-12T14:02:45Z</time>
      </trkpt>
      <trkpt lat="42.048025885596871" lon="13.030920065939426">
        <ele>727.86004600000001</ele>
        <time>2017-06-12T14:02:48Z</time>
      </trkpt>
      <trkpt lat="42.048087660223246" lon="13.031120225787163">
        <ele>727.86004600000001</ele>
        <time>2017-06-12T14:03:02Z</time>
      </trkpt>
      <trkpt lat="42.048119092360139" lon="13.031299514696002">
        <ele>724.96997099999999</ele>
        <time>2017-06-12T14:03:14Z</time>
      </trkpt>
      <trkpt lat="42.048156391829252" lon="13.031479641795158">
        <ele>724.49005099999999</ele>
        <time>2017-06-12T14:03:26Z</time>
      </trkpt>
      <trkpt lat="42.04818656668067" lon="13.031695140525699">
        <ele>724.01000999999997</ele>
        <time>2017-06-12T14:03:39Z</time>
      </trkpt>
      <trkpt lat="42.048227973282337" lon="13.031843416392803">
        <ele>725.44995100000006</ele>
        <time>2017-06-12T14:03:49Z</time>
      </trkpt>
      <trkpt lat="42.048226883634925" lon="13.031858336180449">
        <ele>725.44995100000006</ele>
        <time>2017-06-12T14:03:50Z</time>
      </trkpt>
      <trkpt lat="42.048163516446948" lon="13.032044330611825">
        <ele>726.40997300000004</ele>
        <time>2017-06-12T14:04:03Z</time>
      </trkpt>
      <trkpt lat="42.048140969127417" lon="13.03211591206491">
        <ele>727.36999500000002</ele>
        <time>2017-06-12T14:04:09Z</time>
      </trkpt>
      <trkpt lat="42.04816116951406" lon="13.032213058322668">
        <ele>729.29998799999998</ele>
        <time>2017-06-12T14:04:20Z</time>
      </trkpt>
      <trkpt lat="42.048162007704377" lon="13.032221775501966">
        <ele>729.29998799999998</ele>
        <time>2017-06-12T14:04:22Z</time>
      </trkpt>
      <trkpt lat="42.048170221969485" lon="13.032255638390779">
        <ele>730.26000999999997</ele>
        <time>2017-06-12T14:04:26Z</time>
      </trkpt>
      <trkpt lat="42.048204503953457" lon="13.032338703051209">
        <ele>731.70001200000002</ele>
        <time>2017-06-12T14:04:37Z</time>
      </trkpt>
      <trkpt lat="42.048180866986513" lon="13.032340463250875">
        <ele>732.660034</ele>
        <time>2017-06-12T14:04:55Z</time>
      </trkpt>
      <trkpt lat="42.048199223354459" lon="13.032404668629169">
        <ele>733.14001499999995</ele>
        <time>2017-06-12T14:05:06Z</time>
      </trkpt>
      <trkpt lat="42.048193188384175" lon="13.032454708591104">
        <ele>734.10003700000004</ele>
        <time>2017-06-12T14:05:21Z</time>
      </trkpt>
      <trkpt lat="42.048193691298366" lon="13.032477172091603">
        <ele>735.07000700000003</ele>
        <time>2017-06-12T14:05:24Z</time>
      </trkpt>
      <trkpt lat="42.048193104565144" lon="13.032502820715308">
        <ele>735.54998799999998</ele>
        <time>2017-06-12T14:05:26Z</time>
      </trkpt>
      <trkpt lat="42.048188410699368" lon="13.032549759373069">
        <ele>737.46997099999999</ele>
        <time>2017-06-12T14:05:37Z</time>
      </trkpt>
      <trkpt lat="42.048195702955127" lon="13.0326206702739">
        <ele>738.90997300000004</ele>
        <time>2017-06-12T14:05:49Z</time>
      </trkpt>
      <trkpt lat="42.048195786774158" lon="13.032649839296937">
        <ele>738.90997300000004</ele>
        <time>2017-06-12T14:05:52Z</time>
      </trkpt>
      <trkpt lat="42.048205761238933" lon="13.032676912844181">
        <ele>740.34997599999997</ele>
        <time>2017-06-12T14:05:56Z</time>
      </trkpt>
      <trkpt lat="42.04824423417449" lon="13.032805994153023">
        <ele>741.30999799999995</ele>
        <time>2017-06-12T14:06:10Z</time>
      </trkpt>
      <trkpt lat="42.048294190317392" lon="13.032928537577391">
        <ele>741.79003899999998</ele>
        <time>2017-06-12T14:06:24Z</time>
      </trkpt>
      <trkpt lat="42.048274073749781" lon="13.032941613346338">
        <ele>741.79003899999998</ele>
        <time>2017-06-12T14:06:30Z</time>
      </trkpt>
      <trkpt lat="42.048289412632585" lon="13.032985534518957">
        <ele>740.34997599999997</ele>
        <time>2017-06-12T14:06:35Z</time>
      </trkpt>
      <trkpt lat="42.048340626060963" lon="13.033124087378383">
        <ele>739.39001499999995</ele>
        <time>2017-06-12T14:06:49Z</time>
      </trkpt>
      <trkpt lat="42.048370465636253" lon="13.033301783725619">
        <ele>737.46997099999999</ele>
        <time>2017-06-12T14:07:02Z</time>
      </trkpt>
      <trkpt lat="42.04836837016046" lon="13.033410580828786">
        <ele>736.03002900000001</ele>
        <time>2017-06-12T14:07:10Z</time>
      </trkpt>
      <trkpt lat="42.048349510878325" lon="13.033605627715588">
        <ele>733.61999500000002</ele>
        <time>2017-06-12T14:07:24Z</time>
      </trkpt>
      <trkpt lat="42.048346493393183" lon="13.033613422885537">
        <ele>733.61999500000002</ele>
        <time>2017-06-12T14:07:25Z</time>
      </trkpt>
      <trkpt lat="42.048295615240932" lon="13.033771505579352">
        <ele>732.17999299999997</ele>
        <time>2017-06-12T14:07:40Z</time>
      </trkpt>
      <trkpt lat="42.048291005194187" lon="13.033811235800385">
        <ele>732.17999299999997</ele>
        <time>2017-06-12T14:07:43Z</time>
      </trkpt>
      <trkpt lat="42.048285724595189" lon="13.03399421274662">
        <ele>729.77996800000005</ele>
        <time>2017-06-12T14:07:56Z</time>
      </trkpt>
      <trkpt lat="42.048252699896693" lon="13.034196635708213">
        <ele>728.339966</ele>
        <time>2017-06-12T14:08:11Z</time>
      </trkpt>
      <trkpt lat="42.048154463991523" lon="13.03440123796463">
        <ele>726.40997300000004</ele>
        <time>2017-06-12T14:08:28Z</time>
      </trkpt>
      <trkpt lat="42.048077266663313" lon="13.034599218517542">
        <ele>724.01000999999997</ele>
        <time>2017-06-12T14:08:44Z</time>
      </trkpt>
      <trkpt lat="42.048076679930091" lon="13.034612881019711">
        <ele>724.01000999999997</ele>
        <time>2017-06-12T14:08:45Z</time>
      </trkpt>
      <trkpt lat="42.047956399619579" lon="13.034784374758601">
        <ele>721.13000499999998</ele>
        <time>2017-06-12T14:09:03Z</time>
      </trkpt>
      <trkpt lat="42.047869563102722" lon="13.034879760816693">
        <ele>719.20001200000002</ele>
        <time>2017-06-12T14:09:18Z</time>
      </trkpt>
      <trkpt lat="42.04784793779254" lon="13.034882275387645">
        <ele>719.20001200000002</ele>
        <time>2017-06-12T14:09:28Z</time>
      </trkpt>
      <trkpt lat="42.047821786254644" lon="13.03491429425776">
        <ele>718.72003199999995</ele>
        <time>2017-06-12T14:09:40Z</time>
      </trkpt>
      <trkpt lat="42.04778247512877" lon="13.034986210986972">
        <ele>718.72003199999995</ele>
        <time>2017-06-12T14:09:52Z</time>
      </trkpt>
      <trkpt lat="42.047806615009904" lon="13.03502518683672">
        <ele>716.79998799999998</ele>
        <time>2017-06-12T14:10:04Z</time>
      </trkpt>
      <trkpt lat="42.047792114317417" lon="13.035057540982962">
        <ele>716.32000700000003</ele>
        <time>2017-06-12T14:10:08Z</time>
      </trkpt>
      <trkpt lat="42.047769399359822" lon="13.03510632365942">
        <ele>714.87994400000002</ele>
        <time>2017-06-12T14:10:11Z</time>
      </trkpt>
      <trkpt lat="42.047661021351814" lon="13.035142030566931">
        <ele>715.36004600000001</ele>
        <time>2017-06-12T14:10:25Z</time>
      </trkpt>
      <trkpt lat="42.047544261440635" lon="13.035176983103156">
        <ele>715.36004600000001</ele>
        <time>2017-06-12T14:10:42Z</time>
      </trkpt>
      <trkpt lat="42.047544261440635" lon="13.035188801586628">
        <ele>715.36004600000001</ele>
        <time>2017-06-12T14:10:43Z</time>
      </trkpt>
      <trkpt lat="42.047535292804241" lon="13.035226436331868">
        <ele>715.36004600000001</ele>
        <time>2017-06-12T14:10:46Z</time>
      </trkpt>
      <trkpt lat="42.047398500144482" lon="13.035372784361243">
        <ele>717.76000999999997</ele>
        <time>2017-06-12T14:11:02Z</time>
      </trkpt>
      <trkpt lat="42.047304790467024" lon="13.035509325563908">
        <ele>718.72003199999995</ele>
        <time>2017-06-12T14:11:16Z</time>
      </trkpt>
      <trkpt lat="42.047193059697747" lon="13.035640334710479">
        <ele>719.20001200000002</ele>
        <time>2017-06-12T14:11:32Z</time>
      </trkpt>
      <trkpt lat="42.047053501009941" lon="13.035794477909803">
        <ele>721.13000499999998</ele>
        <time>2017-06-12T14:11:50Z</time>
      </trkpt>
      <trkpt lat="42.046968005597591" lon="13.035948285833001">
        <ele>723.04998799999998</ele>
        <time>2017-06-12T14:12:05Z</time>
      </trkpt>
      <trkpt lat="42.046935399994254" lon="13.035979131236672">
        <ele>724.01000999999997</ele>
        <time>2017-06-12T14:12:09Z</time>
      </trkpt>
      <trkpt lat="42.046865662559867" lon="13.036073930561543">
        <ele>724.96997099999999</ele>
        <time>2017-06-12T14:12:20Z</time>
      </trkpt>
      <trkpt lat="42.046806989237666" lon="13.036227403208613">
        <ele>726.40997300000004</ele>
        <time>2017-06-12T14:12:35Z</time>
      </trkpt>
      <trkpt lat="42.04677346162498" lon="13.036327818408608">
        <ele>728.339966</ele>
        <time>2017-06-12T14:12:48Z</time>
      </trkpt>
      <trkpt lat="42.046803301200271" lon="13.03641582839191">
        <ele>728.82000700000003</ele>
        <time>2017-06-12T14:13:01Z</time>
      </trkpt>
      <trkpt lat="42.046886365860701" lon="13.036384396255016">
        <ele>728.82000700000003</ele>
        <time>2017-06-12T14:13:15Z</time>
      </trkpt>
      <trkpt lat="42.046884605661035" lon="13.036386994645">
        <ele>727.36999500000002</ele>
        <time>2017-06-12T14:13:20Z</time>
      </trkpt>
      <trkpt lat="42.047006478533149" lon="13.036532085388899">
        <ele>729.29998799999998</ele>
        <time>2017-06-12T14:13:35Z</time>
      </trkpt>
      <trkpt lat="42.047017877921462" lon="13.036548178642988">
        <ele>729.29998799999998</ele>
        <time>2017-06-12T14:13:41Z</time>
      </trkpt>
      <trkpt lat="42.046870440244675" lon="13.036583969369531">
        <ele>729.29998799999998</ele>
        <time>2017-06-12T14:13:53Z</time>
      </trkpt>
      <trkpt lat="42.046831799671054" lon="13.036623699590564">
        <ele>729.29998799999998</ele>
        <time>2017-06-12T14:14:03Z</time>
      </trkpt>
      <trkpt lat="42.046773713082075" lon="13.036492774263024">
        <ele>729.29998799999998</ele>
        <time>2017-06-12T14:14:13Z</time>
      </trkpt>
      <trkpt lat="42.046754937618971" lon="13.036403339356184">
        <ele>729.29998799999998</ele>
        <time>2017-06-12T14:14:27Z</time>
      </trkpt>
      <trkpt lat="42.046765079721808" lon="13.036397472023964">
        <ele>728.339966</ele>
        <time>2017-06-12T14:14:51Z</time>
      </trkpt>
      <trkpt lat="42.046736078336835" lon="13.036397388204932">
        <ele>728.339966</ele>
        <time>2017-06-12T14:15:21Z</time>
      </trkpt>
      <trkpt lat="42.046728618443012" lon="13.036436028778553">
        <ele>728.339966</ele>
        <time>2017-06-12T14:15:53Z</time>
      </trkpt>
      <trkpt lat="42.046710010617971" lon="13.036435693502426">
        <ele>728.82000700000003</ele>
        <time>2017-06-12T14:16:17Z</time>
      </trkpt>
      <trkpt lat="42.046710094437003" lon="13.036444829776883">
        <ele>728.82000700000003</ele>
        <time>2017-06-12T14:16:43Z</time>
      </trkpt>
      <trkpt lat="42.046772791072726" lon="13.036430664360523">
        <ele>728.82000700000003</ele>
        <time>2017-06-12T14:17:09Z</time>
      </trkpt>
      <trkpt lat="42.046793829649687" lon="13.03641440346837">
        <ele>728.82000700000003</ele>
        <time>2017-06-12T14:17:25Z</time>
      </trkpt>
      <trkpt lat="42.046795841306448" lon="13.036421108990908">
        <ele>728.82000700000003</ele>
        <time>2017-06-12T14:17:45Z</time>
      </trkpt>
      <trkpt lat="42.04680422320962" lon="13.036429239436984">
        <ele>728.82000700000003</ele>
        <time>2017-06-12T14:17:46Z</time>
      </trkpt>
      <trkpt lat="42.046859376132488" lon="13.036517584696412">
        <ele>728.82000700000003</ele>
        <time>2017-06-12T14:17:58Z</time>
      </trkpt>
      <trkpt lat="42.046869434416294" lon="13.036590171977878">
        <ele>728.82000700000003</ele>
        <time>2017-06-12T14:18:11Z</time>
      </trkpt>
      <trkpt lat="42.046895334497094" lon="13.036623783409595">
        <ele>730.26000999999997</ele>
        <time>2017-06-12T14:18:14Z</time>
      </trkpt>
      <trkpt lat="42.046905308961868" lon="13.036633171141148">
        <ele>730.26000999999997</ele>
        <time>2017-06-12T14:18:16Z</time>
      </trkpt>
      <trkpt lat="42.04696549102664" lon="13.036715229973197">
        <ele>731.70001200000002</ele>
        <time>2017-06-12T14:18:27Z</time>
      </trkpt>
      <trkpt lat="42.047052662819624" lon="13.036693185567856">
        <ele>733.14001499999995</ele>
        <time>2017-06-12T14:18:41Z</time>
      </trkpt>
      <trkpt lat="42.047070264816284" lon="13.036683294922113">
        <ele>733.61999500000002</ele>
        <time>2017-06-12T14:18:44Z</time>
      </trkpt>
      <trkpt lat="42.047177636995912" lon="13.036644989624619">
        <ele>735.07000700000003</ele>
        <time>2017-06-12T14:18:57Z</time>
      </trkpt>
      <trkpt lat="42.047190209850669" lon="13.036640798673034">
        <ele>735.54998799999998</ele>
        <time>2017-06-12T14:18:59Z</time>
      </trkpt>
      <trkpt lat="42.047226503491402" lon="13.036597799509764">
        <ele>735.54998799999998</ele>
        <time>2017-06-12T14:19:13Z</time>
      </trkpt>
      <trkpt lat="42.047293558716774" lon="13.03655949421227">
        <ele>736.03002900000001</ele>
        <time>2017-06-12T14:19:23Z</time>
      </trkpt>
      <trkpt lat="42.047381987795234" lon="13.036538790911436">
        <ele>737.46997099999999</ele>
        <time>2017-06-12T14:19:34Z</time>
      </trkpt>
      <trkpt lat="42.047494137659669" lon="13.036507777869701">
        <ele>739.39001499999995</ele>
        <time>2017-06-12T14:19:46Z</time>
      </trkpt>
      <trkpt lat="42.047608969733119" lon="13.036509705707431">
        <ele>740.830017</ele>
        <time>2017-06-12T14:20:00Z</time>
      </trkpt>
      <trkpt lat="42.047621877864003" lon="13.036521524190903">
        <ele>740.830017</ele>
        <time>2017-06-12T14:20:02Z</time>
      </trkpt>
      <trkpt lat="42.047706618905067" lon="13.036606265231967">
        <ele>742.27996800000005</ele>
        <time>2017-06-12T14:20:14Z</time>
      </trkpt>
      <trkpt lat="42.047763615846634" lon="13.036699639633298">
        <ele>742.76000999999997</ele>
        <time>2017-06-12T14:20:27Z</time>
      </trkpt>
      <trkpt lat="42.047767722979188" lon="13.036709362640977">
        <ele>743.23999000000003</ele>
        <time>2017-06-12T14:20:28Z</time>
      </trkpt>
      <trkpt lat="42.04780007712543" lon="13.036857722327113">
        <ele>745.160034</ele>
        <time>2017-06-12T14:20:41Z</time>
      </trkpt>
      <trkpt lat="42.047840813174844" lon="13.036974230781198">
        <ele>746.11999500000002</ele>
        <time>2017-06-12T14:20:53Z</time>
      </trkpt>
      <trkpt lat="42.047864785417914" lon="13.03707648999989">
        <ele>747.55999799999995</ele>
        <time>2017-06-12T14:21:06Z</time>
      </trkpt>
      <trkpt lat="42.047896636649966" lon="13.037209929898381">
        <ele>749</ele>
        <time>2017-06-12T14:21:19Z</time>
      </trkpt>
      <trkpt lat="42.047924296930432" lon="13.037350326776505">
        <ele>750.44995100000006</ele>
        <time>2017-06-12T14:21:32Z</time>
      </trkpt>
      <trkpt lat="42.04796033911407" lon="13.037492735311389">
        <ele>751.89001499999995</ele>
        <time>2017-06-12T14:21:44Z</time>
      </trkpt>
      <trkpt lat="42.047985987737775" lon="13.037629863247275">
        <ele>752.84997599999997</ele>
        <time>2017-06-12T14:21:57Z</time>
      </trkpt>
      <trkpt lat="42.047972241416574" lon="13.037761794403195">
        <ele>754.77002000000005</ele>
        <time>2017-06-12T14:22:09Z</time>
      </trkpt>
      <trkpt lat="42.047980958595872" lon="13.037927839905024">
        <ele>756.69006300000001</ele>
        <time>2017-06-12T14:22:23Z</time>
      </trkpt>
      <trkpt lat="42.047984981909394" lon="13.037950219586492">
        <ele>757.17999299999997</ele>
        <time>2017-06-12T14:22:25Z</time>
      </trkpt>
      <trkpt lat="42.047988921403885" lon="13.038118360564113">
        <ele>759.57995600000004</ele>
        <time>2017-06-12T14:22:40Z</time>
      </trkpt>
      <trkpt lat="42.047997722402215" lon="13.038261439651251">
        <ele>761.5</ele>
        <time>2017-06-12T14:22:54Z</time>
      </trkpt>
      <trkpt lat="42.047992441803217" lon="13.038387587293983">
        <ele>763.419983</ele>
        <time>2017-06-12T14:23:06Z</time>
      </trkpt>
      <trkpt lat="42.048022616654634" lon="13.038509963080287">
        <ele>765.830017</ele>
        <time>2017-06-12T14:23:21Z</time>
      </trkpt>
      <trkpt lat="42.048075338825583" lon="13.03858975879848">
        <ele>767.27002000000005</ele>
        <time>2017-06-12T14:23:33Z</time>
      </trkpt>
      <trkpt lat="42.048106519505382" lon="13.038691263645887">
        <ele>769.19006300000001</ele>
        <time>2017-06-12T14:23:45Z</time>
      </trkpt>
      <trkpt lat="42.048144992440939" lon="13.038828391581774">
        <ele>771.60003700000004</ele>
        <time>2017-06-12T14:23:59Z</time>
      </trkpt>
      <trkpt lat="42.048164941370487" lon="13.038929896429181">
        <ele>772.55999799999995</ele>
        <time>2017-06-12T14:24:08Z</time>
      </trkpt>
      <trkpt lat="42.048174664378166" lon="13.039052188396454">
        <ele>774.47997999999995</ele>
        <time>2017-06-12T14:24:21Z</time>
      </trkpt>
      <trkpt lat="42.048186063766479" lon="13.039197027683258">
        <ele>775.44000200000005</ele>
        <time>2017-06-12T14:24:35Z</time>
      </trkpt>
      <trkpt lat="42.048186734318733" lon="13.039340022951365">
        <ele>777.36004600000001</ele>
        <time>2017-06-12T14:24:48Z</time>
      </trkpt>
      <trkpt lat="42.04819050617516" lon="13.039366258308291">
        <ele>777.84002699999996</ele>
        <time>2017-06-12T14:24:51Z</time>
      </trkpt>
      <trkpt lat="42.048195535317063" lon="13.039499782025814">
        <ele>779.77002000000005</ele>
        <time>2017-06-12T14:25:04Z</time>
      </trkpt>
      <trkpt lat="42.048144489526749" lon="13.039638670161366">
        <ele>781.69006300000001</ele>
        <time>2017-06-12T14:25:17Z</time>
      </trkpt>
      <trkpt lat="42.048147423192859" lon="13.039739169180393">
        <ele>782.169983</ele>
        <time>2017-06-12T14:25:30Z</time>
      </trkpt>
      <trkpt lat="42.048113727942109" lon="13.039758363738656">
        <ele>782.64996299999996</ele>
        <time>2017-06-12T14:25:44Z</time>
      </trkpt>
      <trkpt lat="42.048124959692359" lon="13.039760710671544">
        <ele>782.64996299999996</ele>
        <time>2017-06-12T14:26:06Z</time>
      </trkpt>
      <trkpt lat="42.048172065988183" lon="13.039677729830146">
        <ele>783.60998500000005</ele>
        <time>2017-06-12T14:26:16Z</time>
      </trkpt>
      <trkpt lat="42.048260662704706" lon="13.039654092863202">
        <ele>784.57000700000003</ele>
        <time>2017-06-12T14:26:30Z</time>
      </trkpt>
      <trkpt lat="42.048249933868647" lon="13.039649566635489">
        <ele>784.57000700000003</ele>
        <time>2017-06-12T14:26:33Z</time>
      </trkpt>
      <trkpt lat="42.048161085695028" lon="13.039706060662866">
        <ele>783.13000499999998</ele>
        <time>2017-06-12T14:26:42Z</time>
      </trkpt>
      <trkpt lat="42.048087660223246" lon="13.039756268262863">
        <ele>782.169983</ele>
        <time>2017-06-12T14:26:54Z</time>
      </trkpt>
      <trkpt lat="42.048147758468986" lon="13.039740510284901">
        <ele>781.69006300000001</ele>
        <time>2017-06-12T14:27:24Z</time>
      </trkpt>
      <trkpt lat="42.048144740983844" lon="13.03982893936336">
        <ele>781.20996100000002</ele>
        <time>2017-06-12T14:27:40Z</time>
      </trkpt>
      <trkpt lat="42.048083133995533" lon="13.039752412587404">
        <ele>781.20996100000002</ele>
        <time>2017-06-12T14:27:55Z</time>
      </trkpt>
      <trkpt lat="42.048065867275" lon="13.039716286584735">
        <ele>781.20996100000002</ele>
        <time>2017-06-12T14:28:09Z</time>
      </trkpt>
      <trkpt lat="42.048096964135766" lon="13.039718298241496">
        <ele>781.20996100000002</ele>
        <time>2017-06-12T14:28:28Z</time>
      </trkpt>
      <trkpt lat="42.04806100577116" lon="13.039684686809778">
        <ele>781.20996100000002</ele>
        <time>2017-06-12T14:28:40Z</time>
      </trkpt>
      <trkpt lat="42.048074165359139" lon="13.039657864719629">
        <ele>781.20996100000002</ele>
        <time>2017-06-12T14:28:57Z</time>
      </trkpt>
      <trkpt lat="42.048142896965146" lon="13.039730871096253">
        <ele>781.20996100000002</ele>
        <time>2017-06-12T14:29:11Z</time>
      </trkpt>
      <trkpt lat="42.04815580509603" lon="13.039766997098923">
        <ele>781.20996100000002</ele>
        <time>2017-06-12T14:29:28Z</time>
      </trkpt>
      <trkpt lat="42.048107190057635" lon="13.039714023470879">
        <ele>781.69006300000001</ele>
        <time>2017-06-12T14:29:46Z</time>
      </trkpt>
      <trkpt lat="42.048096628859639" lon="13.039737576618791">
        <ele>781.69006300000001</ele>
        <time>2017-06-12T14:30:01Z</time>
      </trkpt>
      <trkpt lat="42.048086989670992" lon="13.039774959906936">
        <ele>781.69006300000001</ele>
        <time>2017-06-12T14:30:25Z</time>
      </trkpt>
      <trkpt lat="42.048087827861309" lon="13.039772277697921">
        <ele>781.69006300000001</ele>
        <time>2017-06-12T14:30:27Z</time>
      </trkpt>
      <trkpt lat="42.048176508396864" lon="13.039695834740996">
        <ele>783.60998500000005</ele>
        <time>2017-06-12T14:30:34Z</time>
      </trkpt>
      <trkpt lat="42.04827893525362" lon="13.039671024307609">
        <ele>785.04998799999998</ele>
        <time>2017-06-12T14:30:42Z</time>
      </trkpt>
      <trkpt lat="42.048291591927409" lon="13.039682172238827">
        <ele>785.04998799999998</ele>
        <time>2017-06-12T14:30:43Z</time>
      </trkpt>
      <trkpt lat="42.048303661867976" lon="13.039697678759694">
        <ele>785.04998799999998</ele>
        <time>2017-06-12T14:30:44Z</time>
      </trkpt>
      <trkpt lat="42.048342218622565" lon="13.039902532473207">
        <ele>786.5</ele>
        <time>2017-06-12T14:30:54Z</time>
      </trkpt>
      <trkpt lat="42.048350935801864" lon="13.039915021508932">
        <ele>786.97997999999995</ele>
        <time>2017-06-12T14:30:55Z</time>
      </trkpt>
      <trkpt lat="42.048364514485002" lon="13.039923487231135">
        <ele>786.97997999999995</ele>
        <time>2017-06-12T14:30:56Z</time>
      </trkpt>
      <trkpt lat="42.048475407063961" lon="13.040022309869528">
        <ele>789.38000499999998</ele>
        <time>2017-06-12T14:31:06Z</time>
      </trkpt>
      <trkpt lat="42.048473060131073" lon="13.04004343226552">
        <ele>791.29998799999998</ele>
        <time>2017-06-12T14:31:07Z</time>
      </trkpt>
      <trkpt lat="42.048475323244929" lon="13.04005516692996">
        <ele>791.29998799999998</ele>
        <time>2017-06-12T14:31:08Z</time>
      </trkpt>
      <trkpt lat="42.048481106758118" lon="13.040070170536637">
        <ele>791.29998799999998</ele>
        <time>2017-06-12T14:31:09Z</time>
      </trkpt>
      <trkpt lat="42.04848513007164" lon="13.040072014555335">
        <ele>791.29998799999998</ele>
        <time>2017-06-12T14:31:10Z</time>
      </trkpt>
      <trkpt lat="42.048491835594177" lon="13.0400859285146">
        <ele>791.29998799999998</ele>
        <time>2017-06-12T14:31:11Z</time>
      </trkpt>
      <trkpt lat="42.048563584685326" lon="13.040152732282877">
        <ele>791.77996800000005</ele>
        <time>2017-06-12T14:31:20Z</time>
      </trkpt>
      <trkpt lat="42.048574229702353" lon="13.040145188570023">
        <ele>792.26000999999997</ele>
        <time>2017-06-12T14:31:21Z</time>
      </trkpt>
      <trkpt lat="42.048540534451604" lon="13.040005210787058">
        <ele>792.73999000000003</ele>
        <time>2017-06-12T14:31:34Z</time>
      </trkpt>
      <trkpt lat="42.048551263287663" lon="13.040020130574703">
        <ele>792.73999000000003</ele>
        <time>2017-06-12T14:32:00Z</time>
      </trkpt>
      <trkpt lat="42.048556040972471" lon="13.040009904652834">
        <ele>792.73999000000003</ele>
        <time>2017-06-12T14:32:18Z</time>
      </trkpt>
      <trkpt lat="42.048567272722721" lon="13.040007138624787">
        <ele>792.73999000000003</ele>
        <time>2017-06-12T14:32:40Z</time>
      </trkpt>
      <trkpt lat="42.048569619655609" lon="13.040021639317274">
        <ele>792.73999000000003</ele>
        <time>2017-06-12T14:32:48Z</time>
      </trkpt>
      <trkpt lat="42.048572972416878" lon="13.040036726742983">
        <ele>792.73999000000003</ele>
        <time>2017-06-12T14:32:49Z</time>
      </trkpt>
      <trkpt lat="42.048573978245258" lon="13.040057765319943">
        <ele>792.73999000000003</ele>
        <time>2017-06-12T14:32:50Z</time>
      </trkpt>
      <trkpt lat="42.048575403168797" lon="13.040076959878206">
        <ele>792.73999000000003</ele>
        <time>2017-06-12T14:32:51Z</time>
      </trkpt>
      <trkpt lat="42.048573140054941" lon="13.04009229876101">
        <ele>792.73999000000003</ele>
        <time>2017-06-12T14:32:52Z</time>
      </trkpt>
      <trkpt lat="42.048565093427896" lon="13.040107972919941">
        <ele>792.73999000000003</ele>
        <time>2017-06-12T14:32:53Z</time>
      </trkpt>
      <trkpt lat="42.048548832535744" lon="13.040124233812094">
        <ele>792.73999000000003</ele>
        <time>2017-06-12T14:32:54Z</time>
      </trkpt>
      <trkpt lat="42.048532320186496" lon="13.040141584351659">
        <ele>792.73999000000003</ele>
        <time>2017-06-12T14:32:55Z</time>
      </trkpt>
      <trkpt lat="42.048458475619555" lon="13.040065560489893">
        <ele>791.77996800000005</ele>
        <time>2017-06-12T14:33:02Z</time>
      </trkpt>
      <trkpt lat="42.04839276149869" lon="13.039912758395076">
        <ele>788.90002400000003</ele>
        <time>2017-06-12T14:33:13Z</time>
      </trkpt>
      <trkpt lat="42.048308607190847" lon="13.039920637384057">
        <ele>787.46002199999998</ele>
        <time>2017-06-12T14:33:20Z</time>
      </trkpt>
      <trkpt lat="42.048288322985172" lon="13.039883589372039">
        <ele>786.97997999999995</ele>
        <time>2017-06-12T14:33:23Z</time>
      </trkpt>
      <trkpt lat="42.048247503116727" lon="13.039763560518622">
        <ele>785.53002900000001</ele>
        <time>2017-06-12T14:33:30Z</time>
      </trkpt>
      <trkpt lat="42.04822763800621" lon="13.03976884111762">
        <ele>785.04998799999998</ele>
        <time>2017-06-12T14:33:32Z</time>
      </trkpt>
      <trkpt lat="42.048200983554125" lon="13.039920218288898">
        <ele>783.60998500000005</ele>
        <time>2017-06-12T14:33:45Z</time>
      </trkpt>
      <trkpt lat="42.048191679641604" lon="13.039921978488564">
        <ele>783.60998500000005</ele>
        <time>2017-06-12T14:33:46Z</time>
      </trkpt>
      <trkpt lat="42.048122696578503" lon="13.039884762838483">
        <ele>782.64996299999996</ele>
        <time>2017-06-12T14:33:51Z</time>
      </trkpt>
      <trkpt lat="42.048069471493363" lon="13.039831621572375">
        <ele>781.69006300000001</ele>
        <time>2017-06-12T14:33:55Z</time>
      </trkpt>
      <trkpt lat="42.048056479543447" lon="13.039775295183063">
        <ele>781.69006300000001</ele>
        <time>2017-06-12T14:34:15Z</time>
      </trkpt>
      <trkpt lat="42.048093192279339" lon="13.039798010140657">
        <ele>781.69006300000001</ele>
        <time>2017-06-12T14:34:36Z</time>
      </trkpt>
      <trkpt lat="42.048119930550456" lon="13.039858192205429">
        <ele>782.169983</ele>
        <time>2017-06-12T14:34:49Z</time>
      </trkpt>
      <trkpt lat="42.048151781782508" lon="13.039848385378718">
        <ele>781.20996100000002</ele>
        <time>2017-06-12T14:35:10Z</time>
      </trkpt>
      <trkpt lat="42.048144238069654" lon="13.039860539138317">
        <ele>781.20996100000002</ele>
        <time>2017-06-12T14:35:34Z</time>
      </trkpt>
      <trkpt lat="42.048153961077332" lon="13.039866993203759">
        <ele>782.64996299999996</ele>
        <time>2017-06-12T14:36:12Z</time>
      </trkpt>
      <trkpt lat="42.048178687691689" lon="13.039854420349002">
        <ele>783.13000499999998</ele>
        <time>2017-06-12T14:36:42Z</time>
      </trkpt>
      <trkpt lat="42.048170138150454" lon="13.039854085072875">
        <ele>783.13000499999998</ele>
        <time>2017-06-12T14:37:11Z</time>
      </trkpt>
      <trkpt lat="42.048102160915732" lon="13.039817372336984">
        <ele>783.13000499999998</ele>
        <time>2017-06-12T14:37:30Z</time>
      </trkpt>
      <trkpt lat="42.048078021034598" lon="13.03973950445652">
        <ele>783.13000499999998</ele>
        <time>2017-06-12T14:37:42Z</time>
      </trkpt>
      <trkpt lat="42.048090677708387" lon="13.03974436596036">
        <ele>783.13000499999998</ele>
        <time>2017-06-12T14:38:01Z</time>
      </trkpt>
      <trkpt lat="42.048077182844281" lon="13.03975123912096">
        <ele>783.13000499999998</ele>
        <time>2017-06-12T14:38:19Z</time>
      </trkpt>
      <trkpt lat="42.048079110682011" lon="13.03976146504283">
        <ele>783.13000499999998</ele>
        <time>2017-06-12T14:38:44Z</time>
      </trkpt>
      <trkpt lat="42.048061760142446" lon="13.039772193878889">
        <ele>782.64996299999996</ele>
        <time>2017-06-12T14:39:05Z</time>
      </trkpt>
      <trkpt lat="42.048074835911393" lon="13.039785018190742">
        <ele>783.13000499999998</ele>
        <time>2017-06-12T14:39:12Z</time>
      </trkpt>
      <trkpt lat="42.048079865053296" lon="13.03986607119441">
        <ele>783.13000499999998</ele>
        <time>2017-06-12T14:39:17Z</time>
      </trkpt>
      <trkpt lat="42.048081122338772" lon="13.039918709546328">
        <ele>781.69006300000001</ele>
        <time>2017-06-12T14:39:21Z</time>
      </trkpt>
      <trkpt lat="42.048085983842611" lon="13.040168490260839">
        <ele>778.80999799999995</ele>
        <time>2017-06-12T14:39:36Z</time>
      </trkpt>
      <trkpt lat="42.048141891136765" lon="13.040505861863494">
        <ele>775.919983</ele>
        <time>2017-06-12T14:39:53Z</time>
      </trkpt>
      <trkpt lat="42.048110039904714" lon="13.040626477450132">
        <ele>774.96002199999998</ele>
        <time>2017-06-12T14:40:03Z</time>
      </trkpt>
      <trkpt lat="42.047898480668664" lon="13.040865864604712">
        <ele>773.03997800000002</ele>
        <time>2017-06-12T14:40:20Z</time>
      </trkpt>
      <trkpt lat="42.047618441283703" lon="13.04095228202641">
        <ele>772.07995600000004</ele>
        <time>2017-06-12T14:40:38Z</time>
      </trkpt>
      <trkpt lat="42.047374276444316" lon="13.040930991992354">
        <ele>772.07995600000004</ele>
        <time>2017-06-12T14:40:58Z</time>
      </trkpt>
      <trkpt lat="42.047164309769869" lon="13.040942559018731">
        <ele>774.47997999999995</ele>
        <time>2017-06-12T14:41:15Z</time>
      </trkpt>
      <trkpt lat="42.047017375007272" lon="13.040870474651456">
        <ele>776.40002400000003</ele>
        <time>2017-06-12T14:41:29Z</time>
      </trkpt>
      <trkpt lat="42.04700656235218" lon="13.04085798561573">
        <ele>776.88000499999998</ele>
        <time>2017-06-12T14:41:30Z</time>
      </trkpt>
      <trkpt lat="42.046866333112121" lon="13.040697136893868">
        <ele>777.84002699999996</ele>
        <time>2017-06-12T14:41:46Z</time>
      </trkpt>
      <trkpt lat="42.046729121357203" lon="13.040634775534272">
        <ele>779.77002000000005</ele>
        <time>2017-06-12T14:42:02Z</time>
      </trkpt>
      <trkpt lat="42.046677405014634" lon="13.040664112195373">
        <ele>780.25</ele>
        <time>2017-06-12T14:42:09Z</time>
      </trkpt>
      <trkpt lat="42.046670112758875" lon="13.040669392794371">
        <ele>780.25</ele>
        <time>2017-06-12T14:42:10Z</time>
      </trkpt>
      <trkpt lat="42.046659300103784" lon="13.040683222934604">
        <ele>781.20996100000002</ele>
        <time>2017-06-12T14:42:12Z</time>
      </trkpt>
      <trkpt lat="42.046651169657707" lon="13.040694035589695">
        <ele>781.20996100000002</ele>
        <time>2017-06-12T14:42:13Z</time>
      </trkpt>
      <trkpt lat="42.046570284292102" lon="13.040769640356302">
        <ele>782.64996299999996</ele>
        <time>2017-06-12T14:42:30Z</time>
      </trkpt>
      <trkpt lat="42.046545473858714" lon="13.040792439132929">
        <ele>782.64996299999996</ele>
        <time>2017-06-12T14:42:32Z</time>
      </trkpt>
      <trkpt lat="42.046536505222321" lon="13.040804592892528">
        <ele>782.64996299999996</ele>
        <time>2017-06-12T14:42:33Z</time>
      </trkpt>
      <trkpt lat="42.046526866033673" lon="13.040815740823746">
        <ele>782.64996299999996</ele>
        <time>2017-06-12T14:42:34Z</time>
      </trkpt>
      <trkpt lat="42.046517729759216" lon="13.040825380012393">
        <ele>782.64996299999996</ele>
        <time>2017-06-12T14:42:35Z</time>
      </trkpt>
      <trkpt lat="42.046370459720492" lon="13.040969464927912">
        <ele>783.60998500000005</ele>
        <time>2017-06-12T14:42:50Z</time>
      </trkpt>
      <trkpt lat="42.046268619596958" lon="13.041152274236083">
        <ele>784.57000700000003</ele>
        <time>2017-06-12T14:43:05Z</time>
      </trkpt>
      <trkpt lat="42.04620617441833" lon="13.041360396891832">
        <ele>786.5</ele>
        <time>2017-06-12T14:43:20Z</time>
      </trkpt>
      <trkpt lat="42.04612797126174" lon="13.041532980278134">
        <ele>786.97997999999995</ele>
        <time>2017-06-12T14:43:34Z</time>
      </trkpt>
      <trkpt lat="42.046071561053395" lon="13.041615039110184">
        <ele>787.94000200000005</ele>
        <time>2017-06-12T14:43:42Z</time>
      </trkpt>
      <trkpt lat="42.046060329303145" lon="13.041621912270784">
        <ele>787.94000200000005</ele>
        <time>2017-06-12T14:43:43Z</time>
      </trkpt>
      <trkpt lat="42.046049935743213" lon="13.041628114879131">
        <ele>787.94000200000005</ele>
        <time>2017-06-12T14:43:44Z</time>
      </trkpt>
      <trkpt lat="42.045887913554907" lon="13.041728781536222">
        <ele>789.38000499999998</ele>
        <time>2017-06-12T14:44:01Z</time>
      </trkpt>
      <trkpt lat="42.045775596052408" lon="13.041753424331546">
        <ele>790.34002699999996</ele>
        <time>2017-06-12T14:44:17Z</time>
      </trkpt>
      <trkpt lat="42.045554984360933" lon="13.041853168979287">
        <ele>792.73999000000003</ele>
        <time>2017-06-12T14:44:38Z</time>
      </trkpt>
      <trkpt lat="42.045412072911859" lon="13.041897593066096">
        <ele>793.70996100000002</ele>
        <time>2017-06-12T14:44:52Z</time>
      </trkpt>
      <trkpt lat="42.045273939147592" lon="13.041947465389967">
        <ele>795.14996299999996</ele>
        <time>2017-06-12T14:45:06Z</time>
      </trkpt>
      <trkpt lat="42.045259773731232" lon="13.041948890313506">
        <ele>795.14996299999996</ele>
        <time>2017-06-12T14:45:07Z</time>
      </trkpt>
      <trkpt lat="42.045245608314872" lon="13.041949393227696">
        <ele>795.14996299999996</ele>
        <time>2017-06-12T14:45:08Z</time>
      </trkpt>
      <trkpt lat="42.045064140111208" lon="13.041983339935541">
        <ele>796.10998500000005</ele>
        <time>2017-06-12T14:45:23Z</time>
      </trkpt>
      <trkpt lat="42.04500999301672" lon="13.042013933882117">
        <ele>797.07000700000003</ele>
        <time>2017-06-12T14:45:29Z</time>
      </trkpt>
      <trkpt lat="42.044996581971645" lon="13.042011419311166">
        <ele>797.07000700000003</ele>
        <time>2017-06-12T14:45:30Z</time>
      </trkpt>
      <trkpt lat="42.044982416555285" lon="13.042006473988295">
        <ele>797.07000700000003</ele>
        <time>2017-06-12T14:45:31Z</time>
      </trkpt>
      <trkpt lat="42.044819137081504" lon="13.042026003822684">
        <ele>797.07000700000003</ele>
        <time>2017-06-12T14:45:47Z</time>
      </trkpt>
      <trkpt lat="42.044650409370661" lon="13.042085515335202">
        <ele>797.07000700000003</ele>
        <time>2017-06-12T14:46:03Z</time>
      </trkpt>
      <trkpt lat="42.044511437416077" lon="13.042174363508821">
        <ele>796.589966</ele>
        <time>2017-06-12T14:46:17Z</time>
      </trkpt>
      <trkpt lat="42.044474640861154" lon="13.042203281074762">
        <ele>795.14996299999996</ele>
        <time>2017-06-12T14:46:20Z</time>
      </trkpt>
      <trkpt lat="42.044238522648811" lon="13.042357172816992">
        <ele>794.19006300000001</ele>
        <time>2017-06-12T14:46:36Z</time>
      </trkpt>
      <trkpt lat="42.044100724160671" lon="13.042497737333179">
        <ele>793.21997099999999</ele>
        <time>2017-06-12T14:46:51Z</time>
      </trkpt>
      <trkpt lat="42.043938031420112" lon="13.042620196938515">
        <ele>792.73999000000003</ele>
        <time>2017-06-12T14:47:06Z</time>
      </trkpt>
      <trkpt lat="42.043872736394405" lon="13.042676858603954">
        <ele>792.73999000000003</ele>
        <time>2017-06-12T14:47:17Z</time>
      </trkpt>
      <trkpt lat="42.043805262073874" lon="13.042717259377241">
        <ele>791.77996800000005</ele>
        <time>2017-06-12T14:47:25Z</time>
      </trkpt>
      <trkpt lat="42.043796209618449" lon="13.042730921879411">
        <ele>791.77996800000005</ele>
        <time>2017-06-12T14:47:26Z</time>
      </trkpt>
      <trkpt lat="42.043785564601421" lon="13.04274408146739">
        <ele>791.77996800000005</ele>
        <time>2017-06-12T14:47:27Z</time>
      </trkpt>
      <trkpt lat="42.043629996478558" lon="13.042878694832325">
        <ele>790.34002699999996</ele>
        <time>2017-06-12T14:47:42Z</time>
      </trkpt>
      <trkpt lat="42.043456239625812" lon="13.043036358430982">
        <ele>789.38000499999998</ele>
        <time>2017-06-12T14:47:59Z</time>
      </trkpt>
      <trkpt lat="42.043280219659209" lon="13.043119758367538">
        <ele>789.38000499999998</ele>
        <time>2017-06-12T14:48:15Z</time>
      </trkpt>
      <trkpt lat="42.043105205520988" lon="13.04313694126904">
        <ele>789.38000499999998</ele>
        <time>2017-06-12T14:48:30Z</time>
      </trkpt>
      <trkpt lat="42.042962461709976" lon="13.043123614042997">
        <ele>789.38000499999998</ele>
        <time>2017-06-12T14:48:44Z</time>
      </trkpt>
      <trkpt lat="42.042865818366408" lon="13.043060414493084">
        <ele>790.34002699999996</ele>
        <time>2017-06-12T14:48:52Z</time>
      </trkpt>
      <trkpt lat="42.042809072881937" lon="13.042975505813956">
        <ele>791.29998799999998</ele>
        <time>2017-06-12T14:49:00Z</time>
      </trkpt>
      <trkpt lat="42.042803540825844" lon="13.042957819998264">
        <ele>791.29998799999998</ele>
        <time>2017-06-12T14:49:01Z</time>
      </trkpt>
      <trkpt lat="42.042799182236195" lon="13.042942062020302">
        <ele>791.29998799999998</ele>
        <time>2017-06-12T14:49:02Z</time>
      </trkpt>
      <trkpt lat="42.042793733999133" lon="13.042927226051688">
        <ele>791.29998799999998</ele>
        <time>2017-06-12T14:49:03Z</time>
      </trkpt>
      <trkpt lat="42.042792141437531" lon="13.042882299050689">
        <ele>791.77996800000005</ele>
        <time>2017-06-12T14:49:12Z</time>
      </trkpt>
      <trkpt lat="42.042789459228516" lon="13.042866038158536">
        <ele>791.77996800000005</ele>
        <time>2017-06-12T14:49:13Z</time>
      </trkpt>
      <trkpt lat="42.042781915515661" lon="13.042836533859372">
        <ele>791.77996800000005</ele>
        <time>2017-06-12T14:49:19Z</time>
      </trkpt>
      <trkpt lat="42.04278233461082" lon="13.042817758396268">
        <ele>791.77996800000005</ele>
        <time>2017-06-12T14:49:20Z</time>
      </trkpt>
      <trkpt lat="42.042783088982105" lon="13.042793869972229">
        <ele>791.77996800000005</ele>
        <time>2017-06-12T14:49:21Z</time>
      </trkpt>
      <trkpt lat="42.042786860838532" lon="13.042771490290761">
        <ele>792.26000999999997</ele>
        <time>2017-06-12T14:49:22Z</time>
      </trkpt>
      <trkpt lat="42.042792309075594" lon="13.042750870808959">
        <ele>792.26000999999997</ele>
        <time>2017-06-12T14:49:23Z</time>
      </trkpt>
      <trkpt lat="42.042800774797797" lon="13.042729664593935">
        <ele>792.26000999999997</ele>
        <time>2017-06-12T14:49:24Z</time>
      </trkpt>
      <trkpt lat="42.042754758149385" lon="13.042473178356886">
        <ele>793.70996100000002</ele>
        <time>2017-06-12T14:49:38Z</time>
      </trkpt>
      <trkpt lat="42.042644787579775" lon="13.042298331856728">
        <ele>794.19006300000001</ele>
        <time>2017-06-12T14:49:55Z</time>
      </trkpt>
      <trkpt lat="42.042411938309669" lon="13.042134968563914">
        <ele>794.19006300000001</ele>
        <time>2017-06-12T14:50:14Z</time>
      </trkpt>
      <trkpt lat="42.042228374630213" lon="13.041974622756243">
        <ele>795.63000499999998</ele>
        <time>2017-06-12T14:50:31Z</time>
      </trkpt>
      <trkpt lat="42.042093509808183" lon="13.041854426264763">
        <ele>796.589966</ele>
        <time>2017-06-12T14:50:45Z</time>
      </trkpt>
      <trkpt lat="42.041958812624216" lon="13.04173749871552">
        <ele>797.07000700000003</ele>
        <time>2017-06-12T14:50:59Z</time>
      </trkpt>
      <trkpt lat="42.041822606697679" lon="13.0416280310601">
        <ele>798.51000999999997</ele>
        <time>2017-06-12T14:51:14Z</time>
      </trkpt>
      <trkpt lat="42.041685897856951" lon="13.041502889245749">
        <ele>799.94995100000006</ele>
        <time>2017-06-12T14:51:28Z</time>
      </trkpt>
      <trkpt lat="42.041644491255283" lon="13.041479587554932">
        <ele>800.44000200000005</ele>
        <time>2017-06-12T14:51:33Z</time>
      </trkpt>
      <trkpt lat="42.041634600609541" lon="13.041473384946585">
        <ele>800.919983</ele>
        <time>2017-06-12T14:51:34Z</time>
      </trkpt>
      <trkpt lat="42.041623033583164" lon="13.04146584123373">
        <ele>800.919983</ele>
        <time>2017-06-12T14:51:35Z</time>
      </trkpt>
      <trkpt lat="42.04160962253809" lon="13.041461734101176">
        <ele>800.919983</ele>
        <time>2017-06-12T14:51:36Z</time>
      </trkpt>
      <trkpt lat="42.041594870388508" lon="13.041457375511527">
        <ele>800.919983</ele>
        <time>2017-06-12T14:51:37Z</time>
      </trkpt>
      <trkpt lat="42.04158372245729" lon="13.04145410656929">
        <ele>800.919983</ele>
        <time>2017-06-12T14:51:38Z</time>
      </trkpt>
      <trkpt lat="42.041452210396528" lon="13.041405826807022">
        <ele>802.36004600000001</ele>
        <time>2017-06-12T14:51:52Z</time>
      </trkpt>
      <trkpt lat="42.041310220956802" lon="13.041393337771297">
        <ele>804.27996800000005</ele>
        <time>2017-06-12T14:52:05Z</time>
      </trkpt>
      <trkpt lat="42.041227072477341" lon="13.041396103799343">
        <ele>804.27996800000005</ele>
        <time>2017-06-12T14:52:13Z</time>
      </trkpt>
      <trkpt lat="42.041215002536774" lon="13.041399037465453">
        <ele>804.27996800000005</ele>
        <time>2017-06-12T14:52:14Z</time>
      </trkpt>
      <trkpt lat="42.041201591491699" lon="13.041404904797673">
        <ele>805.23999000000003</ele>
        <time>2017-06-12T14:52:15Z</time>
      </trkpt>
      <trkpt lat="42.041187677532434" lon="13.041412364691496">
        <ele>805.23999000000003</ele>
        <time>2017-06-12T14:52:16Z</time>
      </trkpt>
      <trkpt lat="42.041152222082019" lon="13.041436336934566">
        <ele>805.71997099999999</ele>
        <time>2017-06-12T14:52:21Z</time>
      </trkpt>
      <trkpt lat="42.041143672540784" lon="13.041443964466453">
        <ele>805.71997099999999</ele>
        <time>2017-06-12T14:52:22Z</time>
      </trkpt>
      <trkpt lat="42.041024817153811" lon="13.041507164016366">
        <ele>807.160034</ele>
        <time>2017-06-12T14:52:35Z</time>
      </trkpt>
      <trkpt lat="42.040907386690378" lon="13.041585115715861">
        <ele>808.60998500000005</ele>
        <time>2017-06-12T14:52:49Z</time>
      </trkpt>
      <trkpt lat="42.040803618729115" lon="13.041678741574287">
        <ele>810.04998799999998</ele>
        <time>2017-06-12T14:53:02Z</time>
      </trkpt>
      <trkpt lat="42.040704460814595" lon="13.041784102097154">
        <ele>811.48999000000003</ele>
        <time>2017-06-12T14:53:15Z</time>
      </trkpt>
      <trkpt lat="42.040609829127789" lon="13.041878817602992">
        <ele>813.40997300000004</ele>
        <time>2017-06-12T14:53:27Z</time>
      </trkpt>
      <trkpt lat="42.040507486090064" lon="13.041992895305157">
        <ele>814.84997599999997</ele>
        <time>2017-06-12T14:53:40Z</time>
      </trkpt>
      <trkpt lat="42.040419727563858" lon="13.042080234736204">
        <ele>815.81994599999996</ele>
        <time>2017-06-12T14:53:51Z</time>
      </trkpt>
      <trkpt lat="42.040409166365862" lon="13.042089538648725">
        <ele>815.81994599999996</ele>
        <time>2017-06-12T14:53:52Z</time>
      </trkpt>
      <trkpt lat="42.040398437529802" lon="13.04209959693253">
        <ele>815.81994599999996</ele>
        <time>2017-06-12T14:53:53Z</time>
      </trkpt>
      <trkpt lat="42.040386870503426" lon="13.042109990492463">
        <ele>816.29998799999998</ele>
        <time>2017-06-12T14:53:54Z</time>
      </trkpt>
      <trkpt lat="42.040316881611943" lon="13.042204286903143">
        <ele>817.26000999999997</ele>
        <time>2017-06-12T14:54:04Z</time>
      </trkpt>
      <trkpt lat="42.040309170261025" lon="13.042216692119837">
        <ele>817.26000999999997</ele>
        <time>2017-06-12T14:54:05Z</time>
      </trkpt>
      <trkpt lat="42.040299866348505" lon="13.042229013517499">
        <ele>817.26000999999997</ele>
        <time>2017-06-12T14:54:06Z</time>
      </trkpt>
      <trkpt lat="42.040285365656018" lon="13.042248962447047">
        <ele>817.26000999999997</ele>
        <time>2017-06-12T14:54:09Z</time>
      </trkpt>
      <trkpt lat="42.040279917418957" lon="13.042261200025678">
        <ele>817.26000999999997</ele>
        <time>2017-06-12T14:54:10Z</time>
      </trkpt>
      <trkpt lat="42.040250161662698" lon="13.042309060692787">
        <ele>817.73999000000003</ele>
        <time>2017-06-12T14:54:15Z</time>
      </trkpt>
      <trkpt lat="42.040243875235319" lon="13.042319705709815">
        <ele>817.73999000000003</ele>
        <time>2017-06-12T14:54:16Z</time>
      </trkpt>
      <trkpt lat="42.040215209126472" lon="13.042371673509479">
        <ele>818.21997099999999</ele>
        <time>2017-06-12T14:54:21Z</time>
      </trkpt>
      <trkpt lat="42.040206408128142" lon="13.042384665459394">
        <ele>818.21997099999999</ele>
        <time>2017-06-12T14:54:22Z</time>
      </trkpt>
      <trkpt lat="42.04018478281796" lon="13.042421462014318">
        <ele>818.70001200000002</ele>
        <time>2017-06-12T14:54:26Z</time>
      </trkpt>
      <trkpt lat="42.040177658200264" lon="13.042435711249709">
        <ele>818.70001200000002</ele>
        <time>2017-06-12T14:54:27Z</time>
      </trkpt>
      <trkpt lat="42.040128791704774" lon="13.042533192783594">
        <ele>819.660034</ele>
        <time>2017-06-12T14:54:40Z</time>
      </trkpt>
      <trkpt lat="42.04005092382431" lon="13.042664872482419">
        <ele>820.61999500000002</ele>
        <time>2017-06-12T14:54:53Z</time>
      </trkpt>
      <trkpt lat="42.039969116449356" lon="13.042788002640009">
        <ele>821.580017</ele>
        <time>2017-06-12T14:55:05Z</time>
      </trkpt>
      <trkpt lat="42.03986425884068" lon="13.042861511930823">
        <ele>823.03002900000001</ele>
        <time>2017-06-12T14:55:17Z</time>
      </trkpt>
      <trkpt lat="42.039812291041017" lon="13.042897386476398">
        <ele>823.98999000000003</ele>
        <time>2017-06-12T14:55:23Z</time>
      </trkpt>
      <trkpt lat="42.039734506979585" lon="13.042893866077065">
        <ele>824.47003199999995</ele>
        <time>2017-06-12T14:55:30Z</time>
      </trkpt>
      <trkpt lat="42.039721598848701" lon="13.042887412011623">
        <ele>824.47003199999995</ele>
        <time>2017-06-12T14:55:31Z</time>
      </trkpt>
      <trkpt lat="42.039708690717816" lon="13.042881796136498">
        <ele>824.47003199999995</ele>
        <time>2017-06-12T14:55:32Z</time>
      </trkpt>
      <trkpt lat="42.039694860577583" lon="13.042879113927484">
        <ele>824.94995100000006</ele>
        <time>2017-06-12T14:55:33Z</time>
      </trkpt>
      <trkpt lat="42.039680276066065" lon="13.042877772822976">
        <ele>825.43005400000004</ele>
        <time>2017-06-12T14:55:34Z</time>
      </trkpt>
      <trkpt lat="42.039635265246034" lon="13.042865702882409">
        <ele>825.43005400000004</ele>
        <time>2017-06-12T14:55:39Z</time>
      </trkpt>
      <trkpt lat="42.039497885853052" lon="13.042789762839675">
        <ele>827.830017</ele>
        <time>2017-06-12T14:55:53Z</time>
      </trkpt>
      <trkpt lat="42.039365619421005" lon="13.042731005698442">
        <ele>829.76000999999997</ele>
        <time>2017-06-12T14:56:07Z</time>
      </trkpt>
      <trkpt lat="42.039242321625352" lon="13.042708123102784">
        <ele>830.71997099999999</ele>
        <time>2017-06-12T14:56:20Z</time>
      </trkpt>
      <trkpt lat="42.039192197844386" lon="13.042685240507126">
        <ele>831.20001200000002</ele>
        <time>2017-06-12T14:56:33Z</time>
      </trkpt>
      <trkpt lat="42.039159005507827" lon="13.042671494185925">
        <ele>831.20001200000002</ele>
        <time>2017-06-12T14:56:49Z</time>
      </trkpt>
      <trkpt lat="42.039142660796642" lon="13.042662525549531">
        <ele>831.20001200000002</ele>
        <time>2017-06-12T14:57:15Z</time>
      </trkpt>
      <trkpt lat="42.03913863748312" lon="13.042655317112803">
        <ele>832.160034</ele>
        <time>2017-06-12T14:57:48Z</time>
      </trkpt>
      <trkpt lat="42.039129920303822" lon="13.042654562741518">
        <ele>832.160034</ele>
        <time>2017-06-12T14:57:49Z</time>
      </trkpt>
      <trkpt lat="42.039091363549232" lon="13.042655317112803">
        <ele>832.64001499999995</ele>
        <time>2017-06-12T14:58:02Z</time>
      </trkpt>
      <trkpt lat="42.039037467911839" lon="13.042672835290432">
        <ele>835.51995799999997</ele>
        <time>2017-06-12T14:58:09Z</time>
      </trkpt>
      <trkpt lat="42.039031935855746" lon="13.042676439508796">
        <ele>835.51995799999997</ele>
        <time>2017-06-12T14:58:10Z</time>
      </trkpt>
      <trkpt lat="42.039023721590638" lon="13.042680462822318">
        <ele>835.51995799999997</ele>
        <time>2017-06-12T14:58:11Z</time>
      </trkpt>
      <trkpt lat="42.039014333859086" lon="13.04268741980195">
        <ele>835.51995799999997</ele>
        <time>2017-06-12T14:58:12Z</time>
      </trkpt>
      <trkpt lat="42.039004191756248" lon="13.042698064818978">
        <ele>835.51995799999997</ele>
        <time>2017-06-12T14:58:13Z</time>
      </trkpt>
      <trkpt lat="42.038983069360256" lon="13.042708206921816">
        <ele>836.47997999999995</ele>
        <time>2017-06-12T14:58:26Z</time>
      </trkpt>
      <trkpt lat="42.038944428786635" lon="13.042746679857373">
        <ele>838.40997300000004</ele>
        <time>2017-06-12T14:58:33Z</time>
      </trkpt>
      <trkpt lat="42.038871590048075" lon="13.042812058702111">
        <ele>838.88995399999999</ele>
        <time>2017-06-12T14:58:43Z</time>
      </trkpt>
      <trkpt lat="42.038816437125206" lon="13.042848603799939">
        <ele>838.88995399999999</ele>
        <time>2017-06-12T14:58:49Z</time>
      </trkpt>
      <trkpt lat="42.038716776296496" lon="13.042893279343843">
        <ele>839.36999500000002</ele>
        <time>2017-06-12T14:58:59Z</time>
      </trkpt>
      <trkpt lat="42.038702862337232" lon="13.042891435325146">
        <ele>839.36999500000002</ele>
        <time>2017-06-12T14:59:00Z</time>
      </trkpt>
      <trkpt lat="42.038606386631727" lon="13.042938122525811">
        <ele>841.28997800000002</ele>
        <time>2017-06-12T14:59:12Z</time>
      </trkpt>
      <trkpt lat="42.038503037765622" lon="13.0429766792804">
        <ele>842.73004200000003</ele>
        <time>2017-06-12T14:59:24Z</time>
      </trkpt>
      <trkpt lat="42.038396839052439" lon="13.04302697069943">
        <ele>844.17999299999997</ele>
        <time>2017-06-12T14:59:36Z</time>
      </trkpt>
      <trkpt lat="42.038308493793011" lon="13.0430958699435">
        <ele>845.61999500000002</ele>
        <time>2017-06-12T14:59:48Z</time>
      </trkpt>
      <trkpt lat="42.038217298686504" lon="13.043140294030309">
        <ele>847.06005900000002</ele>
        <time>2017-06-12T15:00:00Z</time>
      </trkpt>
      <trkpt lat="42.038099030032754" lon="13.043220760300756">
        <ele>847.06005900000002</ele>
        <time>2017-06-12T15:00:13Z</time>
      </trkpt>
      <trkpt lat="42.038001632317901" lon="13.043346907943487">
        <ele>848.5</ele>
        <time>2017-06-12T15:00:26Z</time>
      </trkpt>
      <trkpt lat="42.037918735295534" lon="13.04345260374248">
        <ele>851.38000499999998</ele>
        <time>2017-06-12T15:00:39Z</time>
      </trkpt>
      <trkpt lat="42.037831312045455" lon="13.043538015335798">
        <ele>851.86999500000002</ele>
        <time>2017-06-12T15:00:51Z</time>
      </trkpt>
      <trkpt lat="42.037801640108228" lon="13.043557964265347">
        <ele>851.86999500000002</ele>
        <time>2017-06-12T15:00:55Z</time>
      </trkpt>
      <trkpt lat="42.037711199373007" lon="13.043617140501738">
        <ele>850.419983</ele>
        <time>2017-06-12T15:01:07Z</time>
      </trkpt>
      <trkpt lat="42.037657974287868" lon="13.04362359456718">
        <ele>852.34997599999997</ele>
        <time>2017-06-12T15:01:11Z</time>
      </trkpt>
      <trkpt lat="42.03765076585114" lon="13.043628791347146">
        <ele>850.90002400000003</ele>
        <time>2017-06-12T15:01:12Z</time>
      </trkpt>
      <trkpt lat="42.03755060210824" lon="13.043772038072348">
        <ele>848.5</ele>
        <time>2017-06-12T15:01:26Z</time>
      </trkpt>
      <trkpt lat="42.037535682320595" lon="13.043826939538121">
        <ele>848.01995799999997</ele>
        <time>2017-06-12T15:01:32Z</time>
      </trkpt>
      <trkpt lat="42.037581531330943" lon="13.043902963399887">
        <ele>848.01995799999997</ele>
        <time>2017-06-12T15:01:40Z</time>
      </trkpt>
      <trkpt lat="42.037575580179691" lon="13.043927773833275">
        <ele>848.01995799999997</ele>
        <time>2017-06-12T15:01:55Z</time>
      </trkpt>
      <trkpt lat="42.037565102800727" lon="13.043948393315077">
        <ele>848.01995799999997</ele>
        <time>2017-06-12T15:02:12Z</time>
      </trkpt>
      <trkpt lat="42.037478182464838" lon="13.04396809078753">
        <ele>848.01995799999997</ele>
        <time>2017-06-12T15:02:19Z</time>
      </trkpt>
      <trkpt lat="42.037421939894557" lon="13.043974963948131">
        <ele>848.01995799999997</ele>
        <time>2017-06-12T15:02:25Z</time>
      </trkpt>
      <trkpt lat="42.037313561886549" lon="13.04390799254179">
        <ele>847.53997800000002</ele>
        <time>2017-06-12T15:02:36Z</time>
      </trkpt>
      <trkpt lat="42.037290930747986" lon="13.043901203200221">
        <ele>847.53997800000002</ele>
        <time>2017-06-12T15:02:38Z</time>
      </trkpt>
      <trkpt lat="42.037132931873202" lon="13.043846134096384">
        <ele>848.01995799999997</ele>
        <time>2017-06-12T15:02:52Z</time>
      </trkpt>
      <trkpt lat="42.037121364846826" lon="13.043844541534781">
        <ele>848.01995799999997</ele>
        <time>2017-06-12T15:02:53Z</time>
      </trkpt>
      <trkpt lat="42.03698230907321" lon="13.043855940923095">
        <ele>848.01995799999997</ele>
        <time>2017-06-12T15:03:06Z</time>
      </trkpt>
      <trkpt lat="42.036838224157691" lon="13.043888295069337">
        <ele>848.97997999999995</ele>
        <time>2017-06-12T15:03:21Z</time>
      </trkpt>
      <trkpt lat="42.036808216944337" lon="13.043899359181523">
        <ele>849.94000200000005</ele>
        <time>2017-06-12T15:03:35Z</time>
      </trkpt>
      <trkpt lat="42.03683327883482" lon="13.043901370838284">
        <ele>849.94000200000005</ele>
        <time>2017-06-12T15:03:38Z</time>
      </trkpt>
      <trkpt lat="42.036985913291574" lon="13.043894162401557">
        <ele>848.97997999999995</ele>
        <time>2017-06-12T15:03:53Z</time>
      </trkpt>
      <trkpt lat="42.037163190543652" lon="13.043888378888369">
        <ele>848.5</ele>
        <time>2017-06-12T15:04:07Z</time>
      </trkpt>
      <trkpt lat="42.037179116159678" lon="13.043909166008234">
        <ele>848.5</ele>
        <time>2017-06-12T15:04:09Z</time>
      </trkpt>
      <trkpt lat="42.037199484184384" lon="13.043922996148467">
        <ele>848.5</ele>
        <time>2017-06-12T15:04:11Z</time>
      </trkpt>
      <trkpt lat="42.037240471690893" lon="13.044043863192201">
        <ele>849.94000200000005</ele>
        <time>2017-06-12T15:04:27Z</time>
      </trkpt>
      <trkpt lat="42.037243824452162" lon="13.044041180983186">
        <ele>849.94000200000005</ele>
        <time>2017-06-12T15:04:29Z</time>
      </trkpt>
      <trkpt lat="42.037421017885208" lon="13.044055514037609">
        <ele>849.94000200000005</ele>
        <time>2017-06-12T15:04:42Z</time>
      </trkpt>
      <trkpt lat="42.037437194958329" lon="13.044058112427592">
        <ele>849.94000200000005</ele>
        <time>2017-06-12T15:04:44Z</time>
      </trkpt>
      <trkpt lat="42.037534341216087" lon="13.04410002194345">
        <ele>849.94000200000005</ele>
        <time>2017-06-12T15:04:53Z</time>
      </trkpt>
      <trkpt lat="42.037593517452478" lon="13.044380228966475">
        <ele>849.94000200000005</ele>
        <time>2017-06-12T15:05:12Z</time>
      </trkpt>
      <trkpt lat="42.037652526050806" lon="13.044575778767467">
        <ele>849.94000200000005</ele>
        <time>2017-06-12T15:05:24Z</time>
      </trkpt>
      <trkpt lat="42.037712959572673" lon="13.044806281104684">
        <ele>849.94000200000005</ele>
        <time>2017-06-12T15:05:40Z</time>
      </trkpt>
      <trkpt lat="42.037717569619417" lon="13.044831259176135">
        <ele>849.94000200000005</ele>
        <time>2017-06-12T15:05:42Z</time>
      </trkpt>
      <trkpt lat="42.037697285413742" lon="13.045052709057927">
        <ele>850.419983</ele>
        <time>2017-06-12T15:05:57Z</time>
      </trkpt>
      <trkpt lat="42.037691669538617" lon="13.045196207240224">
        <ele>852.34997599999997</ele>
        <time>2017-06-12T15:06:06Z</time>
      </trkpt>
      <trkpt lat="42.037672558799386" lon="13.045410867780447">
        <ele>853.30999799999995</ele>
        <time>2017-06-12T15:06:21Z</time>
      </trkpt>
      <trkpt lat="42.03767130151391" lon="13.045588899403811">
        <ele>853.78997800000002</ele>
        <time>2017-06-12T15:06:32Z</time>
      </trkpt>
      <trkpt lat="42.037672307342291" lon="13.045641789212823">
        <ele>854.27002000000005</ele>
        <time>2017-06-12T15:06:36Z</time>
      </trkpt>
      <trkpt lat="42.037667026743293" lon="13.045706413686275">
        <ele>854.75</ele>
        <time>2017-06-12T15:06:41Z</time>
      </trkpt>
      <trkpt lat="42.037681695073843" lon="13.045818815007806">
        <ele>855.23004200000003</ele>
        <time>2017-06-12T15:06:49Z</time>
      </trkpt>
      <trkpt lat="42.037666859105229" lon="13.045888133347034">
        <ele>855.71002199999998</ele>
        <time>2017-06-12T15:06:53Z</time>
      </trkpt>
      <trkpt lat="42.037664260715246" lon="13.045936413109303">
        <ele>855.71002199999998</ele>
        <time>2017-06-12T15:06:57Z</time>
      </trkpt>
      <trkpt lat="42.037649089470506" lon="13.046154510229826">
        <ele>857.63000499999998</ele>
        <time>2017-06-12T15:07:11Z</time>
      </trkpt>
      <trkpt lat="42.037634840235114" lon="13.046314436942339">
        <ele>858.589966</ele>
        <time>2017-06-12T15:07:23Z</time>
      </trkpt>
      <trkpt lat="42.037567533552647" lon="13.046377301216125">
        <ele>859.56005900000002</ele>
        <time>2017-06-12T15:07:29Z</time>
      </trkpt>
      <trkpt lat="42.037391094490886" lon="13.04651970975101">
        <ele>859.56005900000002</ele>
        <time>2017-06-12T15:07:45Z</time>
      </trkpt>
      <trkpt lat="42.037244830280542" lon="13.046667901799083">
        <ele>860.51995799999997</ele>
        <time>2017-06-12T15:08:00Z</time>
      </trkpt>
      <trkpt lat="42.037201076745987" lon="13.046843335032463">
        <ele>861.47997999999995</ele>
        <time>2017-06-12T15:08:14Z</time>
      </trkpt>
      <trkpt lat="42.037195963785052" lon="13.04705279879272">
        <ele>861.95996100000002</ele>
        <time>2017-06-12T15:08:27Z</time>
      </trkpt>
      <trkpt lat="42.037152880802751" lon="13.047267626971006">
        <ele>863.40002400000003</ele>
        <time>2017-06-12T15:08:41Z</time>
      </trkpt>
      <trkpt lat="42.037108037620783" lon="13.047463931143284">
        <ele>864.35998500000005</ele>
        <time>2017-06-12T15:08:56Z</time>
      </trkpt>
      <trkpt lat="42.03707073815167" lon="13.047582367435098">
        <ele>865.80004899999994</ele>
        <time>2017-06-12T15:09:06Z</time>
      </trkpt>
      <trkpt lat="42.036969400942326" lon="13.047709269449115">
        <ele>866.77002000000005</ele>
        <time>2017-06-12T15:09:18Z</time>
      </trkpt>
      <trkpt lat="42.036833697929978" lon="13.047856539487839">
        <ele>866.77002000000005</ele>
        <time>2017-06-12T15:09:33Z</time>
      </trkpt>
      <trkpt lat="42.036736803129315" lon="13.04796508513391">
        <ele>867.73004200000003</ele>
        <time>2017-06-12T15:09:44Z</time>
      </trkpt>
      <trkpt lat="42.036697072908282" lon="13.048015376552939">
        <ele>868.68994099999998</ele>
        <time>2017-06-12T15:09:48Z</time>
      </trkpt>
      <trkpt lat="42.036547707393765" lon="13.048167675733566">
        <ele>870.13000499999998</ele>
        <time>2017-06-12T15:10:04Z</time>
      </trkpt>
      <trkpt lat="42.03650739043951" lon="13.048207238316536">
        <ele>870.13000499999998</ele>
        <time>2017-06-12T15:10:09Z</time>
      </trkpt>
      <trkpt lat="42.036344613879919" lon="13.048287536948919">
        <ele>871.57000700000003</ele>
        <time>2017-06-12T15:10:25Z</time>
      </trkpt>
      <trkpt lat="42.036204803735018" lon="13.048374289646745">
        <ele>872.04998799999998</ele>
        <time>2017-06-12T15:10:39Z</time>
      </trkpt>
      <trkpt lat="42.036094078794122" lon="13.048520470038056">
        <ele>873.5</ele>
        <time>2017-06-12T15:10:53Z</time>
      </trkpt>
      <trkpt lat="42.036046385765076" lon="13.048636559396982">
        <ele>873.97997999999995</ele>
        <time>2017-06-12T15:11:03Z</time>
      </trkpt>
      <trkpt lat="42.035929961130023" lon="13.048703363165259">
        <ele>875.419983</ele>
        <time>2017-06-12T15:11:16Z</time>
      </trkpt>
      <trkpt lat="42.035875981673598" lon="13.048686431720853">
        <ele>875.90002400000003</ele>
        <time>2017-06-12T15:11:22Z</time>
      </trkpt>
      <trkpt lat="42.03583356924355" lon="13.048637229949236">
        <ele>877.34002699999996</ele>
        <time>2017-06-12T15:11:28Z</time>
      </trkpt>
      <trkpt lat="42.035815799608827" lon="13.048575539141893">
        <ele>877.82000700000003</ele>
        <time>2017-06-12T15:11:33Z</time>
      </trkpt>
      <trkpt lat="42.035820074379444" lon="13.048450481146574">
        <ele>879.25994900000001</ele>
        <time>2017-06-12T15:11:44Z</time>
      </trkpt>
      <trkpt lat="42.035885034129024" lon="13.048277897760272">
        <ele>881.18994099999998</ele>
        <time>2017-06-12T15:12:01Z</time>
      </trkpt>
      <trkpt lat="42.035916717723012" lon="13.048192821443081">
        <ele>882.14996299999996</ele>
        <time>2017-06-12T15:12:12Z</time>
      </trkpt>
      <trkpt lat="42.035971116274595" lon="13.04805058054626">
        <ele>883.589966</ele>
        <time>2017-06-12T15:12:26Z</time>
      </trkpt>
      <trkpt lat="42.035969691351056" lon="13.048009593039751">
        <ele>884.07000700000003</ele>
        <time>2017-06-12T15:12:29Z</time>
      </trkpt>
      <trkpt lat="42.035909676924348" lon="13.04785612039268">
        <ele>884.07000700000003</ele>
        <time>2017-06-12T15:12:45Z</time>
      </trkpt>
      <trkpt lat="42.035817308351398" lon="13.047743635252118">
        <ele>884.54998799999998</ele>
        <time>2017-06-12T15:13:02Z</time>
      </trkpt>
      <trkpt lat="42.035776237025857" lon="13.047722512856126">
        <ele>884.54998799999998</ele>
        <time>2017-06-12T15:13:16Z</time>
      </trkpt>
      <trkpt lat="42.035780176520348" lon="13.047739360481501">
        <ele>884.54998799999998</ele>
        <time>2017-06-12T15:13:35Z</time>
      </trkpt>
      <trkpt lat="42.035777075216174" lon="13.047748915851116">
        <ele>884.54998799999998</ele>
        <time>2017-06-12T15:13:40Z</time>
      </trkpt>
      <trkpt lat="42.03572753816843" lon="13.04781069047749">
        <ele>883.589966</ele>
        <time>2017-06-12T15:13:47Z</time>
      </trkpt>
      <trkpt lat="42.035708427429199" lon="13.047840362414718">
        <ele>883.10998500000005</ele>
        <time>2017-06-12T15:13:55Z</time>
      </trkpt>
      <trkpt lat="42.035586219280958" lon="13.048010766506195">
        <ele>879.73999000000003</ele>
        <time>2017-06-12T15:14:12Z</time>
      </trkpt>
      <trkpt lat="42.035466525703669" lon="13.048164658248425">
        <ele>876.85998500000005</ele>
        <time>2017-06-12T15:14:28Z</time>
      </trkpt>
      <trkpt lat="42.035337528213859" lon="13.048302540555596">
        <ele>874.94000200000005</ele>
        <time>2017-06-12T15:14:43Z</time>
      </trkpt>
      <trkpt lat="42.035295283421874" lon="13.048350065946579">
        <ele>873.97997999999995</ele>
        <time>2017-06-12T15:14:56Z</time>
      </trkpt>
      <trkpt lat="42.035198640078306" lon="13.048481494188309">
        <ele>871.57000700000003</ele>
        <time>2017-06-12T15:15:11Z</time>
      </trkpt>
      <trkpt lat="42.035164358094335" lon="13.04865843616426">
        <ele>870.13000499999998</ele>
        <time>2017-06-12T15:15:25Z</time>
      </trkpt>
      <trkpt lat="42.035177266225219" lon="13.048788188025355">
        <ele>866.77002000000005</ele>
        <time>2017-06-12T15:15:39Z</time>
      </trkpt>
      <trkpt lat="42.03515631146729" lon="13.0488445982337">
        <ele>864.84002699999996</ele>
        <time>2017-06-12T15:15:47Z</time>
      </trkpt>
      <trkpt lat="42.035141140222549" lon="13.048858260735869">
        <ele>864.84002699999996</ele>
        <time>2017-06-12T15:15:49Z</time>
      </trkpt>
      <trkpt lat="42.035068720579147" lon="13.048981558531523">
        <ele>861.95996100000002</ele>
        <time>2017-06-12T15:16:02Z</time>
      </trkpt>
      <trkpt lat="42.035059919580817" lon="13.048999579623342">
        <ele>861.47997999999995</ele>
        <time>2017-06-12T15:16:04Z</time>
      </trkpt>
      <trkpt lat="42.035043491050601" lon="13.049015169963241">
        <ele>861</ele>
        <time>2017-06-12T15:16:06Z</time>
      </trkpt>
      <trkpt lat="42.034888761118054" lon="13.049079375341535">
        <ele>860.03997800000002</ele>
        <time>2017-06-12T15:16:19Z</time>
      </trkpt>
      <trkpt lat="42.034863112494349" lon="13.049145089462399">
        <ele>860.03997800000002</ele>
        <time>2017-06-12T15:16:25Z</time>
      </trkpt>
      <trkpt lat="42.034857915714383" lon="13.049240559339523">
        <ele>858.589966</ele>
        <time>2017-06-12T15:16:32Z</time>
      </trkpt>
      <trkpt lat="42.034776862710714" lon="13.049350529909134">
        <ele>860.03997800000002</ele>
        <time>2017-06-12T15:16:45Z</time>
      </trkpt>
      <trkpt lat="42.034637136384845" lon="13.049353631213307">
        <ele>861.95996100000002</ele>
        <time>2017-06-12T15:17:02Z</time>
      </trkpt>
      <trkpt lat="42.034463379532099" lon="13.04934985935688">
        <ele>863.88000499999998</ele>
        <time>2017-06-12T15:17:20Z</time>
      </trkpt>
      <trkpt lat="42.034379141405225" lon="13.049354134127498">
        <ele>865.80004899999994</ele>
        <time>2017-06-12T15:17:34Z</time>
      </trkpt>
      <trkpt lat="42.034378806129098" lon="13.049356061965227">
        <ele>865.80004899999994</ele>
        <time>2017-06-12T15:17:35Z</time>
      </trkpt>
      <trkpt lat="42.034356761723757" lon="13.049389841035008">
        <ele>865.80004899999994</ele>
        <time>2017-06-12T15:17:39Z</time>
      </trkpt>
      <trkpt lat="42.034211335703731" lon="13.049474665895104">
        <ele>867.73004200000003</ele>
        <time>2017-06-12T15:17:55Z</time>
      </trkpt>
      <trkpt lat="42.034102790057659" lon="13.049566531553864">
        <ele>869.17004399999996</ele>
        <time>2017-06-12T15:18:08Z</time>
      </trkpt>
      <trkpt lat="42.034078231081367" lon="13.049582121893764">
        <ele>869.64996299999996</ele>
        <time>2017-06-12T15:18:12Z</time>
      </trkpt>
      <trkpt lat="42.034047385677695" lon="13.049607602879405">
        <ele>870.13000499999998</ele>
        <time>2017-06-12T15:18:16Z</time>
      </trkpt>
      <trkpt lat="42.033976139500737" lon="13.049663007259369">
        <ele>871.089966</ele>
        <time>2017-06-12T15:18:24Z</time>
      </trkpt>
      <trkpt lat="42.033897684887052" lon="13.049694020301104">
        <ele>872.53002900000001</ele>
        <time>2017-06-12T15:18:35Z</time>
      </trkpt>
      <trkpt lat="42.033787630498409" lon="13.049764763563871">
        <ele>874.94000200000005</ele>
        <time>2017-06-12T15:18:50Z</time>
      </trkpt>
      <trkpt lat="42.033704817295074" lon="13.049892839044333">
        <ele>876.85998500000005</ele>
        <time>2017-06-12T15:19:06Z</time>
      </trkpt>
      <trkpt lat="42.03369190916419" lon="13.050050502642989">
        <ele>878.77996800000005</ele>
        <time>2017-06-12T15:19:21Z</time>
      </trkpt>
      <trkpt lat="42.033706409856677" lon="13.050186540931463">
        <ele>880.71002199999998</ele>
        <time>2017-06-12T15:19:34Z</time>
      </trkpt>
      <trkpt lat="42.033679084852338" lon="13.05029584094882">
        <ele>882.14996299999996</ele>
        <time>2017-06-12T15:19:47Z</time>
      </trkpt>
      <trkpt lat="42.033671708777547" lon="13.050412181764841">
        <ele>884.07000700000003</ele>
        <time>2017-06-12T15:19:59Z</time>
      </trkpt>
      <trkpt lat="42.033635582774878" lon="13.050491809844971">
        <ele>885.51000999999997</ele>
        <time>2017-06-12T15:20:10Z</time>
      </trkpt>
      <trkpt lat="42.033646227791905" lon="13.050564229488373">
        <ele>886.47003199999995</ele>
        <time>2017-06-12T15:20:16Z</time>
      </trkpt>
      <trkpt lat="42.033637762069702" lon="13.050610581412911">
        <ele>887.43005400000004</ele>
        <time>2017-06-12T15:20:34Z</time>
      </trkpt>
      <trkpt lat="42.03363181091845" lon="13.05064620450139">
        <ele>887.910034</ele>
        <time>2017-06-12T15:20:49Z</time>
      </trkpt>
      <trkpt lat="42.033629128709435" lon="13.050789032131433">
        <ele>889.84002699999996</ele>
        <time>2017-06-12T15:21:02Z</time>
      </trkpt>
      <trkpt lat="42.033583363518119" lon="13.050896571949124">
        <ele>892.23999000000003</ele>
        <time>2017-06-12T15:21:15Z</time>
      </trkpt>
      <trkpt lat="42.033517565578222" lon="13.050983576104045">
        <ele>895.11999500000002</ele>
        <time>2017-06-12T15:21:30Z</time>
      </trkpt>
      <trkpt lat="42.033473560586572" lon="13.051071502268314">
        <ele>898.01000999999997</ele>
        <time>2017-06-12T15:21:43Z</time>
      </trkpt>
      <trkpt lat="42.033452019095421" lon="13.051193878054619">
        <ele>900.410034</ele>
        <time>2017-06-12T15:21:58Z</time>
      </trkpt>
      <trkpt lat="42.033465262502432" lon="13.05134005844593">
        <ele>902.32995600000004</ele>
        <time>2017-06-12T15:22:13Z</time>
      </trkpt>
      <trkpt lat="42.033477667719126" lon="13.051510294899344">
        <ele>903.77996800000005</ele>
        <time>2017-06-12T15:22:29Z</time>
      </trkpt>
      <trkpt lat="42.033459898084402" lon="13.051677430048585">
        <ele>906.17999299999997</ele>
        <time>2017-06-12T15:22:45Z</time>
      </trkpt>
      <trkpt lat="42.03341287560761" lon="13.051760662347078">
        <ele>909.54003899999998</ele>
        <time>2017-06-12T15:23:02Z</time>
      </trkpt>
      <trkpt lat="42.033398794010282" lon="13.051801482215524">
        <ele>910.51000999999997</ele>
        <time>2017-06-12T15:23:07Z</time>
      </trkpt>
      <trkpt lat="42.033359399065375" lon="13.051920337602496">
        <ele>913.38995399999999</ele>
        <time>2017-06-12T15:23:22Z</time>
      </trkpt>
      <trkpt lat="42.033345736563206" lon="13.051934670656919">
        <ele>913.38995399999999</ele>
        <time>2017-06-12T15:23:24Z</time>
      </trkpt>
      <trkpt lat="42.033289996907115" lon="13.052041791379452">
        <ele>915.78997800000002</ele>
        <time>2017-06-12T15:23:38Z</time>
      </trkpt>
      <trkpt lat="42.033269964158535" lon="13.052187217399478">
        <ele>917.71997099999999</ele>
        <time>2017-06-12T15:23:54Z</time>
      </trkpt>
      <trkpt lat="42.033282117918134" lon="13.05231629870832">
        <ele>919.64001499999995</ele>
        <time>2017-06-12T15:24:08Z</time>
      </trkpt>
      <trkpt lat="42.03327608294785" lon="13.052482008934021">
        <ele>921.55999799999995</ele>
        <time>2017-06-12T15:24:22Z</time>
      </trkpt>
      <trkpt lat="42.033279770985246" lon="13.052518386393785">
        <ele>921.55999799999995</ele>
        <time>2017-06-12T15:24:34Z</time>
      </trkpt>
      <trkpt lat="42.033272478729486" lon="13.052634727209806">
        <ele>922.04003899999998</ele>
        <time>2017-06-12T15:24:42Z</time>
      </trkpt>
      <trkpt lat="42.033279519528151" lon="13.052704716101289">
        <ele>922.04003899999998</ele>
        <time>2017-06-12T15:24:47Z</time>
      </trkpt>
      <trkpt lat="42.033272311091423" lon="13.052742602303624">
        <ele>920.60003700000004</ele>
        <time>2017-06-12T15:24:49Z</time>
      </trkpt>
      <trkpt lat="42.033281028270721" lon="13.052815021947026">
        <ele>919.15997300000004</ele>
        <time>2017-06-12T15:24:56Z</time>
      </trkpt>
      <trkpt lat="42.033366020768881" lon="13.052995484322309">
        <ele>918.20001200000002</ele>
        <time>2017-06-12T15:25:10Z</time>
      </trkpt>
      <trkpt lat="42.033357638865709" lon="13.053023815155029">
        <ele>918.20001200000002</ele>
        <time>2017-06-12T15:25:13Z</time>
      </trkpt>
      <trkpt lat="42.033334840089083" lon="13.053079219534993">
        <ele>918.20001200000002</ele>
        <time>2017-06-12T15:25:21Z</time>
      </trkpt>
      <trkpt lat="42.033270886167884" lon="13.053185837343335">
        <ele>920.11999500000002</ele>
        <time>2017-06-12T15:25:32Z</time>
      </trkpt>
      <trkpt lat="42.033273484557867" lon="13.053319612517953">
        <ele>921.080017</ele>
        <time>2017-06-12T15:25:43Z</time>
      </trkpt>
      <trkpt lat="42.033219840377569" lon="13.053508792072535">
        <ele>922.51995799999997</ele>
        <time>2017-06-12T15:25:58Z</time>
      </trkpt>
      <trkpt lat="42.033216236159205" lon="13.053567297756672">
        <ele>923.00006099999996</ele>
        <time>2017-06-12T15:26:03Z</time>
      </trkpt>
      <trkpt lat="42.033230233937502" lon="13.053764440119267">
        <ele>923.47997999999995</ele>
        <time>2017-06-12T15:26:17Z</time>
      </trkpt>
      <trkpt lat="42.03322771936655" lon="13.053912799805403">
        <ele>924.45001200000002</ele>
        <time>2017-06-12T15:26:28Z</time>
      </trkpt>
      <trkpt lat="42.033185139298439" lon="13.054086389020085">
        <ele>926.84997599999997</ele>
        <time>2017-06-12T15:26:42Z</time>
      </trkpt>
      <trkpt lat="42.033142894506454" lon="13.054201640188694">
        <ele>929.72997999999995</ele>
        <time>2017-06-12T15:26:55Z</time>
      </trkpt>
      <trkpt lat="42.033077012747526" lon="13.054259391501546">
        <ele>931.65002400000003</ele>
        <time>2017-06-12T15:27:09Z</time>
      </trkpt>
      <trkpt lat="42.033033929765224" lon="13.054289063438773">
        <ele>933.10003700000004</ele>
        <time>2017-06-12T15:27:22Z</time>
      </trkpt>
      <trkpt lat="42.033013813197613" lon="13.054304318502545">
        <ele>933.10003700000004</ele>
        <time>2017-06-12T15:27:26Z</time>
      </trkpt>
      <trkpt lat="42.032932927832007" lon="13.054337007924914">
        <ele>935.01995799999997</ele>
        <time>2017-06-12T15:27:39Z</time>
      </trkpt>
      <trkpt lat="42.032866207882762" lon="13.054351340979338">
        <ele>936.94000200000005</ele>
        <time>2017-06-12T15:27:50Z</time>
      </trkpt>
      <trkpt lat="42.03279621899128" lon="13.054377073422074">
        <ele>939.82995600000004</ele>
        <time>2017-06-12T15:28:04Z</time>
      </trkpt>
      <trkpt lat="42.032734025269747" lon="13.054353436455131">
        <ele>942.71002199999998</ele>
        <time>2017-06-12T15:28:16Z</time>
      </trkpt>
      <trkpt lat="42.032695384696126" lon="13.05438025854528">
        <ele>944.15002400000003</ele>
        <time>2017-06-12T15:28:26Z</time>
      </trkpt>
      <trkpt lat="42.032681219279766" lon="13.054405236616731">
        <ele>944.62994400000002</ele>
        <time>2017-06-12T15:28:29Z</time>
      </trkpt>
      <trkpt lat="42.032661940902472" lon="13.054544040933251">
        <ele>945.10998500000005</ele>
        <time>2017-06-12T15:28:41Z</time>
      </trkpt>
      <trkpt lat="42.032636795192957" lon="13.054658286273479">
        <ele>947.04003899999998</ele>
        <time>2017-06-12T15:28:53Z</time>
      </trkpt>
      <trkpt lat="42.032614164054394" lon="13.054682929068804">
        <ele>947.51995799999997</ele>
        <time>2017-06-12T15:28:58Z</time>
      </trkpt>
      <trkpt lat="42.032566638663411" lon="13.054801030084491">
        <ele>949.44000200000005</ele>
        <time>2017-06-12T15:29:10Z</time>
      </trkpt>
      <trkpt lat="42.032518610358238" lon="13.054912677034736">
        <ele>949.44000200000005</ele>
        <time>2017-06-12T15:29:21Z</time>
      </trkpt>
      <trkpt lat="42.032474437728524" lon="13.055021222680807">
        <ele>949.44000200000005</ele>
        <time>2017-06-12T15:29:31Z</time>
      </trkpt>
      <trkpt lat="42.032418362796307" lon="13.055136976763606">
        <ele>948.00006099999996</ele>
        <time>2017-06-12T15:29:42Z</time>
      </trkpt>
      <trkpt lat="42.03240922652185" lon="13.055161368101835">
        <ele>948.00006099999996</ele>
        <time>2017-06-12T15:29:44Z</time>
      </trkpt>
      <trkpt lat="42.032400509342551" lon="13.055194225162268">
        <ele>948.00006099999996</ele>
        <time>2017-06-12T15:29:47Z</time>
      </trkpt>
      <trkpt lat="42.032344518229365" lon="13.055283073335886">
        <ele>948.00006099999996</ele>
        <time>2017-06-12T15:29:58Z</time>
      </trkpt>
      <trkpt lat="42.032342171296477" lon="13.055365383625031">
        <ele>947.04003899999998</ele>
        <time>2017-06-12T15:30:05Z</time>
      </trkpt>
      <trkpt lat="42.032343009486794" lon="13.055425062775612">
        <ele>946.55999799999995</ele>
        <time>2017-06-12T15:30:10Z</time>
      </trkpt>
      <trkpt lat="42.032247874885798" lon="13.0555500369519">
        <ele>946.07000700000003</ele>
        <time>2017-06-12T15:30:23Z</time>
      </trkpt>
      <trkpt lat="42.032226584851742" lon="13.055616421625018">
        <ele>946.07000700000003</ele>
        <time>2017-06-12T15:30:28Z</time>
      </trkpt>
      <trkpt lat="42.032132623717189" lon="13.055695630609989">
        <ele>946.07000700000003</ele>
        <time>2017-06-12T15:30:41Z</time>
      </trkpt>
      <trkpt lat="42.032128600403666" lon="13.055695965886116">
        <ele>945.10998500000005</ele>
        <time>2017-06-12T15:30:58Z</time>
      </trkpt>
      <trkpt lat="42.032081075012684" lon="13.055743910372257">
        <ele>944.15002400000003</ele>
        <time>2017-06-12T15:31:10Z</time>
      </trkpt>
      <trkpt lat="42.032044697552919" lon="13.055782215669751">
        <ele>943.67004399999996</ele>
        <time>2017-06-12T15:31:24Z</time>
      </trkpt>
      <trkpt lat="42.032007984817028" lon="13.055815491825342">
        <ele>942.71002199999998</ele>
        <time>2017-06-12T15:31:29Z</time>
      </trkpt>
      <trkpt lat="42.031935397535563" lon="13.055908363312483">
        <ele>939.82995600000004</ele>
        <time>2017-06-12T15:31:40Z</time>
      </trkpt>
      <trkpt lat="42.031833892688155" lon="13.0559316650033">
        <ele>935.97997999999995</ele>
        <time>2017-06-12T15:31:54Z</time>
      </trkpt>
      <trkpt lat="42.031659297645092" lon="13.055970473214984">
        <ele>934.54003899999998</ele>
        <time>2017-06-12T15:32:11Z</time>
      </trkpt>
      <trkpt lat="42.031515967100859" lon="13.05602889508009">
        <ele>934.05999799999995</ele>
        <time>2017-06-12T15:32:23Z</time>
      </trkpt>
      <trkpt lat="42.031370038166642" lon="13.056090585887432">
        <ele>933.580017</ele>
        <time>2017-06-12T15:32:36Z</time>
      </trkpt>
      <trkpt lat="42.031313125044107" lon="13.056136686354876">
        <ele>933.10003700000004</ele>
        <time>2017-06-12T15:32:43Z</time>
      </trkpt>
      <trkpt lat="42.031218241900206" lon="13.056194940581918">
        <ele>933.10003700000004</ele>
        <time>2017-06-12T15:32:52Z</time>
      </trkpt>
      <trkpt lat="42.031046664342284" lon="13.05621556006372">
        <ele>934.54003899999998</ele>
        <time>2017-06-12T15:33:07Z</time>
      </trkpt>
      <trkpt lat="42.030882462859154" lon="13.056276328861713">
        <ele>935.50006099999996</ele>
        <time>2017-06-12T15:33:22Z</time>
      </trkpt>
      <trkpt lat="42.030710633844137" lon="13.056336008012295">
        <ele>936.45996100000002</ele>
        <time>2017-06-12T15:33:38Z</time>
      </trkpt>
      <trkpt lat="42.030686661601067" lon="13.056338187307119">
        <ele>936.45996100000002</ele>
        <time>2017-06-12T15:33:40Z</time>
      </trkpt>
      <trkpt lat="42.030554311349988" lon="13.056395184248686">
        <ele>936.45996100000002</ele>
        <time>2017-06-12T15:33:53Z</time>
      </trkpt>
      <trkpt lat="42.03048256225884" lon="13.056451426818967">
        <ele>937.90002400000003</ele>
        <time>2017-06-12T15:34:06Z</time>
      </trkpt>
      <trkpt lat="42.030527573078871" lon="13.056514458730817">
        <ele>937.419983</ele>
        <time>2017-06-12T15:34:12Z</time>
      </trkpt>
      <trkpt lat="42.030619438737631" lon="13.056697519496083">
        <ele>937.419983</ele>
        <time>2017-06-12T15:34:26Z</time>
      </trkpt>
      <trkpt lat="42.030582558363676" lon="13.056919472292066">
        <ele>937.419983</ele>
        <time>2017-06-12T15:34:40Z</time>
      </trkpt>
      <trkpt lat="42.030552970245481" lon="13.056957358494401">
        <ele>937.419983</ele>
        <time>2017-06-12T15:34:44Z</time>
      </trkpt>
      <trkpt lat="42.030522376298904" lon="13.056990467011929">
        <ele>937.419983</ele>
        <time>2017-06-12T15:34:48Z</time>
      </trkpt>
      <trkpt lat="42.030402263626456" lon="13.057262878865004">
        <ele>937.419983</ele>
        <time>2017-06-12T15:35:06Z</time>
      </trkpt>
      <trkpt lat="42.030325988307595" lon="13.057478461414576">
        <ele>937.419983</ele>
        <time>2017-06-12T15:35:20Z</time>
      </trkpt>
      <trkpt lat="42.030280223116279" lon="13.057595640420914">
        <ele>936.45996100000002</ele>
        <time>2017-06-12T15:35:28Z</time>
      </trkpt>
      <trkpt lat="42.030238481238484" lon="13.057656660676003">
        <ele>935.97997999999995</ele>
        <time>2017-06-12T15:35:33Z</time>
      </trkpt>
      <trkpt lat="42.030146112665534" lon="13.057882804423571">
        <ele>934.05999799999995</ele>
        <time>2017-06-12T15:35:48Z</time>
      </trkpt>
      <trkpt lat="42.030050810426474" lon="13.058137530460954">
        <ele>932.61999500000002</ele>
        <time>2017-06-12T15:36:03Z</time>
      </trkpt>
      <trkpt lat="42.030019797384739" lon="13.058232665061951">
        <ele>932.14001499999995</ele>
        <time>2017-06-12T15:36:10Z</time>
      </trkpt>
      <trkpt lat="42.029921812936664" lon="13.058261498808861">
        <ele>932.14001499999995</ele>
        <time>2017-06-12T15:36:18Z</time>
      </trkpt>
      <trkpt lat="42.029792061075568" lon="13.058294858783484">
        <ele>932.14001499999995</ele>
        <time>2017-06-12T15:36:31Z</time>
      </trkpt>
      <trkpt lat="42.029775800183415" lon="13.058311538770795">
        <ele>932.14001499999995</ele>
        <time>2017-06-12T15:36:33Z</time>
      </trkpt>
      <trkpt lat="42.029726430773735" lon="13.058352693915367">
        <ele>932.14001499999995</ele>
        <time>2017-06-12T15:36:39Z</time>
      </trkpt>
      <trkpt lat="42.029674462974072" lon="13.058415474370122">
        <ele>931.65002400000003</ele>
        <time>2017-06-12T15:36:45Z</time>
      </trkpt>
      <trkpt lat="42.029567174613476" lon="13.058509267866611">
        <ele>931.17004399999996</ele>
        <time>2017-06-12T15:36:56Z</time>
      </trkpt>
      <trkpt lat="42.029527109116316" lon="13.058609934523702">
        <ele>931.17004399999996</ele>
        <time>2017-06-12T15:37:03Z</time>
      </trkpt>
      <trkpt lat="42.029574885964394" lon="13.058853512629867">
        <ele>931.17004399999996</ele>
        <time>2017-06-12T15:37:20Z</time>
      </trkpt>
      <trkpt lat="42.029657866805792" lon="13.058934230357409">
        <ele>931.17004399999996</ele>
        <time>2017-06-12T15:37:28Z</time>
      </trkpt>
      <trkpt lat="42.029670020565391" lon="13.059048391878605">
        <ele>931.17004399999996</ele>
        <time>2017-06-12T15:37:36Z</time>
      </trkpt>
      <trkpt lat="42.029656190425158" lon="13.059092061594129">
        <ele>932.61999500000002</ele>
        <time>2017-06-12T15:37:41Z</time>
      </trkpt>
      <trkpt lat="42.02963188290596" lon="13.059102706611156">
        <ele>933.580017</ele>
        <time>2017-06-12T15:37:45Z</time>
      </trkpt>
      <trkpt lat="42.029558541253209" lon="13.059110669419169">
        <ele>934.05999799999995</ele>
        <time>2017-06-12T15:37:56Z</time>
      </trkpt>
      <trkpt lat="42.02951168641448" lon="13.059246791526675">
        <ele>936.45996100000002</ele>
        <time>2017-06-12T15:38:08Z</time>
      </trkpt>
      <trkpt lat="42.029502969235182" lon="13.059259364381433">
        <ele>936.45996100000002</ele>
        <time>2017-06-12T15:38:09Z</time>
      </trkpt>
      <trkpt lat="42.029414037242532" lon="13.059389283880591">
        <ele>936.94000200000005</ele>
        <time>2017-06-12T15:38:27Z</time>
      </trkpt>
      <trkpt lat="42.029374977573752" lon="13.059545438736677">
        <ele>937.419983</ele>
        <time>2017-06-12T15:38:42Z</time>
      </trkpt>
      <trkpt lat="42.029302306473255" lon="13.059695390984416">
        <ele>935.97997999999995</ele>
        <time>2017-06-12T15:38:58Z</time>
      </trkpt>
      <trkpt lat="42.029295098036528" lon="13.059708634391427">
        <ele>935.97997999999995</ele>
        <time>2017-06-12T15:38:59Z</time>
      </trkpt>
      <trkpt lat="42.029277831315994" lon="13.059730930253863">
        <ele>935.97997999999995</ele>
        <time>2017-06-12T15:39:02Z</time>
      </trkpt>
      <trkpt lat="42.029231060296297" lon="13.059801422059536">
        <ele>933.10003700000004</ele>
        <time>2017-06-12T15:39:16Z</time>
      </trkpt>
      <trkpt lat="42.029144307598472" lon="13.059841487556696">
        <ele>931.65002400000003</ele>
        <time>2017-06-12T15:39:30Z</time>
      </trkpt>
      <trkpt lat="42.029143804684281" lon="13.059844169765711">
        <ele>930.21002199999998</ele>
        <time>2017-06-12T15:39:36Z</time>
      </trkpt>
      <trkpt lat="42.029128465801477" lon="13.059845678508282">
        <ele>930.21002199999998</ele>
        <time>2017-06-12T15:39:38Z</time>
      </trkpt>
      <trkpt lat="42.029024278745055" lon="13.059818772599101">
        <ele>928.77002000000005</ele>
        <time>2017-06-12T15:39:48Z</time>
      </trkpt>
      <trkpt lat="42.028903160244226" lon="13.059846181422472">
        <ele>925.410034</ele>
        <time>2017-06-12T15:40:02Z</time>
      </trkpt>
      <trkpt lat="42.028767541050911" lon="13.059854982420802">
        <ele>922.51995799999997</ele>
        <time>2017-06-12T15:40:13Z</time>
      </trkpt>
      <trkpt lat="42.02870643697679" lon="13.059870237484574">
        <ele>921.080017</ele>
        <time>2017-06-12T15:40:21Z</time>
      </trkpt>
      <trkpt lat="42.028595125302672" lon="13.059838218614459">
        <ele>919.15997300000004</ele>
        <time>2017-06-12T15:40:34Z</time>
      </trkpt>
      <trkpt lat="42.028535362333059" lon="13.059782981872559">
        <ele>917.71997099999999</ele>
        <time>2017-06-12T15:40:50Z</time>
      </trkpt>
      <trkpt lat="42.028517341241241" lon="13.059780970215797">
        <ele>916.75</ele>
        <time>2017-06-12T15:40:54Z</time>
      </trkpt>
      <trkpt lat="42.028486495837569" lon="13.059672508388758">
        <ele>915.78997800000002</ele>
        <time>2017-06-12T15:41:08Z</time>
      </trkpt>
      <trkpt lat="42.028491189703345" lon="13.059648284688592">
        <ele>915.30999799999995</ele>
        <time>2017-06-12T15:41:19Z</time>
      </trkpt>
      <trkpt lat="42.028450537472963" lon="13.059605536982417">
        <ele>914.82995600000004</ele>
        <time>2017-06-12T15:41:32Z</time>
      </trkpt>
      <trkpt lat="42.028352888301015" lon="13.059592628851533">
        <ele>912.43005400000004</ele>
        <time>2017-06-12T15:41:46Z</time>
      </trkpt>
      <trkpt lat="42.028322294354439" lon="13.059571841731668">
        <ele>912.43005400000004</ele>
        <time>2017-06-12T15:41:50Z</time>
      </trkpt>
      <trkpt lat="42.028232859447598" lon="13.059612661600113">
        <ele>909.54003899999998</ele>
        <time>2017-06-12T15:42:04Z</time>
      </trkpt>
      <trkpt lat="42.028214670717716" lon="13.05965356528759">
        <ele>909.54003899999998</ele>
        <time>2017-06-12T15:42:14Z</time>
      </trkpt>
      <trkpt lat="42.028204193338752" lon="13.05966773070395">
        <ele>909.54003899999998</ele>
        <time>2017-06-12T15:42:16Z</time>
      </trkpt>
      <trkpt lat="42.028187429532409" lon="13.059731936082244">
        <ele>907.61999500000002</ele>
        <time>2017-06-12T15:42:22Z</time>
      </trkpt>
      <trkpt lat="42.028094222769141" lon="13.059937125071883">
        <ele>905.70001200000002</ele>
        <time>2017-06-12T15:42:37Z</time>
      </trkpt>
      <trkpt lat="42.02818944118917" lon="13.060173410922289">
        <ele>905.70001200000002</ele>
        <time>2017-06-12T15:42:54Z</time>
      </trkpt>
      <trkpt lat="42.028129762038589" lon="13.060340965166688">
        <ele>903.30004899999994</ele>
        <time>2017-06-12T15:43:10Z</time>
      </trkpt>
      <trkpt lat="42.028113501146436" lon="13.060489073395729">
        <ele>899.93005400000004</ele>
        <time>2017-06-12T15:43:24Z</time>
      </trkpt>
      <trkpt lat="42.028133785352111" lon="13.06063718162477">
        <ele>897.04998799999998</ele>
        <time>2017-06-12T15:43:38Z</time>
      </trkpt>
      <trkpt lat="42.028136635199189" lon="13.060661740601063">
        <ele>897.04998799999998</ele>
        <time>2017-06-12T15:43:40Z</time>
      </trkpt>
      <trkpt lat="42.028210563585162" lon="13.060750421136618">
        <ele>895.11999500000002</ele>
        <time>2017-06-12T15:43:53Z</time>
      </trkpt>
      <trkpt lat="42.02823487110436" lon="13.060735668987036">
        <ele>895.11999500000002</ele>
        <time>2017-06-12T15:43:56Z</time>
      </trkpt>
      <trkpt lat="42.028311565518379" lon="13.060614885762334">
        <ele>895.11999500000002</ele>
        <time>2017-06-12T15:44:09Z</time>
      </trkpt>
      <trkpt lat="42.028392367064953" lon="13.060566019266844">
        <ele>896.57000700000003</ele>
        <time>2017-06-12T15:44:16Z</time>
      </trkpt>
      <trkpt lat="42.028418518602848" lon="13.060556128621101">
        <ele>896.57000700000003</ele>
        <time>2017-06-12T15:44:19Z</time>
      </trkpt>
      <trkpt lat="42.028454728424549" lon="13.060553781688213">
        <ele>896.57000700000003</ele>
        <time>2017-06-12T15:44:22Z</time>
      </trkpt>
      <trkpt lat="42.028513317927718" lon="13.06057901121676">
        <ele>895.60998500000005</ele>
        <time>2017-06-12T15:44:26Z</time>
      </trkpt>
      <trkpt lat="42.028703335672617" lon="13.060649670660496">
        <ele>894.64001499999995</ele>
        <time>2017-06-12T15:44:41Z</time>
      </trkpt>
      <trkpt lat="42.028825879096985" lon="13.060684958472848">
        <ele>897.04998799999998</ele>
        <time>2017-06-12T15:44:55Z</time>
      </trkpt>
      <trkpt lat="42.02878313139081" lon="13.060610862448812">
        <ele>898.48999000000003</ele>
        <time>2017-06-12T15:45:08Z</time>
      </trkpt>
      <trkpt lat="42.028800062835217" lon="13.060605665668845">
        <ele>898.48999000000003</ele>
        <time>2017-06-12T15:45:27Z</time>
      </trkpt>
      <trkpt lat="42.028817581012845" lon="13.060624441131949">
        <ele>898.48999000000003</ele>
        <time>2017-06-12T15:45:46Z</time>
      </trkpt>
      <trkpt lat="42.028837613761425" lon="13.060602229088545">
        <ele>898.48999000000003</ele>
        <time>2017-06-12T15:46:25Z</time>
      </trkpt>
      <trkpt lat="42.028815820813179" lon="13.060565264895558">
        <ele>898.48999000000003</ele>
        <time>2017-06-12T15:46:58Z</time>
      </trkpt>
      <trkpt lat="42.028809618204832" lon="13.060563923791051">
        <ele>897.53002900000001</ele>
        <time>2017-06-12T15:47:20Z</time>
      </trkpt>
      <trkpt lat="42.028806935995817" lon="13.060578340664506">
        <ele>897.04998799999998</ele>
        <time>2017-06-12T15:47:49Z</time>
      </trkpt>
      <trkpt lat="42.028828226029873" lon="13.060567025095224">
        <ele>897.04998799999998</ele>
        <time>2017-06-12T15:48:11Z</time>
      </trkpt>
      <trkpt lat="42.02883250080049" lon="13.060574987903237">
        <ele>897.04998799999998</ele>
        <time>2017-06-12T15:48:38Z</time>
      </trkpt>
      <trkpt lat="42.028836440294981" lon="13.060559565201402">
        <ele>897.04998799999998</ele>
        <time>2017-06-12T15:48:51Z</time>
      </trkpt>
      <trkpt lat="42.028830740600824" lon="13.060613293200731">
        <ele>897.04998799999998</ele>
        <time>2017-06-12T15:49:12Z</time>
      </trkpt>
      <trkpt lat="42.028824621811509" lon="13.060621004551649">
        <ele>897.04998799999998</ele>
        <time>2017-06-12T15:49:41Z</time>
      </trkpt>
      <trkpt lat="42.028823113068938" lon="13.060623435303569">
        <ele>897.04998799999998</ele>
        <time>2017-06-12T15:50:05Z</time>
      </trkpt>
      <trkpt lat="42.028807941824198" lon="13.060580184683204">
        <ele>897.04998799999998</ele>
        <time>2017-06-12T15:50:15Z</time>
      </trkpt>
      <trkpt lat="42.028812132775784" lon="13.060562163591385">
        <ele>897.04998799999998</ele>
        <time>2017-06-12T15:50:31Z</time>
      </trkpt>
      <trkpt lat="42.028826465830207" lon="13.060564594343305">
        <ele>896.57000700000003</ele>
        <time>2017-06-12T15:50:43Z</time>
      </trkpt>
      <trkpt lat="42.028818670660257" lon="13.060660567134619">
        <ele>896.57000700000003</ele>
        <time>2017-06-12T15:50:52Z</time>
      </trkpt>
      <trkpt lat="42.028654133901" lon="13.060647072270513">
        <ele>894.15997300000004</ele>
        <time>2017-06-12T15:51:06Z</time>
      </trkpt>
      <trkpt lat="42.028555311262608" lon="13.060582866892219">
        <ele>893.67999299999997</ele>
        <time>2017-06-12T15:51:15Z</time>
      </trkpt>
      <trkpt lat="42.028454225510359" lon="13.060559565201402">
        <ele>895.11999500000002</ele>
        <time>2017-06-12T15:51:24Z</time>
      </trkpt>
      <trkpt lat="42.028373340144753" lon="13.060565097257495">
        <ele>895.60998500000005</ele>
        <time>2017-06-12T15:51:31Z</time>
      </trkpt>
      <trkpt lat="42.028343919664621" lon="13.060579430311918">
        <ele>895.60998500000005</ele>
        <time>2017-06-12T15:51:34Z</time>
      </trkpt>
      <trkpt lat="42.028276026248932" lon="13.06066257879138">
        <ele>895.60998500000005</ele>
        <time>2017-06-12T15:51:43Z</time>
      </trkpt>
      <trkpt lat="42.028177538886666" lon="13.060886459425092">
        <ele>893.20001200000002</ele>
        <time>2017-06-12T15:51:59Z</time>
      </trkpt>
      <trkpt lat="42.028059018775821" lon="13.060976564884186">
        <ele>893.20001200000002</ele>
        <time>2017-06-12T15:52:13Z</time>
      </trkpt>
      <trkpt lat="42.028051391243935" lon="13.060958376154304">
        <ele>893.20001200000002</ele>
        <time>2017-06-12T15:52:30Z</time>
      </trkpt>
      <trkpt lat="42.028044769540429" lon="13.060967763885856">
        <ele>894.64001499999995</ele>
        <time>2017-06-12T15:52:50Z</time>
      </trkpt>
      <trkpt lat="42.028052061796188" lon="13.061016211286187">
        <ele>893.20001200000002</ele>
        <time>2017-06-12T15:52:57Z</time>
      </trkpt>
      <trkpt lat="42.028050888329744" lon="13.061041859909892">
        <ele>892.71997099999999</ele>
        <time>2017-06-12T15:53:13Z</time>
      </trkpt>
      <trkpt lat="42.028021635487676" lon="13.061174126341939">
        <ele>890.32000700000003</ele>
        <time>2017-06-12T15:53:29Z</time>
      </trkpt>
      <trkpt lat="42.028005123138428" lon="13.061281833797693">
        <ele>887.43005400000004</ele>
        <time>2017-06-12T15:53:41Z</time>
      </trkpt>
      <trkpt lat="42.028005123138428" lon="13.061309913173318">
        <ele>886.95001200000002</ele>
        <time>2017-06-12T15:53:43Z</time>
      </trkpt>
      <trkpt lat="42.028040662407875" lon="13.061405131593347">
        <ele>885.51000999999997</ele>
        <time>2017-06-12T15:53:50Z</time>
      </trkpt>
      <trkpt lat="42.028044518083334" lon="13.06143656373024">
        <ele>885.03002900000001</ele>
        <time>2017-06-12T15:53:52Z</time>
      </trkpt>
      <trkpt lat="42.028071423992515" lon="13.061561370268464">
        <ele>883.10998500000005</ele>
        <time>2017-06-12T15:54:00Z</time>
      </trkpt>
      <trkpt lat="42.028108974918723" lon="13.061727164313197">
        <ele>880.71002199999998</ele>
        <time>2017-06-12T15:54:13Z</time>
      </trkpt>
      <trkpt lat="42.028244510293007" lon="13.061802601441741">
        <ele>878.77996800000005</ele>
        <time>2017-06-12T15:54:29Z</time>
      </trkpt>
      <trkpt lat="42.028210982680321" lon="13.061886839568615">
        <ele>876.38000499999998</ele>
        <time>2017-06-12T15:54:42Z</time>
      </trkpt>
      <trkpt lat="42.028139736503363" lon="13.061963114887476">
        <ele>874.45996100000002</ele>
        <time>2017-06-12T15:54:54Z</time>
      </trkpt>
      <trkpt lat="42.028070501983166" lon="13.062082221731544">
        <ele>872.04998799999998</ele>
        <time>2017-06-12T15:55:08Z</time>
      </trkpt>
      <trkpt lat="42.027940498664975" lon="13.062187498435378">
        <ele>869.17004399999996</ele>
        <time>2017-06-12T15:55:23Z</time>
      </trkpt>
      <trkpt lat="42.027924070134759" lon="13.062287494540215">
        <ele>867.73004200000003</ele>
        <time>2017-06-12T15:55:30Z</time>
      </trkpt>
      <trkpt lat="42.027935637161136" lon="13.062397297471762">
        <ele>866.77002000000005</ele>
        <time>2017-06-12T15:55:37Z</time>
      </trkpt>
      <trkpt lat="42.027937900274992" lon="13.062424035742879">
        <ele>866.77002000000005</ele>
        <time>2017-06-12T15:55:39Z</time>
      </trkpt>
      <trkpt lat="42.027992969378829" lon="13.062630482017994">
        <ele>863.40002400000003</ele>
        <time>2017-06-12T15:55:55Z</time>
      </trkpt>
      <trkpt lat="42.028000764548779" lon="13.062653699889779">
        <ele>862.44000200000005</ele>
        <time>2017-06-12T15:55:57Z</time>
      </trkpt>
      <trkpt lat="42.028030436486006" lon="13.0627959407866">
        <ele>860.03997800000002</ele>
        <time>2017-06-12T15:56:10Z</time>
      </trkpt>
      <trkpt lat="42.028041165322065" lon="13.062817482277751">
        <ele>859.56005900000002</ele>
        <time>2017-06-12T15:56:13Z</time>
      </trkpt>
      <trkpt lat="42.028038902208209" lon="13.062892919406295">
        <ele>857.63000499999998</ele>
        <time>2017-06-12T15:56:23Z</time>
      </trkpt>
      <trkpt lat="42.027902193367481" lon="13.062838185578585">
        <ele>853.78997800000002</ele>
        <time>2017-06-12T15:56:40Z</time>
      </trkpt>
      <trkpt lat="42.027803119271994" lon="13.062767777591944">
        <ele>851.86999500000002</ele>
        <time>2017-06-12T15:56:52Z</time>
      </trkpt>
      <trkpt lat="42.027683760970831" lon="13.062672726809978">
        <ele>849.45996100000002</ele>
        <time>2017-06-12T15:57:06Z</time>
      </trkpt>
      <trkpt lat="42.027638582512736" lon="13.062658393755555">
        <ele>848.01995799999997</ele>
        <time>2017-06-12T15:57:14Z</time>
      </trkpt>
      <trkpt lat="42.027597762644291" lon="13.062628889456391">
        <ele>847.06005900000002</ele>
        <time>2017-06-12T15:57:19Z</time>
      </trkpt>
      <trkpt lat="42.027484523132443" lon="13.062521265819669">
        <ele>843.21002199999998</ele>
        <time>2017-06-12T15:57:34Z</time>
      </trkpt>
      <trkpt lat="42.027399362996221" lon="13.062397465109825">
        <ele>841.28997800000002</ele>
        <time>2017-06-12T15:57:48Z</time>
      </trkpt>
      <trkpt lat="42.02734999358654" lon="13.06227408349514">
        <ele>839.84997599999997</ele>
        <time>2017-06-12T15:57:59Z</time>
      </trkpt>
      <trkpt lat="42.027320740744472" lon="13.062226139008999">
        <ele>838.40997300000004</ele>
        <time>2017-06-12T15:58:05Z</time>
      </trkpt>
      <trkpt lat="42.027216469869018" lon="13.062120862305164">
        <ele>836</ele>
        <time>2017-06-12T15:58:20Z</time>
      </trkpt>
      <trkpt lat="42.027095016092062" lon="13.061971161514521">
        <ele>833.11999500000002</ele>
        <time>2017-06-12T15:58:38Z</time>
      </trkpt>
      <trkpt lat="42.02701915986836" lon="13.061893293634057">
        <ele>831.20001200000002</ele>
        <time>2017-06-12T15:58:50Z</time>
      </trkpt>
      <trkpt lat="42.026967778801918" lon="13.061906704679132">
        <ele>828.78997800000002</ele>
        <time>2017-06-12T15:59:06Z</time>
      </trkpt>
      <trkpt lat="42.02700549736619" lon="13.06204098276794">
        <ele>825.90997300000004</ele>
        <time>2017-06-12T15:59:21Z</time>
      </trkpt>
      <trkpt lat="42.027043970301747" lon="13.062134273350239">
        <ele>824.47003199999995</ele>
        <time>2017-06-12T15:59:31Z</time>
      </trkpt>
      <trkpt lat="42.027073726058006" lon="13.062299061566591">
        <ele>822.06005900000002</ele>
        <time>2017-06-12T15:59:47Z</time>
      </trkpt>
      <trkpt lat="42.027082275599241" lon="13.062318172305822">
        <ele>821.10003700000004</ele>
        <time>2017-06-12T15:59:50Z</time>
      </trkpt>
      <trkpt lat="42.027109935879707" lon="13.062415067106485">
        <ele>819.660034</ele>
        <time>2017-06-12T16:00:02Z</time>
      </trkpt>
      <trkpt lat="42.02710222452879" lon="13.062570467591286">
        <ele>816.77996800000005</ele>
        <time>2017-06-12T16:00:18Z</time>
      </trkpt>
      <trkpt lat="42.02710029669106" lon="13.06271337904036">
        <ele>813.88995399999999</ele>
        <time>2017-06-12T16:00:31Z</time>
      </trkpt>
      <trkpt lat="42.027138769626617" lon="13.06283650919795">
        <ele>813.40997300000004</ele>
        <time>2017-06-12T16:00:45Z</time>
      </trkpt>
      <trkpt lat="42.027128208428621" lon="13.062957627698779">
        <ele>812.44995100000006</ele>
        <time>2017-06-12T16:00:56Z</time>
      </trkpt>
      <trkpt lat="42.027131225913763" lon="13.06305100210011">
        <ele>811.97003199999995</ele>
        <time>2017-06-12T16:01:04Z</time>
      </trkpt>
      <trkpt lat="42.027142960578203" lon="13.06314236484468">
        <ele>811.01000999999997</ele>
        <time>2017-06-12T16:01:18Z</time>
      </trkpt>
      <trkpt lat="42.027175482362509" lon="13.063255939632654">
        <ele>809.089966</ele>
        <time>2017-06-12T16:01:30Z</time>
      </trkpt>
      <trkpt lat="42.027207668870687" lon="13.063347637653351">
        <ele>808.60998500000005</ele>
        <time>2017-06-12T16:01:41Z</time>
      </trkpt>
      <trkpt lat="42.027242872864008" lon="13.0634555965662">
        <ele>808.13000499999998</ele>
        <time>2017-06-12T16:01:55Z</time>
      </trkpt>
      <trkpt lat="42.027254607528448" lon="13.063507480546832">
        <ele>808.13000499999998</ele>
        <time>2017-06-12T16:02:00Z</time>
      </trkpt>
      <trkpt lat="42.027232563123107" lon="13.063583923503757">
        <ele>808.13000499999998</ele>
        <time>2017-06-12T16:02:07Z</time>
      </trkpt>
      <trkpt lat="42.027217978611588" lon="13.063656762242317">
        <ele>807.160034</ele>
        <time>2017-06-12T16:02:14Z</time>
      </trkpt>
      <trkpt lat="42.027138434350491" lon="13.063825238496065">
        <ele>805.71997099999999</ele>
        <time>2017-06-12T16:02:28Z</time>
      </trkpt>
      <trkpt lat="42.027149833738804" lon="13.064070241525769">
        <ele>805.23999000000003</ele>
        <time>2017-06-12T16:02:44Z</time>
      </trkpt>
      <trkpt lat="42.027156287804246" lon="13.064232096076012">
        <ele>805.23999000000003</ele>
        <time>2017-06-12T16:02:57Z</time>
      </trkpt>
      <trkpt lat="42.027163496240973" lon="13.064404260367155">
        <ele>807.160034</ele>
        <time>2017-06-12T16:03:10Z</time>
      </trkpt>
      <trkpt lat="42.027144972234964" lon="13.064520936459303">
        <ele>807.64001499999995</ele>
        <time>2017-06-12T16:03:22Z</time>
      </trkpt>
      <trkpt lat="42.027138015255332" lon="13.06460140272975">
        <ele>807.160034</ele>
        <time>2017-06-12T16:03:38Z</time>
      </trkpt>
      <trkpt lat="42.027148241177201" lon="13.06461263448">
        <ele>807.160034</ele>
        <time>2017-06-12T16:03:49Z</time>
      </trkpt>
      <trkpt lat="42.027170201763511" lon="13.06467030197382">
        <ele>806.20001200000002</ele>
        <time>2017-06-12T16:03:54Z</time>
      </trkpt>
      <trkpt lat="42.027201466262341" lon="13.064775662496686">
        <ele>804.27996800000005</ele>
        <time>2017-06-12T16:04:05Z</time>
      </trkpt>
      <trkpt lat="42.027256535366178" lon="13.064954532310367">
        <ele>800.919983</ele>
        <time>2017-06-12T16:04:21Z</time>
      </trkpt>
      <trkpt lat="42.02726399526" lon="13.065195763483644">
        <ele>799.47003199999995</ele>
        <time>2017-06-12T16:04:39Z</time>
      </trkpt>
      <trkpt lat="42.02723566442728" lon="13.065297016873956">
        <ele>798.03002900000001</ele>
        <time>2017-06-12T16:04:46Z</time>
      </trkpt>
      <trkpt lat="42.027209093794227" lon="13.065400281921029">
        <ele>795.63000499999998</ele>
        <time>2017-06-12T16:04:57Z</time>
      </trkpt>
      <trkpt lat="42.02720926143229" lon="13.065627012401819">
        <ele>792.73999000000003</ele>
        <time>2017-06-12T16:05:13Z</time>
      </trkpt>
      <trkpt lat="42.027184702455997" lon="13.065753662958741">
        <ele>789.86004600000001</ele>
        <time>2017-06-12T16:05:26Z</time>
      </trkpt>
      <trkpt lat="42.027145894244313" lon="13.065905794501305">
        <ele>787.46002199999998</ele>
        <time>2017-06-12T16:05:41Z</time>
      </trkpt>
      <trkpt lat="42.027091160416603" lon="13.065963294357061">
        <ele>785.53002900000001</ele>
        <time>2017-06-12T16:05:50Z</time>
      </trkpt>
      <trkpt lat="42.026992421597242" lon="13.066097572445869">
        <ele>783.13000499999998</ele>
        <time>2017-06-12T16:06:06Z</time>
      </trkpt>
      <trkpt lat="42.026903489604592" lon="13.066190192475915">
        <ele>781.20996100000002</ele>
        <time>2017-06-12T16:06:19Z</time>
      </trkpt>
      <trkpt lat="42.026898125186563" lon="13.066203938797116">
        <ele>780.73004200000003</ele>
        <time>2017-06-12T16:06:21Z</time>
      </trkpt>
      <trkpt lat="42.026856886222959" lon="13.066294630989432">
        <ele>778.31994599999996</ele>
        <time>2017-06-12T16:06:33Z</time>
      </trkpt>
      <trkpt lat="42.026857724413276" lon="13.066381635144353">
        <ele>776.40002400000003</ele>
        <time>2017-06-12T16:06:39Z</time>
      </trkpt>
      <trkpt lat="42.02676116488874" lon="13.066450618207455">
        <ele>775.44000200000005</ele>
        <time>2017-06-12T16:06:53Z</time>
      </trkpt>
      <trkpt lat="42.02675387263298" lon="13.066465202718973">
        <ele>775.44000200000005</ele>
        <time>2017-06-12T16:06:55Z</time>
      </trkpt>
      <trkpt lat="42.026725290343165" lon="13.066509794443846">
        <ele>774.96002199999998</ele>
        <time>2017-06-12T16:07:00Z</time>
      </trkpt>
      <trkpt lat="42.026700479909778" lon="13.066759575158358">
        <ele>774</ele>
        <time>2017-06-12T16:07:16Z</time>
      </trkpt>
      <trkpt lat="42.02658967114985" lon="13.066919082775712">
        <ele>773.51995799999997</ele>
        <time>2017-06-12T16:07:31Z</time>
      </trkpt>
      <trkpt lat="42.026499984785914" lon="13.067119158804417">
        <ele>772.07995600000004</ele>
        <time>2017-06-12T16:07:46Z</time>
      </trkpt>
      <trkpt lat="42.026459835469723" lon="13.067310936748981">
        <ele>771.60003700000004</ele>
        <time>2017-06-12T16:07:58Z</time>
      </trkpt>
      <trkpt lat="42.026364030316472" lon="13.06749751791358">
        <ele>771.10998500000005</ele>
        <time>2017-06-12T16:08:13Z</time>
      </trkpt>
      <trkpt lat="42.026256658136845" lon="13.067680578678846">
        <ele>770.14996299999996</ele>
        <time>2017-06-12T16:08:28Z</time>
      </trkpt>
      <trkpt lat="42.026220029219985" lon="13.067735396325588">
        <ele>769.669983</ele>
        <time>2017-06-12T16:08:32Z</time>
      </trkpt>
      <trkpt lat="42.026108298450708" lon="13.067930527031422">
        <ele>768.70996100000002</ele>
        <time>2017-06-12T16:08:47Z</time>
      </trkpt>
      <trkpt lat="42.026037136092782" lon="13.068148540332913">
        <ele>768.23004200000003</ele>
        <time>2017-06-12T16:09:03Z</time>
      </trkpt>
      <trkpt lat="42.026010733097792" lon="13.068364709615707">
        <ele>766.79003899999998</ele>
        <time>2017-06-12T16:09:19Z</time>
      </trkpt>
      <trkpt lat="42.026006793603301" lon="13.068414833396673">
        <ele>767.27002000000005</ele>
        <time>2017-06-12T16:09:22Z</time>
      </trkpt>
      <trkpt lat="42.025985335931182" lon="13.068547686561942">
        <ele>766.79003899999998</ele>
        <time>2017-06-12T16:09:30Z</time>
      </trkpt>
      <trkpt lat="42.026016265153885" lon="13.068848010152578">
        <ele>766.30999799999995</ele>
        <time>2017-06-12T16:09:46Z</time>
      </trkpt>
      <trkpt lat="42.026015929877758" lon="13.068869300186634">
        <ele>766.30999799999995</ele>
        <time>2017-06-12T16:09:47Z</time>
      </trkpt>
      <trkpt lat="42.025996064767241" lon="13.068939791992307">
        <ele>765.830017</ele>
        <time>2017-06-12T16:09:51Z</time>
      </trkpt>
      <trkpt lat="42.025961698964238" lon="13.069172222167253">
        <ele>764.86999500000002</ele>
        <time>2017-06-12T16:10:07Z</time>
      </trkpt>
      <trkpt lat="42.025954825803638" lon="13.069312619045377">
        <ele>764.39001499999995</ele>
        <time>2017-06-12T16:10:16Z</time>
      </trkpt>
      <trkpt lat="42.02580931596458" lon="13.069501463323832">
        <ele>762.94000200000005</ele>
        <time>2017-06-12T16:10:33Z</time>
      </trkpt>
      <trkpt lat="42.025681491941214" lon="13.069633478298783">
        <ele>761.97997999999995</ele>
        <time>2017-06-12T16:10:48Z</time>
      </trkpt>
      <trkpt lat="42.025557858869433" lon="13.069762140512466">
        <ele>761.5</ele>
        <time>2017-06-12T16:11:02Z</time>
      </trkpt>
      <trkpt lat="42.025542017072439" lon="13.069774797186255">
        <ele>761.01995799999997</ele>
        <time>2017-06-12T16:11:04Z</time>
      </trkpt>
      <trkpt lat="42.025341521948576" lon="13.069870937615633">
        <ele>759.57995600000004</ele>
        <time>2017-06-12T16:11:23Z</time>
      </trkpt>
      <trkpt lat="42.025173380970955" lon="13.069929694756866">
        <ele>758.61993399999994</ele>
        <time>2017-06-12T16:11:39Z</time>
      </trkpt>
      <trkpt lat="42.024991493672132" lon="13.070012424141169">
        <ele>756.69006300000001</ele>
        <time>2017-06-12T16:11:55Z</time>
      </trkpt>
      <trkpt lat="42.024803906679153" lon="13.070122059434652">
        <ele>755.73004200000003</ele>
        <time>2017-06-12T16:12:11Z</time>
      </trkpt>
      <trkpt lat="42.024738695472479" lon="13.070169920101762">
        <ele>755.73004200000003</ele>
        <time>2017-06-12T16:12:19Z</time>
      </trkpt>
      <trkpt lat="42.024722434580326" lon="13.07017863728106">
        <ele>754.77002000000005</ele>
        <time>2017-06-12T16:12:21Z</time>
      </trkpt>
      <trkpt lat="42.024666192010045" lon="13.070217864587903">
        <ele>754.77002000000005</ele>
        <time>2017-06-12T16:12:26Z</time>
      </trkpt>
      <trkpt lat="42.02460533939302" lon="13.070272011682391">
        <ele>754.29003899999998</ele>
        <time>2017-06-12T16:12:33Z</time>
      </trkpt>
      <trkpt lat="42.024567034095526" lon="13.070410983636975">
        <ele>753.80999799999995</ele>
        <time>2017-06-12T16:12:40Z</time>
      </trkpt>
      <trkpt lat="42.0244543813169" lon="13.070541406050324">
        <ele>752.84997599999997</ele>
        <time>2017-06-12T16:12:54Z</time>
      </trkpt>
      <trkpt lat="42.024440383538604" lon="13.070557415485382">
        <ele>752.84997599999997</ele>
        <time>2017-06-12T16:12:56Z</time>
      </trkpt>
      <trkpt lat="42.024400737136602" lon="13.070733938366175">
        <ele>749.49005099999999</ele>
        <time>2017-06-12T16:13:12Z</time>
      </trkpt>
      <trkpt lat="42.024386571720243" lon="13.070834940299392">
        <ele>748.03997800000002</ele>
        <time>2017-06-12T16:13:28Z</time>
      </trkpt>
      <trkpt lat="42.024350194260478" lon="13.071035938337445">
        <ele>745.64001499999995</ele>
        <time>2017-06-12T16:13:42Z</time>
      </trkpt>
      <trkpt lat="42.024245923385024" lon="13.071231404319406">
        <ele>744.20001200000002</ele>
        <time>2017-06-12T16:13:56Z</time>
      </trkpt>
      <trkpt lat="42.024082224816084" lon="13.071395186707377">
        <ele>743.72003199999995</ele>
        <time>2017-06-12T16:14:12Z</time>
      </trkpt>
      <trkpt lat="42.023916766047478" lon="13.071534158661962">
        <ele>742.76000999999997</ele>
        <time>2017-06-12T16:14:27Z</time>
      </trkpt>
      <trkpt lat="42.023770418018103" lon="13.071683440357447">
        <ele>742.27996800000005</ele>
        <time>2017-06-12T16:14:43Z</time>
      </trkpt>
      <trkpt lat="42.023652484640479" lon="13.07185267098248">
        <ele>741.30999799999995</ele>
        <time>2017-06-12T16:14:59Z</time>
      </trkpt>
      <trkpt lat="42.023580903187394" lon="13.072049729526043">
        <ele>738.90997300000004</ele>
        <time>2017-06-12T16:15:12Z</time>
      </trkpt>
      <trkpt lat="42.023557433858514" lon="13.072100775316358">
        <ele>738.42999299999997</ele>
        <time>2017-06-12T16:15:17Z</time>
      </trkpt>
      <trkpt lat="42.0234942343086" lon="13.072298504412174">
        <ele>736.51000999999997</ele>
        <time>2017-06-12T16:15:32Z</time>
      </trkpt>
      <trkpt lat="42.02348199672997" lon="13.072351394221187">
        <ele>736.03002900000001</ele>
        <time>2017-06-12T16:15:36Z</time>
      </trkpt>
      <trkpt lat="42.023417120799422" lon="13.072641575708985">
        <ele>735.07000700000003</ele>
        <time>2017-06-12T16:15:54Z</time>
      </trkpt>
      <trkpt lat="42.023349478840828" lon="13.072867467999458">
        <ele>735.07000700000003</ele>
        <time>2017-06-12T16:16:09Z</time>
      </trkpt>
      <trkpt lat="42.023293823003769" lon="13.073145831003785">
        <ele>734.10003700000004</ele>
        <time>2017-06-12T16:16:26Z</time>
      </trkpt>
      <trkpt lat="42.023286866024137" lon="13.073363089933991">
        <ele>732.17999299999997</ele>
        <time>2017-06-12T16:16:40Z</time>
      </trkpt>
      <trkpt lat="42.023277813568711" lon="13.073595184832811">
        <ele>730.73999000000003</ele>
        <time>2017-06-12T16:16:55Z</time>
      </trkpt>
      <trkpt lat="42.023322572931647" lon="13.073845468461514">
        <ele>728.339966</ele>
        <time>2017-06-12T16:17:11Z</time>
      </trkpt>
      <trkpt lat="42.023337576538324" lon="13.074024841189384">
        <ele>727.36999500000002</ele>
        <time>2017-06-12T16:17:23Z</time>
      </trkpt>
      <trkpt lat="42.023391639813781" lon="13.074258528649807">
        <ele>725.44995100000006</ele>
        <time>2017-06-12T16:17:38Z</time>
      </trkpt>
      <trkpt lat="42.023413013666868" lon="13.074506130069494">
        <ele>724.49005099999999</ele>
        <time>2017-06-12T16:17:54Z</time>
      </trkpt>
      <trkpt lat="42.023405972868204" lon="13.074717940762639">
        <ele>723.53002900000001</ele>
        <time>2017-06-12T16:18:08Z</time>
      </trkpt>
      <trkpt lat="42.023389963433146" lon="13.074930086731911">
        <ele>723.04998799999998</ele>
        <time>2017-06-12T16:18:21Z</time>
      </trkpt>
      <trkpt lat="42.023383090272546" lon="13.075014660134912">
        <ele>722.57000700000003</ele>
        <time>2017-06-12T16:18:27Z</time>
      </trkpt>
      <trkpt lat="42.023346712812781" lon="13.075260417535901">
        <ele>721.13000499999998</ele>
        <time>2017-06-12T16:18:42Z</time>
      </trkpt>
      <trkpt lat="42.02332517132163" lon="13.075283886864781">
        <ele>721.13000499999998</ele>
        <time>2017-06-12T16:18:45Z</time>
      </trkpt>
      <trkpt lat="42.023276640102267" lon="13.075324036180973">
        <ele>720.64996299999996</ele>
        <time>2017-06-12T16:18:59Z</time>
      </trkpt>
      <trkpt lat="42.023273203521967" lon="13.075338872149587">
        <ele>720.64996299999996</ele>
        <time>2017-06-12T16:19:16Z</time>
      </trkpt>
      <trkpt lat="42.023269264027476" lon="13.075366029515862">
        <ele>720.160034</ele>
        <time>2017-06-12T16:19:35Z</time>
      </trkpt>
      <trkpt lat="42.023261887952685" lon="13.075338285416365">
        <ele>720.160034</ele>
        <time>2017-06-12T16:19:50Z</time>
      </trkpt>
      <trkpt lat="42.023264486342669" lon="13.075324958190322">
        <ele>720.160034</ele>
        <time>2017-06-12T16:20:17Z</time>
      </trkpt>
      <trkpt lat="42.02327043749392" lon="13.075363431125879">
        <ele>720.160034</ele>
        <time>2017-06-12T16:20:41Z</time>
      </trkpt>
      <trkpt lat="42.023259624838829" lon="13.075362173840404">
        <ele>719.67999299999997</ele>
        <time>2017-06-12T16:20:58Z</time>
      </trkpt>
      <trkpt lat="42.023263396695256" lon="13.075346499681473">
        <ele>719.67999299999997</ele>
        <time>2017-06-12T16:21:16Z</time>
      </trkpt>
      <trkpt lat="42.023280998691916" lon="13.075328059494495">
        <ele>719.67999299999997</ele>
        <time>2017-06-12T16:21:39Z</time>
      </trkpt>
      <trkpt lat="42.023348640650511" lon="13.07537323795259">
        <ele>719.20001200000002</ele>
        <time>2017-06-12T16:21:47Z</time>
      </trkpt>
      <trkpt lat="42.02339943498373" lon="13.075501816347241">
        <ele>718.23999000000003</ele>
        <time>2017-06-12T16:22:01Z</time>
      </trkpt>
      <trkpt lat="42.0234165340662" lon="13.075477341189981">
        <ele>718.23999000000003</ele>
        <time>2017-06-12T16:22:26Z</time>
      </trkpt>
      <trkpt lat="42.023398093879223" lon="13.075468372553587">
        <ele>716.79998799999998</ele>
        <time>2017-06-12T16:22:51Z</time>
      </trkpt>
      <trkpt lat="42.023400776088238" lon="13.075478933751583">
        <ele>716.79998799999998</ele>
        <time>2017-06-12T16:23:27Z</time>
      </trkpt>
      <trkpt lat="42.02340429648757" lon="13.075491674244404">
        <ele>717.76000999999997</ele>
        <time>2017-06-12T16:23:59Z</time>
      </trkpt>
      <trkpt lat="42.02340429648757" lon="13.075511706992984">
        <ele>716.79998799999998</ele>
        <time>2017-06-12T16:24:13Z</time>
      </trkpt>
      <trkpt lat="42.02339306473732" lon="13.075511874631047">
        <ele>716.32000700000003</ele>
        <time>2017-06-12T16:24:31Z</time>
      </trkpt>
      <trkpt lat="42.023402033373713" lon="13.075497541576624">
        <ele>716.32000700000003</ele>
        <time>2017-06-12T16:24:55Z</time>
      </trkpt>
      <trkpt lat="42.02338820323348" lon="13.075485220178962">
        <ele>716.32000700000003</ele>
        <time>2017-06-12T16:25:15Z</time>
      </trkpt>
      <trkpt lat="42.023391975089908" lon="13.075494272634387">
        <ele>716.32000700000003</ele>
        <time>2017-06-12T16:25:50Z</time>
      </trkpt>
      <trkpt lat="42.023371774703264" lon="13.075503241270781">
        <ele>716.32000700000003</ele>
        <time>2017-06-12T16:26:08Z</time>
      </trkpt>
      <trkpt lat="42.023359034210443" lon="13.075529811903834">
        <ele>717.27996800000005</ele>
        <time>2017-06-12T16:26:20Z</time>
      </trkpt>
      <trkpt lat="42.023398261517286" lon="13.07551447302103">
        <ele>717.27996800000005</ele>
        <time>2017-06-12T16:26:33Z</time>
      </trkpt>
      <trkpt lat="42.023401698097587" lon="13.075519418343902">
        <ele>717.27996800000005</ele>
        <time>2017-06-12T16:27:03Z</time>
      </trkpt>
      <trkpt lat="42.023377809673548" lon="13.075592759996653">
        <ele>717.27996800000005</ele>
        <time>2017-06-12T16:27:17Z</time>
      </trkpt>
      <trkpt lat="42.023403290659189" lon="13.075724691152573">
        <ele>715.839966</ele>
        <time>2017-06-12T16:27:24Z</time>
      </trkpt>
      <trkpt lat="42.023410331457853" lon="13.075780598446727">
        <ele>715.36004600000001</ele>
        <time>2017-06-12T16:27:30Z</time>
      </trkpt>
      <trkpt lat="42.023403039202094" lon="13.076011687517166">
        <ele>714.87994400000002</ele>
        <time>2017-06-12T16:27:45Z</time>
      </trkpt>
      <trkpt lat="42.023384096100926" lon="13.076239675283432">
        <ele>713.92004399999996</ele>
        <time>2017-06-12T16:27:59Z</time>
      </trkpt>
      <trkpt lat="42.023384515196085" lon="13.076475793495774">
        <ele>713.92004399999996</ele>
        <time>2017-06-12T16:28:14Z</time>
      </trkpt>
      <trkpt lat="42.023431286215782" lon="13.076692968606949">
        <ele>713.44000200000005</ele>
        <time>2017-06-12T16:28:28Z</time>
      </trkpt>
      <trkpt lat="42.023468585684896" lon="13.076878376305103">
        <ele>714.87994400000002</ele>
        <time>2017-06-12T16:28:40Z</time>
      </trkpt>
      <trkpt lat="42.023492306470871" lon="13.077076440677047">
        <ele>715.36004600000001</ele>
        <time>2017-06-12T16:28:54Z</time>
      </trkpt>
      <trkpt lat="42.02349859289825" lon="13.077227063477039">
        <ele>715.839966</ele>
        <time>2017-06-12T16:29:06Z</time>
      </trkpt>
      <trkpt lat="42.02352742664516" lon="13.077482292428613">
        <ele>717.27996800000005</ele>
        <time>2017-06-12T16:29:22Z</time>
      </trkpt>
      <trkpt lat="42.023528600111604" lon="13.077494613826275">
        <ele>717.27996800000005</ele>
        <time>2017-06-12T16:29:23Z</time>
      </trkpt>
      <trkpt lat="42.023591380566359" lon="13.077682703733444">
        <ele>717.76000999999997</ele>
        <time>2017-06-12T16:29:36Z</time>
      </trkpt>
      <trkpt lat="42.023598840460181" lon="13.07771522551775">
        <ele>717.76000999999997</ele>
        <time>2017-06-12T16:29:39Z</time>
      </trkpt>
      <trkpt lat="42.023616107180715" lon="13.077780772000551">
        <ele>717.76000999999997</ele>
        <time>2017-06-12T16:29:43Z</time>
      </trkpt>
      <trkpt lat="42.02365986071527" lon="13.077962910756469">
        <ele>719.20001200000002</ele>
        <time>2017-06-12T16:29:57Z</time>
      </trkpt>
      <trkpt lat="42.023720294237137" lon="13.078144714236259">
        <ele>719.67999299999997</ele>
        <time>2017-06-12T16:30:10Z</time>
      </trkpt>
      <trkpt lat="42.023723814636469" lon="13.078153263777494">
        <ele>720.160034</ele>
        <time>2017-06-12T16:30:11Z</time>
      </trkpt>
      <trkpt lat="42.023777458816767" lon="13.07834018021822">
        <ele>721.13000499999998</ele>
        <time>2017-06-12T16:30:24Z</time>
      </trkpt>
      <trkpt lat="42.023782236501575" lon="13.078355938196182">
        <ele>721.13000499999998</ele>
        <time>2017-06-12T16:30:26Z</time>
      </trkpt>
      <trkpt lat="42.023829929530621" lon="13.07855618186295">
        <ele>722.09002699999996</ele>
        <time>2017-06-12T16:30:41Z</time>
      </trkpt>
      <trkpt lat="42.023853398859501" lon="13.078629858791828">
        <ele>722.09002699999996</ele>
        <time>2017-06-12T16:30:46Z</time>
      </trkpt>
      <trkpt lat="42.02391006052494" lon="13.078790958970785">
        <ele>722.57000700000003</ele>
        <time>2017-06-12T16:30:59Z</time>
      </trkpt>
      <trkpt lat="42.023981725797057" lon="13.07898860424757">
        <ele>723.53002900000001</ele>
        <time>2017-06-12T16:31:13Z</time>
      </trkpt>
      <trkpt lat="42.024016594514251" lon="13.079152470454574">
        <ele>724.49005099999999</ele>
        <time>2017-06-12T16:31:25Z</time>
      </trkpt>
      <trkpt lat="42.024059509858489" lon="13.079251041635871">
        <ele>724.49005099999999</ele>
        <time>2017-06-12T16:31:35Z</time>
      </trkpt>
      <trkpt lat="42.024106699973345" lon="13.07946503162384">
        <ele>724.96997099999999</ele>
        <time>2017-06-12T16:31:51Z</time>
      </trkpt>
      <trkpt lat="42.024114159867167" lon="13.079483136534691">
        <ele>724.96997099999999</ele>
        <time>2017-06-12T16:31:53Z</time>
      </trkpt>
      <trkpt lat="42.024197895079851" lon="13.079645661637187">
        <ele>725.92999299999997</ele>
        <time>2017-06-12T16:32:07Z</time>
      </trkpt>
      <trkpt lat="42.024251623079181" lon="13.079827716574073">
        <ele>726.40997300000004</ele>
        <time>2017-06-12T16:32:21Z</time>
      </trkpt>
      <trkpt lat="42.024284731596708" lon="13.079920085147023">
        <ele>726.89001499999995</ele>
        <time>2017-06-12T16:32:27Z</time>
      </trkpt>
      <trkpt lat="42.024351367726922" lon="13.080110941082239">
        <ele>727.36999500000002</ele>
        <time>2017-06-12T16:32:41Z</time>
      </trkpt>
      <trkpt lat="42.024401407688856" lon="13.080285787582397">
        <ele>727.36999500000002</ele>
        <time>2017-06-12T16:32:54Z</time>
      </trkpt>
      <trkpt lat="42.024466786533594" lon="13.080457281321287">
        <ele>727.36999500000002</ele>
        <time>2017-06-12T16:33:08Z</time>
      </trkpt>
      <trkpt lat="42.024520430713892" lon="13.080601617693901">
        <ele>727.36999500000002</ele>
        <time>2017-06-12T16:33:21Z</time>
      </trkpt>
      <trkpt lat="42.024580696597695" lon="13.080787025392056">
        <ele>727.36999500000002</ele>
        <time>2017-06-12T16:33:35Z</time>
      </trkpt>
      <trkpt lat="42.024665605276823" lon="13.081035129725933">
        <ele>728.339966</ele>
        <time>2017-06-12T16:33:51Z</time>
      </trkpt>
      <trkpt lat="42.024668036028743" lon="13.081240234896541">
        <ele>728.82000700000003</ele>
        <time>2017-06-12T16:34:05Z</time>
      </trkpt>
      <trkpt lat="42.024692427366972" lon="13.081401335075498">
        <ele>730.26000999999997</ele>
        <time>2017-06-12T16:34:16Z</time>
      </trkpt>
      <trkpt lat="42.024695863947272" lon="13.081511724740267">
        <ele>730.73999000000003</ele>
        <time>2017-06-12T16:34:23Z</time>
      </trkpt>
      <trkpt lat="42.024743221700191" lon="13.081697886809707">
        <ele>731.22003199999995</ele>
        <time>2017-06-12T16:34:37Z</time>
      </trkpt>
      <trkpt lat="42.024762416258454" lon="13.081897292286158">
        <ele>731.22003199999995</ele>
        <time>2017-06-12T16:34:49Z</time>
      </trkpt>
      <trkpt lat="42.024763002991676" lon="13.082106336951256">
        <ele>731.22003199999995</ele>
        <time>2017-06-12T16:35:02Z</time>
      </trkpt>
      <trkpt lat="42.024756381288171" lon="13.082314459607005">
        <ele>729.29998799999998</ele>
        <time>2017-06-12T16:35:15Z</time>
      </trkpt>
      <trkpt lat="42.024732911959291" lon="13.082514200359583">
        <ele>728.82000700000003</ele>
        <time>2017-06-12T16:35:30Z</time>
      </trkpt>
      <trkpt lat="42.024731822311878" lon="13.082551499828696">
        <ele>728.82000700000003</ele>
        <time>2017-06-12T16:35:33Z</time>
      </trkpt>
      <trkpt lat="42.024697875604033" lon="13.082815781235695">
        <ele>728.339966</ele>
        <time>2017-06-12T16:35:48Z</time>
      </trkpt>
      <trkpt lat="42.024683458730578" lon="13.082898175343871">
        <ele>728.339966</ele>
        <time>2017-06-12T16:35:52Z</time>
      </trkpt>
      <trkpt lat="42.024675579741597" lon="13.083074865862727">
        <ele>728.339966</ele>
        <time>2017-06-12T16:36:05Z</time>
      </trkpt>
      <trkpt lat="42.024649679660797" lon="13.083286760374904">
        <ele>728.339966</ele>
        <time>2017-06-12T16:36:18Z</time>
      </trkpt>
      <trkpt lat="42.024653367698193" lon="13.083523130044341">
        <ele>728.339966</ele>
        <time>2017-06-12T16:36:32Z</time>
      </trkpt>
      <trkpt lat="42.024639789015055" lon="13.0837273132056">
        <ele>728.339966</ele>
        <time>2017-06-12T16:36:46Z</time>
      </trkpt>
      <trkpt lat="42.024633921682835" lon="13.083890005946159">
        <ele>729.77996800000005</ele>
        <time>2017-06-12T16:36:58Z</time>
      </trkpt>
      <trkpt lat="42.024637022987008" lon="13.084104498848319">
        <ele>730.26000999999997</ele>
        <time>2017-06-12T16:37:13Z</time>
      </trkpt>
      <trkpt lat="42.024639789015055" lon="13.084161328151822">
        <ele>730.26000999999997</ele>
        <time>2017-06-12T16:37:16Z</time>
      </trkpt>
      <trkpt lat="42.024642219766974" lon="13.084241123870015">
        <ele>730.26000999999997</ele>
        <time>2017-06-12T16:37:23Z</time>
      </trkpt>
      <trkpt lat="42.024661330506206" lon="13.084469027817249">
        <ele>731.22003199999995</ele>
        <time>2017-06-12T16:37:37Z</time>
      </trkpt>
      <trkpt lat="42.024655714631081" lon="13.084692740812898">
        <ele>732.17999299999997</ele>
        <time>2017-06-12T16:37:50Z</time>
      </trkpt>
      <trkpt lat="42.024642722681165" lon="13.084907904267311">
        <ele>733.14001499999995</ele>
        <time>2017-06-12T16:38:05Z</time>
      </trkpt>
      <trkpt lat="42.024623360484838" lon="13.085128013044596">
        <ele>733.61999500000002</ele>
        <time>2017-06-12T16:38:19Z</time>
      </trkpt>
      <trkpt lat="42.02458824031055" lon="13.085321802645922">
        <ele>734.10003700000004</ele>
        <time>2017-06-12T16:38:31Z</time>
      </trkpt>
      <trkpt lat="42.024550689384341" lon="13.085534535348415">
        <ele>734.57995600000004</ele>
        <time>2017-06-12T16:38:45Z</time>
      </trkpt>
      <trkpt lat="42.024548007175326" lon="13.085582731291652">
        <ele>734.57995600000004</ele>
        <time>2017-06-12T16:38:50Z</time>
      </trkpt>
      <trkpt lat="42.024517161771655" lon="13.085839720442891">
        <ele>734.57995600000004</ele>
        <time>2017-06-12T16:39:06Z</time>
      </trkpt>
      <trkpt lat="42.024483634158969" lon="13.08609277009964">
        <ele>734.57995600000004</ele>
        <time>2017-06-12T16:39:20Z</time>
      </trkpt>
      <trkpt lat="42.024426972493529" lon="13.086315980181098">
        <ele>735.54998799999998</ele>
        <time>2017-06-12T16:39:34Z</time>
      </trkpt>
      <trkpt lat="42.024340387433767" lon="13.086531814187765">
        <ele>736.51000999999997</ele>
        <time>2017-06-12T16:39:50Z</time>
      </trkpt>
      <trkpt lat="42.024258160963655" lon="13.086706409230828">
        <ele>736.51000999999997</ele>
        <time>2017-06-12T16:40:03Z</time>
      </trkpt>
      <trkpt lat="42.024204013869166" lon="13.086895169690251">
        <ele>736.51000999999997</ele>
        <time>2017-06-12T16:40:17Z</time>
      </trkpt>
      <trkpt lat="42.024203175678849" lon="13.086923668161035">
        <ele>736.51000999999997</ele>
        <time>2017-06-12T16:40:19Z</time>
      </trkpt>
      <trkpt lat="42.024159170687199" lon="13.087150398641825">
        <ele>736.51000999999997</ele>
        <time>2017-06-12T16:40:33Z</time>
      </trkpt>
      <trkpt lat="42.024149615317583" lon="13.087224662303925">
        <ele>736.99005099999999</ele>
        <time>2017-06-12T16:40:38Z</time>
      </trkpt>
      <trkpt lat="42.024200661107898" lon="13.087427923455834">
        <ele>737.46997099999999</ele>
        <time>2017-06-12T16:40:54Z</time>
      </trkpt>
      <trkpt lat="42.024166462942958" lon="13.087542671710253">
        <ele>736.51000999999997</ele>
        <time>2017-06-12T16:41:02Z</time>
      </trkpt>
      <trkpt lat="42.024070238694549" lon="13.087668064981699">
        <ele>736.03002900000001</ele>
        <time>2017-06-12T16:41:10Z</time>
      </trkpt>
      <trkpt lat="42.024006536230445" lon="13.087743502110243">
        <ele>736.03002900000001</ele>
        <time>2017-06-12T16:41:19Z</time>
      </trkpt>
      <trkpt lat="42.023978037759662" lon="13.087845258414745">
        <ele>735.54998799999998</ele>
        <time>2017-06-12T16:41:25Z</time>
      </trkpt>
      <trkpt lat="42.023986838757992" lon="13.088043741881847">
        <ele>735.07000700000003</ele>
        <time>2017-06-12T16:41:39Z</time>
      </trkpt>
      <trkpt lat="42.024030005559325" lon="13.088263096287847">
        <ele>734.57995600000004</ele>
        <time>2017-06-12T16:41:54Z</time>
      </trkpt>
      <trkpt lat="42.024091361090541" lon="13.08848069049418">
        <ele>734.10003700000004</ele>
        <time>2017-06-12T16:42:07Z</time>
      </trkpt>
      <trkpt lat="42.024110890924931" lon="13.088595941662788">
        <ele>733.61999500000002</ele>
        <time>2017-06-12T16:42:13Z</time>
      </trkpt>
      <trkpt lat="42.024146933108568" lon="13.088848907500505">
        <ele>733.61999500000002</ele>
        <time>2017-06-12T16:42:29Z</time>
      </trkpt>
      <trkpt lat="42.024186160415411" lon="13.089083936065435">
        <ele>733.14001499999995</ele>
        <time>2017-06-12T16:42:43Z</time>
      </trkpt>
      <trkpt lat="42.024210216477513" lon="13.089337237179279">
        <ele>734.57995600000004</ele>
        <time>2017-06-12T16:42:59Z</time>
      </trkpt>
      <trkpt lat="42.024217173457146" lon="13.089538738131523">
        <ele>735.07000700000003</ele>
        <time>2017-06-12T16:43:13Z</time>
      </trkpt>
      <trkpt lat="42.024211641401052" lon="13.089814921841025">
        <ele>735.07000700000003</ele>
        <time>2017-06-12T16:43:29Z</time>
      </trkpt>
      <trkpt lat="42.024192865937948" lon="13.090008376166224">
        <ele>735.54998799999998</ele>
        <time>2017-06-12T16:43:41Z</time>
      </trkpt>
      <trkpt lat="42.024158583953977" lon="13.090159837156534">
        <ele>735.54998799999998</ele>
        <time>2017-06-12T16:43:54Z</time>
      </trkpt>
      <trkpt lat="42.024078788235784" lon="13.090346837416291">
        <ele>735.54998799999998</ele>
        <time>2017-06-12T16:44:09Z</time>
      </trkpt>
      <trkpt lat="42.024026568979025" lon="13.090558899566531">
        <ele>735.54998799999998</ele>
        <time>2017-06-12T16:44:23Z</time>
      </trkpt>
      <trkpt lat="42.023973176255822" lon="13.090758975595236">
        <ele>734.10003700000004</ele>
        <time>2017-06-12T16:44:38Z</time>
      </trkpt>
      <trkpt lat="42.023889105767012" lon="13.090994590893388">
        <ele>734.10003700000004</ele>
        <time>2017-06-12T16:44:51Z</time>
      </trkpt>
      <trkpt lat="42.023829594254494" lon="13.091112859547138">
        <ele>734.10003700000004</ele>
        <time>2017-06-12T16:44:58Z</time>
      </trkpt>
      <trkpt lat="42.023808639496565" lon="13.091204138472676">
        <ele>733.14001499999995</ele>
        <time>2017-06-12T16:45:02Z</time>
      </trkpt>
      <trkpt lat="42.023753905668855" lon="13.091459618881345">
        <ele>731.22003199999995</ele>
        <time>2017-06-12T16:45:18Z</time>
      </trkpt>
      <trkpt lat="42.023746110498905" lon="13.091543270274997">
        <ele>731.70001200000002</ele>
        <time>2017-06-12T16:45:24Z</time>
      </trkpt>
      <trkpt lat="42.023716438561678" lon="13.091754829511046">
        <ele>730.73999000000003</ele>
        <time>2017-06-12T16:45:39Z</time>
      </trkpt>
      <trkpt lat="42.023669416084886" lon="13.092052638530731">
        <ele>730.26000999999997</ele>
        <time>2017-06-12T16:45:53Z</time>
      </trkpt>
      <trkpt lat="42.023621303960681" lon="13.092279536649585">
        <ele>729.77996800000005</ele>
        <time>2017-06-12T16:46:08Z</time>
      </trkpt>
      <trkpt lat="42.02359389513731" lon="13.092536861076951">
        <ele>729.29998799999998</ele>
        <time>2017-06-12T16:46:22Z</time>
      </trkpt>
      <trkpt lat="42.023560702800751" lon="13.092717491090298">
        <ele>729.77996800000005</ele>
        <time>2017-06-12T16:46:34Z</time>
      </trkpt>
      <trkpt lat="42.023508735001087" lon="13.092908514663577">
        <ele>729.29998799999998</ele>
        <time>2017-06-12T16:46:46Z</time>
      </trkpt>
      <trkpt lat="42.023425670340657" lon="13.093130635097623">
        <ele>728.82000700000003</ele>
        <time>2017-06-12T16:47:02Z</time>
      </trkpt>
      <trkpt lat="42.023334223777056" lon="13.09326583519578">
        <ele>728.339966</ele>
        <time>2017-06-12T16:47:13Z</time>
      </trkpt>
      <trkpt lat="42.023277226835489" lon="13.093328364193439">
        <ele>727.86004600000001</ele>
        <time>2017-06-12T16:47:17Z</time>
      </trkpt>
      <trkpt lat="42.023054100573063" lon="13.093444034457207">
        <ele>727.86004600000001</ele>
        <time>2017-06-12T16:47:33Z</time>
      </trkpt>
      <trkpt lat="42.022919235751033" lon="13.093539504334331">
        <ele>727.86004600000001</ele>
        <time>2017-06-12T16:47:43Z</time>
      </trkpt>
      <trkpt lat="42.022837428376079" lon="13.093611169606447">
        <ele>727.86004600000001</ele>
        <time>2017-06-12T16:47:53Z</time>
      </trkpt>
      <trkpt lat="42.022739108651876" lon="13.093799091875553">
        <ele>729.29998799999998</ele>
        <time>2017-06-12T16:48:08Z</time>
      </trkpt>
      <trkpt lat="42.022641208022833" lon="13.09398801997304">
        <ele>729.77996800000005</ele>
        <time>2017-06-12T16:48:22Z</time>
      </trkpt>
      <trkpt lat="42.022535009309649" lon="13.0941575858742">
        <ele>731.22003199999995</ele>
        <time>2017-06-12T16:48:37Z</time>
      </trkpt>
      <trkpt lat="42.022497793659568" lon="13.094202931970358">
        <ele>731.70001200000002</ele>
        <time>2017-06-12T16:48:42Z</time>
      </trkpt>
      <trkpt lat="42.022365862503648" lon="13.094343915581703">
        <ele>734.10003700000004</ele>
        <time>2017-06-12T16:48:58Z</time>
      </trkpt>
      <trkpt lat="42.022272739559412" lon="13.094527563080192">
        <ele>736.03002900000001</ele>
        <time>2017-06-12T16:49:15Z</time>
      </trkpt>
      <trkpt lat="42.02218322083354" lon="13.094632169231772">
        <ele>736.99005099999999</ele>
        <time>2017-06-12T16:49:28Z</time>
      </trkpt>
      <trkpt lat="42.02206838876009" lon="13.094751862809062">
        <ele>737.46997099999999</ele>
        <time>2017-06-12T16:49:41Z</time>
      </trkpt>
      <trkpt lat="42.021973840892315" lon="13.094870466738939">
        <ele>737.94995100000006</ele>
        <time>2017-06-12T16:49:54Z</time>
      </trkpt>
      <trkpt lat="42.021949701011181" lon="13.094912460073829">
        <ele>738.42999299999997</ele>
        <time>2017-06-12T16:49:57Z</time>
      </trkpt>
      <trkpt lat="42.021841825917363" lon="13.095013964921236">
        <ele>738.90997300000004</ele>
        <time>2017-06-12T16:50:10Z</time>
      </trkpt>
      <trkpt lat="42.02170436270535" lon="13.095094263553619">
        <ele>739.86999500000002</ele>
        <time>2017-06-12T16:50:21Z</time>
      </trkpt>
      <trkpt lat="42.021619202569127" lon="13.09509233571589">
        <ele>740.830017</ele>
        <time>2017-06-12T16:50:29Z</time>
      </trkpt>
      <trkpt lat="42.021470423787832" lon="13.095097783952951">
        <ele>741.79003899999998</ele>
        <time>2017-06-12T16:50:43Z</time>
      </trkpt>
      <trkpt lat="42.021459862589836" lon="13.09509820304811">
        <ele>741.79003899999998</ele>
        <time>2017-06-12T16:50:44Z</time>
      </trkpt>
      <trkpt lat="42.021348886191845" lon="13.09515830129385">
        <ele>743.23999000000003</ele>
        <time>2017-06-12T16:50:58Z</time>
      </trkpt>
      <trkpt lat="42.021235730499029" lon="13.095236336812377">
        <ele>745.64001499999995</ele>
        <time>2017-06-12T16:51:12Z</time>
      </trkpt>
      <trkpt lat="42.021123161539435" lon="13.095279587432742">
        <ele>747.07995600000004</ele>
        <time>2017-06-12T16:51:26Z</time>
      </trkpt>
      <trkpt lat="42.021074211224914" lon="13.095291741192341">
        <ele>748.51995799999997</ele>
        <time>2017-06-12T16:51:31Z</time>
      </trkpt>
      <trkpt lat="42.021017717197537" lon="13.095332058146596">
        <ele>749</ele>
        <time>2017-06-12T16:51:37Z</time>
      </trkpt>
      <trkpt lat="42.020963989198208" lon="13.095362316817045">
        <ele>750.44995100000006</ele>
        <time>2017-06-12T16:51:43Z</time>
      </trkpt>
      <trkpt lat="42.020876398310065" lon="13.09542995877564">
        <ele>752.36999500000002</ele>
        <time>2017-06-12T16:51:56Z</time>
      </trkpt>
      <trkpt lat="42.020755112171173" lon="13.095468934625387">
        <ele>755.25</ele>
        <time>2017-06-12T16:52:11Z</time>
      </trkpt>
      <trkpt lat="42.02071487903595" lon="13.095478741452098">
        <ele>755.73004200000003</ele>
        <time>2017-06-12T16:52:15Z</time>
      </trkpt>
      <trkpt lat="42.020550593733788" lon="13.095509922131896">
        <ele>758.14001499999995</ele>
        <time>2017-06-12T16:52:29Z</time>
      </trkpt>
      <trkpt lat="42.020404329523444" lon="13.095555184409022">
        <ele>759.57995600000004</ele>
        <time>2017-06-12T16:52:43Z</time>
      </trkpt>
      <trkpt lat="42.020268458873034" lon="13.09562592767179">
        <ele>761.01995799999997</ele>
        <time>2017-06-12T16:52:59Z</time>
      </trkpt>
      <trkpt lat="42.020234512165189" lon="13.095650738105178">
        <ele>761.5</ele>
        <time>2017-06-12T16:53:03Z</time>
      </trkpt>
      <trkpt lat="42.020195536315441" lon="13.095730617642403">
        <ele>762.46002199999998</ele>
        <time>2017-06-12T16:53:12Z</time>
      </trkpt>
      <trkpt lat="42.020104508846998" lon="13.095857016742229">
        <ele>763.419983</ele>
        <time>2017-06-12T16:53:25Z</time>
      </trkpt>
      <trkpt lat="42.020026473328471" lon="13.095919713377953">
        <ele>764.39001499999995</ele>
        <time>2017-06-12T16:53:34Z</time>
      </trkpt>
      <trkpt lat="42.019976684823632" lon="13.095960114151239">
        <ele>765.34997599999997</ele>
        <time>2017-06-12T16:53:39Z</time>
      </trkpt>
      <trkpt lat="42.019880963489413" lon="13.096083831042051">
        <ele>767.27002000000005</ele>
        <time>2017-06-12T16:53:53Z</time>
      </trkpt>
      <trkpt lat="42.019813824445009" lon="13.096200674772263">
        <ele>769.669983</ele>
        <time>2017-06-12T16:54:06Z</time>
      </trkpt>
      <trkpt lat="42.019728999584913" lon="13.096300670877099">
        <ele>770.63000499999998</ele>
        <time>2017-06-12T16:54:19Z</time>
      </trkpt>
      <trkpt lat="42.019627494737506" lon="13.096424303948879">
        <ele>772.55999799999995</ele>
        <time>2017-06-12T16:54:32Z</time>
      </trkpt>
      <trkpt lat="42.019555326551199" lon="13.096520779654384">
        <ele>773.03997800000002</ele>
        <time>2017-06-12T16:54:44Z</time>
      </trkpt>
      <trkpt lat="42.019495060667396" lon="13.096627313643694">
        <ele>773.03997800000002</ele>
        <time>2017-06-12T16:54:56Z</time>
      </trkpt>
      <trkpt lat="42.019424987956882" lon="13.096795789897442">
        <ele>773.03997800000002</ele>
        <time>2017-06-12T16:55:09Z</time>
      </trkpt>
      <trkpt lat="42.019392969086766" lon="13.096835436299443">
        <ele>773.51995799999997</ele>
        <time>2017-06-12T16:55:14Z</time>
      </trkpt>
      <trkpt lat="42.019319459795952" lon="13.096927804872394">
        <ele>774.47997999999995</ele>
        <time>2017-06-12T16:55:25Z</time>
      </trkpt>
      <trkpt lat="42.019233964383602" lon="13.097033081576228">
        <ele>774.96002199999998</ele>
        <time>2017-06-12T16:55:38Z</time>
      </trkpt>
      <trkpt lat="42.01913028024137" lon="13.097102819010615">
        <ele>776.40002400000003</ele>
        <time>2017-06-12T16:55:52Z</time>
      </trkpt>
      <trkpt lat="42.019039336591959" lon="13.097189236432314">
        <ele>776.88000499999998</ele>
        <time>2017-06-12T16:56:03Z</time>
      </trkpt>
      <trkpt lat="42.018943699076772" lon="13.097310438752174">
        <ele>778.31994599999996</ele>
        <time>2017-06-12T16:56:15Z</time>
      </trkpt>
      <trkpt lat="42.018862562254071" lon="13.097397107630968">
        <ele>779.77002000000005</ele>
        <time>2017-06-12T16:56:28Z</time>
      </trkpt>
      <trkpt lat="42.018764493986964" lon="13.097454439848661">
        <ele>780.73004200000003</ele>
        <time>2017-06-12T16:56:39Z</time>
      </trkpt>
      <trkpt lat="42.018663827329874" lon="13.097535911947489">
        <ele>782.169983</ele>
        <time>2017-06-12T16:56:50Z</time>
      </trkpt>
      <trkpt lat="42.018565339967608" lon="13.097609505057335">
        <ele>783.13000499999998</ele>
        <time>2017-06-12T16:57:02Z</time>
      </trkpt>
      <trkpt lat="42.018468696624041" lon="13.097703801468015">
        <ele>783.60998500000005</ele>
        <time>2017-06-12T16:57:15Z</time>
      </trkpt>
      <trkpt lat="42.018453273922205" lon="13.097720062360168">
        <ele>784.089966</ele>
        <time>2017-06-12T16:57:18Z</time>
      </trkpt>
      <trkpt lat="42.018408011645079" lon="13.097748225554824">
        <ele>784.57000700000003</ele>
        <time>2017-06-12T16:57:23Z</time>
      </trkpt>
      <trkpt lat="42.01832352206111" lon="13.097799941897392">
        <ele>785.04998799999998</ele>
        <time>2017-06-12T16:57:31Z</time>
      </trkpt>
      <trkpt lat="42.01818136498332" lon="13.097803965210915">
        <ele>786.97997999999995</ele>
        <time>2017-06-12T16:57:45Z</time>
      </trkpt>
      <trkpt lat="42.018168792128563" lon="13.097808491438627">
        <ele>786.97997999999995</ele>
        <time>2017-06-12T16:57:46Z</time>
      </trkpt>
      <trkpt lat="42.018071729689837" lon="13.097831960767508">
        <ele>787.94000200000005</ele>
        <time>2017-06-12T16:57:59Z</time>
      </trkpt>
      <trkpt lat="42.017981540411711" lon="13.097859285771847">
        <ele>789.38000499999998</ele>
        <time>2017-06-12T16:58:12Z</time>
      </trkpt>
      <trkpt lat="42.017862936481833" lon="13.097882838919759">
        <ele>790.81994599999996</ele>
        <time>2017-06-12T16:58:26Z</time>
      </trkpt>
      <trkpt lat="42.017772495746613" lon="13.097918713465333">
        <ele>792.26000999999997</ele>
        <time>2017-06-12T16:58:37Z</time>
      </trkpt>
      <trkpt lat="42.017729915678501" lon="13.097942266613245">
        <ele>792.73999000000003</ele>
        <time>2017-06-12T16:58:42Z</time>
      </trkpt>
      <trkpt lat="42.017611060291529" lon="13.097976800054312">
        <ele>794.19006300000001</ele>
        <time>2017-06-12T16:58:55Z</time>
      </trkpt>
      <trkpt lat="42.01755540445447" lon="13.097989540547132">
        <ele>795.14996299999996</ele>
        <time>2017-06-12T16:59:00Z</time>
      </trkpt>
      <trkpt lat="42.017440823838115" lon="13.097997670993209">
        <ele>796.589966</ele>
        <time>2017-06-12T16:59:13Z</time>
      </trkpt>
      <trkpt lat="42.017424060031772" lon="13.098043687641621">
        <ele>796.589966</ele>
        <time>2017-06-12T16:59:18Z</time>
      </trkpt>
      <trkpt lat="42.017362117767334" lon="13.09812868013978">
        <ele>797.54998799999998</ele>
        <time>2017-06-12T16:59:30Z</time>
      </trkpt>
      <trkpt lat="42.017285758629441" lon="13.098215935751796">
        <ele>799.47003199999995</ele>
        <time>2017-06-12T16:59:42Z</time>
      </trkpt>
      <trkpt lat="42.017236975952983" lon="13.098261784762144">
        <ele>800.44000200000005</ele>
        <time>2017-06-12T16:59:49Z</time>
      </trkpt>
      <trkpt lat="42.017178134992719" lon="13.098336635157466">
        <ele>801.88000499999998</ele>
        <time>2017-06-12T16:59:58Z</time>
      </trkpt>
      <trkpt lat="42.017093058675528" lon="13.09843746945262">
        <ele>803.79998799999998</ele>
        <time>2017-06-12T17:00:11Z</time>
      </trkpt>
      <trkpt lat="42.017047964036465" lon="13.098526066169143">
        <ele>805.23999000000003</ele>
        <time>2017-06-12T17:00:21Z</time>
      </trkpt>
      <trkpt lat="42.017000187188387" lon="13.098541740328074">
        <ele>805.71997099999999</ele>
        <time>2017-06-12T17:00:27Z</time>
      </trkpt>
      <trkpt lat="42.016969174146652" lon="13.098548362031579">
        <ele>805.71997099999999</ele>
        <time>2017-06-12T17:00:31Z</time>
      </trkpt>
      <trkpt lat="42.01683908700943" lon="13.098584236577153">
        <ele>806.67999299999997</ele>
        <time>2017-06-12T17:00:43Z</time>
      </trkpt>
      <trkpt lat="42.016710760071874" lon="13.098589684814215">
        <ele>807.160034</ele>
        <time>2017-06-12T17:00:55Z</time>
      </trkpt>
      <trkpt lat="42.016635071486235" lon="13.098596809431911">
        <ele>807.160034</ele>
        <time>2017-06-12T17:01:03Z</time>
      </trkpt>
      <trkpt lat="42.016580337658525" lon="13.098617093637586">
        <ele>808.13000499999998</ele>
        <time>2017-06-12T17:01:09Z</time>
      </trkpt>
      <trkpt lat="42.016472211107612" lon="13.098589265719056">
        <ele>809.57000700000003</ele>
        <time>2017-06-12T17:01:22Z</time>
      </trkpt>
      <trkpt lat="42.016319995746017" lon="13.098567640408874">
        <ele>810.53002900000001</ele>
        <time>2017-06-12T17:01:35Z</time>
      </trkpt>
      <trkpt lat="42.016253108158708" lon="13.098562778905034">
        <ele>811.01000999999997</ele>
        <time>2017-06-12T17:01:40Z</time>
      </trkpt>
      <trkpt lat="42.016126792877913" lon="13.098539477214217">
        <ele>812.93005400000004</ele>
        <time>2017-06-12T17:01:54Z</time>
      </trkpt>
      <trkpt lat="42.016025371849537" lon="13.09848633594811">
        <ele>814.84997599999997</ele>
        <time>2017-06-12T17:02:07Z</time>
      </trkpt>
      <trkpt lat="42.01591364108026" lon="13.098401511088014">
        <ele>816.29998799999998</ele>
        <time>2017-06-12T17:02:21Z</time>
      </trkpt>
      <trkpt lat="42.01590190641582" lon="13.0983866751194">
        <ele>816.77996800000005</ele>
        <time>2017-06-12T17:02:23Z</time>
      </trkpt>
      <trkpt lat="42.015811298042536" lon="13.098274692893028">
        <ele>818.21997099999999</ele>
        <time>2017-06-12T17:02:36Z</time>
      </trkpt>
      <trkpt lat="42.015767963603139" lon="13.098196741193533">
        <ele>818.70001200000002</ele>
        <time>2017-06-12T17:02:48Z</time>
      </trkpt>
      <trkpt lat="42.015700237825513" lon="13.098188107833266">
        <ele>818.70001200000002</ele>
        <time>2017-06-12T17:03:06Z</time>
      </trkpt>
      <trkpt lat="42.015604265034199" lon="13.098259773105383">
        <ele>818.70001200000002</ele>
        <time>2017-06-12T17:03:19Z</time>
      </trkpt>
      <trkpt lat="42.015547687187791" lon="13.098285337910056">
        <ele>817.73999000000003</ele>
        <time>2017-06-12T17:03:24Z</time>
      </trkpt>
      <trkpt lat="42.015493204817176" lon="13.098323894664645">
        <ele>817.73999000000003</ele>
        <time>2017-06-12T17:03:31Z</time>
      </trkpt>
      <trkpt lat="42.015460515394807" lon="13.098356919363141">
        <ele>817.73999000000003</ele>
        <time>2017-06-12T17:03:35Z</time>
      </trkpt>
      <trkpt lat="42.015369068831205" lon="13.098454065620899">
        <ele>816.77996800000005</ele>
        <time>2017-06-12T17:03:47Z</time>
      </trkpt>
      <trkpt lat="42.015283573418856" lon="13.098534783348441">
        <ele>815.81994599999996</ele>
        <time>2017-06-12T17:03:57Z</time>
      </trkpt>
      <trkpt lat="42.015202436596155" lon="13.098666295409203">
        <ele>814.36999500000002</ele>
        <time>2017-06-12T17:04:11Z</time>
      </trkpt>
      <trkpt lat="42.015173770487309" lon="13.098782887682319">
        <ele>813.40997300000004</ele>
        <time>2017-06-12T17:04:20Z</time>
      </trkpt>
      <trkpt lat="42.015165807679296" lon="13.098888834938407">
        <ele>811.97003199999995</ele>
        <time>2017-06-12T17:04:28Z</time>
      </trkpt>
      <trkpt lat="42.015141500160098" lon="13.099067788571119">
        <ele>810.53002900000001</ele>
        <time>2017-06-12T17:04:41Z</time>
      </trkpt>
      <trkpt lat="42.015083162114024" lon="13.099316563457251">
        <ele>808.60998500000005</ele>
        <time>2017-06-12T17:04:57Z</time>
      </trkpt>
      <trkpt lat="42.015070673078299" lon="13.099453439936042">
        <ele>808.13000499999998</ele>
        <time>2017-06-12T17:05:09Z</time>
      </trkpt>
      <trkpt lat="42.015054160729051" lon="13.099619569256902">
        <ele>807.160034</ele>
        <time>2017-06-12T17:05:21Z</time>
      </trkpt>
      <trkpt lat="42.015048125758767" lon="13.099692240357399">
        <ele>806.67999299999997</ele>
        <time>2017-06-12T17:05:25Z</time>
      </trkpt>
      <trkpt lat="42.015020381659269" lon="13.099949061870575">
        <ele>805.23999000000003</ele>
        <time>2017-06-12T17:05:40Z</time>
      </trkpt>
      <trkpt lat="42.015020130202174" lon="13.099966160953045">
        <ele>805.23999000000003</ele>
        <time>2017-06-12T17:05:41Z</time>
      </trkpt>
      <trkpt lat="42.014982663094997" lon="13.10016087256372">
        <ele>803.79998799999998</ele>
        <time>2017-06-12T17:05:56Z</time>
      </trkpt>
      <trkpt lat="42.014913763850927" lon="13.100310321897268">
        <ele>802.36004600000001</ele>
        <time>2017-06-12T17:06:10Z</time>
      </trkpt>
      <trkpt lat="42.014990290626884" lon="13.100361116230488">
        <ele>801.88000499999998</ele>
        <time>2017-06-12T17:06:22Z</time>
      </trkpt>
      <trkpt lat="42.015015771612525" lon="13.100389195606112">
        <ele>801.40002400000003</ele>
        <time>2017-06-12T17:06:26Z</time>
      </trkpt>
      <trkpt lat="42.0150844193995" lon="13.10051953420043">
        <ele>802.84002699999996</ele>
        <time>2017-06-12T17:06:37Z</time>
      </trkpt>
      <trkpt lat="42.01512549072504" lon="13.100650375708938">
        <ele>805.71997099999999</ele>
        <time>2017-06-12T17:06:49Z</time>
      </trkpt>
      <trkpt lat="42.015125574544072" lon="13.10066663660109">
        <ele>805.71997099999999</ele>
        <time>2017-06-12T17:06:59Z</time>
      </trkpt>
      <trkpt lat="42.015260439366102" lon="13.100702259689569">
        <ele>805.71997099999999</ele>
        <time>2017-06-12T17:07:12Z</time>
      </trkpt>
      <trkpt lat="42.015305198729038" lon="13.100722292438149">
        <ele>805.71997099999999</ele>
        <time>2017-06-12T17:07:16Z</time>
      </trkpt>
      <trkpt lat="42.015474513173103" lon="13.100696140900254">
        <ele>805.23999000000003</ele>
        <time>2017-06-12T17:07:31Z</time>
      </trkpt>
      <trkpt lat="42.015603762120008" lon="13.100702930241823">
        <ele>806.20001200000002</ele>
        <time>2017-06-12T17:07:42Z</time>
      </trkpt>
      <trkpt lat="42.015639888122678" lon="13.100714329630136">
        <ele>806.67999299999997</ele>
        <time>2017-06-12T17:07:46Z</time>
      </trkpt>
      <trkpt lat="42.015715911984444" lon="13.100797226652503">
        <ele>806.67999299999997</ele>
        <time>2017-06-12T17:07:58Z</time>
      </trkpt>
      <trkpt lat="42.015780368819833" lon="13.100918177515268">
        <ele>806.67999299999997</ele>
        <time>2017-06-12T17:08:08Z</time>
      </trkpt>
      <trkpt lat="42.015894195064902" lon="13.101164940744638">
        <ele>806.67999299999997</ele>
        <time>2017-06-12T17:08:26Z</time>
      </trkpt>
      <trkpt lat="42.015927471220493" lon="13.101244736462831">
        <ele>806.67999299999997</ele>
        <time>2017-06-12T17:08:32Z</time>
      </trkpt>
      <trkpt lat="42.016029981896281" lon="13.101408435031772">
        <ele>806.67999299999997</ele>
        <time>2017-06-12T17:08:46Z</time>
      </trkpt>
      <trkpt lat="42.016079435124993" lon="13.101592333987355">
        <ele>806.67999299999997</ele>
        <time>2017-06-12T17:08:58Z</time>
      </trkpt>
      <trkpt lat="42.016074070706964" lon="13.101812861859798">
        <ele>806.67999299999997</ele>
        <time>2017-06-12T17:09:14Z</time>
      </trkpt>
      <trkpt lat="42.016071304678917" lon="13.101826105266809">
        <ele>806.67999299999997</ele>
        <time>2017-06-12T17:09:15Z</time>
      </trkpt>
      <trkpt lat="42.016058815643191" lon="13.101864410564303">
        <ele>806.67999299999997</ele>
        <time>2017-06-12T17:09:18Z</time>
      </trkpt>
      <trkpt lat="42.015993520617485" lon="13.102054763585329">
        <ele>806.67999299999997</ele>
        <time>2017-06-12T17:09:31Z</time>
      </trkpt>
      <trkpt lat="42.015968291088939" lon="13.102085441350937">
        <ele>806.67999299999997</ele>
        <time>2017-06-12T17:09:34Z</time>
      </trkpt>
      <trkpt lat="42.015895368531346" lon="13.102127267047763">
        <ele>807.160034</ele>
        <time>2017-06-12T17:09:45Z</time>
      </trkpt>
      <trkpt lat="42.015997208654881" lon="13.102012937888503">
        <ele>807.160034</ele>
        <time>2017-06-12T17:09:54Z</time>
      </trkpt>
      <trkpt lat="42.016104161739349" lon="13.101814286783338">
        <ele>805.71997099999999</ele>
        <time>2017-06-12T17:10:08Z</time>
      </trkpt>
      <trkpt lat="42.016296191141009" lon="13.101617731153965">
        <ele>802.84002699999996</ele>
        <time>2017-06-12T17:10:23Z</time>
      </trkpt>
      <trkpt lat="42.01631085947156" lon="13.101607421413064">
        <ele>802.84002699999996</ele>
        <time>2017-06-12T17:10:24Z</time>
      </trkpt>
      <trkpt lat="42.016434241086245" lon="13.101458810269833">
        <ele>800.44000200000005</ele>
        <time>2017-06-12T17:10:39Z</time>
      </trkpt>
      <trkpt lat="42.016624258831143" lon="13.101361664012074">
        <ele>798.51000999999997</ele>
        <time>2017-06-12T17:10:54Z</time>
      </trkpt>
      <trkpt lat="42.016622666269541" lon="13.101359317079186">
        <ele>798.51000999999997</ele>
        <time>2017-06-12T17:10:55Z</time>
      </trkpt>
      <trkpt lat="42.016777563840151" lon="13.101288406178355">
        <ele>796.10998500000005</ele>
        <time>2017-06-12T17:11:10Z</time>
      </trkpt>
      <trkpt lat="42.016970934346318" lon="13.101238869130611">
        <ele>793.70996100000002</ele>
        <time>2017-06-12T17:11:24Z</time>
      </trkpt>
      <trkpt lat="42.01699691824615" lon="13.101229229941964">
        <ele>793.21997099999999</ele>
        <time>2017-06-12T17:11:26Z</time>
      </trkpt>
      <trkpt lat="42.017131363973022" lon="13.101164270192385">
        <ele>791.29998799999998</ele>
        <time>2017-06-12T17:11:39Z</time>
      </trkpt>
      <trkpt lat="42.017348790541291" lon="13.101131413131952">
        <ele>788.90002400000003</ele>
        <time>2017-06-12T17:11:54Z</time>
      </trkpt>
      <trkpt lat="42.017493126913905" lon="13.101087491959333">
        <ele>787.46002199999998</ele>
        <time>2017-06-12T17:12:06Z</time>
      </trkpt>
      <trkpt lat="42.017715163528919" lon="13.101031081750989">
        <ele>785.04998799999998</ele>
        <time>2017-06-12T17:12:21Z</time>
      </trkpt>
      <trkpt lat="42.017912724986672" lon="13.100968133658171">
        <ele>783.13000499999998</ele>
        <time>2017-06-12T17:12:37Z</time>
      </trkpt>
      <trkpt lat="42.018117159605026" lon="13.100924966856837">
        <ele>781.69006300000001</ele>
        <time>2017-06-12T17:12:53Z</time>
      </trkpt>
      <trkpt lat="42.018304327502847" lon="13.100894037634134">
        <ele>780.25</ele>
        <time>2017-06-12T17:13:07Z</time>
      </trkpt>
      <trkpt lat="42.01851362362504" lon="13.100855480879545">
        <ele>778.31994599999996</ele>
        <time>2017-06-12T17:13:23Z</time>
      </trkpt>
      <trkpt lat="42.018697103485465" lon="13.100754898041487">
        <ele>775.919983</ele>
        <time>2017-06-12T17:13:40Z</time>
      </trkpt>
      <trkpt lat="42.018929366022348" lon="13.100695973262191">
        <ele>773.51995799999997</ele>
        <time>2017-06-12T17:13:56Z</time>
      </trkpt>
      <trkpt lat="42.019091472029686" lon="13.100722627714276">
        <ele>772.07995600000004</ele>
        <time>2017-06-12T17:14:09Z</time>
      </trkpt>
      <trkpt lat="42.019227426499128" lon="13.100721538066864">
        <ele>770.63000499999998</ele>
        <time>2017-06-12T17:14:21Z</time>
      </trkpt>
      <trkpt lat="42.019398165866733" lon="13.100758586078882">
        <ele>769.19006300000001</ele>
        <time>2017-06-12T17:14:36Z</time>
      </trkpt>
      <trkpt lat="42.019557170569897" lon="13.100820109248161">
        <ele>767.75</ele>
        <time>2017-06-12T17:14:50Z</time>
      </trkpt>
      <trkpt lat="42.019729670137167" lon="13.100810637697577">
        <ele>766.30999799999995</ele>
        <time>2017-06-12T17:15:05Z</time>
      </trkpt>
      <trkpt lat="42.019897811114788" lon="13.100784989073873">
        <ele>765.830017</ele>
        <time>2017-06-12T17:15:19Z</time>
      </trkpt>
      <trkpt lat="42.019924465566874" lon="13.100778283551335">
        <ele>765.34997599999997</ele>
        <time>2017-06-12T17:15:22Z</time>
      </trkpt>
      <trkpt lat="42.019952293485403" lon="13.100772500038147">
        <ele>764.39001499999995</ele>
        <time>2017-06-12T17:15:24Z</time>
      </trkpt>
      <trkpt lat="42.020148262381554" lon="13.100757664069533">
        <ele>763.419983</ele>
        <time>2017-06-12T17:15:40Z</time>
      </trkpt>
      <trkpt lat="42.020384799689054" lon="13.100767219439149">
        <ele>762.94000200000005</ele>
        <time>2017-06-12T17:15:58Z</time>
      </trkpt>
      <trkpt lat="42.020394103601575" lon="13.100867634639144">
        <ele>762.46002199999998</ele>
        <time>2017-06-12T17:16:04Z</time>
      </trkpt>
      <trkpt lat="42.020381614565849" lon="13.10092655941844">
        <ele>762.46002199999998</ele>
        <time>2017-06-12T17:16:09Z</time>
      </trkpt>
      <trkpt lat="42.020368119701743" lon="13.100997805595398">
        <ele>762.46002199999998</ele>
        <time>2017-06-12T17:16:16Z</time>
      </trkpt>
      <trkpt lat="42.020278433337808" lon="13.101132670417428">
        <ele>763.419983</ele>
        <time>2017-06-12T17:16:25Z</time>
      </trkpt>
      <trkpt lat="42.020125882700086" lon="13.101286813616753">
        <ele>763.90002400000003</ele>
        <time>2017-06-12T17:16:41Z</time>
      </trkpt>
      <trkpt lat="42.020037369802594" lon="13.101370213553309">
        <ele>764.39001499999995</ele>
        <time>2017-06-12T17:16:53Z</time>
      </trkpt>
      <trkpt lat="42.020023372024298" lon="13.101373314857483">
        <ele>764.39001499999995</ele>
        <time>2017-06-12T17:16:56Z</time>
      </trkpt>
      <trkpt lat="42.020030664280057" lon="13.10149242170155">
        <ele>764.39001499999995</ele>
        <time>2017-06-12T17:17:06Z</time>
      </trkpt>
      <trkpt lat="42.020117584615946" lon="13.10155251994729">
        <ele>761.01995799999997</ele>
        <time>2017-06-12T17:17:20Z</time>
      </trkpt>
      <trkpt lat="42.020248509943485" lon="13.10166047886014">
        <ele>759.57995600000004</ele>
        <time>2017-06-12T17:17:37Z</time>
      </trkpt>
      <trkpt lat="42.020382536575198" lon="13.101751422509551">
        <ele>758.61993399999994</ele>
        <time>2017-06-12T17:17:52Z</time>
      </trkpt>
      <trkpt lat="42.020552940666676" lon="13.101629298180342">
        <ele>757.660034</ele>
        <time>2017-06-12T17:18:06Z</time>
      </trkpt>
      <trkpt lat="42.020581858232617" lon="13.101566433906555">
        <ele>757.660034</ele>
        <time>2017-06-12T17:18:10Z</time>
      </trkpt>
      <trkpt lat="42.020604070276022" lon="13.101555537432432">
        <ele>757.660034</ele>
        <time>2017-06-12T17:18:23Z</time>
      </trkpt>
      <trkpt lat="42.020593592897058" lon="13.101623514667153">
        <ele>757.660034</ele>
        <time>2017-06-12T17:18:46Z</time>
      </trkpt>
      <trkpt lat="42.020559310913086" lon="13.101608008146286">
        <ele>757.17999299999997</ele>
        <time>2017-06-12T17:19:12Z</time>
      </trkpt>
      <trkpt lat="42.020540703088045" lon="13.10160331428051">
        <ele>757.17999299999997</ele>
        <time>2017-06-12T17:19:36Z</time>
      </trkpt>
      <trkpt lat="42.02056392095983" lon="13.101592836901546">
        <ele>757.17999299999997</ele>
        <time>2017-06-12T17:19:58Z</time>
      </trkpt>
      <trkpt lat="42.020586719736457" lon="13.101650085300207">
        <ele>757.17999299999997</ele>
        <time>2017-06-12T17:20:21Z</time>
      </trkpt>
      <trkpt lat="42.020564340054989" lon="13.101570624858141">
        <ele>757.17999299999997</ele>
        <time>2017-06-12T17:20:50Z</time>
      </trkpt>
      <trkpt lat="42.020583366975188" lon="13.101618904620409">
        <ele>757.17999299999997</ele>
        <time>2017-06-12T17:21:15Z</time>
      </trkpt>
      <trkpt lat="42.020578170195222" lon="13.101564673706889">
        <ele>758.61993399999994</ele>
        <time>2017-06-12T17:21:30Z</time>
      </trkpt>
      <trkpt lat="42.020525615662336" lon="13.101570876315236">
        <ele>758.61993399999994</ele>
        <time>2017-06-12T17:21:43Z</time>
      </trkpt>
      <trkpt lat="42.020570961758494" lon="13.101862315088511">
        <ele>777.84002699999996</ele>
        <time>2017-06-13T06:34:25Z</time>
      </trkpt>
      <trkpt lat="42.020575739443302" lon="13.101861476898193">
        <ele>777.84002699999996</ele>
        <time>2017-06-13T06:34:26Z</time>
      </trkpt>
      <trkpt lat="42.020447412505746" lon="13.101907996460795">
        <ele>777.84002699999996</ele>
        <time>2017-06-13T06:34:43Z</time>
      </trkpt>
      <trkpt lat="42.020434839650989" lon="13.101896597072482">
        <ele>777.84002699999996</ele>
        <time>2017-06-13T06:34:44Z</time>
      </trkpt>
      <trkpt lat="42.020322103053331" lon="13.101833565160632">
        <ele>779.77002000000005</ele>
        <time>2017-06-13T06:34:54Z</time>
      </trkpt>
      <trkpt lat="42.02027072198689" lon="13.101811604574323">
        <ele>780.73004200000003</ele>
        <time>2017-06-13T06:34:59Z</time>
      </trkpt>
      <trkpt lat="42.020206935703754" lon="13.101779837161303">
        <ele>781.20996100000002</ele>
        <time>2017-06-13T06:35:04Z</time>
      </trkpt>
      <trkpt lat="42.020116159692407" lon="13.101719990372658">
        <ele>782.169983</ele>
        <time>2017-06-13T06:35:09Z</time>
      </trkpt>
      <trkpt lat="42.020056564360857" lon="13.101682523265481">
        <ele>783.60998500000005</ele>
        <time>2017-06-13T06:35:15Z</time>
      </trkpt>
      <trkpt lat="42.019946090877056" lon="13.101622341200709">
        <ele>783.60998500000005</ele>
        <time>2017-06-13T06:35:26Z</time>
      </trkpt>
      <trkpt lat="42.019875096157193" lon="13.10164581052959">
        <ele>784.089966</ele>
        <time>2017-06-13T06:35:35Z</time>
      </trkpt>
      <trkpt lat="42.019682563841343" lon="13.101731641218066">
        <ele>785.04998799999998</ele>
        <time>2017-06-13T06:35:51Z</time>
      </trkpt>
      <trkpt lat="42.019473435357213" lon="13.101781094446778">
        <ele>785.04998799999998</ele>
        <time>2017-06-13T06:36:07Z</time>
      </trkpt>
      <trkpt lat="42.019342174753547" lon="13.101811101660132">
        <ele>785.53002900000001</ele>
        <time>2017-06-13T06:36:18Z</time>
      </trkpt>
      <trkpt lat="42.019242765381932" lon="13.101788721978664">
        <ele>786.01995799999997</ele>
        <time>2017-06-13T06:36:27Z</time>
      </trkpt>
      <trkpt lat="42.019005306065083" lon="13.101851334795356">
        <ele>786.97997999999995</ele>
        <time>2017-06-13T06:36:44Z</time>
      </trkpt>
      <trkpt lat="42.018823837861419" lon="13.10191310942173">
        <ele>787.46002199999998</ele>
        <time>2017-06-13T06:36:59Z</time>
      </trkpt>
      <trkpt lat="42.018669359385967" lon="13.10203623957932">
        <ele>787.94000200000005</ele>
        <time>2017-06-13T06:37:14Z</time>
      </trkpt>
      <trkpt lat="42.018539858981967" lon="13.102181162685156">
        <ele>788.419983</ele>
        <time>2017-06-13T06:37:28Z</time>
      </trkpt>
      <trkpt lat="42.018409101292491" lon="13.102371096611023">
        <ele>789.38000499999998</ele>
        <time>2017-06-13T06:37:44Z</time>
      </trkpt>
      <trkpt lat="42.018309440463781" lon="13.102555833756924">
        <ele>790.34002699999996</ele>
        <time>2017-06-13T06:37:58Z</time>
      </trkpt>
      <trkpt lat="42.018172312527895" lon="13.102787928655744">
        <ele>790.81994599999996</ele>
        <time>2017-06-13T06:38:16Z</time>
      </trkpt>
      <trkpt lat="42.018042979761958" lon="13.102953638881445">
        <ele>792.26000999999997</ele>
        <time>2017-06-13T06:38:31Z</time>
      </trkpt>
      <trkpt lat="42.0180269703269" lon="13.102974761277437">
        <ele>792.26000999999997</ele>
        <time>2017-06-13T06:38:33Z</time>
      </trkpt>
      <trkpt lat="42.017979864031076" lon="13.103020777925849">
        <ele>791.77996800000005</ele>
        <time>2017-06-13T06:38:37Z</time>
      </trkpt>
      <trkpt lat="42.017955472692847" lon="13.103038715198636">
        <ele>791.77996800000005</ele>
        <time>2017-06-13T06:38:39Z</time>
      </trkpt>
      <trkpt lat="42.01781733892858" lon="13.103134771808982">
        <ele>792.73999000000003</ele>
        <time>2017-06-13T06:38:52Z</time>
      </trkpt>
      <trkpt lat="42.017612736672163" lon="13.103260667994618">
        <ele>793.70996100000002</ele>
        <time>2017-06-13T06:39:08Z</time>
      </trkpt>
      <trkpt lat="42.017408804967999" lon="13.103345660492778">
        <ele>794.669983</ele>
        <time>2017-06-13T06:39:24Z</time>
      </trkpt>
      <trkpt lat="42.017283663153648" lon="13.103460995480418">
        <ele>794.669983</ele>
        <time>2017-06-13T06:39:36Z</time>
      </trkpt>
      <trkpt lat="42.017094902694225" lon="13.103631902486086">
        <ele>795.63000499999998</ele>
        <time>2017-06-13T06:39:52Z</time>
      </trkpt>
      <trkpt lat="42.016901364549994" lon="13.103811861947179">
        <ele>796.10998500000005</ele>
        <time>2017-06-13T06:40:09Z</time>
      </trkpt>
      <trkpt lat="42.016777899116278" lon="13.103951923549175">
        <ele>797.54998799999998</ele>
        <time>2017-06-13T06:40:24Z</time>
      </trkpt>
      <trkpt lat="42.016626438125968" lon="13.10416423715651">
        <ele>798.51000999999997</ele>
        <time>2017-06-13T06:40:41Z</time>
      </trkpt>
      <trkpt lat="42.016559382900596" lon="13.10443296097219">
        <ele>798.98999000000003</ele>
        <time>2017-06-13T06:40:58Z</time>
      </trkpt>
      <trkpt lat="42.016586707904935" lon="13.104737894609571">
        <ele>800.44000200000005</ele>
        <time>2017-06-13T06:41:16Z</time>
      </trkpt>
      <trkpt lat="42.016680166125298" lon="13.104999829083681">
        <ele>800.919983</ele>
        <time>2017-06-13T06:41:34Z</time>
      </trkpt>
      <trkpt lat="42.016783263534307" lon="13.105219602584839">
        <ele>801.40002400000003</ele>
        <time>2017-06-13T06:41:50Z</time>
      </trkpt>
      <trkpt lat="42.016836740076542" lon="13.105338122695684">
        <ele>801.88000499999998</ele>
        <time>2017-06-13T06:41:59Z</time>
      </trkpt>
      <trkpt lat="42.016884097829461" lon="13.105443064123392">
        <ele>802.36004600000001</ele>
        <time>2017-06-13T06:42:05Z</time>
      </trkpt>
      <trkpt lat="42.017037989571691" lon="13.105757301673293">
        <ele>802.84002699999996</ele>
        <time>2017-06-13T06:42:27Z</time>
      </trkpt>
      <trkpt lat="42.017159359529614" lon="13.10606935992837">
        <ele>803.79998799999998</ele>
        <time>2017-06-13T06:42:46Z</time>
      </trkpt>
      <trkpt lat="42.017197581008077" lon="13.106298437342048">
        <ele>804.27996800000005</ele>
        <time>2017-06-13T06:43:01Z</time>
      </trkpt>
      <trkpt lat="42.017211662605405" lon="13.106641173362732">
        <ele>805.23999000000003</ele>
        <time>2017-06-13T06:43:18Z</time>
      </trkpt>
      <trkpt lat="42.017221720889211" lon="13.106977539137006">
        <ele>805.71997099999999</ele>
        <time>2017-06-13T06:43:38Z</time>
      </trkpt>
      <trkpt lat="42.017202107235789" lon="13.10728020966053">
        <ele>807.160034</ele>
        <time>2017-06-13T06:43:57Z</time>
      </trkpt>
      <trkpt lat="42.01724661514163" lon="13.107572235167027">
        <ele>807.64001499999995</ele>
        <time>2017-06-13T06:44:13Z</time>
      </trkpt>
      <trkpt lat="42.017299337312579" lon="13.107647337019444">
        <ele>808.13000499999998</ele>
        <time>2017-06-13T06:44:22Z</time>
      </trkpt>
      <trkpt lat="42.017554230988026" lon="13.107713386416435">
        <ele>809.089966</ele>
        <time>2017-06-13T06:44:42Z</time>
      </trkpt>
      <trkpt lat="42.01768247410655" lon="13.107711207121611">
        <ele>809.089966</ele>
        <time>2017-06-13T06:44:57Z</time>
      </trkpt>
      <trkpt lat="42.01793510466814" lon="13.107757810503244">
        <ele>809.57000700000003</ele>
        <time>2017-06-13T06:45:14Z</time>
      </trkpt>
      <trkpt lat="42.01800886541605" lon="13.10783676803112">
        <ele>810.04998799999998</ele>
        <time>2017-06-13T06:45:25Z</time>
      </trkpt>
      <trkpt lat="42.018066868185997" lon="13.107896195724607">
        <ele>810.53002900000001</ele>
        <time>2017-06-13T06:45:30Z</time>
      </trkpt>
      <trkpt lat="42.018111040815711" lon="13.107970375567675">
        <ele>811.01000999999997</ele>
        <time>2017-06-13T06:45:37Z</time>
      </trkpt>
      <trkpt lat="42.018147669732571" lon="13.1080087646842">
        <ele>811.01000999999997</ele>
        <time>2017-06-13T06:45:49Z</time>
      </trkpt>
      <trkpt lat="42.018193937838078" lon="13.108039358630776">
        <ele>811.01000999999997</ele>
        <time>2017-06-13T06:46:14Z</time>
      </trkpt>
      <trkpt lat="42.018159991130233" lon="13.108010860159993">
        <ele>810.53002900000001</ele>
        <time>2017-06-13T06:46:23Z</time>
      </trkpt>
      <trkpt lat="42.018133671954274" lon="13.108007004484534">
        <ele>810.53002900000001</ele>
        <time>2017-06-13T06:46:26Z</time>
      </trkpt>
      <trkpt lat="42.017745170742273" lon="13.10804245993495">
        <ele>810.53002900000001</ele>
        <time>2017-06-13T06:46:46Z</time>
      </trkpt>
      <trkpt lat="42.017287435010076" lon="13.107854370027781">
        <ele>810.53002900000001</ele>
        <time>2017-06-13T06:47:10Z</time>
      </trkpt>
      <trkpt lat="42.018228136003017" lon="13.108140360563993">
        <ele>810.53002900000001</ele>
        <time>2017-06-13T06:47:29Z</time>
      </trkpt>
      <trkpt lat="42.01822922565043" lon="13.108077496290207">
        <ele>810.53002900000001</ele>
        <time>2017-06-13T06:47:49Z</time>
      </trkpt>
      <trkpt lat="42.018227381631732" lon="13.10803072527051">
        <ele>810.53002900000001</ele>
        <time>2017-06-13T06:48:11Z</time>
      </trkpt>
      <trkpt lat="42.018243139609694" lon="13.1080277916044">
        <ele>810.53002900000001</ele>
        <time>2017-06-13T06:48:41Z</time>
      </trkpt>
      <trkpt lat="42.018228303641081" lon="13.108004238456488">
        <ele>810.53002900000001</ele>
        <time>2017-06-13T06:49:12Z</time>
      </trkpt>
      <trkpt lat="42.018208941444755" lon="13.108035922050476">
        <ele>810.53002900000001</ele>
        <time>2017-06-13T06:49:39Z</time>
      </trkpt>
      <trkpt lat="42.018188321962953" lon="13.108030138537288">
        <ele>811.01000999999997</ele>
        <time>2017-06-13T06:49:55Z</time>
      </trkpt>
      <trkpt lat="42.018205923959613" lon="13.108009770512581">
        <ele>811.01000999999997</ele>
        <time>2017-06-13T06:50:06Z</time>
      </trkpt>
      <trkpt lat="42.018203912302852" lon="13.108003567904234">
        <ele>811.01000999999997</ele>
        <time>2017-06-13T06:50:26Z</time>
      </trkpt>
      <trkpt lat="42.018190501257777" lon="13.10798822902143">
        <ele>811.01000999999997</ele>
        <time>2017-06-13T06:50:51Z</time>
      </trkpt>
      <trkpt lat="42.018193770200014" lon="13.107969118282199">
        <ele>811.01000999999997</ele>
        <time>2017-06-13T06:51:05Z</time>
      </trkpt>
      <trkpt lat="42.018211707472801" lon="13.107979092746973">
        <ele>811.01000999999997</ele>
        <time>2017-06-13T06:51:20Z</time>
      </trkpt>
      <trkpt lat="42.018222939223051" lon="13.107977919280529">
        <ele>811.01000999999997</ele>
        <time>2017-06-13T06:51:23Z</time>
      </trkpt>
      <trkpt lat="42.018231237307191" lon="13.107970459386706">
        <ele>811.01000999999997</ele>
        <time>2017-06-13T06:51:24Z</time>
      </trkpt>
      <trkpt lat="42.018236182630062" lon="13.107958137989044">
        <ele>811.01000999999997</ele>
        <time>2017-06-13T06:51:25Z</time>
      </trkpt>
      <trkpt lat="42.018264010548592" lon="13.107936177402735">
        <ele>811.01000999999997</ele>
        <time>2017-06-13T06:51:30Z</time>
      </trkpt>
      <trkpt lat="42.018273565918207" lon="13.107929136604071">
        <ele>811.01000999999997</ele>
        <time>2017-06-13T06:51:31Z</time>
      </trkpt>
      <trkpt lat="42.018282115459442" lon="13.107923688367009">
        <ele>811.01000999999997</ele>
        <time>2017-06-13T06:51:32Z</time>
      </trkpt>
      <trkpt lat="42.018293095752597" lon="13.107923017814755">
        <ele>811.01000999999997</ele>
        <time>2017-06-13T06:51:33Z</time>
      </trkpt>
      <trkpt lat="42.018304327502847" lon="13.107919665053487">
        <ele>811.01000999999997</ele>
        <time>2017-06-13T06:51:34Z</time>
      </trkpt>
      <trkpt lat="42.018316062167287" lon="13.107914216816425">
        <ele>811.01000999999997</ele>
        <time>2017-06-13T06:51:35Z</time>
      </trkpt>
      <trkpt lat="42.018422596156597" lon="13.107894184067845">
        <ele>810.04998799999998</ele>
        <time>2017-06-13T06:51:49Z</time>
      </trkpt>
      <trkpt lat="42.01856492087245" lon="13.107916563749313">
        <ele>811.01000999999997</ele>
        <time>2017-06-13T06:52:02Z</time>
      </trkpt>
      <trkpt lat="42.018834063783288" lon="13.1079569645226">
        <ele>811.97003199999995</ele>
        <time>2017-06-13T06:52:20Z</time>
      </trkpt>
      <trkpt lat="42.018894162029028" lon="13.10797062702477">
        <ele>812.44995100000006</ele>
        <time>2017-06-13T06:52:25Z</time>
      </trkpt>
      <trkpt lat="42.018902208656073" lon="13.107985211536288">
        <ele>812.44995100000006</ele>
        <time>2017-06-13T06:52:26Z</time>
      </trkpt>
      <trkpt lat="42.018902795389295" lon="13.108047405257821">
        <ele>812.93005400000004</ele>
        <time>2017-06-13T06:52:30Z</time>
      </trkpt>
      <trkpt lat="42.018926432356238" lon="13.108146898448467">
        <ele>812.93005400000004</ele>
        <time>2017-06-13T06:52:46Z</time>
      </trkpt>
      <trkpt lat="42.018933137878776" lon="13.108077831566334">
        <ele>812.93005400000004</ele>
        <time>2017-06-13T06:52:59Z</time>
      </trkpt>
      <trkpt lat="42.018815623596311" lon="13.108032317832112">
        <ele>812.93005400000004</ele>
        <time>2017-06-13T06:53:11Z</time>
      </trkpt>
      <trkpt lat="42.018686877563596" lon="13.107980266213417">
        <ele>811.48999000000003</ele>
        <time>2017-06-13T06:53:22Z</time>
      </trkpt>
      <trkpt lat="42.018511779606342" lon="13.107949504628778">
        <ele>811.01000999999997</ele>
        <time>2017-06-13T06:53:39Z</time>
      </trkpt>
      <trkpt lat="42.018262837082148" lon="13.107856884598732">
        <ele>809.57000700000003</ele>
        <time>2017-06-13T06:54:01Z</time>
      </trkpt>
      <trkpt lat="42.018099892884493" lon="13.107937769964337">
        <ele>809.57000700000003</ele>
        <time>2017-06-13T06:54:18Z</time>
      </trkpt>
      <trkpt lat="42.018090169876814" lon="13.107909271493554">
        <ele>809.57000700000003</ele>
        <time>2017-06-13T06:54:40Z</time>
      </trkpt>
      <trkpt lat="42.018071981146932" lon="13.107914635911584">
        <ele>809.57000700000003</ele>
        <time>2017-06-13T06:54:52Z</time>
      </trkpt>
      <trkpt lat="42.017995035275817" lon="13.107991414144635">
        <ele>810.53002900000001</ele>
        <time>2017-06-13T06:55:02Z</time>
      </trkpt>
      <trkpt lat="42.01798246242106" lon="13.107995437458158">
        <ele>810.53002900000001</ele>
        <time>2017-06-13T06:55:03Z</time>
      </trkpt>
      <trkpt lat="42.017971565946937" lon="13.108002562075853">
        <ele>810.53002900000001</ele>
        <time>2017-06-13T06:55:04Z</time>
      </trkpt>
      <trkpt lat="42.01796343550086" lon="13.10801362618804">
        <ele>811.01000999999997</ele>
        <time>2017-06-13T06:55:05Z</time>
      </trkpt>
      <trkpt lat="42.017954383045435" lon="13.108023516833782">
        <ele>811.01000999999997</ele>
        <time>2017-06-13T06:55:06Z</time>
      </trkpt>
      <trkpt lat="42.017945665866137" lon="13.108033239841461">
        <ele>811.01000999999997</ele>
        <time>2017-06-13T06:55:07Z</time>
      </trkpt>
      <trkpt lat="42.017939295619726" lon="13.108048159629107">
        <ele>811.01000999999997</ele>
        <time>2017-06-13T06:55:08Z</time>
      </trkpt>
      <trkpt lat="42.01793409883976" lon="13.108061235398054">
        <ele>811.48999000000003</ele>
        <time>2017-06-13T06:55:09Z</time>
      </trkpt>
      <trkpt lat="42.017818680033088" lon="13.108308333903551">
        <ele>812.93005400000004</ele>
        <time>2017-06-13T06:55:27Z</time>
      </trkpt>
      <trkpt lat="42.017745925113559" lon="13.108448730781674">
        <ele>813.88995399999999</ele>
        <time>2017-06-13T06:55:41Z</time>
      </trkpt>
      <trkpt lat="42.017631763592362" lon="13.108585020527244">
        <ele>815.81994599999996</ele>
        <time>2017-06-13T06:55:55Z</time>
      </trkpt>
      <trkpt lat="42.017535539343953" lon="13.108732374384999">
        <ele>817.26000999999997</ele>
        <time>2017-06-13T06:56:10Z</time>
      </trkpt>
      <trkpt lat="42.017449205741286" lon="13.10888827778399">
        <ele>819.17999299999997</ele>
        <time>2017-06-13T06:56:25Z</time>
      </trkpt>
      <trkpt lat="42.017373517155647" lon="13.109052311629057">
        <ele>821.580017</ele>
        <time>2017-06-13T06:56:40Z</time>
      </trkpt>
      <trkpt lat="42.017271090298891" lon="13.109197067096829">
        <ele>822.54998799999998</ele>
        <time>2017-06-13T06:56:55Z</time>
      </trkpt>
      <trkpt lat="42.017225492745638" lon="13.109288010746241">
        <ele>823.51000999999997</ele>
        <time>2017-06-13T06:57:04Z</time>
      </trkpt>
      <trkpt lat="42.017120299860835" lon="13.109457576647401">
        <ele>825.90997300000004</ele>
        <time>2017-06-13T06:57:21Z</time>
      </trkpt>
      <trkpt lat="42.016987865790725" lon="13.109561763703823">
        <ele>827.34997599999997</ele>
        <time>2017-06-13T06:57:34Z</time>
      </trkpt>
      <trkpt lat="42.016969593241811" lon="13.109527314081788">
        <ele>827.34997599999997</ele>
        <time>2017-06-13T06:57:50Z</time>
      </trkpt>
      <trkpt lat="42.016998929902911" lon="13.109544161707163">
        <ele>827.34997599999997</ele>
        <time>2017-06-13T06:58:01Z</time>
      </trkpt>
      <trkpt lat="42.017018962651491" lon="13.109602080658078">
        <ele>827.830017</ele>
        <time>2017-06-13T06:58:05Z</time>
      </trkpt>
      <trkpt lat="42.016995912417769" lon="13.109836941584945">
        <ele>829.76000999999997</ele>
        <time>2017-06-13T06:58:20Z</time>
      </trkpt>
      <trkpt lat="42.016945285722613" lon="13.110014889389277">
        <ele>830.23999000000003</ele>
        <time>2017-06-13T06:58:34Z</time>
      </trkpt>
      <trkpt lat="42.016866914927959" lon="13.110207840800285">
        <ele>831.20001200000002</ele>
        <time>2017-06-13T06:58:48Z</time>
      </trkpt>
      <trkpt lat="42.016835901886225" lon="13.110382938757539">
        <ele>833.11999500000002</ele>
        <time>2017-06-13T06:59:01Z</time>
      </trkpt>
      <trkpt lat="42.016835734248161" lon="13.11050171032548">
        <ele>833.60003700000004</ele>
        <time>2017-06-13T06:59:09Z</time>
      </trkpt>
      <trkpt lat="42.016866579651833" lon="13.110720058903098">
        <ele>835.51995799999997</ele>
        <time>2017-06-13T06:59:23Z</time>
      </trkpt>
      <trkpt lat="42.016861299052835" lon="13.110770937055349">
        <ele>836</ele>
        <time>2017-06-13T06:59:27Z</time>
      </trkpt>
      <trkpt lat="42.016867334023118" lon="13.110806392505765">
        <ele>836</ele>
        <time>2017-06-13T06:59:29Z</time>
      </trkpt>
      <trkpt lat="42.016949141398072" lon="13.111021891236305">
        <ele>836.95996100000002</ele>
        <time>2017-06-13T06:59:44Z</time>
      </trkpt>
      <trkpt lat="42.017038911581039" lon="13.111202269792557">
        <ele>837.93005400000004</ele>
        <time>2017-06-13T06:59:59Z</time>
      </trkpt>
      <trkpt lat="42.017070511355996" lon="13.111269995570183">
        <ele>838.40997300000004</ele>
        <time>2017-06-13T07:00:06Z</time>
      </trkpt>
      <trkpt lat="42.017175620421767" lon="13.111437214538455">
        <ele>840.330017</ele>
        <time>2017-06-13T07:00:22Z</time>
      </trkpt>
      <trkpt lat="42.017286261543632" lon="13.111599236726761">
        <ele>841.77002000000005</ele>
        <time>2017-06-13T07:00:36Z</time>
      </trkpt>
      <trkpt lat="42.01733211055398" lon="13.111705519258976">
        <ele>842.73004200000003</ele>
        <time>2017-06-13T07:00:49Z</time>
      </trkpt>
      <trkpt lat="42.017342336475849" lon="13.111739885061979">
        <ele>842.73004200000003</ele>
        <time>2017-06-13T07:01:02Z</time>
      </trkpt>
      <trkpt lat="42.017399836331606" lon="13.111834097653627">
        <ele>843.68994099999998</ele>
        <time>2017-06-13T07:01:17Z</time>
      </trkpt>
      <trkpt lat="42.017406290397048" lon="13.111843233928084">
        <ele>843.68994099999998</ele>
        <time>2017-06-13T07:01:18Z</time>
      </trkpt>
      <trkpt lat="42.017510058358312" lon="13.112041298300028">
        <ele>845.14001499999995</ele>
        <time>2017-06-13T07:01:33Z</time>
      </trkpt>
      <trkpt lat="42.017524475231767" lon="13.112084297463298">
        <ele>845.61999500000002</ele>
        <time>2017-06-13T07:01:37Z</time>
      </trkpt>
      <trkpt lat="42.017543502151966" lon="13.112216396257281">
        <ele>846.10003700000004</ele>
        <time>2017-06-13T07:01:46Z</time>
      </trkpt>
      <trkpt lat="42.017504861578345" lon="13.112340364605188">
        <ele>847.06005900000002</ele>
        <time>2017-06-13T07:01:55Z</time>
      </trkpt>
      <trkpt lat="42.017321297898889" lon="13.112382441759109">
        <ele>848.5</ele>
        <time>2017-06-13T07:02:10Z</time>
      </trkpt>
      <trkpt lat="42.017157766968012" lon="13.112416723743081">
        <ele>849.94000200000005</ele>
        <time>2017-06-13T07:02:25Z</time>
      </trkpt>
      <trkpt lat="42.017089873552322" lon="13.112445641309023">
        <ele>850.419983</ele>
        <time>2017-06-13T07:02:42Z</time>
      </trkpt>
      <trkpt lat="42.017074786126614" lon="13.112425273284316">
        <ele>849.94000200000005</ele>
        <time>2017-06-13T07:03:04Z</time>
      </trkpt>
      <trkpt lat="42.017044862732291" lon="13.112426782026887">
        <ele>850.419983</ele>
        <time>2017-06-13T07:03:30Z</time>
      </trkpt>
      <trkpt lat="42.016882002353668" lon="13.112515714019537">
        <ele>851.86999500000002</ele>
        <time>2017-06-13T07:03:47Z</time>
      </trkpt>
      <trkpt lat="42.016853587701917" lon="13.112508170306683">
        <ele>851.86999500000002</ele>
        <time>2017-06-13T07:03:50Z</time>
      </trkpt>
      <trkpt lat="42.016712436452508" lon="13.112575393170118">
        <ele>852.830017</ele>
        <time>2017-06-13T07:04:04Z</time>
      </trkpt>
      <trkpt lat="42.016574973240495" lon="13.112626522779465">
        <ele>853.78997800000002</ele>
        <time>2017-06-13T07:04:17Z</time>
      </trkpt>
      <trkpt lat="42.016460560262203" lon="13.112684525549412">
        <ele>855.71002199999998</ele>
        <time>2017-06-13T07:04:27Z</time>
      </trkpt>
      <trkpt lat="42.016325360164046" lon="13.112798435613513">
        <ele>855.71002199999998</ele>
        <time>2017-06-13T07:04:47Z</time>
      </trkpt>
      <trkpt lat="42.016309686005116" lon="13.112821904942393">
        <ele>855.71002199999998</ele>
        <time>2017-06-13T07:04:49Z</time>
      </trkpt>
      <trkpt lat="42.016187058761716" lon="13.11310613527894">
        <ele>855.71002199999998</ele>
        <time>2017-06-13T07:05:09Z</time>
      </trkpt>
      <trkpt lat="42.016183203086257" lon="13.11316623352468">
        <ele>855.71002199999998</ele>
        <time>2017-06-13T07:05:13Z</time>
      </trkpt>
      <trkpt lat="42.016203487291932" lon="13.113442836329341">
        <ele>854.75</ele>
        <time>2017-06-13T07:05:29Z</time>
      </trkpt>
      <trkpt lat="42.016233578324318" lon="13.113668309524655">
        <ele>854.75</ele>
        <time>2017-06-13T07:05:43Z</time>
      </trkpt>
      <trkpt lat="42.01625369489193" lon="13.113922365009785">
        <ele>854.75</ele>
        <time>2017-06-13T07:05:58Z</time>
      </trkpt>
      <trkpt lat="42.016145987436175" lon="13.114140797406435">
        <ele>856.18994099999998</ele>
        <time>2017-06-13T07:06:13Z</time>
      </trkpt>
      <trkpt lat="42.015963178128004" lon="13.114351937547326">
        <ele>855.71002199999998</ele>
        <time>2017-06-13T07:06:30Z</time>
      </trkpt>
      <trkpt lat="42.015829235315323" lon="13.114490574225783">
        <ele>855.71002199999998</ele>
        <time>2017-06-13T07:06:45Z</time>
      </trkpt>
      <trkpt lat="42.015819009393454" lon="13.114498788490891">
        <ele>855.71002199999998</ele>
        <time>2017-06-13T07:06:46Z</time>
      </trkpt>
      <trkpt lat="42.015612563118339" lon="13.114680591970682">
        <ele>856.18994099999998</ele>
        <time>2017-06-13T07:07:05Z</time>
      </trkpt>
      <trkpt lat="42.015401674434543" lon="13.114844039082527">
        <ele>857.63000499999998</ele>
        <time>2017-06-13T07:07:21Z</time>
      </trkpt>
      <trkpt lat="42.015342162922025" lon="13.114838171750307">
        <ele>858.10998500000005</ele>
        <time>2017-06-13T07:07:36Z</time>
      </trkpt>
      <trkpt lat="42.0152657199651" lon="13.114860970526934">
        <ele>858.589966</ele>
        <time>2017-06-13T07:07:51Z</time>
      </trkpt>
      <trkpt lat="42.015294386073947" lon="13.114853426814079">
        <ele>858.589966</ele>
        <time>2017-06-13T07:08:05Z</time>
      </trkpt>
      <trkpt lat="42.015295391902328" lon="13.114877063781023">
        <ele>858.589966</ele>
        <time>2017-06-13T07:08:13Z</time>
      </trkpt>
      <trkpt lat="42.015151474624872" lon="13.114959541708231">
        <ele>860.03997800000002</ele>
        <time>2017-06-13T07:08:32Z</time>
      </trkpt>
      <trkpt lat="42.015150217339396" lon="13.114953925833106">
        <ele>860.03997800000002</ele>
        <time>2017-06-13T07:08:59Z</time>
      </trkpt>
      <trkpt lat="42.015112917870283" lon="13.114967001602054">
        <ele>860.03997800000002</ele>
        <time>2017-06-13T07:09:16Z</time>
      </trkpt>
      <trkpt lat="42.015009820461273" lon="13.114968594163656">
        <ele>861.95996100000002</ele>
        <time>2017-06-13T07:09:33Z</time>
      </trkpt>
      <trkpt lat="42.014982663094997" lon="13.114980328828096">
        <ele>862.44000200000005</ele>
        <time>2017-06-13T07:09:38Z</time>
      </trkpt>
      <trkpt lat="42.014916697517037" lon="13.114987872540951">
        <ele>862.44000200000005</ele>
        <time>2017-06-13T07:09:44Z</time>
      </trkpt>
      <trkpt lat="42.014757273718715" lon="13.114987621083856">
        <ele>864.84002699999996</ele>
        <time>2017-06-13T07:10:01Z</time>
      </trkpt>
      <trkpt lat="42.01457379385829" lon="13.114983094856143">
        <ele>866.77002000000005</ele>
        <time>2017-06-13T07:10:20Z</time>
      </trkpt>
      <trkpt lat="42.014405485242605" lon="13.114999020472169">
        <ele>868.21002199999998</ele>
        <time>2017-06-13T07:10:38Z</time>
      </trkpt>
      <trkpt lat="42.014340274035931" lon="13.115011509507895">
        <ele>869.17004399999996</ele>
        <time>2017-06-13T07:10:43Z</time>
      </trkpt>
      <trkpt lat="42.01421563513577" lon="13.115031206980348">
        <ele>870.60998500000005</ele>
        <time>2017-06-13T07:10:55Z</time>
      </trkpt>
      <trkpt lat="42.014197194948792" lon="13.115020897239447">
        <ele>871.089966</ele>
        <time>2017-06-13T07:11:17Z</time>
      </trkpt>
      <trkpt lat="42.014136677607894" lon="13.114995500072837">
        <ele>870.60998500000005</ele>
        <time>2017-06-13T07:11:29Z</time>
      </trkpt>
      <trkpt lat="42.013984713703394" lon="13.114961385726929">
        <ele>872.04998799999998</ele>
        <time>2017-06-13T07:11:44Z</time>
      </trkpt>
      <trkpt lat="42.013889411464334" lon="13.114971779286861">
        <ele>873.01000999999997</ele>
        <time>2017-06-13T07:11:54Z</time>
      </trkpt>
      <trkpt lat="42.013668296858668" lon="13.115058029070497">
        <ele>875.419983</ele>
        <time>2017-06-13T07:12:13Z</time>
      </trkpt>
      <trkpt lat="42.013600235804915" lon="13.115106308832765">
        <ele>876.38000499999998</ele>
        <time>2017-06-13T07:12:19Z</time>
      </trkpt>
      <trkpt lat="42.013583304360509" lon="13.11512466520071">
        <ele>876.38000499999998</ele>
        <time>2017-06-13T07:12:21Z</time>
      </trkpt>
      <trkpt lat="42.013435699045658" lon="13.115223739296198">
        <ele>878.30004899999994</ele>
        <time>2017-06-13T07:12:36Z</time>
      </trkpt>
      <trkpt lat="42.013350622728467" lon="13.11525659635663">
        <ele>879.73999000000003</ele>
        <time>2017-06-13T07:12:45Z</time>
      </trkpt>
      <trkpt lat="42.013293039053679" lon="13.115292303264141">
        <ele>879.73999000000003</ele>
        <time>2017-06-13T07:12:51Z</time>
      </trkpt>
      <trkpt lat="42.013141494244337" lon="13.115431861951947">
        <ele>881.67004399999996</ele>
        <time>2017-06-13T07:13:07Z</time>
      </trkpt>
      <trkpt lat="42.01311718672514" lon="13.115484332665801">
        <ele>882.63000499999998</ele>
        <time>2017-06-13T07:13:12Z</time>
      </trkpt>
      <trkpt lat="42.012975784018636" lon="13.115590279921889">
        <ele>883.10998500000005</ele>
        <time>2017-06-13T07:13:26Z</time>
      </trkpt>
      <trkpt lat="42.0128826610744" lon="13.115662112832069">
        <ele>885.03002900000001</ele>
        <time>2017-06-13T07:13:41Z</time>
      </trkpt>
      <trkpt lat="42.0128860976547" lon="13.115721037611365">
        <ele>885.03002900000001</ele>
        <time>2017-06-13T07:14:09Z</time>
      </trkpt>
      <trkpt lat="42.01286556199193" lon="13.115717265754938">
        <ele>885.03002900000001</ele>
        <time>2017-06-13T07:14:23Z</time>
      </trkpt>
      <trkpt lat="42.012836309149861" lon="13.115721540525556">
        <ele>885.98999000000003</ele>
        <time>2017-06-13T07:14:27Z</time>
      </trkpt>
      <trkpt lat="42.01275710016489" lon="13.1157486140728">
        <ele>886.95001200000002</ele>
        <time>2017-06-13T07:14:36Z</time>
      </trkpt>
      <trkpt lat="42.012616032734513" lon="13.115826565772295">
        <ele>887.910034</ele>
        <time>2017-06-13T07:14:51Z</time>
      </trkpt>
      <trkpt lat="42.012507570907474" lon="13.115907115861773">
        <ele>889.35998500000005</ele>
        <time>2017-06-13T07:15:04Z</time>
      </trkpt>
      <trkpt lat="42.012406904250383" lon="13.115992359817028">
        <ele>890.80004899999994</ele>
        <time>2017-06-13T07:15:15Z</time>
      </trkpt>
      <trkpt lat="42.012274889275432" lon="13.116051536053419">
        <ele>892.71997099999999</ele>
        <time>2017-06-13T07:15:29Z</time>
      </trkpt>
      <trkpt lat="42.012147735804319" lon="13.116159662604332">
        <ele>894.15997300000004</ele>
        <time>2017-06-13T07:15:44Z</time>
      </trkpt>
      <trkpt lat="42.012034831568599" lon="13.116215988993645">
        <ele>895.60998500000005</ele>
        <time>2017-06-13T07:15:57Z</time>
      </trkpt>
      <trkpt lat="42.011889573186636" lon="13.116288995370269">
        <ele>896.57000700000003</ele>
        <time>2017-06-13T07:16:10Z</time>
      </trkpt>
      <trkpt lat="42.011880436912179" lon="13.116303160786629">
        <ele>896.57000700000003</ele>
        <time>2017-06-13T07:16:11Z</time>
      </trkpt>
      <trkpt lat="42.011804496869445" lon="13.116371892392635">
        <ele>898.01000999999997</ele>
        <time>2017-06-13T07:16:18Z</time>
      </trkpt>
      <trkpt lat="42.011694274842739" lon="13.116487478837371">
        <ele>899.93005400000004</ele>
        <time>2017-06-13T07:16:31Z</time>
      </trkpt>
      <trkpt lat="42.011583298444748" lon="13.116548582911491">
        <ele>900.88995399999999</ele>
        <time>2017-06-13T07:16:43Z</time>
      </trkpt>
      <trkpt lat="42.011460503563285" lon="13.116635084152222">
        <ele>902.82000700000003</ele>
        <time>2017-06-13T07:16:59Z</time>
      </trkpt>
      <trkpt lat="42.0113405585289" lon="13.116729212924838">
        <ele>904.73999000000003</ele>
        <time>2017-06-13T07:17:11Z</time>
      </trkpt>
      <trkpt lat="42.01127752661705" lon="13.116770619526505">
        <ele>905.21997099999999</ele>
        <time>2017-06-13T07:17:24Z</time>
      </trkpt>
      <trkpt lat="42.011174177750945" lon="13.116885367780924">
        <ele>907.14001499999995</ele>
        <time>2017-06-13T07:17:41Z</time>
      </trkpt>
      <trkpt lat="42.011150289326906" lon="13.11693306080997">
        <ele>907.61999500000002</ele>
        <time>2017-06-13T07:18:00Z</time>
      </trkpt>
      <trkpt lat="42.011074433103204" lon="13.117082761600614">
        <ele>910.51000999999997</ele>
        <time>2017-06-13T07:18:18Z</time>
      </trkpt>
      <trkpt lat="42.010987093672156" lon="13.117178902029991">
        <ele>913.38995399999999</ele>
        <time>2017-06-13T07:18:34Z</time>
      </trkpt>
      <trkpt lat="42.010919200256467" lon="13.117252830415964">
        <ele>915.30999799999995</ele>
        <time>2017-06-13T07:18:47Z</time>
      </trkpt>
      <trkpt lat="42.010860862210393" lon="13.117362633347511">
        <ele>917.23999000000003</ele>
        <time>2017-06-13T07:19:02Z</time>
      </trkpt>
      <trkpt lat="42.01079917140305" lon="13.117428263649344">
        <ele>918.67999299999997</ele>
        <time>2017-06-13T07:19:14Z</time>
      </trkpt>
      <trkpt lat="42.01081769540906" lon="13.117521302774549">
        <ele>920.11999500000002</ele>
        <time>2017-06-13T07:19:28Z</time>
      </trkpt>
      <trkpt lat="42.010812666267157" lon="13.1175980810076">
        <ele>923.47997999999995</ele>
        <time>2017-06-13T07:19:40Z</time>
      </trkpt>
      <trkpt lat="42.010765979066491" lon="13.117696065455675">
        <ele>925.88995399999999</ele>
        <time>2017-06-13T07:19:58Z</time>
      </trkpt>
      <trkpt lat="42.010672437027097" lon="13.117735460400581">
        <ele>926.84997599999997</ele>
        <time>2017-06-13T07:20:12Z</time>
      </trkpt>
      <trkpt lat="42.010608818382025" lon="13.117855908349156">
        <ele>930.21002199999998</ele>
        <time>2017-06-13T07:20:28Z</time>
      </trkpt>
      <trkpt lat="42.010561292991042" lon="13.1179538089782">
        <ele>933.580017</ele>
        <time>2017-06-13T07:20:46Z</time>
      </trkpt>
      <trkpt lat="42.0105289388448" lon="13.11804810538888">
        <ele>936.45996100000002</ele>
        <time>2017-06-13T07:21:04Z</time>
      </trkpt>
      <trkpt lat="42.010513264685869" lon="13.118123458698392">
        <ele>939.82995600000004</ele>
        <time>2017-06-13T07:21:24Z</time>
      </trkpt>
      <trkpt lat="42.010444868355989" lon="13.118204176425934">
        <ele>942.71002199999998</ele>
        <time>2017-06-13T07:21:42Z</time>
      </trkpt>
      <trkpt lat="42.010425589978695" lon="13.118347423151135">
        <ele>945.589966</ele>
        <time>2017-06-13T07:21:58Z</time>
      </trkpt>
      <trkpt lat="42.010386614128947" lon="13.118395786732435">
        <ele>948.47997999999995</ele>
        <time>2017-06-13T07:22:14Z</time>
      </trkpt>
      <trkpt lat="42.010464901104569" lon="13.118412299081683">
        <ele>951.35998500000005</ele>
        <time>2017-06-13T07:22:34Z</time>
      </trkpt>
      <trkpt lat="42.010506810620427" lon="13.118453538045287">
        <ele>954.72997999999995</ele>
        <time>2017-06-13T07:22:53Z</time>
      </trkpt>
      <trkpt lat="42.010490717366338" lon="13.118557473644614">
        <ele>957.60998500000005</ele>
        <time>2017-06-13T07:23:07Z</time>
      </trkpt>
      <trkpt lat="42.010521059855819" lon="13.118524197489023">
        <ele>960.01000999999997</ele>
        <time>2017-06-13T07:23:21Z</time>
      </trkpt>
      <trkpt lat="42.010553581640124" lon="13.118574237450957">
        <ele>962.419983</ele>
        <time>2017-06-13T07:23:36Z</time>
      </trkpt>
      <trkpt lat="42.010616781190038" lon="13.118579937145114">
        <ele>964.34002699999996</ele>
        <time>2017-06-13T07:23:47Z</time>
      </trkpt>
      <trkpt lat="42.010665563866496" lon="13.118569627404213">
        <ele>964.82000700000003</ele>
        <time>2017-06-13T07:23:58Z</time>
      </trkpt>
      <trkpt lat="42.010669419541955" lon="13.118570717051625">
        <ele>964.82000700000003</ele>
        <time>2017-06-13T07:23:59Z</time>
      </trkpt>
      <trkpt lat="42.010726081207395" lon="13.118541212752461">
        <ele>966.74005099999999</ele>
        <time>2017-06-13T07:24:10Z</time>
      </trkpt>
      <trkpt lat="42.010752065107226" lon="13.118563089519739">
        <ele>966.74005099999999</ele>
        <time>2017-06-13T07:24:43Z</time>
      </trkpt>
      <trkpt lat="42.010816438123584" lon="13.118554372340441">
        <ele>967.69995100000006</ele>
        <time>2017-06-13T07:24:55Z</time>
      </trkpt>
      <trkpt lat="42.010868825018406" lon="13.118550013750792">
        <ele>969.15002400000003</ele>
        <time>2017-06-13T07:25:05Z</time>
      </trkpt>
      <trkpt lat="42.0109036937356" lon="13.118554372340441">
        <ele>970.589966</ele>
        <time>2017-06-13T07:25:10Z</time>
      </trkpt>
      <trkpt lat="42.010993212461472" lon="13.118580440059304">
        <ele>973.47003199999995</ele>
        <time>2017-06-13T07:25:21Z</time>
      </trkpt>
      <trkpt lat="42.011024979874492" lon="13.11866283416748">
        <ele>975.39001499999995</ele>
        <time>2017-06-13T07:25:35Z</time>
      </trkpt>
      <trkpt lat="42.011058172211051" lon="13.118696780875325">
        <ele>978.28002900000001</ele>
        <time>2017-06-13T07:25:48Z</time>
      </trkpt>
      <trkpt lat="42.011077282950282" lon="13.118691835552454">
        <ele>978.75994900000001</ele>
        <time>2017-06-13T07:25:51Z</time>
      </trkpt>
      <trkpt lat="42.011078121140599" lon="13.118755705654621">
        <ele>981.15997300000004</ele>
        <time>2017-06-13T07:26:02Z</time>
      </trkpt>
      <trkpt lat="42.011121874675155" lon="13.118801470845938">
        <ele>983.089966</ele>
        <time>2017-06-13T07:26:14Z</time>
      </trkpt>
      <trkpt lat="42.01116906479001" lon="13.118773391470313">
        <ele>984.52996800000005</ele>
        <time>2017-06-13T07:26:21Z</time>
      </trkpt>
      <trkpt lat="42.011188762262464" lon="13.118766434490681">
        <ele>985.01000999999997</ele>
        <time>2017-06-13T07:26:24Z</time>
      </trkpt>
      <trkpt lat="42.011281466111541" lon="13.118748664855957">
        <ele>986.92999299999997</ele>
        <time>2017-06-13T07:26:36Z</time>
      </trkpt>
      <trkpt lat="42.011333433911204" lon="13.118781019002199">
        <ele>989.32995600000004</ele>
        <time>2017-06-13T07:26:47Z</time>
      </trkpt>
      <trkpt lat="42.011282136663795" lon="13.118880009278655">
        <ele>990.78002900000001</ele>
        <time>2017-06-13T07:27:00Z</time>
      </trkpt>
      <trkpt lat="42.011305019259453" lon="13.118917308747768">
        <ele>993.17999299999997</ele>
        <time>2017-06-13T07:27:13Z</time>
      </trkpt>
      <trkpt lat="42.011316837742925" lon="13.118922002613544">
        <ele>994.61999500000002</ele>
        <time>2017-06-13T07:27:15Z</time>
      </trkpt>
      <trkpt lat="42.01138598844409" lon="13.118915380910039">
        <ele>995.580017</ele>
        <time>2017-06-13T07:27:27Z</time>
      </trkpt>
      <trkpt lat="42.011421108618379" lon="13.118947232142091">
        <ele>997.02002000000005</ele>
        <time>2017-06-13T07:27:38Z</time>
      </trkpt>
      <trkpt lat="42.011406691744924" lon="13.119015712291002">
        <ele>999.42999299999997</ele>
        <time>2017-06-13T07:27:54Z</time>
      </trkpt>
      <trkpt lat="42.011423874646425" lon="13.119017304852605">
        <ele>1000.3900149999999</ele>
        <time>2017-06-13T07:27:58Z</time>
      </trkpt>
      <trkpt lat="42.011472824960947" lon="13.119015209376812">
        <ele>1002.309998</ele>
        <time>2017-06-13T07:28:09Z</time>
      </trkpt>
      <trkpt lat="42.011528396978974" lon="13.118994841352105">
        <ele>1004.22998</ele>
        <time>2017-06-13T07:28:22Z</time>
      </trkpt>
      <trkpt lat="42.011593105271459" lon="13.118985705077648">
        <ele>1006.6400149999999</ele>
        <time>2017-06-13T07:28:36Z</time>
      </trkpt>
      <trkpt lat="42.011652365326881" lon="13.118973635137081">
        <ele>1008.080017</ele>
        <time>2017-06-13T07:28:48Z</time>
      </trkpt>
      <trkpt lat="42.011684635654092" lon="13.118990734219551">
        <ele>1009.999939</ele>
        <time>2017-06-13T07:29:00Z</time>
      </trkpt>
      <trkpt lat="42.011650186032057" lon="13.119109673425555">
        <ele>1012.8900149999999</ele>
        <time>2017-06-13T07:29:15Z</time>
      </trkpt>
      <trkpt lat="42.011611964553595" lon="13.119206735864282">
        <ele>1014.329956</ele>
        <time>2017-06-13T07:29:28Z</time>
      </trkpt>
      <trkpt lat="42.011571563780308" lon="13.119297260418534">
        <ele>1016.72998</ele>
        <time>2017-06-13T07:29:41Z</time>
      </trkpt>
      <trkpt lat="42.01152328401804" lon="13.119391892105341">
        <ele>1019.130005</ele>
        <time>2017-06-13T07:29:55Z</time>
      </trkpt>
      <trkpt lat="42.011461341753602" lon="13.119469089433551">
        <ele>1021.059998</ele>
        <time>2017-06-13T07:30:07Z</time>
      </trkpt>
      <trkpt lat="42.01141431927681" lon="13.119542682543397">
        <ele>1022.980042</ele>
        <time>2017-06-13T07:30:19Z</time>
      </trkpt>
      <trkpt lat="42.011371739208698" lon="13.119631363078952">
        <ele>1024.420044</ele>
        <time>2017-06-13T07:30:33Z</time>
      </trkpt>
      <trkpt lat="42.011316837742925" lon="13.119721468538046">
        <ele>1027.3100589999999</ele>
        <time>2017-06-13T07:30:46Z</time>
      </trkpt>
      <trkpt lat="42.011257074773312" lon="13.119817776605487">
        <ele>1029.7100829999999</ele>
        <time>2017-06-13T07:31:01Z</time>
      </trkpt>
      <trkpt lat="42.011253638193011" lon="13.119822973385453">
        <ele>1029.7100829999999</ele>
        <time>2017-06-13T07:31:02Z</time>
      </trkpt>
      <trkpt lat="42.011186331510544" lon="13.119933698326349">
        <ele>1032.589966</ele>
        <time>2017-06-13T07:31:17Z</time>
      </trkpt>
      <trkpt lat="42.0111367944628" lon="13.120026234537363">
        <ele>1035</ele>
        <time>2017-06-13T07:31:30Z</time>
      </trkpt>
      <trkpt lat="42.011095806956291" lon="13.120089937001467">
        <ele>1036.920044</ele>
        <time>2017-06-13T07:31:44Z</time>
      </trkpt>
      <trkpt lat="42.011049371212721" lon="13.120188340544701">
        <ele>1039.799927</ele>
        <time>2017-06-13T07:32:01Z</time>
      </trkpt>
      <trkpt lat="42.010985836386681" lon="13.120297305285931">
        <ele>1042.6899410000001</ele>
        <time>2017-06-13T07:32:19Z</time>
      </trkpt>
      <trkpt lat="42.01094233430922" lon="13.12039939686656">
        <ele>1044.6099850000001</ele>
        <time>2017-06-13T07:32:33Z</time>
      </trkpt>
      <trkpt lat="42.010899838060141" lon="13.120499812066555">
        <ele>1046.530029</ele>
        <time>2017-06-13T07:32:45Z</time>
      </trkpt>
      <trkpt lat="42.010840997099876" lon="13.120578518137336">
        <ele>1048.450073</ele>
        <time>2017-06-13T07:32:59Z</time>
      </trkpt>
      <trkpt lat="42.010807637125254" lon="13.120660241693258">
        <ele>1050.380005</ele>
        <time>2017-06-13T07:33:14Z</time>
      </trkpt>
      <trkpt lat="42.010758686810732" lon="13.120781108736992">
        <ele>1053.26001</ele>
        <time>2017-06-13T07:33:31Z</time>
      </trkpt>
      <trkpt lat="42.010695738717914" lon="13.120864173397422">
        <ele>1054.6999510000001</ele>
        <time>2017-06-13T07:33:43Z</time>
      </trkpt>
      <trkpt lat="42.010648297145963" lon="13.120967438444495">
        <ele>1057.1099850000001</ele>
        <time>2017-06-13T07:33:59Z</time>
      </trkpt>
      <trkpt lat="42.010616613551974" lon="13.121100459247828">
        <ele>1059.51001</ele>
        <time>2017-06-13T07:34:14Z</time>
      </trkpt>
      <trkpt lat="42.010557688772678" lon="13.121171286329627">
        <ele>1061.429932</ele>
        <time>2017-06-13T07:34:27Z</time>
      </trkpt>
      <trkpt lat="42.010522400960326" lon="13.12126818113029">
        <ele>1063.3599850000001</ele>
        <time>2017-06-13T07:34:42Z</time>
      </trkpt>
      <trkpt lat="42.010491723194718" lon="13.121371362358332">
        <ele>1065.280029</ele>
        <time>2017-06-13T07:35:01Z</time>
      </trkpt>
      <trkpt lat="42.010472780093551" lon="13.12149440869689">
        <ele>1068.160034</ele>
        <time>2017-06-13T07:35:17Z</time>
      </trkpt>
      <trkpt lat="42.010455429553986" lon="13.121584095060825">
        <ele>1070.080078</ele>
        <time>2017-06-13T07:35:31Z</time>
      </trkpt>
      <trkpt lat="42.010402707383037" lon="13.121659029275179">
        <ele>1072.01001</ele>
        <time>2017-06-13T07:35:44Z</time>
      </trkpt>
      <trkpt lat="42.010366665199399" lon="13.12171284109354">
        <ele>1074.410034</ele>
        <time>2017-06-13T07:35:55Z</time>
      </trkpt>
      <trkpt lat="42.010364569723606" lon="13.121801270172">
        <ele>1076.8100589999999</ele>
        <time>2017-06-13T07:36:09Z</time>
      </trkpt>
      <trkpt lat="42.010355768725276" lon="13.121902188286185">
        <ele>1078.73999</ele>
        <time>2017-06-13T07:36:25Z</time>
      </trkpt>
      <trkpt lat="42.01029634103179" lon="13.122014170512557">
        <ele>1081.1400149999999</ele>
        <time>2017-06-13T07:36:40Z</time>
      </trkpt>
      <trkpt lat="42.010261304676533" lon="13.122107461094856">
        <ele>1083.5399170000001</ele>
        <time>2017-06-13T07:36:56Z</time>
      </trkpt>
      <trkpt lat="42.01023138128221" lon="13.122210139408708">
        <ele>1085.950073</ele>
        <time>2017-06-13T07:37:09Z</time>
      </trkpt>
      <trkpt lat="42.010181341320276" lon="13.122312985360622">
        <ele>1087.869995</ele>
        <time>2017-06-13T07:37:22Z</time>
      </trkpt>
      <trkpt lat="42.010158794000745" lon="13.122388925403357">
        <ele>1090.2700199999999</ele>
        <time>2017-06-13T07:37:38Z</time>
      </trkpt>
      <trkpt lat="42.010094588622451" lon="13.122518928721547">
        <ele>1093.160034</ele>
        <time>2017-06-13T07:37:56Z</time>
      </trkpt>
      <trkpt lat="42.010086458176374" lon="13.122559078037739">
        <ele>1096.0399170000001</ele>
        <time>2017-06-13T07:38:14Z</time>
      </trkpt>
      <trkpt lat="42.010154603049159" lon="13.122545834630728">
        <ele>1098.4399410000001</ele>
        <time>2017-06-13T07:38:31Z</time>
      </trkpt>
      <trkpt lat="42.010217970237136" lon="13.122513815760612">
        <ele>1100.849976</ele>
        <time>2017-06-13T07:38:46Z</time>
      </trkpt>
      <trkpt lat="42.01025040820241" lon="13.12255228869617">
        <ele>1102.7700199999999</ele>
        <time>2017-06-13T07:38:58Z</time>
      </trkpt>
      <trkpt lat="42.010217467322946" lon="13.122641891241074">
        <ele>1104.690063</ele>
        <time>2017-06-13T07:39:10Z</time>
      </trkpt>
      <trkpt lat="42.010184191167355" lon="13.122741300612688">
        <ele>1105.650024</ele>
        <time>2017-06-13T07:39:21Z</time>
      </trkpt>
      <trkpt lat="42.010106574743986" lon="13.122857138514519">
        <ele>1108.059937</ele>
        <time>2017-06-13T07:39:35Z</time>
      </trkpt>
      <trkpt lat="42.010058797895908" lon="13.122935341671109">
        <ele>1109.9799800000001</ele>
        <time>2017-06-13T07:39:50Z</time>
      </trkpt>
      <trkpt lat="42.010008338838816" lon="13.123045563697815">
        <ele>1112.380005</ele>
        <time>2017-06-13T07:40:04Z</time>
      </trkpt>
      <trkpt lat="42.009985623881221" lon="13.123137764632702">
        <ele>1114.3100589999999</ele>
        <time>2017-06-13T07:40:18Z</time>
      </trkpt>
      <trkpt lat="42.009948911145329" lon="13.123264331370592">
        <ele>1117.190063</ele>
        <time>2017-06-13T07:40:34Z</time>
      </trkpt>
      <trkpt lat="42.009936505928636" lon="13.123366925865412">
        <ele>1119.1099850000001</ele>
        <time>2017-06-13T07:40:50Z</time>
      </trkpt>
      <trkpt lat="42.009921418502927" lon="13.123478488996625">
        <ele>1121.5200199999999</ele>
        <time>2017-06-13T07:41:04Z</time>
      </trkpt>
      <trkpt lat="42.009963914752007" lon="13.123451080173254">
        <ele>1122.959961</ele>
        <time>2017-06-13T07:41:17Z</time>
      </trkpt>
      <trkpt lat="42.010016636922956" lon="13.123433729633689">
        <ele>1125.3599850000001</ele>
        <time>2017-06-13T07:41:28Z</time>
      </trkpt>
      <trkpt lat="42.010057959705591" lon="13.123416882008314">
        <ele>1126.799927</ele>
        <time>2017-06-13T07:41:40Z</time>
      </trkpt>
      <trkpt lat="42.010119818150997" lon="13.123369188979268">
        <ele>1128.7299800000001</ele>
        <time>2017-06-13T07:41:52Z</time>
      </trkpt>
      <trkpt lat="42.010165080428123" lon="13.123373296111822">
        <ele>1130.169922</ele>
        <time>2017-06-13T07:42:05Z</time>
      </trkpt>
      <trkpt lat="42.010167175903916" lon="13.123378409072757">
        <ele>1130.650024</ele>
        <time>2017-06-13T07:42:07Z</time>
      </trkpt>
      <trkpt lat="42.010131468996406" lon="13.123478321358562">
        <ele>1132.5699460000001</ele>
        <time>2017-06-13T07:42:22Z</time>
      </trkpt>
      <trkpt lat="42.010104982182384" lon="13.12357890419662">
        <ele>1134.969971</ele>
        <time>2017-06-13T07:42:37Z</time>
      </trkpt>
      <trkpt lat="42.010057540610433" lon="13.123710667714477">
        <ele>1136.420044</ele>
        <time>2017-06-13T07:42:51Z</time>
      </trkpt>
      <trkpt lat="42.010020660236478" lon="13.123804125934839">
        <ele>1138.820068</ele>
        <time>2017-06-13T07:43:08Z</time>
      </trkpt>
      <trkpt lat="42.009946396574378" lon="13.123963214457035">
        <ele>1141.6999510000001</ele>
        <time>2017-06-13T07:43:27Z</time>
      </trkpt>
      <trkpt lat="42.009911108762026" lon="13.124050218611956">
        <ele>1143.630005</ele>
        <time>2017-06-13T07:43:41Z</time>
      </trkpt>
      <trkpt lat="42.009827625006437" lon="13.124158261343837">
        <ele>1145.5500489999999</ele>
        <time>2017-06-13T07:43:57Z</time>
      </trkpt>
      <trkpt lat="42.009795103222132" lon="13.124265717342496">
        <ele>1147.469971</ele>
        <time>2017-06-13T07:44:11Z</time>
      </trkpt>
      <trkpt lat="42.009764090180397" lon="13.124347608536482">
        <ele>1150.349976</ele>
        <time>2017-06-13T07:44:23Z</time>
      </trkpt>
      <trkpt lat="42.009748667478561" lon="13.124431930482388">
        <ele>1152.280029</ele>
        <time>2017-06-13T07:44:36Z</time>
      </trkpt>
      <trkpt lat="42.009749002754688" lon="13.124467385932803">
        <ele>1152.280029</ele>
        <time>2017-06-13T07:44:40Z</time>
      </trkpt>
      <trkpt lat="42.009707428514957" lon="13.12457081861794">
        <ele>1154.6800539999999</ele>
        <time>2017-06-13T07:44:57Z</time>
      </trkpt>
      <trkpt lat="42.009656634181738" lon="13.124682884663343">
        <ele>1156.599976</ele>
        <time>2017-06-13T07:45:11Z</time>
      </trkpt>
      <trkpt lat="42.009620927274227" lon="13.124773325398564">
        <ele>1158.0500489999999</ele>
        <time>2017-06-13T07:45:25Z</time>
      </trkpt>
      <trkpt lat="42.009554961696267" lon="13.12486007809639">
        <ele>1159.969971</ele>
        <time>2017-06-13T07:45:40Z</time>
      </trkpt>
      <trkpt lat="42.009502658620477" lon="13.12495538033545">
        <ele>1161.8900149999999</ele>
        <time>2017-06-13T07:45:54Z</time>
      </trkpt>
      <trkpt lat="42.009467538446188" lon="13.124970467761159">
        <ele>1162.849976</ele>
        <time>2017-06-13T07:46:16Z</time>
      </trkpt>
      <trkpt lat="42.009469382464886" lon="13.124956218525767">
        <ele>1162.849976</ele>
        <time>2017-06-13T07:46:42Z</time>
      </trkpt>
      <trkpt lat="42.009477680549026" lon="13.124954039230943">
        <ele>1162.849976</ele>
        <time>2017-06-13T07:47:00Z</time>
      </trkpt>
      <trkpt lat="42.009474076330662" lon="13.124941382557154">
        <ele>1163.329956</ele>
        <time>2017-06-13T07:47:22Z</time>
      </trkpt>
      <trkpt lat="42.009458402171731" lon="13.124952865764499">
        <ele>1163.329956</ele>
        <time>2017-06-13T07:47:47Z</time>
      </trkpt>
      <trkpt lat="42.009444236755371" lon="13.124964013695717">
        <ele>1162.369995</ele>
        <time>2017-06-13T07:47:50Z</time>
      </trkpt>
      <trkpt lat="42.009386485442519" lon="13.124993937090039">
        <ele>1160.450073</ele>
        <time>2017-06-13T07:48:04Z</time>
      </trkpt>
      <trkpt lat="42.009414983913302" lon="13.12497197650373">
        <ele>1159.969971</ele>
        <time>2017-06-13T07:48:29Z</time>
      </trkpt>
      <trkpt lat="42.009416241198778" lon="13.124994104728103">
        <ele>1159.969971</ele>
        <time>2017-06-13T07:48:50Z</time>
      </trkpt>
      <trkpt lat="42.009391682222486" lon="13.124960660934448">
        <ele>1160.450073</ele>
        <time>2017-06-13T07:49:16Z</time>
      </trkpt>
      <trkpt lat="42.0093391276896" lon="13.124946914613247">
        <ele>1160.450073</ele>
        <time>2017-06-13T07:49:44Z</time>
      </trkpt>
      <trkpt lat="42.009343570098281" lon="13.124866532161832">
        <ele>1159.48999</ele>
        <time>2017-06-13T07:49:50Z</time>
      </trkpt>
      <trkpt lat="42.0093425642699" lon="13.124793777242303">
        <ele>1159.48999</ele>
        <time>2017-06-13T07:50:07Z</time>
      </trkpt>
      <trkpt lat="42.009364608675241" lon="13.124920763075352">
        <ele>1160.9300539999999</ele>
        <time>2017-06-13T07:50:23Z</time>
      </trkpt>
      <trkpt lat="42.009357986971736" lon="13.124959068372846">
        <ele>1161.4099120000001</ele>
        <time>2017-06-13T07:50:45Z</time>
      </trkpt>
      <trkpt lat="42.009363183751702" lon="13.124966528266668">
        <ele>1161.8900149999999</ele>
        <time>2017-06-13T07:51:20Z</time>
      </trkpt>
      <trkpt lat="42.009354801848531" lon="13.124956805258989">
        <ele>1162.369995</ele>
        <time>2017-06-13T07:51:54Z</time>
      </trkpt>
      <trkpt lat="42.00937625952065" lon="13.12496418133378">
        <ele>1162.369995</ele>
        <time>2017-06-13T07:52:14Z</time>
      </trkpt>
      <trkpt lat="42.009383216500282" lon="13.124981615692377">
        <ele>1162.369995</ele>
        <time>2017-06-13T07:52:38Z</time>
      </trkpt>
      <trkpt lat="42.00938506051898" lon="13.124956805258989">
        <ele>1162.369995</ele>
        <time>2017-06-13T07:53:05Z</time>
      </trkpt>
      <trkpt lat="42.009415905922651" lon="13.12493434175849">
        <ele>1162.369995</ele>
        <time>2017-06-13T07:53:41Z</time>
      </trkpt>
      <trkpt lat="42.009387826547027" lon="13.124948674812913">
        <ele>1162.369995</ele>
        <time>2017-06-13T07:54:04Z</time>
      </trkpt>
      <trkpt lat="42.009421605616808" lon="13.124985890462995">
        <ele>1161.4099120000001</ele>
        <time>2017-06-13T07:54:26Z</time>
      </trkpt>
      <trkpt lat="42.009516572579741" lon="13.124949261546135">
        <ele>1163.809937</ele>
        <time>2017-06-13T07:54:39Z</time>
      </trkpt>
      <trkpt lat="42.009586477652192" lon="13.124944986775517">
        <ele>1167.1800539999999</ele>
        <time>2017-06-13T07:54:51Z</time>
      </trkpt>
      <trkpt lat="42.009646911174059" lon="13.124940879642963">
        <ele>1168.1400149999999</ele>
        <time>2017-06-13T07:54:59Z</time>
      </trkpt>
      <trkpt lat="42.009739531204104" lon="13.124913638457656">
        <ele>1171.0200199999999</ele>
        <time>2017-06-13T07:55:12Z</time>
      </trkpt>
      <trkpt lat="42.009809436276555" lon="13.124901903793216">
        <ele>1173.4300539999999</ele>
        <time>2017-06-13T07:55:22Z</time>
      </trkpt>
      <trkpt lat="42.009904906153679" lon="13.124862341210246">
        <ele>1176.790039</ele>
        <time>2017-06-13T07:55:35Z</time>
      </trkpt>
      <trkpt lat="42.009991323575377" lon="13.124818671494722">
        <ele>1179.190063</ele>
        <time>2017-06-13T07:55:48Z</time>
      </trkpt>
      <trkpt lat="42.010059216991067" lon="13.124761339277029">
        <ele>1179.670044</ele>
        <time>2017-06-13T07:55:58Z</time>
      </trkpt>
      <trkpt lat="42.010145634412766" lon="13.124736193567514">
        <ele>1183.5200199999999</ele>
        <time>2017-06-13T07:56:10Z</time>
      </trkpt>
      <trkpt lat="42.010176815092564" lon="13.124725632369518">
        <ele>1184.959961</ele>
        <time>2017-06-13T07:56:16Z</time>
      </trkpt>
      <trkpt lat="42.010226268321276" lon="13.124723369255662">
        <ele>1185.920044</ele>
        <time>2017-06-13T07:56:31Z</time>
      </trkpt>
      <trkpt lat="42.010230962187052" lon="13.124742899090052">
        <ele>1185.920044</ele>
        <time>2017-06-13T07:56:49Z</time>
      </trkpt>
      <trkpt lat="42.010258035734296" lon="13.124731918796897">
        <ele>1185.920044</ele>
        <time>2017-06-13T07:57:12Z</time>
      </trkpt>
      <trkpt lat="42.010243367403746" lon="13.124724626541138">
        <ele>1185.920044</ele>
        <time>2017-06-13T07:57:32Z</time>
      </trkpt>
      <trkpt lat="42.010249737650156" lon="13.124708784744143">
        <ele>1185.920044</ele>
        <time>2017-06-13T07:57:53Z</time>
      </trkpt>
      <trkpt lat="42.010253760963678" lon="13.124715406447649">
        <ele>1186.400024</ele>
        <time>2017-06-13T07:58:16Z</time>
      </trkpt>
      <trkpt lat="42.010262981057167" lon="13.124690260738134">
        <ele>1186.400024</ele>
        <time>2017-06-13T07:58:35Z</time>
      </trkpt>
      <trkpt lat="42.010223586112261" lon="13.124726135283709">
        <ele>1186.400024</ele>
        <time>2017-06-13T07:59:01Z</time>
      </trkpt>
      <trkpt lat="42.010214366018772" lon="13.124729404225945">
        <ele>1186.400024</ele>
        <time>2017-06-13T07:59:02Z</time>
      </trkpt>
      <trkpt lat="42.010134905576706" lon="13.124756561592221">
        <ele>1183.0399170000001</ele>
        <time>2017-06-13T07:59:11Z</time>
      </trkpt>
      <trkpt lat="42.010046392679214" lon="13.124839710071683">
        <ele>1180.160034</ele>
        <time>2017-06-13T07:59:27Z</time>
      </trkpt>
      <trkpt lat="42.009930135682225" lon="13.12489771284163">
        <ele>1176.790039</ele>
        <time>2017-06-13T07:59:43Z</time>
      </trkpt>
      <trkpt lat="42.009822009131312" lon="13.124934677034616">
        <ele>1173.9099120000001</ele>
        <time>2017-06-13T08:00:00Z</time>
      </trkpt>
      <trkpt lat="42.009718911722302" lon="13.124979771673679">
        <ele>1171.0200199999999</ele>
        <time>2017-06-13T08:00:17Z</time>
      </trkpt>
      <trkpt lat="42.009654706344008" lon="13.124977927654982">
        <ele>1169.099976</ele>
        <time>2017-06-13T08:00:33Z</time>
      </trkpt>
      <trkpt lat="42.009541634470224" lon="13.124997122213244">
        <ele>1166.219971</ele>
        <time>2017-06-13T08:00:49Z</time>
      </trkpt>
      <trkpt lat="42.009469717741013" lon="13.125005168840289">
        <ele>1164.7700199999999</ele>
        <time>2017-06-13T08:01:05Z</time>
      </trkpt>
      <trkpt lat="42.009418336674571" lon="13.12499737367034">
        <ele>1162.849976</ele>
        <time>2017-06-13T08:01:19Z</time>
      </trkpt>
      <trkpt lat="42.009386066347361" lon="13.124977927654982">
        <ele>1162.369995</ele>
        <time>2017-06-13T08:01:35Z</time>
      </trkpt>
      <trkpt lat="42.00939679518342" lon="13.12500081025064">
        <ele>1162.369995</ele>
        <time>2017-06-13T08:01:56Z</time>
      </trkpt>
      <trkpt lat="42.009421773254871" lon="13.124989662319422">
        <ele>1162.369995</ele>
        <time>2017-06-13T08:02:19Z</time>
      </trkpt>
      <trkpt lat="42.009435687214136" lon="13.124962588772178">
        <ele>1163.809937</ele>
        <time>2017-06-13T08:02:24Z</time>
      </trkpt>
      <trkpt lat="42.009480781853199" lon="13.124922607094049">
        <ele>1164.7700199999999</ele>
        <time>2017-06-13T08:02:39Z</time>
      </trkpt>
      <trkpt lat="42.009521014988422" lon="13.124898802489042">
        <ele>1165.26001</ele>
        <time>2017-06-13T08:03:06Z</time>
      </trkpt>
      <trkpt lat="42.009584382176399" lon="13.124895114451647">
        <ele>1167.660034</ele>
        <time>2017-06-13T08:03:18Z</time>
      </trkpt>
      <trkpt lat="42.009648336097598" lon="13.124918499961495">
        <ele>1170.0600589999999</ele>
        <time>2017-06-13T08:03:29Z</time>
      </trkpt>
      <trkpt lat="42.009721007198095" lon="13.124900897964835">
        <ele>1171.9799800000001</ele>
        <time>2017-06-13T08:03:42Z</time>
      </trkpt>
      <trkpt lat="42.009748164564371" lon="13.124887822195888">
        <ele>1173.9099120000001</ele>
        <time>2017-06-13T08:03:46Z</time>
      </trkpt>
      <trkpt lat="42.009814213961363" lon="13.124871058389544">
        <ele>1175.349976</ele>
        <time>2017-06-13T08:03:56Z</time>
      </trkpt>
      <trkpt lat="42.009884538128972" lon="13.124856725335121">
        <ele>1177.75</ele>
        <time>2017-06-13T08:04:08Z</time>
      </trkpt>
      <trkpt lat="42.009955616667867" lon="13.12481758184731">
        <ele>1179.190063</ele>
        <time>2017-06-13T08:04:19Z</time>
      </trkpt>
      <trkpt lat="42.010017475113273" lon="13.124790675938129">
        <ele>1181.119995</ele>
        <time>2017-06-13T08:04:32Z</time>
      </trkpt>
      <trkpt lat="42.010023761540651" lon="13.124788412824273">
        <ele>1181.119995</ele>
        <time>2017-06-13T08:04:42Z</time>
      </trkpt>
      <trkpt lat="42.010074639692903" lon="13.124763602390885">
        <ele>1182.080078</ele>
        <time>2017-06-13T08:04:49Z</time>
      </trkpt>
      <trkpt lat="42.010139767080545" lon="13.124747676774859">
        <ele>1184.4799800000001</ele>
        <time>2017-06-13T08:05:01Z</time>
      </trkpt>
      <trkpt lat="42.010188214480877" lon="13.124732170253992">
        <ele>1186.400024</ele>
        <time>2017-06-13T08:05:12Z</time>
      </trkpt>
      <trkpt lat="42.010244959965348" lon="13.124725464731455">
        <ele>1187.849976</ele>
        <time>2017-06-13T08:05:24Z</time>
      </trkpt>
      <trkpt lat="42.010255940258503" lon="13.124759159982204">
        <ele>1188.329956</ele>
        <time>2017-06-13T08:05:40Z</time>
      </trkpt>
      <trkpt lat="42.010188717395067" lon="13.124890839681029">
        <ele>1190.25</ele>
        <time>2017-06-13T08:05:53Z</time>
      </trkpt>
      <trkpt lat="42.010102886706591" lon="13.125011203810573">
        <ele>1191.209961</ele>
        <time>2017-06-13T08:06:07Z</time>
      </trkpt>
      <trkpt lat="42.010018564760685" lon="13.125128634274006">
        <ele>1192.170044</ele>
        <time>2017-06-13T08:06:19Z</time>
      </trkpt>
      <trkpt lat="42.009908594191074" lon="13.12527540139854">
        <ele>1192.650024</ele>
        <time>2017-06-13T08:06:35Z</time>
      </trkpt>
      <trkpt lat="42.009788062423468" lon="13.125413786619902">
        <ele>1194.089966</ele>
        <time>2017-06-13T08:06:52Z</time>
      </trkpt>
      <trkpt lat="42.009770292788744" lon="13.125412529334426">
        <ele>1194.089966</ele>
        <time>2017-06-13T08:07:07Z</time>
      </trkpt>
      <trkpt lat="42.009741123765707" lon="13.125440608710051">
        <ele>1194.089966</ele>
        <time>2017-06-13T08:07:26Z</time>
      </trkpt>
      <trkpt lat="42.009656466543674" lon="13.12554219737649">
        <ele>1194.580078</ele>
        <time>2017-06-13T08:07:38Z</time>
      </trkpt>
      <trkpt lat="42.009572312235832" lon="13.125610509887338">
        <ele>1194.580078</ele>
        <time>2017-06-13T08:07:48Z</time>
      </trkpt>
      <trkpt lat="42.009504837915301" lon="13.125689718872309">
        <ele>1195.0600589999999</ele>
        <time>2017-06-13T08:07:57Z</time>
      </trkpt>
      <trkpt lat="42.009453540667892" lon="13.125800862908363">
        <ele>1197.459961</ele>
        <time>2017-06-13T08:08:09Z</time>
      </trkpt>
      <trkpt lat="42.009448260068893" lon="13.125806981697679">
        <ele>1197.459961</ele>
        <time>2017-06-13T08:08:10Z</time>
      </trkpt>
      <trkpt lat="42.009364273399115" lon="13.125918628647923">
        <ele>1197.459961</ele>
        <time>2017-06-13T08:08:25Z</time>
      </trkpt>
      <trkpt lat="42.009341726079583" lon="13.12604988925159">
        <ele>1200.820068</ele>
        <time>2017-06-13T08:08:38Z</time>
      </trkpt>
      <trkpt lat="42.009320938959718" lon="13.126112502068281">
        <ele>1202.2700199999999</ele>
        <time>2017-06-13T08:08:46Z</time>
      </trkpt>
      <trkpt lat="42.009310964494944" lon="13.126151561737061">
        <ele>1202.75</ele>
        <time>2017-06-13T08:08:52Z</time>
      </trkpt>
      <trkpt lat="42.009258326143026" lon="13.126260526478291">
        <ele>1205.150024</ele>
        <time>2017-06-13T08:09:05Z</time>
      </trkpt>
      <trkpt lat="42.009225971996784" lon="13.126361360773444">
        <ele>1207.0699460000001</ele>
        <time>2017-06-13T08:09:17Z</time>
      </trkpt>
      <trkpt lat="42.009208705276251" lon="13.12643981538713">
        <ele>1207.0699460000001</ele>
        <time>2017-06-13T08:09:24Z</time>
      </trkpt>
      <trkpt lat="42.009199485182762" lon="13.126549869775772">
        <ele>1208.51001</ele>
        <time>2017-06-13T08:09:34Z</time>
      </trkpt>
      <trkpt lat="42.009130669757724" lon="13.126671239733696">
        <ele>1208.51001</ele>
        <time>2017-06-13T08:09:46Z</time>
      </trkpt>
      <trkpt lat="42.009116923436522" lon="13.126704767346382">
        <ele>1207.0699460000001</ele>
        <time>2017-06-13T08:09:50Z</time>
      </trkpt>
      <trkpt lat="42.00901173055172" lon="13.126786993816495">
        <ele>1209</ele>
        <time>2017-06-13T08:10:02Z</time>
      </trkpt>
      <trkpt lat="42.008982058614492" lon="13.126823538914323">
        <ele>1209.4799800000001</ele>
        <time>2017-06-13T08:10:09Z</time>
      </trkpt>
      <trkpt lat="42.008893880993128" lon="13.126953793689609">
        <ele>1210.4399410000001</ele>
        <time>2017-06-13T08:10:23Z</time>
      </trkpt>
      <trkpt lat="42.00887493789196" lon="13.126970306038857">
        <ele>1210.4399410000001</ele>
        <time>2017-06-13T08:10:27Z</time>
      </trkpt>
      <trkpt lat="42.008775025606155" lon="13.127031158655882">
        <ele>1211.400024</ele>
        <time>2017-06-13T08:10:39Z</time>
      </trkpt>
      <trkpt lat="42.008737893775105" lon="13.127059740945697">
        <ele>1211.400024</ele>
        <time>2017-06-13T08:10:43Z</time>
      </trkpt>
      <trkpt lat="42.008682321757078" lon="13.127127885818481">
        <ele>1211.880005</ele>
        <time>2017-06-13T08:10:51Z</time>
      </trkpt>
      <trkpt lat="42.008636640384793" lon="13.127214135602117">
        <ele>1212.3599850000001</ele>
        <time>2017-06-13T08:10:59Z</time>
      </trkpt>
      <trkpt lat="42.008525328710675" lon="13.127359226346016">
        <ele>1213.320068</ele>
        <time>2017-06-13T08:11:13Z</time>
      </trkpt>
      <trkpt lat="42.008417537435889" lon="13.127450421452522">
        <ele>1214.2799070000001</ele>
        <time>2017-06-13T08:11:27Z</time>
      </trkpt>
      <trkpt lat="42.008299604058266" lon="13.127496102824807">
        <ele>1214.76001</ele>
        <time>2017-06-13T08:11:41Z</time>
      </trkpt>
      <trkpt lat="42.008285690099001" lon="13.127492666244507">
        <ele>1215.23999</ele>
        <time>2017-06-13T08:11:42Z</time>
      </trkpt>
      <trkpt lat="42.008155435323715" lon="13.127511022612453">
        <ele>1215.719971</ele>
        <time>2017-06-13T08:11:53Z</time>
      </trkpt>
      <trkpt lat="42.008083015680313" lon="13.127494929358363">
        <ele>1217.170044</ele>
        <time>2017-06-13T08:11:59Z</time>
      </trkpt>
      <trkpt lat="42.007930632680655" lon="13.127456791698933">
        <ele>1218.130005</ele>
        <time>2017-06-13T08:12:13Z</time>
      </trkpt>
      <trkpt lat="42.00780532322824" lon="13.127473723143339">
        <ele>1219.5699460000001</ele>
        <time>2017-06-13T08:12:24Z</time>
      </trkpt>
      <trkpt lat="42.007709266617894" lon="13.127529714256525">
        <ele>1220.530029</ele>
        <time>2017-06-13T08:12:34Z</time>
      </trkpt>
      <trkpt lat="42.00757222250104" lon="13.127578664571047">
        <ele>1222.450073</ele>
        <time>2017-06-13T08:12:50Z</time>
      </trkpt>
      <trkpt lat="42.007484212517738" lon="13.127649240195751">
        <ele>1223.900024</ele>
        <time>2017-06-13T08:13:04Z</time>
      </trkpt>
      <trkpt lat="42.007441213354468" lon="13.127675727009773">
        <ele>1224.380005</ele>
        <time>2017-06-13T08:13:10Z</time>
      </trkpt>
      <trkpt lat="42.007351275533438" lon="13.127760970965028">
        <ele>1226.7799070000001</ele>
        <time>2017-06-13T08:13:21Z</time>
      </trkpt>
      <trkpt lat="42.007297882810235" lon="13.127798521891236">
        <ele>1227.26001</ele>
        <time>2017-06-13T08:13:27Z</time>
      </trkpt>
      <trkpt lat="42.007220266386867" lon="13.127894997596741">
        <ele>1229.179932</ele>
        <time>2017-06-13T08:13:40Z</time>
      </trkpt>
      <trkpt lat="42.007144661620259" lon="13.127982839941978">
        <ele>1231.1099850000001</ele>
        <time>2017-06-13T08:13:54Z</time>
      </trkpt>
      <trkpt lat="42.007110211998224" lon="13.128063725307584">
        <ele>1233.030029</ele>
        <time>2017-06-13T08:14:07Z</time>
      </trkpt>
      <trkpt lat="42.007086323574185" lon="13.128084763884544">
        <ele>1233.98999</ele>
        <time>2017-06-13T08:14:12Z</time>
      </trkpt>
      <trkpt lat="42.00702203437686" lon="13.128158859908581">
        <ele>1235.910034</ele>
        <time>2017-06-13T08:14:25Z</time>
      </trkpt>
      <trkpt lat="42.006933437660336" lon="13.128220802173018">
        <ele>1237.829956</ele>
        <time>2017-06-13T08:14:39Z</time>
      </trkpt>
      <trkpt lat="42.006846433505416" lon="13.128315266221762">
        <ele>1240.23999</ele>
        <time>2017-06-13T08:14:55Z</time>
      </trkpt>
      <trkpt lat="42.006727829575539" lon="13.128364300355315">
        <ele>1243.119995</ele>
        <time>2017-06-13T08:15:12Z</time>
      </trkpt>
      <trkpt lat="42.006624480709434" lon="13.128351140767336">
        <ele>1245.530029</ele>
        <time>2017-06-13T08:15:28Z</time>
      </trkpt>
      <trkpt lat="42.006540158763528" lon="13.128376118838787">
        <ele>1246.969971</ele>
        <time>2017-06-13T08:15:41Z</time>
      </trkpt>
      <trkpt lat="42.006429098546505" lon="13.128454824909568">
        <ele>1248.410034</ele>
        <time>2017-06-13T08:15:56Z</time>
      </trkpt>
      <trkpt lat="42.006347458809614" lon="13.128586672246456">
        <ele>1249.369995</ele>
        <time>2017-06-13T08:16:10Z</time>
      </trkpt>
      <trkpt lat="42.006312170997262" lon="13.128735115751624">
        <ele>1251.290039</ele>
        <time>2017-06-13T08:16:22Z</time>
      </trkpt>
      <trkpt lat="42.006264477968216" lon="13.12883653678">
        <ele>1252.740112</ele>
        <time>2017-06-13T08:16:37Z</time>
      </trkpt>
      <trkpt lat="42.006182419136167" lon="13.128900909796357">
        <ele>1254.179932</ele>
        <time>2017-06-13T08:16:50Z</time>
      </trkpt>
      <trkpt lat="42.006087703630328" lon="13.128955224528909">
        <ele>1256.099976</ele>
        <time>2017-06-13T08:17:04Z</time>
      </trkpt>
      <trkpt lat="42.005987204611301" lon="13.129073325544596">
        <ele>1258.0200199999999</ele>
        <time>2017-06-13T08:17:20Z</time>
      </trkpt>
      <trkpt lat="42.005903637036681" lon="13.129214309155941">
        <ele>1259.459961</ele>
        <time>2017-06-13T08:17:36Z</time>
      </trkpt>
      <trkpt lat="42.005881341174245" lon="13.129361495375633">
        <ele>1261.389893</ele>
        <time>2017-06-13T08:17:51Z</time>
      </trkpt>
      <trkpt lat="42.005851836875081" lon="13.129492839798331">
        <ele>1262.829956</ele>
        <time>2017-06-13T08:18:04Z</time>
      </trkpt>
      <trkpt lat="42.005813783034682" lon="13.129592416808009">
        <ele>1264.2700199999999</ele>
        <time>2017-06-13T08:18:18Z</time>
      </trkpt>
      <trkpt lat="42.00578092597425" lon="13.129705237224698">
        <ele>1265.709961</ele>
        <time>2017-06-13T08:18:34Z</time>
      </trkpt>
      <trkpt lat="42.005712194368243" lon="13.129793833941221">
        <ele>1267.160034</ele>
        <time>2017-06-13T08:18:51Z</time>
      </trkpt>
      <trkpt lat="42.005641702562571" lon="13.129896763712168">
        <ele>1269.5600589999999</ele>
        <time>2017-06-13T08:19:06Z</time>
      </trkpt>
      <trkpt lat="42.005562912672758" lon="13.12999022193253">
        <ele>1271.959961</ele>
        <time>2017-06-13T08:19:20Z</time>
      </trkpt>
      <trkpt lat="42.005538186058402" lon="13.130006566643715">
        <ele>1272.4399410000001</ele>
        <time>2017-06-13T08:19:23Z</time>
      </trkpt>
      <trkpt lat="42.005422683432698" lon="13.130085524171591">
        <ele>1273.880005</ele>
        <time>2017-06-13T08:19:37Z</time>
      </trkpt>
      <trkpt lat="42.005321010947227" lon="13.130130870267749">
        <ele>1275.8100589999999</ele>
        <time>2017-06-13T08:19:49Z</time>
      </trkpt>
      <trkpt lat="42.005165359005332" lon="13.13018367625773">
        <ele>1277.7299800000001</ele>
        <time>2017-06-13T08:20:05Z</time>
      </trkpt>
      <trkpt lat="42.005074080079794" lon="13.130189711228013">
        <ele>1279.170044</ele>
        <time>2017-06-13T08:20:17Z</time>
      </trkpt>
      <trkpt lat="42.004926139488816" lon="13.130194405093789">
        <ele>1281.0900879999999</ele>
        <time>2017-06-13T08:20:32Z</time>
      </trkpt>
      <trkpt lat="42.004838129505515" lon="13.130207983776927">
        <ele>1282.540039</ele>
        <time>2017-06-13T08:20:45Z</time>
      </trkpt>
      <trkpt lat="42.004748275503516" lon="13.130252826958895">
        <ele>1284.459961</ele>
        <time>2017-06-13T08:20:58Z</time>
      </trkpt>
      <trkpt lat="42.004707120358944" lon="13.130265064537525">
        <ele>1284.459961</ele>
        <time>2017-06-13T08:21:03Z</time>
      </trkpt>
      <trkpt lat="42.004630006849766" lon="13.130319211632013">
        <ele>1285.900024</ele>
        <time>2017-06-13T08:21:15Z</time>
      </trkpt>
      <trkpt lat="42.004558173939586" lon="13.130380818620324">
        <ele>1287.3400879999999</ele>
        <time>2017-06-13T08:21:28Z</time>
      </trkpt>
      <trkpt lat="42.004513330757618" lon="13.13048760406673">
        <ele>1287.820068</ele>
        <time>2017-06-13T08:21:38Z</time>
      </trkpt>
      <trkpt lat="42.00449631549418" lon="13.130519958212972">
        <ele>1287.820068</ele>
        <time>2017-06-13T08:21:41Z</time>
      </trkpt>
      <trkpt lat="42.004501260817051" lon="13.130574692040682">
        <ele>1289.2700199999999</ele>
        <time>2017-06-13T08:21:47Z</time>
      </trkpt>
      <trkpt lat="42.004505703225732" lon="13.130616685375571">
        <ele>1289.2700199999999</ele>
        <time>2017-06-13T08:21:51Z</time>
      </trkpt>
      <trkpt lat="42.004495393484831" lon="13.13064350746572">
        <ele>1290.2299800000001</ele>
        <time>2017-06-13T08:21:54Z</time>
      </trkpt>
      <trkpt lat="42.004393134266138" lon="13.130718441680074">
        <ele>1290.709961</ele>
        <time>2017-06-13T08:22:07Z</time>
      </trkpt>
      <trkpt lat="42.004317697137594" lon="13.130765296518803">
        <ele>1292.150024</ele>
        <time>2017-06-13T08:22:20Z</time>
      </trkpt>
      <trkpt lat="42.004204960539937" lon="13.130843499675393">
        <ele>1293.589966</ele>
        <time>2017-06-13T08:22:34Z</time>
      </trkpt>
      <trkpt lat="42.004119800403714" lon="13.130888091400266">
        <ele>1295.030029</ele>
        <time>2017-06-13T08:22:47Z</time>
      </trkpt>
      <trkpt lat="42.003986025229096" lon="13.13094349578023">
        <ele>1295.51001</ele>
        <time>2017-06-13T08:23:00Z</time>
      </trkpt>
      <trkpt lat="42.003847723826766" lon="13.130974173545837">
        <ele>1297.4399410000001</ele>
        <time>2017-06-13T08:23:12Z</time>
      </trkpt>
      <trkpt lat="42.003741106018424" lon="13.131005940958858">
        <ele>1298.880005</ele>
        <time>2017-06-13T08:23:26Z</time>
      </trkpt>
      <trkpt lat="42.003652006387711" lon="13.131010802462697">
        <ele>1300.799927</ele>
        <time>2017-06-13T08:23:38Z</time>
      </trkpt>
      <trkpt lat="42.003514710813761" lon="13.131004935130477">
        <ele>1302.23999</ele>
        <time>2017-06-13T08:23:55Z</time>
      </trkpt>
      <trkpt lat="42.003426365554333" lon="13.131023710593581">
        <ele>1303.690063</ele>
        <time>2017-06-13T08:24:09Z</time>
      </trkpt>
      <trkpt lat="42.003318322822452" lon="13.131040977314115">
        <ele>1305.1298830000001</ele>
        <time>2017-06-13T08:24:24Z</time>
      </trkpt>
      <trkpt lat="42.003216566517949" lon="13.131107026711106">
        <ele>1306.5699460000001</ele>
        <time>2017-06-13T08:24:41Z</time>
      </trkpt>
      <trkpt lat="42.003082791343331" lon="13.131120102480054">
        <ele>1308.01001</ele>
        <time>2017-06-13T08:24:55Z</time>
      </trkpt>
      <trkpt lat="42.002972904592752" lon="13.131194533780217">
        <ele>1308.48999</ele>
        <time>2017-06-13T08:25:09Z</time>
      </trkpt>
      <trkpt lat="42.002880200743675" lon="13.131244741380215">
        <ele>1309.929932</ele>
        <time>2017-06-13T08:25:22Z</time>
      </trkpt>
      <trkpt lat="42.002734271809459" lon="13.131303582340479">
        <ele>1310.900024</ele>
        <time>2017-06-13T08:25:39Z</time>
      </trkpt>
      <trkpt lat="42.002689763903618" lon="13.131322441622615">
        <ele>1311.8599850000001</ele>
        <time>2017-06-13T08:25:46Z</time>
      </trkpt>
      <trkpt lat="42.00254769064486" lon="13.131359992548823">
        <ele>1313.3000489999999</ele>
        <time>2017-06-13T08:26:01Z</time>
      </trkpt>
      <trkpt lat="42.002475103363395" lon="13.131367033347487">
        <ele>1314.740112</ele>
        <time>2017-06-13T08:26:13Z</time>
      </trkpt>
      <trkpt lat="42.002472337335348" lon="13.131370218470693">
        <ele>1314.740112</ele>
        <time>2017-06-13T08:26:14Z</time>
      </trkpt>
      <trkpt lat="42.002361360937357" lon="13.131385976448655">
        <ele>1316.179932</ele>
        <time>2017-06-13T08:26:30Z</time>
      </trkpt>
      <trkpt lat="42.002273686230183" lon="13.131411960348487">
        <ele>1318.589966</ele>
        <time>2017-06-13T08:26:43Z</time>
      </trkpt>
      <trkpt lat="42.002198835834861" lon="13.131425958126783">
        <ele>1319.070068</ele>
        <time>2017-06-13T08:26:53Z</time>
      </trkpt>
      <trkpt lat="42.002124572172761" lon="13.131468035280704">
        <ele>1317.619995</ele>
        <time>2017-06-13T08:27:00Z</time>
      </trkpt>
      <trkpt lat="42.002107305452228" lon="13.131486475467682">
        <ele>1317.619995</ele>
        <time>2017-06-13T08:27:02Z</time>
      </trkpt>
      <trkpt lat="42.002043938264251" lon="13.131568701937795">
        <ele>1317.619995</ele>
        <time>2017-06-13T08:27:16Z</time>
      </trkpt>
      <trkpt lat="42.002040836960077" lon="13.131575575098395">
        <ele>1317.619995</ele>
        <time>2017-06-13T08:27:17Z</time>
      </trkpt>
      <trkpt lat="42.001995490863919" lon="13.131700968369842">
        <ele>1317.619995</ele>
        <time>2017-06-13T08:27:29Z</time>
      </trkpt>
      <trkpt lat="42.001921562477946" lon="13.131802724674344">
        <ele>1316.6599120000001</ele>
        <time>2017-06-13T08:27:42Z</time>
      </trkpt>
      <trkpt lat="42.001911839470267" lon="13.131807837635279">
        <ele>1316.179932</ele>
        <time>2017-06-13T08:27:43Z</time>
      </trkpt>
      <trkpt lat="42.001850064843893" lon="13.131870031356812">
        <ele>1315.6999510000001</ele>
        <time>2017-06-13T08:27:51Z</time>
      </trkpt>
      <trkpt lat="42.001729616895318" lon="13.131939936429262">
        <ele>1315.2200929999999</ele>
        <time>2017-06-13T08:28:04Z</time>
      </trkpt>
      <trkpt lat="42.001692233607173" lon="13.131980337202549">
        <ele>1314.740112</ele>
        <time>2017-06-13T08:28:08Z</time>
      </trkpt>
      <trkpt lat="42.00162417255342" lon="13.132033813744783">
        <ele>1313.780029</ele>
        <time>2017-06-13T08:28:22Z</time>
      </trkpt>
      <trkpt lat="42.001519063487649" lon="13.132049320265651">
        <ele>1313.3000489999999</ele>
        <time>2017-06-13T08:28:37Z</time>
      </trkpt>
      <trkpt lat="42.001507664099336" lon="13.132053092122078">
        <ele>1313.3000489999999</ele>
        <time>2017-06-13T08:28:38Z</time>
      </trkpt>
      <trkpt lat="42.001429628580809" lon="13.132032640278339">
        <ele>1311.380005</ele>
        <time>2017-06-13T08:28:51Z</time>
      </trkpt>
      <trkpt lat="42.001366764307022" lon="13.13204487785697">
        <ele>1312.3400879999999</ele>
        <time>2017-06-13T08:29:02Z</time>
      </trkpt>
      <trkpt lat="42.001302558928728" lon="13.132065162062645">
        <ele>1310.900024</ele>
        <time>2017-06-13T08:29:08Z</time>
      </trkpt>
      <trkpt lat="42.001163167878985" lon="13.13214847818017">
        <ele>1313.780029</ele>
        <time>2017-06-13T08:29:24Z</time>
      </trkpt>
      <trkpt lat="42.001050934195518" lon="13.13222223892808">
        <ele>1315.2200929999999</ele>
        <time>2017-06-13T08:29:39Z</time>
      </trkpt>
      <trkpt lat="42.000985303893685" lon="13.132298933342099">
        <ele>1316.6599120000001</ele>
        <time>2017-06-13T08:29:55Z</time>
      </trkpt>
      <trkpt lat="42.000916739925742" lon="13.132331036031246">
        <ele>1317.619995</ele>
        <time>2017-06-13T08:30:24Z</time>
      </trkpt>
      <trkpt lat="42.00090978294611" lon="13.132458524778485">
        <ele>1320.030029</ele>
        <time>2017-06-13T08:30:39Z</time>
      </trkpt>
      <trkpt lat="42.000872818753123" lon="13.132564891129732">
        <ele>1321.950073</ele>
        <time>2017-06-13T08:30:52Z</time>
      </trkpt>
      <trkpt lat="42.000836189836264" lon="13.132658768445253">
        <ele>1324.830078</ele>
        <time>2017-06-13T08:31:08Z</time>
      </trkpt>
      <trkpt lat="42.000819761306047" lon="13.132822215557098">
        <ele>1327.23999</ele>
        <time>2017-06-13T08:31:24Z</time>
      </trkpt>
      <trkpt lat="42.000773996114731" lon="13.132903771474957">
        <ele>1328.1999510000001</ele>
        <time>2017-06-13T08:31:34Z</time>
      </trkpt>
      <trkpt lat="42.000737534835935" lon="13.132899664342403">
        <ele>1328.1999510000001</ele>
        <time>2017-06-13T08:31:46Z</time>
      </trkpt>
      <trkpt lat="42.000739211216569" lon="13.132918188348413">
        <ele>1328.6800539999999</ele>
        <time>2017-06-13T08:31:49Z</time>
      </trkpt>
      <trkpt lat="42.000761004164815" lon="13.132963199168444">
        <ele>1328.6800539999999</ele>
        <time>2017-06-13T08:31:57Z</time>
      </trkpt>
      <trkpt lat="42.000796459615231" lon="13.133111307397485">
        <ele>1329.160034</ele>
        <time>2017-06-13T08:32:10Z</time>
      </trkpt>
      <trkpt lat="42.000823365524411" lon="13.133240891620517">
        <ele>1329.160034</ele>
        <time>2017-06-13T08:32:22Z</time>
      </trkpt>
      <trkpt lat="42.000820599496365" lon="13.133398136124015">
        <ele>1330.119995</ele>
        <time>2017-06-13T08:32:35Z</time>
      </trkpt>
      <trkpt lat="42.000823030248284" lon="13.133409367874265">
        <ele>1330.119995</ele>
        <time>2017-06-13T08:32:36Z</time>
      </trkpt>
      <trkpt lat="42.000854965299368" lon="13.133576419204473">
        <ele>1331.080078</ele>
        <time>2017-06-13T08:32:50Z</time>
      </trkpt>
      <trkpt lat="42.000917326658964" lon="13.13361338339746">
        <ele>1332.040039</ele>
        <time>2017-06-13T08:33:03Z</time>
      </trkpt>
      <trkpt lat="42.000971222296357" lon="13.133667195215821">
        <ele>1333.01001</ele>
        <time>2017-06-13T08:33:15Z</time>
      </trkpt>
      <trkpt lat="42.001018663868308" lon="13.133716313168406">
        <ele>1334.4499510000001</ele>
        <time>2017-06-13T08:33:25Z</time>
      </trkpt>
      <trkpt lat="42.001055963337421" lon="13.133771466091275">
        <ele>1334.929932</ele>
        <time>2017-06-13T08:33:36Z</time>
      </trkpt>
      <trkpt lat="42.001111535355449" lon="13.133873138576746">
        <ele>1335.8900149999999</ele>
        <time>2017-06-13T08:33:49Z</time>
      </trkpt>
      <trkpt lat="42.001121677458286" lon="13.133909935131669">
        <ele>1336.849976</ele>
        <time>2017-06-13T08:33:52Z</time>
      </trkpt>
      <trkpt lat="42.001132490113378" lon="13.133945725858212">
        <ele>1337.8100589999999</ele>
        <time>2017-06-13T08:34:01Z</time>
      </trkpt>
      <trkpt lat="42.001155121251941" lon="13.133995765820146">
        <ele>1339.25</ele>
        <time>2017-06-13T08:34:07Z</time>
      </trkpt>
      <trkpt lat="42.001156797632575" lon="13.134038597345352">
        <ele>1339.7299800000001</ele>
        <time>2017-06-13T08:34:18Z</time>
      </trkpt>
      <trkpt lat="42.001160318031907" lon="13.134103640913963">
        <ele>1340.6999510000001</ele>
        <time>2017-06-13T08:34:33Z</time>
      </trkpt>
      <trkpt lat="42.001197701320052" lon="13.134172540158033">
        <ele>1342.1400149999999</ele>
        <time>2017-06-13T08:34:40Z</time>
      </trkpt>
      <trkpt lat="42.001170041039586" lon="13.134259711951017">
        <ele>1343.579956</ele>
        <time>2017-06-13T08:34:54Z</time>
      </trkpt>
      <trkpt lat="42.001156210899353" lon="13.134222328662872">
        <ele>1344.059937</ele>
        <time>2017-06-13T08:35:09Z</time>
      </trkpt>
      <trkpt lat="42.001092759892344" lon="13.134207660332322">
        <ele>1344.540039</ele>
        <time>2017-06-13T08:35:22Z</time>
      </trkpt>
      <trkpt lat="42.001082617789507" lon="13.134193159639835">
        <ele>1344.540039</ele>
        <time>2017-06-13T08:35:24Z</time>
      </trkpt>
      <trkpt lat="42.001015897840261" lon="13.134076064452529">
        <ele>1342.619995</ele>
        <time>2017-06-13T08:35:35Z</time>
      </trkpt>
      <trkpt lat="42.000935263931751" lon="13.133973218500614">
        <ele>1340.2200929999999</ele>
        <time>2017-06-13T08:35:48Z</time>
      </trkpt>
      <trkpt lat="42.00091808103025" lon="13.133946899324656">
        <ele>1339.25</ele>
        <time>2017-06-13T08:35:51Z</time>
      </trkpt>
      <trkpt lat="42.000855635851622" lon="13.133832318708301">
        <ele>1336.369995</ele>
        <time>2017-06-13T08:36:04Z</time>
      </trkpt>
      <trkpt lat="42.000844487920403" lon="13.133750259876251">
        <ele>1333.969971</ele>
        <time>2017-06-13T08:36:13Z</time>
      </trkpt>
      <trkpt lat="42.000854127109051" lon="13.133695526048541">
        <ele>1333.01001</ele>
        <time>2017-06-13T08:36:18Z</time>
      </trkpt>
      <trkpt lat="42.000853959470987" lon="13.133586058393121">
        <ele>1332.040039</ele>
        <time>2017-06-13T08:36:25Z</time>
      </trkpt>
      <trkpt lat="42.000824371352792" lon="13.133542807772756">
        <ele>1331.5600589999999</ele>
        <time>2017-06-13T08:36:30Z</time>
      </trkpt>
      <trkpt lat="42.000743988901377" lon="13.133358573541045">
        <ele>1330.119995</ele>
        <time>2017-06-13T08:36:47Z</time>
      </trkpt>
      <trkpt lat="42.000726638361812" lon="13.133421940729022">
        <ele>1329.6400149999999</ele>
        <time>2017-06-13T08:36:59Z</time>
      </trkpt>
      <trkpt lat="42.000682801008224" lon="13.133408194407821">
        <ele>1329.6400149999999</ele>
        <time>2017-06-13T08:37:03Z</time>
      </trkpt>
      <trkpt lat="42.0006615947932" lon="13.133393358439207">
        <ele>1329.6400149999999</ele>
        <time>2017-06-13T08:37:05Z</time>
      </trkpt>
      <trkpt lat="42.000486832112074" lon="13.133420180529356">
        <ele>1331.5600589999999</ele>
        <time>2017-06-13T08:37:20Z</time>
      </trkpt>
      <trkpt lat="42.00040896423161" lon="13.133431999012828">
        <ele>1331.5600589999999</ele>
        <time>2017-06-13T08:37:27Z</time>
      </trkpt>
      <trkpt lat="42.000308884307742" lon="13.133527636528015">
        <ele>1333.48999</ele>
        <time>2017-06-13T08:37:39Z</time>
      </trkpt>
      <trkpt lat="42.000248534604907" lon="13.133606426417828">
        <ele>1333.969971</ele>
        <time>2017-06-13T08:37:48Z</time>
      </trkpt>
      <trkpt lat="42.000205032527447" lon="13.133747326210141">
        <ele>1335.8900149999999</ele>
        <time>2017-06-13T08:38:00Z</time>
      </trkpt>
      <trkpt lat="42.000171504914761" lon="13.133921166881919">
        <ele>1336.369995</ele>
        <time>2017-06-13T08:38:13Z</time>
      </trkpt>
      <trkpt lat="42.00012213550508" lon="13.134024264290929">
        <ele>1336.369995</ele>
        <time>2017-06-13T08:38:21Z</time>
      </trkpt>
      <trkpt lat="42.000018702819943" lon="13.134246384724975">
        <ele>1337.329956</ele>
        <time>2017-06-13T08:38:39Z</time>
      </trkpt>
      <trkpt lat="41.999974530190229" lon="13.134422907605767">
        <ele>1337.329956</ele>
        <time>2017-06-13T08:38:51Z</time>
      </trkpt>
      <trkpt lat="41.999949300661683" lon="13.134486107155681">
        <ele>1337.329956</ele>
        <time>2017-06-13T08:38:55Z</time>
      </trkpt>
      <trkpt lat="41.999892638996243" lon="13.13468006439507">
        <ele>1337.8100589999999</ele>
        <time>2017-06-13T08:39:09Z</time>
      </trkpt>
      <trkpt lat="41.999818626791239" lon="13.134890869259834">
        <ele>1339.25</ele>
        <time>2017-06-13T08:39:25Z</time>
      </trkpt>
      <trkpt lat="41.999772861599922" lon="13.13505532220006">
        <ele>1337.8100589999999</ele>
        <time>2017-06-13T08:39:39Z</time>
      </trkpt>
      <trkpt lat="41.999769425019622" lon="13.135069236159325">
        <ele>1337.8100589999999</ele>
        <time>2017-06-13T08:39:40Z</time>
      </trkpt>
      <trkpt lat="41.999738411977887" lon="13.135141739621758">
        <ele>1337.329956</ele>
        <time>2017-06-13T08:39:45Z</time>
      </trkpt>
      <trkpt lat="41.999719804152846" lon="13.135348437353969">
        <ele>1336.849976</ele>
        <time>2017-06-13T08:40:01Z</time>
      </trkpt>
      <trkpt lat="41.999717373400927" lon="13.135363105684519">
        <ele>1336.849976</ele>
        <time>2017-06-13T08:40:04Z</time>
      </trkpt>
      <trkpt lat="41.999644618481398" lon="13.135595200583339">
        <ele>1335.410034</ele>
        <time>2017-06-13T08:40:20Z</time>
      </trkpt>
      <trkpt lat="41.999591561034322" lon="13.135850261896849">
        <ele>1333.969971</ele>
        <time>2017-06-13T08:40:35Z</time>
      </trkpt>
      <trkpt lat="41.999566163867712" lon="13.135981941595674">
        <ele>1335.410034</ele>
        <time>2017-06-13T08:40:42Z</time>
      </trkpt>
      <trkpt lat="41.999497767537832" lon="13.136260220780969">
        <ele>1334.4499510000001</ele>
        <time>2017-06-13T08:40:58Z</time>
      </trkpt>
      <trkpt lat="41.99949718080461" lon="13.136337334290147">
        <ele>1334.4499510000001</ele>
        <time>2017-06-13T08:41:03Z</time>
      </trkpt>
      <trkpt lat="41.999428197741508" lon="13.136564064770937">
        <ele>1335.8900149999999</ele>
        <time>2017-06-13T08:41:18Z</time>
      </trkpt>
      <trkpt lat="41.999365584924817" lon="13.136809319257736">
        <ele>1335.8900149999999</ele>
        <time>2017-06-13T08:41:34Z</time>
      </trkpt>
      <trkpt lat="41.999345887452364" lon="13.136884085834026">
        <ele>1335.8900149999999</ele>
        <time>2017-06-13T08:41:39Z</time>
      </trkpt>
      <trkpt lat="41.9991868827492" lon="13.137116096913815">
        <ele>1334.4499510000001</ele>
        <time>2017-06-13T08:41:56Z</time>
      </trkpt>
      <trkpt lat="41.999026872217655" lon="13.137324471026659">
        <ele>1334.4499510000001</ele>
        <time>2017-06-13T08:42:14Z</time>
      </trkpt>
      <trkpt lat="41.999015305191278" lon="13.137413822114468">
        <ele>1334.929932</ele>
        <time>2017-06-13T08:42:20Z</time>
      </trkpt>
      <trkpt lat="41.998910196125507" lon="13.137621441856027">
        <ele>1334.4499510000001</ele>
        <time>2017-06-13T08:42:32Z</time>
      </trkpt>
      <trkpt lat="41.998876836150885" lon="13.137773238122463">
        <ele>1334.4499510000001</ele>
        <time>2017-06-13T08:42:45Z</time>
      </trkpt>
      <trkpt lat="41.998712299391627" lon="13.138055121526122">
        <ele>1334.4499510000001</ele>
        <time>2017-06-13T08:43:00Z</time>
      </trkpt>
      <trkpt lat="41.998666198924184" lon="13.138173725455999">
        <ele>1335.410034</ele>
        <time>2017-06-13T08:43:06Z</time>
      </trkpt>
      <trkpt lat="41.998664690181613" lon="13.13818596303463">
        <ele>1335.410034</ele>
        <time>2017-06-13T08:43:07Z</time>
      </trkpt>
      <trkpt lat="41.998630072921515" lon="13.138409340754151">
        <ele>1336.369995</ele>
        <time>2017-06-13T08:43:23Z</time>
      </trkpt>
      <trkpt lat="41.998630994930863" lon="13.138458961620927">
        <ele>1336.849976</ele>
        <time>2017-06-13T08:43:26Z</time>
      </trkpt>
      <trkpt lat="41.998628731817007" lon="13.138480335474014">
        <ele>1336.849976</ele>
        <time>2017-06-13T08:43:27Z</time>
      </trkpt>
      <trkpt lat="41.998624624684453" lon="13.138497099280357">
        <ele>1336.849976</ele>
        <time>2017-06-13T08:43:28Z</time>
      </trkpt>
      <trkpt lat="41.998617835342884" lon="13.13851679675281">
        <ele>1336.849976</ele>
        <time>2017-06-13T08:43:29Z</time>
      </trkpt>
      <trkpt lat="41.998611129820347" lon="13.138532973825932">
        <ele>1336.849976</ele>
        <time>2017-06-13T08:43:30Z</time>
      </trkpt>
      <trkpt lat="41.99851012788713" lon="13.138751238584518">
        <ele>1338.7700199999999</ele>
        <time>2017-06-13T08:43:44Z</time>
      </trkpt>
      <trkpt lat="41.998430499807" lon="13.13889691606164">
        <ele>1339.25</ele>
        <time>2017-06-13T08:43:58Z</time>
      </trkpt>
      <trkpt lat="41.998355565592647" lon="13.139086179435253">
        <ele>1339.25</ele>
        <time>2017-06-13T08:44:10Z</time>
      </trkpt>
      <trkpt lat="41.998211480677128" lon="13.139290865510702">
        <ele>1337.329956</ele>
        <time>2017-06-13T08:44:23Z</time>
      </trkpt>
      <trkpt lat="41.998184826225042" lon="13.139346186071634">
        <ele>1337.329956</ele>
        <time>2017-06-13T08:44:27Z</time>
      </trkpt>
      <trkpt lat="41.998180383816361" lon="13.139358339831233">
        <ele>1337.329956</ele>
        <time>2017-06-13T08:44:28Z</time>
      </trkpt>
      <trkpt lat="41.998173510655761" lon="13.139373175799847">
        <ele>1337.329956</ele>
        <time>2017-06-13T08:44:29Z</time>
      </trkpt>
      <trkpt lat="41.998067479580641" lon="13.139563864096999">
        <ele>1337.329956</ele>
        <time>2017-06-13T08:44:43Z</time>
      </trkpt>
      <trkpt lat="41.998004196211696" lon="13.139730663970113">
        <ele>1337.329956</ele>
        <time>2017-06-13T08:44:56Z</time>
      </trkpt>
      <trkpt lat="41.997920880094171" lon="13.1399005651474">
        <ele>1337.329956</ele>
        <time>2017-06-13T08:45:08Z</time>
      </trkpt>
      <trkpt lat="41.997830523177981" lon="13.140097036957741">
        <ele>1337.329956</ele>
        <time>2017-06-13T08:45:22Z</time>
      </trkpt>
      <trkpt lat="41.997828260064125" lon="13.140113716945052">
        <ele>1337.329956</ele>
        <time>2017-06-13T08:45:23Z</time>
      </trkpt>
      <trkpt lat="41.997774364426732" lon="13.140317564830184">
        <ele>1339.25</ele>
        <time>2017-06-13T08:45:36Z</time>
      </trkpt>
      <trkpt lat="41.997677637264132" lon="13.140417225658894">
        <ele>1341.179932</ele>
        <time>2017-06-13T08:45:47Z</time>
      </trkpt>
      <trkpt lat="41.997585603967309" lon="13.140541864559054">
        <ele>1342.1400149999999</ele>
        <time>2017-06-13T08:46:01Z</time>
      </trkpt>
      <trkpt lat="41.997496671974659" lon="13.140651918947697">
        <ele>1342.619995</ele>
        <time>2017-06-13T08:46:13Z</time>
      </trkpt>
      <trkpt lat="41.997396508231759" lon="13.140801871195436">
        <ele>1340.6999510000001</ele>
        <time>2017-06-13T08:46:27Z</time>
      </trkpt>
      <trkpt lat="41.997234234586358" lon="13.14096380956471">
        <ele>1340.6999510000001</ele>
        <time>2017-06-13T08:46:41Z</time>
      </trkpt>
      <trkpt lat="41.997125772759318" lon="13.141129435971379">
        <ele>1341.6599120000001</ele>
        <time>2017-06-13T08:46:55Z</time>
      </trkpt>
      <trkpt lat="41.99698219075799" lon="13.141244016587734">
        <ele>1343.099976</ele>
        <time>2017-06-13T08:47:08Z</time>
      </trkpt>
      <trkpt lat="41.996973641216755" lon="13.141249213367701">
        <ele>1343.579956</ele>
        <time>2017-06-13T08:47:09Z</time>
      </trkpt>
      <trkpt lat="41.99696023017168" lon="13.141251560300589">
        <ele>1343.579956</ele>
        <time>2017-06-13T08:47:10Z</time>
      </trkpt>
      <trkpt lat="41.996946064755321" lon="13.141249381005764">
        <ele>1343.579956</ele>
        <time>2017-06-13T08:47:11Z</time>
      </trkpt>
      <trkpt lat="41.996932318434119" lon="13.141249129548669">
        <ele>1344.059937</ele>
        <time>2017-06-13T08:47:12Z</time>
      </trkpt>
      <trkpt lat="41.996921338140965" lon="13.141250722110271">
        <ele>1344.059937</ele>
        <time>2017-06-13T08:47:13Z</time>
      </trkpt>
      <trkpt lat="41.996843302622437" lon="13.141320878639817">
        <ele>1345.9799800000001</ele>
        <time>2017-06-13T08:47:24Z</time>
      </trkpt>
      <trkpt lat="41.996794939041138" lon="13.141387430950999">
        <ele>1347.910034</ele>
        <time>2017-06-13T08:47:32Z</time>
      </trkpt>
      <trkpt lat="41.996790496632457" lon="13.141402937471867">
        <ele>1347.910034</ele>
        <time>2017-06-13T08:47:33Z</time>
      </trkpt>
      <trkpt lat="41.9967847969383" lon="13.14144073985517">
        <ele>1348.3900149999999</ele>
        <time>2017-06-13T08:47:37Z</time>
      </trkpt>
      <trkpt lat="41.996765518561006" lon="13.141479128971696">
        <ele>1348.8698730000001</ele>
        <time>2017-06-13T08:47:41Z</time>
      </trkpt>
      <trkpt lat="41.996754873543978" lon="13.141530761495233">
        <ele>1349.830078</ele>
        <time>2017-06-13T08:47:46Z</time>
      </trkpt>
      <trkpt lat="41.996748335659504" lon="13.141540484502912">
        <ele>1349.830078</ele>
        <time>2017-06-13T08:47:47Z</time>
      </trkpt>
      <trkpt lat="41.996691422536969" lon="13.141597732901573">
        <ele>1350.309937</ele>
        <time>2017-06-13T08:47:57Z</time>
      </trkpt>
      <trkpt lat="41.99663870036602" lon="13.141599828377366">
        <ele>1350.309937</ele>
        <time>2017-06-13T08:48:08Z</time>
      </trkpt>
      <trkpt lat="41.996620679274201" lon="13.141616089269519">
        <ele>1350.309937</ele>
        <time>2017-06-13T08:48:19Z</time>
      </trkpt>
      <trkpt lat="41.996553875505924" lon="13.141714325174689">
        <ele>1346.940063</ele>
        <time>2017-06-13T08:48:32Z</time>
      </trkpt>
      <trkpt lat="41.996489837765694" lon="13.141834186390042">
        <ele>1345.0200199999999</ele>
        <time>2017-06-13T08:48:44Z</time>
      </trkpt>
      <trkpt lat="41.996400319039822" lon="13.142047338187695">
        <ele>1344.059937</ele>
        <time>2017-06-13T08:48:59Z</time>
      </trkpt>
      <trkpt lat="41.996361427009106" lon="13.142183041200042">
        <ele>1343.099976</ele>
        <time>2017-06-13T08:49:08Z</time>
      </trkpt>
      <trkpt lat="41.996356230229139" lon="13.142194775864482">
        <ele>1343.099976</ele>
        <time>2017-06-13T08:49:09Z</time>
      </trkpt>
      <trkpt lat="41.996350614354014" lon="13.142211623489857">
        <ele>1343.099976</ele>
        <time>2017-06-13T08:49:10Z</time>
      </trkpt>
      <trkpt lat="41.996345920488238" lon="13.142229225486517">
        <ele>1343.099976</ele>
        <time>2017-06-13T08:49:11Z</time>
      </trkpt>
      <trkpt lat="41.99634013697505" lon="13.142245570197701">
        <ele>1343.099976</ele>
        <time>2017-06-13T08:49:12Z</time>
      </trkpt>
      <trkpt lat="41.996332677081227" lon="13.142259484156966">
        <ele>1343.099976</ele>
        <time>2017-06-13T08:49:13Z</time>
      </trkpt>
      <trkpt lat="41.996323205530643" lon="13.14227482303977">
        <ele>1343.099976</ele>
        <time>2017-06-13T08:49:14Z</time>
      </trkpt>
      <trkpt lat="41.996312728151679" lon="13.142296867445111">
        <ele>1343.099976</ele>
        <time>2017-06-13T08:49:15Z</time>
      </trkpt>
      <trkpt lat="41.996301915496588" lon="13.142316984012723">
        <ele>1343.099976</ele>
        <time>2017-06-13T08:49:16Z</time>
      </trkpt>
      <trkpt lat="41.996283726766706" lon="13.142404574900866">
        <ele>1343.099976</ele>
        <time>2017-06-13T08:49:21Z</time>
      </trkpt>
      <trkpt lat="41.996284564957023" lon="13.142424020916224">
        <ele>1342.619995</ele>
        <time>2017-06-13T08:49:22Z</time>
      </trkpt>
      <trkpt lat="41.996195968240499" lon="13.142657959833741">
        <ele>1342.1400149999999</ele>
        <time>2017-06-13T08:49:37Z</time>
      </trkpt>
      <trkpt lat="41.996189178898931" lon="13.142692241817713">
        <ele>1342.1400149999999</ele>
        <time>2017-06-13T08:49:42Z</time>
      </trkpt>
      <trkpt lat="41.996139725670218" lon="13.142841691151261">
        <ele>1342.1400149999999</ele>
        <time>2017-06-13T08:49:54Z</time>
      </trkpt>
      <trkpt lat="41.996002765372396" lon="13.14309231005609">
        <ele>1341.6599120000001</ele>
        <time>2017-06-13T08:50:12Z</time>
      </trkpt>
      <trkpt lat="41.995825069025159" lon="13.14333907328546">
        <ele>1341.179932</ele>
        <time>2017-06-13T08:50:29Z</time>
      </trkpt>
      <trkpt lat="41.995741836726665" lon="13.143499670550227">
        <ele>1341.179932</ele>
        <time>2017-06-13T08:50:43Z</time>
      </trkpt>
      <trkpt lat="41.995728928595781" lon="13.14350956119597">
        <ele>1341.179932</ele>
        <time>2017-06-13T08:50:44Z</time>
      </trkpt>
      <trkpt lat="41.995716188102961" lon="13.143518697470427">
        <ele>1341.179932</ele>
        <time>2017-06-13T08:50:45Z</time>
      </trkpt>
      <trkpt lat="41.995603535324335" lon="13.143638307228684">
        <ele>1341.179932</ele>
        <time>2017-06-13T08:50:55Z</time>
      </trkpt>
      <trkpt lat="41.995529187843204" lon="13.143858164548874">
        <ele>1341.6599120000001</ele>
        <time>2017-06-13T08:51:09Z</time>
      </trkpt>
      <trkpt lat="41.995437238365412" lon="13.144024629145861">
        <ele>1341.6599120000001</ele>
        <time>2017-06-13T08:51:21Z</time>
      </trkpt>
      <trkpt lat="41.995430197566748" lon="13.144040470942855">
        <ele>1341.6599120000001</ele>
        <time>2017-06-13T08:51:22Z</time>
      </trkpt>
      <trkpt lat="41.995420726016164" lon="13.144055558368564">
        <ele>1341.6599120000001</ele>
        <time>2017-06-13T08:51:23Z</time>
      </trkpt>
      <trkpt lat="41.995413936674595" lon="13.144071232527494">
        <ele>1341.6599120000001</ele>
        <time>2017-06-13T08:51:24Z</time>
      </trkpt>
      <trkpt lat="41.995407314971089" lon="13.144088080152869">
        <ele>1341.6599120000001</ele>
        <time>2017-06-13T08:51:25Z</time>
      </trkpt>
      <trkpt lat="41.99539658613503" lon="13.144102161750197">
        <ele>1341.6599120000001</ele>
        <time>2017-06-13T08:51:26Z</time>
      </trkpt>
      <trkpt lat="41.995287118479609" lon="13.144236523658037">
        <ele>1341.6599120000001</ele>
        <time>2017-06-13T08:51:37Z</time>
      </trkpt>
      <trkpt lat="41.995238419622183" lon="13.144284300506115">
        <ele>1341.6599120000001</ele>
        <time>2017-06-13T08:51:43Z</time>
      </trkpt>
      <trkpt lat="41.995179411023855" lon="13.144319839775562">
        <ele>1342.619995</ele>
        <time>2017-06-13T08:51:47Z</time>
      </trkpt>
      <trkpt lat="41.995057705789804" lon="13.144461326301098">
        <ele>1342.619995</ele>
        <time>2017-06-13T08:52:01Z</time>
      </trkpt>
      <trkpt lat="41.994890738278627" lon="13.144631898030639">
        <ele>1343.099976</ele>
        <time>2017-06-13T08:52:14Z</time>
      </trkpt>
      <trkpt lat="41.994871962815523" lon="13.144679758697748">
        <ele>1344.059937</ele>
        <time>2017-06-13T08:52:18Z</time>
      </trkpt>
      <trkpt lat="41.994867185130715" lon="13.144691912457347">
        <ele>1344.059937</ele>
        <time>2017-06-13T08:52:19Z</time>
      </trkpt>
      <trkpt lat="41.994846565648913" lon="13.144729966297746">
        <ele>1344.059937</ele>
        <time>2017-06-13T08:52:22Z</time>
      </trkpt>
      <trkpt lat="41.994833238422871" lon="13.144741533324122">
        <ele>1344.059937</ele>
        <time>2017-06-13T08:52:23Z</time>
      </trkpt>
      <trkpt lat="41.994739361107349" lon="13.144924091175199">
        <ele>1342.619995</ele>
        <time>2017-06-13T08:52:38Z</time>
      </trkpt>
      <trkpt lat="41.994723435491323" lon="13.144976561889052">
        <ele>1342.619995</ele>
        <time>2017-06-13T08:52:42Z</time>
      </trkpt>
      <trkpt lat="41.99471203610301" lon="13.144992738962173">
        <ele>1342.1400149999999</ele>
        <time>2017-06-13T08:52:43Z</time>
      </trkpt>
      <trkpt lat="41.994697786867619" lon="13.14500380307436">
        <ele>1342.1400149999999</ele>
        <time>2017-06-13T08:52:44Z</time>
      </trkpt>
      <trkpt lat="41.99454783461988" lon="13.145122239366174">
        <ele>1341.6599120000001</ele>
        <time>2017-06-13T08:52:57Z</time>
      </trkpt>
      <trkpt lat="41.994519336149096" lon="13.145167166367173">
        <ele>1341.6599120000001</ele>
        <time>2017-06-13T08:53:01Z</time>
      </trkpt>
      <trkpt lat="41.994308866560459" lon="13.145390879362822">
        <ele>1341.6599120000001</ele>
        <time>2017-06-13T08:53:17Z</time>
      </trkpt>
      <trkpt lat="41.994262766093016" lon="13.145535634830594">
        <ele>1341.179932</ele>
        <time>2017-06-13T08:53:30Z</time>
      </trkpt>
      <trkpt lat="41.994171570986509" lon="13.145684665068984">
        <ele>1339.7299800000001</ele>
        <time>2017-06-13T08:53:43Z</time>
      </trkpt>
      <trkpt lat="41.994098899886012" lon="13.145817769691348">
        <ele>1338.7700199999999</ele>
        <time>2017-06-13T08:53:54Z</time>
      </trkpt>
      <trkpt lat="41.993978284299374" lon="13.145944084972143">
        <ele>1337.8100589999999</ele>
        <time>2017-06-13T08:54:06Z</time>
      </trkpt>
      <trkpt lat="41.993962023407221" lon="13.14595079049468">
        <ele>1337.329956</ele>
        <time>2017-06-13T08:54:07Z</time>
      </trkpt>
      <trkpt lat="41.993869487196207" lon="13.14600451849401">
        <ele>1336.849976</ele>
        <time>2017-06-13T08:54:15Z</time>
      </trkpt>
      <trkpt lat="41.993818692862988" lon="13.146053217351437">
        <ele>1336.369995</ele>
        <time>2017-06-13T08:54:21Z</time>
      </trkpt>
      <trkpt lat="41.993686426430941" lon="13.146160505712032">
        <ele>1336.369995</ele>
        <time>2017-06-13T08:54:32Z</time>
      </trkpt>
      <trkpt lat="41.993574611842632" lon="13.146274164319038">
        <ele>1336.369995</ele>
        <time>2017-06-13T08:54:44Z</time>
      </trkpt>
      <trkpt lat="41.993535971269011" lon="13.146339962258935">
        <ele>1335.410034</ele>
        <time>2017-06-13T08:54:56Z</time>
      </trkpt>
      <trkpt lat="41.993414182215929" lon="13.146448424085975">
        <ele>1334.4499510000001</ele>
        <time>2017-06-13T08:55:06Z</time>
      </trkpt>
      <trkpt lat="41.993364561349154" lon="13.146534506231546">
        <ele>1333.48999</ele>
        <time>2017-06-13T08:55:15Z</time>
      </trkpt>
      <trkpt lat="41.993346959352493" lon="13.146540792658925">
        <ele>1333.48999</ele>
        <time>2017-06-13T08:55:16Z</time>
      </trkpt>
      <trkpt lat="41.993329441174865" lon="13.14654691144824">
        <ele>1333.48999</ele>
        <time>2017-06-13T08:55:17Z</time>
      </trkpt>
      <trkpt lat="41.99331016279757" lon="13.146553784608841">
        <ele>1333.48999</ele>
        <time>2017-06-13T08:55:18Z</time>
      </trkpt>
      <trkpt lat="41.993293315172195" lon="13.146562920883298">
        <ele>1333.48999</ele>
        <time>2017-06-13T08:55:19Z</time>
      </trkpt>
      <trkpt lat="41.993279904127121" lon="13.146576164290309">
        <ele>1333.48999</ele>
        <time>2017-06-13T08:55:20Z</time>
      </trkpt>
      <trkpt lat="41.993250399827957" lon="13.146607177332044">
        <ele>1333.48999</ele>
        <time>2017-06-13T08:55:24Z</time>
      </trkpt>
      <trkpt lat="41.993241934105754" lon="13.146619498729706">
        <ele>1333.48999</ele>
        <time>2017-06-13T08:55:25Z</time>
      </trkpt>
      <trkpt lat="41.993216369301081" lon="13.146648332476616">
        <ele>1333.01001</ele>
        <time>2017-06-13T08:55:28Z</time>
      </trkpt>
      <trkpt lat="41.99320362880826" lon="13.146653026342392">
        <ele>1333.01001</ele>
        <time>2017-06-13T08:55:29Z</time>
      </trkpt>
      <trkpt lat="41.993189631029963" lon="13.14665537327528">
        <ele>1333.01001</ele>
        <time>2017-06-13T08:55:30Z</time>
      </trkpt>
      <trkpt lat="41.993173034861684" lon="13.146658474579453">
        <ele>1333.01001</ele>
        <time>2017-06-13T08:55:31Z</time>
      </trkpt>
      <trkpt lat="41.993157612159848" lon="13.146663000807166">
        <ele>1333.01001</ele>
        <time>2017-06-13T08:55:32Z</time>
      </trkpt>
      <trkpt lat="41.993111511692405" lon="13.146687475964427">
        <ele>1333.01001</ele>
        <time>2017-06-13T08:55:35Z</time>
      </trkpt>
      <trkpt lat="41.993102040141821" lon="13.146697198972106">
        <ele>1332.5200199999999</ele>
        <time>2017-06-13T08:55:36Z</time>
      </trkpt>
      <trkpt lat="41.993093239143491" lon="13.146706838160753">
        <ele>1332.5200199999999</ele>
        <time>2017-06-13T08:55:37Z</time>
      </trkpt>
      <trkpt lat="41.993055269122124" lon="13.146762410178781">
        <ele>1332.5200199999999</ele>
        <time>2017-06-13T08:55:53Z</time>
      </trkpt>
      <trkpt lat="41.99305116198957" lon="13.146766433492303">
        <ele>1332.5200199999999</ele>
        <time>2017-06-13T08:55:55Z</time>
      </trkpt>
      <trkpt lat="41.993039008229971" lon="13.146774061024189">
        <ele>1332.5200199999999</ele>
        <time>2017-06-13T08:55:56Z</time>
      </trkpt>
      <trkpt lat="41.993030961602926" lon="13.146781604737043">
        <ele>1332.5200199999999</ele>
        <time>2017-06-13T08:55:57Z</time>
      </trkpt>
      <trkpt lat="41.993018472567201" lon="13.146804235875607">
        <ele>1332.5200199999999</ele>
        <time>2017-06-13T08:55:59Z</time>
      </trkpt>
      <trkpt lat="41.993014197796583" lon="13.146817227825522">
        <ele>1332.5200199999999</ele>
        <time>2017-06-13T08:56:00Z</time>
      </trkpt>
      <trkpt lat="41.992895007133484" lon="13.146992828696966">
        <ele>1332.040039</ele>
        <time>2017-06-13T08:56:14Z</time>
      </trkpt>
      <trkpt lat="41.992787634953856" lon="13.147149402648211">
        <ele>1331.5600589999999</ele>
        <time>2017-06-13T08:56:28Z</time>
      </trkpt>
      <trkpt lat="41.992776738479733" lon="13.147159712389112">
        <ele>1331.080078</ele>
        <time>2017-06-13T08:56:29Z</time>
      </trkpt>
      <trkpt lat="41.992763327434659" lon="13.147172117605805">
        <ele>1331.080078</ele>
        <time>2017-06-13T08:56:30Z</time>
      </trkpt>
      <trkpt lat="41.992746982723475" lon="13.147187037393451">
        <ele>1331.080078</ele>
        <time>2017-06-13T08:56:31Z</time>
      </trkpt>
      <trkpt lat="41.992733236402273" lon="13.147201621904969">
        <ele>1331.080078</ele>
        <time>2017-06-13T08:56:32Z</time>
      </trkpt>
      <trkpt lat="41.992655536159873" lon="13.147315112873912">
        <ele>1330.599976</ele>
        <time>2017-06-13T08:56:42Z</time>
      </trkpt>
      <trkpt lat="41.992638437077403" lon="13.147340761497617">
        <ele>1330.599976</ele>
        <time>2017-06-13T08:56:44Z</time>
      </trkpt>
      <trkpt lat="41.992625612765551" lon="13.147344700992107">
        <ele>1331.080078</ele>
        <time>2017-06-13T08:56:59Z</time>
      </trkpt>
      <trkpt lat="41.992633827030659" lon="13.147343611344695">
        <ele>1330.599976</ele>
        <time>2017-06-13T08:57:15Z</time>
      </trkpt>
      <trkpt lat="41.992630641907454" lon="13.147340258583426">
        <ele>1330.599976</ele>
        <time>2017-06-13T08:57:37Z</time>
      </trkpt>
      <trkpt lat="41.992624774575233" lon="13.147381329908967">
        <ele>1330.599976</ele>
        <time>2017-06-13T08:57:53Z</time>
      </trkpt>
      <trkpt lat="41.992608765140176" lon="13.147393064573407">
        <ele>1330.599976</ele>
        <time>2017-06-13T08:57:55Z</time>
      </trkpt>
      <trkpt lat="41.992579512298107" lon="13.147350065410137">
        <ele>1330.599976</ele>
        <time>2017-06-13T08:58:06Z</time>
      </trkpt>
      <trkpt lat="41.992557467892766" lon="13.147322405129671">
        <ele>1330.599976</ele>
        <time>2017-06-13T08:58:16Z</time>
      </trkpt>
      <trkpt lat="41.99256643652916" lon="13.147328775376081">
        <ele>1330.599976</ele>
        <time>2017-06-13T08:58:33Z</time>
      </trkpt>
      <trkpt lat="41.992562664672732" lon="13.147324165329337">
        <ele>1330.599976</ele>
        <time>2017-06-13T08:59:04Z</time>
      </trkpt>
      <trkpt lat="41.992549169808626" lon="13.147313268855214">
        <ele>1331.080078</ele>
        <time>2017-06-13T08:59:32Z</time>
      </trkpt>
      <trkpt lat="41.992557384073734" lon="13.147301366552711">
        <ele>1330.599976</ele>
        <time>2017-06-13T09:00:08Z</time>
      </trkpt>
      <trkpt lat="41.99255621060729" lon="13.147350735962391">
        <ele>1330.599976</ele>
        <time>2017-06-13T09:00:53Z</time>
      </trkpt>
      <trkpt lat="41.992556881159544" lon="13.147315364331007">
        <ele>1330.599976</ele>
        <time>2017-06-13T09:01:08Z</time>
      </trkpt>
      <trkpt lat="41.992557635530829" lon="13.147300109267235">
        <ele>1330.599976</ele>
        <time>2017-06-13T09:01:48Z</time>
      </trkpt>
      <trkpt lat="41.992574734613299" lon="13.147331038489938">
        <ele>1330.599976</ele>
        <time>2017-06-13T09:02:13Z</time>
      </trkpt>
      <trkpt lat="41.99257230386138" lon="13.147334307432175">
        <ele>1330.599976</ele>
        <time>2017-06-13T09:02:48Z</time>
      </trkpt>
      <trkpt lat="41.992563419044018" lon="13.147323997691274">
        <ele>1331.080078</ele>
        <time>2017-06-13T09:03:09Z</time>
      </trkpt>
      <trkpt lat="41.992547158151865" lon="13.147284435108304">
        <ele>1331.080078</ele>
        <time>2017-06-13T09:03:47Z</time>
      </trkpt>
      <trkpt lat="41.992543218657374" lon="13.147302037104964">
        <ele>1330.119995</ele>
        <time>2017-06-13T09:04:24Z</time>
      </trkpt>
      <trkpt lat="41.992529137060046" lon="13.147304803133011">
        <ele>1331.5600589999999</ele>
        <time>2017-06-13T09:05:01Z</time>
      </trkpt>
      <trkpt lat="41.992537016049027" lon="13.147294661030173">
        <ele>1331.5600589999999</ele>
        <time>2017-06-13T09:05:44Z</time>
      </trkpt>
      <trkpt lat="41.992538189515471" lon="13.147405805066228">
        <ele>1320.030029</ele>
        <time>2017-06-13T09:13:28Z</time>
      </trkpt>
      <trkpt lat="41.992538440972567" lon="13.147406224161386">
        <ele>1320.030029</ele>
        <time>2017-06-13T09:13:29Z</time>
      </trkpt>
      <trkpt lat="41.992555372416973" lon="13.147329362109303">
        <ele>1321.950073</ele>
        <time>2017-06-13T09:13:34Z</time>
      </trkpt>
      <trkpt lat="41.992556881159544" lon="13.147333888337016">
        <ele>1324.830078</ele>
        <time>2017-06-13T09:13:46Z</time>
      </trkpt>
      <trkpt lat="41.992560233920813" lon="13.147332714870572">
        <ele>1327.719971</ele>
        <time>2017-06-13T09:14:03Z</time>
      </trkpt>
      <trkpt lat="41.992530394345522" lon="13.147322908043861">
        <ele>1328.1999510000001</ele>
        <time>2017-06-13T09:14:07Z</time>
      </trkpt>
      <trkpt lat="41.992394691333175" lon="13.147258535027504">
        <ele>1327.23999</ele>
        <time>2017-06-13T09:14:21Z</time>
      </trkpt>
      <trkpt lat="41.992270471528172" lon="13.147137332707644">
        <ele>1326.76001</ele>
        <time>2017-06-13T09:14:34Z</time>
      </trkpt>
      <trkpt lat="41.992143820971251" lon="13.147041779011488">
        <ele>1325.309937</ele>
        <time>2017-06-13T09:14:46Z</time>
      </trkpt>
      <trkpt lat="41.992010129615664" lon="13.146990314126015">
        <ele>1324.3500979999999</ele>
        <time>2017-06-13T09:15:00Z</time>
      </trkpt>
      <trkpt lat="41.991820363327861" lon="13.146956702694297">
        <ele>1323.8698730000001</ele>
        <time>2017-06-13T09:15:15Z</time>
      </trkpt>
      <trkpt lat="41.991624562069774" lon="13.146838266402483">
        <ele>1323.3900149999999</ele>
        <time>2017-06-13T09:15:31Z</time>
      </trkpt>
      <trkpt lat="41.991436220705509" lon="13.14669250510633">
        <ele>1322.910034</ele>
        <time>2017-06-13T09:15:49Z</time>
      </trkpt>
      <trkpt lat="41.991300936788321" lon="13.146608518436551">
        <ele>1321.950073</ele>
        <time>2017-06-13T09:16:02Z</time>
      </trkpt>
      <trkpt lat="41.991085940971971" lon="13.146616397425532">
        <ele>1320.51001</ele>
        <time>2017-06-13T09:16:19Z</time>
      </trkpt>
      <trkpt lat="41.990922410041094" lon="13.146604159846902">
        <ele>1320.98999</ele>
        <time>2017-06-13T09:16:33Z</time>
      </trkpt>
      <trkpt lat="41.990735828876495" lon="13.146592173725367">
        <ele>1320.51001</ele>
        <time>2017-06-13T09:16:48Z</time>
      </trkpt>
      <trkpt lat="41.990571627393365" lon="13.146516401320696">
        <ele>1319.5500489999999</ele>
        <time>2017-06-13T09:17:01Z</time>
      </trkpt>
      <trkpt lat="41.990405078977346" lon="13.14641741104424">
        <ele>1319.5500489999999</ele>
        <time>2017-06-13T09:17:16Z</time>
      </trkpt>
      <trkpt lat="41.990249007940292" lon="13.146265363320708">
        <ele>1319.070068</ele>
        <time>2017-06-13T09:17:30Z</time>
      </trkpt>
      <trkpt lat="41.990113221108913" lon="13.146205432713032">
        <ele>1319.070068</ele>
        <time>2017-06-13T09:17:43Z</time>
      </trkpt>
      <trkpt lat="41.990062510594726" lon="13.146197721362114">
        <ele>1319.070068</ele>
        <time>2017-06-13T09:17:47Z</time>
      </trkpt>
      <trkpt lat="41.989873414859176" lon="13.146178862079978">
        <ele>1319.070068</ele>
        <time>2017-06-13T09:18:03Z</time>
      </trkpt>
      <trkpt lat="41.989707034081221" lon="13.146209958940744">
        <ele>1319.5500489999999</ele>
        <time>2017-06-13T09:18:17Z</time>
      </trkpt>
      <trkpt lat="41.989552136510611" lon="13.146206941455603">
        <ele>1318.589966</ele>
        <time>2017-06-13T09:18:31Z</time>
      </trkpt>
      <trkpt lat="41.989487763494253" lon="13.146212641149759">
        <ele>1318.099976</ele>
        <time>2017-06-13T09:18:36Z</time>
      </trkpt>
      <trkpt lat="41.989359939470887" lon="13.14622881822288">
        <ele>1316.6599120000001</ele>
        <time>2017-06-13T09:18:48Z</time>
      </trkpt>
      <trkpt lat="41.989217363297939" lon="13.146252874284983">
        <ele>1315.6999510000001</ele>
        <time>2017-06-13T09:18:59Z</time>
      </trkpt>
      <trkpt lat="41.98917587287724" lon="13.146273996680975">
        <ele>1315.6999510000001</ele>
        <time>2017-06-13T09:19:03Z</time>
      </trkpt>
      <trkpt lat="41.988978227600455" lon="13.146359072998166">
        <ele>1315.6999510000001</ele>
        <time>2017-06-13T09:19:20Z</time>
      </trkpt>
      <trkpt lat="41.988767590373755" lon="13.146444736048579">
        <ele>1316.179932</ele>
        <time>2017-06-13T09:19:35Z</time>
      </trkpt>
      <trkpt lat="41.988690560683608" lon="13.146461499854922">
        <ele>1316.179932</ele>
        <time>2017-06-13T09:19:43Z</time>
      </trkpt>
      <trkpt lat="41.988439690321684" lon="13.146579936146736">
        <ele>1316.179932</ele>
        <time>2017-06-13T09:20:03Z</time>
      </trkpt>
      <trkpt lat="41.988305831328034" lon="13.146642465144396">
        <ele>1316.179932</ele>
        <time>2017-06-13T09:20:17Z</time>
      </trkpt>
      <trkpt lat="41.988297868520021" lon="13.146640118211508">
        <ele>1316.179932</ele>
        <time>2017-06-13T09:20:18Z</time>
      </trkpt>
      <trkpt lat="41.988226119428873" lon="13.146654367446899">
        <ele>1316.179932</ele>
        <time>2017-06-13T09:20:23Z</time>
      </trkpt>
      <trkpt lat="41.988067533820868" lon="13.146687475964427">
        <ele>1316.179932</ele>
        <time>2017-06-13T09:20:37Z</time>
      </trkpt>
      <trkpt lat="41.987878438085318" lon="13.146746065467596">
        <ele>1316.179932</ele>
        <time>2017-06-13T09:20:50Z</time>
      </trkpt>
      <trkpt lat="41.987621700391173" lon="13.146820915862918">
        <ele>1317.1400149999999</ele>
        <time>2017-06-13T09:21:10Z</time>
      </trkpt>
      <trkpt lat="41.987512316554785" lon="13.146850587800145">
        <ele>1317.1400149999999</ele>
        <time>2017-06-13T09:21:20Z</time>
      </trkpt>
      <trkpt lat="41.987270833924413" lon="13.146883277222514">
        <ele>1317.1400149999999</ele>
        <time>2017-06-13T09:21:38Z</time>
      </trkpt>
      <trkpt lat="41.987080816179514" lon="13.14684740267694">
        <ele>1318.099976</ele>
        <time>2017-06-13T09:21:53Z</time>
      </trkpt>
      <trkpt lat="41.98688711039722" lon="13.1467648409307">
        <ele>1318.589966</ele>
        <time>2017-06-13T09:22:08Z</time>
      </trkpt>
      <trkpt lat="41.986709162592888" lon="13.146641459316015">
        <ele>1318.589966</ele>
        <time>2017-06-13T09:22:24Z</time>
      </trkpt>
      <trkpt lat="41.986567676067352" lon="13.146577421575785">
        <ele>1318.589966</ele>
        <time>2017-06-13T09:22:37Z</time>
      </trkpt>
      <trkpt lat="41.986364331096411" lon="13.146454961970448">
        <ele>1318.589966</ele>
        <time>2017-06-13T09:22:53Z</time>
      </trkpt>
      <trkpt lat="41.986175738275051" lon="13.146349433809519">
        <ele>1319.070068</ele>
        <time>2017-06-13T09:23:09Z</time>
      </trkpt>
      <trkpt lat="41.985975159332156" lon="13.146252958104014">
        <ele>1319.5500489999999</ele>
        <time>2017-06-13T09:23:25Z</time>
      </trkpt>
      <trkpt lat="41.985806180164218" lon="13.146137874573469">
        <ele>1318.589966</ele>
        <time>2017-06-13T09:23:40Z</time>
      </trkpt>
      <trkpt lat="41.98579796589911" lon="13.146140389144421">
        <ele>1318.589966</ele>
        <time>2017-06-13T09:23:41Z</time>
      </trkpt>
      <trkpt lat="41.985577018931508" lon="13.146131839603186">
        <ele>1318.589966</ele>
        <time>2017-06-13T09:23:58Z</time>
      </trkpt>
      <trkpt lat="41.985570816323161" lon="13.146120859310031">
        <ele>1319.5500489999999</ele>
        <time>2017-06-13T09:23:59Z</time>
      </trkpt>
      <trkpt lat="41.985505437478423" lon="13.145973673090339">
        <ele>1319.5500489999999</ele>
        <time>2017-06-13T09:24:15Z</time>
      </trkpt>
      <trkpt lat="41.985521698370576" lon="13.145948778837919">
        <ele>1320.030029</ele>
        <time>2017-06-13T09:24:39Z</time>
      </trkpt>
      <trkpt lat="41.985521363094449" lon="13.14595079049468">
        <ele>1320.030029</ele>
        <time>2017-06-13T09:24:40Z</time>
      </trkpt>
      <trkpt lat="41.985515328124166" lon="13.145956238731742">
        <ele>1320.51001</ele>
        <time>2017-06-13T09:24:54Z</time>
      </trkpt>
      <trkpt lat="41.985518513247371" lon="13.145957160741091">
        <ele>1319.070068</ele>
        <time>2017-06-13T09:25:02Z</time>
      </trkpt>
      <trkpt lat="41.985513232648373" lon="13.145963111892343">
        <ele>1319.070068</ele>
        <time>2017-06-13T09:25:17Z</time>
      </trkpt>
      <trkpt lat="41.985507030040026" lon="13.145943414419889">
        <ele>1319.5500489999999</ele>
        <time>2017-06-13T09:25:41Z</time>
      </trkpt>
      <trkpt lat="41.985486662015319" lon="13.145953472703695">
        <ele>1319.5500489999999</ele>
        <time>2017-06-13T09:25:51Z</time>
      </trkpt>
      <trkpt lat="41.985475765541196" lon="13.14596101641655">
        <ele>1319.5500489999999</ele>
        <time>2017-06-13T09:25:53Z</time>
      </trkpt>
      <trkpt lat="41.985435700044036" lon="13.145946599543095">
        <ele>1319.5500489999999</ele>
        <time>2017-06-13T09:25:57Z</time>
      </trkpt>
      <trkpt lat="41.985268983989954" lon="13.14588381908834">
        <ele>1320.51001</ele>
        <time>2017-06-13T09:26:13Z</time>
      </trkpt>
      <trkpt lat="41.985034458339214" lon="13.145816512405872">
        <ele>1321.4700929999999</ele>
        <time>2017-06-13T09:26:33Z</time>
      </trkpt>
      <trkpt lat="41.984844272956252" lon="13.145683407783508">
        <ele>1322.4300539999999</ele>
        <time>2017-06-13T09:26:51Z</time>
      </trkpt>
      <trkpt lat="41.984698427841067" lon="13.145533874630928">
        <ele>1322.910034</ele>
        <time>2017-06-13T09:27:05Z</time>
      </trkpt>
      <trkpt lat="41.984559958800673" lon="13.145412839949131">
        <ele>1323.3900149999999</ele>
        <time>2017-06-13T09:27:19Z</time>
      </trkpt>
      <trkpt lat="41.984449988231063" lon="13.14523003064096">
        <ele>1324.3500979999999</ele>
        <time>2017-06-13T09:27:33Z</time>
      </trkpt>
      <trkpt lat="41.984333731234074" lon="13.145076725631952">
        <ele>1324.830078</ele>
        <time>2017-06-13T09:27:46Z</time>
      </trkpt>
      <trkpt lat="41.984303891658783" lon="13.14504780806601">
        <ele>1324.830078</ele>
        <time>2017-06-13T09:27:50Z</time>
      </trkpt>
      <trkpt lat="41.984262568876147" lon="13.145025512203574">
        <ele>1325.309937</ele>
        <time>2017-06-13T09:27:54Z</time>
      </trkpt>
      <trkpt lat="41.984228370711207" lon="13.145003635436296">
        <ele>1326.280029</ele>
        <time>2017-06-13T09:27:58Z</time>
      </trkpt>
      <trkpt lat="41.984121836721897" lon="13.144900118932128">
        <ele>1327.719971</ele>
        <time>2017-06-13T09:28:09Z</time>
      </trkpt>
      <trkpt lat="41.984084034338593" lon="13.144863825291395">
        <ele>1328.1999510000001</ele>
        <time>2017-06-13T09:28:13Z</time>
      </trkpt>
      <trkpt lat="41.983966687694192" lon="13.144750837236643">
        <ele>1329.6400149999999</ele>
        <time>2017-06-13T09:28:27Z</time>
      </trkpt>
      <trkpt lat="41.983857890591025" lon="13.144616391509771">
        <ele>1330.599976</ele>
        <time>2017-06-13T09:28:41Z</time>
      </trkpt>
      <trkpt lat="41.98385076597333" lon="13.144610775634646">
        <ele>1330.599976</ele>
        <time>2017-06-13T09:28:42Z</time>
      </trkpt>
      <trkpt lat="41.983769461512566" lon="13.144587725400925">
        <ele>1329.160034</ele>
        <time>2017-06-13T09:28:48Z</time>
      </trkpt>
      <trkpt lat="41.983586819842458" lon="13.144529806450009">
        <ele>1327.719971</ele>
        <time>2017-06-13T09:29:04Z</time>
      </trkpt>
      <trkpt lat="41.983535941690207" lon="13.14451907761395">
        <ele>1327.719971</ele>
        <time>2017-06-13T09:29:17Z</time>
      </trkpt>
      <trkpt lat="41.983540216460824" lon="13.144526202231646">
        <ele>1327.23999</ele>
        <time>2017-06-13T09:29:18Z</time>
      </trkpt>
      <trkpt lat="41.98338121175766" lon="13.14445897936821">
        <ele>1327.23999</ele>
        <time>2017-06-13T09:29:32Z</time>
      </trkpt>
      <trkpt lat="41.983177363872528" lon="13.144436934962869">
        <ele>1326.76001</ele>
        <time>2017-06-13T09:29:48Z</time>
      </trkpt>
      <trkpt lat="41.983004026114941" lon="13.144325874745846">
        <ele>1326.280029</ele>
        <time>2017-06-13T09:30:04Z</time>
      </trkpt>
      <trkpt lat="41.982858935371041" lon="13.144140802323818">
        <ele>1324.830078</ele>
        <time>2017-06-13T09:30:20Z</time>
      </trkpt>
      <trkpt lat="41.982728764414787" lon="13.143963692709804">
        <ele>1324.3500979999999</ele>
        <time>2017-06-13T09:30:35Z</time>
      </trkpt>
      <trkpt lat="41.982554169371724" lon="13.143839724361897">
        <ele>1323.8698730000001</ele>
        <time>2017-06-13T09:30:50Z</time>
      </trkpt>
      <trkpt lat="41.982366163283587" lon="13.143758419901133">
        <ele>1323.8698730000001</ele>
        <time>2017-06-13T09:31:05Z</time>
      </trkpt>
      <trkpt lat="41.982221072539687" lon="13.143634870648384">
        <ele>1325.309937</ele>
        <time>2017-06-13T09:31:20Z</time>
      </trkpt>
      <trkpt lat="41.982116214931011" lon="13.14357946626842">
        <ele>1326.76001</ele>
        <time>2017-06-13T09:31:30Z</time>
      </trkpt>
      <trkpt lat="41.981962658464909" lon="13.143487516790628">
        <ele>1328.1999510000001</ele>
        <time>2017-06-13T09:31:45Z</time>
      </trkpt>
      <trkpt lat="41.981827626004815" lon="13.143511740490794">
        <ele>1329.6400149999999</ele>
        <time>2017-06-13T09:31:58Z</time>
      </trkpt>
      <trkpt lat="41.981815220788121" lon="13.143524816259742">
        <ele>1329.6400149999999</ele>
        <time>2017-06-13T09:32:00Z</time>
      </trkpt>
      <trkpt lat="41.981662921607494" lon="13.143608635291457">
        <ele>1330.599976</ele>
        <time>2017-06-13T09:32:15Z</time>
      </trkpt>
      <trkpt lat="41.981548760086298" lon="13.143709218129516">
        <ele>1332.040039</ele>
        <time>2017-06-13T09:32:29Z</time>
      </trkpt>
      <trkpt lat="41.981436610221863" lon="13.143808711320162">
        <ele>1333.48999</ele>
        <time>2017-06-13T09:32:43Z</time>
      </trkpt>
      <trkpt lat="41.981367459520698" lon="13.143857829272747">
        <ele>1334.4499510000001</ele>
        <time>2017-06-13T09:32:51Z</time>
      </trkpt>
      <trkpt lat="41.981305098161101" lon="13.143916921690106">
        <ele>1334.929932</ele>
        <time>2017-06-13T09:32:59Z</time>
      </trkpt>
      <trkpt lat="41.981228236109018" lon="13.143996465951204">
        <ele>1335.410034</ele>
        <time>2017-06-13T09:33:08Z</time>
      </trkpt>
      <trkpt lat="41.981049366295338" lon="13.144036866724491">
        <ele>1335.8900149999999</ele>
        <time>2017-06-13T09:33:22Z</time>
      </trkpt>
      <trkpt lat="41.980881728231907" lon="13.144127558916807">
        <ele>1336.849976</ele>
        <time>2017-06-13T09:33:36Z</time>
      </trkpt>
      <trkpt lat="41.980857588350773" lon="13.144141472876072">
        <ele>1336.849976</ele>
        <time>2017-06-13T09:33:38Z</time>
      </trkpt>
      <trkpt lat="41.980838309973478" lon="13.14416041597724">
        <ele>1336.849976</ele>
        <time>2017-06-13T09:33:40Z</time>
      </trkpt>
      <trkpt lat="41.980770416557789" lon="13.144205426797271">
        <ele>1337.8100589999999</ele>
        <time>2017-06-13T09:33:48Z</time>
      </trkpt>
      <trkpt lat="41.980679724365473" lon="13.144279774278402">
        <ele>1338.290039</ele>
        <time>2017-06-13T09:34:00Z</time>
      </trkpt>
      <trkpt lat="41.98064636439085" lon="13.144310032948852">
        <ele>1338.290039</ele>
        <time>2017-06-13T09:34:04Z</time>
      </trkpt>
      <trkpt lat="41.980494484305382" lon="13.144462332129478">
        <ele>1339.25</ele>
        <time>2017-06-13T09:34:19Z</time>
      </trkpt>
      <trkpt lat="41.98046263307333" lon="13.14446727745235">
        <ele>1339.7299800000001</ele>
        <time>2017-06-13T09:34:21Z</time>
      </trkpt>
      <trkpt lat="41.980276135727763" lon="13.144482197239995">
        <ele>1340.2200929999999</ele>
        <time>2017-06-13T09:34:36Z</time>
      </trkpt>
      <trkpt lat="41.980134062469006" lon="13.144533159211278">
        <ele>1340.2200929999999</ele>
        <time>2017-06-13T09:34:51Z</time>
      </trkpt>
      <trkpt lat="41.980123836547136" lon="13.144539864733815">
        <ele>1340.2200929999999</ele>
        <time>2017-06-13T09:34:52Z</time>
      </trkpt>
      <trkpt lat="41.979995928704739" lon="13.144618235528469">
        <ele>1340.6999510000001</ele>
        <time>2017-06-13T09:35:04Z</time>
      </trkpt>
      <trkpt lat="41.979845641180873" lon="13.144764835014939">
        <ele>1341.179932</ele>
        <time>2017-06-13T09:35:18Z</time>
      </trkpt>
      <trkpt lat="41.979735419154167" lon="13.144882936030626">
        <ele>1343.099976</ele>
        <time>2017-06-13T09:35:30Z</time>
      </trkpt>
      <trkpt lat="41.979594435542822" lon="13.145021237432957">
        <ele>1344.059937</ele>
        <time>2017-06-13T09:35:47Z</time>
      </trkpt>
      <trkpt lat="41.979576330631971" lon="13.145035821944475">
        <ele>1344.059937</ele>
        <time>2017-06-13T09:35:49Z</time>
      </trkpt>
      <trkpt lat="41.979493433609605" lon="13.14509273506701">
        <ele>1344.540039</ele>
        <time>2017-06-13T09:35:56Z</time>
      </trkpt>
      <trkpt lat="41.979434425011277" lon="13.145122826099396">
        <ele>1345.0200199999999</ele>
        <time>2017-06-13T09:36:02Z</time>
      </trkpt>
      <trkpt lat="41.979417325928807" lon="13.14514403231442">
        <ele>1345.0200199999999</ele>
        <time>2017-06-13T09:36:04Z</time>
      </trkpt>
      <trkpt lat="41.979322861880064" lon="13.145277639850974">
        <ele>1346.459961</ele>
        <time>2017-06-13T09:36:18Z</time>
      </trkpt>
      <trkpt lat="41.979167629033327" lon="13.145401524379849">
        <ele>1346.940063</ele>
        <time>2017-06-13T09:36:32Z</time>
      </trkpt>
      <trkpt lat="41.979006277397275" lon="13.145504537969828">
        <ele>1348.3900149999999</ele>
        <time>2017-06-13T09:36:46Z</time>
      </trkpt>
      <trkpt lat="41.9788858294487" lon="13.145626410841942">
        <ele>1349.3500979999999</ele>
        <time>2017-06-13T09:37:00Z</time>
      </trkpt>
      <trkpt lat="41.97876269929111" lon="13.145771333947778">
        <ele>1349.830078</ele>
        <time>2017-06-13T09:37:15Z</time>
      </trkpt>
      <trkpt lat="41.978606041520834" lon="13.145880466327071">
        <ele>1350.309937</ele>
        <time>2017-06-13T09:37:30Z</time>
      </trkpt>
      <trkpt lat="41.978448880836368" lon="13.145966464653611">
        <ele>1351.75</ele>
        <time>2017-06-13T09:37:46Z</time>
      </trkpt>
      <trkpt lat="41.978193232789636" lon="13.1461086217314">
        <ele>1352.709961</ele>
        <time>2017-06-13T09:38:04Z</time>
      </trkpt>
      <trkpt lat="41.977989468723536" lon="13.146152961999178">
        <ele>1353.1899410000001</ele>
        <time>2017-06-13T09:38:19Z</time>
      </trkpt>
      <trkpt lat="41.977728959172964" lon="13.146168300881982">
        <ele>1354.630005</ele>
        <time>2017-06-13T09:38:39Z</time>
      </trkpt>
      <trkpt lat="41.977642709389329" lon="13.146182214841247">
        <ele>1354.630005</ele>
        <time>2017-06-13T09:38:46Z</time>
      </trkpt>
      <trkpt lat="41.977585041895509" lon="13.146195290610194">
        <ele>1355.119995</ele>
        <time>2017-06-13T09:38:50Z</time>
      </trkpt>
      <trkpt lat="41.977414218708873" lon="13.14619948156178">
        <ele>1355.599976</ele>
        <time>2017-06-13T09:39:04Z</time>
      </trkpt>
      <trkpt lat="41.97722059674561" lon="13.146159164607525">
        <ele>1356.080078</ele>
        <time>2017-06-13T09:39:20Z</time>
      </trkpt>
      <trkpt lat="41.977057904005051" lon="13.146135527640581">
        <ele>1357.5200199999999</ele>
        <time>2017-06-13T09:39:33Z</time>
      </trkpt>
      <trkpt lat="41.976917004212737" lon="13.146085068583488">
        <ele>1358.4801030000001</ele>
        <time>2017-06-13T09:39:47Z</time>
      </trkpt>
      <trkpt lat="41.976745678111911" lon="13.146027065813541">
        <ele>1359.919922</ele>
        <time>2017-06-13T09:40:04Z</time>
      </trkpt>
      <trkpt lat="41.976719358935952" lon="13.146013235673308">
        <ele>1359.919922</ele>
        <time>2017-06-13T09:40:06Z</time>
      </trkpt>
      <trkpt lat="41.976510733366013" lon="13.145991358906031">
        <ele>1361.3599850000001</ele>
        <time>2017-06-13T09:40:23Z</time>
      </trkpt>
      <trkpt lat="41.97639673948288" lon="13.145976774394512">
        <ele>1362.8100589999999</ele>
        <time>2017-06-13T09:40:39Z</time>
      </trkpt>
      <trkpt lat="41.97636254131794" lon="13.145702518522739">
        <ele>1362.8100589999999</ele>
        <time>2017-06-13T09:40:55Z</time>
      </trkpt>
      <trkpt lat="41.976291378960013" lon="13.145709978416562">
        <ele>1363.290039</ele>
        <time>2017-06-13T09:41:09Z</time>
      </trkpt>
      <trkpt lat="41.976187862455845" lon="13.145749121904373">
        <ele>1363.7700199999999</ele>
        <time>2017-06-13T09:41:23Z</time>
      </trkpt>
      <trkpt lat="41.976155340671539" lon="13.145775105804205">
        <ele>1363.7700199999999</ele>
        <time>2017-06-13T09:41:26Z</time>
      </trkpt>
      <trkpt lat="41.975996671244502" lon="13.145885663107038">
        <ele>1364.7299800000001</ele>
        <time>2017-06-13T09:41:40Z</time>
      </trkpt>
      <trkpt lat="41.975840181112289" lon="13.145995382219553">
        <ele>1366.170044</ele>
        <time>2017-06-13T09:41:53Z</time>
      </trkpt>
      <trkpt lat="41.975827105343342" lon="13.146000411361456">
        <ele>1366.170044</ele>
        <time>2017-06-13T09:41:54Z</time>
      </trkpt>
      <trkpt lat="41.975638596341014" lon="13.146097641438246">
        <ele>1367.610107</ele>
        <time>2017-06-13T09:42:11Z</time>
      </trkpt>
      <trkpt lat="41.975530721247196" lon="13.146120859310031">
        <ele>1367.610107</ele>
        <time>2017-06-13T09:42:18Z</time>
      </trkpt>
      <trkpt lat="41.975369034335017" lon="13.146174335852265">
        <ele>1369.049927</ele>
        <time>2017-06-13T09:42:30Z</time>
      </trkpt>
      <trkpt lat="41.975352941080928" lon="13.146176934242249">
        <ele>1369.049927</ele>
        <time>2017-06-13T09:42:31Z</time>
      </trkpt>
      <trkpt lat="41.975215561687946" lon="13.146266201511025">
        <ele>1369.540039</ele>
        <time>2017-06-13T09:42:42Z</time>
      </trkpt>
      <trkpt lat="41.975038787350059" lon="13.146220687776804">
        <ele>1370.0200199999999</ele>
        <time>2017-06-13T09:42:56Z</time>
      </trkpt>
      <trkpt lat="41.974966200068593" lon="13.146213395521045">
        <ele>1370.5</ele>
        <time>2017-06-13T09:43:02Z</time>
      </trkpt>
      <trkpt lat="41.974889673292637" lon="13.146165115758777">
        <ele>1370.9799800000001</ele>
        <time>2017-06-13T09:43:11Z</time>
      </trkpt>
      <trkpt lat="41.974816499277949" lon="13.146121697500348">
        <ele>1371.459961</ele>
        <time>2017-06-13T09:43:20Z</time>
      </trkpt>
      <trkpt lat="41.974717006087303" lon="13.145955735817552">
        <ele>1371.940063</ele>
        <time>2017-06-13T09:43:38Z</time>
      </trkpt>
      <trkpt lat="41.974651711061597" lon="13.145828833803535">
        <ele>1373.380005</ele>
        <time>2017-06-13T09:43:58Z</time>
      </trkpt>
      <trkpt lat="41.974498322233558" lon="13.145656585693359">
        <ele>1374.339966</ele>
        <time>2017-06-13T09:44:15Z</time>
      </trkpt>
      <trkpt lat="41.974333534017205" lon="13.145553823560476">
        <ele>1375.780029</ele>
        <time>2017-06-13T09:44:31Z</time>
      </trkpt>
      <trkpt lat="41.97423311881721" lon="13.145469417795539">
        <ele>1376.75</ele>
        <time>2017-06-13T09:44:45Z</time>
      </trkpt>
      <trkpt lat="41.974110910668969" lon="13.145287362858653">
        <ele>1377.2299800000001</ele>
        <time>2017-06-13T09:45:00Z</time>
      </trkpt>
      <trkpt lat="41.973920641466975" lon="13.145041689276695">
        <ele>1379.150024</ele>
        <time>2017-06-13T09:45:17Z</time>
      </trkpt>
      <trkpt lat="41.973791560158134" lon="13.144971113651991">
        <ele>1380.1099850000001</ele>
        <time>2017-06-13T09:45:32Z</time>
      </trkpt>
      <trkpt lat="41.973697682842612" lon="13.144877403974533">
        <ele>1382.030029</ele>
        <time>2017-06-13T09:45:48Z</time>
      </trkpt>
      <trkpt lat="41.97356415912509" lon="13.144783107563853">
        <ele>1382.030029</ele>
        <time>2017-06-13T09:46:03Z</time>
      </trkpt>
      <trkpt lat="41.973431641235948" lon="13.144751759245992">
        <ele>1383.9600829999999</ele>
        <time>2017-06-13T09:46:15Z</time>
      </trkpt>
      <trkpt lat="41.973370118066669" lon="13.144707335159183">
        <ele>1384.4399410000001</ele>
        <time>2017-06-13T09:46:22Z</time>
      </trkpt>
      <trkpt lat="41.973245060071349" lon="13.144579511135817">
        <ele>1386.3599850000001</ele>
        <time>2017-06-13T09:46:38Z</time>
      </trkpt>
      <trkpt lat="41.973162665963173" lon="13.144458560273051">
        <ele>1387.3199460000001</ele>
        <time>2017-06-13T09:46:53Z</time>
      </trkpt>
      <trkpt lat="41.973003493621945" lon="13.144365940243006">
        <ele>1387.799927</ele>
        <time>2017-06-13T09:47:07Z</time>
      </trkpt>
      <trkpt lat="41.972953537479043" lon="13.144352110102773">
        <ele>1388.280029</ele>
        <time>2017-06-13T09:47:12Z</time>
      </trkpt>
      <trkpt lat="41.972777266055346" lon="13.144250269979239">
        <ele>1390.6800539999999</ele>
        <time>2017-06-13T09:47:27Z</time>
      </trkpt>
      <trkpt lat="41.972662014886737" lon="13.144200900569558">
        <ele>1392.130005</ele>
        <time>2017-06-13T09:47:39Z</time>
      </trkpt>
      <trkpt lat="41.972511978819966" lon="13.144253874197602">
        <ele>1392.610107</ele>
        <time>2017-06-13T09:47:57Z</time>
      </trkpt>
      <trkpt lat="41.972413072362542" lon="13.144285809248686">
        <ele>1394.5299070000001</ele>
        <time>2017-06-13T09:48:10Z</time>
      </trkpt>
      <trkpt lat="41.972342832013965" lon="13.144315481185913">
        <ele>1395.48999</ele>
        <time>2017-06-13T09:48:18Z</time>
      </trkpt>
      <trkpt lat="41.972218360751867" lon="13.144342806190252">
        <ele>1395.48999</ele>
        <time>2017-06-13T09:48:30Z</time>
      </trkpt>
      <trkpt lat="41.972165303304791" lon="13.144368203356862">
        <ele>1396.929932</ele>
        <time>2017-06-13T09:48:37Z</time>
      </trkpt>
      <trkpt lat="41.972100762650371" lon="13.14439301379025">
        <ele>1397.8900149999999</ele>
        <time>2017-06-13T09:48:49Z</time>
      </trkpt>
      <trkpt lat="41.972000515088439" lon="13.144453028216958">
        <ele>1399.3400879999999</ele>
        <time>2017-06-13T09:49:04Z</time>
      </trkpt>
      <trkpt lat="41.971882581710815" lon="13.144536092877388">
        <ele>1400.780029</ele>
        <time>2017-06-13T09:49:18Z</time>
      </trkpt>
      <trkpt lat="41.971807898953557" lon="13.144599962979555">
        <ele>1402.700073</ele>
        <time>2017-06-13T09:49:32Z</time>
      </trkpt>
      <trkpt lat="41.971731288358569" lon="13.144660983234644">
        <ele>1402.2200929999999</ele>
        <time>2017-06-13T09:49:43Z</time>
      </trkpt>
      <trkpt lat="41.971695916727185" lon="13.144706832244992">
        <ele>1403.179932</ele>
        <time>2017-06-13T09:49:47Z</time>
      </trkpt>
      <trkpt lat="41.971574379131198" lon="13.14478537067771">
        <ele>1405.099976</ele>
        <time>2017-06-13T09:50:01Z</time>
      </trkpt>
      <trkpt lat="41.971467006951571" lon="13.14489777199924">
        <ele>1406.0699460000001</ele>
        <time>2017-06-13T09:50:16Z</time>
      </trkpt>
      <trkpt lat="41.971384612843394" lon="13.144905818626285">
        <ele>1406.5500489999999</ele>
        <time>2017-06-13T09:50:33Z</time>
      </trkpt>
      <trkpt lat="41.971352593973279" lon="13.144947895780206">
        <ele>1407.030029</ele>
        <time>2017-06-13T09:50:38Z</time>
      </trkpt>
      <trkpt lat="41.971254274249077" lon="13.145051160827279">
        <ele>1407.51001</ele>
        <time>2017-06-13T09:50:52Z</time>
      </trkpt>
      <trkpt lat="41.971149584278464" lon="13.145200526341796">
        <ele>1408.950073</ele>
        <time>2017-06-13T09:51:06Z</time>
      </trkpt>
      <trkpt lat="41.971143130213022" lon="13.145249728113413">
        <ele>1408.950073</ele>
        <time>2017-06-13T09:51:10Z</time>
      </trkpt>
      <trkpt lat="41.971118235960603" lon="13.145329859107733">
        <ele>1409.910034</ele>
        <time>2017-06-13T09:51:18Z</time>
      </trkpt>
      <trkpt lat="41.971066687256098" lon="13.145448798313737">
        <ele>1409.910034</ele>
        <time>2017-06-13T09:51:29Z</time>
      </trkpt>
      <trkpt lat="41.971050761640072" lon="13.145458940416574">
        <ele>1409.910034</ele>
        <time>2017-06-13T09:51:30Z</time>
      </trkpt>
      <trkpt lat="41.970940036699176" lon="13.145594391971827">
        <ele>1409.910034</ele>
        <time>2017-06-13T09:51:41Z</time>
      </trkpt>
      <trkpt lat="41.970895864069462" lon="13.145637223497033">
        <ele>1410.3900149999999</ele>
        <time>2017-06-13T09:51:46Z</time>
      </trkpt>
      <trkpt lat="41.970817660912871" lon="13.145775441080332">
        <ele>1411.3500979999999</ele>
        <time>2017-06-13T09:51:59Z</time>
      </trkpt>
      <trkpt lat="41.970717161893845" lon="13.145892284810543">
        <ele>1411.830078</ele>
        <time>2017-06-13T09:52:12Z</time>
      </trkpt>
      <trkpt lat="41.970527730882168" lon="13.145969398319721">
        <ele>1412.3100589999999</ele>
        <time>2017-06-13T09:52:26Z</time>
      </trkpt>
      <trkpt lat="41.970411892980337" lon="13.146111890673637">
        <ele>1412.7899170000001</ele>
        <time>2017-06-13T09:52:40Z</time>
      </trkpt>
      <trkpt lat="41.970270406454802" lon="13.146218759939075">
        <ele>1413.280029</ele>
        <time>2017-06-13T09:52:53Z</time>
      </trkpt>
      <trkpt lat="41.970233526080847" lon="13.146262429654598">
        <ele>1413.76001</ele>
        <time>2017-06-13T09:52:57Z</time>
      </trkpt>
      <trkpt lat="41.970106204971671" lon="13.146387403830886">
        <ele>1414.719971</ele>
        <time>2017-06-13T09:53:10Z</time>
      </trkpt>
      <trkpt lat="41.969982990995049" lon="13.146404167637229">
        <ele>1415.1999510000001</ele>
        <time>2017-06-13T09:53:19Z</time>
      </trkpt>
      <trkpt lat="41.969930436462164" lon="13.146411292254925">
        <ele>1415.6800539999999</ele>
        <time>2017-06-13T09:53:23Z</time>
      </trkpt>
      <trkpt lat="41.96985206566751" lon="13.146427888423204">
        <ele>1415.6800539999999</ele>
        <time>2017-06-13T09:53:30Z</time>
      </trkpt>
      <trkpt lat="41.969753662124276" lon="13.146404670551419">
        <ele>1415.6800539999999</ele>
        <time>2017-06-13T09:53:38Z</time>
      </trkpt>
      <trkpt lat="41.969726337119937" lon="13.146398300305009">
        <ele>1415.6800539999999</ele>
        <time>2017-06-13T09:53:40Z</time>
      </trkpt>
      <trkpt lat="41.969661377370358" lon="13.146377932280302">
        <ele>1416.160034</ele>
        <time>2017-06-13T09:53:44Z</time>
      </trkpt>
      <trkpt lat="41.969494996592402" lon="13.146289084106684">
        <ele>1417.119995</ele>
        <time>2017-06-13T09:53:58Z</time>
      </trkpt>
      <trkpt lat="41.96936147287488" lon="13.146169725805521">
        <ele>1417.599976</ele>
        <time>2017-06-13T09:54:11Z</time>
      </trkpt>
      <trkpt lat="41.969347558915615" lon="13.146165702491999">
        <ele>1417.599976</ele>
        <time>2017-06-13T09:54:12Z</time>
      </trkpt>
      <trkpt lat="41.969267763197422" lon="13.146110801026225">
        <ele>1418.5600589999999</ele>
        <time>2017-06-13T09:54:20Z</time>
      </trkpt>
      <trkpt lat="41.969211185351014" lon="13.146080123260617">
        <ele>1419.040039</ele>
        <time>2017-06-13T09:54:25Z</time>
      </trkpt>
      <trkpt lat="41.969166928902268" lon="13.146045003086329">
        <ele>1419.5200199999999</ele>
        <time>2017-06-13T09:54:29Z</time>
      </trkpt>
      <trkpt lat="41.969058383256197" lon="13.145917262881994">
        <ele>1420.48999</ele>
        <time>2017-06-13T09:54:42Z</time>
      </trkpt>
      <trkpt lat="41.969010522589087" lon="13.145884070545435">
        <ele>1420.48999</ele>
        <time>2017-06-13T09:54:46Z</time>
      </trkpt>
      <trkpt lat="41.968966266140342" lon="13.145842077210546">
        <ele>1420.48999</ele>
        <time>2017-06-13T09:54:51Z</time>
      </trkpt>
      <trkpt lat="41.968916393816471" lon="13.145761610940099">
        <ele>1421.4499510000001</ele>
        <time>2017-06-13T09:54:57Z</time>
      </trkpt>
      <trkpt lat="41.968776416033506" lon="13.145643761381507">
        <ele>1421.929932</ele>
        <time>2017-06-13T09:55:11Z</time>
      </trkpt>
      <trkpt lat="41.968648424372077" lon="13.145583076402545">
        <ele>1423.849976</ele>
        <time>2017-06-13T09:55:24Z</time>
      </trkpt>
      <trkpt lat="41.968519678339362" lon="13.145552314817905">
        <ele>1423.849976</ele>
        <time>2017-06-13T09:55:36Z</time>
      </trkpt>
      <trkpt lat="41.96840132586658" lon="13.145457180216908">
        <ele>1424.329956</ele>
        <time>2017-06-13T09:55:48Z</time>
      </trkpt>
      <trkpt lat="41.96832018904388" lon="13.145348634570837">
        <ele>1426.25</ele>
        <time>2017-06-13T09:55:59Z</time>
      </trkpt>
      <trkpt lat="41.968272915109992" lon="13.145169261842966">
        <ele>1426.25</ele>
        <time>2017-06-13T09:56:11Z</time>
      </trkpt>
      <trkpt lat="41.968210302293301" lon="13.14505803398788">
        <ele>1426.7299800000001</ele>
        <time>2017-06-13T09:56:20Z</time>
      </trkpt>
      <trkpt lat="41.968126315623522" lon="13.144983099773526">
        <ele>1426.7299800000001</ele>
        <time>2017-06-13T09:56:27Z</time>
      </trkpt>
      <trkpt lat="41.967990109696984" lon="13.144875392317772">
        <ele>1426.7299800000001</ele>
        <time>2017-06-13T09:56:41Z</time>
      </trkpt>
      <trkpt lat="41.96794887073338" lon="13.144822334870696">
        <ele>1427.209961</ele>
        <time>2017-06-13T09:56:46Z</time>
      </trkpt>
      <trkpt lat="41.967904362827539" lon="13.144801966845989">
        <ele>1427.700073</ele>
        <time>2017-06-13T09:56:58Z</time>
      </trkpt>
      <trkpt lat="41.967920204624534" lon="13.144801799207926">
        <ele>1428.6599120000001</ele>
        <time>2017-06-13T09:57:18Z</time>
      </trkpt>
      <trkpt lat="41.967919366434216" lon="13.144806660711765">
        <ele>1428.6599120000001</ele>
        <time>2017-06-13T09:57:21Z</time>
      </trkpt>
      <trkpt lat="41.967910062521696" lon="13.144829040393233">
        <ele>1428.6599120000001</ele>
        <time>2017-06-13T09:57:23Z</time>
      </trkpt>
      <trkpt lat="41.96786236949265" lon="13.144862400367856">
        <ele>1428.6599120000001</ele>
        <time>2017-06-13T09:57:28Z</time>
      </trkpt>
      <trkpt lat="41.9677700009197" lon="13.144892659038305">
        <ele>1429.139893</ele>
        <time>2017-06-13T09:57:36Z</time>
      </trkpt>
      <trkpt lat="41.967654665932059" lon="13.144979495555162">
        <ele>1429.139893</ele>
        <time>2017-06-13T09:57:48Z</time>
      </trkpt>
      <trkpt lat="41.967502785846591" lon="13.145101116970181">
        <ele>1430.099976</ele>
        <time>2017-06-13T09:58:02Z</time>
      </trkpt>
      <trkpt lat="41.967494739219546" lon="13.145109079778194">
        <ele>1430.579956</ele>
        <time>2017-06-13T09:58:03Z</time>
      </trkpt>
      <trkpt lat="41.967436065897346" lon="13.145147720351815">
        <ele>1431.5399170000001</ele>
        <time>2017-06-13T09:58:12Z</time>
      </trkpt>
      <trkpt lat="41.967428103089333" lon="13.145170519128442">
        <ele>1431.5399170000001</ele>
        <time>2017-06-13T09:58:14Z</time>
      </trkpt>
      <trkpt lat="41.967415111139417" lon="13.145222319290042">
        <ele>1431.5399170000001</ele>
        <time>2017-06-13T09:58:19Z</time>
      </trkpt>
      <trkpt lat="41.967355264350772" lon="13.145399009808898">
        <ele>1431.5399170000001</ele>
        <time>2017-06-13T09:58:31Z</time>
      </trkpt>
      <trkpt lat="41.967250490561128" lon="13.14560629427433">
        <ele>1432.5</ele>
        <time>2017-06-13T09:58:48Z</time>
      </trkpt>
      <trkpt lat="41.967192068696022" lon="13.145756078884006">
        <ele>1432.5</ele>
        <time>2017-06-13T09:59:03Z</time>
      </trkpt>
      <trkpt lat="41.967166336253285" lon="13.145808465778828">
        <ele>1432.5</ele>
        <time>2017-06-13T09:59:07Z</time>
      </trkpt>
      <trkpt lat="41.967044463381171" lon="13.145962441340089">
        <ele>1432.9799800000001</ele>
        <time>2017-06-13T09:59:22Z</time>
      </trkpt>
      <trkpt lat="41.966929715126753" lon="13.146018516272306">
        <ele>1433.9399410000001</ele>
        <time>2017-06-13T09:59:33Z</time>
      </trkpt>
      <trkpt lat="41.966890404000878" lon="13.146050535142422">
        <ele>1434.420044</ele>
        <time>2017-06-13T09:59:37Z</time>
      </trkpt>
      <trkpt lat="41.966842459514737" lon="13.146068304777145">
        <ele>1434.420044</ele>
        <time>2017-06-13T09:59:41Z</time>
      </trkpt>
      <trkpt lat="41.966683370992541" lon="13.146170061081648">
        <ele>1435.869995</ele>
        <time>2017-06-13T09:59:56Z</time>
      </trkpt>
      <trkpt lat="41.966532999649644" lon="13.146337866783142">
        <ele>1436.3500979999999</ele>
        <time>2017-06-13T10:00:11Z</time>
      </trkpt>
      <trkpt lat="41.966385813429952" lon="13.146479101851583">
        <ele>1436.830078</ele>
        <time>2017-06-13T10:00:26Z</time>
      </trkpt>
      <trkpt lat="41.96629336103797" lon="13.146583624184132">
        <ele>1437.3100589999999</ele>
        <time>2017-06-13T10:00:43Z</time>
      </trkpt>
      <trkpt lat="41.966234436258674" lon="13.146668700501323">
        <ele>1437.7899170000001</ele>
        <time>2017-06-13T10:00:57Z</time>
      </trkpt>
      <trkpt lat="41.966197974979877" lon="13.146700216457248">
        <ele>1437.7899170000001</ele>
        <time>2017-06-13T10:01:00Z</time>
      </trkpt>
      <trkpt lat="41.96617123670876" lon="13.146749502047896">
        <ele>1437.7899170000001</ele>
        <time>2017-06-13T10:01:04Z</time>
      </trkpt>
      <trkpt lat="41.96613703854382" lon="13.146804487332702">
        <ele>1437.7899170000001</ele>
        <time>2017-06-13T10:01:08Z</time>
      </trkpt>
      <trkpt lat="41.96593813598156" lon="13.147075390443206">
        <ele>1438.2698969999999</ele>
        <time>2017-06-13T10:01:29Z</time>
      </trkpt>
      <trkpt lat="41.96581207215786" lon="13.147360123693943">
        <ele>1438.75</ele>
        <time>2017-06-13T10:01:46Z</time>
      </trkpt>
      <trkpt lat="41.965713333338499" lon="13.147648964077234">
        <ele>1439.709961</ele>
        <time>2017-06-13T10:02:05Z</time>
      </trkpt>
      <trkpt lat="41.965606464073062" lon="13.147870078682899">
        <ele>1439.709961</ele>
        <time>2017-06-13T10:02:20Z</time>
      </trkpt>
      <trkpt lat="41.965460116043687" lon="13.148105777800083">
        <ele>1441.630005</ele>
        <time>2017-06-13T10:02:38Z</time>
      </trkpt>
      <trkpt lat="41.965352576225996" lon="13.148313816636801">
        <ele>1442.1099850000001</ele>
        <time>2017-06-13T10:02:54Z</time>
      </trkpt>
      <trkpt lat="41.965310834348202" lon="13.148432336747646">
        <ele>1442.599976</ele>
        <time>2017-06-13T10:03:04Z</time>
      </trkpt>
      <trkpt lat="41.965263560414314" lon="13.148440634831786">
        <ele>1442.599976</ele>
        <time>2017-06-13T10:03:08Z</time>
      </trkpt>
      <trkpt lat="41.965098436921835" lon="13.148484639823437">
        <ele>1444.040039</ele>
        <time>2017-06-13T10:03:23Z</time>
      </trkpt>
      <trkpt lat="41.964942617341876" lon="13.148521687835455">
        <ele>1444.5200199999999</ele>
        <time>2017-06-13T10:03:35Z</time>
      </trkpt>
      <trkpt lat="41.964797861874104" lon="13.148610787466168">
        <ele>1444.040039</ele>
        <time>2017-06-13T10:03:48Z</time>
      </trkpt>
      <trkpt lat="41.964661404490471" lon="13.148684715852141">
        <ele>1445</ele>
        <time>2017-06-13T10:04:00Z</time>
      </trkpt>
      <trkpt lat="41.964513128623366" lon="13.148794434964657">
        <ele>1445.9600829999999</ele>
        <time>2017-06-13T10:04:13Z</time>
      </trkpt>
      <trkpt lat="41.964327888563275" lon="13.14891085959971">
        <ele>1445.9600829999999</ele>
        <time>2017-06-13T10:04:29Z</time>
      </trkpt>
      <trkpt lat="41.96414977312088" lon="13.149018986150622">
        <ele>1446.440063</ele>
        <time>2017-06-13T10:04:45Z</time>
      </trkpt>
      <trkpt lat="41.963990936055779" lon="13.14912099391222">
        <ele>1447.3999020000001</ele>
        <time>2017-06-13T10:05:00Z</time>
      </trkpt>
      <trkpt lat="41.963878618553281" lon="13.149163741618395">
        <ele>1447.3999020000001</ele>
        <time>2017-06-13T10:05:08Z</time>
      </trkpt>
      <trkpt lat="41.963721541687846" lon="13.149223001673818">
        <ele>1448.3599850000001</ele>
        <time>2017-06-13T10:05:22Z</time>
      </trkpt>
      <trkpt lat="41.963604111224413" lon="13.149287961423397">
        <ele>1449.3199460000001</ele>
        <time>2017-06-13T10:05:33Z</time>
      </trkpt>
      <trkpt lat="41.963415686041117" lon="13.149390807375312">
        <ele>1449.3199460000001</ele>
        <time>2017-06-13T10:05:51Z</time>
      </trkpt>
      <trkpt lat="41.963330274447799" lon="13.149405308067799">
        <ele>1449.8100589999999</ele>
        <time>2017-06-13T10:05:57Z</time>
      </trkpt>
      <trkpt lat="41.963259195908904" lon="13.14943078905344">
        <ele>1449.8100589999999</ele>
        <time>2017-06-13T10:06:04Z</time>
      </trkpt>
      <trkpt lat="41.963195325806737" lon="13.149358872324228">
        <ele>1449.8100589999999</ele>
        <time>2017-06-13T10:06:09Z</time>
      </trkpt>
      <trkpt lat="41.963191134855151" lon="13.14933355897665">
        <ele>1449.8100589999999</ele>
        <time>2017-06-13T10:06:10Z</time>
      </trkpt>
      <trkpt lat="41.963185938075185" lon="13.149307491257787">
        <ele>1450.290039</ele>
        <time>2017-06-13T10:06:11Z</time>
      </trkpt>
      <trkpt lat="41.963177639991045" lon="13.149288464337587">
        <ele>1450.290039</ele>
        <time>2017-06-13T10:06:12Z</time>
      </trkpt>
      <trkpt lat="41.963167665526271" lon="13.149274466559291">
        <ele>1450.290039</ele>
        <time>2017-06-13T10:06:13Z</time>
      </trkpt>
      <trkpt lat="41.963156182318926" lon="13.14925879240036">
        <ele>1450.290039</ele>
        <time>2017-06-13T10:06:14Z</time>
      </trkpt>
      <trkpt lat="41.963118128478527" lon="13.149148235097528">
        <ele>1450.7700199999999</ele>
        <time>2017-06-13T10:06:22Z</time>
      </trkpt>
      <trkpt lat="41.963115697726607" lon="13.14912979491055">
        <ele>1451.25</ele>
        <time>2017-06-13T10:06:23Z</time>
      </trkpt>
      <trkpt lat="41.963113602250814" lon="13.149108085781336">
        <ele>1451.25</ele>
        <time>2017-06-13T10:06:24Z</time>
      </trkpt>
      <trkpt lat="41.963112009689212" lon="13.149089310318232">
        <ele>1451.25</ele>
        <time>2017-06-13T10:06:25Z</time>
      </trkpt>
      <trkpt lat="41.963108740746975" lon="13.149071037769318">
        <ele>1451.25</ele>
        <time>2017-06-13T10:06:26Z</time>
      </trkpt>
      <trkpt lat="41.963014863431454" lon="13.148889066651464">
        <ele>1452.209961</ele>
        <time>2017-06-13T10:06:40Z</time>
      </trkpt>
      <trkpt lat="41.962890224531293" lon="13.148724362254143">
        <ele>1453.650024</ele>
        <time>2017-06-13T10:06:54Z</time>
      </trkpt>
      <trkpt lat="41.962777068838477" lon="13.148566531017423">
        <ele>1454.130005</ele>
        <time>2017-06-13T10:07:07Z</time>
      </trkpt>
      <trkpt lat="41.962656788527966" lon="13.148443903774023">
        <ele>1454.130005</ele>
        <time>2017-06-13T10:07:19Z</time>
      </trkpt>
      <trkpt lat="41.962523264810443" lon="13.148295963183045">
        <ele>1454.130005</ele>
        <time>2017-06-13T10:07:33Z</time>
      </trkpt>
      <trkpt lat="41.962399380281568" lon="13.148174425587058">
        <ele>1454.6099850000001</ele>
        <time>2017-06-13T10:07:47Z</time>
      </trkpt>
      <trkpt lat="41.962290080264211" lon="13.148020533844829">
        <ele>1455.0900879999999</ele>
        <time>2017-06-13T10:08:00Z</time>
      </trkpt>
      <trkpt lat="41.962172398343682" lon="13.147848788648844">
        <ele>1456.0500489999999</ele>
        <time>2017-06-13T10:08:14Z</time>
      </trkpt>
      <trkpt lat="41.962166614830494" lon="13.147831438109279">
        <ele>1456.0500489999999</ele>
        <time>2017-06-13T10:08:15Z</time>
      </trkpt>
      <trkpt lat="41.962095368653536" lon="13.14768391661346">
        <ele>1457.9799800000001</ele>
        <time>2017-06-13T10:08:28Z</time>
      </trkpt>
      <trkpt lat="41.962088160216808" lon="13.147671176120639">
        <ele>1457.9799800000001</ele>
        <time>2017-06-13T10:08:29Z</time>
      </trkpt>
      <trkpt lat="41.962078688666224" lon="13.147656507790089">
        <ele>1458.459961</ele>
        <time>2017-06-13T10:08:30Z</time>
      </trkpt>
      <trkpt lat="41.962069803848863" lon="13.147645359858871">
        <ele>1458.459961</ele>
        <time>2017-06-13T10:08:31Z</time>
      </trkpt>
      <trkpt lat="41.962060332298279" lon="13.147632200270891">
        <ele>1458.459961</ele>
        <time>2017-06-13T10:08:32Z</time>
      </trkpt>
      <trkpt lat="41.962053962051868" lon="13.147619711235166">
        <ele>1458.459961</ele>
        <time>2017-06-13T10:08:33Z</time>
      </trkpt>
      <trkpt lat="41.962032169103622" lon="13.147589871659875">
        <ele>1458.9399410000001</ele>
        <time>2017-06-13T10:08:37Z</time>
      </trkpt>
      <trkpt lat="41.962023284286261" lon="13.14758081920445">
        <ele>1458.9399410000001</ele>
        <time>2017-06-13T10:08:38Z</time>
      </trkpt>
      <trkpt lat="41.961864363402128" lon="13.147554416209459">
        <ele>1459.900024</ele>
        <time>2017-06-13T10:08:52Z</time>
      </trkpt>
      <trkpt lat="41.961721703410149" lon="13.147566737607121">
        <ele>1460.380005</ele>
        <time>2017-06-13T10:09:05Z</time>
      </trkpt>
      <trkpt lat="41.961547359824181" lon="13.147592889145017">
        <ele>1461.339966</ele>
        <time>2017-06-13T10:09:19Z</time>
      </trkpt>
      <trkpt lat="41.961415512487292" lon="13.147561373189092">
        <ele>1461.339966</ele>
        <time>2017-06-13T10:09:32Z</time>
      </trkpt>
      <trkpt lat="41.961376871913671" lon="13.147563217207789">
        <ele>1462.3000489999999</ele>
        <time>2017-06-13T10:09:42Z</time>
      </trkpt>
      <trkpt lat="41.961363879963756" lon="13.14755885861814">
        <ele>1462.3000489999999</ele>
        <time>2017-06-13T10:09:43Z</time>
      </trkpt>
      <trkpt lat="41.961237732321024" lon="13.147514685988426">
        <ele>1463.26001</ele>
        <time>2017-06-13T10:09:56Z</time>
      </trkpt>
      <trkpt lat="41.961135640740395" lon="13.147433716803789">
        <ele>1464.2299800000001</ele>
        <time>2017-06-13T10:10:10Z</time>
      </trkpt>
      <trkpt lat="41.96109289303422" lon="13.147342018783092">
        <ele>1465.1899410000001</ele>
        <time>2017-06-13T10:10:28Z</time>
      </trkpt>
      <trkpt lat="41.961057437583804" lon="13.147282339632511">
        <ele>1465.669922</ele>
        <time>2017-06-13T10:10:47Z</time>
      </trkpt>
      <trkpt lat="41.961039919406176" lon="13.147262306883931">
        <ele>1467.589966</ele>
        <time>2017-06-13T10:10:51Z</time>
      </trkpt>
      <trkpt lat="41.960957860574126" lon="13.147182259708643">
        <ele>1469.030029</ele>
        <time>2017-06-13T10:11:04Z</time>
      </trkpt>
      <trkpt lat="41.960842106491327" lon="13.14708000048995">
        <ele>1471.440063</ele>
        <time>2017-06-13T10:11:18Z</time>
      </trkpt>
      <trkpt lat="41.960711181163788" lon="13.146998696029186">
        <ele>1471.919922</ele>
        <time>2017-06-13T10:11:30Z</time>
      </trkpt>
      <trkpt lat="41.960637671872973" lon="13.146911188960075">
        <ele>1471.440063</ele>
        <time>2017-06-13T10:11:39Z</time>
      </trkpt>
      <trkpt lat="41.960603222250938" lon="13.146717399358749">
        <ele>1471.440063</ele>
        <time>2017-06-13T10:11:53Z</time>
      </trkpt>
      <trkpt lat="41.960600037127733" lon="13.146713208407164">
        <ele>1471.440063</ele>
        <time>2017-06-13T10:11:54Z</time>
      </trkpt>
      <trkpt lat="41.960567096248269" lon="13.146531824022532">
        <ele>1471.919922</ele>
        <time>2017-06-13T10:12:06Z</time>
      </trkpt>
      <trkpt lat="41.960550835356116" lon="13.146447334438562">
        <ele>1471.919922</ele>
        <time>2017-06-13T10:12:10Z</time>
      </trkpt>
      <trkpt lat="41.96052610874176" lon="13.146403161808848">
        <ele>1471.919922</ele>
        <time>2017-06-13T10:12:15Z</time>
      </trkpt>
      <trkpt lat="41.960464920848608" lon="13.146258825436234">
        <ele>1472.3999020000001</ele>
        <time>2017-06-13T10:12:26Z</time>
      </trkpt>
      <trkpt lat="41.960393758490682" lon="13.146119937300682">
        <ele>1474.3199460000001</ele>
        <time>2017-06-13T10:12:37Z</time>
      </trkpt>
      <trkpt lat="41.960303485393524" lon="13.146050032228231">
        <ele>1475.280029</ele>
        <time>2017-06-13T10:12:49Z</time>
      </trkpt>
      <trkpt lat="41.960294600576162" lon="13.146041398867965">
        <ele>1475.76001</ele>
        <time>2017-06-13T10:12:50Z</time>
      </trkpt>
      <trkpt lat="41.96019628085196" lon="13.146011559292674">
        <ele>1477.1999510000001</ele>
        <time>2017-06-13T10:13:01Z</time>
      </trkpt>
      <trkpt lat="41.960127130150795" lon="13.145975768566132">
        <ele>1479.6099850000001</ele>
        <time>2017-06-13T10:13:08Z</time>
      </trkpt>
      <trkpt lat="41.960051525384188" lon="13.145891362801194">
        <ele>1481.5299070000001</ele>
        <time>2017-06-13T10:13:20Z</time>
      </trkpt>
      <trkpt lat="41.960025792941451" lon="13.14586772583425">
        <ele>1482.48999</ele>
        <time>2017-06-13T10:13:34Z</time>
      </trkpt>
      <trkpt lat="41.960011040791869" lon="13.145851632580161">
        <ele>1482.48999</ele>
        <time>2017-06-13T10:13:36Z</time>
      </trkpt>
      <trkpt lat="41.959973992779851" lon="13.145791785791516">
        <ele>1481.0500489999999</ele>
        <time>2017-06-13T10:13:40Z</time>
      </trkpt>
      <trkpt lat="41.959878439083695" lon="13.145691119134426">
        <ele>1479.6099850000001</ele>
        <time>2017-06-13T10:13:51Z</time>
      </trkpt>
      <trkpt lat="41.959759835153818" lon="13.145570671185851">
        <ele>1478.160034</ele>
        <time>2017-06-13T10:14:03Z</time>
      </trkpt>
      <trkpt lat="41.959653133526444" lon="13.145494479686022">
        <ele>1477.1999510000001</ele>
        <time>2017-06-13T10:14:14Z</time>
      </trkpt>
      <trkpt lat="41.959477784112096" lon="13.145366488024592">
        <ele>1477.1999510000001</ele>
        <time>2017-06-13T10:14:29Z</time>
      </trkpt>
      <trkpt lat="41.959450962021947" lon="13.145320136100054">
        <ele>1477.1999510000001</ele>
        <time>2017-06-13T10:14:32Z</time>
      </trkpt>
      <trkpt lat="41.959404274821281" lon="13.14530236646533">
        <ele>1477.1999510000001</ele>
        <time>2017-06-13T10:14:37Z</time>
      </trkpt>
      <trkpt lat="41.959331184625626" lon="13.145249392837286">
        <ele>1476.719971</ele>
        <time>2017-06-13T10:14:43Z</time>
      </trkpt>
      <trkpt lat="41.95928349159658" lon="13.145232209935784">
        <ele>1476.719971</ele>
        <time>2017-06-13T10:14:48Z</time>
      </trkpt>
      <trkpt lat="41.95917796343565" lon="13.145140595734119">
        <ele>1476.719971</ele>
        <time>2017-06-13T10:14:56Z</time>
      </trkpt>
      <trkpt lat="41.959043685346842" lon="13.144999779760838">
        <ele>1477.1999510000001</ele>
        <time>2017-06-13T10:15:10Z</time>
      </trkpt>
      <trkpt lat="41.958944108337164" lon="13.14486064016819">
        <ele>1477.1999510000001</ele>
        <time>2017-06-13T10:15:22Z</time>
      </trkpt>
      <trkpt lat="41.95889113470912" lon="13.144721584394574">
        <ele>1478.650024</ele>
        <time>2017-06-13T10:15:34Z</time>
      </trkpt>
      <trkpt lat="41.958883088082075" lon="13.144703479483724">
        <ele>1478.650024</ele>
        <time>2017-06-13T10:15:36Z</time>
      </trkpt>
      <trkpt lat="41.958873784169555" lon="13.144609266892076">
        <ele>1478.650024</ele>
        <time>2017-06-13T10:15:41Z</time>
      </trkpt>
      <trkpt lat="41.958754593506455" lon="13.144447496160865">
        <ele>1477.6800539999999</ele>
        <time>2017-06-13T10:15:56Z</time>
      </trkpt>
      <trkpt lat="41.958622913807631" lon="13.144304417073727">
        <ele>1477.1999510000001</ele>
        <time>2017-06-13T10:16:09Z</time>
      </trkpt>
      <trkpt lat="41.95857840590179" lon="13.14428748562932">
        <ele>1477.1999510000001</ele>
        <time>2017-06-13T10:16:14Z</time>
      </trkpt>
      <trkpt lat="41.958508836105466" lon="13.144263261929154">
        <ele>1477.1999510000001</ele>
        <time>2017-06-13T10:16:19Z</time>
      </trkpt>
      <trkpt lat="41.958454521372914" lon="13.144226716831326">
        <ele>1476.23999</ele>
        <time>2017-06-13T10:16:25Z</time>
      </trkpt>
      <trkpt lat="41.958254529163241" lon="13.144152285531163">
        <ele>1476.23999</ele>
        <time>2017-06-13T10:16:41Z</time>
      </trkpt>
      <trkpt lat="41.958189569413662" lon="13.144112639129162">
        <ele>1476.23999</ele>
        <time>2017-06-13T10:16:47Z</time>
      </trkpt>
      <trkpt lat="41.958104660734534" lon="13.144098808988929">
        <ele>1475.76001</ele>
        <time>2017-06-13T10:16:53Z</time>
      </trkpt>
      <trkpt lat="41.958019165322185" lon="13.144212635233998">
        <ele>1474.799927</ele>
        <time>2017-06-13T10:17:08Z</time>
      </trkpt>
      <trkpt lat="41.958026373758912" lon="13.144215401262045">
        <ele>1474.799927</ele>
        <time>2017-06-13T10:17:11Z</time>
      </trkpt>
      <trkpt lat="41.958026625216007" lon="13.144218837842345">
        <ele>1474.3199460000001</ele>
        <time>2017-06-13T10:17:20Z</time>
      </trkpt>
      <trkpt lat="41.958002569153905" lon="13.144125463441014">
        <ele>1475.280029</ele>
        <time>2017-06-13T10:17:26Z</time>
      </trkpt>
      <trkpt lat="41.957980440929532" lon="13.144071232527494">
        <ele>1476.23999</ele>
        <time>2017-06-13T10:17:31Z</time>
      </trkpt>
      <trkpt lat="41.957864435389638" lon="13.143947180360556">
        <ele>1476.719971</ele>
        <time>2017-06-13T10:17:44Z</time>
      </trkpt>
      <trkpt lat="41.95775362662971" lon="13.143887082114816">
        <ele>1476.719971</ele>
        <time>2017-06-13T10:17:54Z</time>
      </trkpt>
      <trkpt lat="41.957628736272454" lon="13.143749199807644">
        <ele>1477.1999510000001</ele>
        <time>2017-06-13T10:18:09Z</time>
      </trkpt>
      <trkpt lat="41.957500912249088" lon="13.143628416582942">
        <ele>1477.1999510000001</ele>
        <time>2017-06-13T10:18:22Z</time>
      </trkpt>
      <trkpt lat="41.95743553340435" lon="13.143585165962577">
        <ele>1477.1999510000001</ele>
        <time>2017-06-13T10:18:28Z</time>
      </trkpt>
      <trkpt lat="41.957337884232402" lon="13.143549123778939">
        <ele>1477.1999510000001</ele>
        <time>2017-06-13T10:18:37Z</time>
      </trkpt>
      <trkpt lat="41.957175610587001" lon="13.14344217069447">
        <ele>1477.6800539999999</ele>
        <time>2017-06-13T10:18:52Z</time>
      </trkpt>
      <trkpt lat="41.957094725221395" lon="13.143356340005994">
        <ele>1476.719971</ele>
        <time>2017-06-13T10:19:01Z</time>
      </trkpt>
      <trkpt lat="41.956969667226076" lon="13.14326087012887">
        <ele>1476.719971</ele>
        <time>2017-06-13T10:19:13Z</time>
      </trkpt>
      <trkpt lat="41.956831617280841" lon="13.143131034448743">
        <ele>1476.719971</ele>
        <time>2017-06-13T10:19:28Z</time>
      </trkpt>
      <trkpt lat="41.956704212352633" lon="13.143027434125543">
        <ele>1476.719971</ele>
        <time>2017-06-13T10:19:43Z</time>
      </trkpt>
      <trkpt lat="41.956599103286862" lon="13.14299114048481">
        <ele>1476.23999</ele>
        <time>2017-06-13T10:19:58Z</time>
      </trkpt>
      <trkpt lat="41.956559037789702" lon="13.142977058887482">
        <ele>1476.23999</ele>
        <time>2017-06-13T10:20:09Z</time>
      </trkpt>
      <trkpt lat="41.956500364467502" lon="13.142937161028385">
        <ele>1477.6800539999999</ele>
        <time>2017-06-13T10:20:17Z</time>
      </trkpt>
      <trkpt lat="41.956364158540964" lon="13.142879661172628">
        <ele>1477.6800539999999</ele>
        <time>2017-06-13T10:20:29Z</time>
      </trkpt>
      <trkpt lat="41.956323338672519" lon="13.142853761091828">
        <ele>1477.6800539999999</ele>
        <time>2017-06-13T10:20:34Z</time>
      </trkpt>
      <trkpt lat="41.956264497712255" lon="13.142821071669459">
        <ele>1477.6800539999999</ele>
        <time>2017-06-13T10:20:38Z</time>
      </trkpt>
      <trkpt lat="41.956139020621777" lon="13.142746305093169">
        <ele>1477.6800539999999</ele>
        <time>2017-06-13T10:20:51Z</time>
      </trkpt>
      <trkpt lat="41.956009184941649" lon="13.142691403627396">
        <ele>1477.6800539999999</ele>
        <time>2017-06-13T10:21:03Z</time>
      </trkpt>
      <trkpt lat="41.955875577405095" lon="13.142630718648434">
        <ele>1477.6800539999999</ele>
        <time>2017-06-13T10:21:15Z</time>
      </trkpt>
      <trkpt lat="41.955792428925633" lon="13.142598532140255">
        <ele>1478.160034</ele>
        <time>2017-06-13T10:21:22Z</time>
      </trkpt>
      <trkpt lat="41.955645577982068" lon="13.142565339803696">
        <ele>1478.160034</ele>
        <time>2017-06-13T10:21:35Z</time>
      </trkpt>
      <trkpt lat="41.95551473647356" lon="13.142496105283499">
        <ele>1479.130005</ele>
        <time>2017-06-13T10:21:47Z</time>
      </trkpt>
      <trkpt lat="41.95550593547523" lon="13.142495937645435">
        <ele>1479.130005</ele>
        <time>2017-06-13T10:21:48Z</time>
      </trkpt>
      <trkpt lat="41.955363694578409" lon="13.142431480810046">
        <ele>1479.130005</ele>
        <time>2017-06-13T10:22:00Z</time>
      </trkpt>
      <trkpt lat="41.955241737887263" lon="13.142410861328244">
        <ele>1480.0900879999999</ele>
        <time>2017-06-13T10:22:13Z</time>
      </trkpt>
      <trkpt lat="41.955159259960055" lon="13.142374400049448">
        <ele>1480.0900879999999</ele>
        <time>2017-06-13T10:22:21Z</time>
      </trkpt>
      <trkpt lat="41.955130761489272" lon="13.142386134713888">
        <ele>1480.570068</ele>
        <time>2017-06-13T10:22:32Z</time>
      </trkpt>
      <trkpt lat="41.955123972147703" lon="13.142363922670484">
        <ele>1480.570068</ele>
        <time>2017-06-13T10:22:49Z</time>
      </trkpt>
      <trkpt lat="41.955133359879255" lon="13.142379764467478">
        <ele>1480.570068</ele>
        <time>2017-06-13T10:23:01Z</time>
      </trkpt>
      <trkpt lat="41.955133024603128" lon="13.142363335937262">
        <ele>1480.570068</ele>
        <time>2017-06-13T10:23:28Z</time>
      </trkpt>
      <trkpt lat="41.955116260796785" lon="13.142391163855791">
        <ele>1480.570068</ele>
        <time>2017-06-13T10:23:54Z</time>
      </trkpt>
      <trkpt lat="41.955111064016819" lon="13.142374735325575">
        <ele>1480.570068</ele>
        <time>2017-06-13T10:24:24Z</time>
      </trkpt>
      <trkpt lat="41.955145262181759" lon="13.142376495525241">
        <ele>1480.570068</ele>
        <time>2017-06-13T10:24:37Z</time>
      </trkpt>
      <trkpt lat="41.955137634649873" lon="13.142375741153955">
        <ele>1481.0500489999999</ele>
        <time>2017-06-13T10:24:58Z</time>
      </trkpt>
      <trkpt lat="41.955140568315983" lon="13.142383368685842">
        <ele>1481.0500489999999</ele>
        <time>2017-06-13T10:25:33Z</time>
      </trkpt>
      <trkpt lat="41.95515071041882" lon="13.142402730882168">
        <ele>1481.0500489999999</ele>
        <time>2017-06-13T10:26:05Z</time>
      </trkpt>
      <trkpt lat="41.955155404284596" lon="13.142348835244775">
        <ele>1481.0500489999999</ele>
        <time>2017-06-13T10:26:23Z</time>
      </trkpt>
      <trkpt lat="41.955154566094279" lon="13.142392169684172">
        <ele>1481.0500489999999</ele>
        <time>2017-06-13T10:26:38Z</time>
      </trkpt>
      <trkpt lat="41.955132940784097" lon="13.142402898520231">
        <ele>1481.5299070000001</ele>
        <time>2017-06-13T10:27:03Z</time>
      </trkpt>
      <trkpt lat="41.955128917470574" lon="13.142351936548948">
        <ele>1481.5299070000001</ele>
        <time>2017-06-13T10:27:22Z</time>
      </trkpt>
      <trkpt lat="41.955119865015149" lon="13.142361911013722">
        <ele>1480.570068</ele>
        <time>2017-06-13T10:27:53Z</time>
      </trkpt>
      <trkpt lat="41.955149536952376" lon="13.142399881035089">
        <ele>1480.570068</ele>
        <time>2017-06-13T10:28:15Z</time>
      </trkpt>
      <trkpt lat="41.955135958269238" lon="13.142399629577994">
        <ele>1480.570068</ele>
        <time>2017-06-13T10:28:47Z</time>
      </trkpt>
      <trkpt lat="41.95516437292099" lon="13.142374064773321">
        <ele>1480.570068</ele>
        <time>2017-06-13T10:29:21Z</time>
      </trkpt>
      <trkpt lat="41.95517367683351" lon="13.142395606264472">
        <ele>1480.570068</ele>
        <time>2017-06-13T10:30:03Z</time>
      </trkpt>
      <trkpt lat="41.955166636034846" lon="13.142406335100532">
        <ele>1481.0500489999999</ele>
        <time>2017-06-13T10:30:48Z</time>
      </trkpt>
      <trkpt lat="41.955149872228503" lon="13.142407340928912">
        <ele>1481.0500489999999</ele>
        <time>2017-06-13T10:31:00Z</time>
      </trkpt>
      <trkpt lat="41.955130258575082" lon="13.14238571561873">
        <ele>1481.0500489999999</ele>
        <time>2017-06-13T10:31:25Z</time>
      </trkpt>
      <trkpt lat="41.955092372372746" lon="13.142388062551618">
        <ele>1481.0500489999999</ele>
        <time>2017-06-13T10:31:57Z</time>
      </trkpt>
      <trkpt lat="41.955119362100959" lon="13.142409771680832">
        <ele>1481.0500489999999</ele>
        <time>2017-06-13T10:32:32Z</time>
      </trkpt>
      <trkpt lat="41.955087762326002" lon="13.1423578877002">
        <ele>1481.5299070000001</ele>
        <time>2017-06-13T10:33:02Z</time>
      </trkpt>
      <trkpt lat="41.955141741782427" lon="13.142347661778331">
        <ele>1481.5299070000001</ele>
        <time>2017-06-13T10:33:14Z</time>
      </trkpt>
      <trkpt lat="41.955135287716985" lon="13.142348835244775">
        <ele>1481.5299070000001</ele>
        <time>2017-06-13T10:33:30Z</time>
      </trkpt>
      <trkpt lat="41.955119613558054" lon="13.142365012317896">
        <ele>1481.5299070000001</ele>
        <time>2017-06-13T10:33:53Z</time>
      </trkpt>
      <trkpt lat="41.955165797844529" lon="13.142365179955959">
        <ele>1481.5299070000001</ele>
        <time>2017-06-13T10:34:10Z</time>
      </trkpt>
      <trkpt lat="41.955165630206466" lon="13.142380435019732">
        <ele>1481.5299070000001</ele>
        <time>2017-06-13T10:34:15Z</time>
      </trkpt>
      <trkpt lat="41.955164037644863" lon="13.142373058944941">
        <ele>1481.5299070000001</ele>
        <time>2017-06-13T10:34:30Z</time>
      </trkpt>
      <trkpt lat="41.955161606892943" lon="13.142395606264472">
        <ele>1481.5299070000001</ele>
        <time>2017-06-13T10:34:46Z</time>
      </trkpt>
      <trkpt lat="41.955152889713645" lon="13.142400132492185">
        <ele>1481.5299070000001</ele>
        <time>2017-06-13T10:35:13Z</time>
      </trkpt>
      <trkpt lat="41.955162361264229" lon="13.142374316230416">
        <ele>1481.5299070000001</ele>
        <time>2017-06-13T10:35:51Z</time>
      </trkpt>
      <trkpt lat="41.955095389857888" lon="13.142394013702869">
        <ele>1481.5299070000001</ele>
        <time>2017-06-13T10:36:04Z</time>
      </trkpt>
      <trkpt lat="41.955042080953717" lon="13.142383703961968">
        <ele>1481.5299070000001</ele>
        <time>2017-06-13T10:36:23Z</time>
      </trkpt>
      <trkpt lat="41.95496940985322" lon="13.142409520223737">
        <ele>1483.4499510000001</ele>
        <time>2017-06-13T10:36:32Z</time>
      </trkpt>
      <trkpt lat="41.954998159781098" lon="13.142378758639097">
        <ele>1483.4499510000001</ele>
        <time>2017-06-13T10:36:39Z</time>
      </trkpt>
      <trkpt lat="41.955078961327672" lon="13.142361072823405">
        <ele>1482.009888</ele>
        <time>2017-06-13T10:36:47Z</time>
      </trkpt>
      <trkpt lat="41.955093964934349" lon="13.142344560474157">
        <ele>1482.009888</ele>
        <time>2017-06-13T10:37:04Z</time>
      </trkpt>
      <trkpt lat="41.955104861408472" lon="13.142332909628749">
        <ele>1482.009888</ele>
        <time>2017-06-13T10:37:19Z</time>
      </trkpt>
      <trkpt lat="41.955120787024498" lon="13.142339866608381">
        <ele>1481.0500489999999</ele>
        <time>2017-06-13T10:37:31Z</time>
      </trkpt>
      <trkpt lat="41.95512481033802" lon="13.142383620142937">
        <ele>1481.0500489999999</ele>
        <time>2017-06-13T10:37:58Z</time>
      </trkpt>
      <trkpt lat="41.955140819773078" lon="13.142362665385008">
        <ele>1482.48999</ele>
        <time>2017-06-13T10:38:05Z</time>
      </trkpt>
      <trkpt lat="41.955162277445197" lon="13.142293933779001">
        <ele>1482.48999</ele>
        <time>2017-06-13T10:38:17Z</time>
      </trkpt>
      <trkpt lat="41.955243581905961" lon="13.142296364530921">
        <ele>1482.48999</ele>
        <time>2017-06-13T10:38:29Z</time>
      </trkpt>
      <trkpt lat="41.955266464501619" lon="13.142292592674494">
        <ele>1482.48999</ele>
        <time>2017-06-13T10:38:43Z</time>
      </trkpt>
      <trkpt lat="41.95520686917007" lon="13.142342464998364">
        <ele>1482.48999</ele>
        <time>2017-06-13T10:38:55Z</time>
      </trkpt>
      <trkpt lat="41.955143669620156" lon="13.142383117228746">
        <ele>1482.48999</ele>
        <time>2017-06-13T10:39:06Z</time>
      </trkpt>
      <trkpt lat="41.955104526132345" lon="13.142368365079165">
        <ele>1482.48999</ele>
        <time>2017-06-13T10:39:16Z</time>
      </trkpt>
      <trkpt lat="41.95511257275939" lon="13.142362833023071">
        <ele>1481.0500489999999</ele>
        <time>2017-06-13T10:39:20Z</time>
      </trkpt>
      <trkpt lat="41.955118607729673" lon="13.142375741153955">
        <ele>1481.5299070000001</ele>
        <time>2017-06-13T10:39:46Z</time>
      </trkpt>
      <trkpt lat="41.955132437869906" lon="13.142358474433422">
        <ele>1481.5299070000001</ele>
        <time>2017-06-13T10:40:11Z</time>
      </trkpt>
      <trkpt lat="41.955126570537686" lon="13.142358139157295">
        <ele>1481.5299070000001</ele>
        <time>2017-06-13T10:40:38Z</time>
      </trkpt>
      <trkpt lat="41.955153560265899" lon="13.142376327887177">
        <ele>1481.5299070000001</ele>
        <time>2017-06-13T10:41:13Z</time>
      </trkpt>
      <trkpt lat="41.955150878056884" lon="13.142363000661135">
        <ele>1481.5299070000001</ele>
        <time>2017-06-13T10:41:49Z</time>
      </trkpt>
      <trkpt lat="41.955146519467235" lon="13.142363587394357">
        <ele>1481.5299070000001</ele>
        <time>2017-06-13T10:42:21Z</time>
      </trkpt>
      <trkpt lat="41.955142999067903" lon="13.142357720062137">
        <ele>1481.5299070000001</ele>
        <time>2017-06-13T10:42:59Z</time>
      </trkpt>
      <trkpt lat="41.955150961875916" lon="13.142353864386678">
        <ele>1481.5299070000001</ele>
        <time>2017-06-13T10:43:34Z</time>
      </trkpt>
      <trkpt lat="41.955142160877585" lon="13.142354283481836">
        <ele>1481.5299070000001</ele>
        <time>2017-06-13T10:44:03Z</time>
      </trkpt>
      <trkpt lat="41.955133359879255" lon="13.142375322058797">
        <ele>1481.5299070000001</ele>
        <time>2017-06-13T10:44:34Z</time>
      </trkpt>
      <trkpt lat="41.955125732347369" lon="13.142376076430082">
        <ele>1481.5299070000001</ele>
        <time>2017-06-13T10:45:04Z</time>
      </trkpt>
      <trkpt lat="41.95513210259378" lon="13.142385967075825">
        <ele>1481.5299070000001</ele>
        <time>2017-06-13T10:45:29Z</time>
      </trkpt>
      <trkpt lat="41.955115087330341" lon="13.142399881035089">
        <ele>1481.5299070000001</ele>
        <time>2017-06-13T10:45:45Z</time>
      </trkpt>
      <trkpt lat="41.955099161714315" lon="13.142364341765642">
        <ele>1481.5299070000001</ele>
        <time>2017-06-13T10:46:21Z</time>
      </trkpt>
      <trkpt lat="41.955089941620827" lon="13.14234858378768">
        <ele>1481.5299070000001</ele>
        <time>2017-06-13T10:46:47Z</time>
      </trkpt>
      <trkpt lat="41.955104693770409" lon="13.142376914620399">
        <ele>1481.5299070000001</ele>
        <time>2017-06-13T10:47:18Z</time>
      </trkpt>
      <trkpt lat="41.955123720690608" lon="13.142364928498864">
        <ele>1481.5299070000001</ele>
        <time>2017-06-13T10:47:49Z</time>
      </trkpt>
      <trkpt lat="41.955114165320992" lon="13.142344560474157">
        <ele>1481.5299070000001</ele>
        <time>2017-06-13T10:48:16Z</time>
      </trkpt>
      <trkpt lat="41.955128163099289" lon="13.1423319876194">
        <ele>1481.5299070000001</ele>
        <time>2017-06-13T10:48:18Z</time>
      </trkpt>
      <trkpt lat="41.955143669620156" lon="13.142329221591353">
        <ele>1481.5299070000001</ele>
        <time>2017-06-13T10:48:30Z</time>
      </trkpt>
      <trkpt lat="41.95513210259378" lon="13.142367359250784">
        <ele>1481.5299070000001</ele>
        <time>2017-06-13T10:48:43Z</time>
      </trkpt>
      <trkpt lat="41.955125229433179" lon="13.142408598214388">
        <ele>1482.009888</ele>
        <time>2017-06-13T10:49:15Z</time>
      </trkpt>
      <trkpt lat="41.955118775367737" lon="13.142402395606041">
        <ele>1482.009888</ele>
        <time>2017-06-13T10:49:33Z</time>
      </trkpt>
      <trkpt lat="41.95510377176106" lon="13.142408765852451">
        <ele>1482.969971</ele>
        <time>2017-06-13T10:49:36Z</time>
      </trkpt>
      <trkpt lat="41.955067059025168" lon="13.142412286251783">
        <ele>1482.969971</ele>
        <time>2017-06-13T10:49:48Z</time>
      </trkpt>
      <trkpt lat="41.955074435099959" lon="13.142397534102201">
        <ele>1482.969971</ele>
        <time>2017-06-13T10:50:20Z</time>
      </trkpt>
      <trkpt lat="41.955054234713316" lon="13.142412789165974">
        <ele>1482.969971</ele>
        <time>2017-06-13T10:50:51Z</time>
      </trkpt>
      <trkpt lat="41.955019701272249" lon="13.142379513010383">
        <ele>1483.4499510000001</ele>
        <time>2017-06-13T10:50:57Z</time>
      </trkpt>
      <trkpt lat="41.954969996586442" lon="13.142335005104542">
        <ele>1483.4499510000001</ele>
        <time>2017-06-13T10:51:03Z</time>
      </trkpt>
      <trkpt lat="41.954916771501303" lon="13.142308015376329">
        <ele>1484.4099120000001</ele>
        <time>2017-06-13T10:51:09Z</time>
      </trkpt>
      <trkpt lat="41.954839490354061" lon="13.142208103090525">
        <ele>1484.8900149999999</ele>
        <time>2017-06-13T10:51:19Z</time>
      </trkpt>
      <trkpt lat="41.954815685749054" lon="13.1421316601336">
        <ele>1484.8900149999999</ele>
        <time>2017-06-13T10:51:27Z</time>
      </trkpt>
      <trkpt lat="41.954734465107322" lon="13.142015570774674">
        <ele>1486.339966</ele>
        <time>2017-06-13T10:51:41Z</time>
      </trkpt>
      <trkpt lat="41.954626003280282" lon="13.141917083412409">
        <ele>1487.780029</ele>
        <time>2017-06-13T10:51:54Z</time>
      </trkpt>
      <trkpt lat="41.95453162305057" lon="13.14183896407485">
        <ele>1489.700073</ele>
        <time>2017-06-13T10:52:08Z</time>
      </trkpt>
      <trkpt lat="41.954448558390141" lon="13.14174466766417">
        <ele>1491.139893</ele>
        <time>2017-06-13T10:52:22Z</time>
      </trkpt>
      <trkpt lat="41.954369097948074" lon="13.14166939817369">
        <ele>1494.030029</ele>
        <time>2017-06-13T10:52:38Z</time>
      </trkpt>
      <trkpt lat="41.954300366342068" lon="13.14167476259172">
        <ele>1495.950073</ele>
        <time>2017-06-13T10:52:53Z</time>
      </trkpt>
      <trkpt lat="41.954240435734391" lon="13.14164886251092">
        <ele>1497.3900149999999</ele>
        <time>2017-06-13T10:53:07Z</time>
      </trkpt>
      <trkpt lat="41.954183019697666" lon="13.141624890267849">
        <ele>1499.3100589999999</ele>
        <time>2017-06-13T10:53:19Z</time>
      </trkpt>
      <trkpt lat="41.954105738550425" lon="13.141616173088551">
        <ele>1500.76001</ele>
        <time>2017-06-13T10:53:32Z</time>
      </trkpt>
      <trkpt lat="41.954018902033567" lon="13.141644839197397">
        <ele>1502.1999510000001</ele>
        <time>2017-06-13T10:53:45Z</time>
      </trkpt>
      <trkpt lat="41.953997695818543" lon="13.141645090654492">
        <ele>1501.719971</ele>
        <time>2017-06-13T10:53:49Z</time>
      </trkpt>
      <trkpt lat="41.953959558159113" lon="13.141689766198397">
        <ele>1502.1999510000001</ele>
        <time>2017-06-13T10:53:55Z</time>
      </trkpt>
      <trkpt lat="41.953876661136746" lon="13.141739387065172">
        <ele>1500.2698969999999</ele>
        <time>2017-06-13T10:54:07Z</time>
      </trkpt>
      <trkpt lat="41.95378202944994" lon="13.141784314066172">
        <ele>1499.790039</ele>
        <time>2017-06-13T10:54:18Z</time>
      </trkpt>
      <trkpt lat="41.953772474080324" lon="13.14179546199739">
        <ele>1499.790039</ele>
        <time>2017-06-13T10:54:19Z</time>
      </trkpt>
      <trkpt lat="41.953689074143767" lon="13.141852123662829">
        <ele>1498.830078</ele>
        <time>2017-06-13T10:54:31Z</time>
      </trkpt>
      <trkpt lat="41.953681278973818" lon="13.14184382557869">
        <ele>1498.830078</ele>
        <time>2017-06-13T10:54:32Z</time>
      </trkpt>
      <trkpt lat="41.953621683642268" lon="13.141784565523267">
        <ele>1497.869995</ele>
        <time>2017-06-13T10:54:41Z</time>
      </trkpt>
      <trkpt lat="41.953549096360803" lon="13.141783894971013">
        <ele>1496.4300539999999</ele>
        <time>2017-06-13T10:54:49Z</time>
      </trkpt>
      <trkpt lat="41.953505175188184" lon="13.141616508364677">
        <ele>1495.950073</ele>
        <time>2017-06-13T10:55:00Z</time>
      </trkpt>
      <trkpt lat="41.953494027256966" lon="13.141597984358668">
        <ele>1495.950073</ele>
        <time>2017-06-13T10:55:02Z</time>
      </trkpt>
      <trkpt lat="41.953383134678006" lon="13.141505029052496">
        <ele>1496.4300539999999</ele>
        <time>2017-06-13T10:55:14Z</time>
      </trkpt>
      <trkpt lat="41.953264698386192" lon="13.141401512548327">
        <ele>1496.4300539999999</ele>
        <time>2017-06-13T10:55:25Z</time>
      </trkpt>
      <trkpt lat="41.95322060957551" lon="13.141356837004423">
        <ele>1497.869995</ele>
        <time>2017-06-13T10:55:31Z</time>
      </trkpt>
      <trkpt lat="41.953153638169169" lon="13.141252566128969">
        <ele>1497.869995</ele>
        <time>2017-06-13T10:55:41Z</time>
      </trkpt>
      <trkpt lat="41.953077362850308" lon="13.141143433749676">
        <ele>1498.830078</ele>
        <time>2017-06-13T10:55:52Z</time>
      </trkpt>
      <trkpt lat="41.953004691749811" lon="13.141023404896259">
        <ele>1500.76001</ele>
        <time>2017-06-13T10:56:05Z</time>
      </trkpt>
      <trkpt lat="41.952966721728444" lon="13.140923408791423">
        <ele>1501.23999</ele>
        <time>2017-06-13T10:56:13Z</time>
      </trkpt>
      <trkpt lat="41.952943922951818" lon="13.140803463757038">
        <ele>1502.6800539999999</ele>
        <time>2017-06-13T10:56:24Z</time>
      </trkpt>
      <trkpt lat="41.952912071719766" lon="13.140766331925988">
        <ele>1501.23999</ele>
        <time>2017-06-13T10:56:39Z</time>
      </trkpt>
      <trkpt lat="41.952924141660333" lon="13.140778318047523">
        <ele>1501.23999</ele>
        <time>2017-06-13T10:56:50Z</time>
      </trkpt>
      <trkpt lat="41.952917017042637" lon="13.140778820961714">
        <ele>1501.23999</ele>
        <time>2017-06-13T10:57:05Z</time>
      </trkpt>
      <trkpt lat="41.952906874939799" lon="13.140778066590428">
        <ele>1501.23999</ele>
        <time>2017-06-13T10:57:08Z</time>
      </trkpt>
      <trkpt lat="41.952891033142805" lon="13.140763062983751">
        <ele>1501.23999</ele>
        <time>2017-06-13T10:57:10Z</time>
      </trkpt>
      <trkpt lat="41.952844262123108" lon="13.140691481530666">
        <ele>1499.790039</ele>
        <time>2017-06-13T10:57:20Z</time>
      </trkpt>
      <trkpt lat="41.952841663733125" lon="13.140670862048864">
        <ele>1499.790039</ele>
        <time>2017-06-13T10:57:22Z</time>
      </trkpt>
      <trkpt lat="41.952811572700739" lon="13.140588635578752">
        <ele>1498.3500979999999</ele>
        <time>2017-06-13T10:57:29Z</time>
      </trkpt>
      <trkpt lat="41.952774440869689" lon="13.140521831810474">
        <ele>1497.3900149999999</ele>
        <time>2017-06-13T10:57:36Z</time>
      </trkpt>
      <trkpt lat="41.952711073681712" lon="13.140372131019831">
        <ele>1494.51001</ele>
        <time>2017-06-13T10:57:50Z</time>
      </trkpt>
      <trkpt lat="41.952664973214269" lon="13.140295101329684">
        <ele>1492.099976</ele>
        <time>2017-06-13T10:58:00Z</time>
      </trkpt>
      <trkpt lat="41.95260931737721" lon="13.140217484906316">
        <ele>1490.1800539999999</ele>
        <time>2017-06-13T10:58:12Z</time>
      </trkpt>
      <trkpt lat="41.952544106170535" lon="13.140104077756405">
        <ele>1486.820068</ele>
        <time>2017-06-13T10:58:26Z</time>
      </trkpt>
      <trkpt lat="41.952497586607933" lon="13.140060659497976">
        <ele>1484.8900149999999</ele>
        <time>2017-06-13T10:58:34Z</time>
      </trkpt>
      <trkpt lat="41.95244419388473" lon="13.140029311180115">
        <ele>1483.4499510000001</ele>
        <time>2017-06-13T10:58:49Z</time>
      </trkpt>
      <trkpt lat="41.95244318805635" lon="13.140022521838546">
        <ele>1483.4499510000001</ele>
        <time>2017-06-13T10:58:52Z</time>
      </trkpt>
      <trkpt lat="41.952357860282063" lon="13.139936774969101">
        <ele>1480.570068</ele>
        <time>2017-06-13T10:59:07Z</time>
      </trkpt>
      <trkpt lat="41.952300360426307" lon="13.139913976192474">
        <ele>1479.130005</ele>
        <time>2017-06-13T10:59:20Z</time>
      </trkpt>
      <trkpt lat="41.952309161424637" lon="13.1399040017277">
        <ele>1478.160034</ele>
        <time>2017-06-13T10:59:34Z</time>
      </trkpt>
      <trkpt lat="41.95229709148407" lon="13.139883130788803">
        <ele>1478.160034</ele>
        <time>2017-06-13T10:59:53Z</time>
      </trkpt>
      <trkpt lat="41.952306227758527" lon="13.139818506315351">
        <ele>1477.6800539999999</ele>
        <time>2017-06-13T11:00:40Z</time>
      </trkpt>
      <trkpt lat="41.952272700145841" lon="13.13977257348597">
        <ele>1475.280029</ele>
        <time>2017-06-13T11:01:05Z</time>
      </trkpt>
      <trkpt lat="41.952264988794923" lon="13.139770310372114">
        <ele>1474.799927</ele>
        <time>2017-06-13T11:01:06Z</time>
      </trkpt>
      <trkpt lat="41.952247135341167" lon="13.13976670615375">
        <ele>1474.3199460000001</ele>
        <time>2017-06-13T11:01:08Z</time>
      </trkpt>
      <trkpt lat="41.952144876122475" lon="13.139701830223203">
        <ele>1470.469971</ele>
        <time>2017-06-13T11:01:24Z</time>
      </trkpt>
      <trkpt lat="41.95209676399827" lon="13.139622621238232">
        <ele>1467.589966</ele>
        <time>2017-06-13T11:01:38Z</time>
      </trkpt>
      <trkpt lat="41.952019985765219" lon="13.13954877667129">
        <ele>1464.709961</ele>
        <time>2017-06-13T11:01:52Z</time>
      </trkpt>
      <trkpt lat="41.951970364898443" lon="13.139475770294666">
        <ele>1461.339966</ele>
        <time>2017-06-13T11:02:02Z</time>
      </trkpt>
      <trkpt lat="41.951957959681749" lon="13.139458000659943">
        <ele>1461.339966</ele>
        <time>2017-06-13T11:02:04Z</time>
      </trkpt>
      <trkpt lat="41.951856538653374" lon="13.139384491369128">
        <ele>1457.9799800000001</ele>
        <time>2017-06-13T11:02:17Z</time>
      </trkpt>
      <trkpt lat="41.951847989112139" lon="13.139378121122718">
        <ele>1457.9799800000001</ele>
        <time>2017-06-13T11:02:18Z</time>
      </trkpt>
      <trkpt lat="41.951827369630337" lon="13.1393410731107">
        <ele>1457.0200199999999</ele>
        <time>2017-06-13T11:02:21Z</time>
      </trkpt>
      <trkpt lat="41.951725194230676" lon="13.139271335676312">
        <ele>1455.0900879999999</ele>
        <time>2017-06-13T11:02:34Z</time>
      </trkpt>
      <trkpt lat="41.951717985793948" lon="13.139255829155445">
        <ele>1453.650024</ele>
        <time>2017-06-13T11:02:36Z</time>
      </trkpt>
      <trkpt lat="41.9516946002841" lon="13.139196904376149">
        <ele>1452.209961</ele>
        <time>2017-06-13T11:02:43Z</time>
      </trkpt>
      <trkpt lat="41.951632993295789" lon="13.139150636270642">
        <ele>1450.290039</ele>
        <time>2017-06-13T11:02:51Z</time>
      </trkpt>
      <trkpt lat="41.951598962768912" lon="13.139142002910376">
        <ele>1449.8100589999999</ele>
        <time>2017-06-13T11:02:54Z</time>
      </trkpt>
      <trkpt lat="41.951570883393288" lon="13.13913831487298">
        <ele>1447.8801269999999</ele>
        <time>2017-06-13T11:02:57Z</time>
      </trkpt>
      <trkpt lat="41.95150014013052" lon="13.139082659035921">
        <ele>1445.4801030000001</ele>
        <time>2017-06-13T11:03:06Z</time>
      </trkpt>
      <trkpt lat="41.951443897560239" lon="13.139017866924405">
        <ele>1443.5600589999999</ele>
        <time>2017-06-13T11:03:16Z</time>
      </trkpt>
      <trkpt lat="41.951398300006986" lon="13.139002528041601">
        <ele>1442.599976</ele>
        <time>2017-06-13T11:03:21Z</time>
      </trkpt>
      <trkpt lat="41.951371058821678" lon="13.138990793377161">
        <ele>1442.1099850000001</ele>
        <time>2017-06-13T11:03:24Z</time>
      </trkpt>
      <trkpt lat="41.951254969462752" lon="13.138932539150119">
        <ele>1438.2698969999999</ele>
        <time>2017-06-13T11:03:38Z</time>
      </trkpt>
      <trkpt lat="41.951210293918848" lon="13.138901861384511">
        <ele>1437.3100589999999</ele>
        <time>2017-06-13T11:03:44Z</time>
      </trkpt>
      <trkpt lat="41.951157907024026" lon="13.138852072879672">
        <ele>1435.869995</ele>
        <time>2017-06-13T11:03:49Z</time>
      </trkpt>
      <trkpt lat="41.951080458238721" lon="13.138802703469992">
        <ele>1433.9399410000001</ele>
        <time>2017-06-13T11:03:58Z</time>
      </trkpt>
      <trkpt lat="41.951031340286136" lon="13.138784766197205">
        <ele>1432.5</ele>
        <time>2017-06-13T11:04:04Z</time>
      </trkpt>
      <trkpt lat="41.950994459912181" lon="13.13877621665597">
        <ele>1432.0200199999999</ele>
        <time>2017-06-13T11:04:08Z</time>
      </trkpt>
      <trkpt lat="41.950875939801335" lon="13.138720309361815">
        <ele>1430.099976</ele>
        <time>2017-06-13T11:04:21Z</time>
      </trkpt>
      <trkpt lat="41.950780134648085" lon="13.138594832271338">
        <ele>1428.179932</ele>
        <time>2017-06-13T11:04:33Z</time>
      </trkpt>
      <trkpt lat="41.950757335871458" lon="13.13856759108603">
        <ele>1427.209961</ele>
        <time>2017-06-13T11:04:36Z</time>
      </trkpt>
      <trkpt lat="41.950655663385987" lon="13.138465331867337">
        <ele>1426.25</ele>
        <time>2017-06-13T11:04:46Z</time>
      </trkpt>
      <trkpt lat="41.950637474656105" lon="13.138425434008241">
        <ele>1424.8100589999999</ele>
        <time>2017-06-13T11:04:49Z</time>
      </trkpt>
      <trkpt lat="41.950584501028061" lon="13.138256203383207">
        <ele>1421.929932</ele>
        <time>2017-06-13T11:05:01Z</time>
      </trkpt>
      <trkpt lat="41.950505627319217" lon="13.138161906972528">
        <ele>1418.5600589999999</ele>
        <time>2017-06-13T11:05:14Z</time>
      </trkpt>
      <trkpt lat="41.95042516104877" lon="13.138102982193232">
        <ele>1418.080078</ele>
        <time>2017-06-13T11:05:23Z</time>
      </trkpt>
      <trkpt lat="41.950357770547271" lon="13.138089822605252">
        <ele>1416.6400149999999</ele>
        <time>2017-06-13T11:05:28Z</time>
      </trkpt>
      <trkpt lat="41.950179822742939" lon="13.138057300820947">
        <ele>1412.7899170000001</ele>
        <time>2017-06-13T11:05:42Z</time>
      </trkpt>
      <trkpt lat="41.950135733932257" lon="13.138074399903417">
        <ele>1412.3100589999999</ele>
        <time>2017-06-13T11:05:47Z</time>
      </trkpt>
      <trkpt lat="41.950075635686517" lon="13.13801203854382">
        <ele>1410.869995</ele>
        <time>2017-06-13T11:05:54Z</time>
      </trkpt>
      <trkpt lat="41.950036827474833" lon="13.13787616789341">
        <ele>1407.51001</ele>
        <time>2017-06-13T11:06:05Z</time>
      </trkpt>
      <trkpt lat="41.950014363974333" lon="13.137772735208273">
        <ele>1406.5500489999999</ele>
        <time>2017-06-13T11:06:12Z</time>
      </trkpt>
      <trkpt lat="41.950019225478172" lon="13.137730993330479">
        <ele>1405.579956</ele>
        <time>2017-06-13T11:06:15Z</time>
      </trkpt>
      <trkpt lat="41.950016710907221" lon="13.137693023309112">
        <ele>1405.099976</ele>
        <time>2017-06-13T11:06:22Z</time>
      </trkpt>
      <trkpt lat="41.949944291263819" lon="13.137607611715794">
        <ele>1400.780029</ele>
        <time>2017-06-13T11:06:37Z</time>
      </trkpt>
      <trkpt lat="41.949875140562654" lon="13.137661758810282">
        <ele>1398.369995</ele>
        <time>2017-06-13T11:06:50Z</time>
      </trkpt>
      <trkpt lat="41.949855862185359" lon="13.137694112956524">
        <ele>1397.8900149999999</ele>
        <time>2017-06-13T11:06:54Z</time>
      </trkpt>
      <trkpt lat="41.94982367567718" lon="13.13768807798624">
        <ele>1395.969971</ele>
        <time>2017-06-13T11:06:59Z</time>
      </trkpt>
      <trkpt lat="41.949785286560655" lon="13.137639965862036">
        <ele>1395.01001</ele>
        <time>2017-06-13T11:07:06Z</time>
      </trkpt>
      <trkpt lat="41.949737928807735" lon="13.137772819027305">
        <ele>1392.130005</ele>
        <time>2017-06-13T11:07:21Z</time>
      </trkpt>
      <trkpt lat="41.949682105332613" lon="13.137784469872713">
        <ele>1390.6800539999999</ele>
        <time>2017-06-13T11:07:32Z</time>
      </trkpt>
      <trkpt lat="41.949616558849812" lon="13.137702075764537">
        <ele>1389.719971</ele>
        <time>2017-06-13T11:07:45Z</time>
      </trkpt>
      <trkpt lat="41.949602477252483" lon="13.137696040794253">
        <ele>1389.23999</ele>
        <time>2017-06-13T11:07:59Z</time>
      </trkpt>
      <trkpt lat="41.949567692354321" lon="13.137813219800591">
        <ele>1389.23999</ele>
        <time>2017-06-13T11:08:10Z</time>
      </trkpt>
      <trkpt lat="41.949482029303908" lon="13.137924615293741">
        <ele>1388.280029</ele>
        <time>2017-06-13T11:08:20Z</time>
      </trkpt>
      <trkpt lat="41.949364934116602" lon="13.137984881177545">
        <ele>1384.4399410000001</ele>
        <time>2017-06-13T11:08:33Z</time>
      </trkpt>
      <trkpt lat="41.949205426499248" lon="13.138048918917775">
        <ele>1381.5500489999999</ele>
        <time>2017-06-13T11:08:48Z</time>
      </trkpt>
      <trkpt lat="41.949154296889901" lon="13.138063503429294">
        <ele>1380.1099850000001</ele>
        <time>2017-06-13T11:08:55Z</time>
      </trkpt>
      <trkpt lat="41.949021527543664" lon="13.138055205345154">
        <ele>1376.75</ele>
        <time>2017-06-13T11:09:08Z</time>
      </trkpt>
      <trkpt lat="41.948902420699596" lon="13.138043889775872">
        <ele>1375.780029</ele>
        <time>2017-06-13T11:09:20Z</time>
      </trkpt>
      <trkpt lat="41.948865875601768" lon="13.138050092384219">
        <ele>1375.780029</ele>
        <time>2017-06-13T11:09:24Z</time>
      </trkpt>
      <trkpt lat="41.948843831196427" lon="13.138065012171865">
        <ele>1375.780029</ele>
        <time>2017-06-13T11:09:26Z</time>
      </trkpt>
      <trkpt lat="41.948643838986754" lon="13.13821722753346">
        <ele>1373.8599850000001</ele>
        <time>2017-06-13T11:09:43Z</time>
      </trkpt>
      <trkpt lat="41.948584914207458" lon="13.138314206153154">
        <ele>1372.420044</ele>
        <time>2017-06-13T11:09:54Z</time>
      </trkpt>
      <trkpt lat="41.948487600311637" lon="13.138483101502061">
        <ele>1370.9799800000001</ele>
        <time>2017-06-13T11:10:05Z</time>
      </trkpt>
      <trkpt lat="41.948293475434184" lon="13.138647805899382">
        <ele>1368.0900879999999</ele>
        <time>2017-06-13T11:10:24Z</time>
      </trkpt>
      <trkpt lat="41.948108989745378" lon="13.138818964362144">
        <ele>1366.650024</ele>
        <time>2017-06-13T11:10:38Z</time>
      </trkpt>
      <trkpt lat="41.947955936193466" lon="13.138936897739768">
        <ele>1365.2100829999999</ele>
        <time>2017-06-13T11:10:53Z</time>
      </trkpt>
      <trkpt lat="41.947842361405492" lon="13.139163460582495">
        <ele>1363.7700199999999</ele>
        <time>2017-06-13T11:11:09Z</time>
      </trkpt>
      <trkpt lat="41.947775725275278" lon="13.139406619593501">
        <ele>1361.839966</ele>
        <time>2017-06-13T11:11:23Z</time>
      </trkpt>
      <trkpt lat="41.947735324501991" lon="13.139599319547415">
        <ele>1360.3999020000001</ele>
        <time>2017-06-13T11:11:36Z</time>
      </trkpt>
      <trkpt lat="41.947699617594481" lon="13.139730663970113">
        <ele>1358.9600829999999</ele>
        <time>2017-06-13T11:11:44Z</time>
      </trkpt>
      <trkpt lat="41.947676483541727" lon="13.139862762764096">
        <ele>1357.9998780000001</ele>
        <time>2017-06-13T11:11:53Z</time>
      </trkpt>
      <trkpt lat="41.947641531005502" lon="13.140076082199812">
        <ele>1356.080078</ele>
        <time>2017-06-13T11:12:09Z</time>
      </trkpt>
      <trkpt lat="41.947539523243904" lon="13.140186807140708">
        <ele>1354.630005</ele>
        <time>2017-06-13T11:12:24Z</time>
      </trkpt>
      <trkpt lat="41.947282701730728" lon="13.140219077467918">
        <ele>1352.709961</ele>
        <time>2017-06-13T11:12:40Z</time>
      </trkpt>
      <trkpt lat="41.947079189121723" lon="13.140177503228188">
        <ele>1351.75</ele>
        <time>2017-06-13T11:12:54Z</time>
      </trkpt>
      <trkpt lat="41.94696276448667" lon="13.140153363347054">
        <ele>1350.7899170000001</ele>
        <time>2017-06-13T11:13:01Z</time>
      </trkpt>
      <trkpt lat="41.946755312383175" lon="13.140247240662575">
        <ele>1348.8698730000001</ele>
        <time>2017-06-13T11:13:18Z</time>
      </trkpt>
      <trkpt lat="41.946638887748122" lon="13.140443712472916">
        <ele>1347.910034</ele>
        <time>2017-06-13T11:13:33Z</time>
      </trkpt>
      <trkpt lat="41.946570407599211" lon="13.140584528446198">
        <ele>1346.459961</ele>
        <time>2017-06-13T11:13:44Z</time>
      </trkpt>
      <trkpt lat="41.94640084169805" lon="13.140900358557701">
        <ele>1345.0200199999999</ele>
        <time>2017-06-13T11:14:02Z</time>
      </trkpt>
      <trkpt lat="41.946392962709069" lon="13.140914859250188">
        <ele>1344.059937</ele>
        <time>2017-06-13T11:14:03Z</time>
      </trkpt>
      <trkpt lat="41.946319788694382" lon="13.141008820384741">
        <ele>1344.059937</ele>
        <time>2017-06-13T11:14:12Z</time>
      </trkpt>
      <trkpt lat="41.946297073736787" lon="13.141075288876891">
        <ele>1343.099976</ele>
        <time>2017-06-13T11:14:17Z</time>
      </trkpt>
      <trkpt lat="41.946263965219259" lon="13.141131699085236">
        <ele>1342.619995</ele>
        <time>2017-06-13T11:14:21Z</time>
      </trkpt>
      <trkpt lat="41.946047963574529" lon="13.14139137044549">
        <ele>1340.6999510000001</ele>
        <time>2017-06-13T11:14:39Z</time>
      </trkpt>
      <trkpt lat="41.946029523387551" lon="13.141421712934971">
        <ele>1340.2200929999999</ele>
        <time>2017-06-13T11:14:41Z</time>
      </trkpt>
      <trkpt lat="41.945857023820281" lon="13.141723293811083">
        <ele>1339.25</ele>
        <time>2017-06-13T11:15:01Z</time>
      </trkpt>
      <trkpt lat="41.945696594193578" lon="13.142026299610734">
        <ele>1338.7700199999999</ele>
        <time>2017-06-13T11:15:18Z</time>
      </trkpt>
      <trkpt lat="41.94564932025969" lon="13.142089163884521">
        <ele>1338.290039</ele>
        <time>2017-06-13T11:15:24Z</time>
      </trkpt>
      <trkpt lat="41.945619061589241" lon="13.142183963209391">
        <ele>1338.290039</ele>
        <time>2017-06-13T11:15:39Z</time>
      </trkpt>
      <trkpt lat="41.945590060204268" lon="13.142241630703211">
        <ele>1338.290039</ele>
        <time>2017-06-13T11:15:48Z</time>
      </trkpt>
      <trkpt lat="41.945500541478395" lon="13.142379261553288">
        <ele>1337.8100589999999</ele>
        <time>2017-06-13T11:16:01Z</time>
      </trkpt>
      <trkpt lat="41.945393672212958" lon="13.142569363117218">
        <ele>1339.25</ele>
        <time>2017-06-13T11:16:17Z</time>
      </trkpt>
      <trkpt lat="41.945236092433333" lon="13.142767259851098">
        <ele>1340.2200929999999</ele>
        <time>2017-06-13T11:16:35Z</time>
      </trkpt>
      <trkpt lat="41.945094019174576" lon="13.142885025590658">
        <ele>1341.179932</ele>
        <time>2017-06-13T11:16:49Z</time>
      </trkpt>
      <trkpt lat="41.944960495457053" lon="13.143033720552921">
        <ele>1342.1400149999999</ele>
        <time>2017-06-13T11:17:04Z</time>
      </trkpt>
      <trkpt lat="41.944889836013317" lon="13.143204627558589">
        <ele>1342.619995</ele>
        <time>2017-06-13T11:17:17Z</time>
      </trkpt>
      <trkpt lat="41.94478053599596" lon="13.143302025273442">
        <ele>1343.579956</ele>
        <time>2017-06-13T11:17:30Z</time>
      </trkpt>
      <trkpt lat="41.94461633451283" lon="13.143317615613341">
        <ele>1344.540039</ele>
        <time>2017-06-13T11:17:43Z</time>
      </trkpt>
      <trkpt lat="41.944569395855069" lon="13.143331864848733">
        <ele>1345.0200199999999</ele>
        <time>2017-06-13T11:17:48Z</time>
      </trkpt>
      <trkpt lat="41.944434614852071" lon="13.14340746961534">
        <ele>1346.459961</ele>
        <time>2017-06-13T11:18:02Z</time>
      </trkpt>
      <trkpt lat="41.944417431950569" lon="13.143425909802318">
        <ele>1346.459961</ele>
        <time>2017-06-13T11:18:04Z</time>
      </trkpt>
      <trkpt lat="41.944268988445401" lon="13.143557170405984">
        <ele>1347.4300539999999</ele>
        <time>2017-06-13T11:18:20Z</time>
      </trkpt>
      <trkpt lat="41.944137308746576" lon="13.143688682466745">
        <ele>1347.910034</ele>
        <time>2017-06-13T11:18:34Z</time>
      </trkpt>
      <trkpt lat="41.944027421995997" lon="13.143782978877425">
        <ele>1348.3900149999999</ele>
        <time>2017-06-13T11:18:45Z</time>
      </trkpt>
      <trkpt lat="41.943945363163948" lon="13.143850034102798">
        <ele>1348.8698730000001</ele>
        <time>2017-06-13T11:18:53Z</time>
      </trkpt>
      <trkpt lat="41.943911081179976" lon="13.14390636049211">
        <ele>1348.8698730000001</ele>
        <time>2017-06-13T11:18:57Z</time>
      </trkpt>
      <trkpt lat="41.943819131702185" lon="13.144047763198614">
        <ele>1348.8698730000001</ele>
        <time>2017-06-13T11:19:10Z</time>
      </trkpt>
      <trkpt lat="41.943746041506529" lon="13.144122278317809">
        <ele>1347.4300539999999</ele>
        <time>2017-06-13T11:19:26Z</time>
      </trkpt>
      <trkpt lat="41.943652667105198" lon="13.144287820905447">
        <ele>1346.459961</ele>
        <time>2017-06-13T11:19:40Z</time>
      </trkpt>
      <trkpt lat="41.943525429815054" lon="13.14451027661562">
        <ele>1345.9799800000001</ele>
        <time>2017-06-13T11:19:55Z</time>
      </trkpt>
      <trkpt lat="41.943382434546947" lon="13.144688559696078">
        <ele>1345.9799800000001</ele>
        <time>2017-06-13T11:20:11Z</time>
      </trkpt>
      <trkpt lat="41.94326626136899" lon="13.144876062870026">
        <ele>1345.9799800000001</ele>
        <time>2017-06-13T11:20:26Z</time>
      </trkpt>
      <trkpt lat="41.943146986886859" lon="13.145041605457664">
        <ele>1346.940063</ele>
        <time>2017-06-13T11:20:40Z</time>
      </trkpt>
      <trkpt lat="41.94300239905715" lon="13.145215781405568">
        <ele>1348.3900149999999</ele>
        <time>2017-06-13T11:20:56Z</time>
      </trkpt>
      <trkpt lat="41.942906007170677" lon="13.145364476367831">
        <ele>1348.8698730000001</ele>
        <time>2017-06-13T11:21:09Z</time>
      </trkpt>
      <trkpt lat="41.942767538130283" lon="13.145558265969157">
        <ele>1350.309937</ele>
        <time>2017-06-13T11:21:25Z</time>
      </trkpt>
      <trkpt lat="41.942631164565682" lon="13.145703859627247">
        <ele>1350.7899170000001</ele>
        <time>2017-06-13T11:21:39Z</time>
      </trkpt>
      <trkpt lat="41.942468639463186" lon="13.14586479216814">
        <ele>1351.2698969999999</ele>
        <time>2017-06-13T11:21:55Z</time>
      </trkpt>
      <trkpt lat="41.942375265061855" lon="13.145954227074981">
        <ele>1351.75</ele>
        <time>2017-06-13T11:22:03Z</time>
      </trkpt>
      <trkpt lat="41.942194383591413" lon="13.146094791591167">
        <ele>1351.75</ele>
        <time>2017-06-13T11:22:20Z</time>
      </trkpt>
      <trkpt lat="41.942161526530981" lon="13.146144663915038">
        <ele>1352.2299800000001</ele>
        <time>2017-06-13T11:22:33Z</time>
      </trkpt>
      <trkpt lat="41.942227575927973" lon="13.146118177101016">
        <ele>1352.2299800000001</ele>
        <time>2017-06-13T11:22:44Z</time>
      </trkpt>
      <trkpt lat="41.942172925919294" lon="13.146142065525055">
        <ele>1352.2299800000001</ele>
        <time>2017-06-13T11:22:58Z</time>
      </trkpt>
      <trkpt lat="41.942050717771053" lon="13.146206187084317">
        <ele>1352.2299800000001</ele>
        <time>2017-06-13T11:23:10Z</time>
      </trkpt>
      <trkpt lat="41.941883331164718" lon="13.146330993622541">
        <ele>1352.2299800000001</ele>
        <time>2017-06-13T11:23:26Z</time>
      </trkpt>
      <trkpt lat="41.941644111648202" lon="13.146497709676623">
        <ele>1350.7899170000001</ele>
        <time>2017-06-13T11:23:43Z</time>
      </trkpt>
      <trkpt lat="41.941501786932349" lon="13.14661824144423">
        <ele>1349.3500979999999</ele>
        <time>2017-06-13T11:23:59Z</time>
      </trkpt>
      <trkpt lat="41.941369017586112" lon="13.146673226729035">
        <ele>1348.8698730000001</ele>
        <time>2017-06-13T11:24:09Z</time>
      </trkpt>
      <trkpt lat="41.94123893044889" lon="13.14651807770133">
        <ele>1347.910034</ele>
        <time>2017-06-13T11:24:23Z</time>
      </trkpt>
      <trkpt lat="41.941096941009164" lon="13.146354965865612">
        <ele>1345.9799800000001</ele>
        <time>2017-06-13T11:24:37Z</time>
      </trkpt>
      <trkpt lat="41.940959729254246" lon="13.146209036931396">
        <ele>1345.5</ele>
        <time>2017-06-13T11:24:52Z</time>
      </trkpt>
      <trkpt lat="41.940805837512016" lon="13.146091271191835">
        <ele>1345.0200199999999</ele>
        <time>2017-06-13T11:25:06Z</time>
      </trkpt>
      <trkpt lat="41.940614311024547" lon="13.145957076922059">
        <ele>1344.540039</ele>
        <time>2017-06-13T11:25:23Z</time>
      </trkpt>
      <trkpt lat="41.940484140068293" lon="13.145843669772148">
        <ele>1344.540039</ele>
        <time>2017-06-13T11:25:37Z</time>
      </trkpt>
      <trkpt lat="41.940418174490333" lon="13.145809136331081">
        <ele>1345.5</ele>
        <time>2017-06-13T11:25:52Z</time>
      </trkpt>
      <trkpt lat="41.940241735428572" lon="13.145834365859628">
        <ele>1345.5</ele>
        <time>2017-06-13T11:26:06Z</time>
      </trkpt>
      <trkpt lat="41.940123466774821" lon="13.145813830196857">
        <ele>1345.5</ele>
        <time>2017-06-13T11:26:17Z</time>
      </trkpt>
      <trkpt lat="41.940101170912385" lon="13.145809387788177">
        <ele>1345.5</ele>
        <time>2017-06-13T11:26:19Z</time>
      </trkpt>
      <trkpt lat="41.939883325248957" lon="13.145864205434918">
        <ele>1344.059937</ele>
        <time>2017-06-13T11:26:35Z</time>
      </trkpt>
      <trkpt lat="41.939661540091038" lon="13.145895637571812">
        <ele>1344.059937</ele>
        <time>2017-06-13T11:26:51Z</time>
      </trkpt>
      <trkpt lat="41.939612673595548" lon="13.145909886807203">
        <ele>1344.059937</ele>
        <time>2017-06-13T11:26:56Z</time>
      </trkpt>
      <trkpt lat="41.939398096874356" lon="13.146041482686996">
        <ele>1343.579956</ele>
        <time>2017-06-13T11:27:14Z</time>
      </trkpt>
      <trkpt lat="41.939272116869688" lon="13.146187076345086">
        <ele>1343.579956</ele>
        <time>2017-06-13T11:27:29Z</time>
      </trkpt>
      <trkpt lat="41.939251665025949" lon="13.146216329187155">
        <ele>1343.579956</ele>
        <time>2017-06-13T11:27:32Z</time>
      </trkpt>
      <trkpt lat="41.939241858199239" lon="13.146244324743748">
        <ele>1345.0200199999999</ele>
        <time>2017-06-13T11:27:34Z</time>
      </trkpt>
      <trkpt lat="41.93918427452445" lon="13.146388828754425">
        <ele>1345.0200199999999</ele>
        <time>2017-06-13T11:27:43Z</time>
      </trkpt>
      <trkpt lat="41.939122416079044" lon="13.146603489294648">
        <ele>1345.9799800000001</ele>
        <time>2017-06-13T11:27:58Z</time>
      </trkpt>
      <trkpt lat="41.939093414694071" lon="13.146752435714006">
        <ele>1346.459961</ele>
        <time>2017-06-13T11:28:06Z</time>
      </trkpt>
      <trkpt lat="41.93906893953681" lon="13.14681077376008">
        <ele>1346.940063</ele>
        <time>2017-06-13T11:28:10Z</time>
      </trkpt>
      <trkpt lat="41.938962992280722" lon="13.147123921662569">
        <ele>1347.910034</ele>
        <time>2017-06-13T11:28:32Z</time>
      </trkpt>
      <trkpt lat="41.938865594565868" lon="13.147356938570738">
        <ele>1348.8698730000001</ele>
        <time>2017-06-13T11:28:47Z</time>
      </trkpt>
      <trkpt lat="41.938805496320128" lon="13.147540334612131">
        <ele>1348.8698730000001</ele>
        <time>2017-06-13T11:28:59Z</time>
      </trkpt>
      <trkpt lat="41.938771801069379" lon="13.147792294621468">
        <ele>1350.309937</ele>
        <time>2017-06-13T11:29:16Z</time>
      </trkpt>
      <trkpt lat="41.93875621072948" lon="13.147942079231143">
        <ele>1350.309937</ele>
        <time>2017-06-13T11:29:23Z</time>
      </trkpt>
      <trkpt lat="41.93878018297255" lon="13.148094713687897">
        <ele>1351.2698969999999</ele>
        <time>2017-06-13T11:29:34Z</time>
      </trkpt>
      <trkpt lat="41.938775908201933" lon="13.148264363408089">
        <ele>1351.75</ele>
        <time>2017-06-13T11:29:42Z</time>
      </trkpt>
      <trkpt lat="41.938784206286073" lon="13.148514730855823">
        <ele>1352.2299800000001</ele>
        <time>2017-06-13T11:29:58Z</time>
      </trkpt>
      <trkpt lat="41.938788900151849" lon="13.148758560419083">
        <ele>1353.1899410000001</ele>
        <time>2017-06-13T11:30:13Z</time>
      </trkpt>
      <trkpt lat="41.938793174922466" lon="13.149023512378335">
        <ele>1354.150024</ele>
        <time>2017-06-13T11:30:30Z</time>
      </trkpt>
      <trkpt lat="41.938784290105104" lon="13.149139266461134">
        <ele>1354.630005</ele>
        <time>2017-06-13T11:30:42Z</time>
      </trkpt>
      <trkpt lat="41.938741626217961" lon="13.149404972791672">
        <ele>1356.080078</ele>
        <time>2017-06-13T11:30:58Z</time>
      </trkpt>
      <trkpt lat="41.938687562942505" lon="13.149645365774632">
        <ele>1357.040039</ele>
        <time>2017-06-13T11:31:13Z</time>
      </trkpt>
      <trkpt lat="41.938685886561871" lon="13.149772435426712">
        <ele>1357.5200199999999</ele>
        <time>2017-06-13T11:31:22Z</time>
      </trkpt>
      <trkpt lat="41.938645485788584" lon="13.149992963299155">
        <ele>1358.4801030000001</ele>
        <time>2017-06-13T11:31:38Z</time>
      </trkpt>
      <trkpt lat="41.938631739467382" lon="13.150019533932209">
        <ele>1358.4801030000001</ele>
        <time>2017-06-13T11:31:43Z</time>
      </trkpt>
      <trkpt lat="41.938634170219302" lon="13.150057587772608">
        <ele>1358.4801030000001</ele>
        <time>2017-06-13T11:31:58Z</time>
      </trkpt>
      <trkpt lat="41.938636684790254" lon="13.150076530873775">
        <ele>1358.4801030000001</ele>
        <time>2017-06-13T11:32:07Z</time>
      </trkpt>
      <trkpt lat="41.93869611248374" lon="13.150113159790635">
        <ele>1358.4801030000001</ele>
        <time>2017-06-13T11:32:21Z</time>
      </trkpt>
      <trkpt lat="41.938703572377563" lon="13.150042500346899">
        <ele>1357.040039</ele>
        <time>2017-06-13T11:33:24Z</time>
      </trkpt>
      <trkpt lat="41.938698962330818" lon="13.150097485631704">
        <ele>1357.040039</ele>
        <time>2017-06-13T11:33:28Z</time>
      </trkpt>
      <trkpt lat="41.938608270138502" lon="13.150054067373276">
        <ele>1357.040039</ele>
        <time>2017-06-13T11:33:45Z</time>
      </trkpt>
      <trkpt lat="41.938564097508788" lon="13.150111064314842">
        <ele>1357.040039</ele>
        <time>2017-06-13T11:34:06Z</time>
      </trkpt>
      <trkpt lat="41.938516488298774" lon="13.150088684633374">
        <ele>1358.9600829999999</ele>
        <time>2017-06-13T11:34:20Z</time>
      </trkpt>
      <trkpt lat="41.938483715057373" lon="13.150067562237382">
        <ele>1358.4801030000001</ele>
        <time>2017-06-13T11:34:44Z</time>
      </trkpt>
      <trkpt lat="41.938471058383584" lon="13.150142496451735">
        <ele>1358.4801030000001</ele>
        <time>2017-06-13T11:35:08Z</time>
      </trkpt>
      <trkpt lat="41.938493689522147" lon="13.149999333545566">
        <ele>1358.4801030000001</ele>
        <time>2017-06-13T11:35:31Z</time>
      </trkpt>
      <trkpt lat="41.937951967120171" lon="13.150214664638042">
        <ele>1336.369995</ele>
        <time>2017-06-14T05:48:27Z</time>
      </trkpt>
      <trkpt lat="41.937990020960569" lon="13.150319941341877">
        <ele>1336.369995</ele>
        <time>2017-06-14T05:48:33Z</time>
      </trkpt>
      <trkpt lat="41.93799446336925" lon="13.150536362081766">
        <ele>1333.969971</ele>
        <time>2017-06-14T05:48:44Z</time>
      </trkpt>
      <trkpt lat="41.937989685684443" lon="13.150631161406636">
        <ele>1333.48999</ele>
        <time>2017-06-14T05:48:48Z</time>
      </trkpt>
      <trkpt lat="41.93783663213253" lon="13.150967108085752">
        <ele>1331.5600589999999</ele>
        <time>2017-06-14T05:49:03Z</time>
      </trkpt>
      <trkpt lat="41.937838140875101" lon="13.150997282937169">
        <ele>1331.5600589999999</ele>
        <time>2017-06-14T05:49:05Z</time>
      </trkpt>
      <trkpt lat="41.937829926609993" lon="13.151022763922811">
        <ele>1331.080078</ele>
        <time>2017-06-14T05:49:09Z</time>
      </trkpt>
      <trkpt lat="41.937896562740207" lon="13.150957301259041">
        <ele>1329.6400149999999</ele>
        <time>2017-06-14T05:49:21Z</time>
      </trkpt>
      <trkpt lat="41.937927324324846" lon="13.150938358157873">
        <ele>1333.969971</ele>
        <time>2017-06-14T05:49:24Z</time>
      </trkpt>
      <trkpt lat="41.937962779775262" lon="13.150912374258041">
        <ele>1337.8100589999999</ele>
        <time>2017-06-14T05:49:27Z</time>
      </trkpt>
      <trkpt lat="41.937989182770252" lon="13.150885719805956">
        <ele>1339.7299800000001</ele>
        <time>2017-06-14T05:49:29Z</time>
      </trkpt>
      <trkpt lat="41.938011478632689" lon="13.150847414508462">
        <ele>1341.179932</ele>
        <time>2017-06-14T05:49:31Z</time>
      </trkpt>
      <trkpt lat="41.93804869428277" lon="13.150781113654375">
        <ele>1344.540039</ele>
        <time>2017-06-14T05:49:35Z</time>
      </trkpt>
      <trkpt lat="41.93808632902801" lon="13.15068413503468">
        <ele>1347.910034</ele>
        <time>2017-06-14T05:49:40Z</time>
      </trkpt>
      <trkpt lat="41.93810636177659" lon="13.15062060020864">
        <ele>1351.2698969999999</ele>
        <time>2017-06-14T05:49:44Z</time>
      </trkpt>
      <trkpt lat="41.93811222910881" lon="13.150599226355553">
        <ele>1351.2698969999999</ele>
        <time>2017-06-14T05:49:45Z</time>
      </trkpt>
      <trkpt lat="41.938180206343532" lon="13.150427481159568">
        <ele>1354.630005</ele>
        <time>2017-06-14T05:49:53Z</time>
      </trkpt>
      <trkpt lat="41.938254470005631" lon="13.150262106209993">
        <ele>1357.5200199999999</ele>
        <time>2017-06-14T05:50:02Z</time>
      </trkpt>
      <trkpt lat="41.938374415040016" lon="13.150049624964595">
        <ele>1360.880005</ele>
        <time>2017-06-14T05:50:15Z</time>
      </trkpt>
      <trkpt lat="41.938508441671729" lon="13.149815602228045">
        <ele>1362.8100589999999</ele>
        <time>2017-06-14T05:50:33Z</time>
      </trkpt>
      <trkpt lat="41.938545573502779" lon="13.149729184806347">
        <ele>1324.830078</ele>
        <time>2017-06-14T05:50:39Z</time>
      </trkpt>
      <trkpt lat="41.938550435006618" lon="13.14971761777997">
        <ele>1362.329956</ele>
        <time>2017-06-14T05:50:40Z</time>
      </trkpt>
      <trkpt lat="41.938573569059372" lon="13.14945425838232">
        <ele>1360.880005</ele>
        <time>2017-06-14T05:51:00Z</time>
      </trkpt>
      <trkpt lat="41.938594272360206" lon="13.149267174303532">
        <ele>1359.919922</ele>
        <time>2017-06-14T05:51:15Z</time>
      </trkpt>
      <trkpt lat="41.938535431399941" lon="13.1490115262568">
        <ele>1358.9600829999999</ele>
        <time>2017-06-14T05:51:31Z</time>
      </trkpt>
      <trkpt lat="41.938480362296104" lon="13.149016303941607">
        <ele>1358.4801030000001</ele>
        <time>2017-06-14T05:51:52Z</time>
      </trkpt>
      <trkpt lat="41.938748164102435" lon="13.149094674736261">
        <ele>1358.4801030000001</ele>
        <time>2017-06-14T05:52:16Z</time>
      </trkpt>
      <trkpt lat="41.938863834366202" lon="13.14905209466815">
        <ele>1358.4801030000001</ele>
        <time>2017-06-14T05:52:43Z</time>
      </trkpt>
      <trkpt lat="41.938867019489408" lon="13.149131219834089">
        <ele>1358.9600829999999</ele>
        <time>2017-06-14T05:53:14Z</time>
      </trkpt>
      <trkpt lat="41.938859727233648" lon="13.149126525968313">
        <ele>1358.9600829999999</ele>
        <time>2017-06-14T05:53:33Z</time>
      </trkpt>
      <trkpt lat="41.93894530646503" lon="13.149143038317561">
        <ele>1358.9600829999999</ele>
        <time>2017-06-14T05:54:05Z</time>
      </trkpt>
      <trkpt lat="41.93881681188941" lon="13.148934496566653">
        <ele>1358.9600829999999</ele>
        <time>2017-06-14T05:54:37Z</time>
      </trkpt>
      <trkpt lat="41.938794683665037" lon="13.148899711668491">
        <ele>1358.9600829999999</ele>
        <time>2017-06-14T05:54:38Z</time>
      </trkpt>
      <trkpt lat="41.938676834106445" lon="13.148715058341622">
        <ele>1358.4801030000001</ele>
        <time>2017-06-14T05:54:56Z</time>
      </trkpt>
      <trkpt lat="41.938673229888082" lon="13.148690164089203">
        <ele>1357.9998780000001</ele>
        <time>2017-06-14T05:54:58Z</time>
      </trkpt>
      <trkpt lat="41.938667697831988" lon="13.148672981187701">
        <ele>1357.9998780000001</ele>
        <time>2017-06-14T05:54:59Z</time>
      </trkpt>
      <trkpt lat="41.938694939017296" lon="13.148476677015424">
        <ele>1357.040039</ele>
        <time>2017-06-14T05:55:13Z</time>
      </trkpt>
      <trkpt lat="41.938675828278065" lon="13.148167300969362">
        <ele>1356.080078</ele>
        <time>2017-06-14T05:55:32Z</time>
      </trkpt>
      <trkpt lat="41.938655460253358" lon="13.147914335131645">
        <ele>1355.119995</ele>
        <time>2017-06-14T05:55:47Z</time>
      </trkpt>
      <trkpt lat="41.938659315928817" lon="13.147859098389745">
        <ele>1354.630005</ele>
        <time>2017-06-14T05:56:01Z</time>
      </trkpt>
      <trkpt lat="41.938622603192925" lon="13.147804364562035">
        <ele>1354.150024</ele>
        <time>2017-06-14T05:56:33Z</time>
      </trkpt>
      <trkpt lat="41.938613718375564" lon="13.147796234115958">
        <ele>1354.150024</ele>
        <time>2017-06-14T05:56:34Z</time>
      </trkpt>
      <trkpt lat="41.938602067530155" lon="13.147788438946009">
        <ele>1354.150024</ele>
        <time>2017-06-14T05:56:35Z</time>
      </trkpt>
      <trkpt lat="41.938469968736172" lon="13.147798329591751">
        <ele>1353.669922</ele>
        <time>2017-06-14T05:56:47Z</time>
      </trkpt>
      <trkpt lat="41.938458988443017" lon="13.147813668474555">
        <ele>1353.669922</ele>
        <time>2017-06-14T05:56:48Z</time>
      </trkpt>
      <trkpt lat="41.938321273773909" lon="13.147887093946338">
        <ele>1354.630005</ele>
        <time>2017-06-14T05:57:01Z</time>
      </trkpt>
      <trkpt lat="41.938197892159224" lon="13.147988766431808">
        <ele>1355.599976</ele>
        <time>2017-06-14T05:57:14Z</time>
      </trkpt>
      <trkpt lat="41.937980633229017" lon="13.148154811933637">
        <ele>1356.080078</ele>
        <time>2017-06-14T05:57:31Z</time>
      </trkpt>
      <trkpt lat="41.937772259116173" lon="13.148324880748987">
        <ele>1356.080078</ele>
        <time>2017-06-14T05:57:50Z</time>
      </trkpt>
      <trkpt lat="41.937568075954914" lon="13.148484388366342">
        <ele>1357.040039</ele>
        <time>2017-06-14T05:58:05Z</time>
      </trkpt>
      <trkpt lat="41.937415692955256" lon="13.148637525737286">
        <ele>1357.5200199999999</ele>
        <time>2017-06-14T05:58:23Z</time>
      </trkpt>
      <trkpt lat="41.93720187060535" lon="13.148843385279179">
        <ele>1358.4801030000001</ele>
        <time>2017-06-14T05:58:41Z</time>
      </trkpt>
      <trkpt lat="41.936989724636078" lon="13.149006580933928">
        <ele>1358.9600829999999</ele>
        <time>2017-06-14T05:58:57Z</time>
      </trkpt>
      <trkpt lat="41.936738518998027" lon="13.149200035259128">
        <ele>1359.4399410000001</ele>
        <time>2017-06-14T05:59:17Z</time>
      </trkpt>
      <trkpt lat="41.936562331393361" lon="13.149361805990338">
        <ele>1360.3999020000001</ele>
        <time>2017-06-14T05:59:35Z</time>
      </trkpt>
      <trkpt lat="41.936372565105557" lon="13.149552159011364">
        <ele>1361.3599850000001</ele>
        <time>2017-06-14T05:59:54Z</time>
      </trkpt>
      <trkpt lat="41.936195036396384" lon="13.149718791246414">
        <ele>1362.8100589999999</ele>
        <time>2017-06-14T06:00:10Z</time>
      </trkpt>
      <trkpt lat="41.93599303252995" lon="13.15000930801034">
        <ele>1364.7299800000001</ele>
        <time>2017-06-14T06:00:31Z</time>
      </trkpt>
      <trkpt lat="41.935916338115931" lon="13.150282893329859">
        <ele>1365.690063</ele>
        <time>2017-06-14T06:00:47Z</time>
      </trkpt>
      <trkpt lat="41.935917008668184" lon="13.150280797854066">
        <ele>1366.170044</ele>
        <time>2017-06-14T06:01:03Z</time>
      </trkpt>
      <trkpt lat="41.935900663957" lon="13.150450782850385">
        <ele>1366.170044</ele>
        <time>2017-06-14T06:01:19Z</time>
      </trkpt>
      <trkpt lat="41.935844924300909" lon="13.150795111432672">
        <ele>1366.650024</ele>
        <time>2017-06-14T06:01:40Z</time>
      </trkpt>
      <trkpt lat="41.93584299646318" lon="13.150811120867729">
        <ele>1366.650024</ele>
        <time>2017-06-14T06:01:41Z</time>
      </trkpt>
      <trkpt lat="41.93584006279707" lon="13.150826962664723">
        <ele>1367.130005</ele>
        <time>2017-06-14T06:01:42Z</time>
      </trkpt>
      <trkpt lat="41.935810390859842" lon="13.151079593226314">
        <ele>1368.0900879999999</ele>
        <time>2017-06-14T06:01:58Z</time>
      </trkpt>
      <trkpt lat="41.935703605413437" lon="13.151418976485729">
        <ele>1369.049927</ele>
        <time>2017-06-14T06:02:17Z</time>
      </trkpt>
      <trkpt lat="41.935690362006426" lon="13.151547135785222">
        <ele>1370.0200199999999</ele>
        <time>2017-06-14T06:02:23Z</time>
      </trkpt>
      <trkpt lat="41.935676280409098" lon="13.151617292314768">
        <ele>1369.540039</ele>
        <time>2017-06-14T06:02:27Z</time>
      </trkpt>
      <trkpt lat="41.935676196590066" lon="13.151632798835635">
        <ele>1369.540039</ele>
        <time>2017-06-14T06:02:28Z</time>
      </trkpt>
      <trkpt lat="41.935675274580717" lon="13.151648808270693">
        <ele>1369.540039</ele>
        <time>2017-06-14T06:02:29Z</time>
      </trkpt>
      <trkpt lat="41.935641663148999" lon="13.151734638959169">
        <ele>1370.0200199999999</ele>
        <time>2017-06-14T06:02:37Z</time>
      </trkpt>
      <trkpt lat="41.935631018131971" lon="13.151743272319436">
        <ele>1370.0200199999999</ele>
        <time>2017-06-14T06:02:38Z</time>
      </trkpt>
      <trkpt lat="41.935620373114944" lon="13.151750899851322">
        <ele>1370.5</ele>
        <time>2017-06-14T06:02:39Z</time>
      </trkpt>
      <trkpt lat="41.935606207698584" lon="13.151755593717098">
        <ele>1370.5</ele>
        <time>2017-06-14T06:02:40Z</time>
      </trkpt>
      <trkpt lat="41.935594724491239" lon="13.151761209592223">
        <ele>1370.5</ele>
        <time>2017-06-14T06:02:41Z</time>
      </trkpt>
      <trkpt lat="41.93558550439775" lon="13.151768418028951">
        <ele>1370.5</ele>
        <time>2017-06-14T06:02:42Z</time>
      </trkpt>
      <trkpt lat="41.935548037290573" lon="13.151775039732456">
        <ele>1370.5</ele>
        <time>2017-06-14T06:02:54Z</time>
      </trkpt>
      <trkpt lat="41.935537727549672" lon="13.151761125773191">
        <ele>1370.5</ele>
        <time>2017-06-14T06:02:55Z</time>
      </trkpt>
      <trkpt lat="41.935523981228471" lon="13.151752660050988">
        <ele>1370.5</ele>
        <time>2017-06-14T06:02:56Z</time>
      </trkpt>
      <trkpt lat="41.935511408373713" lon="13.151743859052658">
        <ele>1370.5</ele>
        <time>2017-06-14T06:02:57Z</time>
      </trkpt>
      <trkpt lat="41.93549757823348" lon="13.151734806597233">
        <ele>1370.5</ele>
        <time>2017-06-14T06:02:58Z</time>
      </trkpt>
      <trkpt lat="41.935484586283565" lon="13.151728687807918">
        <ele>1370.5</ele>
        <time>2017-06-14T06:02:59Z</time>
      </trkpt>
      <trkpt lat="41.935468660667539" lon="13.151722401380539">
        <ele>1370.5</ele>
        <time>2017-06-14T06:03:00Z</time>
      </trkpt>
      <trkpt lat="41.935456087812781" lon="13.151718378067017">
        <ele>1370.5</ele>
        <time>2017-06-14T06:03:01Z</time>
      </trkpt>
      <trkpt lat="41.935444101691246" lon="13.151714941486716">
        <ele>1370.5</ele>
        <time>2017-06-14T06:03:02Z</time>
      </trkpt>
      <trkpt lat="41.935435719788074" lon="13.151710499078035">
        <ele>1370.5</ele>
        <time>2017-06-14T06:03:03Z</time>
      </trkpt>
      <trkpt lat="41.935423314571381" lon="13.151707565411925">
        <ele>1370.5</ele>
        <time>2017-06-14T06:03:04Z</time>
      </trkpt>
      <trkpt lat="41.935411412268877" lon="13.151702620089054">
        <ele>1370.5</ele>
        <time>2017-06-14T06:03:05Z</time>
      </trkpt>
      <trkpt lat="41.935359863564372" lon="13.151688789948821">
        <ele>1370.9799800000001</ele>
        <time>2017-06-14T06:03:10Z</time>
      </trkpt>
      <trkpt lat="41.935348212718964" lon="13.151687365025282">
        <ele>1370.9799800000001</ele>
        <time>2017-06-14T06:03:11Z</time>
      </trkpt>
      <trkpt lat="41.935338405892253" lon="13.151695327833295">
        <ele>1371.459961</ele>
        <time>2017-06-14T06:03:12Z</time>
      </trkpt>
      <trkpt lat="41.935238828882575" lon="13.151697674766183">
        <ele>1371.459961</ele>
        <time>2017-06-14T06:03:30Z</time>
      </trkpt>
      <trkpt lat="41.935182837769389" lon="13.151721898466349">
        <ele>1371.459961</ele>
        <time>2017-06-14T06:03:51Z</time>
      </trkpt>
      <trkpt lat="41.935035735368729" lon="13.151690885424614">
        <ele>1371.459961</ele>
        <time>2017-06-14T06:04:02Z</time>
      </trkpt>
      <trkpt lat="41.934991478919983" lon="13.151688035577536">
        <ele>1371.459961</ele>
        <time>2017-06-14T06:04:05Z</time>
      </trkpt>
      <trkpt lat="41.934977984055877" lon="13.151690633967519">
        <ele>1371.459961</ele>
        <time>2017-06-14T06:04:06Z</time>
      </trkpt>
      <trkpt lat="41.934965075924993" lon="13.151691136881709">
        <ele>1371.459961</ele>
        <time>2017-06-14T06:04:07Z</time>
      </trkpt>
      <trkpt lat="41.934951581060886" lon="13.151693735271692">
        <ele>1371.459961</ele>
        <time>2017-06-14T06:04:08Z</time>
      </trkpt>
      <trkpt lat="41.934941690415144" lon="13.151697758585215">
        <ele>1371.459961</ele>
        <time>2017-06-14T06:04:09Z</time>
      </trkpt>
      <trkpt lat="41.934707164764404" lon="13.151757437735796">
        <ele>1371.940063</ele>
        <time>2017-06-14T06:04:28Z</time>
      </trkpt>
      <trkpt lat="41.934614377096295" lon="13.151723574846983">
        <ele>1370.5</ele>
        <time>2017-06-14T06:04:35Z</time>
      </trkpt>
      <trkpt lat="41.934493007138371" lon="13.151451414451003">
        <ele>1368.570068</ele>
        <time>2017-06-14T06:04:54Z</time>
      </trkpt>
      <trkpt lat="41.934424107894301" lon="13.151180762797594">
        <ele>1368.0900879999999</ele>
        <time>2017-06-14T06:05:08Z</time>
      </trkpt>
      <trkpt lat="41.934366608038545" lon="13.15090985968709">
        <ele>1367.610107</ele>
        <time>2017-06-14T06:05:24Z</time>
      </trkpt>
      <trkpt lat="41.934234006330371" lon="13.150761667639017">
        <ele>1367.610107</ele>
        <time>2017-06-14T06:05:40Z</time>
      </trkpt>
      <trkpt lat="41.93397743627429" lon="13.150743814185262">
        <ele>1366.170044</ele>
        <time>2017-06-14T06:05:56Z</time>
      </trkpt>
      <trkpt lat="41.933735786005855" lon="13.150805337354541">
        <ele>1365.690063</ele>
        <time>2017-06-14T06:06:12Z</time>
      </trkpt>
      <trkpt lat="41.933628665283322" lon="13.150899801403284">
        <ele>1365.690063</ele>
        <time>2017-06-14T06:06:26Z</time>
      </trkpt>
      <trkpt lat="41.933449963107705" lon="13.151076659560204">
        <ele>1365.690063</ele>
        <time>2017-06-14T06:06:41Z</time>
      </trkpt>
      <trkpt lat="41.933336723595858" lon="13.151178918778896">
        <ele>1365.690063</ele>
        <time>2017-06-14T06:06:53Z</time>
      </trkpt>
      <trkpt lat="41.933194063603878" lon="13.151321159675717">
        <ele>1366.650024</ele>
        <time>2017-06-14T06:07:07Z</time>
      </trkpt>
      <trkpt lat="41.933014858514071" lon="13.151458706706762">
        <ele>1367.610107</ele>
        <time>2017-06-14T06:07:24Z</time>
      </trkpt>
      <trkpt lat="41.932842023670673" lon="13.151571778580546">
        <ele>1369.049927</ele>
        <time>2017-06-14T06:07:40Z</time>
      </trkpt>
      <trkpt lat="41.932785529643297" lon="13.151599941775203">
        <ele>1369.049927</ele>
        <time>2017-06-14T06:07:45Z</time>
      </trkpt>
      <trkpt lat="41.932722413912416" lon="13.151628440245986">
        <ele>1369.049927</ele>
        <time>2017-06-14T06:08:00Z</time>
      </trkpt>
      <trkpt lat="41.932678325101733" lon="13.151575801894069">
        <ele>1369.540039</ele>
        <time>2017-06-14T06:08:17Z</time>
      </trkpt>
      <trkpt lat="41.932667177170515" lon="13.151568928733468">
        <ele>1369.540039</ele>
        <time>2017-06-14T06:08:18Z</time>
      </trkpt>
      <trkpt lat="41.932658879086375" lon="13.151561636477709">
        <ele>1369.540039</ele>
        <time>2017-06-14T06:08:19Z</time>
      </trkpt>
      <trkpt lat="41.932517308741808" lon="13.151474883779883">
        <ele>1369.540039</ele>
        <time>2017-06-14T06:08:33Z</time>
      </trkpt>
      <trkpt lat="41.932352101430297" lon="13.15149768255651">
        <ele>1370.0200199999999</ele>
        <time>2017-06-14T06:08:48Z</time>
      </trkpt>
      <trkpt lat="41.932186977937818" lon="13.151584435254335">
        <ele>1371.940063</ele>
        <time>2017-06-14T06:09:02Z</time>
      </trkpt>
      <trkpt lat="41.932037696242332" lon="13.151706978678703">
        <ele>1373.8599850000001</ele>
        <time>2017-06-14T06:09:17Z</time>
      </trkpt>
      <trkpt lat="41.931907776743174" lon="13.151835137978196">
        <ele>1374.820068</ele>
        <time>2017-06-14T06:09:32Z</time>
      </trkpt>
      <trkpt lat="41.93180208094418" lon="13.151957597583532">
        <ele>1377.709961</ele>
        <time>2017-06-14T06:09:46Z</time>
      </trkpt>
      <trkpt lat="41.93177031353116" lon="13.152001434937119">
        <ele>1378.669922</ele>
        <time>2017-06-14T06:09:52Z</time>
      </trkpt>
      <trkpt lat="41.931742066517472" lon="13.152044769376516">
        <ele>1379.150024</ele>
        <time>2017-06-14T06:09:57Z</time>
      </trkpt>
      <trkpt lat="41.931715495884418" lon="13.152076872065663">
        <ele>1380.1099850000001</ele>
        <time>2017-06-14T06:10:01Z</time>
      </trkpt>
      <trkpt lat="41.93163838237524" lon="13.152188770473003">
        <ele>1382.51001</ele>
        <time>2017-06-14T06:10:15Z</time>
      </trkpt>
      <trkpt lat="41.931606195867062" lon="13.152254400774837">
        <ele>1383.469971</ele>
        <time>2017-06-14T06:10:22Z</time>
      </trkpt>
      <trkpt lat="41.931600077077746" lon="13.152265464887023">
        <ele>1383.469971</ele>
        <time>2017-06-14T06:10:23Z</time>
      </trkpt>
      <trkpt lat="41.931508462876081" lon="13.152380464598536">
        <ele>1385.3999020000001</ele>
        <time>2017-06-14T06:10:37Z</time>
      </trkpt>
      <trkpt lat="41.931394720450044" lon="13.152462439611554">
        <ele>1387.799927</ele>
        <time>2017-06-14T06:10:51Z</time>
      </trkpt>
      <trkpt lat="41.931342668831348" lon="13.152465289458632">
        <ele>1388.76001</ele>
        <time>2017-06-14T06:10:57Z</time>
      </trkpt>
      <trkpt lat="41.931242337450385" lon="13.152463613077998">
        <ele>1390.6800539999999</ele>
        <time>2017-06-14T06:11:09Z</time>
      </trkpt>
      <trkpt lat="41.931196236982942" lon="13.15242413431406">
        <ele>1391.650024</ele>
        <time>2017-06-14T06:11:16Z</time>
      </trkpt>
      <trkpt lat="41.931172767654061" lon="13.152398066595197">
        <ele>1392.610107</ele>
        <time>2017-06-14T06:11:20Z</time>
      </trkpt>
      <trkpt lat="41.931154327467084" lon="13.152376860380173">
        <ele>1392.610107</ele>
        <time>2017-06-14T06:11:23Z</time>
      </trkpt>
      <trkpt lat="41.931148041039705" lon="13.152365125715733">
        <ele>1392.610107</ele>
        <time>2017-06-14T06:11:24Z</time>
      </trkpt>
      <trkpt lat="41.931126164272428" lon="13.152315588667989">
        <ele>1393.570068</ele>
        <time>2017-06-14T06:11:29Z</time>
      </trkpt>
      <trkpt lat="41.931086182594299" lon="13.152247695252299">
        <ele>1394.5299070000001</ele>
        <time>2017-06-14T06:11:36Z</time>
      </trkpt>
      <trkpt lat="41.931081740185618" lon="13.152232775464654">
        <ele>1394.5299070000001</ele>
        <time>2017-06-14T06:11:37Z</time>
      </trkpt>
      <trkpt lat="41.931074615567923" lon="13.15221936441958">
        <ele>1394.5299070000001</ele>
        <time>2017-06-14T06:11:38Z</time>
      </trkpt>
      <trkpt lat="41.930980905890465" lon="13.152120038866997">
        <ele>1395.48999</ele>
        <time>2017-06-14T06:11:50Z</time>
      </trkpt>
      <trkpt lat="41.93087805993855" lon="13.152058515697718">
        <ele>1395.969971</ele>
        <time>2017-06-14T06:12:02Z</time>
      </trkpt>
      <trkpt lat="41.930866492912173" lon="13.152052061632276">
        <ele>1395.969971</ele>
        <time>2017-06-14T06:12:03Z</time>
      </trkpt>
      <trkpt lat="41.930852327495813" lon="13.152049463242292">
        <ele>1395.969971</ele>
        <time>2017-06-14T06:12:04Z</time>
      </trkpt>
      <trkpt lat="41.930791977792978" lon="13.152039907872677">
        <ele>1398.369995</ele>
        <time>2017-06-14T06:12:12Z</time>
      </trkpt>
      <trkpt lat="41.930768089368939" lon="13.1520473677665">
        <ele>1398.369995</ele>
        <time>2017-06-14T06:12:15Z</time>
      </trkpt>
      <trkpt lat="41.930757695809007" lon="13.152050636708736">
        <ele>1398.369995</ele>
        <time>2017-06-14T06:12:16Z</time>
      </trkpt>
      <trkpt lat="41.930666333064437" lon="13.152050971984863">
        <ele>1399.820068</ele>
        <time>2017-06-14T06:12:27Z</time>
      </trkpt>
      <trkpt lat="41.930623920634389" lon="13.152051893994212">
        <ele>1400.3000489999999</ele>
        <time>2017-06-14T06:12:33Z</time>
      </trkpt>
      <trkpt lat="41.930608581751585" lon="13.152064634487033">
        <ele>1400.3000489999999</ele>
        <time>2017-06-14T06:12:35Z</time>
      </trkpt>
      <trkpt lat="41.930570192635059" lon="13.152090199291706">
        <ele>1400.3000489999999</ele>
        <time>2017-06-14T06:12:46Z</time>
      </trkpt>
      <trkpt lat="41.93052576854825" lon="13.1521250680089">
        <ele>1400.3000489999999</ele>
        <time>2017-06-14T06:12:51Z</time>
      </trkpt>
      <trkpt lat="41.930511435493827" lon="13.152141915634274">
        <ele>1400.3000489999999</ele>
        <time>2017-06-14T06:12:53Z</time>
      </trkpt>
      <trkpt lat="41.930501209571958" lon="13.152149124071002">
        <ele>1400.3000489999999</ele>
        <time>2017-06-14T06:12:54Z</time>
      </trkpt>
      <trkpt lat="41.930489810183644" lon="13.152156081050634">
        <ele>1400.3000489999999</ele>
        <time>2017-06-14T06:12:55Z</time>
      </trkpt>
      <trkpt lat="41.930477321147919" lon="13.152163960039616">
        <ele>1400.3000489999999</ele>
        <time>2017-06-14T06:12:56Z</time>
      </trkpt>
      <trkpt lat="41.93046759814024" lon="13.152171671390533">
        <ele>1400.3000489999999</ele>
        <time>2017-06-14T06:12:57Z</time>
      </trkpt>
      <trkpt lat="41.930366260930896" lon="13.152230177074671">
        <ele>1400.780029</ele>
        <time>2017-06-14T06:13:09Z</time>
      </trkpt>
      <trkpt lat="41.930295769125223" lon="13.152277702465653">
        <ele>1402.2200929999999</ele>
        <time>2017-06-14T06:13:15Z</time>
      </trkpt>
      <trkpt lat="41.930265258997679" lon="13.15230687148869">
        <ele>1403.179932</ele>
        <time>2017-06-14T06:13:19Z</time>
      </trkpt>
      <trkpt lat="41.930248662829399" lon="13.152367137372494">
        <ele>1403.179932</ele>
        <time>2017-06-14T06:13:28Z</time>
      </trkpt>
      <trkpt lat="41.93023843690753" lon="13.152482723817229">
        <ele>1401.7398679999999</ele>
        <time>2017-06-14T06:13:40Z</time>
      </trkpt>
      <trkpt lat="41.930228965356946" lon="13.152669724076986">
        <ele>1399.820068</ele>
        <time>2017-06-14T06:13:53Z</time>
      </trkpt>
      <trkpt lat="41.930198119953275" lon="13.152786735445261">
        <ele>1398.369995</ele>
        <time>2017-06-14T06:14:03Z</time>
      </trkpt>
      <trkpt lat="41.930175991728902" lon="13.152908440679312">
        <ele>1397.410034</ele>
        <time>2017-06-14T06:14:14Z</time>
      </trkpt>
      <trkpt lat="41.930162664502859" lon="13.152969377115369">
        <ele>1396.4499510000001</ele>
        <time>2017-06-14T06:14:18Z</time>
      </trkpt>
      <trkpt lat="41.930151013657451" lon="13.153094686567783">
        <ele>1394.5299070000001</ele>
        <time>2017-06-14T06:14:29Z</time>
      </trkpt>
      <trkpt lat="41.930161323398352" lon="13.153110612183809">
        <ele>1394.5299070000001</ele>
        <time>2017-06-14T06:14:30Z</time>
      </trkpt>
      <trkpt lat="41.930173225700855" lon="13.153120502829552">
        <ele>1394.5299070000001</ele>
        <time>2017-06-14T06:14:31Z</time>
      </trkpt>
      <trkpt lat="41.930203987285495" lon="13.153159394860268">
        <ele>1394.5299070000001</ele>
        <time>2017-06-14T06:14:35Z</time>
      </trkpt>
      <trkpt lat="41.930257882922888" lon="13.153220163658261">
        <ele>1395.969971</ele>
        <time>2017-06-14T06:14:42Z</time>
      </trkpt>
      <trkpt lat="41.930275233462453" lon="13.15322401933372">
        <ele>1395.969971</ele>
        <time>2017-06-14T06:14:44Z</time>
      </trkpt>
      <trkpt lat="41.930325860157609" lon="13.153301384299994">
        <ele>1395.969971</ele>
        <time>2017-06-14T06:14:55Z</time>
      </trkpt>
      <trkpt lat="41.930329464375973" lon="13.153312196955085">
        <ele>1395.969971</ele>
        <time>2017-06-14T06:14:56Z</time>
      </trkpt>
      <trkpt lat="41.930362908169627" lon="13.153441026806831">
        <ele>1393.0900879999999</ele>
        <time>2017-06-14T06:15:08Z</time>
      </trkpt>
      <trkpt lat="41.930425269529223" lon="13.153537334874272">
        <ele>1391.170044</ele>
        <time>2017-06-14T06:15:21Z</time>
      </trkpt>
      <trkpt lat="41.930449660867453" lon="13.153697177767754">
        <ele>1388.280029</ele>
        <time>2017-06-14T06:15:36Z</time>
      </trkpt>
      <trkpt lat="41.930456031113863" lon="13.153707487508655">
        <ele>1388.280029</ele>
        <time>2017-06-14T06:15:37Z</time>
      </trkpt>
      <trkpt lat="41.930491402745247" lon="13.153777560219169">
        <ele>1387.3199460000001</ele>
        <time>2017-06-14T06:15:52Z</time>
      </trkpt>
      <trkpt lat="41.930445805191994" lon="13.153829108923674">
        <ele>1386.839966</ele>
        <time>2017-06-14T06:15:57Z</time>
      </trkpt>
      <trkpt lat="41.93043046630919" lon="13.153832210227847">
        <ele>1386.839966</ele>
        <time>2017-06-14T06:15:58Z</time>
      </trkpt>
      <trkpt lat="41.930416468530893" lon="13.153833216056228">
        <ele>1386.839966</ele>
        <time>2017-06-14T06:15:59Z</time>
      </trkpt>
      <trkpt lat="41.930377827957273" lon="13.153860038146377">
        <ele>1385.3999020000001</ele>
        <time>2017-06-14T06:16:03Z</time>
      </trkpt>
      <trkpt lat="41.930351005867124" lon="13.153877472504973">
        <ele>1385.3999020000001</ele>
        <time>2017-06-14T06:16:05Z</time>
      </trkpt>
      <trkpt lat="41.930231060832739" lon="13.153944863006473">
        <ele>1382.030029</ele>
        <time>2017-06-14T06:16:16Z</time>
      </trkpt>
      <trkpt lat="41.93013533949852" lon="13.154032621532679">
        <ele>1379.150024</ele>
        <time>2017-06-14T06:16:28Z</time>
      </trkpt>
      <trkpt lat="41.93006157875061" lon="13.154146866872907">
        <ele>1376.75</ele>
        <time>2017-06-14T06:16:40Z</time>
      </trkpt>
      <trkpt lat="41.930043138563633" lon="13.15419883467257">
        <ele>1376.26001</ele>
        <time>2017-06-14T06:16:45Z</time>
      </trkpt>
      <trkpt lat="41.930036265403032" lon="13.154212413355708">
        <ele>1376.26001</ele>
        <time>2017-06-14T06:16:46Z</time>
      </trkpt>
      <trkpt lat="41.929950686171651" lon="13.154291538521647">
        <ele>1372.900024</ele>
        <time>2017-06-14T06:16:56Z</time>
      </trkpt>
      <trkpt lat="41.92983778193593" lon="13.154362365603447">
        <ele>1370.9799800000001</ele>
        <time>2017-06-14T06:17:07Z</time>
      </trkpt>
      <trkpt lat="41.929826214909554" lon="13.15436982549727">
        <ele>1370.9799800000001</ele>
        <time>2017-06-14T06:17:08Z</time>
      </trkpt>
      <trkpt lat="41.929730074480176" lon="13.154390109702945">
        <ele>1368.570068</ele>
        <time>2017-06-14T06:17:17Z</time>
      </trkpt>
      <trkpt lat="41.929718591272831" lon="13.154384410008788">
        <ele>1368.570068</ele>
        <time>2017-06-14T06:17:18Z</time>
      </trkpt>
      <trkpt lat="41.929697217419744" lon="13.154374687001109">
        <ele>1368.0900879999999</ele>
        <time>2017-06-14T06:17:20Z</time>
      </trkpt>
      <trkpt lat="41.929636783897877" lon="13.154349289834499">
        <ele>1367.130005</ele>
        <time>2017-06-14T06:17:26Z</time>
      </trkpt>
      <trkpt lat="41.929624630138278" lon="13.154348786920309">
        <ele>1367.130005</ele>
        <time>2017-06-14T06:17:27Z</time>
      </trkpt>
      <trkpt lat="41.929583726450801" lon="13.154352558776736">
        <ele>1366.650024</ele>
        <time>2017-06-14T06:17:31Z</time>
      </trkpt>
      <trkpt lat="41.929572997614741" lon="13.154354235157371">
        <ele>1365.690063</ele>
        <time>2017-06-14T06:17:32Z</time>
      </trkpt>
      <trkpt lat="41.929550115019083" lon="13.154348116368055">
        <ele>1365.2100829999999</ele>
        <time>2017-06-14T06:17:35Z</time>
      </trkpt>
      <trkpt lat="41.929521700367332" lon="13.15434099175036">
        <ele>1365.2100829999999</ele>
        <time>2017-06-14T06:17:38Z</time>
      </trkpt>
      <trkpt lat="41.929509462788701" lon="13.154335208237171">
        <ele>1364.7299800000001</ele>
        <time>2017-06-14T06:17:39Z</time>
      </trkpt>
      <trkpt lat="41.929471911862493" lon="13.15431266091764">
        <ele>1363.7700199999999</ele>
        <time>2017-06-14T06:17:43Z</time>
      </trkpt>
      <trkpt lat="41.929459339007735" lon="13.154312241822481">
        <ele>1363.7700199999999</ele>
        <time>2017-06-14T06:17:44Z</time>
      </trkpt>
      <trkpt lat="41.929375100880861" lon="13.154275864362717">
        <ele>1361.3599850000001</ele>
        <time>2017-06-14T06:17:57Z</time>
      </trkpt>
      <trkpt lat="41.929314332082868" lon="13.15422716550529">
        <ele>1359.4399410000001</ele>
        <time>2017-06-14T06:18:08Z</time>
      </trkpt>
      <trkpt lat="41.92926756106317" lon="13.154204115271568">
        <ele>1359.4399410000001</ele>
        <time>2017-06-14T06:18:30Z</time>
      </trkpt>
      <trkpt lat="41.929255910217762" lon="13.154201935976744">
        <ele>1359.4399410000001</ele>
        <time>2017-06-14T06:18:31Z</time>
      </trkpt>
      <trkpt lat="41.92924601957202" lon="13.154198667034507">
        <ele>1358.9600829999999</ele>
        <time>2017-06-14T06:18:32Z</time>
      </trkpt>
      <trkpt lat="41.929235123097897" lon="13.154196906834841">
        <ele>1358.9600829999999</ele>
        <time>2017-06-14T06:18:33Z</time>
      </trkpt>
      <trkpt lat="41.929223388433456" lon="13.154196739196777">
        <ele>1358.4801030000001</ele>
        <time>2017-06-14T06:18:34Z</time>
      </trkpt>
      <trkpt lat="41.929212575778365" lon="13.154196236282587">
        <ele>1358.4801030000001</ele>
        <time>2017-06-14T06:18:35Z</time>
      </trkpt>
      <trkpt lat="41.929199500009418" lon="13.154192799702287">
        <ele>1357.9998780000001</ele>
        <time>2017-06-14T06:18:36Z</time>
      </trkpt>
      <trkpt lat="41.929162116721272" lon="13.154181567952037">
        <ele>1357.5200199999999</ele>
        <time>2017-06-14T06:18:40Z</time>
      </trkpt>
      <trkpt lat="41.929129594936967" lon="13.154182825237513">
        <ele>1357.040039</ele>
        <time>2017-06-14T06:18:44Z</time>
      </trkpt>
      <trkpt lat="41.9291209615767" lon="13.154177460819483">
        <ele>1356.080078</ele>
        <time>2017-06-14T06:18:45Z</time>
      </trkpt>
      <trkpt lat="41.929001770913601" lon="13.154153237119317">
        <ele>1352.709961</ele>
        <time>2017-06-14T06:18:59Z</time>
      </trkpt>
      <trkpt lat="41.928907139226794" lon="13.154131360352039">
        <ele>1350.7899170000001</ele>
        <time>2017-06-14T06:19:13Z</time>
      </trkpt>
      <trkpt lat="41.928878473117948" lon="13.154123397544026">
        <ele>1350.309937</ele>
        <time>2017-06-14T06:19:38Z</time>
      </trkpt>
      <trkpt lat="41.928802113980055" lon="13.1540746986866">
        <ele>1346.940063</ele>
        <time>2017-06-14T06:19:48Z</time>
      </trkpt>
      <trkpt lat="41.928672026842833" lon="13.154079979285598">
        <ele>1344.059937</ele>
        <time>2017-06-14T06:20:04Z</time>
      </trkpt>
      <trkpt lat="41.928614862263203" lon="13.15409523434937">
        <ele>1342.619995</ele>
        <time>2017-06-14T06:20:19Z</time>
      </trkpt>
      <trkpt lat="41.928598266094923" lon="13.154102526605129">
        <ele>1342.619995</ele>
        <time>2017-06-14T06:20:35Z</time>
      </trkpt>
      <trkpt lat="41.928577227517962" lon="13.154085008427501">
        <ele>1342.1400149999999</ele>
        <time>2017-06-14T06:20:43Z</time>
      </trkpt>
      <trkpt lat="41.928575802594423" lon="13.154054582118988">
        <ele>1341.179932</ele>
        <time>2017-06-14T06:20:45Z</time>
      </trkpt>
      <trkpt lat="41.928574880585074" lon="13.154033711180091">
        <ele>1341.179932</ele>
        <time>2017-06-14T06:20:46Z</time>
      </trkpt>
      <trkpt lat="41.928549399599433" lon="13.15399263985455">
        <ele>1341.179932</ele>
        <time>2017-06-14T06:20:49Z</time>
      </trkpt>
      <trkpt lat="41.928536994382739" lon="13.153983168303967">
        <ele>1340.6999510000001</ele>
        <time>2017-06-14T06:20:50Z</time>
      </trkpt>
      <trkpt lat="41.92852383479476" lon="13.153973361477256">
        <ele>1340.6999510000001</ele>
        <time>2017-06-14T06:20:51Z</time>
      </trkpt>
      <trkpt lat="41.928513441234827" lon="13.153964141383767">
        <ele>1340.2200929999999</ele>
        <time>2017-06-14T06:20:52Z</time>
      </trkpt>
      <trkpt lat="41.92850430496037" lon="13.15394964069128">
        <ele>1340.2200929999999</ele>
        <time>2017-06-14T06:20:53Z</time>
      </trkpt>
      <trkpt lat="41.928497683256865" lon="13.153935978189111">
        <ele>1340.2200929999999</ele>
        <time>2017-06-14T06:20:54Z</time>
      </trkpt>
      <trkpt lat="41.928482763469219" lon="13.153916783630848">
        <ele>1340.2200929999999</ele>
        <time>2017-06-14T06:20:56Z</time>
      </trkpt>
      <trkpt lat="41.928472369909286" lon="13.153908904641867">
        <ele>1339.7299800000001</ele>
        <time>2017-06-14T06:20:57Z</time>
      </trkpt>
      <trkpt lat="41.928460299968719" lon="13.153899097815156">
        <ele>1338.7700199999999</ele>
        <time>2017-06-14T06:20:58Z</time>
      </trkpt>
      <trkpt lat="41.928332978859544" lon="13.153794994577765">
        <ele>1335.8900149999999</ele>
        <time>2017-06-14T06:21:12Z</time>
      </trkpt>
      <trkpt lat="41.928217560052872" lon="13.153693741187453">
        <ele>1333.01001</ele>
        <time>2017-06-14T06:21:25Z</time>
      </trkpt>
      <trkpt lat="41.928187804296613" lon="13.153656776994467">
        <ele>1332.5200199999999</ele>
        <time>2017-06-14T06:21:28Z</time>
      </trkpt>
      <trkpt lat="41.928179087117314" lon="13.153649400919676">
        <ele>1332.5200199999999</ele>
        <time>2017-06-14T06:21:29Z</time>
      </trkpt>
      <trkpt lat="41.928058136254549" lon="13.153599360957742">
        <ele>1329.160034</ele>
        <time>2017-06-14T06:21:43Z</time>
      </trkpt>
      <trkpt lat="41.928045395761728" lon="13.15360413864255">
        <ele>1329.160034</ele>
        <time>2017-06-14T06:21:44Z</time>
      </trkpt>
      <trkpt lat="41.927896784618497" lon="13.153613358736038">
        <ele>1328.1999510000001</ele>
        <time>2017-06-14T06:21:59Z</time>
      </trkpt>
      <trkpt lat="41.927891839295626" lon="13.153609000146389">
        <ele>1327.719971</ele>
        <time>2017-06-14T06:22:11Z</time>
      </trkpt>
      <trkpt lat="41.927909106016159" lon="13.153606988489628">
        <ele>1327.23999</ele>
        <time>2017-06-14T06:22:41Z</time>
      </trkpt>
      <trkpt lat="41.927899802103639" lon="13.153597516939044">
        <ele>1327.23999</ele>
        <time>2017-06-14T06:23:00Z</time>
      </trkpt>
      <trkpt lat="41.927859066054225" lon="13.153588883578777">
        <ele>1327.23999</ele>
        <time>2017-06-14T06:23:07Z</time>
      </trkpt>
      <trkpt lat="41.927846660837531" lon="13.153569018468261">
        <ele>1326.76001</ele>
        <time>2017-06-14T06:23:09Z</time>
      </trkpt>
      <trkpt lat="41.927842637524009" lon="13.153554936870933">
        <ele>1325.799927</ele>
        <time>2017-06-14T06:23:10Z</time>
      </trkpt>
      <trkpt lat="41.927836267277598" lon="13.153541190549731">
        <ele>1325.799927</ele>
        <time>2017-06-14T06:23:11Z</time>
      </trkpt>
      <trkpt lat="41.927827801555395" lon="13.153528617694974">
        <ele>1325.799927</ele>
        <time>2017-06-14T06:23:12Z</time>
      </trkpt>
      <trkpt lat="41.927818330004811" lon="13.153519900515676">
        <ele>1325.309937</ele>
        <time>2017-06-14T06:23:13Z</time>
      </trkpt>
      <trkpt lat="41.927808858454227" lon="13.153512859717011">
        <ele>1325.309937</ele>
        <time>2017-06-14T06:23:14Z</time>
      </trkpt>
      <trkpt lat="41.927696708589792" lon="13.153442367911339">
        <ele>1322.910034</ele>
        <time>2017-06-14T06:23:27Z</time>
      </trkpt>
      <trkpt lat="41.927683632820845" lon="13.153436500579119">
        <ele>1322.910034</ele>
        <time>2017-06-14T06:23:28Z</time>
      </trkpt>
      <trkpt lat="41.927669635042548" lon="13.153431303799152">
        <ele>1322.910034</ele>
        <time>2017-06-14T06:23:29Z</time>
      </trkpt>
      <trkpt lat="41.927655469626188" lon="13.153430130332708">
        <ele>1322.910034</ele>
        <time>2017-06-14T06:23:30Z</time>
      </trkpt>
      <trkpt lat="41.927631078287959" lon="13.153425939381123">
        <ele>1322.910034</ele>
        <time>2017-06-14T06:23:32Z</time>
      </trkpt>
      <trkpt lat="41.927610458806157" lon="13.153415713459253">
        <ele>1322.4300539999999</ele>
        <time>2017-06-14T06:23:34Z</time>
      </trkpt>
      <trkpt lat="41.927562011405826" lon="13.153439601883292">
        <ele>1321.950073</ele>
        <time>2017-06-14T06:23:39Z</time>
      </trkpt>
      <trkpt lat="41.927550863474607" lon="13.153449660167098">
        <ele>1321.950073</ele>
        <time>2017-06-14T06:23:40Z</time>
      </trkpt>
      <trkpt lat="41.927540386095643" lon="13.153459299355745">
        <ele>1321.950073</ele>
        <time>2017-06-14T06:23:41Z</time>
      </trkpt>
      <trkpt lat="41.92752898670733" lon="13.153469273820519">
        <ele>1321.4700929999999</ele>
        <time>2017-06-14T06:23:42Z</time>
      </trkpt>
      <trkpt lat="41.927516330033541" lon="13.153478661552072">
        <ele>1321.4700929999999</ele>
        <time>2017-06-14T06:23:43Z</time>
      </trkpt>
      <trkpt lat="41.9275011587888" lon="13.153484780341387">
        <ele>1321.4700929999999</ele>
        <time>2017-06-14T06:23:44Z</time>
      </trkpt>
      <trkpt lat="41.927486909553409" lon="13.153491318225861">
        <ele>1320.98999</ele>
        <time>2017-06-14T06:23:45Z</time>
      </trkpt>
      <trkpt lat="41.92743276245892" lon="13.153512859717011">
        <ele>1319.5500489999999</ele>
        <time>2017-06-14T06:23:49Z</time>
      </trkpt>
      <trkpt lat="41.927300160750747" lon="13.153606737032533">
        <ele>1318.589966</ele>
        <time>2017-06-14T06:24:05Z</time>
      </trkpt>
      <trkpt lat="41.927118776366115" lon="13.153525684028864">
        <ele>1318.589966</ele>
        <time>2017-06-14T06:24:21Z</time>
      </trkpt>
      <trkpt lat="41.927047614008188" lon="13.15350548364222">
        <ele>1318.589966</ele>
        <time>2017-06-14T06:24:27Z</time>
      </trkpt>
      <trkpt lat="41.92703353241086" lon="13.153506992384791">
        <ele>1318.589966</ele>
        <time>2017-06-14T06:24:28Z</time>
      </trkpt>
      <trkpt lat="41.927019115537405" lon="13.153513111174107">
        <ele>1318.589966</ele>
        <time>2017-06-14T06:24:29Z</time>
      </trkpt>
      <trkpt lat="41.927002687007189" lon="13.153521241620183">
        <ele>1318.589966</ele>
        <time>2017-06-14T06:24:30Z</time>
      </trkpt>
      <trkpt lat="41.926987431943417" lon="13.153528030961752">
        <ele>1318.589966</ele>
        <time>2017-06-14T06:24:31Z</time>
      </trkpt>
      <trkpt lat="41.926974439993501" lon="13.153534065932035">
        <ele>1318.589966</ele>
        <time>2017-06-14T06:24:32Z</time>
      </trkpt>
      <trkpt lat="41.926930015906692" lon="13.153565665706992">
        <ele>1318.099976</ele>
        <time>2017-06-14T06:24:37Z</time>
      </trkpt>
      <trkpt lat="41.926916604861617" lon="13.153576729819179">
        <ele>1318.099976</ele>
        <time>2017-06-14T06:24:38Z</time>
      </trkpt>
      <trkpt lat="41.926906211301684" lon="13.153581423684955">
        <ele>1318.099976</ele>
        <time>2017-06-14T06:24:39Z</time>
      </trkpt>
      <trkpt lat="41.926895482465625" lon="13.153583267703652">
        <ele>1318.099976</ele>
        <time>2017-06-14T06:24:40Z</time>
      </trkpt>
      <trkpt lat="41.926884166896343" lon="13.153582094237208">
        <ele>1318.099976</ele>
        <time>2017-06-14T06:24:41Z</time>
      </trkpt>
      <trkpt lat="41.92682046443224" lon="13.153604725375772">
        <ele>1317.619995</ele>
        <time>2017-06-14T06:24:51Z</time>
      </trkpt>
      <trkpt lat="41.926808059215546" lon="13.153615035116673">
        <ele>1317.619995</ele>
        <time>2017-06-14T06:24:52Z</time>
      </trkpt>
      <trkpt lat="41.926785428076982" lon="13.153641438111663">
        <ele>1317.619995</ele>
        <time>2017-06-14T06:24:56Z</time>
      </trkpt>
      <trkpt lat="41.926779141649604" lon="13.153651831671596">
        <ele>1317.619995</ele>
        <time>2017-06-14T06:24:57Z</time>
      </trkpt>
      <trkpt lat="41.926763132214546" lon="13.153674462810159">
        <ele>1317.619995</ele>
        <time>2017-06-14T06:25:00Z</time>
      </trkpt>
      <trkpt lat="41.926750559359789" lon="13.153694327920675">
        <ele>1317.619995</ele>
        <time>2017-06-14T06:25:02Z</time>
      </trkpt>
      <trkpt lat="41.926719630137086" lon="13.153736991807818">
        <ele>1317.619995</ele>
        <time>2017-06-14T06:25:07Z</time>
      </trkpt>
      <trkpt lat="41.926674535498023" lon="13.153817960992455">
        <ele>1316.6599120000001</ele>
        <time>2017-06-14T06:25:15Z</time>
      </trkpt>
      <trkpt lat="41.926665483042598" lon="13.153830785304308">
        <ele>1316.6599120000001</ele>
        <time>2017-06-14T06:25:16Z</time>
      </trkpt>
      <trkpt lat="41.926655508577824" lon="13.15384604036808">
        <ele>1316.6599120000001</ele>
        <time>2017-06-14T06:25:17Z</time>
      </trkpt>
      <trkpt lat="41.926585771143436" lon="13.154024239629507">
        <ele>1314.259888</ele>
        <time>2017-06-14T06:25:31Z</time>
      </trkpt>
      <trkpt lat="41.926570683717728" lon="13.154080985113978">
        <ele>1313.3000489999999</ele>
        <time>2017-06-14T06:25:37Z</time>
      </trkpt>
      <trkpt lat="41.926547801122069" lon="13.15424426458776">
        <ele>1311.380005</ele>
        <time>2017-06-14T06:25:49Z</time>
      </trkpt>
      <trkpt lat="41.926550734788179" lon="13.154260190203786">
        <ele>1311.380005</ele>
        <time>2017-06-14T06:25:50Z</time>
      </trkpt>
      <trkpt lat="41.9265341386199" lon="13.154409220442176">
        <ele>1309.929932</ele>
        <time>2017-06-14T06:26:02Z</time>
      </trkpt>
      <trkpt lat="41.926519135013223" lon="13.154562273994088">
        <ele>1307.5299070000001</ele>
        <time>2017-06-14T06:26:15Z</time>
      </trkpt>
      <trkpt lat="41.926525589078665" lon="13.1547636911273">
        <ele>1304.650024</ele>
        <time>2017-06-14T06:26:31Z</time>
      </trkpt>
      <trkpt lat="41.926599266007543" lon="13.154913391917944">
        <ele>1301.280029</ele>
        <time>2017-06-14T06:26:44Z</time>
      </trkpt>
      <trkpt lat="41.926618795841932" lon="13.155013304203749">
        <ele>1300.3199460000001</ele>
        <time>2017-06-14T06:26:51Z</time>
      </trkpt>
      <trkpt lat="41.926627513021231" lon="13.155163591727614">
        <ele>1297.4399410000001</ele>
        <time>2017-06-14T06:27:05Z</time>
      </trkpt>
      <trkpt lat="41.926655927672982" lon="13.155210027471185">
        <ele>1296.4801030000001</ele>
        <time>2017-06-14T06:27:17Z</time>
      </trkpt>
      <trkpt lat="41.926667327061296" lon="13.155279261991382">
        <ele>1295.98999</ele>
        <time>2017-06-14T06:27:22Z</time>
      </trkpt>
      <trkpt lat="41.926658693701029" lon="13.155301809310913">
        <ele>1295.51001</ele>
        <time>2017-06-14T06:27:23Z</time>
      </trkpt>
      <trkpt lat="41.926638074219227" lon="13.155334079638124">
        <ele>1295.030029</ele>
        <time>2017-06-14T06:27:28Z</time>
      </trkpt>
      <trkpt lat="41.926629859954119" lon="13.155350759625435">
        <ele>1295.030029</ele>
        <time>2017-06-14T06:27:29Z</time>
      </trkpt>
      <trkpt lat="41.926541598513722" lon="13.155502136796713">
        <ele>1292.630005</ele>
        <time>2017-06-14T06:27:42Z</time>
      </trkpt>
      <trkpt lat="41.926477896049619" lon="13.155592158436775">
        <ele>1290.709961</ele>
        <time>2017-06-14T06:27:50Z</time>
      </trkpt>
      <trkpt lat="41.926423162221909" lon="13.155659213662148">
        <ele>1290.709961</ele>
        <time>2017-06-14T06:27:58Z</time>
      </trkpt>
      <trkpt lat="41.926406314596534" lon="13.155721826478839">
        <ele>1289.2700199999999</ele>
        <time>2017-06-14T06:28:06Z</time>
      </trkpt>
      <trkpt lat="41.926402375102043" lon="13.155735405161977">
        <ele>1289.2700199999999</ele>
        <time>2017-06-14T06:28:07Z</time>
      </trkpt>
      <trkpt lat="41.926350658759475" lon="13.155838837847114">
        <ele>1285.900024</ele>
        <time>2017-06-14T06:28:22Z</time>
      </trkpt>
      <trkpt lat="41.926327189430594" lon="13.155880998820066">
        <ele>1285.420044</ele>
        <time>2017-06-14T06:28:26Z</time>
      </trkpt>
      <trkpt lat="41.926294583827257" lon="13.155971020460129">
        <ele>1283.9799800000001</ele>
        <time>2017-06-14T06:28:32Z</time>
      </trkpt>
      <trkpt lat="41.926225433126092" lon="13.156059281900525">
        <ele>1280.610107</ele>
        <time>2017-06-14T06:28:44Z</time>
      </trkpt>
      <trkpt lat="41.926169358193874" lon="13.15619389526546">
        <ele>1277.7299800000001</ele>
        <time>2017-06-14T06:28:59Z</time>
      </trkpt>
      <trkpt lat="41.926120324060321" lon="13.156313421204686">
        <ele>1273.880005</ele>
        <time>2017-06-14T06:29:13Z</time>
      </trkpt>
      <trkpt lat="41.926048407331109" lon="13.156305626034737">
        <ele>1271.959961</ele>
        <time>2017-06-14T06:29:23Z</time>
      </trkpt>
      <trkpt lat="41.925843805074692" lon="13.156305039301515">
        <ele>1270.9998780000001</ele>
        <time>2017-06-14T06:29:39Z</time>
      </trkpt>
      <trkpt lat="41.925820168107748" lon="13.156282994896173">
        <ele>1272.919922</ele>
        <time>2017-06-14T06:29:42Z</time>
      </trkpt>
      <trkpt lat="41.925775241106749" lon="13.156261118128896">
        <ele>1270.040039</ele>
        <time>2017-06-14T06:29:47Z</time>
      </trkpt>
      <trkpt lat="41.925710029900074" lon="13.156196158379316">
        <ele>1269.080078</ele>
        <time>2017-06-14T06:29:56Z</time>
      </trkpt>
      <trkpt lat="41.925628641620278" lon="13.156084679067135">
        <ele>1268.119995</ele>
        <time>2017-06-14T06:30:10Z</time>
      </trkpt>
      <trkpt lat="41.925515485927463" lon="13.156063137575984">
        <ele>1269.5600589999999</ele>
        <time>2017-06-14T06:30:29Z</time>
      </trkpt>
      <trkpt lat="41.925469217821956" lon="13.156099431216717">
        <ele>1269.5600589999999</ele>
        <time>2017-06-14T06:30:35Z</time>
      </trkpt>
      <trkpt lat="41.925403587520123" lon="13.156109824776649">
        <ele>1268.119995</ele>
        <time>2017-06-14T06:30:41Z</time>
      </trkpt>
      <trkpt lat="41.925303339958191" lon="13.156158858910203">
        <ele>1267.6400149999999</ele>
        <time>2017-06-14T06:30:53Z</time>
      </trkpt>
      <trkpt lat="41.925198901444674" lon="13.156134467571974">
        <ele>1266.670044</ele>
        <time>2017-06-14T06:31:06Z</time>
      </trkpt>
      <trkpt lat="41.925205523148179" lon="13.156030029058456">
        <ele>1265.2299800000001</ele>
        <time>2017-06-14T06:31:17Z</time>
      </trkpt>
      <trkpt lat="41.925200074911118" lon="13.156020976603031">
        <ele>1264.2700199999999</ele>
        <time>2017-06-14T06:31:19Z</time>
      </trkpt>
      <trkpt lat="41.925172079354525" lon="13.155962135642767">
        <ele>1261.8701169999999</ele>
        <time>2017-06-14T06:31:34Z</time>
      </trkpt>
      <trkpt lat="41.925206026062369" lon="13.15590119920671">
        <ele>1259.940063</ele>
        <time>2017-06-14T06:31:46Z</time>
      </trkpt>
      <trkpt lat="41.925225220620632" lon="13.155866162851453">
        <ele>1258.9799800000001</ele>
        <time>2017-06-14T06:32:02Z</time>
      </trkpt>
      <trkpt lat="41.92521340213716" lon="13.155862307175994">
        <ele>1258.9799800000001</ele>
        <time>2017-06-14T06:32:05Z</time>
      </trkpt>
      <trkpt lat="41.925149280577898" lon="13.15588996745646">
        <ele>1256.579956</ele>
        <time>2017-06-14T06:32:20Z</time>
      </trkpt>
      <trkpt lat="41.925062779337168" lon="13.155929362401366">
        <ele>1254.6599120000001</ele>
        <time>2017-06-14T06:32:35Z</time>
      </trkpt>
      <trkpt lat="41.925041992217302" lon="13.155937660485506">
        <ele>1254.179932</ele>
        <time>2017-06-14T06:32:38Z</time>
      </trkpt>
      <trkpt lat="41.925027407705784" lon="13.15593053586781">
        <ele>1254.179932</ele>
        <time>2017-06-14T06:32:39Z</time>
      </trkpt>
      <trkpt lat="41.925012990832329" lon="13.155924836173654">
        <ele>1253.6999510000001</ele>
        <time>2017-06-14T06:32:40Z</time>
      </trkpt>
      <trkpt lat="41.924920035526156" lon="13.15592366270721">
        <ele>1252.25</ele>
        <time>2017-06-14T06:32:50Z</time>
      </trkpt>
      <trkpt lat="41.924905115738511" lon="13.155923075973988">
        <ele>1252.25</ele>
        <time>2017-06-14T06:32:51Z</time>
      </trkpt>
      <trkpt lat="41.92479707300663" lon="13.155934140086174">
        <ele>1249.849976</ele>
        <time>2017-06-14T06:33:05Z</time>
      </trkpt>
      <trkpt lat="41.924735130742192" lon="13.155937241390347">
        <ele>1246.969971</ele>
        <time>2017-06-14T06:33:17Z</time>
      </trkpt>
      <trkpt lat="41.92463924176991" lon="13.155977223068476">
        <ele>1245.530029</ele>
        <time>2017-06-14T06:33:32Z</time>
      </trkpt>
      <trkpt lat="41.92455961368978" lon="13.155964063480496">
        <ele>1243.119995</ele>
        <time>2017-06-14T06:33:46Z</time>
      </trkpt>
      <trkpt lat="41.924476716667414" lon="13.155993483960629">
        <ele>1242.160034</ele>
        <time>2017-06-14T06:34:00Z</time>
      </trkpt>
      <trkpt lat="41.924410164356232" lon="13.156049810349941">
        <ele>1238.8000489999999</ele>
        <time>2017-06-14T06:34:15Z</time>
      </trkpt>
      <trkpt lat="41.924330871552229" lon="13.156078141182661">
        <ele>1237.349976</ele>
        <time>2017-06-14T06:34:29Z</time>
      </trkpt>
      <trkpt lat="41.924262307584286" lon="13.156096832826734">
        <ele>1235.910034</ele>
        <time>2017-06-14T06:34:43Z</time>
      </trkpt>
      <trkpt lat="41.924049323424697" lon="13.156077805906534">
        <ele>1233.51001</ele>
        <time>2017-06-14T06:34:58Z</time>
      </trkpt>
      <trkpt lat="41.923990901559591" lon="13.156094737350941">
        <ele>1232.0699460000001</ele>
        <time>2017-06-14T06:35:04Z</time>
      </trkpt>
      <trkpt lat="41.923908339813352" lon="13.156086271628737">
        <ele>1230.619995</ele>
        <time>2017-06-14T06:35:10Z</time>
      </trkpt>
      <trkpt lat="41.923855785280466" lon="13.156071938574314">
        <ele>1230.619995</ele>
        <time>2017-06-14T06:35:13Z</time>
      </trkpt>
      <trkpt lat="41.923835501074791" lon="13.156060036271811">
        <ele>1230.619995</ele>
        <time>2017-06-14T06:35:14Z</time>
      </trkpt>
      <trkpt lat="41.923743132501841" lon="13.15608442761004">
        <ele>1229.179932</ele>
        <time>2017-06-14T06:35:26Z</time>
      </trkpt>
      <trkpt lat="41.923669623211026" lon="13.156065819784999">
        <ele>1227.26001</ele>
        <time>2017-06-14T06:35:34Z</time>
      </trkpt>
      <trkpt lat="41.92364783026278" lon="13.156063640490174">
        <ele>1227.26001</ele>
        <time>2017-06-14T06:35:36Z</time>
      </trkpt>
      <trkpt lat="41.923539536073804" lon="13.15607562661171">
        <ele>1223.900024</ele>
        <time>2017-06-14T06:35:47Z</time>
      </trkpt>
      <trkpt lat="41.923476839438081" lon="13.156074369326234">
        <ele>1221.969971</ele>
        <time>2017-06-14T06:36:02Z</time>
      </trkpt>
      <trkpt lat="41.923350775614381" lon="13.156063724309206">
        <ele>1219.089966</ele>
        <time>2017-06-14T06:36:15Z</time>
      </trkpt>
      <trkpt lat="41.923180287703872" lon="13.155934978276491">
        <ele>1215.719971</ele>
        <time>2017-06-14T06:36:32Z</time>
      </trkpt>
      <trkpt lat="41.923132259398699" lon="13.155895499512553">
        <ele>1213.320068</ele>
        <time>2017-06-14T06:36:41Z</time>
      </trkpt>
      <trkpt lat="41.9230199418962" lon="13.155848141759634">
        <ele>1210.4399410000001</ele>
        <time>2017-06-14T06:36:54Z</time>
      </trkpt>
      <trkpt lat="41.922866720706224" lon="13.155859876424074">
        <ele>1206.589966</ele>
        <time>2017-06-14T06:37:10Z</time>
      </trkpt>
      <trkpt lat="41.922754989936948" lon="13.155752588063478">
        <ele>1203.2299800000001</ele>
        <time>2017-06-14T06:37:23Z</time>
      </trkpt>
      <trkpt lat="41.922633787617087" lon="13.155677821487188">
        <ele>1200.339966</ele>
        <time>2017-06-14T06:37:37Z</time>
      </trkpt>
      <trkpt lat="41.922511579468846" lon="13.155569694936275">
        <ele>1198.420044</ele>
        <time>2017-06-14T06:37:49Z</time>
      </trkpt>
      <trkpt lat="41.922410661354661" lon="13.155520241707563">
        <ele>1196.0200199999999</ele>
        <time>2017-06-14T06:38:03Z</time>
      </trkpt>
      <trkpt lat="41.92230018787086" lon="13.155552428215742">
        <ele>1193.130005</ele>
        <time>2017-06-14T06:38:19Z</time>
      </trkpt>
      <trkpt lat="41.922179237008095" lon="13.15554304048419">
        <ele>1190.7299800000001</ele>
        <time>2017-06-14T06:38:35Z</time>
      </trkpt>
      <trkpt lat="41.922101117670536" lon="13.155525606125593">
        <ele>1189.290039</ele>
        <time>2017-06-14T06:38:42Z</time>
      </trkpt>
      <trkpt lat="41.922086030244827" lon="13.155518481507897">
        <ele>1188.329956</ele>
        <time>2017-06-14T06:38:43Z</time>
      </trkpt>
      <trkpt lat="41.921951835975051" lon="13.155539436265826">
        <ele>1186.880005</ele>
        <time>2017-06-14T06:38:56Z</time>
      </trkpt>
      <trkpt lat="41.921816887333989" lon="13.155554439872503">
        <ele>1184</ele>
        <time>2017-06-14T06:39:10Z</time>
      </trkpt>
      <trkpt lat="41.921699289232492" lon="13.15550590865314">
        <ele>1181.119995</ele>
        <time>2017-06-14T06:39:24Z</time>
      </trkpt>
      <trkpt lat="41.921561239287257" lon="13.155449917539954">
        <ele>1178.2299800000001</ele>
        <time>2017-06-14T06:39:39Z</time>
      </trkpt>
      <trkpt lat="41.921587390825152" lon="13.155380515381694">
        <ele>1178.2299800000001</ele>
        <time>2017-06-14T06:39:53Z</time>
      </trkpt>
      <trkpt lat="41.921555958688259" lon="13.155466513708234">
        <ele>1176.790039</ele>
        <time>2017-06-14T06:40:06Z</time>
      </trkpt>
      <trkpt lat="41.921533662825823" lon="13.155510937795043">
        <ele>1175.349976</ele>
        <time>2017-06-14T06:40:12Z</time>
      </trkpt>
      <trkpt lat="41.921386728063226" lon="13.155531724914908">
        <ele>1173.4300539999999</ele>
        <time>2017-06-14T06:40:29Z</time>
      </trkpt>
      <trkpt lat="41.921284636482596" lon="13.155431058257818">
        <ele>1174.3900149999999</ele>
        <time>2017-06-14T06:40:39Z</time>
      </trkpt>
      <trkpt lat="41.921195620670915" lon="13.155400212854147">
        <ele>1175.829956</ele>
        <time>2017-06-14T06:40:53Z</time>
      </trkpt>
      <trkpt lat="41.921128733083606" lon="13.155319159850478">
        <ele>1175.349976</ele>
        <time>2017-06-14T06:41:16Z</time>
      </trkpt>
      <trkpt lat="41.921142395585775" lon="13.155296109616756">
        <ele>1175.829956</ele>
        <time>2017-06-14T06:41:34Z</time>
      </trkpt>
      <trkpt lat="41.92113091237843" lon="13.155293427407742">
        <ele>1175.829956</ele>
        <time>2017-06-14T06:41:36Z</time>
      </trkpt>
      <trkpt lat="41.921122865751386" lon="13.155277837067842">
        <ele>1175.829956</ele>
        <time>2017-06-14T06:41:37Z</time>
      </trkpt>
      <trkpt lat="41.921090763062239" lon="13.155252104625106">
        <ele>1175.829956</ele>
        <time>2017-06-14T06:41:41Z</time>
      </trkpt>
      <trkpt lat="41.921080034226179" lon="13.155250679701567">
        <ele>1175.829956</ele>
        <time>2017-06-14T06:41:42Z</time>
      </trkpt>
      <trkpt lat="41.921008201315999" lon="13.155221007764339">
        <ele>1176.309937</ele>
        <time>2017-06-14T06:41:51Z</time>
      </trkpt>
      <trkpt lat="41.920996215194464" lon="13.155209524556994">
        <ele>1176.309937</ele>
        <time>2017-06-14T06:41:52Z</time>
      </trkpt>
      <trkpt lat="41.920981965959072" lon="13.155202316120267">
        <ele>1176.309937</ele>
        <time>2017-06-14T06:41:53Z</time>
      </trkpt>
      <trkpt lat="41.920957658439875" lon="13.155191000550985">
        <ele>1176.790039</ele>
        <time>2017-06-14T06:41:55Z</time>
      </trkpt>
      <trkpt lat="41.92094617523253" lon="13.155181780457497">
        <ele>1176.790039</ele>
        <time>2017-06-14T06:41:56Z</time>
      </trkpt>
      <trkpt lat="41.920874426141381" lon="13.155120173469186">
        <ele>1176.790039</ele>
        <time>2017-06-14T06:42:04Z</time>
      </trkpt>
      <trkpt lat="41.920860763639212" lon="13.155116736888885">
        <ele>1176.790039</ele>
        <time>2017-06-14T06:42:05Z</time>
      </trkpt>
      <trkpt lat="41.920847436413169" lon="13.155112126842141">
        <ele>1176.790039</ele>
        <time>2017-06-14T06:42:06Z</time>
      </trkpt>
      <trkpt lat="41.920738639310002" lon="13.155105840414762">
        <ele>1178.709961</ele>
        <time>2017-06-14T06:42:18Z</time>
      </trkpt>
      <trkpt lat="41.920718438923359" lon="13.155099637806416">
        <ele>1178.709961</ele>
        <time>2017-06-14T06:42:20Z</time>
      </trkpt>
      <trkpt lat="41.920593464747071" lon="13.155028475448489">
        <ele>1179.190063</ele>
        <time>2017-06-14T06:42:32Z</time>
      </trkpt>
      <trkpt lat="41.920464299619198" lon="13.1549605820328">
        <ele>1180.6400149999999</ele>
        <time>2017-06-14T06:42:45Z</time>
      </trkpt>
      <trkpt lat="41.920310659334064" lon="13.154893023893237">
        <ele>1180.6400149999999</ele>
        <time>2017-06-14T06:42:57Z</time>
      </trkpt>
      <trkpt lat="41.920221727341413" lon="13.154848767444491">
        <ele>1181.599976</ele>
        <time>2017-06-14T06:43:10Z</time>
      </trkpt>
      <trkpt lat="41.920122485607862" lon="13.154799314215779">
        <ele>1181.599976</ele>
        <time>2017-06-14T06:43:22Z</time>
      </trkpt>
      <trkpt lat="41.920004719868302" lon="13.154814569279552">
        <ele>1182.5600589999999</ele>
        <time>2017-06-14T06:43:35Z</time>
      </trkpt>
      <trkpt lat="41.919970437884331" lon="13.154819933697581">
        <ele>1183.0399170000001</ele>
        <time>2017-06-14T06:43:38Z</time>
      </trkpt>
      <trkpt lat="41.919949818402529" lon="13.154818341135979">
        <ele>1183.0399170000001</ele>
        <time>2017-06-14T06:43:40Z</time>
      </trkpt>
      <trkpt lat="41.919938083738089" lon="13.154814736917615">
        <ele>1183.0399170000001</ele>
        <time>2017-06-14T06:43:41Z</time>
      </trkpt>
      <trkpt lat="41.919927103444934" lon="13.154810881242156">
        <ele>1183.0399170000001</ele>
        <time>2017-06-14T06:43:42Z</time>
      </trkpt>
      <trkpt lat="41.919906735420227" lon="13.154813982546329">
        <ele>1183.0399170000001</ele>
        <time>2017-06-14T06:43:44Z</time>
      </trkpt>
      <trkpt lat="41.919836411252618" lon="13.154813563451171">
        <ele>1183.5200199999999</ele>
        <time>2017-06-14T06:43:50Z</time>
      </trkpt>
      <trkpt lat="41.919740019366145" lon="13.154744161292911">
        <ele>1182.080078</ele>
        <time>2017-06-14T06:43:59Z</time>
      </trkpt>
      <trkpt lat="41.919681178405881" lon="13.154756734147668">
        <ele>1182.080078</ele>
        <time>2017-06-14T06:44:04Z</time>
      </trkpt>
      <trkpt lat="41.919666593894362" lon="13.154754638671875">
        <ele>1182.080078</ele>
        <time>2017-06-14T06:44:05Z</time>
      </trkpt>
      <trkpt lat="41.919650584459305" lon="13.154749860987067">
        <ele>1182.080078</ele>
        <time>2017-06-14T06:44:06Z</time>
      </trkpt>
      <trkpt lat="41.919634994119406" lon="13.154746340587735">
        <ele>1182.080078</ele>
        <time>2017-06-14T06:44:07Z</time>
      </trkpt>
      <trkpt lat="41.919619236141443" lon="13.154742401093245">
        <ele>1182.080078</ele>
        <time>2017-06-14T06:44:08Z</time>
      </trkpt>
      <trkpt lat="41.919602639973164" lon="13.15474022179842">
        <ele>1182.080078</ele>
        <time>2017-06-14T06:44:09Z</time>
      </trkpt>
      <trkpt lat="41.919588726013899" lon="13.154742568731308">
        <ele>1182.080078</ele>
        <time>2017-06-14T06:44:10Z</time>
      </trkpt>
      <trkpt lat="41.919548325240612" lon="13.15474558621645">
        <ele>1182.080078</ele>
        <time>2017-06-14T06:44:15Z</time>
      </trkpt>
      <trkpt lat="41.919533740729094" lon="13.154748268425465">
        <ele>1182.080078</ele>
        <time>2017-06-14T06:44:16Z</time>
      </trkpt>
      <trkpt lat="41.919519910588861" lon="13.154750699177384">
        <ele>1182.080078</ele>
        <time>2017-06-14T06:44:17Z</time>
      </trkpt>
      <trkpt lat="41.919502476230264" lon="13.154749860987067">
        <ele>1182.080078</ele>
        <time>2017-06-14T06:44:18Z</time>
      </trkpt>
      <trkpt lat="41.919482527300715" lon="13.154749190434813">
        <ele>1182.080078</ele>
        <time>2017-06-14T06:44:19Z</time>
      </trkpt>
      <trkpt lat="41.91931463778019" lon="13.15478028729558">
        <ele>1182.080078</ele>
        <time>2017-06-14T06:44:33Z</time>
      </trkpt>
      <trkpt lat="41.919249761849642" lon="13.154805013909936">
        <ele>1182.080078</ele>
        <time>2017-06-14T06:44:37Z</time>
      </trkpt>
      <trkpt lat="41.919238111004233" lon="13.154810965061188">
        <ele>1182.080078</ele>
        <time>2017-06-14T06:44:38Z</time>
      </trkpt>
      <trkpt lat="41.919186897575855" lon="13.15483552403748">
        <ele>1183.0399170000001</ele>
        <time>2017-06-14T06:44:45Z</time>
      </trkpt>
      <trkpt lat="41.919174827635288" lon="13.154835272580385">
        <ele>1183.0399170000001</ele>
        <time>2017-06-14T06:44:46Z</time>
      </trkpt>
      <trkpt lat="41.919161835685372" lon="13.154839631170034">
        <ele>1183.0399170000001</ele>
        <time>2017-06-14T06:44:47Z</time>
      </trkpt>
      <trkpt lat="41.919036861509085" lon="13.154899897053838">
        <ele>1183.0399170000001</ele>
        <time>2017-06-14T06:45:02Z</time>
      </trkpt>
      <trkpt lat="41.918942732736468" lon="13.154918421059847">
        <ele>1183.5200199999999</ele>
        <time>2017-06-14T06:45:10Z</time>
      </trkpt>
      <trkpt lat="41.918926471844316" lon="13.154916074126959">
        <ele>1183.5200199999999</ele>
        <time>2017-06-14T06:45:11Z</time>
      </trkpt>
      <trkpt lat="41.918907277286053" lon="13.154916409403086">
        <ele>1183.5200199999999</ele>
        <time>2017-06-14T06:45:12Z</time>
      </trkpt>
      <trkpt lat="41.918890429660678" lon="13.154917415231466">
        <ele>1183.5200199999999</ele>
        <time>2017-06-14T06:45:13Z</time>
      </trkpt>
      <trkpt lat="41.918787583708763" lon="13.154983883723617">
        <ele>1184.4799800000001</ele>
        <time>2017-06-14T06:45:25Z</time>
      </trkpt>
      <trkpt lat="41.918706195428967" lon="13.155023194849491">
        <ele>1186.400024</ele>
        <time>2017-06-14T06:45:36Z</time>
      </trkpt>
      <trkpt lat="41.918656993657351" lon="13.155061164870858">
        <ele>1188.809937</ele>
        <time>2017-06-14T06:45:49Z</time>
      </trkpt>
      <trkpt lat="41.918601421639323" lon="13.155093099921942">
        <ele>1189.7700199999999</ele>
        <time>2017-06-14T06:46:00Z</time>
      </trkpt>
      <trkpt lat="41.918581137433648" lon="13.15514967776835">
        <ele>1191.209961</ele>
        <time>2017-06-14T06:46:05Z</time>
      </trkpt>
      <trkpt lat="41.918518859893084" lon="13.155197622254491">
        <ele>1191.690063</ele>
        <time>2017-06-14T06:46:12Z</time>
      </trkpt>
      <trkpt lat="41.918505616486073" lon="13.155200136825442">
        <ele>1191.690063</ele>
        <time>2017-06-14T06:46:13Z</time>
      </trkpt>
      <trkpt lat="41.918373014777899" lon="13.15518731251359">
        <ele>1193.130005</ele>
        <time>2017-06-14T06:46:25Z</time>
      </trkpt>
      <trkpt lat="41.918227840214968" lon="13.155202316120267">
        <ele>1195.5399170000001</ele>
        <time>2017-06-14T06:46:38Z</time>
      </trkpt>
      <trkpt lat="41.918099680915475" lon="13.155221929773688">
        <ele>1197.9399410000001</ele>
        <time>2017-06-14T06:46:51Z</time>
      </trkpt>
      <trkpt lat="41.917962972074747" lon="13.155185971409082">
        <ele>1197.459961</ele>
        <time>2017-06-14T06:47:04Z</time>
      </trkpt>
      <trkpt lat="41.917937491089106" lon="13.155127381905913">
        <ele>1197.459961</ele>
        <time>2017-06-14T06:47:23Z</time>
      </trkpt>
      <trkpt lat="41.917855264618993" lon="13.155200975015759">
        <ele>1197.459961</ele>
        <time>2017-06-14T06:47:36Z</time>
      </trkpt>
      <trkpt lat="41.91783020272851" lon="13.155226036906242">
        <ele>1197.459961</ele>
        <time>2017-06-14T06:47:40Z</time>
      </trkpt>
      <trkpt lat="41.917820479720831" lon="13.155232239514589">
        <ele>1196.0200199999999</ele>
        <time>2017-06-14T06:47:41Z</time>
      </trkpt>
      <trkpt lat="41.917809499427676" lon="13.155239867046475">
        <ele>1196.0200199999999</ele>
        <time>2017-06-14T06:47:42Z</time>
      </trkpt>
      <trkpt lat="41.917713191360235" lon="13.155338605865836">
        <ele>1196.5</ele>
        <time>2017-06-14T06:47:55Z</time>
      </trkpt>
      <trkpt lat="41.917699109762907" lon="13.1553387735039">
        <ele>1196.5</ele>
        <time>2017-06-14T06:47:56Z</time>
      </trkpt>
      <trkpt lat="41.917611099779606" lon="13.155343635007739">
        <ele>1196.5</ele>
        <time>2017-06-14T06:48:04Z</time>
      </trkpt>
      <trkpt lat="41.917596682906151" lon="13.155346484854817">
        <ele>1196.5</ele>
        <time>2017-06-14T06:48:05Z</time>
      </trkpt>
      <trkpt lat="41.917580841109157" lon="13.15535050816834">
        <ele>1196.5</ele>
        <time>2017-06-14T06:48:06Z</time>
      </trkpt>
      <trkpt lat="41.917565166950226" lon="13.155351765453815">
        <ele>1196.5</ele>
        <time>2017-06-14T06:48:07Z</time>
      </trkpt>
      <trkpt lat="41.917492160573602" lon="13.155371882021427">
        <ele>1197.459961</ele>
        <time>2017-06-14T06:48:14Z</time>
      </trkpt>
      <trkpt lat="41.917480090633035" lon="13.155383365228772">
        <ele>1198.420044</ele>
        <time>2017-06-14T06:48:15Z</time>
      </trkpt>
      <trkpt lat="41.917426194995642" lon="13.15542041324079">
        <ele>1199.8599850000001</ele>
        <time>2017-06-14T06:48:22Z</time>
      </trkpt>
      <trkpt lat="41.917359558865428" lon="13.155481265857816">
        <ele>1200.820068</ele>
        <time>2017-06-14T06:48:32Z</time>
      </trkpt>
      <trkpt lat="41.917346986010671" lon="13.155486462637782">
        <ele>1200.820068</ele>
        <time>2017-06-14T06:48:33Z</time>
      </trkpt>
      <trkpt lat="41.917260736227036" lon="13.155527198687196">
        <ele>1201.3000489999999</ele>
        <time>2017-06-14T06:48:42Z</time>
      </trkpt>
      <trkpt lat="41.917249839752913" lon="13.15553423948586">
        <ele>1201.3000489999999</ele>
        <time>2017-06-14T06:48:43Z</time>
      </trkpt>
      <trkpt lat="41.917173396795988" lon="13.155578663572669">
        <ele>1201.790039</ele>
        <time>2017-06-14T06:48:58Z</time>
      </trkpt>
      <trkpt lat="41.917076082900167" lon="13.155620908364654">
        <ele>1202.2700199999999</ele>
        <time>2017-06-14T06:49:10Z</time>
      </trkpt>
      <trkpt lat="41.917035765945911" lon="13.155639180913568">
        <ele>1202.2700199999999</ele>
        <time>2017-06-14T06:49:14Z</time>
      </trkpt>
      <trkpt lat="41.917004082351923" lon="13.155683940276504">
        <ele>1202.75</ele>
        <time>2017-06-14T06:49:20Z</time>
      </trkpt>
      <trkpt lat="41.916932836174965" lon="13.155753426253796">
        <ele>1204.670044</ele>
        <time>2017-06-14T06:49:32Z</time>
      </trkpt>
      <trkpt lat="41.916880365461111" lon="13.1557722017169">
        <ele>1205.150024</ele>
        <time>2017-06-14T06:49:45Z</time>
      </trkpt>
      <trkpt lat="41.91679336130619" lon="13.155805561691523">
        <ele>1206.1099850000001</ele>
        <time>2017-06-14T06:49:59Z</time>
      </trkpt>
      <trkpt lat="41.916694287210703" lon="13.155908659100533">
        <ele>1208.030029</ele>
        <time>2017-06-14T06:50:11Z</time>
      </trkpt>
      <trkpt lat="41.916620023548603" lon="13.1560018658638">
        <ele>1209.4799800000001</ele>
        <time>2017-06-14T06:50:23Z</time>
      </trkpt>
      <trkpt lat="41.916544083505869" lon="13.156104041263461">
        <ele>1210.920044</ele>
        <time>2017-06-14T06:50:36Z</time>
      </trkpt>
      <trkpt lat="41.916469065472484" lon="13.15622616559267">
        <ele>1211.880005</ele>
        <time>2017-06-14T06:50:49Z</time>
      </trkpt>
      <trkpt lat="41.916444171220064" lon="13.15626329742372">
        <ele>1212.3599850000001</ele>
        <time>2017-06-14T06:50:53Z</time>
      </trkpt>
      <trkpt lat="41.91634870134294" lon="13.156347870826721">
        <ele>1213.320068</ele>
        <time>2017-06-14T06:51:05Z</time>
      </trkpt>
      <trkpt lat="41.916265888139606" lon="13.156396066769958">
        <ele>1213.8000489999999</ele>
        <time>2017-06-14T06:51:18Z</time>
      </trkpt>
      <trkpt lat="41.916254907846451" lon="13.156426409259439">
        <ele>1213.8000489999999</ele>
        <time>2017-06-14T06:51:31Z</time>
      </trkpt>
      <trkpt lat="41.916231606155634" lon="13.156476030126214">
        <ele>1214.2799070000001</ele>
        <time>2017-06-14T06:51:36Z</time>
      </trkpt>
      <trkpt lat="41.916106967255473" lon="13.156593376770616">
        <ele>1215.23999</ele>
        <time>2017-06-14T06:51:49Z</time>
      </trkpt>
      <trkpt lat="41.915968833491206" lon="13.156688762828708">
        <ele>1215.719971</ele>
        <time>2017-06-14T06:52:01Z</time>
      </trkpt>
      <trkpt lat="41.915777558460832" lon="13.15675288438797">
        <ele>1215.719971</ele>
        <time>2017-06-14T06:52:15Z</time>
      </trkpt>
      <trkpt lat="41.91558837890625" lon="13.156846510246396">
        <ele>1214.76001</ele>
        <time>2017-06-14T06:52:32Z</time>
      </trkpt>
      <trkpt lat="41.915495423600078" lon="13.156917002052069">
        <ele>1214.76001</ele>
        <time>2017-06-14T06:52:44Z</time>
      </trkpt>
      <trkpt lat="41.915479833260179" lon="13.156938878819346">
        <ele>1214.76001</ele>
        <time>2017-06-14T06:52:46Z</time>
      </trkpt>
      <trkpt lat="41.915470864623785" lon="13.156952122226357">
        <ele>1214.76001</ele>
        <time>2017-06-14T06:52:47Z</time>
      </trkpt>
      <trkpt lat="41.915460722520947" lon="13.15696788020432">
        <ele>1214.76001</ele>
        <time>2017-06-14T06:52:48Z</time>
      </trkpt>
      <trkpt lat="41.915318565443158" lon="13.157270634546876">
        <ele>1214.2799070000001</ele>
        <time>2017-06-14T06:53:08Z</time>
      </trkpt>
      <trkpt lat="41.915265759453177" lon="13.157549668103456">
        <ele>1214.2799070000001</ele>
        <time>2017-06-14T06:53:24Z</time>
      </trkpt>
      <trkpt lat="41.915191411972046" lon="13.157814284786582">
        <ele>1214.2799070000001</ele>
        <time>2017-06-14T06:53:41Z</time>
      </trkpt>
      <trkpt lat="41.915046740323305" lon="13.15809516236186">
        <ele>1215.719971</ele>
        <time>2017-06-14T06:53:58Z</time>
      </trkpt>
      <trkpt lat="41.91497566178441" lon="13.15816699527204">
        <ele>1216.209961</ele>
        <time>2017-06-14T06:54:07Z</time>
      </trkpt>
      <trkpt lat="41.914965938776731" lon="13.1581777241081">
        <ele>1216.209961</ele>
        <time>2017-06-14T06:54:08Z</time>
      </trkpt>
      <trkpt lat="41.914955293759704" lon="13.158187530934811">
        <ele>1216.690063</ele>
        <time>2017-06-14T06:54:09Z</time>
      </trkpt>
      <trkpt lat="41.91494288854301" lon="13.158198762685061">
        <ele>1217.170044</ele>
        <time>2017-06-14T06:54:10Z</time>
      </trkpt>
      <trkpt lat="41.914930818602443" lon="13.158210664987564">
        <ele>1217.170044</ele>
        <time>2017-06-14T06:54:11Z</time>
      </trkpt>
      <trkpt lat="41.914847334846854" lon="13.158370172604918">
        <ele>1218.6099850000001</ele>
        <time>2017-06-14T06:54:24Z</time>
      </trkpt>
      <trkpt lat="41.914791176095605" lon="13.158606039360166">
        <ele>1219.089966</ele>
        <time>2017-06-14T06:54:40Z</time>
      </trkpt>
      <trkpt lat="41.914687575772405" lon="13.158827573060989">
        <ele>1219.5699460000001</ele>
        <time>2017-06-14T06:54:56Z</time>
      </trkpt>
      <trkpt lat="41.91453343257308" lon="13.15896101295948">
        <ele>1220.0500489999999</ele>
        <time>2017-06-14T06:55:09Z</time>
      </trkpt>
      <trkpt lat="41.914384821429849" lon="13.159076599404216">
        <ele>1220.530029</ele>
        <time>2017-06-14T06:55:22Z</time>
      </trkpt>
      <trkpt lat="41.914378199726343" lon="13.159266198053956">
        <ele>1220.530029</ele>
        <time>2017-06-14T06:55:34Z</time>
      </trkpt>
      <trkpt lat="41.914374260231853" lon="13.159308526664972">
        <ele>1220.530029</ele>
        <time>2017-06-14T06:55:37Z</time>
      </trkpt>
      <trkpt lat="41.914337798953056" lon="13.159410199150443">
        <ele>1221.01001</ele>
        <time>2017-06-14T06:55:42Z</time>
      </trkpt>
      <trkpt lat="41.914281221106648" lon="13.159699039533734">
        <ele>1222.450073</ele>
        <time>2017-06-14T06:56:00Z</time>
      </trkpt>
      <trkpt lat="41.914249202236533" lon="13.159757880493999">
        <ele>1222.450073</ele>
        <time>2017-06-14T06:56:04Z</time>
      </trkpt>
      <trkpt lat="41.914218440651894" lon="13.159830635413527">
        <ele>1222.9300539999999</ele>
        <time>2017-06-14T06:56:09Z</time>
      </trkpt>
      <trkpt lat="41.914171669632196" lon="13.160149985924363">
        <ele>1224.380005</ele>
        <time>2017-06-14T06:56:28Z</time>
      </trkpt>
      <trkpt lat="41.914168819785118" lon="13.160165576264262">
        <ele>1224.380005</ele>
        <time>2017-06-14T06:56:29Z</time>
      </trkpt>
      <trkpt lat="41.914081815630198" lon="13.160386858507991">
        <ele>1225.339966</ele>
        <time>2017-06-14T06:56:44Z</time>
      </trkpt>
      <trkpt lat="41.913958434015512" lon="13.160537481307983">
        <ele>1226.3000489999999</ele>
        <time>2017-06-14T06:56:59Z</time>
      </trkpt>
      <trkpt lat="41.913849217817187" lon="13.160688271746039">
        <ele>1227.73999</ele>
        <time>2017-06-14T06:57:12Z</time>
      </trkpt>
      <trkpt lat="41.913738660514355" lon="13.160785837098956">
        <ele>1230.1400149999999</ele>
        <time>2017-06-14T06:57:26Z</time>
      </trkpt>
      <trkpt lat="41.913622487336397" lon="13.160897232592106">
        <ele>1230.619995</ele>
        <time>2017-06-14T06:57:38Z</time>
      </trkpt>
      <trkpt lat="41.913502458482981" lon="13.161024218425155">
        <ele>1229.179932</ele>
        <time>2017-06-14T06:57:51Z</time>
      </trkpt>
      <trkpt lat="41.913486868143082" lon="13.161052968353033">
        <ele>1229.179932</ele>
        <time>2017-06-14T06:57:53Z</time>
      </trkpt>
      <trkpt lat="41.91337731666863" lon="13.16115053370595">
        <ele>1228.219971</ele>
        <time>2017-06-14T06:58:02Z</time>
      </trkpt>
      <trkpt lat="41.913281176239252" lon="13.161297887563705">
        <ele>1227.73999</ele>
        <time>2017-06-14T06:58:15Z</time>
      </trkpt>
      <trkpt lat="41.913104234263301" lon="13.161482037976384">
        <ele>1226.7799070000001</ele>
        <time>2017-06-14T06:58:30Z</time>
      </trkpt>
      <trkpt lat="41.912963334470987" lon="13.161565773189068">
        <ele>1226.7799070000001</ele>
        <time>2017-06-14T06:58:44Z</time>
      </trkpt>
      <trkpt lat="41.912792259827256" lon="13.16169636324048">
        <ele>1226.3000489999999</ele>
        <time>2017-06-14T06:58:59Z</time>
      </trkpt>
      <trkpt lat="41.912667537108064" lon="13.161805663257837">
        <ele>1226.3000489999999</ele>
        <time>2017-06-14T06:59:11Z</time>
      </trkpt>
      <trkpt lat="41.912649683654308" lon="13.161821840330958">
        <ele>1227.73999</ele>
        <time>2017-06-14T06:59:13Z</time>
      </trkpt>
      <trkpt lat="41.912553124129772" lon="13.162016635760665">
        <ele>1228.219971</ele>
        <time>2017-06-14T06:59:27Z</time>
      </trkpt>
      <trkpt lat="41.912529990077019" lon="13.162197433412075">
        <ele>1228.219971</ele>
        <time>2017-06-14T06:59:40Z</time>
      </trkpt>
      <trkpt lat="41.912526972591877" lon="13.162437910214067">
        <ele>1228.219971</ele>
        <time>2017-06-14T06:59:55Z</time>
      </trkpt>
      <trkpt lat="41.912514315918088" lon="13.1627815682441">
        <ele>1228.219971</ele>
        <time>2017-06-14T07:00:13Z</time>
      </trkpt>
      <trkpt lat="41.912493361160159" lon="13.16304643638432">
        <ele>1229.660034</ele>
        <time>2017-06-14T07:00:29Z</time>
      </trkpt>
      <trkpt lat="41.912579862400889" lon="13.163302671164274">
        <ele>1228.6999510000001</ele>
        <time>2017-06-14T07:00:45Z</time>
      </trkpt>
      <trkpt lat="41.912679774686694" lon="13.163535771891475">
        <ele>1227.73999</ele>
        <time>2017-06-14T07:01:00Z</time>
      </trkpt>
      <trkpt lat="41.912618838250637" lon="13.163738697767258">
        <ele>1227.26001</ele>
        <time>2017-06-14T07:01:13Z</time>
      </trkpt>
      <trkpt lat="41.91243234090507" lon="13.163888733834028">
        <ele>1227.26001</ele>
        <time>2017-06-14T07:01:28Z</time>
      </trkpt>
      <trkpt lat="41.912353970110416" lon="13.164105238392949">
        <ele>1228.6999510000001</ele>
        <time>2017-06-14T07:01:43Z</time>
      </trkpt>
      <trkpt lat="41.912361430004239" lon="13.164240270853043">
        <ele>1228.6999510000001</ele>
        <time>2017-06-14T07:01:54Z</time>
      </trkpt>
      <trkpt lat="41.912359334528446" lon="13.164334064349532">
        <ele>1229.179932</ele>
        <time>2017-06-14T07:02:04Z</time>
      </trkpt>
      <trkpt lat="41.91236587241292" lon="13.164384439587593">
        <ele>1229.179932</ele>
        <time>2017-06-14T07:02:17Z</time>
      </trkpt>
      <trkpt lat="41.912361765280366" lon="13.164535984396935">
        <ele>1229.179932</ele>
        <time>2017-06-14T07:02:42Z</time>
      </trkpt>
      <trkpt lat="41.912255734205246" lon="13.164752488955855">
        <ele>1229.179932</ele>
        <time>2017-06-14T07:02:58Z</time>
      </trkpt>
      <trkpt lat="41.912054065614939" lon="13.164918785914779">
        <ele>1230.619995</ele>
        <time>2017-06-14T07:03:13Z</time>
      </trkpt>
      <trkpt lat="41.911892630159855" lon="13.165018865838647">
        <ele>1231.1099850000001</ele>
        <time>2017-06-14T07:03:30Z</time>
      </trkpt>
      <trkpt lat="41.91181467846036" lon="13.165077287703753">
        <ele>1231.1099850000001</ele>
        <time>2017-06-14T07:03:38Z</time>
      </trkpt>
      <trkpt lat="41.91180638037622" lon="13.165091536939144">
        <ele>1231.1099850000001</ele>
        <time>2017-06-14T07:03:39Z</time>
      </trkpt>
      <trkpt lat="41.911799758672714" lon="13.165105618536472">
        <ele>1231.1099850000001</ele>
        <time>2017-06-14T07:03:40Z</time>
      </trkpt>
      <trkpt lat="41.91179221495986" lon="13.165120622143149">
        <ele>1231.1099850000001</ele>
        <time>2017-06-14T07:03:41Z</time>
      </trkpt>
      <trkpt lat="41.911785928532481" lon="13.165134871378541">
        <ele>1231.1099850000001</ele>
        <time>2017-06-14T07:03:42Z</time>
      </trkpt>
      <trkpt lat="41.911779725924134" lon="13.165148869156837">
        <ele>1231.1099850000001</ele>
        <time>2017-06-14T07:03:43Z</time>
      </trkpt>
      <trkpt lat="41.911768661811948" lon="13.165217097848654">
        <ele>1229.660034</ele>
        <time>2017-06-14T07:03:49Z</time>
      </trkpt>
      <trkpt lat="41.91176681779325" lon="13.165235118940473">
        <ele>1229.660034</ele>
        <time>2017-06-14T07:03:50Z</time>
      </trkpt>
      <trkpt lat="41.911764135584235" lon="13.165333438664675">
        <ele>1229.179932</ele>
        <time>2017-06-14T07:03:55Z</time>
      </trkpt>
      <trkpt lat="41.911761034280062" lon="13.165352297946811">
        <ele>1228.6999510000001</ele>
        <time>2017-06-14T07:03:56Z</time>
      </trkpt>
      <trkpt lat="41.911756340414286" lon="13.165373168885708">
        <ele>1228.6999510000001</ele>
        <time>2017-06-14T07:03:57Z</time>
      </trkpt>
      <trkpt lat="41.911752568557858" lon="13.165391189977527">
        <ele>1228.6999510000001</ele>
        <time>2017-06-14T07:03:58Z</time>
      </trkpt>
      <trkpt lat="41.91174728795886" lon="13.165413569658995">
        <ele>1228.6999510000001</ele>
        <time>2017-06-14T07:03:59Z</time>
      </trkpt>
      <trkpt lat="41.911741336807609" lon="13.165429998189211">
        <ele>1228.6999510000001</ele>
        <time>2017-06-14T07:04:00Z</time>
      </trkpt>
      <trkpt lat="41.91164419054985" lon="13.165568970143795">
        <ele>1228.219971</ele>
        <time>2017-06-14T07:04:12Z</time>
      </trkpt>
      <trkpt lat="41.911623487249017" lon="13.165586991235614">
        <ele>1228.219971</ele>
        <time>2017-06-14T07:04:14Z</time>
      </trkpt>
      <trkpt lat="41.911437241360545" lon="13.165676929056644">
        <ele>1229.660034</ele>
        <time>2017-06-14T07:04:28Z</time>
      </trkpt>
      <trkpt lat="41.911430032923818" lon="13.165680533275008">
        <ele>1229.179932</ele>
        <time>2017-06-14T07:04:29Z</time>
      </trkpt>
      <trkpt lat="41.911286534741521" lon="13.165793437510729">
        <ele>1230.1400149999999</ele>
        <time>2017-06-14T07:04:42Z</time>
      </trkpt>
      <trkpt lat="41.911159884184599" lon="13.165925117209554">
        <ele>1232.0699460000001</ele>
        <time>2017-06-14T07:04:57Z</time>
      </trkpt>
      <trkpt lat="41.91102996468544" lon="13.166028298437595">
        <ele>1232.0699460000001</ele>
        <time>2017-06-14T07:05:09Z</time>
      </trkpt>
      <trkpt lat="41.910929717123508" lon="13.166171628981829">
        <ele>1232.0699460000001</ele>
        <time>2017-06-14T07:05:23Z</time>
      </trkpt>
      <trkpt lat="41.910862158983946" lon="13.166385032236576">
        <ele>1229.660034</ele>
        <time>2017-06-14T07:05:37Z</time>
      </trkpt>
      <trkpt lat="41.910750092938542" lon="13.166563734412193">
        <ele>1229.179932</ele>
        <time>2017-06-14T07:05:51Z</time>
      </trkpt>
      <trkpt lat="41.910662334412336" lon="13.166800858452916">
        <ele>1229.179932</ele>
        <time>2017-06-14T07:06:07Z</time>
      </trkpt>
      <trkpt lat="41.910608941689134" lon="13.167061284184456">
        <ele>1229.179932</ele>
        <time>2017-06-14T07:06:23Z</time>
      </trkpt>
      <trkpt lat="41.910594189539552" lon="13.167280806228518">
        <ele>1230.619995</ele>
        <time>2017-06-14T07:06:38Z</time>
      </trkpt>
      <trkpt lat="41.910600727424026" lon="13.167293127626181">
        <ele>1230.619995</ele>
        <time>2017-06-14T07:06:39Z</time>
      </trkpt>
      <trkpt lat="41.910747997462749" lon="13.167470823973417">
        <ele>1230.619995</ele>
        <time>2017-06-14T07:06:56Z</time>
      </trkpt>
      <trkpt lat="41.910895183682442" lon="13.167674001306295">
        <ele>1230.619995</ele>
        <time>2017-06-14T07:07:12Z</time>
      </trkpt>
      <trkpt lat="41.911030970513821" lon="13.167857313528657">
        <ele>1230.619995</ele>
        <time>2017-06-14T07:07:28Z</time>
      </trkpt>
      <trkpt lat="41.911034239456058" lon="13.168147159740329">
        <ele>1231.589966</ele>
        <time>2017-06-14T07:07:44Z</time>
      </trkpt>
      <trkpt lat="41.910957377403975" lon="13.168336674571037">
        <ele>1232.5500489999999</ele>
        <time>2017-06-14T07:07:58Z</time>
      </trkpt>
      <trkpt lat="41.910864003002644" lon="13.168433737009764">
        <ele>1233.51001</ele>
        <time>2017-06-14T07:08:08Z</time>
      </trkpt>
      <trkpt lat="41.9107695389539" lon="13.16871645860374">
        <ele>1233.98999</ele>
        <time>2017-06-14T07:08:24Z</time>
      </trkpt>
      <trkpt lat="41.91075143404305" lon="13.168980237096548">
        <ele>1234.950073</ele>
        <time>2017-06-14T07:08:40Z</time>
      </trkpt>
      <trkpt lat="41.910748668015003" lon="13.168993564322591">
        <ele>1234.950073</ele>
        <time>2017-06-14T07:08:41Z</time>
      </trkpt>
      <trkpt lat="41.910713715478778" lon="13.169241417199373">
        <ele>1236.3900149999999</ele>
        <time>2017-06-14T07:08:57Z</time>
      </trkpt>
      <trkpt lat="41.910684462636709" lon="13.16937418654561">
        <ele>1236.3900149999999</ele>
        <time>2017-06-14T07:09:04Z</time>
      </trkpt>
      <trkpt lat="41.910564014688134" lon="13.169518103823066">
        <ele>1237.829956</ele>
        <time>2017-06-14T07:09:17Z</time>
      </trkpt>
      <trkpt lat="41.910420767962933" lon="13.169628996402025">
        <ele>1239.2799070000001</ele>
        <time>2017-06-14T07:09:30Z</time>
      </trkpt>
      <trkpt lat="41.910341894254088" lon="13.169779032468796">
        <ele>1240.23999</ele>
        <time>2017-06-14T07:09:43Z</time>
      </trkpt>
      <trkpt lat="41.910337870940566" lon="13.16979730501771">
        <ele>1240.23999</ele>
        <time>2017-06-14T07:09:44Z</time>
      </trkpt>
      <trkpt lat="41.910334099084139" lon="13.169814739376307">
        <ele>1240.23999</ele>
        <time>2017-06-14T07:09:45Z</time>
      </trkpt>
      <trkpt lat="41.910320436581969" lon="13.170049013569951">
        <ele>1241.679932</ele>
        <time>2017-06-14T07:10:00Z</time>
      </trkpt>
      <trkpt lat="41.910367459058762" lon="13.170274905860424">
        <ele>1242.6400149999999</ele>
        <time>2017-06-14T07:10:15Z</time>
      </trkpt>
      <trkpt lat="41.910459492355585" lon="13.170421337708831">
        <ele>1243.599976</ele>
        <time>2017-06-14T07:10:29Z</time>
      </trkpt>
      <trkpt lat="41.91047290340066" lon="13.170444471761584">
        <ele>1243.599976</ele>
        <time>2017-06-14T07:10:31Z</time>
      </trkpt>
      <trkpt lat="41.910480698570609" lon="13.170454362407327">
        <ele>1243.599976</ele>
        <time>2017-06-14T07:10:32Z</time>
      </trkpt>
      <trkpt lat="41.910587232559919" lon="13.170580007135868">
        <ele>1244.079956</ele>
        <time>2017-06-14T07:10:46Z</time>
      </trkpt>
      <trkpt lat="41.910731568932533" lon="13.170763738453388">
        <ele>1244.5600589999999</ele>
        <time>2017-06-14T07:11:00Z</time>
      </trkpt>
      <trkpt lat="41.910835839807987" lon="13.170934980735183">
        <ele>1245.040039</ele>
        <time>2017-06-14T07:11:14Z</time>
      </trkpt>
      <trkpt lat="41.910870708525181" lon="13.171137571334839">
        <ele>1246.01001</ele>
        <time>2017-06-14T07:11:27Z</time>
      </trkpt>
      <trkpt lat="41.910880599170923" lon="13.171248463913798">
        <ele>1246.48999</ele>
        <time>2017-06-14T07:11:34Z</time>
      </trkpt>
      <trkpt lat="41.910930639132857" lon="13.171437978744507">
        <ele>1246.969971</ele>
        <time>2017-06-14T07:11:47Z</time>
      </trkpt>
      <trkpt lat="41.911039100959897" lon="13.171580722555518">
        <ele>1247.450073</ele>
        <time>2017-06-14T07:12:00Z</time>
      </trkpt>
      <trkpt lat="41.911204978823662" lon="13.171790186315775">
        <ele>1246.48999</ele>
        <time>2017-06-14T07:12:20Z</time>
      </trkpt>
      <trkpt lat="41.911357529461384" lon="13.171966541558504">
        <ele>1245.530029</ele>
        <time>2017-06-14T07:12:36Z</time>
      </trkpt>
      <trkpt lat="41.911511337384582" lon="13.172217076644301">
        <ele>1244.5600589999999</ele>
        <time>2017-06-14T07:12:54Z</time>
      </trkpt>
      <trkpt lat="41.911625498905778" lon="13.172364933416247">
        <ele>1244.079956</ele>
        <time>2017-06-14T07:13:07Z</time>
      </trkpt>
      <trkpt lat="41.911705881357193" lon="13.172511113807559">
        <ele>1243.119995</ele>
        <time>2017-06-14T07:13:20Z</time>
      </trkpt>
      <trkpt lat="41.911711916327477" lon="13.172522597014904">
        <ele>1243.119995</ele>
        <time>2017-06-14T07:13:21Z</time>
      </trkpt>
      <trkpt lat="41.911720465868711" lon="13.172537265345454">
        <ele>1243.119995</ele>
        <time>2017-06-14T07:13:22Z</time>
      </trkpt>
      <trkpt lat="41.91172868013382" lon="13.172552604228258">
        <ele>1243.119995</ele>
        <time>2017-06-14T07:13:23Z</time>
      </trkpt>
      <trkpt lat="41.911733960732818" lon="13.172568278387189">
        <ele>1243.119995</ele>
        <time>2017-06-14T07:13:24Z</time>
      </trkpt>
      <trkpt lat="41.91173848696053" lon="13.172583281993866">
        <ele>1243.119995</ele>
        <time>2017-06-14T07:13:25Z</time>
      </trkpt>
      <trkpt lat="41.911796825006604" lon="13.172829961404204">
        <ele>1243.119995</ele>
        <time>2017-06-14T07:13:40Z</time>
      </trkpt>
      <trkpt lat="41.911847703158855" lon="13.172966837882996">
        <ele>1242.6400149999999</ele>
        <time>2017-06-14T07:13:54Z</time>
      </trkpt>
      <trkpt lat="41.911838566884398" lon="13.172987876459956">
        <ele>1242.6400149999999</ele>
        <time>2017-06-14T07:14:20Z</time>
      </trkpt>
      <trkpt lat="41.911877458915114" lon="13.173102037981153">
        <ele>1242.6400149999999</ele>
        <time>2017-06-14T07:14:37Z</time>
      </trkpt>
      <trkpt lat="41.911987429484725" lon="13.173316698521376">
        <ele>1242.6400149999999</ele>
        <time>2017-06-14T07:14:51Z</time>
      </trkpt>
      <trkpt lat="41.911997403949499" lon="13.17333010956645">
        <ele>1242.6400149999999</ele>
        <time>2017-06-14T07:14:52Z</time>
      </trkpt>
      <trkpt lat="41.912007294595242" lon="13.173345364630222">
        <ele>1242.6400149999999</ele>
        <time>2017-06-14T07:14:53Z</time>
      </trkpt>
      <trkpt lat="41.912016933783889" lon="13.173358691856265">
        <ele>1242.6400149999999</ele>
        <time>2017-06-14T07:14:54Z</time>
      </trkpt>
      <trkpt lat="41.91202531568706" lon="13.173370091244578">
        <ele>1242.6400149999999</ele>
        <time>2017-06-14T07:14:55Z</time>
      </trkpt>
      <trkpt lat="41.912034703418612" lon="13.173380987718701">
        <ele>1242.6400149999999</ele>
        <time>2017-06-14T07:14:56Z</time>
      </trkpt>
      <trkpt lat="41.912044426426291" lon="13.173391968011856">
        <ele>1242.6400149999999</ele>
        <time>2017-06-14T07:14:57Z</time>
      </trkpt>
      <trkpt lat="41.912054233253002" lon="13.173403535038233">
        <ele>1242.6400149999999</ele>
        <time>2017-06-14T07:14:58Z</time>
      </trkpt>
      <trkpt lat="41.912177531048656" lon="13.173600258305669">
        <ele>1242.160034</ele>
        <time>2017-06-14T07:15:14Z</time>
      </trkpt>
      <trkpt lat="41.912202760577202" lon="13.173636384308338">
        <ele>1241.679932</ele>
        <time>2017-06-14T07:15:30Z</time>
      </trkpt>
      <trkpt lat="41.912226984277368" lon="13.173698829486966">
        <ele>1241.679932</ele>
        <time>2017-06-14T07:15:42Z</time>
      </trkpt>
      <trkpt lat="41.912234025076032" lon="13.173710061237216">
        <ele>1241.679932</ele>
        <time>2017-06-14T07:15:43Z</time>
      </trkpt>
      <trkpt lat="41.912281969562173" lon="13.173776026815176">
        <ele>1240.719971</ele>
        <time>2017-06-14T07:15:59Z</time>
      </trkpt>
      <trkpt lat="41.912328992038965" lon="13.173769740387797">
        <ele>1241.1999510000001</ele>
        <time>2017-06-14T07:16:18Z</time>
      </trkpt>
      <trkpt lat="41.912327818572521" lon="13.173773176968098">
        <ele>1241.1999510000001</ele>
        <time>2017-06-14T07:16:40Z</time>
      </trkpt>
      <trkpt lat="41.912322286516428" lon="13.173811230808496">
        <ele>1241.1999510000001</ele>
        <time>2017-06-14T07:17:07Z</time>
      </trkpt>
      <trkpt lat="41.91227694042027" lon="13.1737454328686">
        <ele>1240.719971</ele>
        <time>2017-06-14T07:17:23Z</time>
      </trkpt>
      <trkpt lat="41.912264870479703" lon="13.173718694597483">
        <ele>1240.719971</ele>
        <time>2017-06-14T07:17:27Z</time>
      </trkpt>
      <trkpt lat="41.912235366180539" lon="13.173704026266932">
        <ele>1240.719971</ele>
        <time>2017-06-14T07:17:42Z</time>
      </trkpt>
      <trkpt lat="41.912208460271358" lon="13.173731938004494">
        <ele>1240.719971</ele>
        <time>2017-06-14T07:18:09Z</time>
      </trkpt>
      <trkpt lat="41.912243999540806" lon="13.173729507252574">
        <ele>1240.719971</ele>
        <time>2017-06-14T07:18:41Z</time>
      </trkpt>
      <trkpt lat="41.912228912115097" lon="13.173747695982456">
        <ele>1240.719971</ele>
        <time>2017-06-14T07:19:16Z</time>
      </trkpt>
      <trkpt lat="41.912243664264679" lon="13.173756916075945">
        <ele>1240.719971</ele>
        <time>2017-06-14T07:19:17Z</time>
      </trkpt>
      <trkpt lat="41.912257326766849" lon="13.17377183586359">
        <ele>1240.719971</ele>
        <time>2017-06-14T07:19:18Z</time>
      </trkpt>
      <trkpt lat="41.912267971783876" lon="13.173787174746394">
        <ele>1240.719971</ele>
        <time>2017-06-14T07:19:19Z</time>
      </trkpt>
      <trkpt lat="41.91227350383997" lon="13.173801340162754">
        <ele>1240.719971</ele>
        <time>2017-06-14T07:19:20Z</time>
      </trkpt>
      <trkpt lat="41.912280460819602" lon="13.17382070235908">
        <ele>1240.719971</ele>
        <time>2017-06-14T07:19:21Z</time>
      </trkpt>
      <trkpt lat="41.912285825237632" lon="13.173836711794138">
        <ele>1240.719971</ele>
        <time>2017-06-14T07:19:22Z</time>
      </trkpt>
      <trkpt lat="41.912261601537466" lon="13.173916339874268">
        <ele>1240.719971</ele>
        <time>2017-06-14T07:19:31Z</time>
      </trkpt>
      <trkpt lat="41.91225053742528" lon="13.173921201378107">
        <ele>1240.719971</ele>
        <time>2017-06-14T07:19:32Z</time>
      </trkpt>
      <trkpt lat="41.912241820245981" lon="13.173927990719676">
        <ele>1240.719971</ele>
        <time>2017-06-14T07:19:33Z</time>
      </trkpt>
      <trkpt lat="41.912226565182209" lon="13.173936037346721">
        <ele>1240.719971</ele>
        <time>2017-06-14T07:19:35Z</time>
      </trkpt>
      <trkpt lat="41.912213992327452" lon="13.17393989302218">
        <ele>1240.719971</ele>
        <time>2017-06-14T07:19:36Z</time>
      </trkpt>
      <trkpt lat="41.912160934880376" lon="13.173937629908323">
        <ele>1240.719971</ele>
        <time>2017-06-14T07:19:43Z</time>
      </trkpt>
      <trkpt lat="41.912144925445318" lon="13.173947017639875">
        <ele>1240.719971</ele>
        <time>2017-06-14T07:19:44Z</time>
      </trkpt>
      <trkpt lat="41.912127071991563" lon="13.173955315724015">
        <ele>1240.719971</ele>
        <time>2017-06-14T07:19:45Z</time>
      </trkpt>
      <trkpt lat="41.912007378414273" lon="13.173962440341711">
        <ele>1242.160034</ele>
        <time>2017-06-14T07:19:56Z</time>
      </trkpt>
      <trkpt lat="41.911992961540818" lon="13.173962440341711">
        <ele>1242.160034</ele>
        <time>2017-06-14T07:19:57Z</time>
      </trkpt>
      <trkpt lat="41.911978796124458" lon="13.173963110893965">
        <ele>1242.160034</ele>
        <time>2017-06-14T07:19:58Z</time>
      </trkpt>
      <trkpt lat="41.911963541060686" lon="13.173965541645885">
        <ele>1242.160034</ele>
        <time>2017-06-14T07:19:59Z</time>
      </trkpt>
      <trkpt lat="41.911946190521121" lon="13.173968978226185">
        <ele>1242.160034</ele>
        <time>2017-06-14T07:20:00Z</time>
      </trkpt>
      <trkpt lat="41.911934120580554" lon="13.173972079530358">
        <ele>1242.160034</ele>
        <time>2017-06-14T07:20:01Z</time>
      </trkpt>
      <trkpt lat="41.911776959896088" lon="13.173972833901644">
        <ele>1242.6400149999999</ele>
        <time>2017-06-14T07:20:15Z</time>
      </trkpt>
      <trkpt lat="41.911543607711792" lon="13.17391156218946">
        <ele>1244.079956</ele>
        <time>2017-06-14T07:20:32Z</time>
      </trkpt>
      <trkpt lat="41.911373035982251" lon="13.17385389469564">
        <ele>1244.5600589999999</ele>
        <time>2017-06-14T07:20:46Z</time>
      </trkpt>
      <trkpt lat="41.911318134516478" lon="13.173838220536709">
        <ele>1244.5600589999999</ele>
        <time>2017-06-14T07:20:49Z</time>
      </trkpt>
      <trkpt lat="41.911300867795944" lon="13.173835705965757">
        <ele>1244.5600589999999</ele>
        <time>2017-06-14T07:20:50Z</time>
      </trkpt>
      <trkpt lat="41.911145634949207" lon="13.173786336556077">
        <ele>1245.530029</ele>
        <time>2017-06-14T07:21:04Z</time>
      </trkpt>
      <trkpt lat="41.911083608865738" lon="13.173750881105661">
        <ele>1245.530029</ele>
        <time>2017-06-14T07:21:09Z</time>
      </trkpt>
      <trkpt lat="41.910919658839703" lon="13.17366236820817">
        <ele>1246.01001</ele>
        <time>2017-06-14T07:21:22Z</time>
      </trkpt>
      <trkpt lat="41.91090683452785" lon="13.173660272732377">
        <ele>1246.01001</ele>
        <time>2017-06-14T07:21:23Z</time>
      </trkpt>
      <trkpt lat="41.910807928070426" lon="13.173631271347404">
        <ele>1246.48999</ele>
        <time>2017-06-14T07:21:35Z</time>
      </trkpt>
      <trkpt lat="41.910642301663756" lon="13.173658596351743">
        <ele>1246.969971</ele>
        <time>2017-06-14T07:21:51Z</time>
      </trkpt>
      <trkpt lat="41.910538701340556" lon="13.173693129792809">
        <ele>1247.450073</ele>
        <time>2017-06-14T07:22:04Z</time>
      </trkpt>
      <trkpt lat="41.910432586446404" lon="13.173763621598482">
        <ele>1247.9300539999999</ele>
        <time>2017-06-14T07:22:17Z</time>
      </trkpt>
      <trkpt lat="41.910424958914518" lon="13.173772338777781">
        <ele>1247.9300539999999</ele>
        <time>2017-06-14T07:22:18Z</time>
      </trkpt>
      <trkpt lat="41.910414062440395" lon="13.173781558871269">
        <ele>1247.9300539999999</ele>
        <time>2017-06-14T07:22:19Z</time>
      </trkpt>
      <trkpt lat="41.910335859283805" lon="13.173830760642886">
        <ele>1248.410034</ele>
        <time>2017-06-14T07:22:29Z</time>
      </trkpt>
      <trkpt lat="41.910275761038065" lon="13.173889182507992">
        <ele>1248.8900149999999</ele>
        <time>2017-06-14T07:22:38Z</time>
      </trkpt>
      <trkpt lat="41.910263272002339" lon="13.173911394551396">
        <ele>1248.8900149999999</ele>
        <time>2017-06-14T07:22:40Z</time>
      </trkpt>
      <trkpt lat="41.910246340557933" lon="13.173924973234534">
        <ele>1248.8900149999999</ele>
        <time>2017-06-14T07:22:41Z</time>
      </trkpt>
      <trkpt lat="41.910233683884144" lon="13.173940815031528">
        <ele>1247.9300539999999</ele>
        <time>2017-06-14T07:22:42Z</time>
      </trkpt>
      <trkpt lat="41.910192361101508" lon="13.173995213583112">
        <ele>1250.8100589999999</ele>
        <time>2017-06-14T07:22:48Z</time>
      </trkpt>
      <trkpt lat="41.910073086619377" lon="13.174094539135695">
        <ele>1249.369995</ele>
        <time>2017-06-14T07:23:03Z</time>
      </trkpt>
      <trkpt lat="41.909900838509202" lon="13.174196379259229">
        <ele>1249.369995</ele>
        <time>2017-06-14T07:23:19Z</time>
      </trkpt>
      <trkpt lat="41.909727165475488" lon="13.174274330958724">
        <ele>1249.369995</ele>
        <time>2017-06-14T07:23:33Z</time>
      </trkpt>
      <trkpt lat="41.909637562930584" lon="13.174320431426167">
        <ele>1250.8100589999999</ele>
        <time>2017-06-14T07:23:40Z</time>
      </trkpt>
      <trkpt lat="41.909471265971661" lon="13.174375919625163">
        <ele>1251.290039</ele>
        <time>2017-06-14T07:23:54Z</time>
      </trkpt>
      <trkpt lat="41.909293234348297" lon="13.174368208274245">
        <ele>1251.290039</ele>
        <time>2017-06-14T07:24:08Z</time>
      </trkpt>
      <trkpt lat="41.909188963472843" lon="13.174391593784094">
        <ele>1249.849976</ele>
        <time>2017-06-14T07:24:19Z</time>
      </trkpt>
      <trkpt lat="41.908957539126277" lon="13.174458565190434">
        <ele>1248.8900149999999</ele>
        <time>2017-06-14T07:24:35Z</time>
      </trkpt>
      <trkpt lat="41.908766599372029" lon="13.174550598487258">
        <ele>1247.450073</ele>
        <time>2017-06-14T07:24:53Z</time>
      </trkpt>
      <trkpt lat="41.908625364303589" lon="13.174708262085915">
        <ele>1246.01001</ele>
        <time>2017-06-14T07:25:06Z</time>
      </trkpt>
      <trkpt lat="41.908621760085225" lon="13.174724103882909">
        <ele>1246.01001</ele>
        <time>2017-06-14T07:25:07Z</time>
      </trkpt>
      <trkpt lat="41.908616311848164" lon="13.174741035327315">
        <ele>1246.01001</ele>
        <time>2017-06-14T07:25:08Z</time>
      </trkpt>
      <trkpt lat="41.908614635467529" lon="13.174758218228817">
        <ele>1245.530029</ele>
        <time>2017-06-14T07:25:09Z</time>
      </trkpt>
      <trkpt lat="41.908616563305259" lon="13.17477791570127">
        <ele>1245.530029</ele>
        <time>2017-06-14T07:25:10Z</time>
      </trkpt>
      <trkpt lat="41.908620167523623" lon="13.174796272069216">
        <ele>1245.530029</ele>
        <time>2017-06-14T07:25:11Z</time>
      </trkpt>
      <trkpt lat="41.908696359023452" lon="13.175039263442159">
        <ele>1244.079956</ele>
        <time>2017-06-14T07:25:26Z</time>
      </trkpt>
      <trkpt lat="41.908721001818776" lon="13.175244703888893">
        <ele>1242.160034</ele>
        <time>2017-06-14T07:25:42Z</time>
      </trkpt>
      <trkpt lat="41.908576497808099" lon="13.1754688359797">
        <ele>1241.679932</ele>
        <time>2017-06-14T07:26:01Z</time>
      </trkpt>
      <trkpt lat="41.908513214439154" lon="13.175485096871853">
        <ele>1242.160034</ele>
        <time>2017-06-14T07:26:06Z</time>
      </trkpt>
      <trkpt lat="41.90849787555635" lon="13.175483588129282">
        <ele>1242.160034</ele>
        <time>2017-06-14T07:26:07Z</time>
      </trkpt>
      <trkpt lat="41.908461665734649" lon="13.175481408834457">
        <ele>1243.119995</ele>
        <time>2017-06-14T07:26:09Z</time>
      </trkpt>
      <trkpt lat="41.908190594986081" lon="13.175500435754657">
        <ele>1244.079956</ele>
        <time>2017-06-14T07:26:25Z</time>
      </trkpt>
      <trkpt lat="41.908030668273568" lon="13.175530359148979">
        <ele>1244.5600589999999</ele>
        <time>2017-06-14T07:26:38Z</time>
      </trkpt>
      <trkpt lat="41.907814834266901" lon="13.175572771579027">
        <ele>1245.530029</ele>
        <time>2017-06-14T07:26:52Z</time>
      </trkpt>
      <trkpt lat="41.90766722895205" lon="13.175623482093215">
        <ele>1246.48999</ele>
        <time>2017-06-14T07:27:07Z</time>
      </trkpt>
      <trkpt lat="41.907423064112663" lon="13.17572926171124">
        <ele>1246.969971</ele>
        <time>2017-06-14T07:27:24Z</time>
      </trkpt>
      <trkpt lat="41.907224161550403" lon="13.175778798758984">
        <ele>1247.450073</ele>
        <time>2017-06-14T07:27:41Z</time>
      </trkpt>
      <trkpt lat="41.906985696405172" lon="13.175672432407737">
        <ele>1247.9300539999999</ele>
        <time>2017-06-14T07:27:56Z</time>
      </trkpt>
      <trkpt lat="41.906815208494663" lon="13.175499094650149">
        <ele>1247.9300539999999</ele>
        <time>2017-06-14T07:28:13Z</time>
      </trkpt>
      <trkpt lat="41.906785620376468" lon="13.175478726625443">
        <ele>1246.48999</ele>
        <time>2017-06-14T07:28:16Z</time>
      </trkpt>
      <trkpt lat="41.906558889895678" lon="13.175446540117264">
        <ele>1246.01001</ele>
        <time>2017-06-14T07:28:33Z</time>
      </trkpt>
      <trkpt lat="41.906416481360793" lon="13.175613507628441">
        <ele>1245.040039</ele>
        <time>2017-06-14T07:28:49Z</time>
      </trkpt>
      <trkpt lat="41.906353365629911" lon="13.175903437659144">
        <ele>1243.599976</ele>
        <time>2017-06-14T07:29:08Z</time>
      </trkpt>
      <trkpt lat="41.906285136938095" lon="13.176187416538596">
        <ele>1242.160034</ele>
        <time>2017-06-14T07:29:27Z</time>
      </trkpt>
      <trkpt lat="41.906233672052622" lon="13.176249274984002">
        <ele>1241.679932</ele>
        <time>2017-06-14T07:29:32Z</time>
      </trkpt>
      <trkpt lat="41.905944664031267" lon="13.176377937197685">
        <ele>1240.23999</ele>
        <time>2017-06-14T07:29:51Z</time>
      </trkpt>
      <trkpt lat="41.905828826129436" lon="13.176524536684155">
        <ele>1238.8000489999999</ele>
        <time>2017-06-14T07:30:04Z</time>
      </trkpt>
      <trkpt lat="41.905826730653644" lon="13.176542809233069">
        <ele>1238.8000489999999</ele>
        <time>2017-06-14T07:30:05Z</time>
      </trkpt>
      <trkpt lat="41.905824467539787" lon="13.176562925800681">
        <ele>1238.8000489999999</ele>
        <time>2017-06-14T07:30:06Z</time>
      </trkpt>
      <trkpt lat="41.905816169455647" lon="13.17690490745008">
        <ele>1236.869995</ele>
        <time>2017-06-14T07:30:24Z</time>
      </trkpt>
      <trkpt lat="41.905815415084362" lon="13.1769366748631">
        <ele>1236.869995</ele>
        <time>2017-06-14T07:30:26Z</time>
      </trkpt>
      <trkpt lat="41.905815079808235" lon="13.176956120878458">
        <ele>1236.869995</ele>
        <time>2017-06-14T07:30:27Z</time>
      </trkpt>
      <trkpt lat="41.905816504731774" lon="13.176972381770611">
        <ele>1236.869995</ele>
        <time>2017-06-14T07:30:28Z</time>
      </trkpt>
      <trkpt lat="41.90581968985498" lon="13.176988139748573">
        <ele>1236.869995</ele>
        <time>2017-06-14T07:30:29Z</time>
      </trkpt>
      <trkpt lat="41.90582262352109" lon="13.177005909383297">
        <ele>1236.869995</ele>
        <time>2017-06-14T07:30:30Z</time>
      </trkpt>
      <trkpt lat="41.905824216082692" lon="13.177019907161593">
        <ele>1236.869995</ele>
        <time>2017-06-14T07:30:31Z</time>
      </trkpt>
      <trkpt lat="41.905827736482024" lon="13.177035665139556">
        <ele>1236.869995</ele>
        <time>2017-06-14T07:30:32Z</time>
      </trkpt>
      <trkpt lat="41.905832011252642" lon="13.177049662917852">
        <ele>1236.869995</ele>
        <time>2017-06-14T07:30:33Z</time>
      </trkpt>
      <trkpt lat="41.905858581885695" lon="13.177106073126197">
        <ele>1237.349976</ele>
        <time>2017-06-14T07:30:47Z</time>
      </trkpt>
      <trkpt lat="41.905905604362488" lon="13.177236663177609">
        <ele>1235.910034</ele>
        <time>2017-06-14T07:31:04Z</time>
      </trkpt>
      <trkpt lat="41.905997218564153" lon="13.177514774724841">
        <ele>1234.950073</ele>
        <time>2017-06-14T07:31:20Z</time>
      </trkpt>
      <trkpt lat="41.90607818774879" lon="13.177767237648368">
        <ele>1233.030029</ele>
        <time>2017-06-14T07:31:36Z</time>
      </trkpt>
      <trkpt lat="41.906146835535765" lon="13.177912160754204">
        <ele>1231.589966</ele>
        <time>2017-06-14T07:31:49Z</time>
      </trkpt>
      <trkpt lat="41.906153708696365" lon="13.177924314513803">
        <ele>1231.589966</ele>
        <time>2017-06-14T07:31:50Z</time>
      </trkpt>
      <trkpt lat="41.9061588216573" lon="13.177938228473067">
        <ele>1231.589966</ele>
        <time>2017-06-14T07:31:51Z</time>
      </trkpt>
      <trkpt lat="41.906163264065981" lon="13.177954237908125">
        <ele>1231.1099850000001</ele>
        <time>2017-06-14T07:31:52Z</time>
      </trkpt>
      <trkpt lat="41.906169466674328" lon="13.177971001714468">
        <ele>1231.1099850000001</ele>
        <time>2017-06-14T07:31:53Z</time>
      </trkpt>
      <trkpt lat="41.906177513301373" lon="13.177987178787589">
        <ele>1231.1099850000001</ele>
        <time>2017-06-14T07:31:54Z</time>
      </trkpt>
      <trkpt lat="41.906185476109385" lon="13.178004277870059">
        <ele>1231.1099850000001</ele>
        <time>2017-06-14T07:31:55Z</time>
      </trkpt>
      <trkpt lat="41.906191762536764" lon="13.178021376952529">
        <ele>1231.1099850000001</ele>
        <time>2017-06-14T07:31:56Z</time>
      </trkpt>
      <trkpt lat="41.906198300421238" lon="13.178037973120809">
        <ele>1230.619995</ele>
        <time>2017-06-14T07:31:57Z</time>
      </trkpt>
      <trkpt lat="41.906205005943775" lon="13.178057335317135">
        <ele>1230.619995</ele>
        <time>2017-06-14T07:31:58Z</time>
      </trkpt>
      <trkpt lat="41.906211711466312" lon="13.178074434399605">
        <ele>1230.619995</ele>
        <time>2017-06-14T07:31:59Z</time>
      </trkpt>
      <trkpt lat="41.906219171360135" lon="13.17809228785336">
        <ele>1230.619995</ele>
        <time>2017-06-14T07:32:00Z</time>
      </trkpt>
      <trkpt lat="41.906225876882672" lon="13.178110811859369">
        <ele>1230.619995</ele>
        <time>2017-06-14T07:32:01Z</time>
      </trkpt>
      <trkpt lat="41.906355293467641" lon="13.178357407450676">
        <ele>1229.179932</ele>
        <time>2017-06-14T07:32:16Z</time>
      </trkpt>
      <trkpt lat="41.906456630676985" lon="13.178555723279715">
        <ele>1227.26001</ele>
        <time>2017-06-14T07:32:30Z</time>
      </trkpt>
      <trkpt lat="41.906529469415545" lon="13.178694527596235">
        <ele>1226.3000489999999</ele>
        <time>2017-06-14T07:32:40Z</time>
      </trkpt>
      <trkpt lat="41.906537180766463" lon="13.17870793864131">
        <ele>1226.3000489999999</ele>
        <time>2017-06-14T07:32:41Z</time>
      </trkpt>
      <trkpt lat="41.906607924029231" lon="13.178896699100733">
        <ele>1224.8599850000001</ele>
        <time>2017-06-14T07:32:52Z</time>
      </trkpt>
      <trkpt lat="41.906597698107362" lon="13.178956629708409">
        <ele>1224.8599850000001</ele>
        <time>2017-06-14T07:32:55Z</time>
      </trkpt>
      <trkpt lat="41.906586969271302" lon="13.178970711305737">
        <ele>1224.8599850000001</ele>
        <time>2017-06-14T07:32:56Z</time>
      </trkpt>
      <trkpt lat="41.906585460528731" lon="13.179020918905735">
        <ele>1224.380005</ele>
        <time>2017-06-14T07:33:10Z</time>
      </trkpt>
      <trkpt lat="41.906587472185493" lon="13.179046232253313">
        <ele>1224.380005</ele>
        <time>2017-06-14T07:33:44Z</time>
      </trkpt>
      <trkpt lat="41.906588394194841" lon="13.179055787622929">
        <ele>1223.900024</ele>
        <time>2017-06-14T07:34:10Z</time>
      </trkpt>
      <trkpt lat="41.906549837440252" lon="13.179091326892376">
        <ele>1223.900024</ele>
        <time>2017-06-14T07:34:24Z</time>
      </trkpt>
      <trkpt lat="41.906343391165137" lon="13.179012034088373">
        <ele>1224.380005</ele>
        <time>2017-06-14T07:34:40Z</time>
      </trkpt>
      <trkpt lat="41.906324112787843" lon="13.179008010774851">
        <ele>1224.380005</ele>
        <time>2017-06-14T07:34:41Z</time>
      </trkpt>
      <trkpt lat="41.906153960153461" lon="13.178990073502064">
        <ele>1224.8599850000001</ele>
        <time>2017-06-14T07:34:53Z</time>
      </trkpt>
      <trkpt lat="41.90590426325798" lon="13.1790123693645">
        <ele>1225.339966</ele>
        <time>2017-06-14T07:35:12Z</time>
      </trkpt>
      <trkpt lat="41.905638473108411" lon="13.179005496203899">
        <ele>1226.3000489999999</ele>
        <time>2017-06-14T07:35:30Z</time>
      </trkpt>
      <trkpt lat="41.905395397916436" lon="13.178924862295389">
        <ele>1226.3000489999999</ele>
        <time>2017-06-14T07:35:47Z</time>
      </trkpt>
      <trkpt lat="41.905194064602256" lon="13.178936680778861">
        <ele>1226.7799070000001</ele>
        <time>2017-06-14T07:36:04Z</time>
      </trkpt>
      <trkpt lat="41.904920898377895" lon="13.178927209228277">
        <ele>1224.8599850000001</ele>
        <time>2017-06-14T07:36:22Z</time>
      </trkpt>
      <trkpt lat="41.90471587702632" lon="13.178785890340805">
        <ele>1223.420044</ele>
        <time>2017-06-14T07:36:35Z</time>
      </trkpt>
      <trkpt lat="41.904516639187932" lon="13.178546670824289">
        <ele>1221.01001</ele>
        <time>2017-06-14T07:36:51Z</time>
      </trkpt>
      <trkpt lat="41.904340703040361" lon="13.178414069116116">
        <ele>1220.0500489999999</ele>
        <time>2017-06-14T07:37:05Z</time>
      </trkpt>
      <trkpt lat="41.904195863753557" lon="13.178420187905431">
        <ele>1219.089966</ele>
        <time>2017-06-14T07:37:20Z</time>
      </trkpt>
      <trkpt lat="41.904205083847046" lon="13.178432509303093">
        <ele>1219.089966</ele>
        <time>2017-06-14T07:37:35Z</time>
      </trkpt>
      <trkpt lat="41.904198629781604" lon="13.178448602557182">
        <ele>1219.089966</ele>
        <time>2017-06-14T07:37:36Z</time>
      </trkpt>
      <trkpt lat="41.904190583154559" lon="13.178465785458684">
        <ele>1219.089966</ele>
        <time>2017-06-14T07:37:37Z</time>
      </trkpt>
      <trkpt lat="41.904182536527514" lon="13.178483471274376">
        <ele>1219.089966</ele>
        <time>2017-06-14T07:37:38Z</time>
      </trkpt>
      <trkpt lat="41.904176501557231" lon="13.178497888147831">
        <ele>1219.089966</ele>
        <time>2017-06-14T07:37:39Z</time>
      </trkpt>
      <trkpt lat="41.904091089963913" lon="13.178795361891389">
        <ele>1216.690063</ele>
        <time>2017-06-14T07:38:00Z</time>
      </trkpt>
      <trkpt lat="41.903897635638714" lon="13.178970376029611">
        <ele>1215.719971</ele>
        <time>2017-06-14T07:38:17Z</time>
      </trkpt>
      <trkpt lat="41.90370200201869" lon="13.179091494530439">
        <ele>1214.76001</ele>
        <time>2017-06-14T07:38:31Z</time>
      </trkpt>
      <trkpt lat="41.903690434992313" lon="13.179107336327434">
        <ele>1214.76001</ele>
        <time>2017-06-14T07:38:32Z</time>
      </trkpt>
      <trkpt lat="41.903516259044409" lon="13.179361391812563">
        <ele>1213.8000489999999</ele>
        <time>2017-06-14T07:38:49Z</time>
      </trkpt>
      <trkpt lat="41.903423136100173" lon="13.179642269387841">
        <ele>1212.839966</ele>
        <time>2017-06-14T07:39:03Z</time>
      </trkpt>
      <trkpt lat="41.903447862714529" lon="13.179936893284321">
        <ele>1211.400024</ele>
        <time>2017-06-14T07:39:19Z</time>
      </trkpt>
      <trkpt lat="41.903514917939901" lon="13.180184327065945">
        <ele>1209.4799800000001</ele>
        <time>2017-06-14T07:39:36Z</time>
      </trkpt>
      <trkpt lat="41.903505194932222" lon="13.18026278167963">
        <ele>1208.51001</ele>
        <time>2017-06-14T07:39:41Z</time>
      </trkpt>
      <trkpt lat="41.903382400050759" lon="13.180559333413839">
        <ele>1207.0699460000001</ele>
        <time>2017-06-14T07:39:55Z</time>
      </trkpt>
      <trkpt lat="41.903343088924885" lon="13.180808359757066">
        <ele>1206.1099850000001</ele>
        <time>2017-06-14T07:40:07Z</time>
      </trkpt>
      <trkpt lat="41.903413832187653" lon="13.181094517931342">
        <ele>1205.150024</ele>
        <time>2017-06-14T07:40:22Z</time>
      </trkpt>
      <trkpt lat="41.903496058657765" lon="13.181365169584751">
        <ele>1205.150024</ele>
        <time>2017-06-14T07:40:39Z</time>
      </trkpt>
      <trkpt lat="41.903501590713859" lon="13.181435661390424">
        <ele>1205.150024</ele>
        <time>2017-06-14T07:40:44Z</time>
      </trkpt>
      <trkpt lat="41.903404109179974" lon="13.181530460715294">
        <ele>1206.1099850000001</ele>
        <time>2017-06-14T07:40:55Z</time>
      </trkpt>
      <trkpt lat="41.903263796120882" lon="13.181550661101937">
        <ele>1206.589966</ele>
        <time>2017-06-14T07:41:06Z</time>
      </trkpt>
      <trkpt lat="41.903247535228729" lon="13.18155032582581">
        <ele>1206.589966</ele>
        <time>2017-06-14T07:41:07Z</time>
      </trkpt>
      <trkpt lat="41.903172601014376" lon="13.18155569024384">
        <ele>1206.589966</ele>
        <time>2017-06-14T07:41:20Z</time>
      </trkpt>
      <trkpt lat="41.903178300708532" lon="13.181545380502939">
        <ele>1206.589966</ele>
        <time>2017-06-14T07:41:44Z</time>
      </trkpt>
      <trkpt lat="41.903151227161288" lon="13.181536579504609">
        <ele>1206.589966</ele>
        <time>2017-06-14T07:42:04Z</time>
      </trkpt>
      <trkpt lat="41.903136726468801" lon="13.181561473757029">
        <ele>1206.589966</ele>
        <time>2017-06-14T07:42:29Z</time>
      </trkpt>
      <trkpt lat="41.903137564659119" lon="13.181572370231152">
        <ele>1207.0699460000001</ele>
        <time>2017-06-14T07:42:47Z</time>
      </trkpt>
      <trkpt lat="41.903147958219051" lon="13.181564658880234">
        <ele>1207.0699460000001</ele>
        <time>2017-06-14T07:42:48Z</time>
      </trkpt>
      <trkpt lat="41.903150221332908" lon="13.181526269763708">
        <ele>1205.150024</ele>
        <time>2017-06-14T07:42:56Z</time>
      </trkpt>
      <trkpt lat="41.903135385364294" lon="13.181524761021137">
        <ele>1205.150024</ele>
        <time>2017-06-14T07:42:57Z</time>
      </trkpt>
      <trkpt lat="41.903075706213713" lon="13.181495675817132">
        <ele>1203.2299800000001</ele>
        <time>2017-06-14T07:43:04Z</time>
      </trkpt>
      <trkpt lat="41.903015691787004" lon="13.181424681097269">
        <ele>1202.2700199999999</ele>
        <time>2017-06-14T07:43:11Z</time>
      </trkpt>
      <trkpt lat="41.902991719543934" lon="13.181410264223814">
        <ele>1201.790039</ele>
        <time>2017-06-14T07:43:14Z</time>
      </trkpt>
      <trkpt lat="41.902940673753619" lon="13.181389393284917">
        <ele>1199.8599850000001</ele>
        <time>2017-06-14T07:43:18Z</time>
      </trkpt>
      <trkpt lat="41.902807485312223" lon="13.181325774639845">
        <ele>1197.9399410000001</ele>
        <time>2017-06-14T07:43:29Z</time>
      </trkpt>
      <trkpt lat="41.90273841843009" lon="13.181304233148694">
        <ele>1196.9799800000001</ele>
        <time>2017-06-14T07:43:35Z</time>
      </trkpt>
      <trkpt lat="41.902685193344951" lon="13.181290235370398">
        <ele>1196.0200199999999</ele>
        <time>2017-06-14T07:43:39Z</time>
      </trkpt>
      <trkpt lat="41.902601206675172" lon="13.181207338348031">
        <ele>1194.580078</ele>
        <time>2017-06-14T07:43:47Z</time>
      </trkpt>
      <trkpt lat="41.902595339342952" lon="13.181051770225167">
        <ele>1191.209961</ele>
        <time>2017-06-14T07:43:58Z</time>
      </trkpt>
      <trkpt lat="41.902521830052137" lon="13.180867619812489">
        <ele>1188.329956</ele>
        <time>2017-06-14T07:44:11Z</time>
      </trkpt>
      <trkpt lat="41.902464497834444" lon="13.180744741111994">
        <ele>1185.920044</ele>
        <time>2017-06-14T07:44:24Z</time>
      </trkpt>
      <trkpt lat="41.902400711551309" lon="13.180616414174438">
        <ele>1184</ele>
        <time>2017-06-14T07:44:32Z</time>
      </trkpt>
      <trkpt lat="41.90237145870924" lon="13.180517759174109">
        <ele>1182.5600589999999</ele>
        <time>2017-06-14T07:44:38Z</time>
      </trkpt>
      <trkpt lat="41.902307840064168" lon="13.180338134989142">
        <ele>1179.190063</ele>
        <time>2017-06-14T07:44:52Z</time>
      </trkpt>
      <trkpt lat="41.902255201712251" lon="13.180250963196158">
        <ele>1177.2700199999999</ele>
        <time>2017-06-14T07:44:58Z</time>
      </trkpt>
      <trkpt lat="41.902160570025444" lon="13.180185500532389">
        <ele>1173.9099120000001</ele>
        <time>2017-06-14T07:45:10Z</time>
      </trkpt>
      <trkpt lat="41.902157468721271" lon="13.180174604058266">
        <ele>1173.9099120000001</ele>
        <time>2017-06-14T07:45:11Z</time>
      </trkpt>
      <trkpt lat="41.902121594175696" lon="13.180120876058936">
        <ele>1172.950073</ele>
        <time>2017-06-14T07:45:15Z</time>
      </trkpt>
      <trkpt lat="41.901955464854836" lon="13.179934965446591">
        <ele>1171.5</ele>
        <time>2017-06-14T07:45:30Z</time>
      </trkpt>
      <trkpt lat="41.901939120143652" lon="13.179910238832235">
        <ele>1171.0200199999999</ele>
        <time>2017-06-14T07:45:33Z</time>
      </trkpt>
      <trkpt lat="41.901822360232472" lon="13.179801441729069">
        <ele>1169.099976</ele>
        <time>2017-06-14T07:45:46Z</time>
      </trkpt>
      <trkpt lat="41.90174943767488" lon="13.179648723453283">
        <ele>1166.6999510000001</ele>
        <time>2017-06-14T07:45:59Z</time>
      </trkpt>
      <trkpt lat="41.901739966124296" lon="13.179616369307041">
        <ele>1166.6999510000001</ele>
        <time>2017-06-14T07:46:01Z</time>
      </trkpt>
      <trkpt lat="41.901654805988073" lon="13.179457699880004">
        <ele>1164.290039</ele>
        <time>2017-06-14T07:46:14Z</time>
      </trkpt>
      <trkpt lat="41.90161113627255" lon="13.179369941353798">
        <ele>1162.369995</ele>
        <time>2017-06-14T07:46:21Z</time>
      </trkpt>
      <trkpt lat="41.901569310575724" lon="13.179306909441948">
        <ele>1161.4099120000001</ele>
        <time>2017-06-14T07:46:25Z</time>
      </trkpt>
      <trkpt lat="41.901520527899265" lon="13.179193334653974">
        <ele>1160.450073</ele>
        <time>2017-06-14T07:46:32Z</time>
      </trkpt>
      <trkpt lat="41.90140787512064" lon="13.178995940834284">
        <ele>1158.0500489999999</ele>
        <time>2017-06-14T07:46:46Z</time>
      </trkpt>
      <trkpt lat="41.901364792138338" lon="13.178950008004904">
        <ele>1156.599976</ele>
        <time>2017-06-14T07:46:53Z</time>
      </trkpt>
      <trkpt lat="41.901316428557038" lon="13.178909523412585">
        <ele>1155.6400149999999</ele>
        <time>2017-06-14T07:46:58Z</time>
      </trkpt>
      <trkpt lat="41.901240823790431" lon="13.17878220230341">
        <ele>1153.23999</ele>
        <time>2017-06-14T07:47:10Z</time>
      </trkpt>
      <trkpt lat="41.901238560676575" lon="13.178765941411257">
        <ele>1152.76001</ele>
        <time>2017-06-14T07:47:11Z</time>
      </trkpt>
      <trkpt lat="41.901223892346025" lon="13.178650522604585">
        <ele>1151.799927</ele>
        <time>2017-06-14T07:47:18Z</time>
      </trkpt>
      <trkpt lat="41.901206038892269" lon="13.178455894812942">
        <ele>1149.869995</ele>
        <time>2017-06-14T07:47:30Z</time>
      </trkpt>
      <trkpt lat="41.901204194873571" lon="13.17841230891645">
        <ele>1149.3900149999999</ele>
        <time>2017-06-14T07:47:32Z</time>
      </trkpt>
      <trkpt lat="41.901175361126661" lon="13.178273169323802">
        <ele>1146.98999</ele>
        <time>2017-06-14T07:47:40Z</time>
      </trkpt>
      <trkpt lat="41.901149963960052" lon="13.178158337250352">
        <ele>1145.0699460000001</ele>
        <time>2017-06-14T07:47:46Z</time>
      </trkpt>
      <trkpt lat="41.901187682524323" lon="13.17793982103467">
        <ele>1141.6999510000001</ele>
        <time>2017-06-14T07:47:59Z</time>
      </trkpt>
      <trkpt lat="41.901176618412137" lon="13.177838986739516">
        <ele>1139.299927</ele>
        <time>2017-06-14T07:48:07Z</time>
      </trkpt>
      <trkpt lat="41.901162704452872" lon="13.177810739725828">
        <ele>1138.339966</ele>
        <time>2017-06-14T07:48:09Z</time>
      </trkpt>
      <trkpt lat="41.901100175455213" lon="13.177658775821328">
        <ele>1135.450073</ele>
        <time>2017-06-14T07:48:20Z</time>
      </trkpt>
      <trkpt lat="41.901054158806801" lon="13.177541261538863">
        <ele>1132.089966</ele>
        <time>2017-06-14T07:48:31Z</time>
      </trkpt>
      <trkpt lat="41.901012165471911" lon="13.17737303674221">
        <ele>1129.690063</ele>
        <time>2017-06-14T07:48:42Z</time>
      </trkpt>
      <trkpt lat="41.90098618157208" lon="13.177201291546226">
        <ele>1126.799927</ele>
        <time>2017-06-14T07:48:55Z</time>
      </trkpt>
      <trkpt lat="41.901013590395451" lon="13.177024433389306">
        <ele>1124.880005</ele>
        <time>2017-06-14T07:49:08Z</time>
      </trkpt>
      <trkpt lat="41.901005040854216" lon="13.176860734820366">
        <ele>1121.5200199999999</ele>
        <time>2017-06-14T07:49:19Z</time>
      </trkpt>
      <trkpt lat="41.901018703356385" lon="13.176673399284482">
        <ele>1118.150024</ele>
        <time>2017-06-14T07:49:32Z</time>
      </trkpt>
      <trkpt lat="41.901027085259557" lon="13.176489165052772">
        <ele>1115.75</ele>
        <time>2017-06-14T07:49:45Z</time>
      </trkpt>
      <trkpt lat="41.901005208492279" lon="13.176326891407371">
        <ele>1113.339966</ele>
        <time>2017-06-14T07:49:58Z</time>
      </trkpt>
      <trkpt lat="41.900958521291614" lon="13.176147434860468">
        <ele>1110.459961</ele>
        <time>2017-06-14T07:50:10Z</time>
      </trkpt>
      <trkpt lat="41.90093731507659" lon="13.175935288891196">
        <ele>1108.059937</ele>
        <time>2017-06-14T07:50:23Z</time>
      </trkpt>
      <trkpt lat="41.900915019214153" lon="13.175743091851473">
        <ele>1104.690063</ele>
        <time>2017-06-14T07:50:36Z</time>
      </trkpt>
      <trkpt lat="41.900910912081599" lon="13.175699003040791">
        <ele>1104.2100829999999</ele>
        <time>2017-06-14T07:50:40Z</time>
      </trkpt>
      <trkpt lat="41.900901691988111" lon="13.175528598949313">
        <ele>1101.8100589999999</ele>
        <time>2017-06-14T07:50:53Z</time>
      </trkpt>
      <trkpt lat="41.900841761380434" lon="13.175314273685217">
        <ele>1098.4399410000001</ele>
        <time>2017-06-14T07:51:08Z</time>
      </trkpt>
      <trkpt lat="41.900819465517998" lon="13.175217462703586">
        <ele>1096.5200199999999</ele>
        <time>2017-06-14T07:51:15Z</time>
      </trkpt>
      <trkpt lat="41.90080052241683" lon="13.175056530162692">
        <ele>1093.6400149999999</ele>
        <time>2017-06-14T07:51:27Z</time>
      </trkpt>
      <trkpt lat="41.900804964825511" lon="13.17500364035368">
        <ele>1092.6800539999999</ele>
        <time>2017-06-14T07:51:32Z</time>
      </trkpt>
      <trkpt lat="41.900796415284276" lon="13.174973465502262">
        <ele>1092.6800539999999</ele>
        <time>2017-06-14T07:51:34Z</time>
      </trkpt>
      <trkpt lat="41.900817537680268" lon="13.174827871844172">
        <ele>1091.2299800000001</ele>
        <time>2017-06-14T07:51:42Z</time>
      </trkpt>
      <trkpt lat="41.900818040594459" lon="13.174676662310958">
        <ele>1089.790039</ele>
        <time>2017-06-14T07:51:53Z</time>
      </trkpt>
      <trkpt lat="41.900752326473594" lon="13.174437526613474">
        <ele>1087.869995</ele>
        <time>2017-06-14T07:52:07Z</time>
      </trkpt>
      <trkpt lat="41.900674207136035" lon="13.174167377874255">
        <ele>1085.950073</ele>
        <time>2017-06-14T07:52:22Z</time>
      </trkpt>
      <trkpt lat="41.900635482743382" lon="13.173970570787787">
        <ele>1083.5399170000001</ele>
        <time>2017-06-14T07:52:36Z</time>
      </trkpt>
      <trkpt lat="41.900633219629526" lon="13.173953974619508">
        <ele>1083.5399170000001</ele>
        <time>2017-06-14T07:52:37Z</time>
      </trkpt>
      <trkpt lat="41.90061142668128" lon="13.17380846478045">
        <ele>1081.619995</ele>
        <time>2017-06-14T07:52:47Z</time>
      </trkpt>
      <trkpt lat="41.900568511337042" lon="13.173666559159756">
        <ele>1079.6999510000001</ele>
        <time>2017-06-14T07:52:56Z</time>
      </trkpt>
      <trkpt lat="41.900489134714007" lon="13.173452904447913">
        <ele>1076.8100589999999</ele>
        <time>2017-06-14T07:53:11Z</time>
      </trkpt>
      <trkpt lat="41.900447141379118" lon="13.173344358801842">
        <ele>1074.8900149999999</ele>
        <time>2017-06-14T07:53:21Z</time>
      </trkpt>
      <trkpt lat="41.900386372581124" lon="13.173129111528397">
        <ele>1071.0500489999999</ele>
        <time>2017-06-14T07:53:36Z</time>
      </trkpt>
      <trkpt lat="41.900352761149406" lon="13.173070270568132">
        <ele>1069.599976</ele>
        <time>2017-06-14T07:53:41Z</time>
      </trkpt>
      <trkpt lat="41.900320993736386" lon="13.172947727143764">
        <ele>1067.6800539999999</ele>
        <time>2017-06-14T07:53:54Z</time>
      </trkpt>
      <trkpt lat="41.900310683995485" lon="13.172918139025569">
        <ele>1067.1999510000001</ele>
        <time>2017-06-14T07:53:56Z</time>
      </trkpt>
      <trkpt lat="41.900257878005505" lon="13.172745639458299">
        <ele>1065.280029</ele>
        <time>2017-06-14T07:54:09Z</time>
      </trkpt>
      <trkpt lat="41.900246059522033" lon="13.172717560082674">
        <ele>1064.799927</ele>
        <time>2017-06-14T07:54:11Z</time>
      </trkpt>
      <trkpt lat="41.900216219946742" lon="13.172606332227588">
        <ele>1063.3599850000001</ele>
        <time>2017-06-14T07:54:20Z</time>
      </trkpt>
      <trkpt lat="41.900111865252256" lon="13.172417571768165">
        <ele>1059.98999</ele>
        <time>2017-06-14T07:54:34Z</time>
      </trkpt>
      <trkpt lat="41.900048665702343" lon="13.172307936474681">
        <ele>1057.1099850000001</ele>
        <time>2017-06-14T07:54:47Z</time>
      </trkpt>
      <trkpt lat="41.899963924661279" lon="13.172198301181197">
        <ele>1055.1800539999999</ele>
        <time>2017-06-14T07:55:00Z</time>
      </trkpt>
      <trkpt lat="41.899844482541084" lon="13.172009708359838">
        <ele>1051.8199460000001</ele>
        <time>2017-06-14T07:55:14Z</time>
      </trkpt>
      <trkpt lat="41.899743229150772" lon="13.171892026439309">
        <ele>1048.940063</ele>
        <time>2017-06-14T07:55:27Z</time>
      </trkpt>
      <trkpt lat="41.899672988802195" lon="13.171748612076044">
        <ele>1046.530029</ele>
        <time>2017-06-14T07:55:38Z</time>
      </trkpt>
      <trkpt lat="41.899642227217555" lon="13.17170787602663">
        <ele>1045.5699460000001</ele>
        <time>2017-06-14T07:55:42Z</time>
      </trkpt>
      <trkpt lat="41.899564694613218" lon="13.17160033620894">
        <ele>1042.6899410000001</ele>
        <time>2017-06-14T07:55:56Z</time>
      </trkpt>
      <trkpt lat="41.899454304948449" lon="13.171462705358863">
        <ele>1038.8400879999999</ele>
        <time>2017-06-14T07:56:10Z</time>
      </trkpt>
      <trkpt lat="41.899354727938771" lon="13.171342927962542">
        <ele>1036.920044</ele>
        <time>2017-06-14T07:56:24Z</time>
      </trkpt>
      <trkpt lat="41.899257497861981" lon="13.171268329024315">
        <ele>1035</ele>
        <time>2017-06-14T07:56:36Z</time>
      </trkpt>
      <trkpt lat="41.899205110967159" lon="13.171218121424317">
        <ele>1034.040039</ele>
        <time>2017-06-14T07:56:41Z</time>
      </trkpt>
      <trkpt lat="41.899133361876011" lon="13.171153999865055">
        <ele>1031.150024</ele>
        <time>2017-06-14T07:56:51Z</time>
      </trkpt>
      <trkpt lat="41.899090195074677" lon="13.171104211360216">
        <ele>1030.1899410000001</ele>
        <time>2017-06-14T07:56:56Z</time>
      </trkpt>
      <trkpt lat="41.899010064080358" lon="13.171013435348868">
        <ele>1028.2700199999999</ele>
        <time>2017-06-14T07:57:04Z</time>
      </trkpt>
      <trkpt lat="41.89892616122961" lon="13.170959204435349">
        <ele>1025.8599850000001</ele>
        <time>2017-06-14T07:57:14Z</time>
      </trkpt>
      <trkpt lat="41.898795403540134" lon="13.170883096754551">
        <ele>1023.940002</ele>
        <time>2017-06-14T07:57:26Z</time>
      </trkpt>
      <trkpt lat="41.898758020251989" lon="13.170824758708477">
        <ele>1022.02002</ele>
        <time>2017-06-14T07:57:39Z</time>
      </trkpt>
      <trkpt lat="41.898741172626615" lon="13.170823082327843">
        <ele>1022.02002</ele>
        <time>2017-06-14T07:57:41Z</time>
      </trkpt>
      <trkpt lat="41.898689707741141" lon="13.170811599120498">
        <ele>1022.02002</ele>
        <time>2017-06-14T07:57:45Z</time>
      </trkpt>
      <trkpt lat="41.89862759783864" lon="13.170809336006641">
        <ele>1020.099976</ele>
        <time>2017-06-14T07:57:58Z</time>
      </trkpt>
      <trkpt lat="41.898670764639974" lon="13.170851664617658">
        <ele>1018.650024</ele>
        <time>2017-06-14T07:58:16Z</time>
      </trkpt>
      <trkpt lat="41.898695658892393" lon="13.170867003500462">
        <ele>1018.169983</ele>
        <time>2017-06-14T07:58:23Z</time>
      </trkpt>
      <trkpt lat="41.898715440183878" lon="13.170986361801624">
        <ele>1015.77002</ele>
        <time>2017-06-14T07:58:34Z</time>
      </trkpt>
      <trkpt lat="41.898679817095399" lon="13.170991558581591">
        <ele>1015.289978</ele>
        <time>2017-06-14T07:58:37Z</time>
      </trkpt>
      <trkpt lat="41.89860706217587" lon="13.170996839180589">
        <ele>1012.410034</ele>
        <time>2017-06-14T07:58:48Z</time>
      </trkpt>
      <trkpt lat="41.898641930893064" lon="13.171070097014308">
        <ele>1010.480042</ele>
        <time>2017-06-14T07:59:01Z</time>
      </trkpt>
      <trkpt lat="41.898686941713095" lon="13.171165315434337">
        <ele>1009.040039</ele>
        <time>2017-06-14T07:59:12Z</time>
      </trkpt>
      <trkpt lat="41.898732958361506" lon="13.171263886615634">
        <ele>1006.6400149999999</ele>
        <time>2017-06-14T07:59:23Z</time>
      </trkpt>
      <trkpt lat="41.898751901462674" lon="13.171313675120473">
        <ele>1006.6400149999999</ele>
        <time>2017-06-14T07:59:27Z</time>
      </trkpt>
      <trkpt lat="41.898801438510418" lon="13.171406127512455">
        <ele>1005.679993</ele>
        <time>2017-06-14T07:59:34Z</time>
      </trkpt>
      <trkpt lat="41.898850807920098" lon="13.171500926837325">
        <ele>1003.27002</ele>
        <time>2017-06-14T07:59:44Z</time>
      </trkpt>
      <trkpt lat="41.898895483464003" lon="13.171594636514783">
        <ele>1001.349976</ele>
        <time>2017-06-14T07:59:58Z</time>
      </trkpt>
      <trkpt lat="41.898880982771516" lon="13.171614333987236">
        <ele>1000.870056</ele>
        <time>2017-06-14T08:00:05Z</time>
      </trkpt>
      <trkpt lat="41.898819962516427" lon="13.17165213637054">
        <ele>998.95001200000002</ele>
        <time>2017-06-14T08:00:20Z</time>
      </trkpt>
      <trkpt lat="41.898743771016598" lon="13.171628415584564">
        <ele>996.05999799999995</ele>
        <time>2017-06-14T08:00:32Z</time>
      </trkpt>
      <trkpt lat="41.898709740489721" lon="13.17160083912313">
        <ele>995.09997599999997</ele>
        <time>2017-06-14T08:00:36Z</time>
      </trkpt>
      <trkpt lat="41.898609828203917" lon="13.17152900621295">
        <ele>992.69995100000006</ele>
        <time>2017-06-14T08:00:49Z</time>
      </trkpt>
      <trkpt lat="41.898575881496072" lon="13.171560941264033">
        <ele>990.30004899999994</ele>
        <time>2017-06-14T08:01:01Z</time>
      </trkpt>
      <trkpt lat="41.898519638925791" lon="13.171563791111112">
        <ele>988.37005599999998</ele>
        <time>2017-06-14T08:01:12Z</time>
      </trkpt>
      <trkpt lat="41.898460295051336" lon="13.171541159972548">
        <ele>986.92999299999997</ele>
        <time>2017-06-14T08:01:23Z</time>
      </trkpt>
      <trkpt lat="41.898437580093741" lon="13.171521881595254">
        <ele>985.97003199999995</ele>
        <time>2017-06-14T08:01:43Z</time>
      </trkpt>
      <trkpt lat="41.898362813517451" lon="13.171470332890749">
        <ele>983.089966</ele>
        <time>2017-06-14T08:01:55Z</time>
      </trkpt>
      <trkpt lat="41.898301960900426" lon="13.171515511348844">
        <ele>981.64001499999995</ele>
        <time>2017-06-14T08:02:04Z</time>
      </trkpt>
      <trkpt lat="41.89818050712347" lon="13.171499921008945">
        <ele>978.75994900000001</ele>
        <time>2017-06-14T08:02:20Z</time>
      </trkpt>
      <trkpt lat="41.898073889315128" lon="13.171477541327477">
        <ele>976.84002699999996</ele>
        <time>2017-06-14T08:02:32Z</time>
      </trkpt>
      <trkpt lat="41.897978000342846" lon="13.171423729509115">
        <ele>975.39001499999995</ele>
        <time>2017-06-14T08:02:43Z</time>
      </trkpt>
      <trkpt lat="41.897888816893101" lon="13.171378634870052">
        <ele>972.98999000000003</ele>
        <time>2017-06-14T08:02:55Z</time>
      </trkpt>
      <trkpt lat="41.897881776094437" lon="13.171383831650019">
        <ele>972.98999000000003</ele>
        <time>2017-06-14T08:02:57Z</time>
      </trkpt>
      <trkpt lat="41.897837938740849" lon="13.17138240672648">
        <ele>972.02996800000005</ele>
        <time>2017-06-14T08:03:02Z</time>
      </trkpt>
      <trkpt lat="41.897806841880083" lon="13.171392800286412">
        <ele>971.07000700000003</ele>
        <time>2017-06-14T08:03:05Z</time>
      </trkpt>
      <trkpt lat="41.897740038111806" lon="13.171346364542842">
        <ele>969.62994400000002</ele>
        <time>2017-06-14T08:03:13Z</time>
      </trkpt>
      <trkpt lat="41.897718412801623" lon="13.17133697681129">
        <ele>968.67004399999996</ele>
        <time>2017-06-14T08:03:26Z</time>
      </trkpt>
      <trkpt lat="41.897582039237022" lon="13.171144612133503">
        <ele>966.74005099999999</ele>
        <time>2017-06-14T08:03:41Z</time>
      </trkpt>
      <trkpt lat="41.897401073947549" lon="13.170892735943198">
        <ele>965.29998799999998</ele>
        <time>2017-06-14T08:03:58Z</time>
      </trkpt>
      <trkpt lat="41.897262940183282" lon="13.170689307153225">
        <ele>963.85998500000005</ele>
        <time>2017-06-14T08:04:17Z</time>
      </trkpt>
      <trkpt lat="41.897155735641718" lon="13.170312037691474">
        <ele>960.97997999999995</ele>
        <time>2017-06-14T08:04:40Z</time>
      </trkpt>
      <trkpt lat="41.897120615467429" lon="13.170189661905169">
        <ele>960.48999000000003</ele>
        <time>2017-06-14T08:04:46Z</time>
      </trkpt>
      <trkpt lat="41.897062864154577" lon="13.170192427933216">
        <ele>960.48999000000003</ele>
        <time>2017-06-14T08:04:51Z</time>
      </trkpt>
      <trkpt lat="41.897048531100154" lon="13.170299464836717">
        <ele>959.52996800000005</ele>
        <time>2017-06-14T08:04:57Z</time>
      </trkpt>
      <trkpt lat="41.897131260484457" lon="13.17060842178762">
        <ele>958.089966</ele>
        <time>2017-06-14T08:05:15Z</time>
      </trkpt>
      <trkpt lat="41.897223377600312" lon="13.170788465067744">
        <ele>956.65002400000003</ele>
        <time>2017-06-14T08:05:26Z</time>
      </trkpt>
      <trkpt lat="41.897244080901146" lon="13.170859459787607">
        <ele>956.17004399999996</ele>
        <time>2017-06-14T08:05:31Z</time>
      </trkpt>
      <trkpt lat="41.897214073687792" lon="13.171131368726492">
        <ele>954.72997999999995</ele>
        <time>2017-06-14T08:05:49Z</time>
      </trkpt>
      <trkpt lat="41.897175097838044" lon="13.171155089512467">
        <ele>954.25</ele>
        <time>2017-06-14T08:05:52Z</time>
      </trkpt>
      <trkpt lat="41.896926239132881" lon="13.171143187209964">
        <ele>952.32000700000003</ele>
        <time>2017-06-14T08:06:07Z</time>
      </trkpt>
      <trkpt lat="41.896735969930887" lon="13.171123405918479">
        <ele>950.40002400000003</ele>
        <time>2017-06-14T08:06:22Z</time>
      </trkpt>
      <trkpt lat="41.896713925525546" lon="13.171115107834339">
        <ele>950.40002400000003</ele>
        <time>2017-06-14T08:06:24Z</time>
      </trkpt>
      <trkpt lat="41.896475879475474" lon="13.171062134206295">
        <ele>949.44000200000005</ele>
        <time>2017-06-14T08:06:43Z</time>
      </trkpt>
      <trkpt lat="41.896254094317555" lon="13.171025672927499">
        <ele>947.51995799999997</ele>
        <time>2017-06-14T08:06:59Z</time>
      </trkpt>
      <trkpt lat="41.896175891160965" lon="13.171015782281756">
        <ele>947.04003899999998</ele>
        <time>2017-06-14T08:07:13Z</time>
      </trkpt>
      <trkpt lat="41.895953183993697" lon="13.170876391232014">
        <ele>945.589966</ele>
        <time>2017-06-14T08:07:33Z</time>
      </trkpt>
      <trkpt lat="41.895721340551972" lon="13.170830374583602">
        <ele>944.15002400000003</ele>
        <time>2017-06-14T08:07:51Z</time>
      </trkpt>
      <trkpt lat="41.895443564280868" lon="13.170904386788607">
        <ele>941.27002000000005</ele>
        <time>2017-06-14T08:08:11Z</time>
      </trkpt>
      <trkpt lat="41.895273495465517" lon="13.17091092467308">
        <ele>940.30999799999995</ele>
        <time>2017-06-14T08:08:25Z</time>
      </trkpt>
      <trkpt lat="41.895218091085553" lon="13.170893238857388">
        <ele>939.82995600000004</ele>
        <time>2017-06-14T08:08:43Z</time>
      </trkpt>
      <trkpt lat="41.895155562087893" lon="13.170880330726504">
        <ele>939.34997599999997</ele>
        <time>2017-06-14T08:08:58Z</time>
      </trkpt>
      <trkpt lat="41.894928077235818" lon="13.170830793678761">
        <ele>939.34997599999997</ele>
        <time>2017-06-14T08:09:11Z</time>
      </trkpt>
      <trkpt lat="41.894715931266546" lon="13.170726438984275">
        <ele>941.27002000000005</ele>
        <time>2017-06-14T08:09:26Z</time>
      </trkpt>
      <trkpt lat="41.894550388678908" lon="13.170643458142877">
        <ele>941.75</ele>
        <time>2017-06-14T08:09:38Z</time>
      </trkpt>
      <trkpt lat="41.894592298194766" lon="13.170583611354232">
        <ele>942.22997999999995</ele>
        <time>2017-06-14T08:09:49Z</time>
      </trkpt>
      <trkpt lat="41.894598500803113" lon="13.170504989102483">
        <ele>943.19000200000005</ele>
        <time>2017-06-14T08:09:58Z</time>
      </trkpt>
      <trkpt lat="41.894564302638173" lon="13.170524267479777">
        <ele>943.19000200000005</ele>
        <time>2017-06-14T08:10:03Z</time>
      </trkpt>
      <trkpt lat="41.894531613215804" lon="13.170561734586954">
        <ele>943.19000200000005</ele>
        <time>2017-06-14T08:10:15Z</time>
      </trkpt>
      <trkpt lat="41.894531026482582" lon="13.170540863648057">
        <ele>943.19000200000005</ele>
        <time>2017-06-14T08:10:45Z</time>
      </trkpt>
      <trkpt lat="41.894492888823152" lon="13.170434664934874">
        <ele>943.19000200000005</ele>
        <time>2017-06-14T08:10:58Z</time>
      </trkpt>
      <trkpt lat="41.894496828317642" lon="13.17044036462903">
        <ele>943.19000200000005</ele>
        <time>2017-06-14T08:11:00Z</time>
      </trkpt>
      <trkpt lat="41.894527841359377" lon="13.170547904446721">
        <ele>943.19000200000005</ele>
        <time>2017-06-14T08:11:14Z</time>
      </trkpt>
      <trkpt lat="41.894535720348358" lon="13.170547066256404">
        <ele>943.19000200000005</ele>
        <time>2017-06-14T08:11:42Z</time>
      </trkpt>
      <trkpt lat="41.894528176635504" lon="13.170566260814667">
        <ele>943.19000200000005</ele>
        <time>2017-06-14T08:12:14Z</time>
      </trkpt>
      <trkpt lat="41.894523231312633" lon="13.170522004365921">
        <ele>942.71002199999998</ele>
        <time>2017-06-14T08:12:42Z</time>
      </trkpt>
      <trkpt lat="41.89451920799911" lon="13.170510772615671">
        <ele>942.71002199999998</ele>
        <time>2017-06-14T08:12:43Z</time>
      </trkpt>
      <trkpt lat="41.894522476941347" lon="13.170418236404657">
        <ele>942.71002199999998</ele>
        <time>2017-06-14T08:12:57Z</time>
      </trkpt>
      <trkpt lat="41.894541420042515" lon="13.17043986171484">
        <ele>942.71002199999998</ele>
        <time>2017-06-14T08:13:17Z</time>
      </trkpt>
      <trkpt lat="41.894557513296604" lon="13.170528039336205">
        <ele>942.71002199999998</ele>
        <time>2017-06-14T08:13:35Z</time>
      </trkpt>
      <trkpt lat="41.894564805552363" lon="13.170569613575935">
        <ele>942.71002199999998</ele>
        <time>2017-06-14T08:13:48Z</time>
      </trkpt>
      <trkpt lat="41.894534463062882" lon="13.170553436502814">
        <ele>942.71002199999998</ele>
        <time>2017-06-14T08:14:18Z</time>
      </trkpt>
      <trkpt lat="41.89452457241714" lon="13.170554861426353">
        <ele>942.71002199999998</ele>
        <time>2017-06-14T08:14:34Z</time>
      </trkpt>
      <trkpt lat="41.894507305696607" lon="13.170513790100813">
        <ele>942.71002199999998</ele>
        <time>2017-06-14T08:14:46Z</time>
      </trkpt>
      <trkpt lat="41.894504791125655" lon="13.170504318550229">
        <ele>942.71002199999998</ele>
        <time>2017-06-14T08:14:47Z</time>
      </trkpt>
      <trkpt lat="41.89448936842382" lon="13.170454110950232">
        <ele>941.27002000000005</ele>
        <time>2017-06-14T08:15:04Z</time>
      </trkpt>
      <trkpt lat="41.894510574638844" lon="13.170453272759914">
        <ele>941.27002000000005</ele>
        <time>2017-06-14T08:15:25Z</time>
      </trkpt>
      <trkpt lat="41.894522476941347" lon="13.170480513945222">
        <ele>941.27002000000005</ele>
        <time>2017-06-14T08:15:45Z</time>
      </trkpt>
      <trkpt lat="41.894506216049194" lon="13.17046819254756">
        <ele>941.27002000000005</ele>
        <time>2017-06-14T08:16:00Z</time>
      </trkpt>
      <trkpt lat="41.894506216049194" lon="13.170467438176274">
        <ele>941.27002000000005</ele>
        <time>2017-06-14T08:16:21Z</time>
      </trkpt>
      <trkpt lat="41.894493559375405" lon="13.170454697683454">
        <ele>941.27002000000005</ele>
        <time>2017-06-14T08:16:44Z</time>
      </trkpt>
      <trkpt lat="41.894533038139343" lon="13.170510604977608">
        <ele>941.27002000000005</ele>
        <time>2017-06-14T08:16:56Z</time>
      </trkpt>
      <trkpt lat="41.894531026482582" lon="13.170561483129859">
        <ele>941.27002000000005</ele>
        <time>2017-06-14T08:17:11Z</time>
      </trkpt>
      <trkpt lat="41.894527925178409" lon="13.170540779829025">
        <ele>941.27002000000005</ele>
        <time>2017-06-14T08:17:43Z</time>
      </trkpt>
      <trkpt lat="41.894543431699276" lon="13.1705610640347">
        <ele>941.27002000000005</ele>
        <time>2017-06-14T08:17:51Z</time>
      </trkpt>
      <trkpt lat="41.894569583237171" lon="13.170525105670094">
        <ele>941.27002000000005</ele>
        <time>2017-06-14T08:17:55Z</time>
      </trkpt>
      <trkpt lat="41.89462523907423" lon="13.17055226303637">
        <ele>941.27002000000005</ele>
        <time>2017-06-14T08:18:03Z</time>
      </trkpt>
      <trkpt lat="41.894594393670559" lon="13.170588975772262">
        <ele>940.78997800000002</ele>
        <time>2017-06-14T08:18:17Z</time>
      </trkpt>
      <trkpt lat="41.894591962918639" lon="13.170623928308487">
        <ele>940.78997800000002</ele>
        <time>2017-06-14T08:18:34Z</time>
      </trkpt>
      <trkpt lat="41.894466569647193" lon="13.17061236128211">
        <ele>940.30999799999995</ele>
        <time>2017-06-14T08:18:46Z</time>
      </trkpt>
      <trkpt lat="41.894351905211806" lon="13.170492919161916">
        <ele>938.38000499999998</ele>
        <time>2017-06-14T08:18:59Z</time>
      </trkpt>
      <trkpt lat="41.894214106723666" lon="13.170338859781623">
        <ele>935.97997999999995</ele>
        <time>2017-06-14T08:19:14Z</time>
      </trkpt>
      <trkpt lat="41.894107405096292" lon="13.170207515358925">
        <ele>935.97997999999995</ele>
        <time>2017-06-14T08:19:27Z</time>
      </trkpt>
      <trkpt lat="41.894020233303308" lon="13.170091928914189">
        <ele>935.97997999999995</ele>
        <time>2017-06-14T08:19:40Z</time>
      </trkpt>
      <trkpt lat="41.893982933834195" lon="13.170055635273457">
        <ele>937.419983</ele>
        <time>2017-06-14T08:19:54Z</time>
      </trkpt>
      <trkpt lat="41.893907496705651" lon="13.169996039941907">
        <ele>937.90002400000003</ele>
        <time>2017-06-14T08:20:08Z</time>
      </trkpt>
      <trkpt lat="41.893843961879611" lon="13.169970558956265">
        <ele>937.90002400000003</ele>
        <time>2017-06-14T08:20:27Z</time>
      </trkpt>
      <trkpt lat="41.893647909164429" lon="13.169966116547585">
        <ele>940.30999799999995</ele>
        <time>2017-06-14T08:20:44Z</time>
      </trkpt>
      <trkpt lat="41.893524695187807" lon="13.169960165396333">
        <ele>941.27002000000005</ele>
        <time>2017-06-14T08:20:56Z</time>
      </trkpt>
      <trkpt lat="41.893340963870287" lon="13.170030070468783">
        <ele>941.75</ele>
        <time>2017-06-14T08:21:11Z</time>
      </trkpt>
      <trkpt lat="41.893210541456938" lon="13.170188320800662">
        <ele>941.75</ele>
        <time>2017-06-14T08:21:26Z</time>
      </trkpt>
      <trkpt lat="41.893081208691001" lon="13.170470036566257">
        <ele>941.75</ele>
        <time>2017-06-14T08:21:45Z</time>
      </trkpt>
      <trkpt lat="41.893021361902356" lon="13.170761559158564">
        <ele>942.22997999999995</ele>
        <time>2017-06-14T08:22:04Z</time>
      </trkpt>
      <trkpt lat="41.893014321103692" lon="13.171062637120485">
        <ele>943.19000200000005</ele>
        <time>2017-06-14T08:22:21Z</time>
      </trkpt>
      <trkpt lat="41.893003676086664" lon="13.171172188594937">
        <ele>943.67004399999996</ele>
        <time>2017-06-14T08:22:30Z</time>
      </trkpt>
      <trkpt lat="41.892929915338755" lon="13.171480474993587">
        <ele>944.62994400000002</ele>
        <time>2017-06-14T08:22:46Z</time>
      </trkpt>
      <trkpt lat="41.892832266166806" lon="13.171733859926462">
        <ele>945.589966</ele>
        <time>2017-06-14T08:23:04Z</time>
      </trkpt>
      <trkpt lat="41.892601596191525" lon="13.172034686431289">
        <ele>944.62994400000002</ele>
        <time>2017-06-14T08:23:24Z</time>
      </trkpt>
      <trkpt lat="41.89240931533277" lon="13.17225806415081">
        <ele>943.67004399999996</ele>
        <time>2017-06-14T08:23:44Z</time>
      </trkpt>
      <trkpt lat="41.892288280650973" lon="13.172425618395209">
        <ele>942.22997999999995</ele>
        <time>2017-06-14T08:23:59Z</time>
      </trkpt>
      <trkpt lat="41.892249640077353" lon="13.172495774924755">
        <ele>942.22997999999995</ele>
        <time>2017-06-14T08:24:04Z</time>
      </trkpt>
      <trkpt lat="41.892195241525769" lon="13.172671040520072">
        <ele>942.22997999999995</ele>
        <time>2017-06-14T08:24:17Z</time>
      </trkpt>
      <trkpt lat="41.892110081389546" lon="13.172957533970475">
        <ele>942.22997999999995</ele>
        <time>2017-06-14T08:24:32Z</time>
      </trkpt>
      <trkpt lat="41.892102537676692" lon="13.173129698261619">
        <ele>943.19000200000005</ele>
        <time>2017-06-14T08:24:48Z</time>
      </trkpt>
      <trkpt lat="41.892069764435291" lon="13.173298258334398">
        <ele>944.15002400000003</ele>
        <time>2017-06-14T08:25:00Z</time>
      </trkpt>
      <trkpt lat="41.892088372260332" lon="13.173477128148079">
        <ele>946.55999799999995</ele>
        <time>2017-06-14T08:25:13Z</time>
      </trkpt>
      <trkpt lat="41.892152661457658" lon="13.173737721517682">
        <ele>946.55999799999995</ele>
        <time>2017-06-14T08:25:28Z</time>
      </trkpt>
      <trkpt lat="41.892114439979196" lon="13.174019521102309">
        <ele>946.55999799999995</ele>
        <time>2017-06-14T08:25:44Z</time>
      </trkpt>
      <trkpt lat="41.892080493271351" lon="13.174262261018157">
        <ele>944.62994400000002</ele>
        <time>2017-06-14T08:25:59Z</time>
      </trkpt>
      <trkpt lat="41.892010001465678" lon="13.174582533538342">
        <ele>942.22997999999995</ele>
        <time>2017-06-14T08:26:16Z</time>
      </trkpt>
      <trkpt lat="41.891910592094064" lon="13.174754614010453">
        <ele>940.30999799999995</ele>
        <time>2017-06-14T08:26:31Z</time>
      </trkpt>
      <trkpt lat="41.891824258491397" lon="13.174872379750013">
        <ele>939.34997599999997</ele>
        <time>2017-06-14T08:26:40Z</time>
      </trkpt>
      <trkpt lat="41.891801962628961" lon="13.174987798556685">
        <ele>937.419983</ele>
        <time>2017-06-14T08:26:55Z</time>
      </trkpt>
      <trkpt lat="41.891765501350164" lon="13.175026439130306">
        <ele>936.94000200000005</ele>
        <time>2017-06-14T08:27:10Z</time>
      </trkpt>
      <trkpt lat="41.891773715615273" lon="13.175020571798086">
        <ele>936.45996100000002</ele>
        <time>2017-06-14T08:27:28Z</time>
      </trkpt>
      <trkpt lat="41.891679922118783" lon="13.174901464954019">
        <ele>936.45996100000002</ele>
        <time>2017-06-14T08:27:42Z</time>
      </trkpt>
      <trkpt lat="41.891621667891741" lon="13.174858465790749">
        <ele>936.45996100000002</ele>
        <time>2017-06-14T08:27:47Z</time>
      </trkpt>
      <trkpt lat="41.89146576449275" lon="13.174813371151686">
        <ele>934.05999799999995</ele>
        <time>2017-06-14T08:28:00Z</time>
      </trkpt>
      <trkpt lat="41.891262168064713" lon="13.174802139401436">
        <ele>931.65002400000003</ele>
        <time>2017-06-14T08:28:15Z</time>
      </trkpt>
      <trkpt lat="41.891077430918813" lon="13.174772635102272">
        <ele>928.28997800000002</ele>
        <time>2017-06-14T08:28:28Z</time>
      </trkpt>
      <trkpt lat="41.890929071232677" lon="13.174704071134329">
        <ele>924.93005400000004</ele>
        <time>2017-06-14T08:28:41Z</time>
      </trkpt>
      <trkpt lat="41.890780460089445" lon="13.174444064497948">
        <ele>922.51995799999997</ele>
        <time>2017-06-14T08:28:57Z</time>
      </trkpt>
      <trkpt lat="41.89069664105773" lon="13.174245581030846">
        <ele>919.15997300000004</ele>
        <time>2017-06-14T08:29:11Z</time>
      </trkpt>
      <trkpt lat="41.890590358525515" lon="13.173936624079943">
        <ele>916.27002000000005</ele>
        <time>2017-06-14T08:29:28Z</time>
      </trkpt>
      <trkpt lat="41.890490362420678" lon="13.173675024881959">
        <ele>913.86999500000002</ele>
        <time>2017-06-14T08:29:46Z</time>
      </trkpt>
      <trkpt lat="41.89040838740766" lon="13.173477798700333">
        <ele>911.95001200000002</ele>
        <time>2017-06-14T08:30:01Z</time>
      </trkpt>
      <trkpt lat="41.890326077118516" lon="13.17320647649467">
        <ele>909.54003899999998</ele>
        <time>2017-06-14T08:30:18Z</time>
      </trkpt>
      <trkpt lat="41.890290537849069" lon="13.173087202012539">
        <ele>907.61999500000002</ele>
        <time>2017-06-14T08:30:33Z</time>
      </trkpt>
      <trkpt lat="41.890258770436049" lon="13.173028193414211">
        <ele>907.14001499999995</ele>
        <time>2017-06-14T08:30:39Z</time>
      </trkpt>
      <trkpt lat="41.890195989981294" lon="13.172886371612549">
        <ele>906.17999299999997</ele>
        <time>2017-06-14T08:30:50Z</time>
      </trkpt>
      <trkpt lat="41.890067663043737" lon="13.172579258680344">
        <ele>904.25994900000001</ele>
        <time>2017-06-14T08:31:08Z</time>
      </trkpt>
      <trkpt lat="41.889973031356931" lon="13.17235722206533">
        <ele>902.32995600000004</ele>
        <time>2017-06-14T08:31:24Z</time>
      </trkpt>
      <trkpt lat="41.889913603663445" lon="13.172155385836959">
        <ele>900.88995399999999</ele>
        <time>2017-06-14T08:31:37Z</time>
      </trkpt>
      <trkpt lat="41.889817463234067" lon="13.171850116923451">
        <ele>898.97003199999995</ele>
        <time>2017-06-14T08:31:55Z</time>
      </trkpt>
      <trkpt lat="41.88971696421504" lon="13.171686502173543">
        <ele>896.089966</ele>
        <time>2017-06-14T08:32:09Z</time>
      </trkpt>
      <trkpt lat="41.889552175998688" lon="13.171683065593243">
        <ele>892.71997099999999</ele>
        <time>2017-06-14T08:32:23Z</time>
      </trkpt>
      <trkpt lat="41.889345310628414" lon="13.17168440669775">
        <ele>889.35998500000005</ele>
        <time>2017-06-14T08:32:40Z</time>
      </trkpt>
      <trkpt lat="41.889214888215065" lon="13.171633193269372">
        <ele>887.43005400000004</ele>
        <time>2017-06-14T08:32:54Z</time>
      </trkpt>
      <trkpt lat="41.889080191031098" lon="13.171495897695422">
        <ele>885.03002900000001</ele>
        <time>2017-06-14T08:33:09Z</time>
      </trkpt>
      <trkpt lat="41.888967789709568" lon="13.171383161097765">
        <ele>882.14996299999996</ele>
        <time>2017-06-14T08:33:23Z</time>
      </trkpt>
      <trkpt lat="41.888969717547297" lon="13.171407636255026">
        <ele>881.67004399999996</ele>
        <time>2017-06-14T08:33:39Z</time>
      </trkpt>
      <trkpt lat="41.888957479968667" lon="13.171422723680735">
        <ele>881.67004399999996</ele>
        <time>2017-06-14T08:34:22Z</time>
      </trkpt>
      <trkpt lat="41.888960497453809" lon="13.171401936560869">
        <ele>881.18994099999998</ele>
        <time>2017-06-14T08:34:41Z</time>
      </trkpt>
      <trkpt lat="41.888963263481855" lon="13.17136287689209">
        <ele>881.67004399999996</ele>
        <time>2017-06-14T08:35:16Z</time>
      </trkpt>
      <trkpt lat="41.888957563787699" lon="13.171333540230989">
        <ele>880.21997099999999</ele>
        <time>2017-06-14T08:35:54Z</time>
      </trkpt>
      <trkpt lat="41.888944488018751" lon="13.171331863850355">
        <ele>881.67004399999996</ele>
        <time>2017-06-14T08:36:36Z</time>
      </trkpt>
      <trkpt lat="41.888948259875178" lon="13.171381317079067">
        <ele>882.14996299999996</ele>
        <time>2017-06-14T08:37:22Z</time>
      </trkpt>
      <trkpt lat="41.88897080719471" lon="13.171415263786912">
        <ele>882.14996299999996</ele>
        <time>2017-06-14T08:37:59Z</time>
      </trkpt>
      <trkpt lat="41.888965191319585" lon="13.171411994844675">
        <ele>880.21997099999999</ele>
        <time>2017-06-14T08:38:20Z</time>
      </trkpt>
      <trkpt lat="41.88893903978169" lon="13.171434039250016">
        <ele>880.21997099999999</ele>
        <time>2017-06-14T08:39:06Z</time>
      </trkpt>
      <trkpt lat="41.888921186327934" lon="13.171434290707111">
        <ele>882.14996299999996</ele>
        <time>2017-06-14T08:39:40Z</time>
      </trkpt>
      <trkpt lat="41.888906685635448" lon="13.171411072835326">
        <ele>882.14996299999996</ele>
        <time>2017-06-14T08:40:16Z</time>
      </trkpt>
      <trkpt lat="41.888874834403396" lon="13.171370169147849">
        <ele>880.71002199999998</ele>
        <time>2017-06-14T08:40:29Z</time>
      </trkpt>
      <trkpt lat="41.888855723664165" lon="13.171339994296432">
        <ele>880.21997099999999</ele>
        <time>2017-06-14T08:40:44Z</time>
      </trkpt>
      <trkpt lat="41.888870811089873" lon="13.171340329572558">
        <ele>879.73999000000003</ele>
        <time>2017-06-14T08:40:58Z</time>
      </trkpt>
      <trkpt lat="41.888912301510572" lon="13.171376790851355">
        <ele>879.25994900000001</ele>
        <time>2017-06-14T08:41:01Z</time>
      </trkpt>
      <trkpt lat="41.888931663706899" lon="13.171396236866713">
        <ele>880.71002199999998</ele>
        <time>2017-06-14T08:41:02Z</time>
      </trkpt>
      <trkpt lat="41.888951025903225" lon="13.171423561871052">
        <ele>881.67004399999996</ele>
        <time>2017-06-14T08:41:12Z</time>
      </trkpt>
      <trkpt lat="41.888943230733275" lon="13.171416940167546">
        <ele>881.67004399999996</ele>
        <time>2017-06-14T08:41:17Z</time>
      </trkpt>
      <trkpt lat="41.888868380337954" lon="13.171362793073058">
        <ele>880.21997099999999</ele>
        <time>2017-06-14T08:41:24Z</time>
      </trkpt>
      <trkpt lat="41.888832841068506" lon="13.17141517996788">
        <ele>879.73999000000003</ele>
        <time>2017-06-14T08:41:39Z</time>
      </trkpt>
      <trkpt lat="41.88879981637001" lon="13.171417191624641">
        <ele>879.73999000000003</ele>
        <time>2017-06-14T08:41:55Z</time>
      </trkpt>
      <trkpt lat="41.888810629025102" lon="13.171386932954192">
        <ele>879.73999000000003</ele>
        <time>2017-06-14T08:42:16Z</time>
      </trkpt>
      <trkpt lat="41.888808030635118" lon="13.171388441696763">
        <ele>879.73999000000003</ele>
        <time>2017-06-14T08:42:34Z</time>
      </trkpt>
      <trkpt lat="41.888819681480527" lon="13.171387687325478">
        <ele>879.25994900000001</ele>
        <time>2017-06-14T08:43:10Z</time>
      </trkpt>
      <trkpt lat="41.888803504407406" lon="13.171388860791922">
        <ele>879.25994900000001</ele>
        <time>2017-06-14T08:43:42Z</time>
      </trkpt>
      <trkpt lat="41.888809623196721" lon="13.171423813328147">
        <ele>879.25994900000001</ele>
        <time>2017-06-14T08:44:03Z</time>
      </trkpt>
      <trkpt lat="41.888814233243465" lon="13.171417359262705">
        <ele>879.25994900000001</ele>
        <time>2017-06-14T08:44:30Z</time>
      </trkpt>
      <trkpt lat="41.888817586004734" lon="13.171395901590586">
        <ele>879.25994900000001</ele>
        <time>2017-06-14T08:44:32Z</time>
      </trkpt>
      <trkpt lat="41.888840971514583" lon="13.171328091993928">
        <ele>879.25994900000001</ele>
        <time>2017-06-14T08:44:37Z</time>
      </trkpt>
      <trkpt lat="41.888919761404395" lon="13.171371258795261">
        <ele>880.21997099999999</ele>
        <time>2017-06-14T08:44:45Z</time>
      </trkpt>
      <trkpt lat="41.888927305117249" lon="13.171380562707782">
        <ele>880.21997099999999</ele>
        <time>2017-06-14T08:44:46Z</time>
      </trkpt>
      <trkpt lat="41.888958066701889" lon="13.171428758651018">
        <ele>881.18994099999998</ele>
        <time>2017-06-14T08:45:03Z</time>
      </trkpt>
      <trkpt lat="41.888964017853141" lon="13.17144401371479">
        <ele>881.18994099999998</ele>
        <time>2017-06-14T08:45:35Z</time>
      </trkpt>
      <trkpt lat="41.888948259875178" lon="13.171434793621302">
        <ele>881.18994099999998</ele>
        <time>2017-06-14T08:46:01Z</time>
      </trkpt>
      <trkpt lat="41.88895127736032" lon="13.171428674831986">
        <ele>881.18994099999998</ele>
        <time>2017-06-14T08:46:31Z</time>
      </trkpt>
      <trkpt lat="41.888938872143626" lon="13.171419035643339">
        <ele>881.18994099999998</ele>
        <time>2017-06-14T08:47:10Z</time>
      </trkpt>
      <trkpt lat="41.888901991769671" lon="13.171428674831986">
        <ele>881.18994099999998</ele>
        <time>2017-06-14T08:47:47Z</time>
      </trkpt>
      <trkpt lat="41.888940129429102" lon="13.171410234645009">
        <ele>880.71002199999998</ele>
        <time>2017-06-14T08:48:31Z</time>
      </trkpt>
      <trkpt lat="41.888936860486865" lon="13.17143227905035">
        <ele>880.71002199999998</ele>
        <time>2017-06-14T08:49:12Z</time>
      </trkpt>
      <trkpt lat="41.888929232954979" lon="13.171421885490417">
        <ele>879.73999000000003</ele>
        <time>2017-06-14T08:49:59Z</time>
      </trkpt>
      <trkpt lat="41.888922359794378" lon="13.171415431424975">
        <ele>881.67004399999996</ele>
        <time>2017-06-14T08:50:18Z</time>
      </trkpt>
      <trkpt lat="41.888989498838782" lon="13.171411994844675">
        <ele>879.73999000000003</ele>
        <time>2017-06-14T08:50:41Z</time>
      </trkpt>
      <trkpt lat="41.889020595699549" lon="13.171444265171885">
        <ele>882.14996299999996</ele>
        <time>2017-06-14T08:50:45Z</time>
      </trkpt>
      <trkpt lat="41.889105420559645" lon="13.171510398387909">
        <ele>884.07000700000003</ele>
        <time>2017-06-14T08:50:54Z</time>
      </trkpt>
      <trkpt lat="41.889202063903213" lon="13.171608382835984">
        <ele>885.51000999999997</ele>
        <time>2017-06-14T08:51:07Z</time>
      </trkpt>
      <trkpt lat="41.889293426647782" lon="13.171693123877048">
        <ele>887.43005400000004</ele>
        <time>2017-06-14T08:51:22Z</time>
      </trkpt>
      <trkpt lat="41.88932066783309" lon="13.171690022572875">
        <ele>887.910034</ele>
        <time>2017-06-14T08:51:26Z</time>
      </trkpt>
      <trkpt lat="41.889465423300862" lon="13.171682897955179">
        <ele>889.35998500000005</ele>
        <time>2017-06-14T08:51:43Z</time>
      </trkpt>
      <trkpt lat="41.889588637277484" lon="13.171672336757183">
        <ele>891.27996800000005</ele>
        <time>2017-06-14T08:51:58Z</time>
      </trkpt>
      <trkpt lat="41.88960263505578" lon="13.171671330928802">
        <ele>891.75994900000001</ele>
        <time>2017-06-14T08:52:00Z</time>
      </trkpt>
      <trkpt lat="41.889731716364622" lon="13.171685328707099">
        <ele>894.64001499999995</ele>
        <time>2017-06-14T08:52:16Z</time>
      </trkpt>
      <trkpt lat="41.889776308089495" lon="13.171721203252673">
        <ele>895.60998500000005</ele>
        <time>2017-06-14T08:52:21Z</time>
      </trkpt>
      <trkpt lat="41.889872699975967" lon="13.171930331736803">
        <ele>897.53002900000001</ele>
        <time>2017-06-14T08:52:37Z</time>
      </trkpt>
      <trkpt lat="41.889913184568286" lon="13.172104675322771">
        <ele>898.01000999999997</ele>
        <time>2017-06-14T08:52:51Z</time>
      </trkpt>
      <trkpt lat="41.88993246294558" lon="13.172205006703734">
        <ele>898.01000999999997</ele>
        <time>2017-06-14T08:52:58Z</time>
      </trkpt>
      <trkpt lat="41.889993315562606" lon="13.17236996255815">
        <ele>899.45001200000002</ele>
        <time>2017-06-14T08:53:12Z</time>
      </trkpt>
      <trkpt lat="41.890079565346241" lon="13.172553358599544">
        <ele>901.36999500000002</ele>
        <time>2017-06-14T08:53:27Z</time>
      </trkpt>
      <trkpt lat="41.890168413519859" lon="13.172731976956129">
        <ele>902.32995600000004</ele>
        <time>2017-06-14T08:53:42Z</time>
      </trkpt>
      <trkpt lat="41.890243263915181" lon="13.172891903668642">
        <ele>904.25994900000001</ele>
        <time>2017-06-14T08:53:55Z</time>
      </trkpt>
      <trkpt lat="41.890340493991971" lon="13.173109330236912">
        <ele>905.21997099999999</ele>
        <time>2017-06-14T08:54:12Z</time>
      </trkpt>
      <trkpt lat="41.890406459569931" lon="13.173296833410859">
        <ele>907.14001499999995</ele>
        <time>2017-06-14T08:54:26Z</time>
      </trkpt>
      <trkpt lat="41.890472760424018" lon="13.17352213896811">
        <ele>909.05999799999995</ele>
        <time>2017-06-14T08:54:42Z</time>
      </trkpt>
      <trkpt lat="41.890523135662079" lon="13.173727495595813">
        <ele>911.47003199999995</ele>
        <time>2017-06-14T08:54:57Z</time>
      </trkpt>
      <trkpt lat="41.890578120946884" lon="13.17393989302218">
        <ele>913.38995399999999</ele>
        <time>2017-06-14T08:55:13Z</time>
      </trkpt>
      <trkpt lat="41.890639811754227" lon="13.17409235984087">
        <ele>915.30999799999995</ele>
        <time>2017-06-14T08:55:27Z</time>
      </trkpt>
      <trkpt lat="41.890698401257396" lon="13.174220183864236">
        <ele>916.75</ele>
        <time>2017-06-14T08:55:39Z</time>
      </trkpt>
      <trkpt lat="41.890721032395959" lon="13.174306014552712">
        <ele>917.71997099999999</ele>
        <time>2017-06-14T08:55:46Z</time>
      </trkpt>
      <trkpt lat="41.89079537987709" lon="13.174473904073238">
        <ele>919.64001499999995</ele>
        <time>2017-06-14T08:56:01Z</time>
      </trkpt>
      <trkpt lat="41.890865620225668" lon="13.174628298729658">
        <ele>921.080017</ele>
        <time>2017-06-14T08:56:15Z</time>
      </trkpt>
      <trkpt lat="41.890899986028671" lon="13.174687894061208">
        <ele>922.51995799999997</ele>
        <time>2017-06-14T08:56:22Z</time>
      </trkpt>
      <trkpt lat="41.891026217490435" lon="13.174750171601772">
        <ele>924.93005400000004</ele>
        <time>2017-06-14T08:56:37Z</time>
      </trkpt>
      <trkpt lat="41.891166865825653" lon="13.17477498203516">
        <ele>927.32995600000004</ele>
        <time>2017-06-14T08:56:53Z</time>
      </trkpt>
      <trkpt lat="41.891280272975564" lon="13.17480331286788">
        <ele>930.21002199999998</ele>
        <time>2017-06-14T08:57:06Z</time>
      </trkpt>
      <trkpt lat="41.891441037878394" lon="13.174814293161035">
        <ele>931.65002400000003</ele>
        <time>2017-06-14T08:57:22Z</time>
      </trkpt>
      <trkpt lat="41.891583781689405" lon="13.174833739176393">
        <ele>933.580017</ele>
        <time>2017-06-14T08:57:35Z</time>
      </trkpt>
      <trkpt lat="41.891700206324458" lon="13.174907835200429">
        <ele>934.54003899999998</ele>
        <time>2017-06-14T08:57:48Z</time>
      </trkpt>
      <trkpt lat="41.891793329268694" lon="13.175086872652173">
        <ele>934.54003899999998</ele>
        <time>2017-06-14T08:58:02Z</time>
      </trkpt>
      <trkpt lat="41.891782516613603" lon="13.175235399976373">
        <ele>935.01995799999997</ele>
        <time>2017-06-14T08:58:11Z</time>
      </trkpt>
      <trkpt lat="41.891804561018944" lon="13.175287870690227">
        <ele>935.50006099999996</ele>
        <time>2017-06-14T08:58:25Z</time>
      </trkpt>
      <trkpt lat="41.891801962628961" lon="13.175268676131964">
        <ele>935.50006099999996</ele>
        <time>2017-06-14T08:58:27Z</time>
      </trkpt>
      <trkpt lat="41.891769776120782" lon="13.175030797719955">
        <ele>934.05999799999995</ele>
        <time>2017-06-14T08:58:41Z</time>
      </trkpt>
      <trkpt lat="41.891804058104753" lon="13.175017135217786">
        <ele>933.10003700000004</ele>
        <time>2017-06-14T08:58:48Z</time>
      </trkpt>
      <trkpt lat="41.891891984269023" lon="13.175100535154343">
        <ele>930.21002199999998</ele>
        <time>2017-06-14T08:59:00Z</time>
      </trkpt>
      <trkpt lat="41.891904221847653" lon="13.175108665600419">
        <ele>929.72997999999995</ele>
        <time>2017-06-14T08:59:02Z</time>
      </trkpt>
      <trkpt lat="41.89193481579423" lon="13.175122914835811">
        <ele>929.25</ele>
        <time>2017-06-14T08:59:05Z</time>
      </trkpt>
      <trkpt lat="41.892047468572855" lon="13.175214612856507">
        <ele>926.84997599999997</ele>
        <time>2017-06-14T08:59:19Z</time>
      </trkpt>
      <trkpt lat="41.892189038917422" lon="13.175280075520277">
        <ele>924.45001200000002</ele>
        <time>2017-06-14T08:59:33Z</time>
      </trkpt>
      <trkpt lat="41.892294064164162" lon="13.175301868468523">
        <ele>923.00006099999996</ele>
        <time>2017-06-14T08:59:44Z</time>
      </trkpt>
      <trkpt lat="41.892462372779846" lon="13.17536330781877">
        <ele>921.55999799999995</ele>
        <time>2017-06-14T08:59:58Z</time>
      </trkpt>
      <trkpt lat="41.892539486289024" lon="13.175527341663837">
        <ele>919.15997300000004</ele>
        <time>2017-06-14T09:00:12Z</time>
      </trkpt>
      <trkpt lat="41.89265750348568" lon="13.175671258941293">
        <ele>917.71997099999999</ele>
        <time>2017-06-14T09:00:26Z</time>
      </trkpt>
      <trkpt lat="41.892676781862974" lon="13.175692968070507">
        <ele>917.71997099999999</ele>
        <time>2017-06-14T09:00:29Z</time>
      </trkpt>
      <trkpt lat="41.892754230648279" lon="13.175903186202049">
        <ele>915.78997800000002</ele>
        <time>2017-06-14T09:00:45Z</time>
      </trkpt>
      <trkpt lat="41.892764121294022" lon="13.176034698262811">
        <ele>915.30999799999995</ele>
        <time>2017-06-14T09:00:56Z</time>
      </trkpt>
      <trkpt lat="41.892764875665307" lon="13.176092365756631">
        <ele>914.82995600000004</ele>
        <time>2017-06-14T09:01:01Z</time>
      </trkpt>
      <trkpt lat="41.89275280572474" lon="13.176203425973654">
        <ele>913.86999500000002</ele>
        <time>2017-06-14T09:01:11Z</time>
      </trkpt>
      <trkpt lat="41.892713159322739" lon="13.176352707669139">
        <ele>912.910034</ele>
        <time>2017-06-14T09:01:23Z</time>
      </trkpt>
      <trkpt lat="41.892704777419567" lon="13.176485728472471">
        <ele>912.43005400000004</ele>
        <time>2017-06-14T09:01:36Z</time>
      </trkpt>
      <trkpt lat="41.892778538167477" lon="13.176703238859773">
        <ele>911.95001200000002</ele>
        <time>2017-06-14T09:01:50Z</time>
      </trkpt>
      <trkpt lat="41.892833858728409" lon="13.176826369017363">
        <ele>911.95001200000002</ele>
        <time>2017-06-14T09:02:02Z</time>
      </trkpt>
      <trkpt lat="41.892941063269973" lon="13.177027786150575">
        <ele>911.47003199999995</ele>
        <time>2017-06-14T09:02:15Z</time>
      </trkpt>
      <trkpt lat="41.893022870644927" lon="13.17730413749814">
        <ele>912.910034</ele>
        <time>2017-06-14T09:02:31Z</time>
      </trkpt>
      <trkpt lat="41.893026726320386" lon="13.177316961809993">
        <ele>912.910034</ele>
        <time>2017-06-14T09:02:32Z</time>
      </trkpt>
      <trkpt lat="41.893070060759783" lon="13.177425339818001">
        <ele>913.38995399999999</ele>
        <time>2017-06-14T09:02:42Z</time>
      </trkpt>
      <trkpt lat="41.893120938912034" lon="13.177611585706472">
        <ele>915.30999799999995</ele>
        <time>2017-06-14T09:02:57Z</time>
      </trkpt>
      <trkpt lat="41.893127895891666" lon="13.177750138565898">
        <ele>916.75</ele>
        <time>2017-06-14T09:03:10Z</time>
      </trkpt>
      <trkpt lat="41.893167039379478" lon="13.17786798812449">
        <ele>918.67999299999997</ele>
        <time>2017-06-14T09:03:21Z</time>
      </trkpt>
      <trkpt lat="41.893185395747423" lon="13.178022634238005">
        <ele>920.11999500000002</ele>
        <time>2017-06-14T09:03:34Z</time>
      </trkpt>
      <trkpt lat="41.893192520365119" lon="13.178080134093761">
        <ele>921.080017</ele>
        <time>2017-06-14T09:03:40Z</time>
      </trkpt>
      <trkpt lat="41.893176259472966" lon="13.178152302280068">
        <ele>921.55999799999995</ele>
        <time>2017-06-14T09:03:45Z</time>
      </trkpt>
      <trkpt lat="41.893145497888327" lon="13.178352378308773">
        <ele>923.47997999999995</ele>
        <time>2017-06-14T09:03:58Z</time>
      </trkpt>
      <trkpt lat="41.893138373270631" lon="13.178370734676719">
        <ele>923.47997999999995</ele>
        <time>2017-06-14T09:04:00Z</time>
      </trkpt>
      <trkpt lat="41.893086237832904" lon="13.178477017208934">
        <ele>924.93005400000004</ele>
        <time>2017-06-14T09:04:10Z</time>
      </trkpt>
      <trkpt lat="41.893049441277981" lon="13.178593693301082">
        <ele>926.84997599999997</ele>
        <time>2017-06-14T09:04:21Z</time>
      </trkpt>
      <trkpt lat="41.893032761290669" lon="13.178638536483049">
        <ele>927.32995600000004</ele>
        <time>2017-06-14T09:04:25Z</time>
      </trkpt>
      <trkpt lat="41.893015997484326" lon="13.178699305281043">
        <ele>929.25</ele>
        <time>2017-06-14T09:04:36Z</time>
      </trkpt>
      <trkpt lat="41.893007531762123" lon="13.178716823458672">
        <ele>929.25</ele>
        <time>2017-06-14T09:04:40Z</time>
      </trkpt>
      <trkpt lat="41.892984732985497" lon="13.178745908662677">
        <ele>929.72997999999995</ele>
        <time>2017-06-14T09:04:44Z</time>
      </trkpt>
      <trkpt lat="41.892986828461289" lon="13.178840205073357">
        <ele>930.69000200000005</ele>
        <time>2017-06-14T09:04:53Z</time>
      </trkpt>
      <trkpt lat="41.892974339425564" lon="13.178966185078025">
        <ele>931.65002400000003</ele>
        <time>2017-06-14T09:05:04Z</time>
      </trkpt>
      <trkpt lat="41.892972076311707" lon="13.178981691598892">
        <ele>930.69000200000005</ele>
        <time>2017-06-14T09:05:05Z</time>
      </trkpt>
      <trkpt lat="41.892931759357452" lon="13.179167434573174">
        <ele>929.72997999999995</ele>
        <time>2017-06-14T09:05:18Z</time>
      </trkpt>
      <trkpt lat="41.892905440181494" lon="13.179348818957806">
        <ele>929.72997999999995</ele>
        <time>2017-06-14T09:05:29Z</time>
      </trkpt>
      <trkpt lat="41.892938213422894" lon="13.179428363218904">
        <ele>929.72997999999995</ele>
        <time>2017-06-14T09:05:36Z</time>
      </trkpt>
      <trkpt lat="41.892926227301359" lon="13.179516289383173">
        <ele>929.72997999999995</ele>
        <time>2017-06-14T09:05:42Z</time>
      </trkpt>
      <trkpt lat="41.892901081591845" lon="13.179559959098697">
        <ele>931.17004399999996</ele>
        <time>2017-06-14T09:05:45Z</time>
      </trkpt>
      <trkpt lat="41.892897225916386" lon="13.179637240245938">
        <ele>931.17004399999996</ele>
        <time>2017-06-14T09:05:50Z</time>
      </trkpt>
      <trkpt lat="41.89295019954443" lon="13.179762465879321">
        <ele>932.14001499999995</ele>
        <time>2017-06-14T09:05:59Z</time>
      </trkpt>
      <trkpt lat="41.892976183444262" lon="13.179862964898348">
        <ele>934.05999799999995</ele>
        <time>2017-06-14T09:06:07Z</time>
      </trkpt>
      <trkpt lat="41.89298246987164" lon="13.179874699562788">
        <ele>934.05999799999995</ele>
        <time>2017-06-14T09:06:08Z</time>
      </trkpt>
      <trkpt lat="41.893024882301688" lon="13.179992213845253">
        <ele>934.05999799999995</ele>
        <time>2017-06-14T09:06:20Z</time>
      </trkpt>
      <trkpt lat="41.893064193427563" lon="13.180146776139736">
        <ele>934.05999799999995</ele>
        <time>2017-06-14T09:06:31Z</time>
      </trkpt>
      <trkpt lat="41.893106019124389" lon="13.180247526615858">
        <ele>932.61999500000002</ele>
        <time>2017-06-14T09:06:38Z</time>
      </trkpt>
      <trkpt lat="41.893158992752433" lon="13.180488925427198">
        <ele>932.14001499999995</ele>
        <time>2017-06-14T09:06:52Z</time>
      </trkpt>
      <trkpt lat="41.89320526085794" lon="13.18069763481617">
        <ele>933.10003700000004</ele>
        <time>2017-06-14T09:07:06Z</time>
      </trkpt>
      <trkpt lat="41.893280111253262" lon="13.180864434689283">
        <ele>935.01995799999997</ele>
        <time>2017-06-14T09:07:20Z</time>
      </trkpt>
      <trkpt lat="41.893291175365448" lon="13.180895699188113">
        <ele>935.50006099999996</ele>
        <time>2017-06-14T09:07:22Z</time>
      </trkpt>
      <trkpt lat="41.893311375752091" lon="13.18096099421382">
        <ele>936.45996100000002</ele>
        <time>2017-06-14T09:07:28Z</time>
      </trkpt>
      <trkpt lat="41.893367534503341" lon="13.181123603135347">
        <ele>939.34997599999997</ele>
        <time>2017-06-14T09:07:43Z</time>
      </trkpt>
      <trkpt lat="41.893397625535727" lon="13.181188479065895">
        <ele>939.82995600000004</ele>
        <time>2017-06-14T09:07:49Z</time>
      </trkpt>
      <trkpt lat="41.893478259444237" lon="13.181232986971736">
        <ele>942.22997999999995</ele>
        <time>2017-06-14T09:08:01Z</time>
      </trkpt>
      <trkpt lat="41.893481779843569" lon="13.181379837915301">
        <ele>944.62994400000002</ele>
        <time>2017-06-14T09:08:15Z</time>
      </trkpt>
      <trkpt lat="41.893500639125705" lon="13.181511936709285">
        <ele>947.04003899999998</ele>
        <time>2017-06-14T09:08:28Z</time>
      </trkpt>
      <trkpt lat="41.893504830077291" lon="13.181573040783405">
        <ele>947.51995799999997</ele>
        <time>2017-06-14T09:08:34Z</time>
      </trkpt>
      <trkpt lat="41.893497034907341" lon="13.181733638048172">
        <ele>949.44000200000005</ele>
        <time>2017-06-14T09:08:49Z</time>
      </trkpt>
      <trkpt lat="41.893482534214854" lon="13.18185031414032">
        <ele>950.88000499999998</ele>
        <time>2017-06-14T09:09:02Z</time>
      </trkpt>
      <trkpt lat="41.89345302991569" lon="13.181982664391398">
        <ele>951.84002699999996</ele>
        <time>2017-06-14T09:09:14Z</time>
      </trkpt>
      <trkpt lat="41.893407600000501" lon="13.182081989943981">
        <ele>952.79998799999998</ele>
        <time>2017-06-14T09:09:25Z</time>
      </trkpt>
      <trkpt lat="41.893332665786147" lon="13.182200761511922">
        <ele>954.25</ele>
        <time>2017-06-14T09:09:36Z</time>
      </trkpt>
      <trkpt lat="41.893250774592161" lon="13.182311737909913">
        <ele>955.69000200000005</ele>
        <time>2017-06-14T09:09:48Z</time>
      </trkpt>
      <trkpt lat="41.893226215615869" lon="13.182359682396054">
        <ele>956.17004399999996</ele>
        <time>2017-06-14T09:09:53Z</time>
      </trkpt>
      <trkpt lat="41.893259072676301" lon="13.182464204728603">
        <ele>957.60998500000005</ele>
        <time>2017-06-14T09:10:06Z</time>
      </trkpt>
      <trkpt lat="41.89326929859817" lon="13.182610804215074">
        <ele>959.52996800000005</ele>
        <time>2017-06-14T09:10:19Z</time>
      </trkpt>
      <trkpt lat="41.893272902816534" lon="13.182634860277176">
        <ele>959.52996800000005</ele>
        <time>2017-06-14T09:10:21Z</time>
      </trkpt>
      <trkpt lat="41.893270807340741" lon="13.182781711220741">
        <ele>961.94000200000005</ele>
        <time>2017-06-14T09:10:34Z</time>
      </trkpt>
      <trkpt lat="41.893274495378137" lon="13.182880030944943">
        <ele>962.419983</ele>
        <time>2017-06-14T09:10:45Z</time>
      </trkpt>
      <trkpt lat="41.893283212557435" lon="13.182904673740268">
        <ele>963.38000499999998</ele>
        <time>2017-06-14T09:10:50Z</time>
      </trkpt>
      <trkpt lat="41.893285475671291" lon="13.182929735630751">
        <ele>963.38000499999998</ele>
        <time>2017-06-14T09:10:53Z</time>
      </trkpt>
      <trkpt lat="41.893300814554095" lon="13.182968460023403">
        <ele>964.34002699999996</ele>
        <time>2017-06-14T09:10:57Z</time>
      </trkpt>
      <trkpt lat="41.893305759876966" lon="13.183001736178994">
        <ele>964.82000700000003</ele>
        <time>2017-06-14T09:11:00Z</time>
      </trkpt>
      <trkpt lat="41.893305340781808" lon="13.183051524683833">
        <ele>964.82000700000003</ele>
        <time>2017-06-14T09:11:04Z</time>
      </trkpt>
      <trkpt lat="41.893297461792827" lon="13.183075832203031">
        <ele>966.25994900000001</ele>
        <time>2017-06-14T09:11:06Z</time>
      </trkpt>
      <trkpt lat="41.893259659409523" lon="13.183249589055777">
        <ele>966.74005099999999</ele>
        <time>2017-06-14T09:11:19Z</time>
      </trkpt>
      <trkpt lat="41.893266616389155" lon="13.183361571282148">
        <ele>966.74005099999999</ele>
        <time>2017-06-14T09:11:28Z</time>
      </trkpt>
      <trkpt lat="41.89334842376411" lon="13.183485539630055">
        <ele>967.69995100000006</ele>
        <time>2017-06-14T09:11:42Z</time>
      </trkpt>
      <trkpt lat="41.893439032137394" lon="13.183586541563272">
        <ele>968.67004399999996</ele>
        <time>2017-06-14T09:11:57Z</time>
      </trkpt>
      <trkpt lat="41.893473314121366" lon="13.183617722243071">
        <ele>969.15002400000003</ele>
        <time>2017-06-14T09:12:00Z</time>
      </trkpt>
      <trkpt lat="41.893580770120025" lon="13.18369098007679">
        <ele>969.62994400000002</ele>
        <time>2017-06-14T09:12:10Z</time>
      </trkpt>
      <trkpt lat="41.893621003255248" lon="13.183775302022696">
        <ele>970.10998500000005</ele>
        <time>2017-06-14T09:12:18Z</time>
      </trkpt>
      <trkpt lat="41.893639862537384" lon="13.18390991538763">
        <ele>970.10998500000005</ele>
        <time>2017-06-14T09:12:28Z</time>
      </trkpt>
      <trkpt lat="41.893642628565431" lon="13.183975126594305">
        <ele>971.54998799999998</ele>
        <time>2017-06-14T09:12:33Z</time>
      </trkpt>
      <trkpt lat="41.893646232783794" lon="13.184037068858743">
        <ele>971.54998799999998</ele>
        <time>2017-06-14T09:12:37Z</time>
      </trkpt>
      <trkpt lat="41.893628211691976" lon="13.184084761887789">
        <ele>972.02996800000005</ele>
        <time>2017-06-14T09:12:41Z</time>
      </trkpt>
      <trkpt lat="41.893604239448905" lon="13.184116361662745">
        <ele>972.02996800000005</ele>
        <time>2017-06-14T09:12:45Z</time>
      </trkpt>
      <trkpt lat="41.893585799261928" lon="13.184134382754564">
        <ele>972.02996800000005</ele>
        <time>2017-06-14T09:12:47Z</time>
      </trkpt>
      <trkpt lat="41.893572388216853" lon="13.184197582304478">
        <ele>972.51000999999997</ele>
        <time>2017-06-14T09:12:52Z</time>
      </trkpt>
      <trkpt lat="41.89360398799181" lon="13.184347786009312">
        <ele>974.910034</ele>
        <time>2017-06-14T09:13:07Z</time>
      </trkpt>
      <trkpt lat="41.893613794818521" lon="13.184485416859388">
        <ele>976.35998500000005</ele>
        <time>2017-06-14T09:13:19Z</time>
      </trkpt>
      <trkpt lat="41.893601138144732" lon="13.184575606137514">
        <ele>976.84002699999996</ele>
        <time>2017-06-14T09:13:26Z</time>
      </trkpt>
      <trkpt lat="41.893604658544064" lon="13.184716003015637">
        <ele>977.80004899999994</ele>
        <time>2017-06-14T09:13:38Z</time>
      </trkpt>
      <trkpt lat="41.893650172278285" lon="13.184814071282744">
        <ele>979.71997099999999</ele>
        <time>2017-06-14T09:13:48Z</time>
      </trkpt>
      <trkpt lat="41.893669534474611" lon="13.184862434864044">
        <ele>979.71997099999999</ele>
        <time>2017-06-14T09:13:53Z</time>
      </trkpt>
      <trkpt lat="41.893673138692975" lon="13.184910379350185">
        <ele>980.19995100000006</ele>
        <time>2017-06-14T09:13:57Z</time>
      </trkpt>
      <trkpt lat="41.893664337694645" lon="13.185032838955522">
        <ele>982.59997599999997</ele>
        <time>2017-06-14T09:14:09Z</time>
      </trkpt>
      <trkpt lat="41.893649166449904" lon="13.185097966343164">
        <ele>984.04998799999998</ele>
        <time>2017-06-14T09:14:15Z</time>
      </trkpt>
      <trkpt lat="41.893610274419188" lon="13.185189832001925">
        <ele>985.48999000000003</ele>
        <time>2017-06-14T09:14:23Z</time>
      </trkpt>
      <trkpt lat="41.893587727099657" lon="13.185236770659685">
        <ele>985.48999000000003</ele>
        <time>2017-06-14T09:14:27Z</time>
      </trkpt>
      <trkpt lat="41.89356978982687" lon="13.185333414003253">
        <ele>987.410034</ele>
        <time>2017-06-14T09:14:36Z</time>
      </trkpt>
      <trkpt lat="41.893591163679957" lon="13.185461405664682">
        <ele>987.89001499999995</ele>
        <time>2017-06-14T09:14:48Z</time>
      </trkpt>
      <trkpt lat="41.893596528097987" lon="13.185460902750492">
        <ele>987.89001499999995</ele>
        <time>2017-06-14T09:14:49Z</time>
      </trkpt>
      <trkpt lat="41.893648663535714" lon="13.185479259118438">
        <ele>989.32995600000004</ele>
        <time>2017-06-14T09:15:00Z</time>
      </trkpt>
      <trkpt lat="41.893699960783124" lon="13.185530724003911">
        <ele>990.78002900000001</ele>
        <time>2017-06-14T09:15:13Z</time>
      </trkpt>
      <trkpt lat="41.893762405961752" lon="13.185585290193558">
        <ele>992.21997099999999</ele>
        <time>2017-06-14T09:15:21Z</time>
      </trkpt>
      <trkpt lat="41.893849326297641" lon="13.185675982385874">
        <ele>994.61999500000002</ele>
        <time>2017-06-14T09:15:33Z</time>
      </trkpt>
      <trkpt lat="41.893868269398808" lon="13.18571194075048">
        <ele>994.61999500000002</ele>
        <time>2017-06-14T09:15:38Z</time>
      </trkpt>
      <trkpt lat="41.893910933285952" lon="13.185737673193216">
        <ele>994.61999500000002</ele>
        <time>2017-06-14T09:15:43Z</time>
      </trkpt>
      <trkpt lat="41.893936414271593" lon="13.185779331251979">
        <ele>995.09997599999997</ele>
        <time>2017-06-14T09:15:47Z</time>
      </trkpt>
      <trkpt lat="41.893960637971759" lon="13.185798861086369">
        <ele>995.580017</ele>
        <time>2017-06-14T09:15:49Z</time>
      </trkpt>
      <trkpt lat="41.894083935767412" lon="13.185974881052971">
        <ele>993.65997300000004</ele>
        <time>2017-06-14T09:16:04Z</time>
      </trkpt>
      <trkpt lat="41.894153086468577" lon="13.186127431690693">
        <ele>993.65997300000004</ele>
        <time>2017-06-14T09:16:17Z</time>
      </trkpt>
      <trkpt lat="41.894168928265572" lon="13.186150062829256">
        <ele>993.65997300000004</ele>
        <time>2017-06-14T09:16:19Z</time>
      </trkpt>
      <trkpt lat="41.894235564395785" lon="13.186289286240935">
        <ele>993.65997300000004</ele>
        <time>2017-06-14T09:16:32Z</time>
      </trkpt>
      <trkpt lat="41.894331537187099" lon="13.186468239873648">
        <ele>993.65997300000004</ele>
        <time>2017-06-14T09:16:46Z</time>
      </trkpt>
      <trkpt lat="41.894351318478584" lon="13.186485338956118">
        <ele>993.65997300000004</ele>
        <time>2017-06-14T09:16:49Z</time>
      </trkpt>
      <trkpt lat="41.894369591027498" lon="13.18654065951705">
        <ele>995.09997599999997</ele>
        <time>2017-06-14T09:16:52Z</time>
      </trkpt>
      <trkpt lat="41.894389037042856" lon="13.186708632856607">
        <ele>995.09997599999997</ele>
        <time>2017-06-14T09:17:06Z</time>
      </trkpt>
      <trkpt lat="41.894394485279918" lon="13.186856405809522">
        <ele>993.65997300000004</ele>
        <time>2017-06-14T09:17:15Z</time>
      </trkpt>
      <trkpt lat="41.894375374540687" lon="13.186976686120033">
        <ele>993.65997300000004</ele>
        <time>2017-06-14T09:17:22Z</time>
      </trkpt>
      <trkpt lat="41.894374284893274" lon="13.187133092433214">
        <ele>992.69995100000006</ele>
        <time>2017-06-14T09:17:32Z</time>
      </trkpt>
      <trkpt lat="41.894374117255211" lon="13.187193274497986">
        <ele>992.21997099999999</ele>
        <time>2017-06-14T09:17:35Z</time>
      </trkpt>
      <trkpt lat="41.894386941567063" lon="13.187259994447231">
        <ele>992.21997099999999</ele>
        <time>2017-06-14T09:17:41Z</time>
      </trkpt>
      <trkpt lat="41.894404627382755" lon="13.187406593933702">
        <ele>991.74005099999999</ele>
        <time>2017-06-14T09:17:51Z</time>
      </trkpt>
      <trkpt lat="41.894511831924319" lon="13.187623517587781">
        <ele>991.25994900000001</ele>
        <time>2017-06-14T09:18:07Z</time>
      </trkpt>
      <trkpt lat="41.894548879936337" lon="13.18769283592701">
        <ele>991.25994900000001</ele>
        <time>2017-06-14T09:18:13Z</time>
      </trkpt>
      <trkpt lat="41.894676787778735" lon="13.18784580565989">
        <ele>991.25994900000001</ele>
        <time>2017-06-14T09:18:28Z</time>
      </trkpt>
      <trkpt lat="41.894767815247178" lon="13.187886625528336">
        <ele>992.21997099999999</ele>
        <time>2017-06-14T09:18:37Z</time>
      </trkpt>
      <trkpt lat="41.894781561568379" lon="13.187948064878583">
        <ele>993.17999299999997</ele>
        <time>2017-06-14T09:18:43Z</time>
      </trkpt>
      <trkpt lat="41.89473470672965" lon="13.18806423805654">
        <ele>994.61999500000002</ele>
        <time>2017-06-14T09:18:55Z</time>
      </trkpt>
      <trkpt lat="41.894718781113625" lon="13.188107404857874">
        <ele>996.05999799999995</ele>
        <time>2017-06-14T09:18:58Z</time>
      </trkpt>
      <trkpt lat="41.8946423381567" lon="13.188202036544681">
        <ele>997.02002000000005</ele>
        <time>2017-06-14T09:19:11Z</time>
      </trkpt>
      <trkpt lat="41.894538821652532" lon="13.188285017386079">
        <ele>998.95001200000002</ele>
        <time>2017-06-14T09:19:24Z</time>
      </trkpt>
      <trkpt lat="41.894518034532666" lon="13.18830756470561">
        <ele>999.910034</ele>
        <time>2017-06-14T09:19:26Z</time>
      </trkpt>
      <trkpt lat="41.894483836367726" lon="13.188328435644507">
        <ele>999.910034</ele>
        <time>2017-06-14T09:19:30Z</time>
      </trkpt>
      <trkpt lat="41.894433377310634" lon="13.188331034034491">
        <ele>1000.870056</ele>
        <time>2017-06-14T09:19:34Z</time>
      </trkpt>
      <trkpt lat="41.894393060356379" lon="13.188342433422804">
        <ele>1000.870056</ele>
        <time>2017-06-14T09:19:38Z</time>
      </trkpt>
      <trkpt lat="41.89424310810864" lon="13.188334135338664">
        <ele>1002.789978</ele>
        <time>2017-06-14T09:19:51Z</time>
      </trkpt>
      <trkpt lat="41.89419231377542" lon="13.18838769569993">
        <ele>1004.719971</ele>
        <time>2017-06-14T09:20:04Z</time>
      </trkpt>
      <trkpt lat="41.894160211086273" lon="13.188386438414454">
        <ele>1004.719971</ele>
        <time>2017-06-14T09:20:21Z</time>
      </trkpt>
      <trkpt lat="41.894169598817825" lon="13.188397586345673">
        <ele>1004.719971</ele>
        <time>2017-06-14T09:20:33Z</time>
      </trkpt>
      <trkpt lat="41.894172867760062" lon="13.188418876379728">
        <ele>1005.1999510000001</ele>
        <time>2017-06-14T09:20:37Z</time>
      </trkpt>
      <trkpt lat="41.89421134069562" lon="13.18858022801578">
        <ele>1006.6400149999999</ele>
        <time>2017-06-14T09:20:51Z</time>
      </trkpt>
      <trkpt lat="41.894268840551376" lon="13.188798408955336">
        <ele>1007.599976</ele>
        <time>2017-06-14T09:21:05Z</time>
      </trkpt>
      <trkpt lat="41.894322820007801" lon="13.188936123624444">
        <ele>1008.080017</ele>
        <time>2017-06-14T09:21:17Z</time>
      </trkpt>
      <trkpt lat="41.894347295165062" lon="13.18905808031559">
        <ele>1008.559998</ele>
        <time>2017-06-14T09:21:27Z</time>
      </trkpt>
      <trkpt lat="41.894350564107299" lon="13.189256396144629">
        <ele>1008.559998</ele>
        <time>2017-06-14T09:21:44Z</time>
      </trkpt>
      <trkpt lat="41.894351318478584" lon="13.189338874071836">
        <ele>1008.080017</ele>
        <time>2017-06-14T09:21:56Z</time>
      </trkpt>
      <trkpt lat="41.894278982654214" lon="13.189492095261812">
        <ele>1006.159973</ele>
        <time>2017-06-14T09:22:07Z</time>
      </trkpt>
      <trkpt lat="41.894191559404135" lon="13.189779259264469">
        <ele>1005.679993</ele>
        <time>2017-06-14T09:22:23Z</time>
      </trkpt>
      <trkpt lat="41.894104722887278" lon="13.190025603398681">
        <ele>1004.719971</ele>
        <time>2017-06-14T09:22:39Z</time>
      </trkpt>
      <trkpt lat="41.894066333770752" lon="13.19026255980134">
        <ele>1007.119995</ele>
        <time>2017-06-14T09:22:54Z</time>
      </trkpt>
      <trkpt lat="41.894005481153727" lon="13.190495241433382">
        <ele>1007.599976</ele>
        <time>2017-06-14T09:23:09Z</time>
      </trkpt>
      <trkpt lat="41.89401788637042" lon="13.190624406561255">
        <ele>1006.159973</ele>
        <time>2017-06-14T09:23:18Z</time>
      </trkpt>
      <trkpt lat="41.894037835299969" lon="13.190698837861419">
        <ele>1006.159973</ele>
        <time>2017-06-14T09:23:24Z</time>
      </trkpt>
      <trkpt lat="41.894106734544039" lon="13.190831104293466">
        <ele>1006.159973</ele>
        <time>2017-06-14T09:23:39Z</time>
      </trkpt>
      <trkpt lat="41.894158618524671" lon="13.190971668809652">
        <ele>1006.159973</ele>
        <time>2017-06-14T09:23:50Z</time>
      </trkpt>
      <trkpt lat="41.894214525818825" lon="13.19119487889111">
        <ele>1004.22998</ele>
        <time>2017-06-14T09:24:05Z</time>
      </trkpt>
      <trkpt lat="41.894257441163063" lon="13.191362265497446">
        <ele>1004.22998</ele>
        <time>2017-06-14T09:24:14Z</time>
      </trkpt>
      <trkpt lat="41.894293064251542" lon="13.191422363743186">
        <ele>1005.679993</ele>
        <time>2017-06-14T09:24:19Z</time>
      </trkpt>
      <trkpt lat="41.894308989867568" lon="13.191444659605622">
        <ele>1006.159973</ele>
        <time>2017-06-14T09:24:22Z</time>
      </trkpt>
      <trkpt lat="41.89440730959177" lon="13.191604083403945">
        <ele>1008.559998</ele>
        <time>2017-06-14T09:24:36Z</time>
      </trkpt>
      <trkpt lat="41.894421810284257" lon="13.191747162491083">
        <ele>1008.559998</ele>
        <time>2017-06-14T09:24:45Z</time>
      </trkpt>
      <trkpt lat="41.894388617947698" lon="13.191946819424629">
        <ele>1009.999939</ele>
        <time>2017-06-14T09:24:58Z</time>
      </trkpt>
      <trkpt lat="41.894277641549706" lon="13.19206366315484">
        <ele>1013.370056</ele>
        <time>2017-06-14T09:25:11Z</time>
      </trkpt>
      <trkpt lat="41.894173035398126" lon="13.192140189930797">
        <ele>1015.289978</ele>
        <time>2017-06-14T09:25:25Z</time>
      </trkpt>
      <trkpt lat="41.894103130325675" lon="13.192218393087387">
        <ele>1017.690002</ele>
        <time>2017-06-14T09:25:37Z</time>
      </trkpt>
      <trkpt lat="41.894006989896297" lon="13.192326603457332">
        <ele>1019.130005</ele>
        <time>2017-06-14T09:25:51Z</time>
      </trkpt>
      <trkpt lat="41.894004140049219" lon="13.192357365041971">
        <ele>1020.099976</ele>
        <time>2017-06-14T09:25:54Z</time>
      </trkpt>
      <trkpt lat="41.893988633528352" lon="13.192507233470678">
        <ele>1021.540039</ele>
        <time>2017-06-14T09:26:06Z</time>
      </trkpt>
      <trkpt lat="41.893979329615831" lon="13.192588202655315">
        <ele>1022.02002</ele>
        <time>2017-06-14T09:26:18Z</time>
      </trkpt>
      <trkpt lat="41.893979916349053" lon="13.192597590386868">
        <ele>1022.02002</ele>
        <time>2017-06-14T09:26:24Z</time>
      </trkpt>
      <trkpt lat="41.893981341272593" lon="13.192792888730764">
        <ele>1022.02002</ele>
        <time>2017-06-14T09:26:38Z</time>
      </trkpt>
      <trkpt lat="41.893980838358402" lon="13.192808730527759">
        <ele>1022.02002</ele>
        <time>2017-06-14T09:26:39Z</time>
      </trkpt>
      <trkpt lat="41.893968265503645" lon="13.192879725247622">
        <ele>1022.02002</ele>
        <time>2017-06-14T09:26:43Z</time>
      </trkpt>
      <trkpt lat="41.893943706527352" lon="13.193070162087679">
        <ele>1020.580017</ele>
        <time>2017-06-14T09:26:56Z</time>
      </trkpt>
      <trkpt lat="41.893876064568758" lon="13.193286415189505">
        <ele>1020.580017</ele>
        <time>2017-06-14T09:27:11Z</time>
      </trkpt>
      <trkpt lat="41.893860306590796" lon="13.193376017734408">
        <ele>1022.02002</ele>
        <time>2017-06-14T09:27:16Z</time>
      </trkpt>
      <trkpt lat="41.893809596076608" lon="13.193613812327385">
        <ele>1022.499939</ele>
        <time>2017-06-14T09:27:30Z</time>
      </trkpt>
      <trkpt lat="41.89378771930933" lon="13.19376946426928">
        <ele>1022.499939</ele>
        <time>2017-06-14T09:27:40Z</time>
      </trkpt>
      <trkpt lat="41.893773134797812" lon="13.193920170888305">
        <ele>1022.980042</ele>
        <time>2017-06-14T09:27:51Z</time>
      </trkpt>
      <trkpt lat="41.893776822835207" lon="13.193977335467935">
        <ele>1022.980042</ele>
        <time>2017-06-14T09:27:55Z</time>
      </trkpt>
      <trkpt lat="41.893782606348395" lon="13.194205993786454">
        <ele>1024.900024</ele>
        <time>2017-06-14T09:28:10Z</time>
      </trkpt>
      <trkpt lat="41.893770536407828" lon="13.194325184449553">
        <ele>1025.380005</ele>
        <time>2017-06-14T09:28:23Z</time>
      </trkpt>
      <trkpt lat="41.893761400133371" lon="13.194475974887609">
        <ele>1025.8599850000001</ele>
        <time>2017-06-14T09:28:34Z</time>
      </trkpt>
      <trkpt lat="41.893756790086627" lon="13.194664819166064">
        <ele>1026.829956</ele>
        <time>2017-06-14T09:28:47Z</time>
      </trkpt>
      <trkpt lat="41.893763663247228" lon="13.194854920729995">
        <ele>1028.75</ele>
        <time>2017-06-14T09:29:02Z</time>
      </trkpt>
      <trkpt lat="41.893753437325358" lon="13.195048039779067">
        <ele>1028.75</ele>
        <time>2017-06-14T09:29:16Z</time>
      </trkpt>
      <trkpt lat="41.893757125362754" lon="13.195256497710943">
        <ele>1028.75</ele>
        <time>2017-06-14T09:29:29Z</time>
      </trkpt>
      <trkpt lat="41.893733236938715" lon="13.195348866283894">
        <ele>1027.3100589999999</ele>
        <time>2017-06-14T09:29:36Z</time>
      </trkpt>
      <trkpt lat="41.893734661862254" lon="13.195365965366364">
        <ele>1027.3100589999999</ele>
        <time>2017-06-14T09:29:37Z</time>
      </trkpt>
      <trkpt lat="41.893744384869933" lon="13.19542639888823">
        <ele>1026.829956</ele>
        <time>2017-06-14T09:29:40Z</time>
      </trkpt>
      <trkpt lat="41.893717814236879" lon="13.195518935099244">
        <ele>1026.3400879999999</ele>
        <time>2017-06-14T09:29:48Z</time>
      </trkpt>
      <trkpt lat="41.893672635778785" lon="13.19556076079607">
        <ele>1025.380005</ele>
        <time>2017-06-14T09:29:52Z</time>
      </trkpt>
      <trkpt lat="41.893627541139722" lon="13.195620607584715">
        <ele>1024.900024</ele>
        <time>2017-06-14T09:29:57Z</time>
      </trkpt>
      <trkpt lat="41.89347255975008" lon="13.195836693048477">
        <ele>1023.940002</ele>
        <time>2017-06-14T09:30:14Z</time>
      </trkpt>
      <trkpt lat="41.893394021317363" lon="13.196034673601389">
        <ele>1023.940002</ele>
        <time>2017-06-14T09:30:29Z</time>
      </trkpt>
      <trkpt lat="41.893374659121037" lon="13.196072811260819">
        <ele>1025.380005</ele>
        <time>2017-06-14T09:30:32Z</time>
      </trkpt>
      <trkpt lat="41.893353620544076" lon="13.196124779060483">
        <ele>1025.380005</ele>
        <time>2017-06-14T09:30:37Z</time>
      </trkpt>
      <trkpt lat="41.893357979133725" lon="13.196223685517907">
        <ele>1025.380005</ele>
        <time>2017-06-14T09:30:53Z</time>
      </trkpt>
      <trkpt lat="41.893283883109689" lon="13.196258218958974">
        <ele>1025.380005</ele>
        <time>2017-06-14T09:31:21Z</time>
      </trkpt>
      <trkpt lat="41.893279608339071" lon="13.196256458759308">
        <ele>1025.380005</ele>
        <time>2017-06-14T09:31:29Z</time>
      </trkpt>
      <trkpt lat="41.893358565866947" lon="13.196352515369654">
        <ele>1025.380005</ele>
        <time>2017-06-14T09:31:40Z</time>
      </trkpt>
      <trkpt lat="41.893448838964105" lon="13.196541024371982">
        <ele>1025.380005</ele>
        <time>2017-06-14T09:31:56Z</time>
      </trkpt>
      <trkpt lat="41.893461914733052" lon="13.196574887260795">
        <ele>1024.420044</ele>
        <time>2017-06-14T09:32:28Z</time>
      </trkpt>
      <trkpt lat="41.893433416262269" lon="13.196596261113882">
        <ele>1024.420044</ele>
        <time>2017-06-14T09:32:46Z</time>
      </trkpt>
      <trkpt lat="41.893422268331051" lon="13.196572540327907">
        <ele>1024.420044</ele>
        <time>2017-06-14T09:33:15Z</time>
      </trkpt>
      <trkpt lat="41.893404833972454" lon="13.19657220505178">
        <ele>1024.900024</ele>
        <time>2017-06-14T09:33:41Z</time>
      </trkpt>
      <trkpt lat="41.893397876992822" lon="13.19657564163208">
        <ele>1024.900024</ele>
        <time>2017-06-14T09:34:15Z</time>
      </trkpt>
      <trkpt lat="41.893398463726044" lon="13.196555273607373">
        <ele>1024.900024</ele>
        <time>2017-06-14T09:34:45Z</time>
      </trkpt>
      <trkpt lat="41.893427800387144" lon="13.196569187566638">
        <ele>1024.900024</ele>
        <time>2017-06-14T09:35:16Z</time>
      </trkpt>
      <trkpt lat="41.893436685204506" lon="13.196613695472479">
        <ele>1025.380005</ele>
        <time>2017-06-14T09:35:42Z</time>
      </trkpt>
      <trkpt lat="41.893472727388144" lon="13.196708662435412">
        <ele>1026.829956</ele>
        <time>2017-06-14T09:35:50Z</time>
      </trkpt>
      <trkpt lat="41.893454706296325" lon="13.196981996297836">
        <ele>1026.829956</ele>
        <time>2017-06-14T09:36:06Z</time>
      </trkpt>
      <trkpt lat="41.893454622477293" lon="13.197149215266109">
        <ele>1026.829956</ele>
        <time>2017-06-14T09:36:20Z</time>
      </trkpt>
      <trkpt lat="41.893470296636224" lon="13.197289360687137">
        <ele>1027.790039</ele>
        <time>2017-06-14T09:36:33Z</time>
      </trkpt>
      <trkpt lat="41.893469374626875" lon="13.197394218295813">
        <ele>1027.790039</ele>
        <time>2017-06-14T09:36:39Z</time>
      </trkpt>
      <trkpt lat="41.893487311899662" lon="13.197490777820349">
        <ele>1027.790039</ele>
        <time>2017-06-14T09:36:47Z</time>
      </trkpt>
      <trkpt lat="41.893502818420529" lon="13.197567807510495">
        <ele>1027.790039</ele>
        <time>2017-06-14T09:36:51Z</time>
      </trkpt>
      <trkpt lat="41.893554115667939" lon="13.197726141661406">
        <ele>1027.790039</ele>
        <time>2017-06-14T09:37:04Z</time>
      </trkpt>
      <trkpt lat="41.893656961619854" lon="13.197844661772251">
        <ele>1027.790039</ele>
        <time>2017-06-14T09:37:17Z</time>
      </trkpt>
      <trkpt lat="41.893683113157749" lon="13.197866538539529">
        <ele>1026.3400879999999</ele>
        <time>2017-06-14T09:37:19Z</time>
      </trkpt>
      <trkpt lat="41.893808422610164" lon="13.198053706437349">
        <ele>1024.900024</ele>
        <time>2017-06-14T09:37:35Z</time>
      </trkpt>
      <trkpt lat="41.893930463120341" lon="13.198208436369896">
        <ele>1023.940002</ele>
        <time>2017-06-14T09:37:46Z</time>
      </trkpt>
      <trkpt lat="41.893967259675264" lon="13.198262164369226">
        <ele>1024.420044</ele>
        <time>2017-06-14T09:37:50Z</time>
      </trkpt>
      <trkpt lat="41.894075889140368" lon="13.198431059718132">
        <ele>1024.900024</ele>
        <time>2017-06-14T09:38:04Z</time>
      </trkpt>
      <trkpt lat="41.894142609089613" lon="13.198604313656688">
        <ele>1025.380005</ele>
        <time>2017-06-14T09:38:15Z</time>
      </trkpt>
      <trkpt lat="41.894233804196119" lon="13.198784440755844">
        <ele>1024.420044</ele>
        <time>2017-06-14T09:38:29Z</time>
      </trkpt>
      <trkpt lat="41.894335392862558" lon="13.19895233027637">
        <ele>1024.420044</ele>
        <time>2017-06-14T09:38:43Z</time>
      </trkpt>
      <trkpt lat="41.894417786970735" lon="13.199106641113758">
        <ele>1022.499939</ele>
        <time>2017-06-14T09:38:58Z</time>
      </trkpt>
      <trkpt lat="41.894432120025158" lon="13.199141090735793">
        <ele>1022.02002</ele>
        <time>2017-06-14T09:39:01Z</time>
      </trkpt>
      <trkpt lat="41.894441340118647" lon="13.199356673285365">
        <ele>1021.059998</ele>
        <time>2017-06-14T09:39:13Z</time>
      </trkpt>
      <trkpt lat="41.894414182752371" lon="13.199456417933106">
        <ele>1021.059998</ele>
        <time>2017-06-14T09:39:17Z</time>
      </trkpt>
      <trkpt lat="41.894382834434509" lon="13.199546858668327">
        <ele>1022.499939</ele>
        <time>2017-06-14T09:39:21Z</time>
      </trkpt>
      <trkpt lat="41.894236234948039" lon="13.199598994106054">
        <ele>1024.900024</ele>
        <time>2017-06-14T09:39:36Z</time>
      </trkpt>
      <trkpt lat="41.894094161689281" lon="13.199591534212232">
        <ele>1027.3100589999999</ele>
        <time>2017-06-14T09:39:51Z</time>
      </trkpt>
      <trkpt lat="41.893986035138369" lon="13.199592037126422">
        <ele>1028.75</ele>
        <time>2017-06-14T09:40:03Z</time>
      </trkpt>
      <trkpt lat="41.893869778141379" lon="13.199618691578507">
        <ele>1032.1099850000001</ele>
        <time>2017-06-14T09:40:17Z</time>
      </trkpt>
      <trkpt lat="41.893809512257576" lon="13.199629336595535">
        <ele>1033.0699460000001</ele>
        <time>2017-06-14T09:40:31Z</time>
      </trkpt>
      <trkpt lat="41.893711108714342" lon="13.19968868046999">
        <ele>1034.5200199999999</ele>
        <time>2017-06-14T09:40:44Z</time>
      </trkpt>
      <trkpt lat="41.893706666305661" lon="13.199696894735098">
        <ele>1034.5200199999999</ele>
        <time>2017-06-14T09:40:45Z</time>
      </trkpt>
      <trkpt lat="41.89363231882453" lon="13.199777863919735">
        <ele>1036.920044</ele>
        <time>2017-06-14T09:40:56Z</time>
      </trkpt>
      <trkpt lat="41.893585463985801" lon="13.199831340461969">
        <ele>1037.880005</ele>
        <time>2017-06-14T09:41:10Z</time>
      </trkpt>
      <trkpt lat="41.893573896959424" lon="13.199900826439261">
        <ele>1039.3199460000001</ele>
        <time>2017-06-14T09:41:21Z</time>
      </trkpt>
      <trkpt lat="41.893560402095318" lon="13.200008533895016">
        <ele>1041.7299800000001</ele>
        <time>2017-06-14T09:41:34Z</time>
      </trkpt>
      <trkpt lat="41.893552858382463" lon="13.200110290199518">
        <ele>1043.169922</ele>
        <time>2017-06-14T09:41:44Z</time>
      </trkpt>
      <trkpt lat="41.893555875867605" lon="13.200142392888665">
        <ele>1043.169922</ele>
        <time>2017-06-14T09:41:47Z</time>
      </trkpt>
      <trkpt lat="41.893594516441226" lon="13.200272815302014">
        <ele>1044.6099850000001</ele>
        <time>2017-06-14T09:41:59Z</time>
      </trkpt>
      <trkpt lat="41.893726782873273" lon="13.200414637103677">
        <ele>1045.5699460000001</ele>
        <time>2017-06-14T09:42:14Z</time>
      </trkpt>
      <trkpt lat="41.89381118863821" lon="13.200520081445575">
        <ele>1046.530029</ele>
        <time>2017-06-14T09:42:26Z</time>
      </trkpt>
      <trkpt lat="41.893895929679275" lon="13.200647989287972">
        <ele>1047.969971</ele>
        <time>2017-06-14T09:42:39Z</time>
      </trkpt>
      <trkpt lat="41.893949070945382" lon="13.200817219913006">
        <ele>1049.900024</ele>
        <time>2017-06-14T09:42:52Z</time>
      </trkpt>
      <trkpt lat="41.893934234976768" lon="13.200881760567427">
        <ele>1050.380005</ele>
        <time>2017-06-14T09:42:57Z</time>
      </trkpt>
      <trkpt lat="41.893915375694633" lon="13.201049398630857">
        <ele>1052.780029</ele>
        <time>2017-06-14T09:43:10Z</time>
      </trkpt>
      <trkpt lat="41.89393968321383" lon="13.201086362823844">
        <ele>1052.780029</ele>
        <time>2017-06-14T09:43:15Z</time>
      </trkpt>
      <trkpt lat="41.894019227474928" lon="13.201200775802135">
        <ele>1053.26001</ele>
        <time>2017-06-14T09:43:28Z</time>
      </trkpt>
      <trkpt lat="41.894051162526011" lon="13.201236901804805">
        <ele>1052.780029</ele>
        <time>2017-06-14T09:43:33Z</time>
      </trkpt>
      <trkpt lat="41.894122241064906" lon="13.201349638402462">
        <ele>1050.380005</ele>
        <time>2017-06-14T09:43:44Z</time>
      </trkpt>
      <trkpt lat="41.894134730100632" lon="13.201432703062892">
        <ele>1049.420044</ele>
        <time>2017-06-14T09:43:59Z</time>
      </trkpt>
      <trkpt lat="41.89415467903018" lon="13.201469667255878">
        <ele>1049.420044</ele>
        <time>2017-06-14T09:44:03Z</time>
      </trkpt>
      <trkpt lat="41.894177813082933" lon="13.201515097171068">
        <ele>1049.420044</ele>
        <time>2017-06-14T09:44:06Z</time>
      </trkpt>
      <trkpt lat="41.894201366230845" lon="13.20153278298676">
        <ele>1049.420044</ele>
        <time>2017-06-14T09:44:08Z</time>
      </trkpt>
      <trkpt lat="41.894251825287938" lon="13.201722130179405">
        <ele>1049.420044</ele>
        <time>2017-06-14T09:44:21Z</time>
      </trkpt>
      <trkpt lat="41.894205724820495" lon="13.201837381348014">
        <ele>1049.420044</ele>
        <time>2017-06-14T09:44:29Z</time>
      </trkpt>
      <trkpt lat="41.894180160015821" lon="13.201988507062197">
        <ele>1050.380005</ele>
        <time>2017-06-14T09:44:37Z</time>
      </trkpt>
      <trkpt lat="41.894167335703969" lon="13.202049862593412">
        <ele>1050.380005</ele>
        <time>2017-06-14T09:44:42Z</time>
      </trkpt>
      <trkpt lat="41.894169431179762" lon="13.202084982767701">
        <ele>1050.8599850000001</ele>
        <time>2017-06-14T09:44:44Z</time>
      </trkpt>
      <trkpt lat="41.894166329875588" lon="13.202182464301586">
        <ele>1050.8599850000001</ele>
        <time>2017-06-14T09:44:49Z</time>
      </trkpt>
      <trkpt lat="41.894171694293618" lon="13.20230676792562">
        <ele>1051.8199460000001</ele>
        <time>2017-06-14T09:44:59Z</time>
      </trkpt>
      <trkpt lat="41.894190805032849" lon="13.202432580292225">
        <ele>1054.219971</ele>
        <time>2017-06-14T09:45:08Z</time>
      </trkpt>
      <trkpt lat="41.894184602424502" lon="13.202614802867174">
        <ele>1057.589966</ele>
        <time>2017-06-14T09:45:24Z</time>
      </trkpt>
      <trkpt lat="41.894180830568075" lon="13.202627878636122">
        <ele>1057.589966</ele>
        <time>2017-06-14T09:45:25Z</time>
      </trkpt>
      <trkpt lat="41.894170688465238" lon="13.202687641605735">
        <ele>1058.5500489999999</ele>
        <time>2017-06-14T09:45:31Z</time>
      </trkpt>
      <trkpt lat="41.894138166680932" lon="13.202742459252477">
        <ele>1059.51001</ele>
        <time>2017-06-14T09:45:44Z</time>
      </trkpt>
      <trkpt lat="41.894137999042869" lon="13.202838264405727">
        <ele>1058.0699460000001</ele>
        <time>2017-06-14T09:45:58Z</time>
      </trkpt>
      <trkpt lat="41.894129700958729" lon="13.202864835038781">
        <ele>1058.0699460000001</ele>
        <time>2017-06-14T09:46:00Z</time>
      </trkpt>
      <trkpt lat="41.894060969352722" lon="13.202945636585355">
        <ele>1056.150024</ele>
        <time>2017-06-14T09:46:13Z</time>
      </trkpt>
      <trkpt lat="41.894043870270252" lon="13.202977320179343">
        <ele>1056.150024</ele>
        <time>2017-06-14T09:46:16Z</time>
      </trkpt>
      <trkpt lat="41.893994333222508" lon="13.203078573569655">
        <ele>1056.150024</ele>
        <time>2017-06-14T09:46:23Z</time>
      </trkpt>
      <trkpt lat="41.893934067338705" lon="13.203218467533588">
        <ele>1053.26001</ele>
        <time>2017-06-14T09:46:36Z</time>
      </trkpt>
      <trkpt lat="41.893924260511994" lon="13.203241433948278">
        <ele>1052.780029</ele>
        <time>2017-06-14T09:46:38Z</time>
      </trkpt>
      <trkpt lat="41.893921829760075" lon="13.203441761434078">
        <ele>1051.3400879999999</ele>
        <time>2017-06-14T09:46:52Z</time>
      </trkpt>
      <trkpt lat="41.893847901374102" lon="13.203520299866796">
        <ele>1047.969971</ele>
        <time>2017-06-14T09:47:03Z</time>
      </trkpt>
      <trkpt lat="41.893777493387461" lon="13.203660864382982">
        <ele>1044.6099850000001</ele>
        <time>2017-06-14T09:47:16Z</time>
      </trkpt>
      <trkpt lat="41.893762238323689" lon="13.203734122216702">
        <ele>1043.650024</ele>
        <time>2017-06-14T09:47:22Z</time>
      </trkpt>
      <trkpt lat="41.893751593306661" lon="13.203769661486149">
        <ele>1043.169922</ele>
        <time>2017-06-14T09:47:24Z</time>
      </trkpt>
      <trkpt lat="41.893754107877612" lon="13.20387183688581">
        <ele>1041.25</ele>
        <time>2017-06-14T09:47:32Z</time>
      </trkpt>
      <trkpt lat="41.893786797299981" lon="13.203942412510514">
        <ele>1039.799927</ele>
        <time>2017-06-14T09:47:38Z</time>
      </trkpt>
      <trkpt lat="41.893890565261245" lon="13.203986082226038">
        <ele>1037.400024</ele>
        <time>2017-06-14T09:47:54Z</time>
      </trkpt>
      <trkpt lat="41.893894001841545" lon="13.204067638143897">
        <ele>1034.5200199999999</ele>
        <time>2017-06-14T09:48:06Z</time>
      </trkpt>
      <trkpt lat="41.893899533897638" lon="13.204122791066766">
        <ele>1032.589966</ele>
        <time>2017-06-14T09:48:18Z</time>
      </trkpt>
      <trkpt lat="41.893956698477268" lon="13.204151205718517">
        <ele>1030.669922</ele>
        <time>2017-06-14T09:48:31Z</time>
      </trkpt>
      <trkpt lat="41.894044373184443" lon="13.204202083870769">
        <ele>1027.790039</ele>
        <time>2017-06-14T09:48:43Z</time>
      </trkpt>
      <trkpt lat="41.894173286855221" lon="13.204337283968925">
        <ele>1024.420044</ele>
        <time>2017-06-14T09:48:59Z</time>
      </trkpt>
      <trkpt lat="41.894176807254553" lon="13.204400483518839">
        <ele>1022.980042</ele>
        <time>2017-06-14T09:49:05Z</time>
      </trkpt>
      <trkpt lat="41.89407111145556" lon="13.204433172941208">
        <ele>1021.059998</ele>
        <time>2017-06-14T09:49:15Z</time>
      </trkpt>
      <trkpt lat="41.894026435911655" lon="13.204456558451056">
        <ele>1020.099976</ele>
        <time>2017-06-14T09:49:20Z</time>
      </trkpt>
      <trkpt lat="41.893964409828186" lon="13.204501401633024">
        <ele>1017.690002</ele>
        <time>2017-06-14T09:49:27Z</time>
      </trkpt>
      <trkpt lat="41.89379601739347" lon="13.204554375261068">
        <ele>1015.77002</ele>
        <time>2017-06-14T09:49:42Z</time>
      </trkpt>
      <trkpt lat="41.893655201420188" lon="13.204578431323171">
        <ele>1013.370056</ele>
        <time>2017-06-14T09:49:54Z</time>
      </trkpt>
      <trkpt lat="41.893679089844227" lon="13.204593937844038">
        <ele>1011.929993</ele>
        <time>2017-06-14T09:50:01Z</time>
      </trkpt>
      <trkpt lat="41.893778080120683" lon="13.20463509298861">
        <ele>1008.080017</ele>
        <time>2017-06-14T09:50:15Z</time>
      </trkpt>
      <trkpt lat="41.893816301599145" lon="13.204661998897791">
        <ele>1007.119995</ele>
        <time>2017-06-14T09:50:20Z</time>
      </trkpt>
      <trkpt lat="41.893897103145719" lon="13.204750679433346">
        <ele>1004.719971</ele>
        <time>2017-06-14T09:50:33Z</time>
      </trkpt>
      <trkpt lat="41.89395041204989" lon="13.204925358295441">
        <ele>1002.789978</ele>
        <time>2017-06-14T09:50:47Z</time>
      </trkpt>
      <trkpt lat="41.893960973247886" lon="13.204995095729828">
        <ele>1002.789978</ele>
        <time>2017-06-14T09:50:51Z</time>
      </trkpt>
      <trkpt lat="41.893964661285281" lon="13.205096684396267">
        <ele>1002.789978</ele>
        <time>2017-06-14T09:50:59Z</time>
      </trkpt>
      <trkpt lat="41.89394747838378" lon="13.205171786248684">
        <ele>1002.789978</ele>
        <time>2017-06-14T09:51:10Z</time>
      </trkpt>
      <trkpt lat="41.893968936055899" lon="13.205270022153854">
        <ele>1000.870056</ele>
        <time>2017-06-14T09:51:21Z</time>
      </trkpt>
      <trkpt lat="41.894026687368751" lon="13.205454088747501">
        <ele>997.51000999999997</ele>
        <time>2017-06-14T09:51:35Z</time>
      </trkpt>
      <trkpt lat="41.894042529165745" lon="13.205536901950836">
        <ele>996.05999799999995</ele>
        <time>2017-06-14T09:51:41Z</time>
      </trkpt>
      <trkpt lat="41.894041858613491" lon="13.205570094287395">
        <ele>996.05999799999995</ele>
        <time>2017-06-14T09:51:43Z</time>
      </trkpt>
      <trkpt lat="41.894111260771751" lon="13.205710491165519">
        <ele>993.65997300000004</ele>
        <time>2017-06-14T09:51:57Z</time>
      </trkpt>
      <trkpt lat="41.894113020971417" lon="13.205719711259007">
        <ele>993.65997300000004</ele>
        <time>2017-06-14T09:51:58Z</time>
      </trkpt>
      <trkpt lat="41.894121905788779" lon="13.205809397622943">
        <ele>992.21997099999999</ele>
        <time>2017-06-14T09:52:07Z</time>
      </trkpt>
      <trkpt lat="41.894110590219498" lon="13.20592406205833">
        <ele>991.25994900000001</ele>
        <time>2017-06-14T09:52:13Z</time>
      </trkpt>
      <trkpt lat="41.894124336540699" lon="13.206181637942791">
        <ele>990.30004899999994</ele>
        <time>2017-06-14T09:52:26Z</time>
      </trkpt>
      <trkpt lat="41.894135568290949" lon="13.20639411918819">
        <ele>989.32995600000004</ele>
        <time>2017-06-14T09:52:40Z</time>
      </trkpt>
      <trkpt lat="41.894182758405805" lon="13.206561338156462">
        <ele>987.410034</ele>
        <time>2017-06-14T09:52:54Z</time>
      </trkpt>
      <trkpt lat="41.894213939085603" lon="13.206705506891012">
        <ele>985.97003199999995</ele>
        <time>2017-06-14T09:53:07Z</time>
      </trkpt>
      <trkpt lat="41.894229361787438" lon="13.206840036436915">
        <ele>984.52996800000005</ele>
        <time>2017-06-14T09:53:16Z</time>
      </trkpt>
      <trkpt lat="41.894221734255552" lon="13.206947660073638">
        <ele>984.04998799999998</ele>
        <time>2017-06-14T09:53:21Z</time>
      </trkpt>
      <trkpt lat="41.894181920215487" lon="13.207119405269623">
        <ele>983.089966</ele>
        <time>2017-06-14T09:53:34Z</time>
      </trkpt>
      <trkpt lat="41.894181584939361" lon="13.207153268158436">
        <ele>983.089966</ele>
        <time>2017-06-14T09:53:36Z</time>
      </trkpt>
      <trkpt lat="41.894046720117331" lon="13.20733230561018">
        <ele>983.089966</ele>
        <time>2017-06-14T09:53:51Z</time>
      </trkpt>
      <trkpt lat="41.893990058451891" lon="13.207407658919692">
        <ele>984.52996800000005</ele>
        <time>2017-06-14T09:54:00Z</time>
      </trkpt>
      <trkpt lat="41.893935408443213" lon="13.207497429102659">
        <ele>984.52996800000005</ele>
        <time>2017-06-14T09:54:09Z</time>
      </trkpt>
      <trkpt lat="41.893904227763414" lon="13.207654925063252">
        <ele>984.52996800000005</ele>
        <time>2017-06-14T09:54:20Z</time>
      </trkpt>
      <trkpt lat="41.893882434815168" lon="13.207719381898642">
        <ele>982.59997599999997</ele>
        <time>2017-06-14T09:54:24Z</time>
      </trkpt>
      <trkpt lat="41.893855025991797" lon="13.207763219252229">
        <ele>982.59997599999997</ele>
        <time>2017-06-14T09:54:27Z</time>
      </trkpt>
      <trkpt lat="41.893793502822518" lon="13.207874363288283">
        <ele>982.11999500000002</ele>
        <time>2017-06-14T09:54:36Z</time>
      </trkpt>
      <trkpt lat="41.893581273034215" lon="13.207883331924677">
        <ele>982.59997599999997</ele>
        <time>2017-06-14T09:54:52Z</time>
      </trkpt>
      <trkpt lat="41.89357029274106" lon="13.207883415743709">
        <ele>982.59997599999997</ele>
        <time>2017-06-14T09:54:53Z</time>
      </trkpt>
      <trkpt lat="41.893533496186137" lon="13.20792892947793">
        <ele>981.64001499999995</ele>
        <time>2017-06-14T09:54:58Z</time>
      </trkpt>
      <trkpt lat="41.893538106232882" lon="13.208109391853213">
        <ele>978.28002900000001</ele>
        <time>2017-06-14T09:55:13Z</time>
      </trkpt>
      <trkpt lat="41.893538190051913" lon="13.208135962486267">
        <ele>978.28002900000001</ele>
        <time>2017-06-14T09:55:15Z</time>
      </trkpt>
      <trkpt lat="41.893600886687636" lon="13.208351209759712">
        <ele>974.910034</ele>
        <time>2017-06-14T09:55:31Z</time>
      </trkpt>
      <trkpt lat="41.893609939143062" lon="13.208446931093931">
        <ele>973.47003199999995</ele>
        <time>2017-06-14T09:55:43Z</time>
      </trkpt>
      <trkpt lat="41.893663080409169" lon="13.208650862798095">
        <ele>972.02996800000005</ele>
        <time>2017-06-14T09:55:58Z</time>
      </trkpt>
      <trkpt lat="41.893694261088967" lon="13.208834426477551">
        <ele>970.10998500000005</ele>
        <time>2017-06-14T09:56:13Z</time>
      </trkpt>
      <trkpt lat="41.893711192533374" lon="13.208919335156679">
        <ele>969.15002400000003</ele>
        <time>2017-06-14T09:56:19Z</time>
      </trkpt>
      <trkpt lat="41.893792161718011" lon="13.208946408703923">
        <ele>966.25994900000001</ele>
        <time>2017-06-14T09:56:33Z</time>
      </trkpt>
      <trkpt lat="41.893880758434534" lon="13.208978595212102">
        <ele>962.90002400000003</ele>
        <time>2017-06-14T09:56:45Z</time>
      </trkpt>
      <trkpt lat="41.893894588574767" lon="13.208975913003087">
        <ele>962.419983</ele>
        <time>2017-06-14T09:56:47Z</time>
      </trkpt>
      <trkpt lat="41.893919063732028" lon="13.208981528878212">
        <ele>961.94000200000005</ele>
        <time>2017-06-14T09:56:49Z</time>
      </trkpt>
      <trkpt lat="41.893955441191792" lon="13.208980858325958">
        <ele>960.97997999999995</ele>
        <time>2017-06-14T09:56:52Z</time>
      </trkpt>
      <trkpt lat="41.894006067886949" lon="13.208987982943654">
        <ele>959.04998799999998</ele>
        <time>2017-06-14T09:56:57Z</time>
      </trkpt>
      <trkpt lat="41.894136825576425" lon="13.209005584940314">
        <ele>956.65002400000003</ele>
        <time>2017-06-14T09:57:11Z</time>
      </trkpt>
      <trkpt lat="41.894208490848541" lon="13.209062162786722">
        <ele>953.28002900000001</ele>
        <time>2017-06-14T09:57:22Z</time>
      </trkpt>
      <trkpt lat="41.894292309880257" lon="13.209097366780043">
        <ele>949.44000200000005</ele>
        <time>2017-06-14T09:57:34Z</time>
      </trkpt>
      <trkpt lat="41.894302787259221" lon="13.209108095616102">
        <ele>948.95996100000002</ele>
        <time>2017-06-14T09:57:36Z</time>
      </trkpt>
      <trkpt lat="41.894335141405463" lon="13.209153693169355">
        <ele>948.00006099999996</ele>
        <time>2017-06-14T09:57:50Z</time>
      </trkpt>
      <trkpt lat="41.894428264349699" lon="13.209213120862842">
        <ele>944.62994400000002</ele>
        <time>2017-06-14T09:58:04Z</time>
      </trkpt>
      <trkpt lat="41.894511831924319" lon="13.209282858297229">
        <ele>941.75</ele>
        <time>2017-06-14T09:58:17Z</time>
      </trkpt>
      <trkpt lat="41.894547119736671" lon="13.209334993734956">
        <ele>940.78997800000002</ele>
        <time>2017-06-14T09:58:33Z</time>
      </trkpt>
      <trkpt lat="41.894512586295605" lon="13.209358882158995">
        <ele>940.78997800000002</ele>
        <time>2017-06-14T09:58:42Z</time>
      </trkpt>
      <trkpt lat="41.894431868568063" lon="13.209361396729946">
        <ele>938.85998500000005</ele>
        <time>2017-06-14T09:58:55Z</time>
      </trkpt>
      <trkpt lat="41.894429940730333" lon="13.209398025646806">
        <ele>936.45996100000002</ele>
        <time>2017-06-14T09:59:05Z</time>
      </trkpt>
      <trkpt lat="41.894470760598779" lon="13.20946466177702">
        <ele>933.10003700000004</ele>
        <time>2017-06-14T09:59:18Z</time>
      </trkpt>
      <trkpt lat="41.894394066184759" lon="13.209531884640455">
        <ele>930.21002199999998</ele>
        <time>2017-06-14T09:59:29Z</time>
      </trkpt>
      <trkpt lat="41.8943902105093" lon="13.209585528820753">
        <ele>927.32995600000004</ele>
        <time>2017-06-14T09:59:41Z</time>
      </trkpt>
      <trkpt lat="41.894307564944029" lon="13.209615536034107">
        <ele>925.410034</ele>
        <time>2017-06-14T09:59:53Z</time>
      </trkpt>
      <trkpt lat="41.894335141405463" lon="13.209623079746962">
        <ele>923.00006099999996</ele>
        <time>2017-06-14T10:00:14Z</time>
      </trkpt>
      <trkpt lat="41.894377637654543" lon="13.209668258205056">
        <ele>921.080017</ele>
        <time>2017-06-14T10:00:26Z</time>
      </trkpt>
      <trkpt lat="41.894435891881585" lon="13.209772361442447">
        <ele>919.15997300000004</ele>
        <time>2017-06-14T10:00:40Z</time>
      </trkpt>
      <trkpt lat="41.894422061741352" lon="13.209820976480842">
        <ele>916.27002000000005</ele>
        <time>2017-06-14T10:00:52Z</time>
      </trkpt>
      <trkpt lat="41.894430695101619" lon="13.209827095270157">
        <ele>915.30999799999995</ele>
        <time>2017-06-14T10:00:54Z</time>
      </trkpt>
      <trkpt lat="41.894448213279247" lon="13.209909405559301">
        <ele>914.34997599999997</ele>
        <time>2017-06-14T10:01:08Z</time>
      </trkpt>
      <trkpt lat="41.894440082833171" lon="13.209988782182336">
        <ele>910.98999000000003</ele>
        <time>2017-06-14T10:01:21Z</time>
      </trkpt>
      <trkpt lat="41.894348971545696" lon="13.210048880428076">
        <ele>907.61999500000002</ele>
        <time>2017-06-14T10:01:32Z</time>
      </trkpt>
      <trkpt lat="41.894336063414812" lon="13.210062040016055">
        <ele>907.14001499999995</ele>
        <time>2017-06-14T10:01:34Z</time>
      </trkpt>
      <trkpt lat="41.894217375665903" lon="13.210094561800361">
        <ele>905.21997099999999</ele>
        <time>2017-06-14T10:01:47Z</time>
      </trkpt>
      <trkpt lat="41.894155517220497" lon="13.210135214030743">
        <ele>901.84997599999997</ele>
        <time>2017-06-14T10:01:59Z</time>
      </trkpt>
      <trkpt lat="41.894120061770082" lon="13.210177291184664">
        <ele>898.97003199999995</ele>
        <time>2017-06-14T10:02:11Z</time>
      </trkpt>
      <trkpt lat="41.894117211923003" lon="13.21023428812623">
        <ele>896.57000700000003</ele>
        <time>2017-06-14T10:02:24Z</time>
      </trkpt>
      <trkpt lat="41.894106063991785" lon="13.210323974490166">
        <ele>893.67999299999997</ele>
        <time>2017-06-14T10:02:37Z</time>
      </trkpt>
      <trkpt lat="41.894083181396127" lon="13.210430005565286">
        <ele>890.32000700000003</ele>
        <time>2017-06-14T10:02:53Z</time>
      </trkpt>
      <trkpt lat="41.894043534994125" lon="13.210521619766951">
        <ele>886.95001200000002</ele>
        <time>2017-06-14T10:03:08Z</time>
      </trkpt>
      <trkpt lat="41.894054934382439" lon="13.210612228140235">
        <ele>884.54998799999998</ele>
        <time>2017-06-14T10:03:20Z</time>
      </trkpt>
      <trkpt lat="41.894086701795459" lon="13.210670566186309">
        <ele>881.18994099999998</ele>
        <time>2017-06-14T10:03:33Z</time>
      </trkpt>
      <trkpt lat="41.894079660996795" lon="13.210719181224704">
        <ele>880.71002199999998</ele>
        <time>2017-06-14T10:03:53Z</time>
      </trkpt>
      <trkpt lat="41.894078236073256" lon="13.210754971951246">
        <ele>879.73999000000003</ele>
        <time>2017-06-14T10:04:00Z</time>
      </trkpt>
      <trkpt lat="41.894068764522672" lon="13.210790259763598">
        <ele>878.77996800000005</ele>
        <time>2017-06-14T10:04:03Z</time>
      </trkpt>
      <trkpt lat="41.894017718732357" lon="13.210882460698485">
        <ele>876.38000499999998</ele>
        <time>2017-06-14T10:04:18Z</time>
      </trkpt>
      <trkpt lat="41.894029201939702" lon="13.210960496217012">
        <ele>873.01000999999997</ele>
        <time>2017-06-14T10:04:30Z</time>
      </trkpt>
      <trkpt lat="41.894006738439202" lon="13.21107323281467">
        <ele>870.13000499999998</ele>
        <time>2017-06-14T10:04:40Z</time>
      </trkpt>
      <trkpt lat="41.893966421484947" lon="13.211202062666416">
        <ele>867.73004200000003</ele>
        <time>2017-06-14T10:04:52Z</time>
      </trkpt>
      <trkpt lat="41.893987795338035" lon="13.211323181167245">
        <ele>864.35998500000005</ele>
        <time>2017-06-14T10:05:01Z</time>
      </trkpt>
      <trkpt lat="41.894013024866581" lon="13.211450418457389">
        <ele>861.47997999999995</ele>
        <time>2017-06-14T10:05:11Z</time>
      </trkpt>
      <trkpt lat="41.89399341121316" lon="13.211626773700118">
        <ele>859.56005900000002</ele>
        <time>2017-06-14T10:05:27Z</time>
      </trkpt>
      <trkpt lat="41.894001038745046" lon="13.211713526397943">
        <ele>859.080017</ele>
        <time>2017-06-14T10:05:33Z</time>
      </trkpt>
      <trkpt lat="41.89403641037643" lon="13.211898179724813">
        <ele>857.14996299999996</ele>
        <time>2017-06-14T10:05:48Z</time>
      </trkpt>
      <trkpt lat="41.894044373184443" lon="13.211991302669048">
        <ele>855.71002199999998</ele>
        <time>2017-06-14T10:05:56Z</time>
      </trkpt>
      <trkpt lat="41.894045462831855" lon="13.212010664865375">
        <ele>854.75</ele>
        <time>2017-06-14T10:05:59Z</time>
      </trkpt>
      <trkpt lat="41.894060298800468" lon="13.21207788772881">
        <ele>852.830017</ele>
        <time>2017-06-14T10:06:10Z</time>
      </trkpt>
      <trkpt lat="41.894095921888947" lon="13.212232533842325">
        <ele>851.38000499999998</ele>
        <time>2017-06-14T10:06:24Z</time>
      </trkpt>
      <trkpt lat="41.894119223579764" lon="13.212299505248666">
        <ele>850.90002400000003</ele>
        <time>2017-06-14T10:06:28Z</time>
      </trkpt>
      <trkpt lat="41.894121905788779" lon="13.212513076141477">
        <ele>849.45996100000002</ele>
        <time>2017-06-14T10:06:42Z</time>
      </trkpt>
      <trkpt lat="41.894127270206809" lon="13.212605863809586">
        <ele>847.06005900000002</ele>
        <time>2017-06-14T10:06:50Z</time>
      </trkpt>
      <trkpt lat="41.894095586612821" lon="13.212691023945808">
        <ele>845.61999500000002</ele>
        <time>2017-06-14T10:07:02Z</time>
      </trkpt>
      <trkpt lat="41.894072536379099" lon="13.212757660076022">
        <ele>843.21002199999998</ele>
        <time>2017-06-14T10:07:13Z</time>
      </trkpt>
      <trkpt lat="41.894069686532021" lon="13.21278490126133">
        <ele>843.21002199999998</ele>
        <time>2017-06-14T10:07:24Z</time>
      </trkpt>
      <trkpt lat="41.894015120342374" lon="13.21292513050139">
        <ele>839.36999500000002</ele>
        <time>2017-06-14T10:07:38Z</time>
      </trkpt>
      <trkpt lat="41.893974216654897" lon="13.213032921776175">
        <ele>836.47997999999995</ele>
        <time>2017-06-14T10:07:49Z</time>
      </trkpt>
      <trkpt lat="41.893961727619171" lon="13.213158901780844">
        <ele>833.60003700000004</ele>
        <time>2017-06-14T10:08:01Z</time>
      </trkpt>
      <trkpt lat="41.893959380686283" lon="13.213179437443614">
        <ele>832.64001499999995</ele>
        <time>2017-06-14T10:08:03Z</time>
      </trkpt>
      <trkpt lat="41.893904227763414" lon="13.21338253095746">
        <ele>831.20001200000002</ele>
        <time>2017-06-14T10:08:17Z</time>
      </trkpt>
      <trkpt lat="41.893900372087955" lon="13.213399965316057">
        <ele>831.20001200000002</ele>
        <time>2017-06-14T10:08:18Z</time>
      </trkpt>
      <trkpt lat="41.893863659352064" lon="13.213464086875319">
        <ele>830.23999000000003</ele>
        <time>2017-06-14T10:08:24Z</time>
      </trkpt>
      <trkpt lat="41.893814876675606" lon="13.213628372177482">
        <ele>828.30999799999995</ele>
        <time>2017-06-14T10:08:38Z</time>
      </trkpt>
      <trkpt lat="41.893742792308331" lon="13.21380372159183">
        <ele>824.94995100000006</ele>
        <time>2017-06-14T10:08:54Z</time>
      </trkpt>
      <trkpt lat="41.893710605800152" lon="13.213888965547085">
        <ele>822.06005900000002</ele>
        <time>2017-06-14T10:09:05Z</time>
      </trkpt>
      <trkpt lat="41.89360206015408" lon="13.214015364646912">
        <ele>819.660034</ele>
        <time>2017-06-14T10:09:19Z</time>
      </trkpt>
      <trkpt lat="41.893516480922699" lon="13.214089460670948">
        <ele>818.21997099999999</ele>
        <time>2017-06-14T10:09:32Z</time>
      </trkpt>
      <trkpt lat="41.893479265272617" lon="13.214117037132382">
        <ele>817.73999000000003</ele>
        <time>2017-06-14T10:09:37Z</time>
      </trkpt>
      <trkpt lat="41.893376084044576" lon="13.21420387364924">
        <ele>816.29998799999998</ele>
        <time>2017-06-14T10:09:50Z</time>
      </trkpt>
      <trkpt lat="41.89332696609199" lon="13.214278388768435">
        <ele>813.40997300000004</ele>
        <time>2017-06-14T10:10:02Z</time>
      </trkpt>
      <trkpt lat="41.8933713901788" lon="13.214278137311339">
        <ele>812.44995100000006</ele>
        <time>2017-06-14T10:10:08Z</time>
      </trkpt>
      <trkpt lat="41.893397038802505" lon="13.214278388768435">
        <ele>811.97003199999995</ele>
        <time>2017-06-14T10:10:10Z</time>
      </trkpt>
      <trkpt lat="41.893494939431548" lon="13.214305965229869">
        <ele>808.60998500000005</ele>
        <time>2017-06-14T10:10:22Z</time>
      </trkpt>
      <trkpt lat="41.893562832847238" lon="13.214322980493307">
        <ele>806.67999299999997</ele>
        <time>2017-06-14T10:10:30Z</time>
      </trkpt>
      <trkpt lat="41.893644807860255" lon="13.214354664087296">
        <ele>804.27996800000005</ele>
        <time>2017-06-14T10:10:40Z</time>
      </trkpt>
      <trkpt lat="41.893539195880294" lon="13.214536886662245">
        <ele>802.36004600000001</ele>
        <time>2017-06-14T10:10:55Z</time>
      </trkpt>
      <trkpt lat="41.893529472872615" lon="13.214554572477937">
        <ele>801.88000499999998</ele>
        <time>2017-06-14T10:10:57Z</time>
      </trkpt>
      <trkpt lat="41.893447916954756" lon="13.214707290753722">
        <ele>801.88000499999998</ele>
        <time>2017-06-14T10:11:09Z</time>
      </trkpt>
      <trkpt lat="41.893394272774458" lon="13.2147775311023">
        <ele>801.40002400000003</ele>
        <time>2017-06-14T10:11:16Z</time>
      </trkpt>
      <trkpt lat="41.89335186034441" lon="13.214822793379426">
        <ele>801.40002400000003</ele>
        <time>2017-06-14T10:11:21Z</time>
      </trkpt>
      <trkpt lat="41.893258402124047" lon="13.214964615181088">
        <ele>800.44000200000005</ele>
        <time>2017-06-14T10:11:34Z</time>
      </trkpt>
      <trkpt lat="41.893158573657274" lon="13.21503309533">
        <ele>800.44000200000005</ele>
        <time>2017-06-14T10:11:45Z</time>
      </trkpt>
      <trkpt lat="41.893116664141417" lon="13.215078776702285">
        <ele>799.94995100000006</ele>
        <time>2017-06-14T10:11:50Z</time>
      </trkpt>
      <trkpt lat="41.893004011362791" lon="13.215163769200444">
        <ele>796.589966</ele>
        <time>2017-06-14T10:12:04Z</time>
      </trkpt>
      <trkpt lat="41.89292823895812" lon="13.215188998728991">
        <ele>795.14996299999996</ele>
        <time>2017-06-14T10:12:11Z</time>
      </trkpt>
      <trkpt lat="41.892875097692013" lon="13.215256137773395">
        <ele>792.73999000000003</ele>
        <time>2017-06-14T10:12:21Z</time>
      </trkpt>
      <trkpt lat="41.892741993069649" lon="13.215366778895259">
        <ele>788.90002400000003</ele>
        <time>2017-06-14T10:12:34Z</time>
      </trkpt>
      <trkpt lat="41.892725899815559" lon="13.215372813865542">
        <ele>788.90002400000003</ele>
        <time>2017-06-14T10:12:49Z</time>
      </trkpt>
      <trkpt lat="41.892596064135432" lon="13.215395864099264">
        <ele>788.90002400000003</ele>
        <time>2017-06-14T10:13:01Z</time>
      </trkpt>
      <trkpt lat="41.892585502937436" lon="13.215398462489247">
        <ele>787.94000200000005</ele>
        <time>2017-06-14T10:13:02Z</time>
      </trkpt>
      <trkpt lat="41.892526913434267" lon="13.215430984273553">
        <ele>787.94000200000005</ele>
        <time>2017-06-14T10:13:07Z</time>
      </trkpt>
      <trkpt lat="41.892371093854308" lon="13.215489741414785">
        <ele>786.01995799999997</ele>
        <time>2017-06-14T10:13:21Z</time>
      </trkpt>
      <trkpt lat="41.892351564019918" lon="13.215512875467539">
        <ele>785.53002900000001</ele>
        <time>2017-06-14T10:13:23Z</time>
      </trkpt>
      <trkpt lat="41.892283419147134" lon="13.215555958449841">
        <ele>784.57000700000003</ele>
        <time>2017-06-14T10:13:29Z</time>
      </trkpt>
      <trkpt lat="41.892192140221596" lon="13.215632317587733">
        <ele>782.64996299999996</ele>
        <time>2017-06-14T10:13:40Z</time>
      </trkpt>
      <trkpt lat="41.892152912914753" lon="13.215642794966698">
        <ele>782.169983</ele>
        <time>2017-06-14T10:13:44Z</time>
      </trkpt>
      <trkpt lat="41.892022071406245" lon="13.215675316751003">
        <ele>778.80999799999995</ele>
        <time>2017-06-14T10:13:57Z</time>
      </trkpt>
      <trkpt lat="41.891968259587884" lon="13.215713705867529">
        <ele>777.36004600000001</ele>
        <time>2017-06-14T10:14:02Z</time>
      </trkpt>
      <trkpt lat="41.891913861036301" lon="13.215693924576044">
        <ele>776.88000499999998</ele>
        <time>2017-06-14T10:14:16Z</time>
      </trkpt>
      <trkpt lat="41.891904976218939" lon="13.21570448577404">
        <ele>776.88000499999998</ele>
        <time>2017-06-14T10:14:29Z</time>
      </trkpt>
      <trkpt lat="41.891905814409256" lon="13.215672634541988">
        <ele>775.919983</ele>
        <time>2017-06-14T10:14:47Z</time>
      </trkpt>
      <trkpt lat="41.891913861036301" lon="13.215713119134307">
        <ele>775.919983</ele>
        <time>2017-06-14T10:15:17Z</time>
      </trkpt>
      <trkpt lat="41.891898103058338" lon="13.21572451852262">
        <ele>775.44000200000005</ele>
        <time>2017-06-14T10:15:31Z</time>
      </trkpt>
      <trkpt lat="41.891869520768523" lon="13.215639861300588">
        <ele>777.36004600000001</ele>
        <time>2017-06-14T10:15:46Z</time>
      </trkpt>
      <trkpt lat="41.891866084188223" lon="13.215645728632808">
        <ele>777.36004600000001</ele>
        <time>2017-06-14T10:15:47Z</time>
      </trkpt>
      <trkpt lat="41.89187178388238" lon="13.21564732119441">
        <ele>775.919983</ele>
        <time>2017-06-14T10:16:03Z</time>
      </trkpt>
      <trkpt lat="41.891893576830626" lon="13.215632736682892">
        <ele>775.919983</ele>
        <time>2017-06-14T10:16:32Z</time>
      </trkpt>
      <trkpt lat="41.891890559345484" lon="13.215663079172373">
        <ele>775.44000200000005</ele>
        <time>2017-06-14T10:17:00Z</time>
      </trkpt>
      <trkpt lat="41.891921237111092" lon="13.215649416670203">
        <ele>774.96002199999998</ele>
        <time>2017-06-14T10:17:34Z</time>
      </trkpt>
      <trkpt lat="41.891920315101743" lon="13.215662576258183">
        <ele>774.96002199999998</ele>
        <time>2017-06-14T10:17:59Z</time>
      </trkpt>
      <trkpt lat="41.891909334808588" lon="13.215687721967697">
        <ele>774.96002199999998</ele>
        <time>2017-06-14T10:18:13Z</time>
      </trkpt>
      <trkpt lat="41.891891565173864" lon="13.215671628713608">
        <ele>774.96002199999998</ele>
        <time>2017-06-14T10:18:33Z</time>
      </trkpt>
      <trkpt lat="41.891892571002245" lon="13.215657211840153">
        <ele>774.96002199999998</ele>
        <time>2017-06-14T10:19:11Z</time>
      </trkpt>
      <trkpt lat="41.891872119158506" lon="13.215672466903925">
        <ele>774.96002199999998</ele>
        <time>2017-06-14T10:19:50Z</time>
      </trkpt>
      <trkpt lat="41.891896091401577" lon="13.215637262910604">
        <ele>776.40002400000003</ele>
        <time>2017-06-14T10:20:24Z</time>
      </trkpt>
      <trkpt lat="41.891897935420275" lon="13.215645141899586">
        <ele>776.40002400000003</ele>
        <time>2017-06-14T10:20:57Z</time>
      </trkpt>
      <trkpt lat="41.89190941862762" lon="13.215633826330304">
        <ele>776.40002400000003</ele>
        <time>2017-06-14T10:21:31Z</time>
      </trkpt>
      <trkpt lat="41.891870023682714" lon="13.215630725026131">
        <ele>775.919983</ele>
        <time>2017-06-14T10:22:04Z</time>
      </trkpt>
      <trkpt lat="41.891903132200241" lon="13.215633826330304">
        <ele>775.919983</ele>
        <time>2017-06-14T10:22:19Z</time>
      </trkpt>
      <trkpt lat="41.891886536031961" lon="13.215654194355011">
        <ele>775.919983</ele>
        <time>2017-06-14T10:22:40Z</time>
      </trkpt>
      <trkpt lat="41.891916459426284" lon="13.215649500489235">
        <ele>775.919983</ele>
        <time>2017-06-14T10:23:03Z</time>
      </trkpt>
      <trkpt lat="41.89191528595984" lon="13.215655367821455">
        <ele>775.919983</ele>
        <time>2017-06-14T10:23:29Z</time>
      </trkpt>
      <trkpt lat="41.891899360343814" lon="13.215652015060186">
        <ele>775.919983</ele>
        <time>2017-06-14T10:23:48Z</time>
      </trkpt>
      <trkpt lat="41.891905814409256" lon="13.215658636763692">
        <ele>775.919983</ele>
        <time>2017-06-14T10:24:11Z</time>
      </trkpt>
      <trkpt lat="41.891912939026952" lon="13.215676406398416">
        <ele>775.44000200000005</ele>
        <time>2017-06-14T10:24:39Z</time>
      </trkpt>
      <trkpt lat="41.891922578215599" lon="13.215656708925962">
        <ele>775.44000200000005</ele>
        <time>2017-06-14T10:25:14Z</time>
      </trkpt>
      <trkpt lat="41.891919476911426" lon="13.215657128021121">
        <ele>775.44000200000005</ele>
        <time>2017-06-14T10:25:34Z</time>
      </trkpt>
      <trkpt lat="41.89188938587904" lon="13.215720411390066">
        <ele>775.44000200000005</ele>
        <time>2017-06-14T10:25:51Z</time>
      </trkpt>
      <trkpt lat="41.891877399757504" lon="13.215716639533639">
        <ele>775.44000200000005</ele>
        <time>2017-06-14T10:26:05Z</time>
      </trkpt>
      <trkpt lat="41.891874298453331" lon="13.215695600956678">
        <ele>774</ele>
        <time>2017-06-14T10:26:13Z</time>
      </trkpt>
      <trkpt lat="41.891881674528122" lon="13.215639861300588">
        <ele>774</ele>
        <time>2017-06-14T10:26:28Z</time>
      </trkpt>
      <trkpt lat="41.891899779438972" lon="13.215657798573375">
        <ele>774.96002199999998</ele>
        <time>2017-06-14T10:26:52Z</time>
      </trkpt>
      <trkpt lat="41.891905982047319" lon="13.215633239597082">
        <ele>775.44000200000005</ele>
        <time>2017-06-14T10:27:08Z</time>
      </trkpt>
      <trkpt lat="41.89190648496151" lon="13.215612033382058">
        <ele>775.44000200000005</ele>
        <time>2017-06-14T10:27:33Z</time>
      </trkpt>
      <trkpt lat="41.891903299838305" lon="13.215606417506933">
        <ele>775.44000200000005</ele>
        <time>2017-06-14T10:28:01Z</time>
      </trkpt>
      <trkpt lat="41.891889218240976" lon="13.215662827715278">
        <ele>774</ele>
        <time>2017-06-14T10:28:17Z</time>
      </trkpt>
      <trkpt lat="41.891922997310758" lon="13.215677831321955">
        <ele>774</ele>
        <time>2017-06-14T10:28:33Z</time>
      </trkpt>
      <trkpt lat="41.891934312880039" lon="13.215668862685561">
        <ele>774</ele>
        <time>2017-06-14T10:29:03Z</time>
      </trkpt>
      <trkpt lat="41.891916375607252" lon="13.215627539902925">
        <ele>774</ele>
        <time>2017-06-14T10:29:30Z</time>
      </trkpt>
      <trkpt lat="41.891906820237637" lon="13.215644219890237">
        <ele>774.96002199999998</ele>
        <time>2017-06-14T10:29:42Z</time>
      </trkpt>
      <trkpt lat="41.891909837722778" lon="13.215645980089903">
        <ele>774</ele>
        <time>2017-06-14T10:30:14Z</time>
      </trkpt>
      <trkpt lat="41.891896175220609" lon="13.215686213225126">
        <ele>774</ele>
        <time>2017-06-14T10:30:41Z</time>
      </trkpt>
      <trkpt lat="41.891894834116101" lon="13.215693673118949">
        <ele>772.55999799999995</ele>
        <time>2017-06-14T10:31:03Z</time>
      </trkpt>
      <trkpt lat="41.891893073916435" lon="13.215684285387397">
        <ele>774</ele>
        <time>2017-06-14T10:31:05Z</time>
      </trkpt>
      <trkpt lat="41.891873627901077" lon="13.215620163828135">
        <ele>774</ele>
        <time>2017-06-14T10:31:30Z</time>
      </trkpt>
      <trkpt lat="41.891881758347154" lon="13.215664336457849">
        <ele>774</ele>
        <time>2017-06-14T10:31:53Z</time>
      </trkpt>
      <trkpt lat="41.891926266252995" lon="13.215690068900585">
        <ele>774.47997999999995</ele>
        <time>2017-06-14T10:32:07Z</time>
      </trkpt>
      <trkpt lat="41.891905479133129" lon="13.215722674503922">
        <ele>774.47997999999995</ele>
        <time>2017-06-14T10:32:23Z</time>
      </trkpt>
      <trkpt lat="41.891908580437303" lon="13.215686297044158">
        <ele>774.47997999999995</ele>
        <time>2017-06-14T10:32:50Z</time>
      </trkpt>
      <trkpt lat="41.891919560730457" lon="13.215713705867529">
        <ele>774.47997999999995</ele>
        <time>2017-06-14T10:32:54Z</time>
      </trkpt>
      <trkpt lat="41.891936827450991" lon="13.215735917910933">
        <ele>773.03997800000002</ele>
        <time>2017-06-14T10:32:57Z</time>
      </trkpt>
      <trkpt lat="41.892031459137797" lon="13.215785203501582">
        <ele>772.55999799999995</ele>
        <time>2017-06-14T10:33:09Z</time>
      </trkpt>
      <trkpt lat="41.892059287056327" lon="13.215813199058175">
        <ele>772.07995600000004</ele>
        <time>2017-06-14T10:33:22Z</time>
      </trkpt>
      <trkpt lat="41.892059370875359" lon="13.215823508799076">
        <ele>772.07995600000004</ele>
        <time>2017-06-14T10:33:24Z</time>
      </trkpt>
      <trkpt lat="41.89207948744297" lon="13.215968683362007">
        <ele>770.63000499999998</ele>
        <time>2017-06-14T10:33:39Z</time>
      </trkpt>
      <trkpt lat="41.891997763887048" lon="13.216040767729282">
        <ele>767.27002000000005</ele>
        <time>2017-06-14T10:33:51Z</time>
      </trkpt>
      <trkpt lat="41.891893660649657" lon="13.216158533468843">
        <ele>763.90002400000003</ele>
        <time>2017-06-14T10:34:05Z</time>
      </trkpt>
      <trkpt lat="41.891850158572197" lon="13.216180158779025">
        <ele>763.419983</ele>
        <time>2017-06-14T10:34:10Z</time>
      </trkpt>
      <trkpt lat="41.891771201044321" lon="13.216222235932946">
        <ele>760.53997800000002</ele>
        <time>2017-06-14T10:34:23Z</time>
      </trkpt>
      <trkpt lat="41.891756532713771" lon="13.216281328350306">
        <ele>760.05999799999995</ele>
        <time>2017-06-14T10:34:28Z</time>
      </trkpt>
      <trkpt lat="41.891785115003586" lon="13.216441171243787">
        <ele>757.660034</ele>
        <time>2017-06-14T10:34:42Z</time>
      </trkpt>
      <trkpt lat="41.891824174672365" lon="13.216497162356973">
        <ele>757.17999299999997</ele>
        <time>2017-06-14T10:34:48Z</time>
      </trkpt>
      <trkpt lat="41.89192358404398" lon="13.216545609757304">
        <ele>756.69006300000001</ele>
        <time>2017-06-14T10:34:58Z</time>
      </trkpt>
      <trkpt lat="41.892012935131788" lon="13.216599086299539">
        <ele>756.20996100000002</ele>
        <time>2017-06-14T10:35:13Z</time>
      </trkpt>
      <trkpt lat="41.892047636210918" lon="13.216613838449121">
        <ele>755.73004200000003</ele>
        <time>2017-06-14T10:35:26Z</time>
      </trkpt>
      <trkpt lat="41.892146961763501" lon="13.216744093224406">
        <ele>753.80999799999995</ele>
        <time>2017-06-14T10:35:41Z</time>
      </trkpt>
      <trkpt lat="41.892171436920762" lon="13.21685716509819">
        <ele>750.92999299999997</ele>
        <time>2017-06-14T10:35:52Z</time>
      </trkpt>
      <trkpt lat="41.892232792451978" lon="13.216939391568303">
        <ele>749</ele>
        <time>2017-06-14T10:36:05Z</time>
      </trkpt>
      <trkpt lat="41.892260620370507" lon="13.216977277770638">
        <ele>748.51995799999997</ele>
        <time>2017-06-14T10:36:10Z</time>
      </trkpt>
      <trkpt lat="41.892257016152143" lon="13.217013739049435">
        <ele>748.03997800000002</ele>
        <time>2017-06-14T10:36:12Z</time>
      </trkpt>
      <trkpt lat="41.892148973420262" lon="13.217070903629065">
        <ele>745.64001499999995</ele>
        <time>2017-06-14T10:36:25Z</time>
      </trkpt>
      <trkpt lat="41.89213908277452" lon="13.217072831466794">
        <ele>745.64001499999995</ele>
        <time>2017-06-14T10:36:27Z</time>
      </trkpt>
      <trkpt lat="41.892103040590882" lon="13.21715815924108">
        <ele>742.76000999999997</ele>
        <time>2017-06-14T10:36:41Z</time>
      </trkpt>
      <trkpt lat="41.892114439979196" lon="13.217174839228392">
        <ele>742.27996800000005</ele>
        <time>2017-06-14T10:36:53Z</time>
      </trkpt>
      <trkpt lat="41.892090635374188" lon="13.217228064313531">
        <ele>740.830017</ele>
        <time>2017-06-14T10:37:15Z</time>
      </trkpt>
      <trkpt lat="41.892056940123439" lon="13.217296125367284">
        <ele>738.42999299999997</ele>
        <time>2017-06-14T10:37:24Z</time>
      </trkpt>
      <trkpt lat="41.891971277073026" lon="13.217216413468122">
        <ele>739.39001499999995</ele>
        <time>2017-06-14T10:37:36Z</time>
      </trkpt>
      <trkpt lat="41.891914866864681" lon="13.217237535864115">
        <ele>739.39001499999995</ele>
        <time>2017-06-14T10:37:49Z</time>
      </trkpt>
      <trkpt lat="41.891924925148487" lon="13.217260921373963">
        <ele>737.94995100000006</ele>
        <time>2017-06-14T10:37:51Z</time>
      </trkpt>
      <trkpt lat="41.891955602914095" lon="13.217400480061769">
        <ele>735.07000700000003</ele>
        <time>2017-06-14T10:38:05Z</time>
      </trkpt>
      <trkpt lat="41.891988040879369" lon="13.217521430924535">
        <ele>731.70001200000002</ele>
        <time>2017-06-14T10:38:18Z</time>
      </trkpt>
      <trkpt lat="41.892140088602901" lon="13.217603741213679">
        <ele>730.26000999999997</ele>
        <time>2017-06-14T10:38:34Z</time>
      </trkpt>
      <trkpt lat="41.892194738611579" lon="13.217605920508504">
        <ele>730.26000999999997</ele>
        <time>2017-06-14T10:38:39Z</time>
      </trkpt>
      <trkpt lat="41.892235977575183" lon="13.217633999884129">
        <ele>729.77996800000005</ele>
        <time>2017-06-14T10:38:54Z</time>
      </trkpt>
      <trkpt lat="41.892321389168501" lon="13.217709269374609">
        <ele>727.36999500000002</ele>
        <time>2017-06-14T10:39:05Z</time>
      </trkpt>
      <trkpt lat="41.892346534878016" lon="13.217715388163924">
        <ele>726.89001499999995</ele>
        <time>2017-06-14T10:39:08Z</time>
      </trkpt>
      <trkpt lat="41.892422558739781" lon="13.217755872756243">
        <ele>724.01000999999997</ele>
        <time>2017-06-14T10:39:20Z</time>
      </trkpt>
      <trkpt lat="41.892499336972833" lon="13.217769702896476">
        <ele>721.60998500000005</ele>
        <time>2017-06-14T10:39:31Z</time>
      </trkpt>
      <trkpt lat="41.892508137971163" lon="13.217775905504823">
        <ele>721.60998500000005</ele>
        <time>2017-06-14T10:39:32Z</time>
      </trkpt>
      <trkpt lat="41.892573768272996" lon="13.217772385105491">
        <ele>720.160034</ele>
        <time>2017-06-14T10:39:38Z</time>
      </trkpt>
      <trkpt lat="41.892709136009216" lon="13.217710526660085">
        <ele>718.72003199999995</ele>
        <time>2017-06-14T10:39:52Z</time>
      </trkpt>
      <trkpt lat="41.89275867305696" lon="13.217689990997314">
        <ele>717.27996800000005</ele>
        <time>2017-06-14T10:39:58Z</time>
      </trkpt>
      <trkpt lat="41.892776777967811" lon="13.217688985168934">
        <ele>717.27996800000005</ele>
        <time>2017-06-14T10:40:00Z</time>
      </trkpt>
      <trkpt lat="41.892873588949442" lon="13.217721758410335">
        <ele>713.92004399999996</ele>
        <time>2017-06-14T10:40:13Z</time>
      </trkpt>
      <trkpt lat="41.892869984731078" lon="13.217726536095142">
        <ele>713.92004399999996</ele>
        <time>2017-06-14T10:40:14Z</time>
      </trkpt>
      <trkpt lat="41.892835618928075" lon="13.217861820012331">
        <ele>710.07000700000003</ele>
        <time>2017-06-14T10:40:28Z</time>
      </trkpt>
      <trkpt lat="41.892824219539762" lon="13.217894425615668">
        <ele>709.59002699999996</ele>
        <time>2017-06-14T10:40:31Z</time>
      </trkpt>
      <trkpt lat="41.892777364701033" lon="13.217908591032028">
        <ele>709.10998500000005</ele>
        <time>2017-06-14T10:40:36Z</time>
      </trkpt>
      <trkpt lat="41.892742663621902" lon="13.217991823330522">
        <ele>708.14996299999996</ele>
        <time>2017-06-14T10:40:48Z</time>
      </trkpt>
      <trkpt lat="41.892795134335756" lon="13.217946561053395">
        <ele>707.669983</ele>
        <time>2017-06-14T10:40:55Z</time>
      </trkpt>
      <trkpt lat="41.892891358584166" lon="13.217903226613998">
        <ele>705.26000999999997</ele>
        <time>2017-06-14T10:41:08Z</time>
      </trkpt>
      <trkpt lat="41.892978111281991" lon="13.217905489727855">
        <ele>702.37994400000002</ele>
        <time>2017-06-14T10:41:20Z</time>
      </trkpt>
      <trkpt lat="41.893087914213538" lon="13.217846816405654">
        <ele>700.46002199999998</ele>
        <time>2017-06-14T10:41:33Z</time>
      </trkpt>
      <trkpt lat="41.893199561163783" lon="13.21777431294322">
        <ele>698.04998799999998</ele>
        <time>2017-06-14T10:41:46Z</time>
      </trkpt>
      <trkpt lat="41.893365103751421" lon="13.217689488083124">
        <ele>697.09002699999996</ele>
        <time>2017-06-14T10:42:01Z</time>
      </trkpt>
      <trkpt lat="41.893401984125376" lon="13.217688566073775">
        <ele>696.60998500000005</ele>
        <time>2017-06-14T10:42:05Z</time>
      </trkpt>
      <trkpt lat="41.893419167026877" lon="13.217709939926863">
        <ele>695.64996299999996</ele>
        <time>2017-06-14T10:42:08Z</time>
      </trkpt>
      <trkpt lat="41.893372060731053" lon="13.217867435887456">
        <ele>694.69000200000005</ele>
        <time>2017-06-14T10:42:23Z</time>
      </trkpt>
      <trkpt lat="41.893302826210856" lon="13.218032224103808">
        <ele>693.72997999999995</ele>
        <time>2017-06-14T10:42:36Z</time>
      </trkpt>
      <trkpt lat="41.89324339851737" lon="13.218174632638693">
        <ele>690.839966</ele>
        <time>2017-06-14T10:42:49Z</time>
      </trkpt>
      <trkpt lat="41.893186317756772" lon="13.218274712562561">
        <ele>687.96002199999998</ele>
        <time>2017-06-14T10:43:00Z</time>
      </trkpt>
      <trkpt lat="41.893129572272301" lon="13.218446122482419">
        <ele>685.07995600000004</ele>
        <time>2017-06-14T10:43:14Z</time>
      </trkpt>
      <trkpt lat="41.89309386536479" lon="13.218574617058039">
        <ele>684.12005599999998</ele>
        <time>2017-06-14T10:43:25Z</time>
      </trkpt>
      <trkpt lat="41.893041897565126" lon="13.218767400830984">
        <ele>682.669983</ele>
        <time>2017-06-14T10:43:40Z</time>
      </trkpt>
      <trkpt lat="41.892996886745095" lon="13.218964962288737">
        <ele>680.74993900000004</ele>
        <time>2017-06-14T10:43:56Z</time>
      </trkpt>
      <trkpt lat="41.892952378839254" lon="13.219130923971534">
        <ele>678.830017</ele>
        <time>2017-06-14T10:44:08Z</time>
      </trkpt>
      <trkpt lat="41.892920359969139" lon="13.219253635033965">
        <ele>676.90997300000004</ele>
        <time>2017-06-14T10:44:17Z</time>
      </trkpt>
      <trkpt lat="41.892914492636919" lon="13.219288922846317">
        <ele>676.42004399999996</ele>
        <time>2017-06-14T10:44:19Z</time>
      </trkpt>
      <trkpt lat="41.892864033579826" lon="13.219525292515755">
        <ele>674.97997999999995</ele>
        <time>2017-06-14T10:44:34Z</time>
      </trkpt>
      <trkpt lat="41.892773425206542" lon="13.219714136794209">
        <ele>673.05999799999995</ele>
        <time>2017-06-14T10:44:48Z</time>
      </trkpt>
      <trkpt lat="41.892704023048282" lon="13.219859814271331">
        <ele>670.17999299999997</ele>
        <time>2017-06-14T10:45:01Z</time>
      </trkpt>
      <trkpt lat="41.892636464908719" lon="13.219903483986855">
        <ele>667.29003899999998</ele>
        <time>2017-06-14T10:45:11Z</time>
      </trkpt>
      <trkpt lat="41.892581731081009" lon="13.219945058226585">
        <ele>664.40997300000004</ele>
        <time>2017-06-14T10:45:24Z</time>
      </trkpt>
      <trkpt lat="41.892575612291694" lon="13.219872135668993">
        <ele>661.03997800000002</ele>
        <time>2017-06-14T10:45:33Z</time>
      </trkpt>
      <trkpt lat="41.89257837831974" lon="13.219859478995204">
        <ele>660.55999799999995</ele>
        <time>2017-06-14T10:45:34Z</time>
      </trkpt>
      <trkpt lat="41.892595980316401" lon="13.219740288332105">
        <ele>660.07995600000004</ele>
        <time>2017-06-14T10:45:45Z</time>
      </trkpt>
      <trkpt lat="41.89256270416081" lon="13.21972293779254">
        <ele>658.63995399999999</ele>
        <time>2017-06-14T10:45:52Z</time>
      </trkpt>
      <trkpt lat="41.89254904165864" lon="13.219576003029943">
        <ele>656.23999000000003</ele>
        <time>2017-06-14T10:46:06Z</time>
      </trkpt>
      <trkpt lat="41.892503276467323" lon="13.219597963616252">
        <ele>654.79998799999998</ele>
        <time>2017-06-14T10:46:24Z</time>
      </trkpt>
      <trkpt lat="41.892416439950466" lon="13.21952948346734">
        <ele>654.30999799999995</ele>
        <time>2017-06-14T10:46:36Z</time>
      </trkpt>
      <trkpt lat="41.892394479364157" lon="13.219456560909748">
        <ele>654.30999799999995</ele>
        <time>2017-06-14T10:46:41Z</time>
      </trkpt>
      <trkpt lat="41.892332620918751" lon="13.219274673610926">
        <ele>653.35003700000004</ele>
        <time>2017-06-14T10:46:54Z</time>
      </trkpt>
      <trkpt lat="41.892289621755481" lon="13.219215916469693">
        <ele>652.86999500000002</ele>
        <time>2017-06-14T10:47:00Z</time>
      </trkpt>
      <trkpt lat="41.892274282872677" lon="13.2191879209131">
        <ele>652.86999500000002</ele>
        <time>2017-06-14T10:47:03Z</time>
      </trkpt>
      <trkpt lat="41.892246203497052" lon="13.219212563708425">
        <ele>651.90997300000004</ele>
        <time>2017-06-14T10:47:07Z</time>
      </trkpt>
      <trkpt lat="41.892222734168172" lon="13.219347093254328">
        <ele>651.90997300000004</ele>
        <time>2017-06-14T10:47:20Z</time>
      </trkpt>
      <trkpt lat="41.892263134941459" lon="13.219513641670346">
        <ele>651.42999299999997</ele>
        <time>2017-06-14T10:47:35Z</time>
      </trkpt>
      <trkpt lat="41.892330441623926" lon="13.219760237261653">
        <ele>651.42999299999997</ele>
        <time>2017-06-14T10:47:51Z</time>
      </trkpt>
      <trkpt lat="41.892363131046295" lon="13.219996690750122">
        <ele>650.46997099999999</ele>
        <time>2017-06-14T10:48:06Z</time>
      </trkpt>
      <trkpt lat="41.892452985048294" lon="13.22022040374577">
        <ele>650.46997099999999</ele>
        <time>2017-06-14T10:48:20Z</time>
      </trkpt>
      <trkpt lat="41.892477795481682" lon="13.220244962722063">
        <ele>650.46997099999999</ele>
        <time>2017-06-14T10:48:24Z</time>
      </trkpt>
      <trkpt lat="41.89260913990438" lon="13.220398183912039">
        <ele>650.46997099999999</ele>
        <time>2017-06-14T10:48:38Z</time>
      </trkpt>
      <trkpt lat="41.892781471833587" lon="13.220536736771464">
        <ele>650.46997099999999</ele>
        <time>2017-06-14T10:48:54Z</time>
      </trkpt>
      <trkpt lat="41.892923712730408" lon="13.220665398985147">
        <ele>649.98999000000003</ele>
        <time>2017-06-14T10:49:11Z</time>
      </trkpt>
      <trkpt lat="41.893064361065626" lon="13.220791965723038">
        <ele>649.98999000000003</ele>
        <time>2017-06-14T10:49:25Z</time>
      </trkpt>
      <trkpt lat="41.893252283334732" lon="13.220866480842233">
        <ele>650.95001200000002</ele>
        <time>2017-06-14T10:49:40Z</time>
      </trkpt>
      <trkpt lat="41.893420089036226" lon="13.220821470022202">
        <ele>651.42999299999997</ele>
        <time>2017-06-14T10:49:53Z</time>
      </trkpt>
      <trkpt lat="41.893443893641233" lon="13.220783835276961">
        <ele>651.42999299999997</ele>
        <time>2017-06-14T10:49:57Z</time>
      </trkpt>
      <trkpt lat="41.893628463149071" lon="13.220655424520373">
        <ele>651.42999299999997</ele>
        <time>2017-06-14T10:50:14Z</time>
      </trkpt>
      <trkpt lat="41.89380289055407" lon="13.220621226355433">
        <ele>651.42999299999997</ele>
        <time>2017-06-14T10:50:27Z</time>
      </trkpt>
      <trkpt lat="41.894022915512323" lon="13.220643606036901">
        <ele>651.42999299999997</ele>
        <time>2017-06-14T10:50:42Z</time>
      </trkpt>
      <trkpt lat="41.894166665151715" lon="13.220649138092995">
        <ele>651.42999299999997</ele>
        <time>2017-06-14T10:50:55Z</time>
      </trkpt>
      <trkpt lat="41.894349893555045" lon="13.22072071954608">
        <ele>651.42999299999997</ele>
        <time>2017-06-14T10:51:08Z</time>
      </trkpt>
      <trkpt lat="41.894497834146023" lon="13.220772687345743">
        <ele>651.90997300000004</ele>
        <time>2017-06-14T10:51:21Z</time>
      </trkpt>
      <trkpt lat="41.89465013332665" lon="13.220822978764772">
        <ele>651.90997300000004</ele>
        <time>2017-06-14T10:51:35Z</time>
      </trkpt>
      <trkpt lat="41.894708471372724" lon="13.220868911594152">
        <ele>651.90997300000004</ele>
        <time>2017-06-14T10:51:39Z</time>
      </trkpt>
      <trkpt lat="41.894698916003108" lon="13.22096161544323">
        <ele>651.90997300000004</ele>
        <time>2017-06-14T10:51:46Z</time>
      </trkpt>
      <trkpt lat="41.894687181338668" lon="13.221101174131036">
        <ele>652.39001499999995</ele>
        <time>2017-06-14T10:51:59Z</time>
      </trkpt>
      <trkpt lat="41.894565895199776" lon="13.221118440851569">
        <ele>654.30999799999995</ele>
        <time>2017-06-14T10:52:13Z</time>
      </trkpt>
      <trkpt lat="41.894450560212135" lon="13.221180802211165">
        <ele>657.20001200000002</ele>
        <time>2017-06-14T10:52:27Z</time>
      </trkpt>
      <trkpt lat="41.894342014566064" lon="13.221232434734702">
        <ele>658.63995399999999</ele>
        <time>2017-06-14T10:52:40Z</time>
      </trkpt>
      <trkpt lat="41.894248221069574" lon="13.221282809972763">
        <ele>659.59997599999997</ele>
        <time>2017-06-14T10:52:51Z</time>
      </trkpt>
      <trkpt lat="41.89422408118844" lon="13.22130611166358">
        <ele>660.07995600000004</ele>
        <time>2017-06-14T10:52:56Z</time>
      </trkpt>
      <trkpt lat="41.89414244145155" lon="13.221369395032525">
        <ele>662.00994900000001</ele>
        <time>2017-06-14T10:53:07Z</time>
      </trkpt>
      <trkpt lat="41.894059292972088" lon="13.221437707543373">
        <ele>663.45001200000002</ele>
        <time>2017-06-14T10:53:19Z</time>
      </trkpt>
      <trkpt lat="41.893976060673594" lon="13.221507361158729">
        <ele>663.92999299999997</ele>
        <time>2017-06-14T10:53:30Z</time>
      </trkpt>
      <trkpt lat="41.893881680443883" lon="13.221559161320329">
        <ele>665.85003700000004</ele>
        <time>2017-06-14T10:53:43Z</time>
      </trkpt>
      <trkpt lat="41.893796185031533" lon="13.22162663564086">
        <ele>668.24993900000004</ele>
        <time>2017-06-14T10:53:55Z</time>
      </trkpt>
      <trkpt lat="41.893723933026195" lon="13.221683297306299">
        <ele>668.72997999999995</ele>
        <time>2017-06-14T10:54:06Z</time>
      </trkpt>
      <trkpt lat="41.893658973276615" lon="13.221757560968399">
        <ele>671.13995399999999</ele>
        <time>2017-06-14T10:54:18Z</time>
      </trkpt>
      <trkpt lat="41.893602563068271" lon="13.221848588436842">
        <ele>671.62005599999998</ele>
        <time>2017-06-14T10:54:29Z</time>
      </trkpt>
      <trkpt lat="41.893555037677288" lon="13.221929389983416">
        <ele>673.53997800000002</ele>
        <time>2017-06-14T10:54:40Z</time>
      </trkpt>
      <trkpt lat="41.893504913896322" lon="13.222028464078903">
        <ele>674.02002000000005</ele>
        <time>2017-06-14T10:54:51Z</time>
      </trkpt>
      <trkpt lat="41.893449928611517" lon="13.222151761874557">
        <ele>675.46002199999998</ele>
        <time>2017-06-14T10:55:03Z</time>
      </trkpt>
      <trkpt lat="41.8934041634202" lon="13.222273718565702">
        <ele>676.90997300000004</ele>
        <time>2017-06-14T10:55:15Z</time>
      </trkpt>
      <trkpt lat="41.893386309966445" lon="13.222312023863196">
        <ele>677.39001499999995</ele>
        <time>2017-06-14T10:55:19Z</time>
      </trkpt>
      <trkpt lat="41.893334174528718" lon="13.222455019131303">
        <ele>679.30999799999995</ele>
        <time>2017-06-14T10:55:31Z</time>
      </trkpt>
      <trkpt lat="41.893330737948418" lon="13.222473962232471">
        <ele>679.30999799999995</ele>
        <time>2017-06-14T10:55:33Z</time>
      </trkpt>
      <trkpt lat="41.893307771533728" lon="13.222598936408758">
        <ele>680.27002000000005</ele>
        <time>2017-06-14T10:55:45Z</time>
      </trkpt>
      <trkpt lat="41.893282709643245" lon="13.222711086273193">
        <ele>682.19000200000005</ele>
        <time>2017-06-14T10:55:57Z</time>
      </trkpt>
      <trkpt lat="41.893237615004182" lon="13.222849303856492">
        <ele>684.12005599999998</ele>
        <time>2017-06-14T10:56:12Z</time>
      </trkpt>
      <trkpt lat="41.893194364383817" lon="13.22296698577702">
        <ele>686.03997800000002</ele>
        <time>2017-06-14T10:56:25Z</time>
      </trkpt>
      <trkpt lat="41.893179612234235" lon="13.223069161176682">
        <ele>687.96002199999998</ele>
        <time>2017-06-14T10:56:36Z</time>
      </trkpt>
      <trkpt lat="41.893155304715037" lon="13.223191620782018">
        <ele>689.40002400000003</ele>
        <time>2017-06-14T10:56:47Z</time>
      </trkpt>
      <trkpt lat="41.893135104328394" lon="13.223307793959975">
        <ele>691.330017</ele>
        <time>2017-06-14T10:56:59Z</time>
      </trkpt>
      <trkpt lat="41.89308749511838" lon="13.22341893799603">
        <ele>693.24993900000004</ele>
        <time>2017-06-14T10:57:11Z</time>
      </trkpt>
      <trkpt lat="41.893071066588163" lon="13.223518934100866">
        <ele>694.69000200000005</ele>
        <time>2017-06-14T10:57:20Z</time>
      </trkpt>
      <trkpt lat="41.893068300560117" lon="13.223648685961962">
        <ele>695.64996299999996</ele>
        <time>2017-06-14T10:57:33Z</time>
      </trkpt>
      <trkpt lat="41.893062265589833" lon="13.22375513613224">
        <ele>696.60998500000005</ele>
        <time>2017-06-14T10:57:44Z</time>
      </trkpt>
      <trkpt lat="41.89306452870369" lon="13.223881032317877">
        <ele>697.57000700000003</ele>
        <time>2017-06-14T10:57:56Z</time>
      </trkpt>
      <trkpt lat="41.893073078244925" lon="13.224014807492495">
        <ele>699.97997999999995</ele>
        <time>2017-06-14T10:58:09Z</time>
      </trkpt>
      <trkpt lat="41.893075341358781" lon="13.224020758643746">
        <ele>700.46002199999998</ele>
        <time>2017-06-14T10:58:10Z</time>
      </trkpt>
      <trkpt lat="41.89310560002923" lon="13.224143972620368">
        <ele>701.42004399999996</ele>
        <time>2017-06-14T10:58:24Z</time>
      </trkpt>
      <trkpt lat="41.893099062144756" lon="13.224249836057425">
        <ele>703.339966</ele>
        <time>2017-06-14T10:58:35Z</time>
      </trkpt>
      <trkpt lat="41.893071569502354" lon="13.224371373653412">
        <ele>705.26000999999997</ele>
        <time>2017-06-14T10:58:47Z</time>
      </trkpt>
      <trkpt lat="41.892984062433243" lon="13.224440272897482">
        <ele>707.669983</ele>
        <time>2017-06-14T10:59:02Z</time>
      </trkpt>
      <trkpt lat="41.89291306771338" lon="13.224495928734541">
        <ele>710.07000700000003</ele>
        <time>2017-06-14T10:59:16Z</time>
      </trkpt>
      <trkpt lat="41.892869062721729" lon="13.224569940939546">
        <ele>711.51000999999997</ele>
        <time>2017-06-14T10:59:27Z</time>
      </trkpt>
      <trkpt lat="41.892854897305369" lon="13.224616041406989">
        <ele>711.99005099999999</ele>
        <time>2017-06-14T10:59:31Z</time>
      </trkpt>
      <trkpt lat="41.89280753955245" lon="13.224733639508486">
        <ele>713.44000200000005</ele>
        <time>2017-06-14T10:59:44Z</time>
      </trkpt>
      <trkpt lat="41.892770910635591" lon="13.224812261760235">
        <ele>714.40002400000003</ele>
        <time>2017-06-14T10:59:56Z</time>
      </trkpt>
      <trkpt lat="41.892723301425576" lon="13.224971266463399">
        <ele>716.32000700000003</ele>
        <time>2017-06-14T11:00:10Z</time>
      </trkpt>
      <trkpt lat="41.892686923965812" lon="13.225072100758553">
        <ele>718.23999000000003</ele>
        <time>2017-06-14T11:00:21Z</time>
      </trkpt>
      <trkpt lat="41.892682397738099" lon="13.225176958367229">
        <ele>719.67999299999997</ele>
        <time>2017-06-14T11:00:33Z</time>
      </trkpt>
      <trkpt lat="41.892665885388851" lon="13.225309560075402">
        <ele>721.60998500000005</ele>
        <time>2017-06-14T11:00:46Z</time>
      </trkpt>
      <trkpt lat="41.892614085227251" lon="13.225444927811623">
        <ele>723.53002900000001</ele>
        <time>2017-06-14T11:01:00Z</time>
      </trkpt>
      <trkpt lat="41.892592962831259" lon="13.225510139018297">
        <ele>724.01000999999997</ele>
        <time>2017-06-14T11:01:13Z</time>
      </trkpt>
      <trkpt lat="41.89259547740221" lon="13.225554060190916">
        <ele>724.01000999999997</ele>
        <time>2017-06-14T11:01:17Z</time>
      </trkpt>
      <trkpt lat="41.892603104934096" lon="13.22568423114717">
        <ele>724.01000999999997</ele>
        <time>2017-06-14T11:01:26Z</time>
      </trkpt>
      <trkpt lat="41.892639230936766" lon="13.22579076513648">
        <ele>724.01000999999997</ele>
        <time>2017-06-14T11:01:35Z</time>
      </trkpt>
      <trkpt lat="41.892655240371823" lon="13.225966366007924">
        <ele>724.01000999999997</ele>
        <time>2017-06-14T11:01:49Z</time>
      </trkpt>
      <trkpt lat="41.892575528472662" lon="13.226049095392227">
        <ele>724.01000999999997</ele>
        <time>2017-06-14T11:01:58Z</time>
      </trkpt>
      <trkpt lat="41.892539989203215" lon="13.226056303828955">
        <ele>724.49005099999999</ele>
        <time>2017-06-14T11:02:02Z</time>
      </trkpt>
      <trkpt lat="41.892333291471004" lon="13.226036187261343">
        <ele>725.44995100000006</ele>
        <time>2017-06-14T11:02:20Z</time>
      </trkpt>
      <trkpt lat="41.892211670055985" lon="13.225955385714769">
        <ele>725.44995100000006</ele>
        <time>2017-06-14T11:02:32Z</time>
      </trkpt>
      <trkpt lat="41.892162635922432" lon="13.225918002426624">
        <ele>726.89001499999995</ele>
        <time>2017-06-14T11:02:36Z</time>
      </trkpt>
      <trkpt lat="41.892110919579864" lon="13.22589922696352">
        <ele>727.86004600000001</ele>
        <time>2017-06-14T11:02:42Z</time>
      </trkpt>
      <trkpt lat="41.892091808840632" lon="13.225929234176874">
        <ele>727.36999500000002</ele>
        <time>2017-06-14T11:02:55Z</time>
      </trkpt>
      <trkpt lat="41.89209608361125" lon="13.225906267762184">
        <ele>727.36999500000002</ele>
        <time>2017-06-14T11:03:08Z</time>
      </trkpt>
      <trkpt lat="41.892086025327444" lon="13.225885480642319">
        <ele>727.36999500000002</ele>
        <time>2017-06-14T11:03:16Z</time>
      </trkpt>
      <trkpt lat="41.892018467187881" lon="13.22562170214951">
        <ele>727.36999500000002</ele>
        <time>2017-06-14T11:03:34Z</time>
      </trkpt>
      <trkpt lat="41.892003295943141" lon="13.225592281669378">
        <ele>728.82000700000003</ele>
        <time>2017-06-14T11:03:37Z</time>
      </trkpt>
      <trkpt lat="41.891921320930123" lon="13.225427912548184">
        <ele>730.26000999999997</ele>
        <time>2017-06-14T11:03:52Z</time>
      </trkpt>
      <trkpt lat="41.891826018691063" lon="13.225308135151863">
        <ele>731.70001200000002</ele>
        <time>2017-06-14T11:04:07Z</time>
      </trkpt>
      <trkpt lat="41.891777906566858" lon="13.225186932832003">
        <ele>733.14001499999995</ele>
        <time>2017-06-14T11:04:19Z</time>
      </trkpt>
      <trkpt lat="41.891773967072368" lon="13.22511007077992">
        <ele>734.57995600000004</ele>
        <time>2017-06-14T11:04:34Z</time>
      </trkpt>
      <trkpt lat="41.89172962680459" lon="13.224984090775251">
        <ele>736.99005099999999</ele>
        <time>2017-06-14T11:04:49Z</time>
      </trkpt>
      <trkpt lat="41.891673635691404" lon="13.224915694445372">
        <ele>738.90997300000004</ele>
        <time>2017-06-14T11:05:02Z</time>
      </trkpt>
      <trkpt lat="41.891663577407598" lon="13.225028933957219">
        <ele>740.34997599999997</ele>
        <time>2017-06-14T11:05:15Z</time>
      </trkpt>
      <trkpt lat="41.891660559922457" lon="13.225154494866729">
        <ele>742.27996800000005</ele>
        <time>2017-06-14T11:05:28Z</time>
      </trkpt>
      <trkpt lat="41.891634659841657" lon="13.225240325555205">
        <ele>743.72003199999995</ele>
        <time>2017-06-14T11:05:40Z</time>
      </trkpt>
      <trkpt lat="41.891603311523795" lon="13.225306626409292">
        <ele>746.11999500000002</ele>
        <time>2017-06-14T11:05:52Z</time>
      </trkpt>
      <trkpt lat="41.891609178856015" lon="13.225397067144513">
        <ele>748.03997800000002</ele>
        <time>2017-06-14T11:06:04Z</time>
      </trkpt>
      <trkpt lat="41.891624685376883" lon="13.225486585870385">
        <ele>749.49005099999999</ele>
        <time>2017-06-14T11:06:17Z</time>
      </trkpt>
      <trkpt lat="41.89163776114583" lon="13.22556403465569">
        <ele>750.44995100000006</ele>
        <time>2017-06-14T11:06:29Z</time>
      </trkpt>
      <trkpt lat="41.891649663448334" lon="13.225625306367874">
        <ele>751.89001499999995</ele>
        <time>2017-06-14T11:06:43Z</time>
      </trkpt>
      <trkpt lat="41.891652513295412" lon="13.225626815110445">
        <ele>750.44995100000006</ele>
        <time>2017-06-14T11:06:52Z</time>
      </trkpt>
      <trkpt lat="41.891659470275044" lon="13.225611140951514">
        <ele>752.84997599999997</ele>
        <time>2017-06-14T11:07:02Z</time>
      </trkpt>
      <trkpt lat="41.891659805551171" lon="13.225677022710443">
        <ele>753.80999799999995</ele>
        <time>2017-06-14T11:07:11Z</time>
      </trkpt>
      <trkpt lat="41.891610100865364" lon="13.225766541436315">
        <ele>755.73004200000003</ele>
        <time>2017-06-14T11:07:24Z</time>
      </trkpt>
      <trkpt lat="41.891602305695415" lon="13.225791938602924">
        <ele>755.73004200000003</ele>
        <time>2017-06-14T11:07:28Z</time>
      </trkpt>
      <trkpt lat="41.891585625708103" lon="13.225900987163186">
        <ele>758.14001499999995</ele>
        <time>2017-06-14T11:07:39Z</time>
      </trkpt>
      <trkpt lat="41.891530388966203" lon="13.225976675748825">
        <ele>760.05999799999995</ele>
        <time>2017-06-14T11:07:53Z</time>
      </trkpt>
      <trkpt lat="41.891465177759528" lon="13.226065607741475">
        <ele>762.94000200000005</ele>
        <time>2017-06-14T11:08:08Z</time>
      </trkpt>
      <trkpt lat="41.89145696349442" lon="13.226081114262342">
        <ele>763.419983</ele>
        <time>2017-06-14T11:08:23Z</time>
      </trkpt>
      <trkpt lat="41.891450425609946" lon="13.22607952170074">
        <ele>763.419983</ele>
        <time>2017-06-14T11:08:25Z</time>
      </trkpt>
      <trkpt lat="41.891417568549514" lon="13.226106092333794">
        <ele>763.419983</ele>
        <time>2017-06-14T11:08:39Z</time>
      </trkpt>
      <trkpt lat="41.891389237716794" lon="13.226116569712758">
        <ele>763.419983</ele>
        <time>2017-06-14T11:08:55Z</time>
      </trkpt>
      <trkpt lat="41.89137876033783" lon="13.226129561662674">
        <ele>764.39001499999995</ele>
        <time>2017-06-14T11:09:25Z</time>
      </trkpt>
      <trkpt lat="41.891385717317462" lon="13.22610885836184">
        <ele>764.39001499999995</ele>
        <time>2017-06-14T11:09:46Z</time>
      </trkpt>
      <trkpt lat="41.891423435881734" lon="13.226086813956499">
        <ele>764.39001499999995</ele>
        <time>2017-06-14T11:10:03Z</time>
      </trkpt>
      <trkpt lat="41.891414131969213" lon="13.226102739572525">
        <ele>764.39001499999995</ele>
        <time>2017-06-14T11:10:26Z</time>
      </trkpt>
      <trkpt lat="41.89141346141696" lon="13.226125622168183">
        <ele>764.39001499999995</ele>
        <time>2017-06-14T11:11:01Z</time>
      </trkpt>
      <trkpt lat="41.891410360112786" lon="13.226111959666014">
        <ele>764.86999500000002</ele>
        <time>2017-06-14T11:11:23Z</time>
      </trkpt>
      <trkpt lat="41.891421927139163" lon="13.226118329912424">
        <ele>764.86999500000002</ele>
        <time>2017-06-14T11:11:46Z</time>
      </trkpt>
      <trkpt lat="41.891419412568212" lon="13.226130735129118">
        <ele>765.34997599999997</ele>
        <time>2017-06-14T11:12:18Z</time>
      </trkpt>
      <trkpt lat="41.891424022614956" lon="13.226103326305747">
        <ele>765.34997599999997</ele>
        <time>2017-06-14T11:12:39Z</time>
      </trkpt>
      <trkpt lat="41.891435002908111" lon="13.226058483123779">
        <ele>765.34997599999997</ele>
        <time>2017-06-14T11:12:53Z</time>
      </trkpt>
      <trkpt lat="41.891417065635324" lon="13.226092597469687">
        <ele>764.39001499999995</ele>
        <time>2017-06-14T11:13:20Z</time>
      </trkpt>
      <trkpt lat="41.891404911875725" lon="13.226169794797897">
        <ele>765.34997599999997</ele>
        <time>2017-06-14T11:13:28Z</time>
      </trkpt>
      <trkpt lat="41.89140172675252" lon="13.226198293268681">
        <ele>765.34997599999997</ele>
        <time>2017-06-14T11:13:31Z</time>
      </trkpt>
      <trkpt lat="41.89137146808207" lon="13.226359561085701">
        <ele>766.30999799999995</ele>
        <time>2017-06-14T11:13:44Z</time>
      </trkpt>
      <trkpt lat="41.891365265473723" lon="13.226369703188539">
        <ele>766.30999799999995</ele>
        <time>2017-06-14T11:13:45Z</time>
      </trkpt>
      <trkpt lat="41.891285637393594" lon="13.226526193320751">
        <ele>766.30999799999995</ele>
        <time>2017-06-14T11:13:59Z</time>
      </trkpt>
      <trkpt lat="41.891240123659372" lon="13.226619064807892">
        <ele>766.30999799999995</ele>
        <time>2017-06-14T11:14:06Z</time>
      </trkpt>
      <trkpt lat="41.891154712066054" lon="13.226821990683675">
        <ele>766.30999799999995</ele>
        <time>2017-06-14T11:14:21Z</time>
      </trkpt>
      <trkpt lat="41.891066785901785" lon="13.226958364248276">
        <ele>766.79003899999998</ele>
        <time>2017-06-14T11:14:34Z</time>
      </trkpt>
      <trkpt lat="41.89106754027307" lon="13.227015528827906">
        <ele>767.27002000000005</ele>
        <time>2017-06-14T11:14:39Z</time>
      </trkpt>
      <trkpt lat="41.891021272167563" lon="13.22714427486062">
        <ele>768.70996100000002</ele>
        <time>2017-06-14T11:14:52Z</time>
      </trkpt>
      <trkpt lat="41.891001323238015" lon="13.227187525480986">
        <ele>768.70996100000002</ele>
        <time>2017-06-14T11:14:58Z</time>
      </trkpt>
      <trkpt lat="41.890986822545528" lon="13.227240163832903">
        <ele>769.669983</ele>
        <time>2017-06-14T11:15:03Z</time>
      </trkpt>
      <trkpt lat="41.890927897766232" lon="13.227332280948758">
        <ele>770.63000499999998</ele>
        <time>2017-06-14T11:15:12Z</time>
      </trkpt>
      <trkpt lat="41.890931585803628" lon="13.227462116628885">
        <ele>772.07995600000004</ele>
        <time>2017-06-14T11:15:25Z</time>
      </trkpt>
      <trkpt lat="41.890936866402626" lon="13.227557670325041">
        <ele>774.47997999999995</ele>
        <time>2017-06-14T11:15:37Z</time>
      </trkpt>
      <trkpt lat="41.890910379588604" lon="13.227668814361095">
        <ele>776.40002400000003</ele>
        <time>2017-06-14T11:15:48Z</time>
      </trkpt>
      <trkpt lat="41.890880959108472" lon="13.227764116600156">
        <ele>778.31994599999996</ele>
        <time>2017-06-14T11:16:01Z</time>
      </trkpt>
      <trkpt lat="41.890830416232347" lon="13.22787182405591">
        <ele>780.73004200000003</ele>
        <time>2017-06-14T11:16:14Z</time>
      </trkpt>
      <trkpt lat="41.890770737081766" lon="13.227967293933034">
        <ele>783.13000499999998</ele>
        <time>2017-06-14T11:16:27Z</time>
      </trkpt>
      <trkpt lat="41.890756571665406" lon="13.228048095479608">
        <ele>784.57000700000003</ele>
        <time>2017-06-14T11:16:41Z</time>
      </trkpt>
      <trkpt lat="41.890719439834356" lon="13.228142140433192">
        <ele>786.5</ele>
        <time>2017-06-14T11:16:56Z</time>
      </trkpt>
      <trkpt lat="41.890696221962571" lon="13.228243896737695">
        <ele>788.90002400000003</ele>
        <time>2017-06-14T11:17:08Z</time>
      </trkpt>
      <trkpt lat="41.890732431784272" lon="13.228305000811815">
        <ele>790.34002699999996</ele>
        <time>2017-06-14T11:17:20Z</time>
      </trkpt>
      <trkpt lat="41.890742322430015" lon="13.228381359949708">
        <ele>791.77996800000005</ele>
        <time>2017-06-14T11:17:30Z</time>
      </trkpt>
      <trkpt lat="41.890743328258395" lon="13.22847381234169">
        <ele>793.70996100000002</ele>
        <time>2017-06-14T11:17:40Z</time>
      </trkpt>
      <trkpt lat="41.890733018517494" lon="13.228587303310633">
        <ele>795.63000499999998</ele>
        <time>2017-06-14T11:17:52Z</time>
      </trkpt>
      <trkpt lat="41.890726983547211" lon="13.228679671883583">
        <ele>797.54998799999998</ele>
        <time>2017-06-14T11:18:04Z</time>
      </trkpt>
      <trkpt lat="41.890711728483438" lon="13.228788720443845">
        <ele>798.98999000000003</ele>
        <time>2017-06-14T11:18:17Z</time>
      </trkpt>
      <trkpt lat="41.890712399035692" lon="13.228871282190084">
        <ele>800.919983</ele>
        <time>2017-06-14T11:18:30Z</time>
      </trkpt>
      <trkpt lat="41.89069421030581" lon="13.228981839492917">
        <ele>802.36004600000001</ele>
        <time>2017-06-14T11:18:42Z</time>
      </trkpt>
      <trkpt lat="41.890682727098465" lon="13.229057779535651">
        <ele>804.27996800000005</ele>
        <time>2017-06-14T11:18:53Z</time>
      </trkpt>
      <trkpt lat="41.890690019354224" lon="13.229142436757684">
        <ele>805.23999000000003</ele>
        <time>2017-06-14T11:19:04Z</time>
      </trkpt>
      <trkpt lat="41.890654312446713" lon="13.229217790067196">
        <ele>807.160034</ele>
        <time>2017-06-14T11:19:15Z</time>
      </trkpt>
      <trkpt lat="41.890632435679436" lon="13.229324826970696">
        <ele>808.60998500000005</ele>
        <time>2017-06-14T11:19:27Z</time>
      </trkpt>
      <trkpt lat="41.890646936371922" lon="13.229413172230124">
        <ele>810.04998799999998</ele>
        <time>2017-06-14T11:19:38Z</time>
      </trkpt>
      <trkpt lat="41.890647439286113" lon="13.229492967948318">
        <ele>811.97003199999995</ele>
        <time>2017-06-14T11:19:50Z</time>
      </trkpt>
      <trkpt lat="41.890609888359904" lon="13.229590030387044">
        <ele>814.36999500000002</ele>
        <time>2017-06-14T11:20:02Z</time>
      </trkpt>
      <trkpt lat="41.890552304685116" lon="13.229675861075521">
        <ele>815.81994599999996</ele>
        <time>2017-06-14T11:20:14Z</time>
      </trkpt>
      <trkpt lat="41.890553897246718" lon="13.229769989848137">
        <ele>817.26000999999997</ele>
        <time>2017-06-14T11:20:25Z</time>
      </trkpt>
      <trkpt lat="41.890541659668088" lon="13.229782897979021">
        <ele>817.26000999999997</ele>
        <time>2017-06-14T11:20:27Z</time>
      </trkpt>
      <trkpt lat="41.890504360198975" lon="13.229875937104225">
        <ele>819.660034</ele>
        <time>2017-06-14T11:20:40Z</time>
      </trkpt>
      <trkpt lat="41.890503186732531" lon="13.229866633191705">
        <ele>821.10003700000004</ele>
        <time>2017-06-14T11:20:52Z</time>
      </trkpt>
      <trkpt lat="41.890565967187285" lon="13.229894880205393">
        <ele>823.03002900000001</ele>
        <time>2017-06-14T11:21:04Z</time>
      </trkpt>
      <trkpt lat="41.890579964965582" lon="13.229920528829098">
        <ele>823.51000999999997</ele>
        <time>2017-06-14T11:21:08Z</time>
      </trkpt>
      <trkpt lat="41.890527997165918" lon="13.230022788047791">
        <ele>825.90997300000004</ele>
        <time>2017-06-14T11:21:20Z</time>
      </trkpt>
      <trkpt lat="41.890494469553232" lon="13.230099063366652">
        <ele>827.34997599999997</ele>
        <time>2017-06-14T11:21:32Z</time>
      </trkpt>
      <trkpt lat="41.890484495088458" lon="13.230178439989686">
        <ele>829.27002000000005</ele>
        <time>2017-06-14T11:21:43Z</time>
      </trkpt>
      <trkpt lat="41.890481561422348" lon="13.23023677803576">
        <ele>831.20001200000002</ele>
        <time>2017-06-14T11:21:55Z</time>
      </trkpt>
      <trkpt lat="41.890474101528525" lon="13.230273323133588">
        <ele>832.64001499999995</ele>
        <time>2017-06-14T11:22:05Z</time>
      </trkpt>
      <trkpt lat="41.890530763193965" lon="13.230265360325575">
        <ele>834.56005900000002</ele>
        <time>2017-06-14T11:22:18Z</time>
      </trkpt>
      <trkpt lat="41.890497067943215" lon="13.230328392237425">
        <ele>836</ele>
        <time>2017-06-14T11:22:28Z</time>
      </trkpt>
      <trkpt lat="41.890478124842048" lon="13.230412965640426">
        <ele>837.93005400000004</ele>
        <time>2017-06-14T11:22:40Z</time>
      </trkpt>
      <trkpt lat="41.890465635806322" lon="13.230492090806365">
        <ele>839.36999500000002</ele>
        <time>2017-06-14T11:22:53Z</time>
      </trkpt>
      <trkpt lat="41.890454739332199" lon="13.230574568733573">
        <ele>841.77002000000005</ele>
        <time>2017-06-14T11:23:05Z</time>
      </trkpt>
      <trkpt lat="41.890460858121514" lon="13.230638271197677">
        <ele>843.21002199999998</ele>
        <time>2017-06-14T11:23:13Z</time>
      </trkpt>
      <trkpt lat="41.890422217547894" lon="13.230745727196336">
        <ele>845.14001499999995</ele>
        <time>2017-06-14T11:23:26Z</time>
      </trkpt>
      <trkpt lat="41.890375865623355" lon="13.230829378589988">
        <ele>847.06005900000002</ele>
        <time>2017-06-14T11:23:39Z</time>
      </trkpt>
      <trkpt lat="41.890350971370935" lon="13.230890734121203">
        <ele>848.01995799999997</ele>
        <time>2017-06-14T11:23:52Z</time>
      </trkpt>
      <trkpt lat="41.89031258225441" lon="13.2309565320611">
        <ele>848.01995799999997</ele>
        <time>2017-06-14T11:24:23Z</time>
      </trkpt>
      <trkpt lat="41.890266062691808" lon="13.231022162362933">
        <ele>850.419983</ele>
        <time>2017-06-14T11:24:36Z</time>
      </trkpt>
      <trkpt lat="41.890228679403663" lon="13.231086786836386">
        <ele>852.830017</ele>
        <time>2017-06-14T11:24:48Z</time>
      </trkpt>
      <trkpt lat="41.890200935304165" lon="13.231170019134879">
        <ele>855.23004200000003</ele>
        <time>2017-06-14T11:25:01Z</time>
      </trkpt>
      <trkpt lat="41.890159277245402" lon="13.231245707720518">
        <ele>857.14996299999996</ele>
        <time>2017-06-14T11:25:14Z</time>
      </trkpt>
      <trkpt lat="41.890150560066104" lon="13.231340926140547">
        <ele>860.03997800000002</ele>
        <time>2017-06-14T11:25:28Z</time>
      </trkpt>
      <trkpt lat="41.890099178999662" lon="13.231430612504482">
        <ele>861.95996100000002</ele>
        <time>2017-06-14T11:25:41Z</time>
      </trkpt>
      <trkpt lat="41.890065986663103" lon="13.231533793732524">
        <ele>864.84002699999996</ele>
        <time>2017-06-14T11:25:55Z</time>
      </trkpt>
      <trkpt lat="41.890028268098831" lon="13.231607135385275">
        <ele>866.77002000000005</ele>
        <time>2017-06-14T11:26:06Z</time>
      </trkpt>
      <trkpt lat="41.890009492635727" lon="13.231715681031346">
        <ele>868.21002199999998</ele>
        <time>2017-06-14T11:26:19Z</time>
      </trkpt>
      <trkpt lat="41.890013180673122" lon="13.231801930814981">
        <ele>870.60998500000005</ele>
        <time>2017-06-14T11:26:32Z</time>
      </trkpt>
      <trkpt lat="41.889975713565946" lon="13.231886001303792">
        <ele>872.53002900000001</ele>
        <time>2017-06-14T11:26:45Z</time>
      </trkpt>
      <trkpt lat="41.889964230358601" lon="13.231992702931166">
        <ele>873.97997999999995</ele>
        <time>2017-06-14T11:26:58Z</time>
      </trkpt>
      <trkpt lat="41.889932798221707" lon="13.232101919129491">
        <ele>875.90002400000003</ele>
        <time>2017-06-14T11:27:10Z</time>
      </trkpt>
      <trkpt lat="41.889866162091494" lon="13.23218883946538">
        <ele>876.38000499999998</ele>
        <time>2017-06-14T11:27:20Z</time>
      </trkpt>
      <trkpt lat="41.889839004725218" lon="13.232225300744176">
        <ele>876.85998500000005</ele>
        <time>2017-06-14T11:27:25Z</time>
      </trkpt>
      <trkpt lat="41.889762226492167" lon="13.232385981827974">
        <ele>877.82000700000003</ele>
        <time>2017-06-14T11:27:40Z</time>
      </trkpt>
      <trkpt lat="41.889726603403687" lon="13.232401320710778">
        <ele>878.30004899999994</ele>
        <time>2017-06-14T11:27:56Z</time>
      </trkpt>
      <trkpt lat="41.889718137681484" lon="13.232392687350512">
        <ele>878.30004899999994</ele>
        <time>2017-06-14T11:27:59Z</time>
      </trkpt>
      <trkpt lat="41.889658961445093" lon="13.232269138097763">
        <ele>878.77996800000005</ele>
        <time>2017-06-14T11:28:13Z</time>
      </trkpt>
      <trkpt lat="41.889626858755946" lon="13.232228988781571">
        <ele>880.71002199999998</ele>
        <time>2017-06-14T11:28:21Z</time>
      </trkpt>
      <trkpt lat="41.889572711661458" lon="13.232180122286081">
        <ele>882.14996299999996</ele>
        <time>2017-06-14T11:28:32Z</time>
      </trkpt>
      <trkpt lat="41.889526192098856" lon="13.232062859460711">
        <ele>884.07000700000003</ele>
        <time>2017-06-14T11:28:44Z</time>
      </trkpt>
      <trkpt lat="41.889521330595016" lon="13.231990439817309">
        <ele>884.54998799999998</ele>
        <time>2017-06-14T11:28:58Z</time>
      </trkpt>
      <trkpt lat="41.889501297846437" lon="13.231961606070399">
        <ele>884.54998799999998</ele>
        <time>2017-06-14T11:29:04Z</time>
      </trkpt>
      <trkpt lat="41.889476990327239" lon="13.231834871694446">
        <ele>885.03002900000001</ele>
        <time>2017-06-14T11:29:17Z</time>
      </trkpt>
      <trkpt lat="41.889452934265137" lon="13.231698833405972">
        <ele>885.51000999999997</ele>
        <time>2017-06-14T11:29:30Z</time>
      </trkpt>
      <trkpt lat="41.889412365853786" lon="13.231622390449047">
        <ele>886.47003199999995</ele>
        <time>2017-06-14T11:29:36Z</time>
      </trkpt>
      <trkpt lat="41.889391662552953" lon="13.231442598626018">
        <ele>887.43005400000004</ele>
        <time>2017-06-14T11:29:48Z</time>
      </trkpt>
      <trkpt lat="41.88936366699636" lon="13.231282839551568">
        <ele>887.43005400000004</ele>
        <time>2017-06-14T11:30:02Z</time>
      </trkpt>
      <trkpt lat="41.889299964532256" lon="13.231121739372611">
        <ele>888.40002400000003</ele>
        <time>2017-06-14T11:30:17Z</time>
      </trkpt>
      <trkpt lat="41.889270879328251" lon="13.230987126007676">
        <ele>888.40002400000003</ele>
        <time>2017-06-14T11:30:34Z</time>
      </trkpt>
      <trkpt lat="41.889271214604378" lon="13.230971619486809">
        <ele>888.40002400000003</ele>
        <time>2017-06-14T11:30:35Z</time>
      </trkpt>
      <trkpt lat="41.889247158542275" lon="13.230791073292494">
        <ele>888.40002400000003</ele>
        <time>2017-06-14T11:30:47Z</time>
      </trkpt>
      <trkpt lat="41.889199465513229" lon="13.230624021962285">
        <ele>888.40002400000003</ele>
        <time>2017-06-14T11:31:00Z</time>
      </trkpt>
      <trkpt lat="41.889176499098539" lon="13.230447666719556">
        <ele>888.88000499999998</ele>
        <time>2017-06-14T11:31:13Z</time>
      </trkpt>
      <trkpt lat="41.889109024778008" lon="13.230303917080164">
        <ele>888.88000499999998</ele>
        <time>2017-06-14T11:31:26Z</time>
      </trkpt>
      <trkpt lat="41.889102486893535" lon="13.230295032262802">
        <ele>888.88000499999998</ele>
        <time>2017-06-14T11:31:27Z</time>
      </trkpt>
      <trkpt lat="41.889020930975676" lon="13.230154300108552">
        <ele>890.32000700000003</ele>
        <time>2017-06-14T11:31:41Z</time>
      </trkpt>
      <trkpt lat="41.888988828286529" lon="13.230135440826416">
        <ele>890.32000700000003</ele>
        <time>2017-06-14T11:31:46Z</time>
      </trkpt>
      <trkpt lat="41.888924958184361" lon="13.229978615418077">
        <ele>892.23999000000003</ele>
        <time>2017-06-14T11:32:01Z</time>
      </trkpt>
      <trkpt lat="41.888871565461159" lon="13.22984391823411">
        <ele>893.67999299999997</ele>
        <time>2017-06-14T11:32:14Z</time>
      </trkpt>
      <trkpt lat="41.88888237811625" lon="13.229645686224103">
        <ele>894.64001499999995</ele>
        <time>2017-06-14T11:32:32Z</time>
      </trkpt>
      <trkpt lat="41.88883007504046" lon="13.229607213288546">
        <ele>896.089966</ele>
        <time>2017-06-14T11:32:42Z</time>
      </trkpt>
      <trkpt lat="41.888770395889878" lon="13.229492967948318">
        <ele>898.97003199999995</ele>
        <time>2017-06-14T11:32:56Z</time>
      </trkpt>
      <trkpt lat="41.888711638748646" lon="13.229371011257172">
        <ele>900.410034</ele>
        <time>2017-06-14T11:33:08Z</time>
      </trkpt>
      <trkpt lat="41.888673417270184" lon="13.229189207777381">
        <ele>902.32995600000004</ele>
        <time>2017-06-14T11:33:22Z</time>
      </trkpt>
      <trkpt lat="41.88863217830658" lon="13.22903766296804">
        <ele>903.30004899999994</ele>
        <time>2017-06-14T11:33:37Z</time>
      </trkpt>
      <trkpt lat="41.888594124466181" lon="13.228915371000767">
        <ele>904.73999000000003</ele>
        <time>2017-06-14T11:33:52Z</time>
      </trkpt>
      <trkpt lat="41.888547437265515" lon="13.228801796212792">
        <ele>906.65997300000004</ele>
        <time>2017-06-14T11:34:04Z</time>
      </trkpt>
      <trkpt lat="41.88849002122879" lon="13.228696687147021">
        <ele>907.61999500000002</ele>
        <time>2017-06-14T11:34:17Z</time>
      </trkpt>
      <trkpt lat="41.888422966003418" lon="13.228581016883254">
        <ele>908.580017</ele>
        <time>2017-06-14T11:34:32Z</time>
      </trkpt>
      <trkpt lat="41.888349875807762" lon="13.228514129295945">
        <ele>910.51000999999997</ele>
        <time>2017-06-14T11:34:45Z</time>
      </trkpt>
      <trkpt lat="41.888311738148332" lon="13.228467777371407">
        <ele>911.95001200000002</ele>
        <time>2017-06-14T11:34:56Z</time>
      </trkpt>
      <trkpt lat="41.888273013755679" lon="13.228377336636186">
        <ele>912.43005400000004</ele>
        <time>2017-06-14T11:35:06Z</time>
      </trkpt>
      <trkpt lat="41.888198833912611" lon="13.228248590603471">
        <ele>913.86999500000002</ele>
        <time>2017-06-14T11:35:19Z</time>
      </trkpt>
      <trkpt lat="41.888127587735653" lon="13.228090340271592">
        <ele>915.30999799999995</ele>
        <time>2017-06-14T11:35:33Z</time>
      </trkpt>
      <trkpt lat="41.888076877221465" lon="13.227955140173435">
        <ele>913.86999500000002</ele>
        <time>2017-06-14T11:35:45Z</time>
      </trkpt>
      <trkpt lat="41.888070171698928" lon="13.227945668622851">
        <ele>913.86999500000002</ele>
        <time>2017-06-14T11:35:46Z</time>
      </trkpt>
      <trkpt lat="41.88804879784584" lon="13.227870231494308">
        <ele>915.30999799999995</ele>
        <time>2017-06-14T11:35:54Z</time>
      </trkpt>
      <trkpt lat="41.888005463406444" lon="13.227763697504997">
        <ele>917.23999000000003</ele>
        <time>2017-06-14T11:36:07Z</time>
      </trkpt>
      <trkpt lat="41.888005714863539" lon="13.227618858218193">
        <ele>917.23999000000003</ele>
        <time>2017-06-14T11:36:21Z</time>
      </trkpt>
      <trkpt lat="41.887969840317965" lon="13.227540235966444">
        <ele>917.23999000000003</ele>
        <time>2017-06-14T11:36:34Z</time>
      </trkpt>
      <trkpt lat="41.887943940237164" lon="13.227384835481644">
        <ele>918.20001200000002</ele>
        <time>2017-06-14T11:36:46Z</time>
      </trkpt>
      <trkpt lat="41.887903204187751" lon="13.22722683660686">
        <ele>918.67999299999997</ele>
        <time>2017-06-14T11:36:59Z</time>
      </trkpt>
      <trkpt lat="41.887900941073895" lon="13.22718576528132">
        <ele>919.15997300000004</ele>
        <time>2017-06-14T11:37:03Z</time>
      </trkpt>
      <trkpt lat="41.887880740687251" lon="13.22702843695879">
        <ele>919.15997300000004</ele>
        <time>2017-06-14T11:37:15Z</time>
      </trkpt>
      <trkpt lat="41.887848302721977" lon="13.226964734494686">
        <ele>919.15997300000004</ele>
        <time>2017-06-14T11:37:21Z</time>
      </trkpt>
      <trkpt lat="41.88782793469727" lon="13.226868929341435">
        <ele>919.15997300000004</ele>
        <time>2017-06-14T11:37:34Z</time>
      </trkpt>
      <trkpt lat="41.887802286073565" lon="13.226774632930756">
        <ele>920.11999500000002</ele>
        <time>2017-06-14T11:37:43Z</time>
      </trkpt>
      <trkpt lat="41.887804213911295" lon="13.226581262424588">
        <ele>921.55999799999995</ele>
        <time>2017-06-14T11:37:56Z</time>
      </trkpt>
      <trkpt lat="41.88780496828258" lon="13.226424437016249">
        <ele>923.00006099999996</ele>
        <time>2017-06-14T11:38:09Z</time>
      </trkpt>
      <trkpt lat="41.887801112607121" lon="13.226288314908743">
        <ele>924.93005400000004</ele>
        <time>2017-06-14T11:38:21Z</time>
      </trkpt>
      <trkpt lat="41.887798262760043" lon="13.226122939959168">
        <ele>926.84997599999997</ele>
        <time>2017-06-14T11:38:35Z</time>
      </trkpt>
      <trkpt lat="41.887791808694601" lon="13.226110702380538">
        <ele>926.84997599999997</ele>
        <time>2017-06-14T11:38:36Z</time>
      </trkpt>
      <trkpt lat="41.887781079858541" lon="13.225976172834635">
        <ele>928.28997800000002</ele>
        <time>2017-06-14T11:38:48Z</time>
      </trkpt>
      <trkpt lat="41.887753335759044" lon="13.225818928331137">
        <ele>929.25</ele>
        <time>2017-06-14T11:39:01Z</time>
      </trkpt>
      <trkpt lat="41.887787701562047" lon="13.225775677710772">
        <ele>929.72997999999995</ele>
        <time>2017-06-14T11:39:16Z</time>
      </trkpt>
      <trkpt lat="41.887757778167725" lon="13.225576523691416">
        <ele>930.21002199999998</ele>
        <time>2017-06-14T11:39:29Z</time>
      </trkpt>
      <trkpt lat="41.887733805924654" lon="13.2254081312567">
        <ele>931.17004399999996</ele>
        <time>2017-06-14T11:39:41Z</time>
      </trkpt>
      <trkpt lat="41.887711761519313" lon="13.225362868979573">
        <ele>931.65002400000003</ele>
        <time>2017-06-14T11:39:46Z</time>
      </trkpt>
      <trkpt lat="41.887648561969399" lon="13.225265387445688">
        <ele>933.580017</ele>
        <time>2017-06-14T11:39:59Z</time>
      </trkpt>
      <trkpt lat="41.887592738494277" lon="13.225275864824653">
        <ele>935.01995799999997</ele>
        <time>2017-06-14T11:40:11Z</time>
      </trkpt>
      <trkpt lat="41.887578405439854" lon="13.225346440449357">
        <ele>935.97997999999995</ele>
        <time>2017-06-14T11:40:22Z</time>
      </trkpt>
      <trkpt lat="41.887550577521324" lon="13.225438138470054">
        <ele>936.94000200000005</ele>
        <time>2017-06-14T11:40:36Z</time>
      </trkpt>
      <trkpt lat="41.887543201446533" lon="13.225446101278067">
        <ele>936.94000200000005</ele>
        <time>2017-06-14T11:40:37Z</time>
      </trkpt>
      <trkpt lat="41.887492910027504" lon="13.225597897544503">
        <ele>938.85998500000005</ele>
        <time>2017-06-14T11:40:52Z</time>
      </trkpt>
      <trkpt lat="41.887495424598455" lon="13.225596807897091">
        <ele>939.82995600000004</ele>
        <time>2017-06-14T11:41:08Z</time>
      </trkpt>
      <trkpt lat="41.887466926127672" lon="13.225605525076389">
        <ele>940.30999799999995</ele>
        <time>2017-06-14T11:41:25Z</time>
      </trkpt>
      <trkpt lat="41.887434320524335" lon="13.225671071559191">
        <ele>940.78997800000002</ele>
        <time>2017-06-14T11:41:40Z</time>
      </trkpt>
      <trkpt lat="41.887438762933016" lon="13.22578146122396">
        <ele>942.71002199999998</ele>
        <time>2017-06-14T11:41:55Z</time>
      </trkpt>
      <trkpt lat="41.887445216998458" lon="13.225893778726459">
        <ele>944.15002400000003</ele>
        <time>2017-06-14T11:42:12Z</time>
      </trkpt>
      <trkpt lat="41.887417640537024" lon="13.226001234725118">
        <ele>946.55999799999995</ele>
        <time>2017-06-14T11:42:26Z</time>
      </trkpt>
      <trkpt lat="41.887371372431517" lon="13.226099638268352">
        <ele>948.95996100000002</ele>
        <time>2017-06-14T11:42:40Z</time>
      </trkpt>
      <trkpt lat="41.887368187308311" lon="13.226187732070684">
        <ele>950.40002400000003</ele>
        <time>2017-06-14T11:42:55Z</time>
      </trkpt>
      <trkpt lat="41.887335581704974" lon="13.226302061229944">
        <ele>952.32000700000003</ele>
        <time>2017-06-14T11:43:10Z</time>
      </trkpt>
      <trkpt lat="41.887282021343708" lon="13.226429298520088">
        <ele>954.72997999999995</ele>
        <time>2017-06-14T11:43:25Z</time>
      </trkpt>
      <trkpt lat="41.887270202860236" lon="13.226544884964824">
        <ele>956.65002400000003</ele>
        <time>2017-06-14T11:43:39Z</time>
      </trkpt>
      <trkpt lat="41.887256875634193" lon="13.226586207747459">
        <ele>956.17004399999996</ele>
        <time>2017-06-14T11:43:51Z</time>
      </trkpt>
      <trkpt lat="41.887166518718004" lon="13.226642617955804">
        <ele>956.17004399999996</ele>
        <time>2017-06-14T11:44:02Z</time>
      </trkpt>
      <trkpt lat="41.887019835412502" lon="13.226765664294362">
        <ele>957.12994400000002</ele>
        <time>2017-06-14T11:44:20Z</time>
      </trkpt>
      <trkpt lat="41.886940458789468" lon="13.226796006783843">
        <ele>957.12994400000002</ele>
        <time>2017-06-14T11:44:31Z</time>
      </trkpt>
      <trkpt lat="41.886916738003492" lon="13.226798940449953">
        <ele>957.12994400000002</ele>
        <time>2017-06-14T11:44:33Z</time>
      </trkpt>
      <trkpt lat="41.886796541512012" lon="13.226899271830916">
        <ele>957.12994400000002</ele>
        <time>2017-06-14T11:44:46Z</time>
      </trkpt>
      <trkpt lat="41.886734263971448" lon="13.22693757712841">
        <ele>957.60998500000005</ele>
        <time>2017-06-14T11:44:53Z</time>
      </trkpt>
      <trkpt lat="41.88665421679616" lon="13.226952161639929">
        <ele>957.60998500000005</ele>
        <time>2017-06-14T11:45:01Z</time>
      </trkpt>
      <trkpt lat="41.88655648380518" lon="13.226986778900027">
        <ele>956.17004399999996</ele>
        <time>2017-06-14T11:45:15Z</time>
      </trkpt>
      <trkpt lat="41.886411895975471" lon="13.227016031742096">
        <ele>955.21002199999998</ele>
        <time>2017-06-14T11:45:30Z</time>
      </trkpt>
      <trkpt lat="41.886270996183157" lon="13.227119464427233">
        <ele>955.21002199999998</ele>
        <time>2017-06-14T11:45:47Z</time>
      </trkpt>
      <trkpt lat="41.886130934581161" lon="13.227153578773141">
        <ele>955.21002199999998</ele>
        <time>2017-06-14T11:46:00Z</time>
      </trkpt>
      <trkpt lat="41.886040410026908" lon="13.227193476632237">
        <ele>956.17004399999996</ele>
        <time>2017-06-14T11:46:09Z</time>
      </trkpt>
      <trkpt lat="41.885883081704378" lon="13.227255586534739">
        <ele>958.089966</ele>
        <time>2017-06-14T11:46:24Z</time>
      </trkpt>
      <trkpt lat="41.885728938505054" lon="13.227262962609529">
        <ele>959.52996800000005</ele>
        <time>2017-06-14T11:46:39Z</time>
      </trkpt>
      <trkpt lat="41.885592984035611" lon="13.227286599576473">
        <ele>960.01000999999997</ele>
        <time>2017-06-14T11:46:54Z</time>
      </trkpt>
      <trkpt lat="41.885417131707072" lon="13.227299423888326">
        <ele>960.48999000000003</ele>
        <time>2017-06-14T11:47:12Z</time>
      </trkpt>
      <trkpt lat="41.885267179459333" lon="13.227287689223886">
        <ele>961.45996100000002</ele>
        <time>2017-06-14T11:47:28Z</time>
      </trkpt>
      <trkpt lat="41.885127704590559" lon="13.227274110540748">
        <ele>961.94000200000005</ele>
        <time>2017-06-14T11:47:43Z</time>
      </trkpt>
      <trkpt lat="41.884998790919781" lon="13.227243600413203">
        <ele>962.90002400000003</ele>
        <time>2017-06-14T11:47:56Z</time>
      </trkpt>
      <trkpt lat="41.88485361635685" lon="13.227207390591502">
        <ele>965.29998799999998</ele>
        <time>2017-06-14T11:48:10Z</time>
      </trkpt>
      <trkpt lat="41.884721936658025" lon="13.227163972333074">
        <ele>967.21997099999999</ele>
        <time>2017-06-14T11:48:25Z</time>
      </trkpt>
      <trkpt lat="41.884606098756194" lon="13.227107478305697">
        <ele>968.17999299999997</ele>
        <time>2017-06-14T11:48:41Z</time>
      </trkpt>
      <trkpt lat="41.884462265297771" lon="13.22707143612206">
        <ele>968.67004399999996</ele>
        <time>2017-06-14T11:48:59Z</time>
      </trkpt>
      <trkpt lat="41.884382469579577" lon="13.227030364796519">
        <ele>968.67004399999996</ele>
        <time>2017-06-14T11:49:12Z</time>
      </trkpt>
      <trkpt lat="41.884190272539854" lon="13.227007482200861">
        <ele>970.10998500000005</ele>
        <time>2017-06-14T11:49:27Z</time>
      </trkpt>
      <trkpt lat="41.884053060784936" lon="13.226956436410546">
        <ele>972.98999000000003</ele>
        <time>2017-06-14T11:49:45Z</time>
      </trkpt>
      <trkpt lat="41.883911238983274" lon="13.226866917684674">
        <ele>975.39001499999995</ele>
        <time>2017-06-14T11:50:03Z</time>
      </trkpt>
      <trkpt lat="41.883757766336203" lon="13.226777734234929">
        <ele>976.35998500000005</ele>
        <time>2017-06-14T11:50:20Z</time>
      </trkpt>
      <trkpt lat="41.883633965626359" lon="13.226681761443615">
        <ele>977.32000700000003</ele>
        <time>2017-06-14T11:50:36Z</time>
      </trkpt>
      <trkpt lat="41.883529527112842" lon="13.226597439497709">
        <ele>978.75994900000001</ele>
        <time>2017-06-14T11:50:51Z</time>
      </trkpt>
      <trkpt lat="41.883432380855083" lon="13.226494425907731">
        <ele>980.67999299999997</ele>
        <time>2017-06-14T11:51:08Z</time>
      </trkpt>
      <trkpt lat="41.883396506309509" lon="13.226467268541455">
        <ele>983.089966</ele>
        <time>2017-06-14T11:51:20Z</time>
      </trkpt>
      <trkpt lat="41.883293660357594" lon="13.226347072049975">
        <ele>985.97003199999995</ele>
        <time>2017-06-14T11:51:38Z</time>
      </trkpt>
      <trkpt lat="41.883227191865444" lon="13.226326620206237">
        <ele>987.89001499999995</ele>
        <time>2017-06-14T11:51:55Z</time>
      </trkpt>
      <trkpt lat="41.883223420009017" lon="13.226315220817924">
        <ele>990.30004899999994</ele>
        <time>2017-06-14T11:52:09Z</time>
      </trkpt>
      <trkpt lat="41.883222497999668" lon="13.226281860843301">
        <ele>991.74005099999999</ele>
        <time>2017-06-14T11:52:23Z</time>
      </trkpt>
      <trkpt lat="41.88314538449049" lon="13.226211117580533">
        <ele>992.69995100000006</ele>
        <time>2017-06-14T11:52:43Z</time>
      </trkpt>
      <trkpt lat="41.883084867149591" lon="13.226176667958498">
        <ele>994.14001499999995</ele>
        <time>2017-06-14T11:53:00Z</time>
      </trkpt>
      <trkpt lat="41.883037174120545" lon="13.22612889111042">
        <ele>994.61999500000002</ele>
        <time>2017-06-14T11:53:10Z</time>
      </trkpt>
      <trkpt lat="41.882983613759279" lon="13.226039875298738">
        <ele>995.580017</ele>
        <time>2017-06-14T11:53:23Z</time>
      </trkpt>
      <trkpt lat="41.88290792517364" lon="13.225917583331466">
        <ele>997.98999000000003</ele>
        <time>2017-06-14T11:53:38Z</time>
      </trkpt>
      <trkpt lat="41.882846402004361" lon="13.225802667438984">
        <ele>999.910034</ele>
        <time>2017-06-14T11:53:50Z</time>
      </trkpt>
      <trkpt lat="41.882724110037088" lon="13.22565053589642">
        <ele>1000.870056</ele>
        <time>2017-06-14T11:54:05Z</time>
      </trkpt>
      <trkpt lat="41.882652696222067" lon="13.225533608347178">
        <ele>1003.27002</ele>
        <time>2017-06-14T11:54:19Z</time>
      </trkpt>
      <trkpt lat="41.882599722594023" lon="13.225379968062043">
        <ele>1003.75</ele>
        <time>2017-06-14T11:54:33Z</time>
      </trkpt>
      <trkpt lat="41.882535936310887" lon="13.225207636132836">
        <ele>1002.309998</ele>
        <time>2017-06-14T11:54:46Z</time>
      </trkpt>
      <trkpt lat="41.882443064823747" lon="13.224955759942532">
        <ele>1002.309998</ele>
        <time>2017-06-14T11:55:02Z</time>
      </trkpt>
      <trkpt lat="41.882406687363982" lon="13.224912760779262">
        <ele>1002.309998</ele>
        <time>2017-06-14T11:55:08Z</time>
      </trkpt>
      <trkpt lat="41.88231666572392" lon="13.224791474640369">
        <ele>1003.75</ele>
        <time>2017-06-14T11:55:23Z</time>
      </trkpt>
      <trkpt lat="41.882234439253807" lon="13.224729700013995">
        <ele>1003.75</ele>
        <time>2017-06-14T11:55:33Z</time>
      </trkpt>
      <trkpt lat="41.882114158943295" lon="13.224577065557241">
        <ele>1003.75</ele>
        <time>2017-06-14T11:55:50Z</time>
      </trkpt>
      <trkpt lat="41.882017264142632" lon="13.224456869065762">
        <ele>1003.75</ele>
        <time>2017-06-14T11:56:04Z</time>
      </trkpt>
      <trkpt lat="41.881887009367347" lon="13.224337594583631">
        <ele>1003.75</ele>
        <time>2017-06-14T11:56:21Z</time>
      </trkpt>
      <trkpt lat="41.88178600743413" lon="13.224266264587641">
        <ele>1004.22998</ele>
        <time>2017-06-14T11:56:35Z</time>
      </trkpt>
      <trkpt lat="41.881635971367359" lon="13.224152773618698">
        <ele>1006.6400149999999</ele>
        <time>2017-06-14T11:56:51Z</time>
      </trkpt>
      <trkpt lat="41.881510829553008" lon="13.224076917394996">
        <ele>1008.080017</ele>
        <time>2017-06-14T11:57:05Z</time>
      </trkpt>
      <trkpt lat="41.881372276693583" lon="13.22395739145577">
        <ele>1009.999939</ele>
        <time>2017-06-14T11:57:20Z</time>
      </trkpt>
      <trkpt lat="41.881263060495257" lon="13.223970383405685">
        <ele>1011.929993</ele>
        <time>2017-06-14T11:57:34Z</time>
      </trkpt>
      <trkpt lat="41.881227185949683" lon="13.224054202437401">
        <ele>1012.410034</ele>
        <time>2017-06-14T11:57:45Z</time>
      </trkpt>
      <trkpt lat="41.881191059947014" lon="13.224034002050757">
        <ele>1012.8900149999999</ele>
        <time>2017-06-14T11:57:57Z</time>
      </trkpt>
      <trkpt lat="41.881179241463542" lon="13.224053364247084">
        <ele>1012.8900149999999</ele>
        <time>2017-06-14T11:58:19Z</time>
      </trkpt>
      <trkpt lat="41.881168261170387" lon="13.22405512444675">
        <ele>1013.370056</ele>
        <time>2017-06-14T11:58:34Z</time>
      </trkpt>
      <trkpt lat="41.881194580346346" lon="13.224029140546918">
        <ele>1013.370056</ele>
        <time>2017-06-14T11:59:02Z</time>
      </trkpt>
      <trkpt lat="41.881185192614794" lon="13.224072558805346">
        <ele>1013.370056</ele>
        <time>2017-06-14T11:59:31Z</time>
      </trkpt>
      <trkpt lat="41.88117085956037" lon="13.224091501906514">
        <ele>1014.329956</ele>
        <time>2017-06-14T12:00:04Z</time>
      </trkpt>
      <trkpt lat="41.881170775741339" lon="13.22408446110785">
        <ele>1014.329956</ele>
        <time>2017-06-14T12:00:50Z</time>
      </trkpt>
      <trkpt lat="41.881166500970721" lon="13.224036768078804">
        <ele>1014.809998</ele>
        <time>2017-06-14T12:01:15Z</time>
      </trkpt>
      <trkpt lat="41.881196340546012" lon="13.224036265164614">
        <ele>1014.809998</ele>
        <time>2017-06-14T12:01:32Z</time>
      </trkpt>
      <trkpt lat="41.881184270605445" lon="13.224045401439071">
        <ele>1014.809998</ele>
        <time>2017-06-14T12:02:02Z</time>
      </trkpt>
      <trkpt lat="41.881171530112624" lon="13.22407222352922">
        <ele>1014.809998</ele>
        <time>2017-06-14T12:02:29Z</time>
      </trkpt>
      <trkpt lat="41.881179073825479" lon="13.224094016477466">
        <ele>1015.289978</ele>
        <time>2017-06-14T12:03:00Z</time>
      </trkpt>
      <trkpt lat="41.881154933944345" lon="13.224070379510522">
        <ele>1015.289978</ele>
        <time>2017-06-14T12:03:18Z</time>
      </trkpt>
      <trkpt lat="41.881151162087917" lon="13.224051939323545">
        <ele>1015.77002</ele>
        <time>2017-06-14T12:03:51Z</time>
      </trkpt>
      <trkpt lat="41.881181504577398" lon="13.224014807492495">
        <ele>1016.25</ele>
        <time>2017-06-14T12:04:09Z</time>
      </trkpt>
      <trkpt lat="41.881180163472891" lon="13.224026458337903">
        <ele>1016.25</ele>
        <time>2017-06-14T12:04:36Z</time>
      </trkpt>
      <trkpt lat="41.881183264777064" lon="13.224040707573295">
        <ele>1015.289978</ele>
        <time>2017-06-14T12:04:41Z</time>
      </trkpt>
      <trkpt lat="41.881183935329318" lon="13.224039115011692">
        <ele>1016.25</ele>
        <time>2017-06-14T12:04:44Z</time>
      </trkpt>
      <trkpt lat="41.881183600053191" lon="13.224027464166284">
        <ele>1016.72998</ele>
        <time>2017-06-14T12:05:22Z</time>
      </trkpt>
      <trkpt lat="41.881183516234159" lon="13.224029559642076">
        <ele>1016.72998</ele>
        <time>2017-06-14T12:05:39Z</time>
      </trkpt>
      <trkpt lat="41.88118938356638" lon="13.223996283486485">
        <ele>1017.210022</ele>
        <time>2017-06-14T12:06:06Z</time>
      </trkpt>
      <trkpt lat="41.881200615316629" lon="13.224014136940241">
        <ele>1017.210022</ele>
        <time>2017-06-14T12:06:24Z</time>
      </trkpt>
      <trkpt lat="41.881197681650519" lon="13.224038695916533">
        <ele>1017.210022</ele>
        <time>2017-06-14T12:06:44Z</time>
      </trkpt>
      <trkpt lat="41.881214864552021" lon="13.224004581570625">
        <ele>1016.25</ele>
        <time>2017-06-14T12:07:02Z</time>
      </trkpt>
      <trkpt lat="41.881248140707612" lon="13.223979268223047">
        <ele>1016.25</ele>
        <time>2017-06-14T12:07:18Z</time>
      </trkpt>
      <trkpt lat="41.881210589781404" lon="13.224037103354931">
        <ele>1016.25</ele>
        <time>2017-06-14T12:07:35Z</time>
      </trkpt>
      <trkpt lat="41.881227772682905" lon="13.224012460559607">
        <ele>1016.25</ele>
        <time>2017-06-14T12:07:52Z</time>
      </trkpt>
      <trkpt lat="41.881219306960702" lon="13.224021596834064">
        <ele>1016.25</ele>
        <time>2017-06-14T12:08:20Z</time>
      </trkpt>
      <trkpt lat="41.881205812096596" lon="13.224033582955599">
        <ele>1016.25</ele>
        <time>2017-06-14T12:08:36Z</time>
      </trkpt>
      <trkpt lat="41.881233640015125" lon="13.223993936553597">
        <ele>1016.25</ele>
        <time>2017-06-14T12:08:48Z</time>
      </trkpt>
      <trkpt lat="41.8812245875597" lon="13.223977675661445">
        <ele>1016.25</ele>
        <time>2017-06-14T12:09:10Z</time>
      </trkpt>
      <trkpt lat="41.881211176514626" lon="13.223977591842413">
        <ele>1017.690002</ele>
        <time>2017-06-14T12:09:42Z</time>
      </trkpt>
      <trkpt lat="41.881222659721971" lon="13.224018830806017">
        <ele>1017.690002</ele>
        <time>2017-06-14T12:09:54Z</time>
      </trkpt>
      <trkpt lat="41.881217211484909" lon="13.223993266001344">
        <ele>1017.690002</ele>
        <time>2017-06-14T12:10:22Z</time>
      </trkpt>
      <trkpt lat="41.881220312789083" lon="13.224027464166284">
        <ele>1017.690002</ele>
        <time>2017-06-14T12:10:34Z</time>
      </trkpt>
      <trkpt lat="41.881202710792422" lon="13.224029811099172">
        <ele>1017.690002</ele>
        <time>2017-06-14T12:10:55Z</time>
      </trkpt>
      <trkpt lat="41.881224922835827" lon="13.22399502620101">
        <ele>1018.169983</ele>
        <time>2017-06-14T12:11:16Z</time>
      </trkpt>
      <trkpt lat="41.881237495690584" lon="13.224048921838403">
        <ele>1018.169983</ele>
        <time>2017-06-14T12:11:32Z</time>
      </trkpt>
      <trkpt lat="41.881202962249517" lon="13.224027967080474">
        <ele>1018.169983</ele>
        <time>2017-06-14T12:11:49Z</time>
      </trkpt>
      <trkpt lat="41.881202710792422" lon="13.224005922675133">
        <ele>1018.169983</ele>
        <time>2017-06-14T12:12:29Z</time>
      </trkpt>
      <trkpt lat="41.881178822368383" lon="13.223990332335234">
        <ele>1018.650024</ele>
        <time>2017-06-14T12:13:08Z</time>
      </trkpt>
      <trkpt lat="41.881169099360704" lon="13.223991673439741">
        <ele>1018.650024</ele>
        <time>2017-06-14T12:13:22Z</time>
      </trkpt>
      <trkpt lat="41.88116205856204" lon="13.224036935716867">
        <ele>1018.650024</ele>
        <time>2017-06-14T12:13:37Z</time>
      </trkpt>
      <trkpt lat="41.881189635023475" lon="13.22399309836328">
        <ele>1018.650024</ele>
        <time>2017-06-14T12:13:58Z</time>
      </trkpt>
      <trkpt lat="41.881200112402439" lon="13.223988404497504">
        <ele>1018.650024</ele>
        <time>2017-06-14T12:14:19Z</time>
      </trkpt>
      <trkpt lat="41.88119332306087" lon="13.224002989009023">
        <ele>1018.650024</ele>
        <time>2017-06-14T12:14:29Z</time>
      </trkpt>
      <trkpt lat="41.881199441850185" lon="13.224015394225717">
        <ele>1019.130005</ele>
        <time>2017-06-14T12:14:47Z</time>
      </trkpt>
      <trkpt lat="41.881208159029484" lon="13.224055459722877">
        <ele>1019.130005</ele>
        <time>2017-06-14T12:15:15Z</time>
      </trkpt>
      <trkpt lat="41.881197430193424" lon="13.224074067547917">
        <ele>1019.130005</ele>
        <time>2017-06-14T12:15:51Z</time>
      </trkpt>
      <trkpt lat="41.881195418536663" lon="13.224085131660104">
        <ele>1019.130005</ele>
        <time>2017-06-14T12:16:18Z</time>
      </trkpt>
      <trkpt lat="41.881173960864544" lon="13.224085131660104">
        <ele>1019.130005</ele>
        <time>2017-06-14T12:16:35Z</time>
      </trkpt>
      <trkpt lat="41.881187791004777" lon="13.224069206044078">
        <ele>1019.130005</ele>
        <time>2017-06-14T12:17:12Z</time>
      </trkpt>
      <trkpt lat="41.881208661943674" lon="13.224050430580974">
        <ele>1019.619995</ele>
        <time>2017-06-14T12:17:28Z</time>
      </trkpt>
      <trkpt lat="41.881194496527314" lon="13.224034840241075">
        <ele>1019.619995</ele>
        <time>2017-06-14T12:17:51Z</time>
      </trkpt>
      <trkpt lat="41.881167674437165" lon="13.224025033414364">
        <ele>1019.619995</ele>
        <time>2017-06-14T12:18:28Z</time>
      </trkpt>
      <trkpt lat="41.881156275048852" lon="13.223997037857771">
        <ele>1019.619995</ele>
        <time>2017-06-14T12:18:56Z</time>
      </trkpt>
      <trkpt lat="41.881191562861204" lon="13.223976837471128">
        <ele>1019.619995</ele>
        <time>2017-06-14T12:19:14Z</time>
      </trkpt>
      <trkpt lat="41.881188461557031" lon="13.224017489701509">
        <ele>1018.169983</ele>
        <time>2017-06-14T12:19:25Z</time>
      </trkpt>
      <trkpt lat="41.881198436021805" lon="13.224058477208018">
        <ele>1018.169983</ele>
        <time>2017-06-14T12:20:07Z</time>
      </trkpt>
      <trkpt lat="41.881206734105945" lon="13.224050514400005">
        <ele>1018.169983</ele>
        <time>2017-06-14T12:20:37Z</time>
      </trkpt>
      <trkpt lat="41.881194077432156" lon="13.224033666774631">
        <ele>1018.169983</ele>
        <time>2017-06-14T12:21:04Z</time>
      </trkpt>
      <trkpt lat="41.881195334717631" lon="13.224000977352262">
        <ele>1018.169983</ele>
        <time>2017-06-14T12:21:26Z</time>
      </trkpt>
      <trkpt lat="41.881190976127982" lon="13.224026374518871">
        <ele>1017.690002</ele>
        <time>2017-06-14T12:21:41Z</time>
      </trkpt>
      <trkpt lat="41.881212182343006" lon="13.22400969453156">
        <ele>1017.690002</ele>
        <time>2017-06-14T12:21:54Z</time>
      </trkpt>
      <trkpt lat="41.881219977512956" lon="13.224024698138237">
        <ele>1017.690002</ele>
        <time>2017-06-14T12:22:22Z</time>
      </trkpt>
      <trkpt lat="41.88122408464551" lon="13.224022435024381">
        <ele>1019.130005</ele>
        <time>2017-06-14T12:22:40Z</time>
      </trkpt>
      <trkpt lat="41.881218133494258" lon="13.224030062556267">
        <ele>1019.130005</ele>
        <time>2017-06-14T12:23:11Z</time>
      </trkpt>
      <trkpt lat="41.88121872022748" lon="13.224017741158605">
        <ele>1019.130005</ele>
        <time>2017-06-14T12:23:37Z</time>
      </trkpt>
      <trkpt lat="41.881233807653189" lon="13.224028637632728">
        <ele>1019.130005</ele>
        <time>2017-06-14T12:24:12Z</time>
      </trkpt>
      <trkpt lat="41.881217127665877" lon="13.224049676209688">
        <ele>1019.130005</ele>
        <time>2017-06-14T12:24:24Z</time>
      </trkpt>
      <trkpt lat="41.881211176514626" lon="13.224096614867449">
        <ele>1019.619995</ele>
        <time>2017-06-14T12:24:37Z</time>
      </trkpt>
      <trkpt lat="41.881216540932655" lon="13.224090663716197">
        <ele>1019.619995</ele>
        <time>2017-06-14T12:24:43Z</time>
      </trkpt>
      <trkpt lat="41.881222827360034" lon="13.22415386326611">
        <ele>1019.619995</ele>
        <time>2017-06-14T12:24:50Z</time>
      </trkpt>
      <trkpt lat="41.881230622529984" lon="13.224202813580632">
        <ele>1019.619995</ele>
        <time>2017-06-14T12:24:54Z</time>
      </trkpt>
      <trkpt lat="41.88122509047389" lon="13.224238185212016">
        <ele>1020.099976</ele>
        <time>2017-06-14T12:24:57Z</time>
      </trkpt>
      <trkpt lat="41.881230790168047" lon="13.22441722266376">
        <ele>1021.540039</ele>
        <time>2017-06-14T12:25:11Z</time>
      </trkpt>
      <trkpt lat="41.881214613094926" lon="13.224569438025355">
        <ele>1022.499939</ele>
        <time>2017-06-14T12:25:22Z</time>
      </trkpt>
      <trkpt lat="41.881213188171387" lon="13.224732466042042">
        <ele>1024.420044</ele>
        <time>2017-06-14T12:25:34Z</time>
      </trkpt>
      <trkpt lat="41.881211595609784" lon="13.224876131862402">
        <ele>1024.900024</ele>
        <time>2017-06-14T12:25:45Z</time>
      </trkpt>
      <trkpt lat="41.881226683035493" lon="13.225018372759223">
        <ele>1025.380005</ele>
        <time>2017-06-14T12:25:57Z</time>
      </trkpt>
      <trkpt lat="41.881239423528314" lon="13.225165475159883">
        <ele>1025.8599850000001</ele>
        <time>2017-06-14T12:26:09Z</time>
      </trkpt>
      <trkpt lat="41.881251158192754" lon="13.225312493741512">
        <ele>1025.8599850000001</ele>
        <time>2017-06-14T12:26:22Z</time>
      </trkpt>
      <trkpt lat="41.881242860108614" lon="13.225450962781906">
        <ele>1026.3400879999999</ele>
        <time>2017-06-14T12:26:35Z</time>
      </trkpt>
      <trkpt lat="41.881249397993088" lon="13.22554886341095">
        <ele>1026.829956</ele>
        <time>2017-06-14T12:26:43Z</time>
      </trkpt>
      <trkpt lat="41.881179325282574" lon="13.225671909749508">
        <ele>1027.790039</ele>
        <time>2017-06-14T12:26:55Z</time>
      </trkpt>
      <trkpt lat="41.881076563149691" lon="13.225757572799921">
        <ele>1027.790039</ele>
        <time>2017-06-14T12:27:12Z</time>
      </trkpt>
      <trkpt lat="41.881042867898941" lon="13.225840302184224">
        <ele>1027.790039</ele>
        <time>2017-06-14T12:27:26Z</time>
      </trkpt>
      <trkpt lat="41.881014704704285" lon="13.2259676232934">
        <ele>1026.829956</ele>
        <time>2017-06-14T12:27:38Z</time>
      </trkpt>
      <trkpt lat="41.881007999181747" lon="13.226010538637638">
        <ele>1026.829956</ele>
        <time>2017-06-14T12:27:42Z</time>
      </trkpt>
      <trkpt lat="41.880993079394102" lon="13.226045407354832">
        <ele>1028.2700199999999</ele>
        <time>2017-06-14T12:27:45Z</time>
      </trkpt>
      <trkpt lat="41.880930634215474" lon="13.226179601624608">
        <ele>1028.75</ele>
        <time>2017-06-14T12:27:58Z</time>
      </trkpt>
      <trkpt lat="41.880919989198446" lon="13.226216901093721">
        <ele>1029.7100829999999</ele>
        <time>2017-06-14T12:28:02Z</time>
      </trkpt>
      <trkpt lat="41.880890484899282" lon="13.226312706246972">
        <ele>1029.7100829999999</ele>
        <time>2017-06-14T12:28:09Z</time>
      </trkpt>
      <trkpt lat="41.880862740799785" lon="13.226408427581191">
        <ele>1031.150024</ele>
        <time>2017-06-14T12:28:21Z</time>
      </trkpt>
      <trkpt lat="41.880839858204126" lon="13.226490737870336">
        <ele>1031.150024</ele>
        <time>2017-06-14T12:28:33Z</time>
      </trkpt>
      <trkpt lat="41.880793506279588" lon="13.226568605750799">
        <ele>1031.150024</ele>
        <time>2017-06-14T12:28:45Z</time>
      </trkpt>
      <trkpt lat="41.880743382498622" lon="13.226712523028255">
        <ele>1030.669922</ele>
        <time>2017-06-14T12:28:56Z</time>
      </trkpt>
      <trkpt lat="41.880739610642195" lon="13.226726772263646">
        <ele>1030.669922</ele>
        <time>2017-06-14T12:28:57Z</time>
      </trkpt>
      <trkpt lat="41.880659479647875" lon="13.226837664842606">
        <ele>1029.7100829999999</ele>
        <time>2017-06-14T12:29:07Z</time>
      </trkpt>
      <trkpt lat="41.880620168522" lon="13.226930620148778">
        <ele>1029.7100829999999</ele>
        <time>2017-06-14T12:29:15Z</time>
      </trkpt>
      <trkpt lat="41.880571637302637" lon="13.227012008428574">
        <ele>1028.75</ele>
        <time>2017-06-14T12:29:22Z</time>
      </trkpt>
      <trkpt lat="41.880532074719667" lon="13.227110663428903">
        <ele>1028.75</ele>
        <time>2017-06-14T12:29:30Z</time>
      </trkpt>
      <trkpt lat="41.880500894039869" lon="13.227329263463616">
        <ele>1027.790039</ele>
        <time>2017-06-14T12:29:45Z</time>
      </trkpt>
      <trkpt lat="41.880464432761073" lon="13.22753026150167">
        <ele>1026.829956</ele>
        <time>2017-06-14T12:29:59Z</time>
      </trkpt>
      <trkpt lat="41.880469964817166" lon="13.227586001157761">
        <ele>1026.829956</ele>
        <time>2017-06-14T12:30:03Z</time>
      </trkpt>
      <trkpt lat="41.880447501316667" lon="13.227747436612844">
        <ele>1026.829956</ele>
        <time>2017-06-14T12:30:14Z</time>
      </trkpt>
      <trkpt lat="41.880379691720009" lon="13.227896299213171">
        <ele>1026.3400879999999</ele>
        <time>2017-06-14T12:30:26Z</time>
      </trkpt>
      <trkpt lat="41.880266536027193" lon="13.228053040802479">
        <ele>1025.8599850000001</ele>
        <time>2017-06-14T12:30:41Z</time>
      </trkpt>
      <trkpt lat="41.880205431953073" lon="13.228228641673923">
        <ele>1025.380005</ele>
        <time>2017-06-14T12:30:54Z</time>
      </trkpt>
      <trkpt lat="41.88014323823154" lon="13.22838781401515">
        <ele>1025.380005</ele>
        <time>2017-06-14T12:31:06Z</time>
      </trkpt>
      <trkpt lat="41.880134101957083" lon="13.22843031026423">
        <ele>1025.380005</ele>
        <time>2017-06-14T12:31:09Z</time>
      </trkpt>
      <trkpt lat="41.880100658163428" lon="13.228550339117646">
        <ele>1024.420044</ele>
        <time>2017-06-14T12:31:21Z</time>
      </trkpt>
      <trkpt lat="41.880055814981461" lon="13.228641115128994">
        <ele>1022.499939</ele>
        <time>2017-06-14T12:31:29Z</time>
      </trkpt>
      <trkpt lat="41.880030166357756" lon="13.22869710624218">
        <ele>1021.540039</ele>
        <time>2017-06-14T12:31:34Z</time>
      </trkpt>
      <trkpt lat="41.880007283762097" lon="13.228873712942004">
        <ele>1020.580017</ele>
        <time>2017-06-14T12:31:47Z</time>
      </trkpt>
      <trkpt lat="41.879999237135053" lon="13.228923417627811">
        <ele>1020.580017</ele>
        <time>2017-06-14T12:31:50Z</time>
      </trkpt>
      <trkpt lat="41.879992699250579" lon="13.228993909433484">
        <ele>1019.619995</ele>
        <time>2017-06-14T12:31:55Z</time>
      </trkpt>
      <trkpt lat="41.879983898252249" lon="13.229120392352343">
        <ele>1019.130005</ele>
        <time>2017-06-14T12:32:04Z</time>
      </trkpt>
      <trkpt lat="41.879977695643902" lon="13.229194488376379">
        <ele>1019.130005</ele>
        <time>2017-06-14T12:32:09Z</time>
      </trkpt>
      <trkpt lat="41.879943162202835" lon="13.229427672922611">
        <ele>1017.210022</ele>
        <time>2017-06-14T12:32:23Z</time>
      </trkpt>
      <trkpt lat="41.879909969866276" lon="13.2295854203403">
        <ele>1016.72998</ele>
        <time>2017-06-14T12:32:33Z</time>
      </trkpt>
      <trkpt lat="41.879874262958765" lon="13.229754818603396">
        <ele>1015.289978</ele>
        <time>2017-06-14T12:32:47Z</time>
      </trkpt>
      <trkpt lat="41.879867725074291" lon="13.229762529954314">
        <ele>1015.289978</ele>
        <time>2017-06-14T12:32:48Z</time>
      </trkpt>
      <trkpt lat="41.879735207185149" lon="13.229890605434775">
        <ele>1014.329956</ele>
        <time>2017-06-14T12:33:02Z</time>
      </trkpt>
      <trkpt lat="41.879624901339412" lon="13.230004934594035">
        <ele>1015.77002</ele>
        <time>2017-06-14T12:33:14Z</time>
      </trkpt>
      <trkpt lat="41.879606880247593" lon="13.230051202699542">
        <ele>1015.77002</ele>
        <time>2017-06-14T12:33:18Z</time>
      </trkpt>
      <trkpt lat="41.879583662375808" lon="13.230134434998035">
        <ele>1015.77002</ele>
        <time>2017-06-14T12:33:24Z</time>
      </trkpt>
      <trkpt lat="41.879600761458278" lon="13.230190929025412">
        <ele>1014.329956</ele>
        <time>2017-06-14T12:33:28Z</time>
      </trkpt>
      <trkpt lat="41.879629511386156" lon="13.230235688388348">
        <ele>1014.329956</ele>
        <time>2017-06-14T12:33:33Z</time>
      </trkpt>
      <trkpt lat="41.879635378718376" lon="13.230314394459128">
        <ele>1013.849976</ele>
        <time>2017-06-14T12:33:37Z</time>
      </trkpt>
      <trkpt lat="41.879615932703018" lon="13.230502903461456">
        <ele>1012.8900149999999</ele>
        <time>2017-06-14T12:33:49Z</time>
      </trkpt>
      <trkpt lat="41.879510236904025" lon="13.230702476575971">
        <ele>1012.8900149999999</ele>
        <time>2017-06-14T12:34:04Z</time>
      </trkpt>
      <trkpt lat="41.879431111738086" lon="13.230833820998669">
        <ele>1012.410034</ele>
        <time>2017-06-14T12:34:16Z</time>
      </trkpt>
      <trkpt lat="41.87938098795712" lon="13.230901965871453">
        <ele>1011.929993</ele>
        <time>2017-06-14T12:34:23Z</time>
      </trkpt>
      <trkpt lat="41.879310412332416" lon="13.230958208441734">
        <ele>1011.929993</ele>
        <time>2017-06-14T12:34:29Z</time>
      </trkpt>
      <trkpt lat="41.87918946146965" lon="13.231085697188973">
        <ele>1010.480042</ele>
        <time>2017-06-14T12:34:40Z</time>
      </trkpt>
      <trkpt lat="41.879077982157469" lon="13.231164235621691">
        <ele>1009.040039</ele>
        <time>2017-06-14T12:34:53Z</time>
      </trkpt>
      <trkpt lat="41.879051411524415" lon="13.231204804033041">
        <ele>1009.040039</ele>
        <time>2017-06-14T12:34:56Z</time>
      </trkpt>
      <trkpt lat="41.878941608592868" lon="13.231257693842053">
        <ele>1008.559998</ele>
        <time>2017-06-14T12:35:04Z</time>
      </trkpt>
      <trkpt lat="41.878895675763488" lon="13.231286276131868">
        <ele>1007.599976</ele>
        <time>2017-06-14T12:35:08Z</time>
      </trkpt>
      <trkpt lat="41.878754021599889" lon="13.231298765167594">
        <ele>1005.1999510000001</ele>
        <time>2017-06-14T12:35:23Z</time>
      </trkpt>
      <trkpt lat="41.878665760159492" lon="13.231313433498144">
        <ele>1002.789978</ele>
        <time>2017-06-14T12:35:34Z</time>
      </trkpt>
      <trkpt lat="41.878596777096391" lon="13.231453998014331">
        <ele>1001.829956</ele>
        <time>2017-06-14T12:35:46Z</time>
      </trkpt>
      <trkpt lat="41.878575906157494" lon="13.231530440971255">
        <ele>1001.349976</ele>
        <time>2017-06-14T12:35:52Z</time>
      </trkpt>
      <trkpt lat="41.878568362444639" lon="13.231557682156563">
        <ele>1001.349976</ele>
        <time>2017-06-14T12:35:54Z</time>
      </trkpt>
      <trkpt lat="41.878530392423272" lon="13.231610488146544">
        <ele>1000.3900149999999</ele>
        <time>2017-06-14T12:35:58Z</time>
      </trkpt>
      <trkpt lat="41.878503486514091" lon="13.231691038236022">
        <ele>999.910034</ele>
        <time>2017-06-14T12:36:04Z</time>
      </trkpt>
      <trkpt lat="41.878403993323445" lon="13.231842080131173">
        <ele>998.95001200000002</ele>
        <time>2017-06-14T12:36:16Z</time>
      </trkpt>
      <trkpt lat="41.878335764631629" lon="13.231998737901449">
        <ele>998.95001200000002</ele>
        <time>2017-06-14T12:36:27Z</time>
      </trkpt>
      <trkpt lat="41.878291089087725" lon="13.232056237757206">
        <ele>998.95001200000002</ele>
        <time>2017-06-14T12:36:32Z</time>
      </trkpt>
      <trkpt lat="41.87817357480526" lon="13.232219936326146">
        <ele>998.95001200000002</ele>
        <time>2017-06-14T12:36:46Z</time>
      </trkpt>
      <trkpt lat="41.878035608679056" lon="13.232339462265372">
        <ele>998.47003199999995</ele>
        <time>2017-06-14T12:37:00Z</time>
      </trkpt>
      <trkpt lat="41.877911640331149" lon="13.232410959899426">
        <ele>997.02002000000005</ele>
        <time>2017-06-14T12:37:12Z</time>
      </trkpt>
      <trkpt lat="41.877810889855027" lon="13.2325020711869">
        <ele>996.54003899999998</ele>
        <time>2017-06-14T12:37:25Z</time>
      </trkpt>
      <trkpt lat="41.877794293686748" lon="13.23253970593214">
        <ele>996.05999799999995</ele>
        <time>2017-06-14T12:37:28Z</time>
      </trkpt>
      <trkpt lat="41.877775434404612" lon="13.232577927410603">
        <ele>996.05999799999995</ele>
        <time>2017-06-14T12:37:31Z</time>
      </trkpt>
      <trkpt lat="41.877662111073732" lon="13.232744475826621">
        <ele>994.14001499999995</ele>
        <time>2017-06-14T12:37:46Z</time>
      </trkpt>
      <trkpt lat="41.877636797726154" lon="13.232774566859007">
        <ele>993.65997300000004</ele>
        <time>2017-06-14T12:37:49Z</time>
      </trkpt>
      <trkpt lat="41.877603270113468" lon="13.232944803312421">
        <ele>994.61999500000002</ele>
        <time>2017-06-14T12:38:02Z</time>
      </trkpt>
      <trkpt lat="41.877580136060715" lon="13.232993669807911">
        <ele>994.61999500000002</ele>
        <time>2017-06-14T12:38:06Z</time>
      </trkpt>
      <trkpt lat="41.877558678388596" lon="13.233008338138461">
        <ele>993.17999299999997</ele>
        <time>2017-06-14T12:38:08Z</time>
      </trkpt>
      <trkpt lat="41.877436134964228" lon="13.233115877956152">
        <ele>991.25994900000001</ele>
        <time>2017-06-14T12:38:22Z</time>
      </trkpt>
      <trkpt lat="41.877421634271741" lon="13.233119733631611">
        <ele>991.25994900000001</ele>
        <time>2017-06-14T12:38:24Z</time>
      </trkpt>
      <trkpt lat="41.87733463011682" lon="13.233164409175515">
        <ele>990.30004899999994</ele>
        <time>2017-06-14T12:38:30Z</time>
      </trkpt>
      <trkpt lat="41.877195322886109" lon="13.233201038092375">
        <ele>989.80999799999995</ele>
        <time>2017-06-14T12:38:42Z</time>
      </trkpt>
      <trkpt lat="41.87712206505239" lon="13.233243869617581">
        <ele>988.84997599999997</ele>
        <time>2017-06-14T12:38:54Z</time>
      </trkpt>
      <trkpt lat="41.877057021483779" lon="13.233236828818917">
        <ele>988.37005599999998</ele>
        <time>2017-06-14T12:39:02Z</time>
      </trkpt>
      <trkpt lat="41.87688753940165" lon="13.233304219320416">
        <ele>987.410034</ele>
        <time>2017-06-14T12:39:15Z</time>
      </trkpt>
      <trkpt lat="41.876844288781285" lon="13.233311679214239">
        <ele>987.410034</ele>
        <time>2017-06-14T12:39:18Z</time>
      </trkpt>
      <trkpt lat="41.87670866958797" lon="13.233285862952471">
        <ele>985.97003199999995</ele>
        <time>2017-06-14T12:39:30Z</time>
      </trkpt>
      <trkpt lat="41.876608841121197" lon="13.233262812718749">
        <ele>984.52996800000005</ele>
        <time>2017-06-14T12:39:40Z</time>
      </trkpt>
      <trkpt lat="41.876581013202667" lon="13.233249736949801">
        <ele>983.57000700000003</ele>
        <time>2017-06-14T12:39:44Z</time>
      </trkpt>
      <trkpt lat="41.876561231911182" lon="13.233244540169835">
        <ele>983.089966</ele>
        <time>2017-06-14T12:39:48Z</time>
      </trkpt>
      <trkpt lat="41.876484369859099" lon="13.23327655903995">
        <ele>981.15997300000004</ele>
        <time>2017-06-14T12:39:59Z</time>
      </trkpt>
      <trkpt lat="41.876398958265781" lon="13.233410082757473">
        <ele>980.19995100000006</ele>
        <time>2017-06-14T12:40:12Z</time>
      </trkpt>
      <trkpt lat="41.876356126740575" lon="13.233509492129087">
        <ele>982.59997599999997</ele>
        <time>2017-06-14T12:40:20Z</time>
      </trkpt>
      <trkpt lat="41.876328215003014" lon="13.233647122979164">
        <ele>984.04998799999998</ele>
        <time>2017-06-14T12:40:33Z</time>
      </trkpt>
      <trkpt lat="41.876344978809357" lon="13.233819119632244">
        <ele>986.45001200000002</ele>
        <time>2017-06-14T12:40:47Z</time>
      </trkpt>
      <trkpt lat="41.876320336014032" lon="13.23407594114542">
        <ele>986.92999299999997</ele>
        <time>2017-06-14T12:41:02Z</time>
      </trkpt>
      <trkpt lat="41.876311535015702" lon="13.234094465151429">
        <ele>986.92999299999997</ele>
        <time>2017-06-14T12:41:03Z</time>
      </trkpt>
      <trkpt lat="41.876222435384989" lon="13.234269814565778">
        <ele>987.410034</ele>
        <time>2017-06-14T12:41:17Z</time>
      </trkpt>
      <trkpt lat="41.876169880852103" lon="13.234293283894658">
        <ele>987.89001499999995</ele>
        <time>2017-06-14T12:41:32Z</time>
      </trkpt>
      <trkpt lat="41.876164097338915" lon="13.234299821779132">
        <ele>986.45001200000002</ele>
        <time>2017-06-14T12:41:41Z</time>
      </trkpt>
      <trkpt lat="41.876074410974979" lon="13.234332008287311">
        <ele>987.89001499999995</ele>
        <time>2017-06-14T12:41:51Z</time>
      </trkpt>
      <trkpt lat="41.875895792618394" lon="13.234301330521703">
        <ele>988.37005599999998</ele>
        <time>2017-06-14T12:42:07Z</time>
      </trkpt>
      <trkpt lat="41.875805435702205" lon="13.234281465411186">
        <ele>988.37005599999998</ele>
        <time>2017-06-14T12:42:14Z</time>
      </trkpt>
      <trkpt lat="41.87574508599937" lon="13.234232263639569">
        <ele>986.92999299999997</ele>
        <time>2017-06-14T12:42:26Z</time>
      </trkpt>
      <trkpt lat="41.875738967210054" lon="13.234225390478969">
        <ele>986.92999299999997</ele>
        <time>2017-06-14T12:42:28Z</time>
      </trkpt>
      <trkpt lat="41.875645006075501" lon="13.234170824289322">
        <ele>986.92999299999997</ele>
        <time>2017-06-14T12:42:37Z</time>
      </trkpt>
      <trkpt lat="41.875546770170331" lon="13.234149031341076">
        <ele>986.92999299999997</ele>
        <time>2017-06-14T12:42:44Z</time>
      </trkpt>
      <trkpt lat="41.875376533716917" lon="13.234144505113363">
        <ele>986.92999299999997</ele>
        <time>2017-06-14T12:42:58Z</time>
      </trkpt>
      <trkpt lat="41.875199591740966" lon="13.234190437942743">
        <ele>985.01000999999997</ele>
        <time>2017-06-14T12:43:12Z</time>
      </trkpt>
      <trkpt lat="41.875036899000406" lon="13.23423670604825">
        <ele>984.04998799999998</ele>
        <time>2017-06-14T12:43:25Z</time>
      </trkpt>
      <trkpt lat="41.874851658940315" lon="13.234266294166446">
        <ele>983.57000700000003</ele>
        <time>2017-06-14T12:43:40Z</time>
      </trkpt>
      <trkpt lat="41.874841181561351" lon="13.23426847346127">
        <ele>983.57000700000003</ele>
        <time>2017-06-14T12:43:41Z</time>
      </trkpt>
      <trkpt lat="41.87469843775034" lon="13.234338965266943">
        <ele>983.57000700000003</ele>
        <time>2017-06-14T12:43:54Z</time>
      </trkpt>
      <trkpt lat="41.874548234045506" lon="13.234479194507003">
        <ele>983.57000700000003</ele>
        <time>2017-06-14T12:44:07Z</time>
      </trkpt>
      <trkpt lat="41.874408507719636" lon="13.234571982175112">
        <ele>983.57000700000003</ele>
        <time>2017-06-14T12:44:19Z</time>
      </trkpt>
      <trkpt lat="41.874366598203778" lon="13.234807932749391">
        <ele>983.57000700000003</ele>
        <time>2017-06-14T12:44:34Z</time>
      </trkpt>
      <trkpt lat="41.874343883246183" lon="13.235047487542033">
        <ele>983.57000700000003</ele>
        <time>2017-06-14T12:44:49Z</time>
      </trkpt>
      <trkpt lat="41.874272637069225" lon="13.235300118103623">
        <ele>982.11999500000002</ele>
        <time>2017-06-14T12:45:05Z</time>
      </trkpt>
      <trkpt lat="41.874225363135338" lon="13.235434060916305">
        <ele>981.15997300000004</ele>
        <time>2017-06-14T12:45:18Z</time>
      </trkpt>
      <trkpt lat="41.874145064502954" lon="13.235661210492253">
        <ele>979.71997099999999</ele>
        <time>2017-06-14T12:45:34Z</time>
      </trkpt>
      <trkpt lat="41.874141460284591" lon="13.23568350635469">
        <ele>979.24005099999999</ele>
        <time>2017-06-14T12:45:36Z</time>
      </trkpt>
      <trkpt lat="41.874121092259884" lon="13.235750393941998">
        <ele>979.24005099999999</ele>
        <time>2017-06-14T12:45:41Z</time>
      </trkpt>
      <trkpt lat="41.874024365097284" lon="13.236029930412769">
        <ele>977.80004899999994</ele>
        <time>2017-06-14T12:45:58Z</time>
      </trkpt>
      <trkpt lat="41.873997962102294" lon="13.236263869330287">
        <ele>977.32000700000003</ele>
        <time>2017-06-14T12:46:12Z</time>
      </trkpt>
      <trkpt lat="41.873904336243868" lon="13.236489426344633">
        <ele>977.32000700000003</ele>
        <time>2017-06-14T12:46:27Z</time>
      </trkpt>
      <trkpt lat="41.873733764514327" lon="13.236571736633778">
        <ele>977.32000700000003</ele>
        <time>2017-06-14T12:46:43Z</time>
      </trkpt>
      <trkpt lat="41.873556403443217" lon="13.23660752736032">
        <ele>976.84002699999996</ele>
        <time>2017-06-14T12:46:58Z</time>
      </trkpt>
      <trkpt lat="41.873455820605159" lon="13.236626135185361">
        <ele>978.28002900000001</ele>
        <time>2017-06-14T12:47:07Z</time>
      </trkpt>
      <trkpt lat="41.873378288000822" lon="13.236647676676512">
        <ele>977.32000700000003</ele>
        <time>2017-06-14T12:47:14Z</time>
      </trkpt>
      <trkpt lat="41.873179972171783" lon="13.23671649210155">
        <ele>975.39001499999995</ele>
        <time>2017-06-14T12:47:30Z</time>
      </trkpt>
      <trkpt lat="41.873029181733727" lon="13.236811794340611">
        <ele>974.910034</ele>
        <time>2017-06-14T12:47:43Z</time>
      </trkpt>
      <trkpt lat="41.872965227812529" lon="13.236855464056134">
        <ele>974.42999299999997</ele>
        <time>2017-06-14T12:47:52Z</time>
      </trkpt>
      <trkpt lat="41.872838325798512" lon="13.236922100186348">
        <ele>974.42999299999997</ele>
        <time>2017-06-14T12:48:03Z</time>
      </trkpt>
      <trkpt lat="41.872666496783495" lon="13.237025029957294">
        <ele>974.42999299999997</ele>
        <time>2017-06-14T12:48:19Z</time>
      </trkpt>
      <trkpt lat="41.872535906732082" lon="13.237051516771317">
        <ele>975.39001499999995</ele>
        <time>2017-06-14T12:48:32Z</time>
      </trkpt>
      <trkpt lat="41.87249718233943" lon="13.237076327204704">
        <ele>975.39001499999995</ele>
        <time>2017-06-14T12:48:38Z</time>
      </trkpt>
      <trkpt lat="41.872398778796196" lon="13.237156374379992">
        <ele>975.39001499999995</ele>
        <time>2017-06-14T12:48:50Z</time>
      </trkpt>
      <trkpt lat="41.872335579246283" lon="13.237158386036754">
        <ele>976.35998500000005</ele>
        <time>2017-06-14T12:48:55Z</time>
      </trkpt>
      <trkpt lat="41.872255615890026" lon="13.237143885344267">
        <ele>976.35998500000005</ele>
        <time>2017-06-14T12:49:04Z</time>
      </trkpt>
      <trkpt lat="41.872091079130769" lon="13.237106166779995">
        <ele>976.84002699999996</ele>
        <time>2017-06-14T12:49:15Z</time>
      </trkpt>
      <trkpt lat="41.871996112167835" lon="13.237034920603037">
        <ele>977.32000700000003</ele>
        <time>2017-06-14T12:49:25Z</time>
      </trkpt>
      <trkpt lat="41.871879436075687" lon="13.236853536218405">
        <ele>978.28002900000001</ele>
        <time>2017-06-14T12:49:40Z</time>
      </trkpt>
      <trkpt lat="41.871864264830947" lon="13.236828139051795">
        <ele>978.28002900000001</ele>
        <time>2017-06-14T12:49:42Z</time>
      </trkpt>
      <trkpt lat="41.871796539053321" lon="13.236748930066824">
        <ele>978.75994900000001</ele>
        <time>2017-06-14T12:49:48Z</time>
      </trkpt>
      <trkpt lat="41.871687071397901" lon="13.236605599522591">
        <ele>980.19995100000006</ele>
        <time>2017-06-14T12:50:02Z</time>
      </trkpt>
      <trkpt lat="41.871676929295063" lon="13.236594619229436">
        <ele>980.19995100000006</ele>
        <time>2017-06-14T12:50:03Z</time>
      </trkpt>
      <trkpt lat="41.871618088334799" lon="13.236592691391706">
        <ele>979.71997099999999</ele>
        <time>2017-06-14T12:50:10Z</time>
      </trkpt>
      <trkpt lat="41.871509794145823" lon="13.236674414947629">
        <ele>979.71997099999999</ele>
        <time>2017-06-14T12:50:22Z</time>
      </trkpt>
      <trkpt lat="41.871478278189898" lon="13.236715821549296">
        <ele>979.71997099999999</ele>
        <time>2017-06-14T12:50:28Z</time>
      </trkpt>
      <trkpt lat="41.87140803784132" lon="13.236781787127256">
        <ele>980.19995100000006</ele>
        <time>2017-06-14T12:50:39Z</time>
      </trkpt>
      <trkpt lat="41.871379623189569" lon="13.236821014434099">
        <ele>980.67999299999997</ele>
        <time>2017-06-14T12:50:44Z</time>
      </trkpt>
      <trkpt lat="41.871288763359189" lon="13.236971637234092">
        <ele>981.15997300000004</ele>
        <time>2017-06-14T12:50:57Z</time>
      </trkpt>
      <trkpt lat="41.871193377301097" lon="13.237050762400031">
        <ele>981.15997300000004</ele>
        <time>2017-06-14T12:51:09Z</time>
      </trkpt>
      <trkpt lat="41.871098829433322" lon="13.237115638330579">
        <ele>981.15997300000004</ele>
        <time>2017-06-14T12:51:21Z</time>
      </trkpt>
      <trkpt lat="41.871035881340504" lon="13.237164169549942">
        <ele>981.15997300000004</ele>
        <time>2017-06-14T12:51:37Z</time>
      </trkpt>
      <trkpt lat="41.870967401191592" lon="13.237211024388671">
        <ele>981.15997300000004</ele>
        <time>2017-06-14T12:51:48Z</time>
      </trkpt>
      <trkpt lat="41.870896825566888" lon="13.237223597243428">
        <ele>981.64001499999995</ele>
        <time>2017-06-14T12:51:56Z</time>
      </trkpt>
      <trkpt lat="41.870828764513135" lon="13.237235834822059">
        <ele>982.11999500000002</ele>
        <time>2017-06-14T12:52:06Z</time>
      </trkpt>
      <trkpt lat="41.870702784508467" lon="13.237211359664798">
        <ele>983.089966</ele>
        <time>2017-06-14T12:52:19Z</time>
      </trkpt>
      <trkpt lat="41.870589964091778" lon="13.237164923921227">
        <ele>983.57000700000003</ele>
        <time>2017-06-14T12:52:30Z</time>
      </trkpt>
      <trkpt lat="41.870464906096458" lon="13.23711178265512">
        <ele>984.04998799999998</ele>
        <time>2017-06-14T12:52:43Z</time>
      </trkpt>
      <trkpt lat="41.870410004630685" lon="13.237078171223402">
        <ele>985.01000999999997</ele>
        <time>2017-06-14T12:52:50Z</time>
      </trkpt>
      <trkpt lat="41.870340518653393" lon="13.236930398270488">
        <ele>985.97003199999995</ele>
        <time>2017-06-14T12:53:03Z</time>
      </trkpt>
      <trkpt lat="41.870279079303145" lon="13.236767034977674">
        <ele>986.92999299999997</ele>
        <time>2017-06-14T12:53:15Z</time>
      </trkpt>
      <trkpt lat="41.870255609974265" lon="13.236702578142285">
        <ele>986.92999299999997</ele>
        <time>2017-06-14T12:53:21Z</time>
      </trkpt>
      <trkpt lat="41.870214538648725" lon="13.236629404127598">
        <ele>987.410034</ele>
        <time>2017-06-14T12:53:28Z</time>
      </trkpt>
      <trkpt lat="41.870094761252403" lon="13.236512392759323">
        <ele>987.410034</ele>
        <time>2017-06-14T12:53:42Z</time>
      </trkpt>
      <trkpt lat="41.870059221982956" lon="13.236454809084535">
        <ele>985.97003199999995</ele>
        <time>2017-06-14T12:53:47Z</time>
      </trkpt>
      <trkpt lat="41.869965679943562" lon="13.23635489679873">
        <ele>985.97003199999995</ele>
        <time>2017-06-14T12:53:59Z</time>
      </trkpt>
      <trkpt lat="41.869872137904167" lon="13.23618927039206">
        <ele>985.97003199999995</ele>
        <time>2017-06-14T12:54:12Z</time>
      </trkpt>
      <trkpt lat="41.869867695495486" lon="13.236173931509256">
        <ele>985.97003199999995</ele>
        <time>2017-06-14T12:54:13Z</time>
      </trkpt>
      <trkpt lat="41.869742721319199" lon="13.236071672290564">
        <ele>986.92999299999997</ele>
        <time>2017-06-14T12:54:27Z</time>
      </trkpt>
      <trkpt lat="41.869577597826719" lon="13.23613646440208">
        <ele>988.37005599999998</ele>
        <time>2017-06-14T12:54:42Z</time>
      </trkpt>
      <trkpt lat="41.869550859555602" lon="13.236175188794732">
        <ele>988.37005599999998</ele>
        <time>2017-06-14T12:54:46Z</time>
      </trkpt>
      <trkpt lat="41.869444074109197" lon="13.236303934827447">
        <ele>989.32995600000004</ele>
        <time>2017-06-14T12:55:00Z</time>
      </trkpt>
      <trkpt lat="41.869392106309533" lon="13.23630846105516">
        <ele>989.32995600000004</ele>
        <time>2017-06-14T12:55:07Z</time>
      </trkpt>
      <trkpt lat="41.869306527078152" lon="13.236266886815429">
        <ele>987.89001499999995</ele>
        <time>2017-06-14T12:55:13Z</time>
      </trkpt>
      <trkpt lat="41.869189096614718" lon="13.236202262341976">
        <ele>985.97003199999995</ele>
        <time>2017-06-14T12:55:24Z</time>
      </trkpt>
      <trkpt lat="41.869117598980665" lon="13.236117772758007">
        <ele>984.04998799999998</ele>
        <time>2017-06-14T12:55:36Z</time>
      </trkpt>
      <trkpt lat="41.868988936766982" lon="13.236012160778046">
        <ele>982.11999500000002</ele>
        <time>2017-06-14T12:55:49Z</time>
      </trkpt>
      <trkpt lat="41.868969658389688" lon="13.235997324809432">
        <ele>982.11999500000002</ele>
        <time>2017-06-14T12:55:51Z</time>
      </trkpt>
      <trkpt lat="41.868849210441113" lon="13.235907638445497">
        <ele>981.64001499999995</ele>
        <time>2017-06-14T12:56:04Z</time>
      </trkpt>
      <trkpt lat="41.86884569004178" lon="13.235900094732642">
        <ele>981.64001499999995</ele>
        <time>2017-06-14T12:56:14Z</time>
      </trkpt>
      <trkpt lat="41.868824316188693" lon="13.235902106389403">
        <ele>981.64001499999995</ele>
        <time>2017-06-14T12:56:19Z</time>
      </trkpt>
      <trkpt lat="41.868739826604724" lon="13.2359972409904">
        <ele>981.15997300000004</ele>
        <time>2017-06-14T12:56:32Z</time>
      </trkpt>
      <trkpt lat="41.868710741400719" lon="13.236015764996409">
        <ele>981.15997300000004</ele>
        <time>2017-06-14T12:56:36Z</time>
      </trkpt>
      <trkpt lat="41.868602363392711" lon="13.236097237095237">
        <ele>981.15997300000004</ele>
        <time>2017-06-14T12:56:50Z</time>
      </trkpt>
      <trkpt lat="41.868564477190375" lon="13.236119281500578">
        <ele>982.59997599999997</ele>
        <time>2017-06-14T12:56:54Z</time>
      </trkpt>
      <trkpt lat="41.868496164679527" lon="13.236135458573699">
        <ele>985.01000999999997</ele>
        <time>2017-06-14T12:57:03Z</time>
      </trkpt>
      <trkpt lat="41.868395498022437" lon="13.236152976751328">
        <ele>986.45001200000002</ele>
        <time>2017-06-14T12:57:14Z</time>
      </trkpt>
      <trkpt lat="41.868345709517598" lon="13.236189940944314">
        <ele>987.410034</ele>
        <time>2017-06-14T12:57:21Z</time>
      </trkpt>
      <trkpt lat="41.868257615715265" lon="13.236256325617433">
        <ele>988.37005599999998</ele>
        <time>2017-06-14T12:57:33Z</time>
      </trkpt>
      <trkpt lat="41.868147058412433" lon="13.236263701692224">
        <ele>988.37005599999998</ele>
        <time>2017-06-14T12:57:47Z</time>
      </trkpt>
      <trkpt lat="41.868022922426462" lon="13.236237801611423">
        <ele>989.80999799999995</ele>
        <time>2017-06-14T12:58:02Z</time>
      </trkpt>
      <trkpt lat="41.867947988212109" lon="13.236286835744977">
        <ele>992.21997099999999</ele>
        <time>2017-06-14T12:58:15Z</time>
      </trkpt>
      <trkpt lat="41.867841873317957" lon="13.236331678926945">
        <ele>994.61999500000002</ele>
        <time>2017-06-14T12:58:29Z</time>
      </trkpt>
      <trkpt lat="41.867789486423135" lon="13.236360931769013">
        <ele>996.54003899999998</ele>
        <time>2017-06-14T12:58:37Z</time>
      </trkpt>
      <trkpt lat="41.867728801444173" lon="13.236375264823437">
        <ele>997.51000999999997</ele>
        <time>2017-06-14T12:58:44Z</time>
      </trkpt>
      <trkpt lat="41.867677168920636" lon="13.236368475481868">
        <ele>997.51000999999997</ele>
        <time>2017-06-14T12:58:49Z</time>
      </trkpt>
      <trkpt lat="41.867557475343347" lon="13.236322039738297">
        <ele>999.42999299999997</ele>
        <time>2017-06-14T12:59:02Z</time>
      </trkpt>
      <trkpt lat="41.867509698495269" lon="13.236330673098564">
        <ele>999.42999299999997</ele>
        <time>2017-06-14T12:59:15Z</time>
      </trkpt>
      <trkpt lat="41.867486983537674" lon="13.236291529610753">
        <ele>999.42999299999997</ele>
        <time>2017-06-14T12:59:41Z</time>
      </trkpt>
      <trkpt lat="41.867463095113635" lon="13.23630846105516">
        <ele>999.42999299999997</ele>
        <time>2017-06-14T12:59:57Z</time>
      </trkpt>
      <trkpt lat="41.867424286901951" lon="13.236298570409417">
        <ele>999.42999299999997</ele>
        <time>2017-06-14T13:00:16Z</time>
      </trkpt>
      <trkpt lat="41.867398805916309" lon="13.236225731670856">
        <ele>997.98999000000003</ele>
        <time>2017-06-14T13:00:25Z</time>
      </trkpt>
      <trkpt lat="41.867390088737011" lon="13.23620343580842">
        <ele>997.51000999999997</ele>
        <time>2017-06-14T13:00:27Z</time>
      </trkpt>
      <trkpt lat="41.867379695177078" lon="13.236161693930626">
        <ele>997.02002000000005</ele>
        <time>2017-06-14T13:00:35Z</time>
      </trkpt>
      <trkpt lat="41.867368798702955" lon="13.236123472452164">
        <ele>996.05999799999995</ele>
        <time>2017-06-14T13:00:38Z</time>
      </trkpt>
      <trkpt lat="41.867333929985762" lon="13.236020375043154">
        <ele>995.580017</ele>
        <time>2017-06-14T13:00:48Z</time>
      </trkpt>
      <trkpt lat="41.867277100682259" lon="13.235933035612106">
        <ele>993.17999299999997</ele>
        <time>2017-06-14T13:01:00Z</time>
      </trkpt>
      <trkpt lat="41.867281459271908" lon="13.235949715599418">
        <ele>992.69995100000006</ele>
        <time>2017-06-14T13:01:04Z</time>
      </trkpt>
      <trkpt lat="41.867251787334681" lon="13.236077707260847">
        <ele>990.30004899999994</ele>
        <time>2017-06-14T13:01:16Z</time>
      </trkpt>
      <trkpt lat="41.867211638018489" lon="13.236200418323278">
        <ele>987.89001499999995</ele>
        <time>2017-06-14T13:01:29Z</time>
      </trkpt>
      <trkpt lat="41.867204094305634" lon="13.236287338659167">
        <ele>986.92999299999997</ele>
        <time>2017-06-14T13:01:42Z</time>
      </trkpt>
      <trkpt lat="41.867176182568073" lon="13.236407032236457">
        <ele>984.04998799999998</ele>
        <time>2017-06-14T13:01:55Z</time>
      </trkpt>
      <trkpt lat="41.867137458175421" lon="13.236555140465498">
        <ele>980.67999299999997</ele>
        <time>2017-06-14T13:02:08Z</time>
      </trkpt>
      <trkpt lat="41.867088340222836" lon="13.236528905108571">
        <ele>978.75994900000001</ele>
        <time>2017-06-14T13:02:17Z</time>
      </trkpt>
      <trkpt lat="41.867037462070584" lon="13.236607862636447">
        <ele>976.35998500000005</ele>
        <time>2017-06-14T13:02:30Z</time>
      </trkpt>
      <trkpt lat="41.86702941544354" lon="13.236675001680851">
        <ele>975.39001499999995</ele>
        <time>2017-06-14T13:02:38Z</time>
      </trkpt>
      <trkpt lat="41.866968227550387" lon="13.236644072458148">
        <ele>972.51000999999997</ele>
        <time>2017-06-14T13:02:49Z</time>
      </trkpt>
      <trkpt lat="41.866917433217168" lon="13.236583471298218">
        <ele>970.10998500000005</ele>
        <time>2017-06-14T13:03:02Z</time>
      </trkpt>
      <trkpt lat="41.866886923089623" lon="13.236681539565325">
        <ele>967.21997099999999</ele>
        <time>2017-06-14T13:03:16Z</time>
      </trkpt>
      <trkpt lat="41.866886420175433" lon="13.236714731901884">
        <ele>964.82000700000003</ele>
        <time>2017-06-14T13:03:32Z</time>
      </trkpt>
      <trkpt lat="41.866825902834535" lon="13.236726215109229">
        <ele>964.82000700000003</ele>
        <time>2017-06-14T13:03:50Z</time>
      </trkpt>
      <trkpt lat="41.866825399920344" lon="13.236833335831761">
        <ele>962.90002400000003</ele>
        <time>2017-06-14T13:04:05Z</time>
      </trkpt>
      <trkpt lat="41.86681198887527" lon="13.236980102956295">
        <ele>960.01000999999997</ele>
        <time>2017-06-14T13:04:20Z</time>
      </trkpt>
      <trkpt lat="41.866794638335705" lon="13.237008014693856">
        <ele>958.57000700000003</ele>
        <time>2017-06-14T13:04:35Z</time>
      </trkpt>
      <trkpt lat="41.866769324988127" lon="13.237081440165639">
        <ele>957.60998500000005</ele>
        <time>2017-06-14T13:04:55Z</time>
      </trkpt>
      <trkpt lat="41.866722302511334" lon="13.237197864800692">
        <ele>953.77002000000005</ele>
        <time>2017-06-14T13:05:08Z</time>
      </trkpt>
      <trkpt lat="41.866694558411837" lon="13.237307332456112">
        <ele>951.35998500000005</ele>
        <time>2017-06-14T13:05:20Z</time>
      </trkpt>
      <trkpt lat="41.86664342880249" lon="13.237404562532902">
        <ele>948.47997999999995</ele>
        <time>2017-06-14T13:05:33Z</time>
      </trkpt>
      <trkpt lat="41.866594813764095" lon="13.237517634406686">
        <ele>945.589966</ele>
        <time>2017-06-14T13:05:47Z</time>
      </trkpt>
      <trkpt lat="41.866555083543062" lon="13.237559460103512">
        <ele>944.15002400000003</ele>
        <time>2017-06-14T13:05:59Z</time>
      </trkpt>
      <trkpt lat="41.866530440747738" lon="13.237678399309516">
        <ele>941.75</ele>
        <time>2017-06-14T13:06:15Z</time>
      </trkpt>
      <trkpt lat="41.866524070501328" lon="13.237687116488814">
        <ele>941.75</ele>
        <time>2017-06-14T13:06:16Z</time>
      </trkpt>
      <trkpt lat="41.866507390514016" lon="13.237703796476126">
        <ele>940.78997800000002</ele>
        <time>2017-06-14T13:06:18Z</time>
      </trkpt>
      <trkpt lat="41.866467241197824" lon="13.23774796910584">
        <ele>939.34997599999997</ele>
        <time>2017-06-14T13:06:24Z</time>
      </trkpt>
      <trkpt lat="41.866434467956424" lon="13.237883672118187">
        <ele>936.45996100000002</ele>
        <time>2017-06-14T13:06:37Z</time>
      </trkpt>
      <trkpt lat="41.866388032212853" lon="13.238017866387963">
        <ele>933.580017</ele>
        <time>2017-06-14T13:06:51Z</time>
      </trkpt>
      <trkpt lat="41.86635660007596" lon="13.238091794773936">
        <ele>932.61999500000002</ele>
        <time>2017-06-14T13:07:03Z</time>
      </trkpt>
      <trkpt lat="41.866293735802174" lon="13.238238980993629">
        <ele>928.77002000000005</ele>
        <time>2017-06-14T13:07:18Z</time>
      </trkpt>
      <trkpt lat="41.866274541243911" lon="13.238291703164577">
        <ele>927.32995600000004</ele>
        <time>2017-06-14T13:07:27Z</time>
      </trkpt>
      <trkpt lat="41.866223411634564" lon="13.238349035382271">
        <ele>925.410034</ele>
        <time>2017-06-14T13:07:40Z</time>
      </trkpt>
      <trkpt lat="41.866187872365117" lon="13.238443331792951">
        <ele>923.00006099999996</ele>
        <time>2017-06-14T13:07:52Z</time>
      </trkpt>
      <trkpt lat="41.866158535704017" lon="13.238543411716819">
        <ele>920.60003700000004</ele>
        <time>2017-06-14T13:08:07Z</time>
      </trkpt>
      <trkpt lat="41.866140682250261" lon="13.238612059503794">
        <ele>918.67999299999997</ele>
        <time>2017-06-14T13:08:14Z</time>
      </trkpt>
      <trkpt lat="41.866084188222885" lon="13.238752540200949">
        <ele>915.78997800000002</ele>
        <time>2017-06-14T13:08:28Z</time>
      </trkpt>
      <trkpt lat="41.866071615368128" lon="13.238773662596941">
        <ele>915.30999799999995</ele>
        <time>2017-06-14T13:08:44Z</time>
      </trkpt>
      <trkpt lat="41.866035321727395" lon="13.238854799419641">
        <ele>913.38995399999999</ele>
        <time>2017-06-14T13:08:57Z</time>
      </trkpt>
      <trkpt lat="41.866031801328063" lon="13.238865528255701">
        <ele>913.38995399999999</ele>
        <time>2017-06-14T13:09:01Z</time>
      </trkpt>
      <trkpt lat="41.865966087207198" lon="13.23897248134017">
        <ele>909.54003899999998</ele>
        <time>2017-06-14T13:09:14Z</time>
      </trkpt>
      <trkpt lat="41.865897607058287" lon="13.239054707810283">
        <ele>907.61999500000002</ele>
        <time>2017-06-14T13:09:26Z</time>
      </trkpt>
      <trkpt lat="41.865867516025901" lon="13.239040961489081">
        <ele>904.25994900000001</ele>
        <time>2017-06-14T13:09:39Z</time>
      </trkpt>
      <trkpt lat="41.865852512419224" lon="13.239082116633654">
        <ele>903.77996800000005</ele>
        <time>2017-06-14T13:09:48Z</time>
      </trkpt>
      <trkpt lat="41.865826528519392" lon="13.239149088039994">
        <ele>902.32995600000004</ele>
        <time>2017-06-14T13:09:56Z</time>
      </trkpt>
      <trkpt lat="41.865775734186172" lon="13.239243300631642">
        <ele>899.45001200000002</ele>
        <time>2017-06-14T13:10:09Z</time>
      </trkpt>
      <trkpt lat="41.865772884339094" lon="13.239234164357185">
        <ele>898.48999000000003</ele>
        <time>2017-06-14T13:10:10Z</time>
      </trkpt>
      <trkpt lat="41.865767017006874" lon="13.239200972020626">
        <ele>898.01000999999997</ele>
        <time>2017-06-14T13:10:13Z</time>
      </trkpt>
      <trkpt lat="41.865743463858962" lon="13.239199798554182">
        <ele>895.60998500000005</ele>
        <time>2017-06-14T13:10:26Z</time>
      </trkpt>
      <trkpt lat="41.865741536021233" lon="13.239240786060691">
        <ele>894.64001499999995</ele>
        <time>2017-06-14T13:10:31Z</time>
      </trkpt>
      <trkpt lat="41.865706164389849" lon="13.239328460767865">
        <ele>892.23999000000003</ele>
        <time>2017-06-14T13:10:42Z</time>
      </trkpt>
      <trkpt lat="41.865680180490017" lon="13.239479418843985">
        <ele>889.35998500000005</ele>
        <time>2017-06-14T13:10:56Z</time>
      </trkpt>
      <trkpt lat="41.865670960396528" lon="13.239530213177204">
        <ele>888.40002400000003</ele>
        <time>2017-06-14T13:11:02Z</time>
      </trkpt>
      <trkpt lat="41.865665931254625" lon="13.239577822387218">
        <ele>886.95001200000002</ele>
        <time>2017-06-14T13:11:07Z</time>
      </trkpt>
      <trkpt lat="41.865618908777833" lon="13.239658707752824">
        <ele>885.98999000000003</ele>
        <time>2017-06-14T13:11:16Z</time>
      </trkpt>
      <trkpt lat="41.865606587380171" lon="13.239701958373189">
        <ele>885.51000999999997</ele>
        <time>2017-06-14T13:11:20Z</time>
      </trkpt>
      <trkpt lat="41.86559971421957" lon="13.239795584231615">
        <ele>883.589966</ele>
        <time>2017-06-14T13:11:29Z</time>
      </trkpt>
      <trkpt lat="41.865569371730089" lon="13.239860292524099">
        <ele>881.67004399999996</ele>
        <time>2017-06-14T13:11:37Z</time>
      </trkpt>
      <trkpt lat="41.865526204928756" lon="13.239982919767499">
        <ele>879.73999000000003</ele>
        <time>2017-06-14T13:11:50Z</time>
      </trkpt>
      <trkpt lat="41.865469375625253" lon="13.24000253342092">
        <ele>877.34002699999996</ele>
        <time>2017-06-14T13:12:02Z</time>
      </trkpt>
      <trkpt lat="41.865442637354136" lon="13.240069169551134">
        <ele>875.419983</ele>
        <time>2017-06-14T13:12:16Z</time>
      </trkpt>
      <trkpt lat="41.86540768481791" lon="13.240176877006888">
        <ele>873.97997999999995</ele>
        <time>2017-06-14T13:12:26Z</time>
      </trkpt>
      <trkpt lat="41.865314226597548" lon="13.240294558927417">
        <ele>871.57000700000003</ele>
        <time>2017-06-14T13:12:39Z</time>
      </trkpt>
      <trkpt lat="41.865203836932778" lon="13.240406792610884">
        <ele>869.17004399999996</ele>
        <time>2017-06-14T13:12:53Z</time>
      </trkpt>
      <trkpt lat="41.865099985152483" lon="13.240477535873652">
        <ele>866.28997800000002</ele>
        <time>2017-06-14T13:13:06Z</time>
      </trkpt>
      <trkpt lat="41.864988589659333" lon="13.240498574450612">
        <ele>864.35998500000005</ele>
        <time>2017-06-14T13:13:16Z</time>
      </trkpt>
      <trkpt lat="41.864895718172193" lon="13.240599911659956">
        <ele>861.47997999999995</ele>
        <time>2017-06-14T13:13:26Z</time>
      </trkpt>
      <trkpt lat="41.864866465330124" lon="13.240619441494346">
        <ele>861.47997999999995</ele>
        <time>2017-06-14T13:13:29Z</time>
      </trkpt>
      <trkpt lat="41.864763284102082" lon="13.240688340738416">
        <ele>859.56005900000002</ele>
        <time>2017-06-14T13:13:42Z</time>
      </trkpt>
      <trkpt lat="41.864701341837645" lon="13.240814907476306">
        <ele>859.080017</ele>
        <time>2017-06-14T13:13:52Z</time>
      </trkpt>
      <trkpt lat="41.864608973264694" lon="13.240915238857269">
        <ele>858.589966</ele>
        <time>2017-06-14T13:14:02Z</time>
      </trkpt>
      <trkpt lat="41.864567901939154" lon="13.24111171066761">
        <ele>858.589966</ele>
        <time>2017-06-14T13:14:16Z</time>
      </trkpt>
      <trkpt lat="41.864571925252676" lon="13.241238696500659">
        <ele>858.589966</ele>
        <time>2017-06-14T13:14:29Z</time>
      </trkpt>
      <trkpt lat="41.864564632996917" lon="13.241335088387132">
        <ele>858.10998500000005</ele>
        <time>2017-06-14T13:14:36Z</time>
      </trkpt>
      <trkpt lat="41.864494141191244" lon="13.241534326225519">
        <ele>855.71002199999998</ele>
        <time>2017-06-14T13:14:50Z</time>
      </trkpt>
      <trkpt lat="41.864433037117124" lon="13.24165016412735">
        <ele>853.30999799999995</ele>
        <time>2017-06-14T13:15:02Z</time>
      </trkpt>
      <trkpt lat="41.864317283034325" lon="13.241751501336694">
        <ele>849.94000200000005</ele>
        <time>2017-06-14T13:15:16Z</time>
      </trkpt>
      <trkpt lat="41.864258861169219" lon="13.241765163838863">
        <ele>848.97997999999995</ele>
        <time>2017-06-14T13:15:26Z</time>
      </trkpt>
      <trkpt lat="41.864232374355197" lon="13.241772539913654">
        <ele>848.01995799999997</ele>
        <time>2017-06-14T13:15:29Z</time>
      </trkpt>
      <trkpt lat="41.864198260009289" lon="13.241785699501634">
        <ele>847.53997800000002</ele>
        <time>2017-06-14T13:15:33Z</time>
      </trkpt>
      <trkpt lat="41.864084266126156" lon="13.241865830495954">
        <ele>845.14001499999995</ele>
        <time>2017-06-14T13:15:47Z</time>
      </trkpt>
      <trkpt lat="41.863952083513141" lon="13.241992732509971">
        <ele>842.25</ele>
        <time>2017-06-14T13:16:01Z</time>
      </trkpt>
      <trkpt lat="41.86394764110446" lon="13.241999018937349">
        <ele>842.25</ele>
        <time>2017-06-14T13:16:02Z</time>
      </trkpt>
      <trkpt lat="41.86393397860229" lon="13.242016034200788">
        <ele>842.25</ele>
        <time>2017-06-14T13:16:04Z</time>
      </trkpt>
      <trkpt lat="41.863870359957218" lon="13.242072192952037">
        <ele>840.80999799999995</ele>
        <time>2017-06-14T13:16:12Z</time>
      </trkpt>
      <trkpt lat="41.863733734935522" lon="13.242099434137344">
        <ele>836.95996100000002</ele>
        <time>2017-06-14T13:16:28Z</time>
      </trkpt>
      <trkpt lat="41.863647233694792" lon="13.242106894031167">
        <ele>834.080017</ele>
        <time>2017-06-14T13:16:40Z</time>
      </trkpt>
      <trkpt lat="41.863648993894458" lon="13.242124328389764">
        <ele>833.60003700000004</ele>
        <time>2017-06-14T13:16:42Z</time>
      </trkpt>
      <trkpt lat="41.863687131553888" lon="13.242256678640842">
        <ele>831.67999299999997</ele>
        <time>2017-06-14T13:16:53Z</time>
      </trkpt>
      <trkpt lat="41.863759802654386" lon="13.242388106882572">
        <ele>829.27002000000005</ele>
        <time>2017-06-14T13:17:05Z</time>
      </trkpt>
      <trkpt lat="41.863850662484765" lon="13.24251651763916">
        <ele>827.34997599999997</ele>
        <time>2017-06-14T13:17:18Z</time>
      </trkpt>
      <trkpt lat="41.863896679133177" lon="13.242606958374381">
        <ele>826.38995399999999</ele>
        <time>2017-06-14T13:17:25Z</time>
      </trkpt>
      <trkpt lat="41.863916460424662" lon="13.242647778242826">
        <ele>826.38995399999999</ele>
        <time>2017-06-14T13:17:29Z</time>
      </trkpt>
      <trkpt lat="41.863936660811305" lon="13.242874927818775">
        <ele>825.90997300000004</ele>
        <time>2017-06-14T13:17:45Z</time>
      </trkpt>
      <trkpt lat="41.863924507051706" lon="13.24309310875833">
        <ele>823.51000999999997</ele>
        <time>2017-06-14T13:18:00Z</time>
      </trkpt>
      <trkpt lat="41.863922076299787" lon="13.243106519803405">
        <ele>823.03002900000001</ele>
        <time>2017-06-14T13:18:01Z</time>
      </trkpt>
      <trkpt lat="41.863905983045697" lon="13.243357473984361">
        <ele>820.61999500000002</ele>
        <time>2017-06-14T13:18:17Z</time>
      </trkpt>
      <trkpt lat="41.863888716325164" lon="13.243540870025754">
        <ele>819.17999299999997</ele>
        <time>2017-06-14T13:18:30Z</time>
      </trkpt>
      <trkpt lat="41.863848064094782" lon="13.243712363764644">
        <ele>816.77996800000005</ele>
        <time>2017-06-14T13:18:43Z</time>
      </trkpt>
      <trkpt lat="41.86383968219161" lon="13.243739185854793">
        <ele>816.29998799999998</ele>
        <time>2017-06-14T13:18:45Z</time>
      </trkpt>
      <trkpt lat="41.863794000819325" lon="13.243923420086503">
        <ele>813.88995399999999</ele>
        <time>2017-06-14T13:18:58Z</time>
      </trkpt>
      <trkpt lat="41.863797521218657" lon="13.244051076471806">
        <ele>812.44995100000006</ele>
        <time>2017-06-14T13:19:09Z</time>
      </trkpt>
      <trkpt lat="41.863779332488775" lon="13.244256600737572">
        <ele>811.01000999999997</ele>
        <time>2017-06-14T13:19:23Z</time>
      </trkpt>
      <trkpt lat="41.8637815117836" lon="13.244434799998999">
        <ele>808.13000499999998</ele>
        <time>2017-06-14T13:19:36Z</time>
      </trkpt>
      <trkpt lat="41.863781763240695" lon="13.244492467492819">
        <ele>807.64001499999995</ele>
        <time>2017-06-14T13:19:40Z</time>
      </trkpt>
      <trkpt lat="41.863763993605971" lon="13.244657339528203">
        <ele>804.76000999999997</ele>
        <time>2017-06-14T13:19:53Z</time>
      </trkpt>
      <trkpt lat="41.863703895360231" lon="13.244846602901816">
        <ele>801.40002400000003</ele>
        <time>2017-06-14T13:20:06Z</time>
      </trkpt>
      <trkpt lat="41.863634660840034" lon="13.245036620646715">
        <ele>798.98999000000003</ele>
        <time>2017-06-14T13:20:21Z</time>
      </trkpt>
      <trkpt lat="41.863588308915496" lon="13.245222615078092">
        <ele>797.54998799999998</ele>
        <time>2017-06-14T13:20:36Z</time>
      </trkpt>
      <trkpt lat="41.863519661128521" lon="13.245436688885093">
        <ele>795.63000499999998</ele>
        <time>2017-06-14T13:20:49Z</time>
      </trkpt>
      <trkpt lat="41.863508680835366" lon="13.245479101315141">
        <ele>795.14996299999996</ele>
        <time>2017-06-14T13:20:53Z</time>
      </trkpt>
      <trkpt lat="41.863503819331527" lon="13.245508521795273">
        <ele>795.14996299999996</ele>
        <time>2017-06-14T13:20:55Z</time>
      </trkpt>
      <trkpt lat="41.863483032211661" lon="13.245790740475059">
        <ele>793.70996100000002</ele>
        <time>2017-06-14T13:21:11Z</time>
      </trkpt>
      <trkpt lat="41.863490408286452" lon="13.246053932234645">
        <ele>792.73999000000003</ele>
        <time>2017-06-14T13:21:26Z</time>
      </trkpt>
      <trkpt lat="41.863398877903819" lon="13.246228275820613">
        <ele>791.77996800000005</ele>
        <time>2017-06-14T13:21:39Z</time>
      </trkpt>
      <trkpt lat="41.863332241773605" lon="13.246261132881045">
        <ele>791.77996800000005</ele>
        <time>2017-06-14T13:21:45Z</time>
      </trkpt>
      <trkpt lat="41.863250266760588" lon="13.246275885030627">
        <ele>790.81994599999996</ele>
        <time>2017-06-14T13:21:51Z</time>
      </trkpt>
      <trkpt lat="41.863186396658421" lon="13.246325002983212">
        <ele>790.34002699999996</ele>
        <time>2017-06-14T13:22:06Z</time>
      </trkpt>
      <trkpt lat="41.863152785226703" lon="13.246295666322112">
        <ele>789.86004600000001</ele>
        <time>2017-06-14T13:22:20Z</time>
      </trkpt>
      <trkpt lat="41.863073827698827" lon="13.246325924992561">
        <ele>789.86004600000001</ele>
        <time>2017-06-14T13:22:29Z</time>
      </trkpt>
      <trkpt lat="41.863039713352919" lon="13.246328691020608">
        <ele>789.86004600000001</ele>
        <time>2017-06-14T13:22:32Z</time>
      </trkpt>
      <trkpt lat="41.862982967868447" lon="13.246499178931117">
        <ele>791.77996800000005</ele>
        <time>2017-06-14T13:22:46Z</time>
      </trkpt>
      <trkpt lat="41.862976178526878" lon="13.246694812551141">
        <ele>792.73999000000003</ele>
        <time>2017-06-14T13:23:00Z</time>
      </trkpt>
      <trkpt lat="41.863027140498161" lon="13.246800005435944">
        <ele>793.21997099999999</ele>
        <time>2017-06-14T13:23:14Z</time>
      </trkpt>
      <trkpt lat="41.86301632784307" lon="13.246846273541451">
        <ele>792.73999000000003</ele>
        <time>2017-06-14T13:23:22Z</time>
      </trkpt>
      <trkpt lat="41.863001491874456" lon="13.247052635997534">
        <ele>793.70996100000002</ele>
        <time>2017-06-14T13:23:36Z</time>
      </trkpt>
      <trkpt lat="41.862991098314524" lon="13.247101167216897">
        <ele>794.19006300000001</ele>
        <time>2017-06-14T13:23:39Z</time>
      </trkpt>
      <trkpt lat="41.862980872392654" lon="13.247245335951447">
        <ele>794.669983</ele>
        <time>2017-06-14T13:23:47Z</time>
      </trkpt>
      <trkpt lat="41.862975340336561" lon="13.247274421155453">
        <ele>794.669983</ele>
        <time>2017-06-14T13:23:49Z</time>
      </trkpt>
      <trkpt lat="41.862981040030718" lon="13.247333932667971">
        <ele>794.669983</ele>
        <time>2017-06-14T13:23:54Z</time>
      </trkpt>
      <trkpt lat="41.862963102757931" lon="13.247412638738751">
        <ele>795.63000499999998</ele>
        <time>2017-06-14T13:24:07Z</time>
      </trkpt>
      <trkpt lat="41.862923037260771" lon="13.247398221865296">
        <ele>795.63000499999998</ele>
        <time>2017-06-14T13:24:38Z</time>
      </trkpt>
      <trkpt lat="41.862923288717866" lon="13.247358072549105">
        <ele>795.63000499999998</ele>
        <time>2017-06-14T13:25:07Z</time>
      </trkpt>
      <trkpt lat="41.862891940400004" lon="13.2473548874259">
        <ele>795.63000499999998</ele>
        <time>2017-06-14T13:25:42Z</time>
      </trkpt>
      <trkpt lat="41.862947093322873" lon="13.247385481372476">
        <ele>795.63000499999998</ele>
        <time>2017-06-14T13:26:07Z</time>
      </trkpt>
      <trkpt lat="41.862936867401004" lon="13.247374417260289">
        <ele>795.63000499999998</ele>
        <time>2017-06-14T13:26:40Z</time>
      </trkpt>
      <trkpt lat="41.862942315638065" lon="13.247376764193177">
        <ele>795.63000499999998</ele>
        <time>2017-06-14T13:27:05Z</time>
      </trkpt>
      <trkpt lat="41.86291666701436" lon="13.247405681759119">
        <ele>795.63000499999998</ele>
        <time>2017-06-14T13:27:32Z</time>
      </trkpt>
      <trkpt lat="41.862929239869118" lon="13.247405178844929">
        <ele>795.63000499999998</ele>
        <time>2017-06-14T13:27:55Z</time>
      </trkpt>
      <trkpt lat="41.862919013947248" lon="13.247429486364126">
        <ele>795.63000499999998</ele>
        <time>2017-06-14T13:28:17Z</time>
      </trkpt>
      <trkpt lat="41.862922199070454" lon="13.247434012591839">
        <ele>795.63000499999998</ele>
        <time>2017-06-14T13:28:35Z</time>
      </trkpt>
      <trkpt lat="41.862916834652424" lon="13.2474325876683">
        <ele>795.63000499999998</ele>
        <time>2017-06-14T13:28:59Z</time>
      </trkpt>
      <trkpt lat="41.862915493547916" lon="13.247540965676308">
        <ele>796.10998500000005</ele>
        <time>2017-06-14T13:29:10Z</time>
      </trkpt>
      <trkpt lat="41.86290979385376" lon="13.247638866305351">
        <ele>796.10998500000005</ele>
        <time>2017-06-14T13:29:17Z</time>
      </trkpt>
      <trkpt lat="41.862914236262441" lon="13.247907925397158">
        <ele>798.03002900000001</ele>
        <time>2017-06-14T13:29:33Z</time>
      </trkpt>
      <trkpt lat="41.862909207120538" lon="13.248098865151405">
        <ele>799.47003199999995</ele>
        <time>2017-06-14T13:29:46Z</time>
      </trkpt>
      <trkpt lat="41.862911805510521" lon="13.248124597594142">
        <ele>799.47003199999995</ele>
        <time>2017-06-14T13:29:49Z</time>
      </trkpt>
      <trkpt lat="41.862901579588652" lon="13.248302964493632">
        <ele>800.919983</ele>
        <time>2017-06-14T13:30:04Z</time>
      </trkpt>
      <trkpt lat="41.862904597073793" lon="13.248404134064913">
        <ele>801.88000499999998</ele>
        <time>2017-06-14T13:30:14Z</time>
      </trkpt>
      <trkpt lat="41.862908788025379" lon="13.248578393831849">
        <ele>802.84002699999996</ele>
        <time>2017-06-14T13:30:25Z</time>
      </trkpt>
      <trkpt lat="41.862905519083142" lon="13.248658860102296">
        <ele>803.79998799999998</ele>
        <time>2017-06-14T13:30:31Z</time>
      </trkpt>
      <trkpt lat="41.862879116088152" lon="13.248834041878581">
        <ele>805.71997099999999</ele>
        <time>2017-06-14T13:30:44Z</time>
      </trkpt>
      <trkpt lat="41.862868973985314" lon="13.248876873403788">
        <ele>805.71997099999999</ele>
        <time>2017-06-14T13:30:48Z</time>
      </trkpt>
      <trkpt lat="41.862848773598671" lon="13.248888188973069">
        <ele>805.23999000000003</ele>
        <time>2017-06-14T13:30:59Z</time>
      </trkpt>
      <trkpt lat="41.86279303394258" lon="13.248832700774074">
        <ele>805.71997099999999</ele>
        <time>2017-06-14T13:31:18Z</time>
      </trkpt>
      <trkpt lat="41.862808624282479" lon="13.248781906440854">
        <ele>805.71997099999999</ele>
        <time>2017-06-14T13:31:36Z</time>
      </trkpt>
      <trkpt lat="41.862840140238404" lon="13.248841837048531">
        <ele>805.71997099999999</ele>
        <time>2017-06-14T13:31:55Z</time>
      </trkpt>
      <trkpt lat="41.862852964550257" lon="13.248897241428494">
        <ele>799.94995100000006</ele>
        <time>2017-06-14T13:32:05Z</time>
      </trkpt>
      <trkpt lat="41.86285506002605" lon="13.248899336904287">
        <ele>804.76000999999997</ele>
        <time>2017-06-14T13:32:06Z</time>
      </trkpt>
      <trkpt lat="41.862917002290487" lon="13.248913083225489">
        <ele>805.71997099999999</ele>
        <time>2017-06-14T13:32:31Z</time>
      </trkpt>
      <trkpt lat="41.862967209890485" lon="13.248906712979078">
        <ele>805.23999000000003</ele>
        <time>2017-06-14T13:32:59Z</time>
      </trkpt>
      <trkpt lat="41.8629508651793" lon="13.248921884223819">
        <ele>805.23999000000003</ele>
        <time>2017-06-14T13:33:22Z</time>
      </trkpt>
      <trkpt lat="41.862923121079803" lon="13.248936301097274">
        <ele>804.76000999999997</ele>
        <time>2017-06-14T13:33:47Z</time>
      </trkpt>
      <trkpt lat="41.862932089716196" lon="13.248923225328326">
        <ele>804.76000999999997</ele>
        <time>2017-06-14T13:34:17Z</time>
      </trkpt>
      <trkpt lat="41.862935861572623" lon="13.248910317197442">
        <ele>804.27996800000005</ele>
        <time>2017-06-14T13:34:45Z</time>
      </trkpt>
      <trkpt lat="41.862915409728885" lon="13.24891216121614">
        <ele>804.27996800000005</ele>
        <time>2017-06-14T13:35:21Z</time>
      </trkpt>
      <trkpt lat="41.862935023382306" lon="13.248915933072567">
        <ele>804.27996800000005</ele>
        <time>2017-06-14T13:35:50Z</time>
      </trkpt>
      <trkpt lat="41.862933430820704" lon="13.248955830931664">
        <ele>804.76000999999997</ele>
        <time>2017-06-14T13:36:18Z</time>
      </trkpt>
      <trkpt lat="41.862937621772289" lon="13.24896496720612">
        <ele>804.76000999999997</ele>
        <time>2017-06-14T13:36:42Z</time>
      </trkpt>
      <trkpt lat="41.862955139949918" lon="13.248934708535671">
        <ele>804.76000999999997</ele>
        <time>2017-06-14T13:37:17Z</time>
      </trkpt>
      <trkpt lat="41.862949607893825" lon="13.248953567817807">
        <ele>804.76000999999997</ele>
        <time>2017-06-14T13:37:48Z</time>
      </trkpt>
      <trkpt lat="41.862910632044077" lon="13.248962117359042">
        <ele>804.76000999999997</ele>
        <time>2017-06-14T13:38:24Z</time>
      </trkpt>
      <trkpt lat="41.862927060574293" lon="13.248941916972399">
        <ele>804.76000999999997</ele>
        <time>2017-06-14T13:38:53Z</time>
      </trkpt>
      <trkpt lat="41.862955307587981" lon="13.248931774869561">
        <ele>804.76000999999997</ele>
        <time>2017-06-14T13:39:21Z</time>
      </trkpt>
      <trkpt lat="41.862948602065444" lon="13.248909311369061">
        <ele>804.27996800000005</ele>
        <time>2017-06-14T13:39:54Z</time>
      </trkpt>
      <trkpt lat="41.862905435264111" lon="13.248935211449862">
        <ele>806.20001200000002</ele>
        <time>2017-06-14T13:40:13Z</time>
      </trkpt>
      <trkpt lat="41.862864531576633" lon="13.24893026612699">
        <ele>806.20001200000002</ele>
        <time>2017-06-14T13:40:32Z</time>
      </trkpt>
      <trkpt lat="41.862862519919872" lon="13.248942838981748">
        <ele>804.76000999999997</ele>
        <time>2017-06-14T13:40:57Z</time>
      </trkpt>
      <trkpt lat="41.86287609860301" lon="13.248902522027493">
        <ele>804.76000999999997</ele>
        <time>2017-06-14T13:41:14Z</time>
      </trkpt>
      <trkpt lat="41.861745715141296" lon="13.249177113175392">
        <ele>766.30999799999995</ele>
        <time>2017-06-15T04:53:47Z</time>
      </trkpt>
      <trkpt lat="41.861518230289221" lon="13.249801313504577">
        <ele>766.30999799999995</ele>
        <time>2017-06-15T04:53:49Z</time>
      </trkpt>
      <trkpt lat="41.861504483968019" lon="13.249166300520301">
        <ele>766.30999799999995</ele>
        <time>2017-06-15T04:53:53Z</time>
      </trkpt>
      <trkpt lat="41.861490234732628" lon="13.249044762924314">
        <ele>766.30999799999995</ele>
        <time>2017-06-15T04:53:55Z</time>
      </trkpt>
      <trkpt lat="41.861585034057498" lon="13.249229164794087">
        <ele>767.75</ele>
        <time>2017-06-15T04:54:03Z</time>
      </trkpt>
      <trkpt lat="41.861599367111921" lon="13.249424714595079">
        <ele>769.19006300000001</ele>
        <time>2017-06-15T04:54:15Z</time>
      </trkpt>
      <trkpt lat="41.862222561612725" lon="13.249194966629148">
        <ele>769.669983</ele>
        <time>2017-06-15T04:54:42Z</time>
      </trkpt>
      <trkpt lat="41.862254664301872" lon="13.249193290248513">
        <ele>769.669983</ele>
        <time>2017-06-15T04:55:09Z</time>
      </trkpt>
      <trkpt lat="41.862257514148951" lon="13.249210389330983">
        <ele>770.14996299999996</ele>
        <time>2017-06-15T04:55:10Z</time>
      </trkpt>
      <trkpt lat="41.862286264076829" lon="13.249236959964037">
        <ele>771.10998500000005</ele>
        <time>2017-06-15T04:55:20Z</time>
      </trkpt>
      <trkpt lat="41.862285509705544" lon="13.249093713238835">
        <ele>773.03997800000002</ele>
        <time>2017-06-15T04:55:35Z</time>
      </trkpt>
      <trkpt lat="41.862370083108544" lon="13.249246180057526">
        <ele>774.47997999999995</ele>
        <time>2017-06-15T04:55:49Z</time>
      </trkpt>
      <trkpt lat="41.862519280984998" lon="13.249311223626137">
        <ele>775.919983</ele>
        <time>2017-06-15T04:56:06Z</time>
      </trkpt>
      <trkpt lat="41.862505367025733" lon="13.249140065163374">
        <ele>777.84002699999996</ele>
        <time>2017-06-15T04:56:26Z</time>
      </trkpt>
      <trkpt lat="41.862438395619392" lon="13.2489781267941">
        <ele>780.25</ele>
        <time>2017-06-15T04:56:40Z</time>
      </trkpt>
      <trkpt lat="41.862614415585995" lon="13.248667493462563">
        <ele>781.20996100000002</ele>
        <time>2017-06-15T04:57:01Z</time>
      </trkpt>
      <trkpt lat="41.862616259604692" lon="13.248659111559391">
        <ele>779.77002000000005</ele>
        <time>2017-06-15T04:57:02Z</time>
      </trkpt>
      <trkpt lat="41.862635035067797" lon="13.248619297519326">
        <ele>779.77002000000005</ele>
        <time>2017-06-15T04:57:07Z</time>
      </trkpt>
      <trkpt lat="41.862798985093832" lon="13.248707726597786">
        <ele>778.80999799999995</ele>
        <time>2017-06-15T04:57:19Z</time>
      </trkpt>
      <trkpt lat="41.862824885174632" lon="13.248787438496947">
        <ele>778.80999799999995</ele>
        <time>2017-06-15T04:57:33Z</time>
      </trkpt>
      <trkpt lat="41.862833434715867" lon="13.248810404911637">
        <ele>779.29003899999998</ele>
        <time>2017-06-15T04:57:39Z</time>
      </trkpt>
      <trkpt lat="41.862905686721206" lon="13.249023640528321">
        <ele>778.31994599999996</ele>
        <time>2017-06-15T04:57:56Z</time>
      </trkpt>
      <trkpt lat="41.862936029210687" lon="13.249127073213458">
        <ele>776.88000499999998</ele>
        <time>2017-06-15T04:58:05Z</time>
      </trkpt>
      <trkpt lat="41.862922701984644" lon="13.249238636344671">
        <ele>775.919983</ele>
        <time>2017-06-15T04:58:20Z</time>
      </trkpt>
      <trkpt lat="41.862923791632056" lon="13.249246515333652">
        <ele>775.919983</ele>
        <time>2017-06-15T04:58:21Z</time>
      </trkpt>
      <trkpt lat="41.862945165485144" lon="13.24933092109859">
        <ele>775.44000200000005</ele>
        <time>2017-06-15T04:58:26Z</time>
      </trkpt>
      <trkpt lat="41.863021105527878" lon="13.24955421499908">
        <ele>771.60003700000004</ele>
        <time>2017-06-15T04:58:41Z</time>
      </trkpt>
      <trkpt lat="41.863078018650413" lon="13.249797206372023">
        <ele>769.669983</ele>
        <time>2017-06-15T04:58:59Z</time>
      </trkpt>
      <trkpt lat="41.863126298412681" lon="13.25001060962677">
        <ele>767.75</ele>
        <time>2017-06-15T04:59:14Z</time>
      </trkpt>
      <trkpt lat="41.863124538213015" lon="13.250201214104891">
        <ele>766.79003899999998</ele>
        <time>2017-06-15T04:59:27Z</time>
      </trkpt>
      <trkpt lat="41.863126968964934" lon="13.250351836904883">
        <ele>765.34997599999997</ele>
        <time>2017-06-15T04:59:37Z</time>
      </trkpt>
      <trkpt lat="41.863136775791645" lon="13.250395674258471">
        <ele>764.86999500000002</ele>
        <time>2017-06-15T04:59:50Z</time>
      </trkpt>
      <trkpt lat="41.863120263442397" lon="13.250408163294196">
        <ele>764.86999500000002</ele>
        <time>2017-06-15T04:59:58Z</time>
      </trkpt>
      <trkpt lat="41.863101236522198" lon="13.250620812177658">
        <ele>763.90002400000003</ele>
        <time>2017-06-15T05:00:12Z</time>
      </trkpt>
      <trkpt lat="41.863038707524538" lon="13.250689124688506">
        <ele>763.90002400000003</ele>
        <time>2017-06-15T05:00:20Z</time>
      </trkpt>
      <trkpt lat="41.862879535183311" lon="13.250817786902189">
        <ele>765.34997599999997</ele>
        <time>2017-06-15T05:00:35Z</time>
      </trkpt>
      <trkpt lat="41.862690271809697" lon="13.250974025577307">
        <ele>765.34997599999997</ele>
        <time>2017-06-15T05:00:52Z</time>
      </trkpt>
      <trkpt lat="41.862683985382318" lon="13.25099472887814">
        <ele>765.34997599999997</ele>
        <time>2017-06-15T05:00:54Z</time>
      </trkpt>
      <trkpt lat="41.862652385607362" lon="13.251030016690493">
        <ele>765.830017</ele>
        <time>2017-06-15T05:01:11Z</time>
      </trkpt>
      <trkpt lat="41.862647440284491" lon="13.251032363623381">
        <ele>765.830017</ele>
        <time>2017-06-15T05:01:12Z</time>
      </trkpt>
      <trkpt lat="41.86245390214026" lon="13.251125738024712">
        <ele>764.86999500000002</ele>
        <time>2017-06-15T05:01:28Z</time>
      </trkpt>
      <trkpt lat="41.862247120589018" lon="13.251070585101843">
        <ele>763.419983</ele>
        <time>2017-06-15T05:01:43Z</time>
      </trkpt>
      <trkpt lat="41.862164977937937" lon="13.251018533483148">
        <ele>761.97997999999995</ele>
        <time>2017-06-15T05:01:51Z</time>
      </trkpt>
      <trkpt lat="41.862051403149962" lon="13.250774536281824">
        <ele>760.05999799999995</ele>
        <time>2017-06-15T05:02:09Z</time>
      </trkpt>
      <trkpt lat="41.861949311569333" lon="13.250527521595359">
        <ele>758.61993399999994</ele>
        <time>2017-06-15T05:02:26Z</time>
      </trkpt>
      <trkpt lat="41.861872114241123" lon="13.250386035069823">
        <ele>757.660034</ele>
        <time>2017-06-15T05:02:40Z</time>
      </trkpt>
      <trkpt lat="41.861742781475186" lon="13.250204315409064">
        <ele>756.20996100000002</ele>
        <time>2017-06-15T05:02:56Z</time>
      </trkpt>
      <trkpt lat="41.861657286062837" lon="13.249959982931614">
        <ele>756.69006300000001</ele>
        <time>2017-06-15T05:03:13Z</time>
      </trkpt>
      <trkpt lat="41.861597606912255" lon="13.249707771465182">
        <ele>757.660034</ele>
        <time>2017-06-15T05:03:30Z</time>
      </trkpt>
      <trkpt lat="41.861544800922275" lon="13.249473581090569">
        <ele>759.10003700000004</ele>
        <time>2017-06-15T05:03:43Z</time>
      </trkpt>
      <trkpt lat="41.861539017409086" lon="13.249389762058854">
        <ele>760.05999799999995</ele>
        <time>2017-06-15T05:03:50Z</time>
      </trkpt>
      <trkpt lat="41.861486127600074" lon="13.249190524220467">
        <ele>761.5</ele>
        <time>2017-06-15T05:04:06Z</time>
      </trkpt>
      <trkpt lat="41.861420497298241" lon="13.248906461521983">
        <ele>762.94000200000005</ele>
        <time>2017-06-15T05:04:23Z</time>
      </trkpt>
      <trkpt lat="41.861362410709262" lon="13.248738404363394">
        <ele>761.5</ele>
        <time>2017-06-15T05:04:37Z</time>
      </trkpt>
      <trkpt lat="41.861357381567359" lon="13.248742176219821">
        <ele>761.5</ele>
        <time>2017-06-15T05:04:38Z</time>
      </trkpt>
      <trkpt lat="41.861373139545321" lon="13.248738320544362">
        <ele>761.5</ele>
        <time>2017-06-15T05:04:54Z</time>
      </trkpt>
      <trkpt lat="41.861383784562349" lon="13.248891122639179">
        <ele>758.61993399999994</ele>
        <time>2017-06-15T05:05:07Z</time>
      </trkpt>
      <trkpt lat="41.861453941091895" lon="13.2491300906986">
        <ele>755.73004200000003</ele>
        <time>2017-06-15T05:05:21Z</time>
      </trkpt>
      <trkpt lat="41.861460898071527" lon="13.249202258884907">
        <ele>754.77002000000005</ele>
        <time>2017-06-15T05:05:27Z</time>
      </trkpt>
      <trkpt lat="41.861418318003416" lon="13.249361179769039">
        <ele>751.40997300000004</ele>
        <time>2017-06-15T05:05:40Z</time>
      </trkpt>
      <trkpt lat="41.861389316618443" lon="13.249490763992071">
        <ele>749</ele>
        <time>2017-06-15T05:05:53Z</time>
      </trkpt>
      <trkpt lat="41.861381689086556" lon="13.249687571078539">
        <ele>746.60003700000004</ele>
        <time>2017-06-15T05:06:07Z</time>
      </trkpt>
      <trkpt lat="41.861431058496237" lon="13.249966604635119">
        <ele>745.64001499999995</ele>
        <time>2017-06-15T05:06:24Z</time>
      </trkpt>
      <trkpt lat="41.861429633572698" lon="13.250163998454809">
        <ele>742.27996800000005</ele>
        <time>2017-06-15T05:06:38Z</time>
      </trkpt>
      <trkpt lat="41.861435081809759" lon="13.250199537724257">
        <ele>741.79003899999998</ele>
        <time>2017-06-15T05:06:56Z</time>
      </trkpt>
      <trkpt lat="41.861449666321278" lon="13.250344377011061">
        <ele>741.30999799999995</ele>
        <time>2017-06-15T05:07:16Z</time>
      </trkpt>
      <trkpt lat="41.861473135650158" lon="13.250479577109218">
        <ele>740.830017</ele>
        <time>2017-06-15T05:07:37Z</time>
      </trkpt>
      <trkpt lat="41.86147908680141" lon="13.250677390024066">
        <ele>740.34997599999997</ele>
        <time>2017-06-15T05:07:51Z</time>
      </trkpt>
      <trkpt lat="41.861487133428454" lon="13.250890541821718">
        <ele>738.42999299999997</ele>
        <time>2017-06-15T05:08:09Z</time>
      </trkpt>
      <trkpt lat="41.861515464261174" lon="13.251119619235396">
        <ele>735.54998799999998</ele>
        <time>2017-06-15T05:08:24Z</time>
      </trkpt>
      <trkpt lat="41.861546309664845" lon="13.251380128785968">
        <ele>733.14001499999995</ele>
        <time>2017-06-15T05:08:41Z</time>
      </trkpt>
      <trkpt lat="41.861544800922275" lon="13.251500409096479">
        <ele>731.70001200000002</ele>
        <time>2017-06-15T05:08:49Z</time>
      </trkpt>
      <trkpt lat="41.861537341028452" lon="13.251659078523517">
        <ele>727.86004600000001</ele>
        <time>2017-06-15T05:09:04Z</time>
      </trkpt>
      <trkpt lat="41.861510435119271" lon="13.25177650898695">
        <ele>726.40997300000004</ele>
        <time>2017-06-15T05:09:20Z</time>
      </trkpt>
      <trkpt lat="41.861499706283212" lon="13.251826381310821">
        <ele>724.01000999999997</ele>
        <time>2017-06-15T05:09:32Z</time>
      </trkpt>
      <trkpt lat="41.861501298844814" lon="13.251838786527514">
        <ele>723.04998799999998</ele>
        <time>2017-06-15T05:09:34Z</time>
      </trkpt>
      <trkpt lat="41.861427789554" lon="13.251910535618663">
        <ele>722.09002699999996</ele>
        <time>2017-06-15T05:09:46Z</time>
      </trkpt>
      <trkpt lat="41.861438686028123" lon="13.251989660784602">
        <ele>720.64996299999996</ele>
        <time>2017-06-15T05:10:02Z</time>
      </trkpt>
      <trkpt lat="41.861435836181045" lon="13.252080772072077">
        <ele>717.76000999999997</ele>
        <time>2017-06-15T05:10:13Z</time>
      </trkpt>
      <trkpt lat="41.86139409430325" lon="13.252210272476077">
        <ele>713.92004399999996</ele>
        <time>2017-06-15T05:10:30Z</time>
      </trkpt>
      <trkpt lat="41.861349586397409" lon="13.252338012680411">
        <ele>711.03002900000001</ele>
        <time>2017-06-15T05:10:46Z</time>
      </trkpt>
      <trkpt lat="41.861324775964022" lon="13.252431806176901">
        <ele>709.59002699999996</ele>
        <time>2017-06-15T05:10:57Z</time>
      </trkpt>
      <trkpt lat="41.861322596669197" lon="13.252506488934159">
        <ele>708.14996299999996</ele>
        <time>2017-06-15T05:11:15Z</time>
      </trkpt>
      <trkpt lat="41.861284207552671" lon="13.252578489482403">
        <ele>705.26000999999997</ele>
        <time>2017-06-15T05:11:25Z</time>
      </trkpt>
      <trkpt lat="41.861243722960353" lon="13.252649819478393">
        <ele>701.90002400000003</ele>
        <time>2017-06-15T05:11:37Z</time>
      </trkpt>
      <trkpt lat="41.861188486218452" lon="13.252724837511778">
        <ele>699.02002000000005</ele>
        <time>2017-06-15T05:11:50Z</time>
      </trkpt>
      <trkpt lat="41.861208518967032" lon="13.252810165286064">
        <ele>695.64996299999996</ele>
        <time>2017-06-15T05:12:03Z</time>
      </trkpt>
      <trkpt lat="41.86121815815568" lon="13.252891721203923">
        <ele>693.72997999999995</ele>
        <time>2017-06-15T05:12:09Z</time>
      </trkpt>
      <trkpt lat="41.861218409612775" lon="13.252968164160848">
        <ele>692.77002000000005</ele>
        <time>2017-06-15T05:12:13Z</time>
      </trkpt>
      <trkpt lat="41.861165519803762" lon="13.253127504140139">
        <ele>690.839966</ele>
        <time>2017-06-15T05:12:21Z</time>
      </trkpt>
      <trkpt lat="41.861149678006768" lon="13.253241581842303">
        <ele>688.92004399999996</ele>
        <time>2017-06-15T05:12:29Z</time>
      </trkpt>
      <trkpt lat="41.861164765432477" lon="13.253314839676023">
        <ele>687.47997999999995</ele>
        <time>2017-06-15T05:12:44Z</time>
      </trkpt>
      <trkpt lat="41.861168621107936" lon="13.253335040062666">
        <ele>687.47997999999995</ele>
        <time>2017-06-15T05:12:46Z</time>
      </trkpt>
      <trkpt lat="41.861174069344997" lon="13.253368064761162">
        <ele>687</ele>
        <time>2017-06-15T05:12:48Z</time>
      </trkpt>
      <trkpt lat="41.861189408227801" lon="13.253435036167502">
        <ele>686.52002000000005</ele>
        <time>2017-06-15T05:12:52Z</time>
      </trkpt>
      <trkpt lat="41.861234838142991" lon="13.253669058904052">
        <ele>684.59997599999997</ele>
        <time>2017-06-15T05:13:05Z</time>
      </trkpt>
      <trkpt lat="41.861288901418447" lon="13.25386444106698">
        <ele>681.70996100000002</ele>
        <time>2017-06-15T05:13:19Z</time>
      </trkpt>
      <trkpt lat="41.861301893368363" lon="13.253891263157129">
        <ele>681.70996100000002</ele>
        <time>2017-06-15T05:13:21Z</time>
      </trkpt>
      <trkpt lat="41.861312789842486" lon="13.254037275910378">
        <ele>681.22997999999995</ele>
        <time>2017-06-15T05:13:31Z</time>
      </trkpt>
      <trkpt lat="41.861313879489899" lon="13.254111623391509">
        <ele>680.74993900000004</ele>
        <time>2017-06-15T05:13:36Z</time>
      </trkpt>
      <trkpt lat="41.861341036856174" lon="13.254179935902357">
        <ele>678.830017</ele>
        <time>2017-06-15T05:13:43Z</time>
      </trkpt>
      <trkpt lat="41.861277082934976" lon="13.25426853261888">
        <ele>676.42004399999996</ele>
        <time>2017-06-15T05:13:54Z</time>
      </trkpt>
      <trkpt lat="41.861194521188736" lon="13.254357799887657">
        <ele>674.02002000000005</ele>
        <time>2017-06-15T05:14:05Z</time>
      </trkpt>
      <trkpt lat="41.861137608066201" lon="13.25437699444592">
        <ele>673.05999799999995</ele>
        <time>2017-06-15T05:14:11Z</time>
      </trkpt>
      <trkpt lat="41.861031409353018" lon="13.254386465996504">
        <ele>669.70001200000002</ele>
        <time>2017-06-15T05:14:24Z</time>
      </trkpt>
      <trkpt lat="41.860920013859868" lon="13.254408594220877">
        <ele>667.29003899999998</ele>
        <time>2017-06-15T05:14:38Z</time>
      </trkpt>
      <trkpt lat="41.860790681093931" lon="13.254485540091991">
        <ele>665.36999500000002</ele>
        <time>2017-06-15T05:14:49Z</time>
      </trkpt>
      <trkpt lat="41.860613822937012" lon="13.254618728533387">
        <ele>662.96997099999999</ele>
        <time>2017-06-15T05:15:03Z</time>
      </trkpt>
      <trkpt lat="41.86060787178576" lon="13.254625517874956">
        <ele>662.96997099999999</ele>
        <time>2017-06-15T05:15:04Z</time>
      </trkpt>
      <trkpt lat="41.860555484890938" lon="13.254682095721364">
        <ele>662.48999000000003</ele>
        <time>2017-06-15T05:15:08Z</time>
      </trkpt>
      <trkpt lat="41.860515335574746" lon="13.254805393517017">
        <ele>660.55999799999995</ele>
        <time>2017-06-15T05:15:22Z</time>
      </trkpt>
      <trkpt lat="41.860503014177084" lon="13.25484068132937">
        <ele>660.55999799999995</ele>
        <time>2017-06-15T05:15:26Z</time>
      </trkpt>
      <trkpt lat="41.860526399686933" lon="13.254970936104655">
        <ele>660.55999799999995</ele>
        <time>2017-06-15T05:15:33Z</time>
      </trkpt>
      <trkpt lat="41.860627569258213" lon="13.255238570272923">
        <ele>661.52002000000005</ele>
        <time>2017-06-15T05:15:50Z</time>
      </trkpt>
      <trkpt lat="41.860644165426493" lon="13.255281401798129">
        <ele>661.52002000000005</ele>
        <time>2017-06-15T05:15:54Z</time>
      </trkpt>
      <trkpt lat="41.860646260902286" lon="13.255333704873919">
        <ele>661.52002000000005</ele>
        <time>2017-06-15T05:15:58Z</time>
      </trkpt>
      <trkpt lat="41.860640812665224" lon="13.25545297935605">
        <ele>662.00994900000001</ele>
        <time>2017-06-15T05:16:06Z</time>
      </trkpt>
      <trkpt lat="41.860477365553379" lon="13.255449626594782">
        <ele>660.07995600000004</ele>
        <time>2017-06-15T05:16:22Z</time>
      </trkpt>
      <trkpt lat="41.860498236492276" lon="13.255441160872579">
        <ele>660.07995600000004</ele>
        <time>2017-06-15T05:16:34Z</time>
      </trkpt>
      <trkpt lat="41.860493458807468" lon="13.255464294925332">
        <ele>660.07995600000004</ele>
        <time>2017-06-15T05:16:48Z</time>
      </trkpt>
      <trkpt lat="41.860423637554049" lon="13.255595220252872">
        <ele>658.160034</ele>
        <time>2017-06-15T05:16:58Z</time>
      </trkpt>
      <trkpt lat="41.860239822417498" lon="13.255714662373066">
        <ele>657.20001200000002</ele>
        <time>2017-06-15T05:17:13Z</time>
      </trkpt>
      <trkpt lat="41.860123397782445" lon="13.255838714540005">
        <ele>656.72003199999995</ele>
        <time>2017-06-15T05:17:30Z</time>
      </trkpt>
      <trkpt lat="41.860088696703315" lon="13.25582773424685">
        <ele>657.20001200000002</ele>
        <time>2017-06-15T05:18:07Z</time>
      </trkpt>
      <trkpt lat="41.860077381134033" lon="13.255885737016797">
        <ele>658.160034</ele>
        <time>2017-06-15T05:18:31Z</time>
      </trkpt>
      <trkpt lat="41.860047038644552" lon="13.255894873291254">
        <ele>658.160034</ele>
        <time>2017-06-15T05:18:45Z</time>
      </trkpt>
      <trkpt lat="41.859979564324021" lon="13.255914822220802">
        <ele>659.12005599999998</ele>
        <time>2017-06-15T05:19:15Z</time>
      </trkpt>
      <trkpt lat="41.859884513542056" lon="13.256045412272215">
        <ele>662.00994900000001</ele>
        <time>2017-06-15T05:19:30Z</time>
      </trkpt>
      <trkpt lat="41.859870431944728" lon="13.25618832372129">
        <ele>664.89001499999995</ele>
        <time>2017-06-15T05:19:44Z</time>
      </trkpt>
      <trkpt lat="41.859875125810504" lon="13.256200226023793">
        <ele>664.89001499999995</ele>
        <time>2017-06-15T05:19:45Z</time>
      </trkpt>
      <trkpt lat="41.859884094446898" lon="13.256246913224459">
        <ele>665.85003700000004</ele>
        <time>2017-06-15T05:19:49Z</time>
      </trkpt>
      <trkpt lat="41.859917873516679" lon="13.256371719762683">
        <ele>667.77002000000005</ele>
        <time>2017-06-15T05:20:02Z</time>
      </trkpt>
      <trkpt lat="41.859935894608498" lon="13.256427459418774">
        <ele>668.72997999999995</ele>
        <time>2017-06-15T05:20:08Z</time>
      </trkpt>
      <trkpt lat="41.859885267913342" lon="13.256491329520941">
        <ele>670.17999299999997</ele>
        <time>2017-06-15T05:20:16Z</time>
      </trkpt>
      <trkpt lat="41.859853165224195" lon="13.256501136347651">
        <ele>670.660034</ele>
        <time>2017-06-15T05:20:19Z</time>
      </trkpt>
      <trkpt lat="41.859823409467936" lon="13.256585961207747">
        <ele>672.57995600000004</ele>
        <time>2017-06-15T05:20:32Z</time>
      </trkpt>
      <trkpt lat="41.859745290130377" lon="13.256710432469845">
        <ele>674.97997999999995</ele>
        <time>2017-06-15T05:20:51Z</time>
      </trkpt>
      <trkpt lat="41.859680665656924" lon="13.256815373897552">
        <ele>676.90997300000004</ele>
        <time>2017-06-15T05:21:07Z</time>
      </trkpt>
      <trkpt lat="41.859591398388147" lon="13.256905479356647">
        <ele>679.30999799999995</ele>
        <time>2017-06-15T05:21:23Z</time>
      </trkpt>
      <trkpt lat="41.859529204666615" lon="13.256967086344957">
        <ele>681.70996100000002</ele>
        <time>2017-06-15T05:21:35Z</time>
      </trkpt>
      <trkpt lat="41.859445385634899" lon="13.257050737738609">
        <ele>683.63000499999998</ele>
        <time>2017-06-15T05:21:53Z</time>
      </trkpt>
      <trkpt lat="41.859416216611862" lon="13.257093233987689">
        <ele>686.03997800000002</ele>
        <time>2017-06-15T05:21:59Z</time>
      </trkpt>
      <trkpt lat="41.859330218285322" lon="13.25719297863543">
        <ele>687.47997999999995</ele>
        <time>2017-06-15T05:22:14Z</time>
      </trkpt>
      <trkpt lat="41.859300462529063" lon="13.257259530946612">
        <ele>688.92004399999996</ele>
        <time>2017-06-15T05:22:29Z</time>
      </trkpt>
      <trkpt lat="41.859234999865294" lon="13.257324323058128">
        <ele>691.80999799999995</ele>
        <time>2017-06-15T05:22:43Z</time>
      </trkpt>
      <trkpt lat="41.859163418412209" lon="13.257410991936922">
        <ele>692.77002000000005</ele>
        <time>2017-06-15T05:22:57Z</time>
      </trkpt>
      <trkpt lat="41.859071804210544" lon="13.257502187043428">
        <ele>694.20996100000002</ele>
        <time>2017-06-15T05:23:12Z</time>
      </trkpt>
      <trkpt lat="41.859027883037925" lon="13.257540324702859">
        <ele>697.09002699999996</ele>
        <time>2017-06-15T05:23:22Z</time>
      </trkpt>
      <trkpt lat="41.858931574970484" lon="13.257598076015711">
        <ele>699.02002000000005</ele>
        <time>2017-06-15T05:23:37Z</time>
      </trkpt>
      <trkpt lat="41.858874829486012" lon="13.257634118199348">
        <ele>701.42004399999996</ele>
        <time>2017-06-15T05:23:46Z</time>
      </trkpt>
      <trkpt lat="41.858788663521409" lon="13.257693964987993">
        <ele>702.86004600000001</ele>
        <time>2017-06-15T05:24:00Z</time>
      </trkpt>
      <trkpt lat="41.858705682680011" lon="13.257727660238743">
        <ele>704.29998799999998</ele>
        <time>2017-06-15T05:24:12Z</time>
      </trkpt>
      <trkpt lat="41.858652541413903" lon="13.257767725735903">
        <ele>706.70996100000002</ele>
        <time>2017-06-15T05:24:25Z</time>
      </trkpt>
      <trkpt lat="41.85862110927701" lon="13.257802426815033">
        <ele>707.669983</ele>
        <time>2017-06-15T05:24:40Z</time>
      </trkpt>
      <trkpt lat="41.858526896685362" lon="13.257858501747251">
        <ele>710.07000700000003</ele>
        <time>2017-06-15T05:24:53Z</time>
      </trkpt>
      <trkpt lat="41.858470737934113" lon="13.257948104292154">
        <ele>712.46997099999999</ele>
        <time>2017-06-15T05:25:07Z</time>
      </trkpt>
      <trkpt lat="41.858401922509074" lon="13.258040472865105">
        <ele>714.87994400000002</ele>
        <time>2017-06-15T05:25:22Z</time>
      </trkpt>
      <trkpt lat="41.858333861455321" lon="13.258119011297822">
        <ele>717.27996800000005</ele>
        <time>2017-06-15T05:25:37Z</time>
      </trkpt>
      <trkpt lat="41.858271416276693" lon="13.258204339072108">
        <ele>719.67999299999997</ele>
        <time>2017-06-15T05:25:53Z</time>
      </trkpt>
      <trkpt lat="41.85814761556685" lon="13.258247673511505">
        <ele>721.60998500000005</ele>
        <time>2017-06-15T05:26:09Z</time>
      </trkpt>
      <trkpt lat="41.858048373833299" lon="13.258317662402987">
        <ele>724.49005099999999</ele>
        <time>2017-06-15T05:26:27Z</time>
      </trkpt>
      <trkpt lat="41.857988862320781" lon="13.258396536111832">
        <ele>726.89001499999995</ele>
        <time>2017-06-15T05:26:42Z</time>
      </trkpt>
      <trkpt lat="41.857903534546494" lon="13.258451772853732">
        <ele>728.82000700000003</ele>
        <time>2017-06-15T05:26:58Z</time>
      </trkpt>
      <trkpt lat="41.857792558148503" lon="13.258477840572596">
        <ele>731.70001200000002</ele>
        <time>2017-06-15T05:27:15Z</time>
      </trkpt>
      <trkpt lat="41.857713013887405" lon="13.258516397327185">
        <ele>733.61999500000002</ele>
        <time>2017-06-15T05:27:31Z</time>
      </trkpt>
      <trkpt lat="41.857645539566875" lon="13.258485635742545">
        <ele>735.54998799999998</ele>
        <time>2017-06-15T05:27:43Z</time>
      </trkpt>
      <trkpt lat="41.85761746019125" lon="13.258529473096132">
        <ele>737.94995100000006</ele>
        <time>2017-06-15T05:27:56Z</time>
      </trkpt>
      <trkpt lat="41.857524840161204" lon="13.258550763130188">
        <ele>739.39001499999995</ele>
        <time>2017-06-15T05:28:10Z</time>
      </trkpt>
      <trkpt lat="41.857465663924813" lon="13.258576579391956">
        <ele>742.27996800000005</ele>
        <time>2017-06-15T05:28:24Z</time>
      </trkpt>
      <trkpt lat="41.857404224574566" lon="13.258597534149885">
        <ele>743.23999000000003</ele>
        <time>2017-06-15T05:28:40Z</time>
      </trkpt>
      <trkpt lat="41.857400368899107" lon="13.25858797878027">
        <ele>744.20001200000002</ele>
        <time>2017-06-15T05:28:59Z</time>
      </trkpt>
      <trkpt lat="41.857393160462379" lon="13.25859971344471">
        <ele>744.20001200000002</ele>
        <time>2017-06-15T05:29:01Z</time>
      </trkpt>
      <trkpt lat="41.8573765642941" lon="13.2586226798594">
        <ele>744.20001200000002</ele>
        <time>2017-06-15T05:29:03Z</time>
      </trkpt>
      <trkpt lat="41.857339264824986" lon="13.258700463920832">
        <ele>744.20001200000002</ele>
        <time>2017-06-15T05:29:12Z</time>
      </trkpt>
      <trkpt lat="41.8573506642133" lon="13.258732482790947">
        <ele>744.67999299999997</ele>
        <time>2017-06-15T05:29:17Z</time>
      </trkpt>
      <trkpt lat="41.857360135763884" lon="13.258752264082432">
        <ele>745.160034</ele>
        <time>2017-06-15T05:29:19Z</time>
      </trkpt>
      <trkpt lat="41.857391400262713" lon="13.258785959333181">
        <ele>746.60003700000004</ele>
        <time>2017-06-15T05:29:25Z</time>
      </trkpt>
      <trkpt lat="41.857444122433662" lon="13.25878294184804">
        <ele>747.07995600000004</ele>
        <time>2017-06-15T05:29:31Z</time>
      </trkpt>
      <trkpt lat="41.857474381104112" lon="13.258783360943198">
        <ele>747.07995600000004</ele>
        <time>2017-06-15T05:29:34Z</time>
      </trkpt>
      <trkpt lat="41.857544537633657" lon="13.258864162489772">
        <ele>749.49005099999999</ele>
        <time>2017-06-15T05:29:45Z</time>
      </trkpt>
      <trkpt lat="41.857591141015291" lon="13.258926440030336">
        <ele>750.44995100000006</ele>
        <time>2017-06-15T05:30:02Z</time>
      </trkpt>
      <trkpt lat="41.857650736346841" lon="13.259014030918479">
        <ele>750.44995100000006</ele>
        <time>2017-06-15T05:30:16Z</time>
      </trkpt>
      <trkpt lat="41.857654759660363" lon="13.259022999554873">
        <ele>750.44995100000006</ele>
        <time>2017-06-15T05:30:17Z</time>
      </trkpt>
      <trkpt lat="41.857679737731814" lon="13.259072117507458">
        <ele>751.89001499999995</ele>
        <time>2017-06-15T05:30:23Z</time>
      </trkpt>
      <trkpt lat="41.857799431309104" lon="13.259021574631333">
        <ele>753.330017</ele>
        <time>2017-06-15T05:30:38Z</time>
      </trkpt>
      <trkpt lat="41.857813932001591" lon="13.259026017040014">
        <ele>753.330017</ele>
        <time>2017-06-15T05:30:51Z</time>
      </trkpt>
      <trkpt lat="41.857890877872705" lon="13.259136658161879">
        <ele>755.25</ele>
        <time>2017-06-15T05:31:04Z</time>
      </trkpt>
      <trkpt lat="41.857943683862686" lon="13.259199941530824">
        <ele>756.69006300000001</ele>
        <time>2017-06-15T05:31:14Z</time>
      </trkpt>
      <trkpt lat="41.857976792380214" lon="13.259227182716131">
        <ele>758.14001499999995</ele>
        <time>2017-06-15T05:31:26Z</time>
      </trkpt>
      <trkpt lat="41.857987940311432" lon="13.259269008412957">
        <ele>759.10003700000004</ele>
        <time>2017-06-15T05:31:43Z</time>
      </trkpt>
      <trkpt lat="41.857970086857677" lon="13.259264817461371">
        <ele>759.10003700000004</ele>
        <time>2017-06-15T05:32:01Z</time>
      </trkpt>
      <trkpt lat="41.857967404648662" lon="13.259254675358534">
        <ele>759.10003700000004</ele>
        <time>2017-06-15T05:32:07Z</time>
      </trkpt>
      <trkpt lat="41.858012834563851" lon="13.259268337860703">
        <ele>760.05999799999995</ele>
        <time>2017-06-15T05:32:11Z</time>
      </trkpt>
      <trkpt lat="41.858110399916768" lon="13.259385181590915">
        <ele>761.5</ele>
        <time>2017-06-15T05:32:23Z</time>
      </trkpt>
      <trkpt lat="41.858166558668017" lon="13.259414518252015">
        <ele>761.97997999999995</ele>
        <time>2017-06-15T05:32:28Z</time>
      </trkpt>
      <trkpt lat="41.858251634985209" lon="13.259468330070376">
        <ele>763.90002400000003</ele>
        <time>2017-06-15T05:32:36Z</time>
      </trkpt>
      <trkpt lat="41.858281306922436" lon="13.259533876553178">
        <ele>765.34997599999997</ele>
        <time>2017-06-15T05:32:43Z</time>
      </trkpt>
      <trkpt lat="41.85835481621325" lon="13.259665723890066">
        <ele>767.27002000000005</ele>
        <time>2017-06-15T05:32:58Z</time>
      </trkpt>
      <trkpt lat="41.858375100418925" lon="13.25981198810041">
        <ele>768.70996100000002</ele>
        <time>2017-06-15T05:33:12Z</time>
      </trkpt>
      <trkpt lat="41.858388762921095" lon="13.259962275624275">
        <ele>771.10998500000005</ele>
        <time>2017-06-15T05:33:28Z</time>
      </trkpt>
      <trkpt lat="41.858391109853983" lon="13.259972585365176">
        <ele>771.10998500000005</ele>
        <time>2017-06-15T05:33:29Z</time>
      </trkpt>
      <trkpt lat="41.85841147787869" lon="13.26018582098186">
        <ele>774</ele>
        <time>2017-06-15T05:33:48Z</time>
      </trkpt>
      <trkpt lat="41.858453890308738" lon="13.260413473471999">
        <ele>776.40002400000003</ele>
        <time>2017-06-15T05:34:05Z</time>
      </trkpt>
      <trkpt lat="41.858504097908735" lon="13.260598294436932">
        <ele>779.29003899999998</ele>
        <time>2017-06-15T05:34:22Z</time>
      </trkpt>
      <trkpt lat="41.858587581664324" lon="13.260794598609209">
        <ele>781.20996100000002</ele>
        <time>2017-06-15T05:34:40Z</time>
      </trkpt>
      <trkpt lat="41.858651284128428" lon="13.2609539385885">
        <ele>782.169983</ele>
        <time>2017-06-15T05:34:55Z</time>
      </trkpt>
      <trkpt lat="41.858655223622918" lon="13.260984783992171">
        <ele>783.13000499999998</ele>
        <time>2017-06-15T05:34:59Z</time>
      </trkpt>
      <trkpt lat="41.858660839498043" lon="13.261019736528397">
        <ele>783.60998500000005</ele>
        <time>2017-06-15T05:35:01Z</time>
      </trkpt>
      <trkpt lat="41.858688415959477" lon="13.261306984350085">
        <ele>785.53002900000001</ele>
        <time>2017-06-15T05:35:19Z</time>
      </trkpt>
      <trkpt lat="41.858713226392865" lon="13.261516280472279">
        <ele>787.94000200000005</ele>
        <time>2017-06-15T05:35:37Z</time>
      </trkpt>
      <trkpt lat="41.858721440657973" lon="13.261652234941721">
        <ele>789.86004600000001</ele>
        <time>2017-06-15T05:35:52Z</time>
      </trkpt>
      <trkpt lat="41.858698725700378" lon="13.261814508587122">
        <ele>792.26000999999997</ele>
        <time>2017-06-15T05:36:07Z</time>
      </trkpt>
      <trkpt lat="41.858716327697039" lon="13.262105779722333">
        <ele>795.14996299999996</ele>
        <time>2017-06-15T05:36:28Z</time>
      </trkpt>
      <trkpt lat="41.858730660751462" lon="13.262308370321989">
        <ele>798.51000999999997</ele>
        <time>2017-06-15T05:36:49Z</time>
      </trkpt>
      <trkpt lat="41.858660839498043" lon="13.262799633666873">
        <ele>801.40002400000003</ele>
        <time>2017-06-15T05:37:13Z</time>
      </trkpt>
      <trkpt lat="41.858707694336772" lon="13.263045307248831">
        <ele>804.27996800000005</ele>
        <time>2017-06-15T05:37:34Z</time>
      </trkpt>
      <trkpt lat="41.858695540577173" lon="13.263135915622115">
        <ele>804.76000999999997</ele>
        <time>2017-06-15T05:37:40Z</time>
      </trkpt>
      <trkpt lat="41.858695624396205" lon="13.263346301391721">
        <ele>806.20001200000002</ele>
        <time>2017-06-15T05:37:55Z</time>
      </trkpt>
      <trkpt lat="41.858639298006892" lon="13.263532714918256">
        <ele>807.64001499999995</ele>
        <time>2017-06-15T05:38:10Z</time>
      </trkpt>
      <trkpt lat="41.858641225844622" lon="13.263761876150966">
        <ele>808.13000499999998</ele>
        <time>2017-06-15T05:38:26Z</time>
      </trkpt>
      <trkpt lat="41.858606608584523" lon="13.263829266652465">
        <ele>808.13000499999998</ele>
        <time>2017-06-15T05:38:35Z</time>
      </trkpt>
      <trkpt lat="41.858522035181522" lon="13.263960527256131">
        <ele>810.04998799999998</ele>
        <time>2017-06-15T05:38:49Z</time>
      </trkpt>
      <trkpt lat="41.858493536710739" lon="13.264094637706876">
        <ele>811.01000999999997</ele>
        <time>2017-06-15T05:38:59Z</time>
      </trkpt>
      <trkpt lat="41.858449196442962" lon="13.264262862503529">
        <ele>812.93005400000004</ele>
        <time>2017-06-15T05:39:12Z</time>
      </trkpt>
      <trkpt lat="41.858411058783531" lon="13.264405690133572">
        <ele>814.36999500000002</ele>
        <time>2017-06-15T05:39:26Z</time>
      </trkpt>
      <trkpt lat="41.858359174802899" lon="13.264573412016034">
        <ele>816.77996800000005</ele>
        <time>2017-06-15T05:39:43Z</time>
      </trkpt>
      <trkpt lat="41.858325898647308" lon="13.264755383133888">
        <ele>819.660034</ele>
        <time>2017-06-15T05:39:58Z</time>
      </trkpt>
      <trkpt lat="41.858350122347474" lon="13.264868874102831">
        <ele>822.54998799999998</ele>
        <time>2017-06-15T05:40:14Z</time>
      </trkpt>
      <trkpt lat="41.858344003558159" lon="13.26486979611218">
        <ele>824.47003199999995</ele>
        <time>2017-06-15T05:40:23Z</time>
      </trkpt>
      <trkpt lat="41.858321959152818" lon="13.264962835237384">
        <ele>826.38995399999999</ele>
        <time>2017-06-15T05:40:36Z</time>
      </trkpt>
      <trkpt lat="41.858322964981198" lon="13.265114380046725">
        <ele>829.27002000000005</ele>
        <time>2017-06-15T05:40:51Z</time>
      </trkpt>
      <trkpt lat="41.858334867283702" lon="13.265316970646381">
        <ele>831.67999299999997</ele>
        <time>2017-06-15T05:41:07Z</time>
      </trkpt>
      <trkpt lat="41.858383985236287" lon="13.265440436080098">
        <ele>833.11999500000002</ele>
        <time>2017-06-15T05:41:20Z</time>
      </trkpt>
      <trkpt lat="41.858458667993546" lon="13.265625759959221">
        <ele>835.51995799999997</ele>
        <time>2017-06-15T05:41:38Z</time>
      </trkpt>
      <trkpt lat="41.85848917812109" lon="13.265765318647027">
        <ele>837.93005400000004</ele>
        <time>2017-06-15T05:41:52Z</time>
      </trkpt>
      <trkpt lat="41.85848138295114" lon="13.265904793515801">
        <ele>840.330017</ele>
        <time>2017-06-15T05:42:07Z</time>
      </trkpt>
      <trkpt lat="41.858514072373509" lon="13.266038484871387">
        <ele>842.73004200000003</ele>
        <time>2017-06-15T05:42:23Z</time>
      </trkpt>
      <trkpt lat="41.858483729884028" lon="13.266181061044335">
        <ele>844.660034</ele>
        <time>2017-06-15T05:42:38Z</time>
      </trkpt>
      <trkpt lat="41.858473839238286" lon="13.266331600025296">
        <ele>846.580017</ele>
        <time>2017-06-15T05:42:52Z</time>
      </trkpt>
      <trkpt lat="41.858443412929773" lon="13.266497226431966">
        <ele>848.01995799999997</ele>
        <time>2017-06-15T05:43:06Z</time>
      </trkpt>
      <trkpt lat="41.858444837853312" lon="13.266542237251997">
        <ele>848.01995799999997</ele>
        <time>2017-06-15T05:43:09Z</time>
      </trkpt>
      <trkpt lat="41.858430923894048" lon="13.266674838960171">
        <ele>848.97997999999995</ele>
        <time>2017-06-15T05:43:25Z</time>
      </trkpt>
      <trkpt lat="41.858389768749475" lon="13.26673099771142">
        <ele>849.94000200000005</ele>
        <time>2017-06-15T05:43:41Z</time>
      </trkpt>
      <trkpt lat="41.858358839526772" lon="13.26675052754581">
        <ele>850.419983</ele>
        <time>2017-06-15T05:43:44Z</time>
      </trkpt>
      <trkpt lat="41.858290862292051" lon="13.266838621348143">
        <ele>852.34997599999997</ele>
        <time>2017-06-15T05:43:58Z</time>
      </trkpt>
      <trkpt lat="41.85830938629806" lon="13.266925541684031">
        <ele>852.830017</ele>
        <time>2017-06-15T05:44:15Z</time>
      </trkpt>
      <trkpt lat="41.858291532844305" lon="13.26711799018085">
        <ele>853.30999799999995</ele>
        <time>2017-06-15T05:44:37Z</time>
      </trkpt>
      <trkpt lat="41.85828641988337" lon="13.267181776463985">
        <ele>853.78997800000002</ele>
        <time>2017-06-15T05:45:05Z</time>
      </trkpt>
      <trkpt lat="41.858244426548481" lon="13.267257297411561">
        <ele>855.23004200000003</ele>
        <time>2017-06-15T05:45:23Z</time>
      </trkpt>
      <trkpt lat="41.858269739896059" lon="13.267384199425578">
        <ele>857.63000499999998</ele>
        <time>2017-06-15T05:45:37Z</time>
      </trkpt>
      <trkpt lat="41.858284575864673" lon="13.267531804740429">
        <ele>859.080017</ele>
        <time>2017-06-15T05:45:53Z</time>
      </trkpt>
      <trkpt lat="41.858293376863003" lon="13.267513699829578">
        <ele>859.56005900000002</ele>
        <time>2017-06-15T05:46:05Z</time>
      </trkpt>
      <trkpt lat="41.858304860070348" lon="13.267557034268975">
        <ele>858.10998500000005</ele>
        <time>2017-06-15T05:46:09Z</time>
      </trkpt>
      <trkpt lat="41.85835087671876" lon="13.267652001231909">
        <ele>854.75</ele>
        <time>2017-06-15T05:46:22Z</time>
      </trkpt>
      <trkpt lat="41.858422961086035" lon="13.267770018428564">
        <ele>854.27002000000005</ele>
        <time>2017-06-15T05:46:34Z</time>
      </trkpt>
      <trkpt lat="41.858522286638618" lon="13.267863560467958">
        <ele>856.18994099999998</ele>
        <time>2017-06-15T05:46:48Z</time>
      </trkpt>
      <trkpt lat="41.85856050811708" lon="13.267913432791829">
        <ele>856.67004399999996</ele>
        <time>2017-06-15T05:46:54Z</time>
      </trkpt>
      <trkpt lat="41.858606776222587" lon="13.267924413084984">
        <ele>857.14996299999996</ele>
        <time>2017-06-15T05:46:58Z</time>
      </trkpt>
      <trkpt lat="41.858728816732764" lon="13.267998760566115">
        <ele>858.589966</ele>
        <time>2017-06-15T05:47:11Z</time>
      </trkpt>
      <trkpt lat="41.858837865293026" lon="13.268115688115358">
        <ele>861</ele>
        <time>2017-06-15T05:47:26Z</time>
      </trkpt>
      <trkpt lat="41.858872985467315" lon="13.268150975927711">
        <ele>861.95996100000002</ele>
        <time>2017-06-15T05:47:30Z</time>
      </trkpt>
      <trkpt lat="41.858940878883004" lon="13.268293468281627">
        <ele>863.88000499999998</ele>
        <time>2017-06-15T05:47:43Z</time>
      </trkpt>
      <trkpt lat="41.85901690274477" lon="13.26840310357511">
        <ele>866.28997800000002</ele>
        <time>2017-06-15T05:47:57Z</time>
      </trkpt>
      <trkpt lat="41.859058560803533" lon="13.268524473533034">
        <ele>868.21002199999998</ele>
        <time>2017-06-15T05:48:11Z</time>
      </trkpt>
      <trkpt lat="41.859108097851276" lon="13.268646262586117">
        <ele>870.60998500000005</ele>
        <time>2017-06-15T05:48:33Z</time>
      </trkpt>
      <trkpt lat="41.859072307124734" lon="13.268703259527683">
        <ele>872.04998799999998</ele>
        <time>2017-06-15T05:48:51Z</time>
      </trkpt>
      <trkpt lat="41.859048083424568" lon="13.268860587850213">
        <ele>874.94000200000005</ele>
        <time>2017-06-15T05:49:05Z</time>
      </trkpt>
      <trkpt lat="41.859015561640263" lon="13.26896108686924">
        <ele>876.85998500000005</ele>
        <time>2017-06-15T05:49:19Z</time>
      </trkpt>
      <trkpt lat="41.85899930074811" lon="13.269055467098951">
        <ele>878.30004899999994</ele>
        <time>2017-06-15T05:49:28Z</time>
      </trkpt>
      <trkpt lat="41.858967114239931" lon="13.269230900332332">
        <ele>880.21997099999999</ele>
        <time>2017-06-15T05:49:40Z</time>
      </trkpt>
      <trkpt lat="41.858923695981503" lon="13.269347408786416">
        <ele>882.63000499999998</ele>
        <time>2017-06-15T05:49:54Z</time>
      </trkpt>
      <trkpt lat="41.858887486159801" lon="13.269473137333989">
        <ele>884.07000700000003</ele>
        <time>2017-06-15T05:50:08Z</time>
      </trkpt>
      <trkpt lat="41.85881607234478" lon="13.269584281370044">
        <ele>885.98999000000003</ele>
        <time>2017-06-15T05:50:21Z</time>
      </trkpt>
      <trkpt lat="41.858731079846621" lon="13.269748231396079">
        <ele>887.910034</ele>
        <time>2017-06-15T05:50:37Z</time>
      </trkpt>
      <trkpt lat="41.858662180602551" lon="13.269867924973369">
        <ele>890.80004899999994</ele>
        <time>2017-06-15T05:50:54Z</time>
      </trkpt>
      <trkpt lat="41.858596801757813" lon="13.269985858350992">
        <ele>891.27996800000005</ele>
        <time>2017-06-15T05:51:09Z</time>
      </trkpt>
      <trkpt lat="41.858536535874009" lon="13.270166488364339">
        <ele>893.20001200000002</ele>
        <time>2017-06-15T05:51:23Z</time>
      </trkpt>
      <trkpt lat="41.858512228354812" lon="13.270383914932609">
        <ele>894.64001499999995</ele>
        <time>2017-06-15T05:51:38Z</time>
      </trkpt>
      <trkpt lat="41.858499990776181" lon="13.27054132707417">
        <ele>897.04998799999998</ele>
        <time>2017-06-15T05:51:54Z</time>
      </trkpt>
      <trkpt lat="41.858511473983526" lon="13.270597737282515">
        <ele>897.53002900000001</ele>
        <time>2017-06-15T05:52:04Z</time>
      </trkpt>
      <trkpt lat="41.858552880585194" lon="13.270760262385011">
        <ele>899.45001200000002</ele>
        <time>2017-06-15T05:52:18Z</time>
      </trkpt>
      <trkpt lat="41.858590263873339" lon="13.270872160792351">
        <ele>900.410034</ele>
        <time>2017-06-15T05:52:29Z</time>
      </trkpt>
      <trkpt lat="41.858628401532769" lon="13.270929409191012">
        <ele>901.36999500000002</ele>
        <time>2017-06-15T05:52:35Z</time>
      </trkpt>
      <trkpt lat="41.858647260814905" lon="13.271084306761622">
        <ele>903.77996800000005</ele>
        <time>2017-06-15T05:52:49Z</time>
      </trkpt>
      <trkpt lat="41.858660168945789" lon="13.271240461617708">
        <ele>906.17999299999997</ele>
        <time>2017-06-15T05:53:04Z</time>
      </trkpt>
      <trkpt lat="41.858671987429261" lon="13.271366022527218">
        <ele>907.61999500000002</ele>
        <time>2017-06-15T05:53:21Z</time>
      </trkpt>
      <trkpt lat="41.858668383210897" lon="13.271426958963275">
        <ele>908.10003700000004</ele>
        <time>2017-06-15T05:53:32Z</time>
      </trkpt>
      <trkpt lat="41.858542738482356" lon="13.271409692242742">
        <ele>909.54003899999998</ele>
        <time>2017-06-15T05:53:53Z</time>
      </trkpt>
      <trkpt lat="41.858523460105062" lon="13.271647235378623">
        <ele>911.95001200000002</ele>
        <time>2017-06-15T05:54:14Z</time>
      </trkpt>
      <trkpt lat="41.858434025198221" lon="13.271818561479449">
        <ele>914.82995600000004</ele>
        <time>2017-06-15T05:54:30Z</time>
      </trkpt>
      <trkpt lat="41.858362359926105" lon="13.271976560354233">
        <ele>917.23999000000003</ele>
        <time>2017-06-15T05:54:44Z</time>
      </trkpt>
      <trkpt lat="41.858265968039632" lon="13.272116286680102">
        <ele>920.60003700000004</ele>
        <time>2017-06-15T05:55:03Z</time>
      </trkpt>
      <trkpt lat="41.858203522861004" lon="13.272279063239694">
        <ele>923.00006099999996</ele>
        <time>2017-06-15T05:55:19Z</time>
      </trkpt>
      <trkpt lat="41.858140574768186" lon="13.272349219769239">
        <ele>924.93005400000004</ele>
        <time>2017-06-15T05:55:32Z</time>
      </trkpt>
      <trkpt lat="41.858040327206254" lon="13.272471176460385">
        <ele>927.32995600000004</ele>
        <time>2017-06-15T05:55:48Z</time>
      </trkpt>
      <trkpt lat="41.857932535931468" lon="13.272562120109797">
        <ele>929.72997999999995</ele>
        <time>2017-06-15T05:56:05Z</time>
      </trkpt>
      <trkpt lat="41.857843184843659" lon="13.27266639098525">
        <ele>931.65002400000003</ele>
        <time>2017-06-15T05:56:20Z</time>
      </trkpt>
      <trkpt lat="41.857790630310774" lon="13.272721711546183">
        <ele>932.14001499999995</ele>
        <time>2017-06-15T05:56:44Z</time>
      </trkpt>
      <trkpt lat="41.857703877612948" lon="13.272863030433655">
        <ele>934.05999799999995</ele>
        <time>2017-06-15T05:56:58Z</time>
      </trkpt>
      <trkpt lat="41.857659118250012" lon="13.27294441871345">
        <ele>935.01995799999997</ele>
        <time>2017-06-15T05:57:16Z</time>
      </trkpt>
      <trkpt lat="41.857582340016961" lon="13.273055730387568">
        <ele>935.01995799999997</ele>
        <time>2017-06-15T05:57:36Z</time>
      </trkpt>
      <trkpt lat="41.857580579817295" lon="13.273117505013943">
        <ele>935.01995799999997</ele>
        <time>2017-06-15T05:58:02Z</time>
      </trkpt>
      <trkpt lat="41.857553506270051" lon="13.273134771734476">
        <ele>935.01995799999997</ele>
        <time>2017-06-15T05:58:23Z</time>
      </trkpt>
      <trkpt lat="41.8574801646173" lon="13.273183889687061">
        <ele>935.97997999999995</ele>
        <time>2017-06-15T05:58:35Z</time>
      </trkpt>
      <trkpt lat="41.857380671426654" lon="13.273300901055336">
        <ele>938.38000499999998</ele>
        <time>2017-06-15T05:58:50Z</time>
      </trkpt>
      <trkpt lat="41.857275227084756" lon="13.27334457077086">
        <ele>940.30999799999995</ele>
        <time>2017-06-15T05:59:04Z</time>
      </trkpt>
      <trkpt lat="41.85719920322299" lon="13.273427719250321">
        <ele>943.67004399999996</ele>
        <time>2017-06-15T05:59:18Z</time>
      </trkpt>
      <trkpt lat="41.85712737031281" lon="13.273547161370516">
        <ele>946.07000700000003</ele>
        <time>2017-06-15T05:59:33Z</time>
      </trkpt>
      <trkpt lat="41.857103481888771" lon="13.273716391995549">
        <ele>948.47997999999995</ele>
        <time>2017-06-15T05:59:51Z</time>
      </trkpt>
      <trkpt lat="41.857107169926167" lon="13.273878917098045">
        <ele>951.35998500000005</ele>
        <time>2017-06-15T06:00:07Z</time>
      </trkpt>
      <trkpt lat="41.857181936502457" lon="13.274017302319407">
        <ele>952.79998799999998</ele>
        <time>2017-06-15T06:00:23Z</time>
      </trkpt>
      <trkpt lat="41.85718696564436" lon="13.274231208488345">
        <ele>953.77002000000005</ele>
        <time>2017-06-15T06:00:39Z</time>
      </trkpt>
      <trkpt lat="41.857155198231339" lon="13.274360373616219">
        <ele>955.21002199999998</ele>
        <time>2017-06-15T06:00:53Z</time>
      </trkpt>
      <trkpt lat="41.857123179361224" lon="13.274507140740752">
        <ele>956.65002400000003</ele>
        <time>2017-06-15T06:01:07Z</time>
      </trkpt>
      <trkpt lat="41.85714254155755" lon="13.274545194581151">
        <ele>957.12994400000002</ele>
        <time>2017-06-15T06:01:23Z</time>
      </trkpt>
      <trkpt lat="41.857149917632341" lon="13.274609902873635">
        <ele>957.12994400000002</ele>
        <time>2017-06-15T06:01:43Z</time>
      </trkpt>
      <trkpt lat="41.857167268171906" lon="13.274647872895002">
        <ele>957.12994400000002</ele>
        <time>2017-06-15T06:02:02Z</time>
      </trkpt>
      <trkpt lat="41.857171962037683" lon="13.274647872895002">
        <ele>957.60998500000005</ele>
        <time>2017-06-15T06:02:33Z</time>
      </trkpt>
      <trkpt lat="41.857171040028334" lon="13.274656422436237">
        <ele>957.60998500000005</ele>
        <time>2017-06-15T06:02:45Z</time>
      </trkpt>
      <trkpt lat="41.857250584289432" lon="13.274643179029226">
        <ele>957.60998500000005</ele>
        <time>2017-06-15T06:03:04Z</time>
      </trkpt>
      <trkpt lat="41.857255110517144" lon="13.274644939228892">
        <ele>957.60998500000005</ele>
        <time>2017-06-15T06:03:10Z</time>
      </trkpt>
      <trkpt lat="41.857261564582586" lon="13.274738900363445">
        <ele>958.089966</ele>
        <time>2017-06-15T06:03:17Z</time>
      </trkpt>
      <trkpt lat="41.857265839353204" lon="13.274822635576129">
        <ele>959.04998799999998</ele>
        <time>2017-06-15T06:03:29Z</time>
      </trkpt>
      <trkpt lat="41.857262486591935" lon="13.27486664056778">
        <ele>959.52996800000005</ele>
        <time>2017-06-15T06:04:04Z</time>
      </trkpt>
      <trkpt lat="41.85728226788342" lon="13.274914668872952">
        <ele>960.01000999999997</ele>
        <time>2017-06-15T06:04:24Z</time>
      </trkpt>
      <trkpt lat="41.857288219034672" lon="13.275031596422195">
        <ele>962.419983</ele>
        <time>2017-06-15T06:04:36Z</time>
      </trkpt>
      <trkpt lat="41.857302635908127" lon="13.275074260309339">
        <ele>962.419983</ele>
        <time>2017-06-15T06:04:42Z</time>
      </trkpt>
      <trkpt lat="41.857320237904787" lon="13.275100914761424">
        <ele>962.90002400000003</ele>
        <time>2017-06-15T06:04:44Z</time>
      </trkpt>
      <trkpt lat="41.857352759689093" lon="13.275204263627529">
        <ele>964.82000700000003</ele>
        <time>2017-06-15T06:04:57Z</time>
      </trkpt>
      <trkpt lat="41.857377821579576" lon="13.275355640798807">
        <ele>967.69995100000006</ele>
        <time>2017-06-15T06:05:12Z</time>
      </trkpt>
      <trkpt lat="41.857387879863381" lon="13.275427641347051">
        <ele>968.17999299999997</ele>
        <time>2017-06-15T06:05:17Z</time>
      </trkpt>
      <trkpt lat="41.857401793822646" lon="13.275603661313653">
        <ele>969.62994400000002</ele>
        <time>2017-06-15T06:05:32Z</time>
      </trkpt>
      <trkpt lat="41.857434064149857" lon="13.275733077898622">
        <ele>971.07000700000003</ele>
        <time>2017-06-15T06:05:46Z</time>
      </trkpt>
      <trkpt lat="41.857400368899107" lon="13.275803988799453">
        <ele>972.02996800000005</ele>
        <time>2017-06-15T06:06:00Z</time>
      </trkpt>
      <trkpt lat="41.857387041673064" lon="13.276000460609794">
        <ele>974.42999299999997</ele>
        <time>2017-06-15T06:06:14Z</time>
      </trkpt>
      <trkpt lat="41.857344880700111" lon="13.276159465312958">
        <ele>976.35998500000005</ele>
        <time>2017-06-15T06:06:25Z</time>
      </trkpt>
      <trkpt lat="41.857248321175575" lon="13.276335401460528">
        <ele>978.75994900000001</ele>
        <time>2017-06-15T06:06:40Z</time>
      </trkpt>
      <trkpt lat="41.857218313962221" lon="13.276438666507602">
        <ele>980.67999299999997</ele>
        <time>2017-06-15T06:06:52Z</time>
      </trkpt>
      <trkpt lat="41.857129465788603" lon="13.276565065607429">
        <ele>983.089966</ele>
        <time>2017-06-15T06:07:05Z</time>
      </trkpt>
      <trkpt lat="41.857022093608975" lon="13.276668414473534">
        <ele>985.48999000000003</ele>
        <time>2017-06-15T06:07:18Z</time>
      </trkpt>
      <trkpt lat="41.856958139687777" lon="13.276754161342978">
        <ele>986.45001200000002</ele>
        <time>2017-06-15T06:07:28Z</time>
      </trkpt>
      <trkpt lat="41.85686057433486" lon="13.276840159669518">
        <ele>988.84997599999997</ele>
        <time>2017-06-15T06:07:41Z</time>
      </trkpt>
      <trkpt lat="41.8567946087569" lon="13.276888858526945">
        <ele>991.25994900000001</ele>
        <time>2017-06-15T06:07:56Z</time>
      </trkpt>
      <trkpt lat="41.856737025082111" lon="13.276965636759996">
        <ele>992.69995100000006</ele>
        <time>2017-06-15T06:08:08Z</time>
      </trkpt>
      <trkpt lat="41.856658738106489" lon="13.277025315910578">
        <ele>994.14001499999995</ele>
        <time>2017-06-15T06:08:20Z</time>
      </trkpt>
      <trkpt lat="41.856609536334872" lon="13.277118522673845">
        <ele>996.54003899999998</ele>
        <time>2017-06-15T06:08:32Z</time>
      </trkpt>
      <trkpt lat="41.856551198288798" lon="13.277224972844124">
        <ele>997.98999000000003</ele>
        <time>2017-06-15T06:08:45Z</time>
      </trkpt>
      <trkpt lat="41.856492273509502" lon="13.277357658371329">
        <ele>998.95001200000002</ele>
        <time>2017-06-15T06:08:56Z</time>
      </trkpt>
      <trkpt lat="41.856487831100821" lon="13.277409207075834">
        <ele>999.42999299999997</ele>
        <time>2017-06-15T06:09:10Z</time>
      </trkpt>
      <trkpt lat="41.856423290446401" lon="13.277498139068484">
        <ele>999.42999299999997</ele>
        <time>2017-06-15T06:09:43Z</time>
      </trkpt>
      <trkpt lat="41.856417004019022" lon="13.277607271447778">
        <ele>1000.3900149999999</ele>
        <time>2017-06-15T06:09:58Z</time>
      </trkpt>
      <trkpt lat="41.856355899944901" lon="13.277776502072811">
        <ele>1002.309998</ele>
        <time>2017-06-15T06:10:12Z</time>
      </trkpt>
      <trkpt lat="41.856337962672114" lon="13.277819082140923">
        <ele>1002.789978</ele>
        <time>2017-06-15T06:10:15Z</time>
      </trkpt>
      <trkpt lat="41.856290018185973" lon="13.277931567281485">
        <ele>1004.719971</ele>
        <time>2017-06-15T06:10:27Z</time>
      </trkpt>
      <trkpt lat="41.856242325156927" lon="13.278035586699843">
        <ele>1006.159973</ele>
        <time>2017-06-15T06:10:39Z</time>
      </trkpt>
      <trkpt lat="41.856216676533222" lon="13.278063414618373">
        <ele>1006.159973</ele>
        <time>2017-06-15T06:10:41Z</time>
      </trkpt>
      <trkpt lat="41.856110310181975" lon="13.278141869232059">
        <ele>1007.599976</ele>
        <time>2017-06-15T06:10:54Z</time>
      </trkpt>
      <trkpt lat="41.856042332947254" lon="13.278189897537231">
        <ele>1009.52002</ele>
        <time>2017-06-15T06:11:04Z</time>
      </trkpt>
      <trkpt lat="41.856019198894501" lon="13.278190735727549">
        <ele>1009.52002</ele>
        <time>2017-06-15T06:11:06Z</time>
      </trkpt>
      <trkpt lat="41.855895984917879" lon="13.278281763195992">
        <ele>1011.440002</ele>
        <time>2017-06-15T06:11:20Z</time>
      </trkpt>
      <trkpt lat="41.855790540575981" lon="13.278330210596323">
        <ele>1013.370056</ele>
        <time>2017-06-15T06:11:35Z</time>
      </trkpt>
      <trkpt lat="41.855751061812043" lon="13.278427273035049">
        <ele>1015.289978</ele>
        <time>2017-06-15T06:11:47Z</time>
      </trkpt>
      <trkpt lat="41.855745697394013" lon="13.278546212241054">
        <ele>1017.690002</ele>
        <time>2017-06-15T06:12:01Z</time>
      </trkpt>
      <trkpt lat="41.855746367946267" lon="13.278724160045385">
        <ele>1020.099976</ele>
        <time>2017-06-15T06:12:17Z</time>
      </trkpt>
      <trkpt lat="41.855719210579991" lon="13.27889640815556">
        <ele>1022.499939</ele>
        <time>2017-06-15T06:12:30Z</time>
      </trkpt>
      <trkpt lat="41.855622064322233" lon="13.2791050337255">
        <ele>1024.900024</ele>
        <time>2017-06-15T06:12:42Z</time>
      </trkpt>
      <trkpt lat="41.855609910562634" lon="13.279311060905457">
        <ele>1026.3400879999999</ele>
        <time>2017-06-15T06:12:57Z</time>
      </trkpt>
      <trkpt lat="41.855574538931251" lon="13.279424216598272">
        <ele>1027.790039</ele>
        <time>2017-06-15T06:13:07Z</time>
      </trkpt>
      <trkpt lat="41.855480158701539" lon="13.279545167461038">
        <ele>1029.2299800000001</ele>
        <time>2017-06-15T06:13:22Z</time>
      </trkpt>
      <trkpt lat="41.855461299419403" lon="13.279576264321804">
        <ele>1029.2299800000001</ele>
        <time>2017-06-15T06:13:26Z</time>
      </trkpt>
      <trkpt lat="41.855314364656806" lon="13.279693275690079">
        <ele>1031.150024</ele>
        <time>2017-06-15T06:13:42Z</time>
      </trkpt>
      <trkpt lat="41.855254014953971" lon="13.279759995639324">
        <ele>1032.1099850000001</ele>
        <time>2017-06-15T06:14:01Z</time>
      </trkpt>
      <trkpt lat="41.855162316933274" lon="13.279882036149502">
        <ele>1034.040039</ele>
        <time>2017-06-15T06:14:16Z</time>
      </trkpt>
      <trkpt lat="41.855133399367332" lon="13.279953617602587">
        <ele>1035.959961</ele>
        <time>2017-06-15T06:14:27Z</time>
      </trkpt>
      <trkpt lat="41.855075396597385" lon="13.280071718618274">
        <ele>1037.880005</ele>
        <time>2017-06-15T06:14:40Z</time>
      </trkpt>
      <trkpt lat="41.855039186775684" lon="13.280222676694393">
        <ele>1039.799927</ele>
        <time>2017-06-15T06:14:54Z</time>
      </trkpt>
      <trkpt lat="41.855000965297222" lon="13.280353266745806">
        <ele>1042.209961</ele>
        <time>2017-06-15T06:15:07Z</time>
      </trkpt>
      <trkpt lat="41.854913961142302" lon="13.280506990849972">
        <ele>1044.130005</ele>
        <time>2017-06-15T06:15:22Z</time>
      </trkpt>
      <trkpt lat="41.854773228988051" lon="13.280700277537107">
        <ele>1046.530029</ele>
        <time>2017-06-15T06:15:37Z</time>
      </trkpt>
      <trkpt lat="41.85471061617136" lon="13.280846793204546">
        <ele>1047.969971</ele>
        <time>2017-06-15T06:15:50Z</time>
      </trkpt>
      <trkpt lat="41.854648422449827" lon="13.280965983867645">
        <ele>1050.8599850000001</ele>
        <time>2017-06-15T06:16:05Z</time>
      </trkpt>
      <trkpt lat="41.854540882632136" lon="13.281050138175488">
        <ele>1051.8199460000001</ele>
        <time>2017-06-15T06:16:21Z</time>
      </trkpt>
      <trkpt lat="41.854507522657514" lon="13.281149799004197">
        <ele>1053.26001</ele>
        <time>2017-06-15T06:16:33Z</time>
      </trkpt>
      <trkpt lat="41.854463685303926" lon="13.281262284144759">
        <ele>1055.1800539999999</ele>
        <time>2017-06-15T06:16:46Z</time>
      </trkpt>
      <trkpt lat="41.854403838515282" lon="13.281394634395838">
        <ele>1056.150024</ele>
        <time>2017-06-15T06:16:59Z</time>
      </trkpt>
      <trkpt lat="41.854338040575385" lon="13.281561015173793">
        <ele>1058.0699460000001</ele>
        <time>2017-06-15T06:17:15Z</time>
      </trkpt>
      <trkpt lat="41.854272913187742" lon="13.281752122566104">
        <ele>1059.51001</ele>
        <time>2017-06-15T06:17:30Z</time>
      </trkpt>
      <trkpt lat="41.854224801063538" lon="13.281980026513338">
        <ele>1061.429932</ele>
        <time>2017-06-15T06:17:46Z</time>
      </trkpt>
      <trkpt lat="41.854200158268213" lon="13.282137690111995">
        <ele>1064.3199460000001</ele>
        <time>2017-06-15T06:18:01Z</time>
      </trkpt>
      <trkpt lat="41.854156907647848" lon="13.282274063676596">
        <ele>1066.719971</ele>
        <time>2017-06-15T06:18:14Z</time>
      </trkpt>
      <trkpt lat="41.854161769151688" lon="13.282432230189443">
        <ele>1069.599976</ele>
        <time>2017-06-15T06:18:31Z</time>
      </trkpt>
      <trkpt lat="41.854102592915297" lon="13.282592408359051">
        <ele>1072.48999</ele>
        <time>2017-06-15T06:18:46Z</time>
      </trkpt>
      <trkpt lat="41.854093875735998" lon="13.282773038372397">
        <ele>1074.8900149999999</ele>
        <time>2017-06-15T06:19:01Z</time>
      </trkpt>
      <trkpt lat="41.854075184091926" lon="13.282929612323642">
        <ele>1078.26001</ele>
        <time>2017-06-15T06:19:18Z</time>
      </trkpt>
      <trkpt lat="41.85408616438508" lon="13.283051066100597">
        <ele>1080.1800539999999</ele>
        <time>2017-06-15T06:19:32Z</time>
      </trkpt>
      <trkpt lat="41.854063365608454" lon="13.283198336139321">
        <ele>1083.059937</ele>
        <time>2017-06-15T06:19:48Z</time>
      </trkpt>
      <trkpt lat="41.854028580710292" lon="13.283339822664857">
        <ele>1084.98999</ele>
        <time>2017-06-15T06:20:04Z</time>
      </trkpt>
      <trkpt lat="41.854021875187755" lon="13.283459935337305">
        <ele>1086.429932</ele>
        <time>2017-06-15T06:20:17Z</time>
      </trkpt>
      <trkpt lat="41.85401625931263" lon="13.283612234517932">
        <ele>1089.790039</ele>
        <time>2017-06-15T06:20:32Z</time>
      </trkpt>
      <trkpt lat="41.853984659537673" lon="13.283749194815755">
        <ele>1091.2299800000001</ele>
        <time>2017-06-15T06:20:44Z</time>
      </trkpt>
      <trkpt lat="41.853975607082248" lon="13.283898895606399">
        <ele>1093.6400149999999</ele>
        <time>2017-06-15T06:20:58Z</time>
      </trkpt>
      <trkpt lat="41.853941241279244" lon="13.28400450758636">
        <ele>1095.559937</ele>
        <time>2017-06-15T06:21:10Z</time>
      </trkpt>
      <trkpt lat="41.853939983993769" lon="13.28401230275631">
        <ele>1096.0399170000001</ele>
        <time>2017-06-15T06:21:11Z</time>
      </trkpt>
      <trkpt lat="41.853918358683586" lon="13.284161919727921">
        <ele>1097.959961</ele>
        <time>2017-06-15T06:21:24Z</time>
      </trkpt>
      <trkpt lat="41.853862702846527" lon="13.284354703500867">
        <ele>1100.369995</ele>
        <time>2017-06-15T06:21:41Z</time>
      </trkpt>
      <trkpt lat="41.853873934596777" lon="13.284487640485168">
        <ele>1101.8100589999999</ele>
        <time>2017-06-15T06:21:53Z</time>
      </trkpt>
      <trkpt lat="41.853832863271236" lon="13.284652596339583">
        <ele>1103.7299800000001</ele>
        <time>2017-06-15T06:22:08Z</time>
      </trkpt>
      <trkpt lat="41.853778129443526" lon="13.284813528880477">
        <ele>1106.130005</ele>
        <time>2017-06-15T06:22:23Z</time>
      </trkpt>
      <trkpt lat="41.853738483041525" lon="13.284948477521539">
        <ele>1109.0200199999999</ele>
        <time>2017-06-15T06:22:38Z</time>
      </trkpt>
      <trkpt lat="41.853586519137025" lon="13.28502575866878">
        <ele>1109.9799800000001</ele>
        <time>2017-06-15T06:22:57Z</time>
      </trkpt>
      <trkpt lat="41.853495575487614" lon="13.28511661849916">
        <ele>1111.420044</ele>
        <time>2017-06-15T06:23:18Z</time>
      </trkpt>
      <trkpt lat="41.853425167500973" lon="13.285235473886132">
        <ele>1113.339966</ele>
        <time>2017-06-15T06:23:37Z</time>
      </trkpt>
      <trkpt lat="41.853369092568755" lon="13.285353323444724">
        <ele>1116.2299800000001</ele>
        <time>2017-06-15T06:23:50Z</time>
      </trkpt>
      <trkpt lat="41.853355681523681" lon="13.285511406138539">
        <ele>1117.669922</ele>
        <time>2017-06-15T06:24:04Z</time>
      </trkpt>
      <trkpt lat="41.853330368176103" lon="13.285659933462739">
        <ele>1119.589966</ele>
        <time>2017-06-15T06:24:17Z</time>
      </trkpt>
      <trkpt lat="41.85328921303153" lon="13.285920526832342">
        <ele>1121.5200199999999</ele>
        <time>2017-06-15T06:24:38Z</time>
      </trkpt>
      <trkpt lat="41.853235820308328" lon="13.286140635609627">
        <ele>1124.400024</ele>
        <time>2017-06-15T06:24:56Z</time>
      </trkpt>
      <trkpt lat="41.853181421756744" lon="13.28630693256855">
        <ele>1127.280029</ele>
        <time>2017-06-15T06:25:13Z</time>
      </trkpt>
      <trkpt lat="41.853153929114342" lon="13.286459986120462">
        <ele>1130.169922</ele>
        <time>2017-06-15T06:25:28Z</time>
      </trkpt>
      <trkpt lat="41.853154683485627" lon="13.286677161231637">
        <ele>1132.5699460000001</ele>
        <time>2017-06-15T06:25:47Z</time>
      </trkpt>
      <trkpt lat="41.853136327117682" lon="13.286886960268021">
        <ele>1133.530029</ele>
        <time>2017-06-15T06:26:04Z</time>
      </trkpt>
      <trkpt lat="41.853103470057249" lon="13.287082174792886">
        <ele>1136.420044</ele>
        <time>2017-06-15T06:26:22Z</time>
      </trkpt>
      <trkpt lat="41.853007329627872" lon="13.287223326042295">
        <ele>1139.299927</ele>
        <time>2017-06-15T06:26:40Z</time>
      </trkpt>
      <trkpt lat="41.853001965209842" lon="13.287276467308402">
        <ele>1140.73999</ele>
        <time>2017-06-15T06:26:56Z</time>
      </trkpt>
      <trkpt lat="41.852977741509676" lon="13.287282586097717">
        <ele>1141.219971</ele>
        <time>2017-06-15T06:27:25Z</time>
      </trkpt>
      <trkpt lat="41.852955529466271" lon="13.287295326590538">
        <ele>1141.219971</ele>
        <time>2017-06-15T06:27:44Z</time>
      </trkpt>
      <trkpt lat="41.852954775094986" lon="13.287293734028935">
        <ele>1141.219971</ele>
        <time>2017-06-15T06:27:59Z</time>
      </trkpt>
      <trkpt lat="41.852989811450243" lon="13.287316868081689">
        <ele>1141.219971</ele>
        <time>2017-06-15T06:28:16Z</time>
      </trkpt>
      <trkpt lat="41.85299358330667" lon="13.287314185872674">
        <ele>1141.6999510000001</ele>
        <time>2017-06-15T06:28:29Z</time>
      </trkpt>
      <trkpt lat="41.852984363213181" lon="13.287328518927097">
        <ele>1141.6999510000001</ele>
        <time>2017-06-15T06:28:59Z</time>
      </trkpt>
      <trkpt lat="41.852995678782463" lon="13.287333212792873">
        <ele>1141.6999510000001</ele>
        <time>2017-06-15T06:29:25Z</time>
      </trkpt>
      <trkpt lat="41.853000540286303" lon="13.287296835333109">
        <ele>1142.1800539999999</ele>
        <time>2017-06-15T06:29:55Z</time>
      </trkpt>
      <trkpt lat="41.852956200018525" lon="13.287300691008568">
        <ele>1142.1800539999999</ele>
        <time>2017-06-15T06:30:15Z</time>
      </trkpt>
      <trkpt lat="41.8529022205621" lon="13.28734721057117">
        <ele>1142.660034</ele>
        <time>2017-06-15T06:30:25Z</time>
      </trkpt>
      <trkpt lat="41.852844804525375" lon="13.287508059293032">
        <ele>1143.630005</ele>
        <time>2017-06-15T06:30:37Z</time>
      </trkpt>
      <trkpt lat="41.852839859202504" lon="13.287543598562479">
        <ele>1143.630005</ele>
        <time>2017-06-15T06:30:40Z</time>
      </trkpt>
      <trkpt lat="41.85277171432972" lon="13.28772833570838">
        <ele>1145.0699460000001</ele>
        <time>2017-06-15T06:30:55Z</time>
      </trkpt>
      <trkpt lat="41.852769618853927" lon="13.287740321829915">
        <ele>1145.0699460000001</ele>
        <time>2017-06-15T06:30:56Z</time>
      </trkpt>
      <trkpt lat="41.852801134809852" lon="13.287817183881998">
        <ele>1146.51001</ele>
        <time>2017-06-15T06:31:04Z</time>
      </trkpt>
      <trkpt lat="41.852817060425878" lon="13.287882395088673">
        <ele>1148.4300539999999</ele>
        <time>2017-06-15T06:31:17Z</time>
      </trkpt>
      <trkpt lat="41.852753693237901" lon="13.288024971261621">
        <ele>1149.3900149999999</ele>
        <time>2017-06-15T06:31:32Z</time>
      </trkpt>
      <trkpt lat="41.852750591933727" lon="13.28803519718349">
        <ele>1149.3900149999999</ele>
        <time>2017-06-15T06:31:33Z</time>
      </trkpt>
      <trkpt lat="41.852756626904011" lon="13.288096971809864">
        <ele>1150.349976</ele>
        <time>2017-06-15T06:31:47Z</time>
      </trkpt>
      <trkpt lat="41.852792836725712" lon="13.288123039528728">
        <ele>1151.320068</ele>
        <time>2017-06-15T06:32:08Z</time>
      </trkpt>
      <trkpt lat="41.852873135358095" lon="13.288155561313033">
        <ele>1153.23999</ele>
        <time>2017-06-15T06:32:19Z</time>
      </trkpt>
      <trkpt lat="41.852949662134051" lon="13.288167463615537">
        <ele>1154.1999510000001</ele>
        <time>2017-06-15T06:32:28Z</time>
      </trkpt>
      <trkpt lat="41.853017387911677" lon="13.288240386173129">
        <ele>1156.599976</ele>
        <time>2017-06-15T06:32:40Z</time>
      </trkpt>
      <trkpt lat="41.853087795898318" lon="13.288350692018867">
        <ele>1158.530029</ele>
        <time>2017-06-15T06:32:54Z</time>
      </trkpt>
      <trkpt lat="41.85309031046927" lon="13.288366282358766">
        <ele>1159.01001</ele>
        <time>2017-06-15T06:32:56Z</time>
      </trkpt>
      <trkpt lat="41.85312308371067" lon="13.28843979164958">
        <ele>1160.450073</ele>
        <time>2017-06-15T06:33:04Z</time>
      </trkpt>
      <trkpt lat="41.853145211935043" lon="13.288591671735048">
        <ele>1162.369995</ele>
        <time>2017-06-15T06:33:19Z</time>
      </trkpt>
      <trkpt lat="41.85317438095808" lon="13.288616565987468">
        <ele>1163.329956</ele>
        <time>2017-06-15T06:33:28Z</time>
      </trkpt>
      <trkpt lat="41.853187037631869" lon="13.288658894598484">
        <ele>1163.329956</ele>
        <time>2017-06-15T06:33:32Z</time>
      </trkpt>
      <trkpt lat="41.853209920227528" lon="13.288815803825855">
        <ele>1166.219971</ele>
        <time>2017-06-15T06:33:45Z</time>
      </trkpt>
      <trkpt lat="41.853258367627859" lon="13.288921667262912">
        <ele>1167.660034</ele>
        <time>2017-06-15T06:33:57Z</time>
      </trkpt>
      <trkpt lat="41.853266581892967" lon="13.289006240665913">
        <ele>1169.099976</ele>
        <time>2017-06-15T06:34:11Z</time>
      </trkpt>
      <trkpt lat="41.853265073150396" lon="13.289008922874928">
        <ele>1170.0600589999999</ele>
        <time>2017-06-15T06:34:32Z</time>
      </trkpt>
      <trkpt lat="41.853309413418174" lon="13.289036666974425">
        <ele>1171.0200199999999</ele>
        <time>2017-06-15T06:34:52Z</time>
      </trkpt>
      <trkpt lat="41.853314526379108" lon="13.289109673351049">
        <ele>1172.950073</ele>
        <time>2017-06-15T06:35:05Z</time>
      </trkpt>
      <trkpt lat="41.853329362347722" lon="13.289155187085271">
        <ele>1173.4300539999999</ele>
        <time>2017-06-15T06:35:26Z</time>
      </trkpt>
      <trkpt lat="41.853449307382107" lon="13.289206484332681">
        <ele>1176.309937</ele>
        <time>2017-06-15T06:35:43Z</time>
      </trkpt>
      <trkpt lat="41.853555170819163" lon="13.289231127128005">
        <ele>1179.190063</ele>
        <time>2017-06-15T06:35:58Z</time>
      </trkpt>
      <trkpt lat="41.853680061176419" lon="13.289288459345698">
        <ele>1180.6400149999999</ele>
        <time>2017-06-15T06:36:13Z</time>
      </trkpt>
      <trkpt lat="41.853779135271907" lon="13.289371775463223">
        <ele>1183.0399170000001</ele>
        <time>2017-06-15T06:36:27Z</time>
      </trkpt>
      <trkpt lat="41.85389899648726" lon="13.289468921720982">
        <ele>1185.4399410000001</ele>
        <time>2017-06-15T06:36:41Z</time>
      </trkpt>
      <trkpt lat="41.853986671194434" lon="13.289555422961712">
        <ele>1187.849976</ele>
        <time>2017-06-15T06:36:56Z</time>
      </trkpt>
      <trkpt lat="41.854026569053531" lon="13.289587441831827">
        <ele>1188.329956</ele>
        <time>2017-06-15T06:37:00Z</time>
      </trkpt>
      <trkpt lat="41.854095971211791" lon="13.289638068526983">
        <ele>1188.809937</ele>
        <time>2017-06-15T06:37:08Z</time>
      </trkpt>
      <trkpt lat="41.854117177426815" lon="13.289678636938334">
        <ele>1189.7700199999999</ele>
        <time>2017-06-15T06:37:12Z</time>
      </trkpt>
      <trkpt lat="41.854174425825477" lon="13.289749380201101">
        <ele>1191.209961</ele>
        <time>2017-06-15T06:37:21Z</time>
      </trkpt>
      <trkpt lat="41.854203594848514" lon="13.289786679670215">
        <ele>1192.170044</ele>
        <time>2017-06-15T06:37:26Z</time>
      </trkpt>
      <trkpt lat="41.854248102754354" lon="13.289858177304268">
        <ele>1193.130005</ele>
        <time>2017-06-15T06:37:35Z</time>
      </trkpt>
      <trkpt lat="41.85428112745285" lon="13.289880137890577">
        <ele>1194.089966</ele>
        <time>2017-06-15T06:37:39Z</time>
      </trkpt>
      <trkpt lat="41.854367796331644" lon="13.289967309683561">
        <ele>1196.0200199999999</ele>
        <time>2017-06-15T06:37:51Z</time>
      </trkpt>
      <trkpt lat="41.854377938434482" lon="13.289973931387067">
        <ele>1196.5</ele>
        <time>2017-06-15T06:37:53Z</time>
      </trkpt>
      <trkpt lat="41.8544149864465" lon="13.289992371574044">
        <ele>1196.9799800000001</ele>
        <time>2017-06-15T06:37:58Z</time>
      </trkpt>
      <trkpt lat="41.854494195431471" lon="13.290037214756012">
        <ele>1198.420044</ele>
        <time>2017-06-15T06:38:08Z</time>
      </trkpt>
      <trkpt lat="41.854530572891235" lon="13.290064204484224">
        <ele>1198.900024</ele>
        <time>2017-06-15T06:38:13Z</time>
      </trkpt>
      <trkpt lat="41.854567369446158" lon="13.290089517831802">
        <ele>1199.8599850000001</ele>
        <time>2017-06-15T06:38:18Z</time>
      </trkpt>
      <trkpt lat="41.854652529582381" lon="13.290193201974034">
        <ele>1201.790039</ele>
        <time>2017-06-15T06:38:31Z</time>
      </trkpt>
      <trkpt lat="41.854721512645483" lon="13.29020862467587">
        <ele>1202.75</ele>
        <time>2017-06-15T06:38:40Z</time>
      </trkpt>
      <trkpt lat="41.854785215109587" lon="13.290177192538977">
        <ele>1204.190063</ele>
        <time>2017-06-15T06:38:50Z</time>
      </trkpt>
      <trkpt lat="41.854818994179368" lon="13.290163278579712">
        <ele>1205.630005</ele>
        <time>2017-06-15T06:38:55Z</time>
      </trkpt>
      <trkpt lat="41.854874566197395" lon="13.290168140083551">
        <ele>1206.589966</ele>
        <time>2017-06-15T06:39:04Z</time>
      </trkpt>
      <trkpt lat="41.854960061609745" lon="13.290122374892235">
        <ele>1209</ele>
        <time>2017-06-15T06:39:18Z</time>
      </trkpt>
      <trkpt lat="41.854997193440795" lon="13.290129834786057">
        <ele>1209.959961</ele>
        <time>2017-06-15T06:39:24Z</time>
      </trkpt>
      <trkpt lat="41.855042790994048" lon="13.290145341306925">
        <ele>1210.920044</ele>
        <time>2017-06-15T06:39:29Z</time>
      </trkpt>
      <trkpt lat="41.855113115161657" lon="13.290172582492232">
        <ele>1211.880005</ele>
        <time>2017-06-15T06:39:37Z</time>
      </trkpt>
      <trkpt lat="41.855209758505225" lon="13.290191441774368">
        <ele>1213.320068</ele>
        <time>2017-06-15T06:39:46Z</time>
      </trkpt>
      <trkpt lat="41.855272371321917" lon="13.290216838940978">
        <ele>1214.76001</ele>
        <time>2017-06-15T06:39:54Z</time>
      </trkpt>
      <trkpt lat="41.855301959440112" lon="13.290271488949656">
        <ele>1214.76001</ele>
        <time>2017-06-15T06:40:00Z</time>
      </trkpt>
      <trkpt lat="41.855356609448791" lon="13.290327060967684">
        <ele>1215.23999</ele>
        <time>2017-06-15T06:40:09Z</time>
      </trkpt>
      <trkpt lat="41.855412935838103" lon="13.290397636592388">
        <ele>1216.209961</ele>
        <time>2017-06-15T06:40:19Z</time>
      </trkpt>
      <trkpt lat="41.855517961084843" lon="13.290436109527946">
        <ele>1216.209961</ele>
        <time>2017-06-15T06:40:30Z</time>
      </trkpt>
      <trkpt lat="41.855540340766311" lon="13.290468798950315">
        <ele>1216.209961</ele>
        <time>2017-06-15T06:40:34Z</time>
      </trkpt>
      <trkpt lat="41.855526929721236" lon="13.290628725662827">
        <ele>1218.6099850000001</ele>
        <time>2017-06-15T06:40:50Z</time>
      </trkpt>
      <trkpt lat="41.855523241683841" lon="13.290637861937284">
        <ele>1218.6099850000001</ele>
        <time>2017-06-15T06:40:51Z</time>
      </trkpt>
      <trkpt lat="41.855497509241104" lon="13.290773816406727">
        <ele>1221.48999</ele>
        <time>2017-06-15T06:41:06Z</time>
      </trkpt>
      <trkpt lat="41.855500191450119" lon="13.290798626840115">
        <ele>1221.48999</ele>
        <time>2017-06-15T06:41:09Z</time>
      </trkpt>
      <trkpt lat="41.855519888922572" lon="13.290924523025751">
        <ele>1224.380005</ele>
        <time>2017-06-15T06:41:22Z</time>
      </trkpt>
      <trkpt lat="41.855536065995693" lon="13.291090736165643">
        <ele>1225.820068</ele>
        <time>2017-06-15T06:41:37Z</time>
      </trkpt>
      <trkpt lat="41.85553003102541" lon="13.291109260171652">
        <ele>1226.7799070000001</ele>
        <time>2017-06-15T06:41:40Z</time>
      </trkpt>
      <trkpt lat="41.855458030477166" lon="13.291178662329912">
        <ele>1228.6999510000001</ele>
        <time>2017-06-15T06:41:52Z</time>
      </trkpt>
      <trkpt lat="41.85542793944478" lon="13.29120053909719">
        <ele>1229.179932</ele>
        <time>2017-06-15T06:41:57Z</time>
      </trkpt>
      <trkpt lat="41.85540497303009" lon="13.291228618472815">
        <ele>1229.660034</ele>
        <time>2017-06-15T06:42:01Z</time>
      </trkpt>
      <trkpt lat="41.855351161211729" lon="13.291235575452447">
        <ele>1230.1400149999999</ele>
        <time>2017-06-15T06:42:08Z</time>
      </trkpt>
      <trkpt lat="41.855336241424084" lon="13.291286788880825">
        <ele>1231.1099850000001</ele>
        <time>2017-06-15T06:42:19Z</time>
      </trkpt>
      <trkpt lat="41.855314364656806" lon="13.291297098621726">
        <ele>1231.589966</ele>
        <time>2017-06-15T06:42:40Z</time>
      </trkpt>
      <trkpt lat="41.855329284444451" lon="13.291318221017718">
        <ele>1231.589966</ele>
        <time>2017-06-15T06:42:59Z</time>
      </trkpt>
      <trkpt lat="41.855323165655136" lon="13.291330793872476">
        <ele>1231.589966</ele>
        <time>2017-06-15T06:43:21Z</time>
      </trkpt>
      <trkpt lat="41.855299361050129" lon="13.291424168273807">
        <ele>1233.030029</ele>
        <time>2017-06-15T06:43:34Z</time>
      </trkpt>
      <trkpt lat="41.855288464576006" lon="13.291438920423388">
        <ele>1233.030029</ele>
        <time>2017-06-15T06:43:53Z</time>
      </trkpt>
      <trkpt lat="41.85526323504746" lon="13.291435902938247">
        <ele>1233.030029</ele>
        <time>2017-06-15T06:44:22Z</time>
      </trkpt>
      <trkpt lat="41.855273628607392" lon="13.291433388367295">
        <ele>1233.98999</ele>
        <time>2017-06-15T06:44:37Z</time>
      </trkpt>
      <trkpt lat="41.855272622779012" lon="13.291452415287495">
        <ele>1233.98999</ele>
        <time>2017-06-15T06:45:02Z</time>
      </trkpt>
      <trkpt lat="41.855255858972669" lon="13.291459036991">
        <ele>1234.469971</ele>
        <time>2017-06-15T06:45:26Z</time>
      </trkpt>
      <trkpt lat="41.855260971933603" lon="13.291462976485491">
        <ele>1234.469971</ele>
        <time>2017-06-15T06:45:48Z</time>
      </trkpt>
      <trkpt lat="41.855257200077176" lon="13.291474459692836">
        <ele>1234.469971</ele>
        <time>2017-06-15T06:46:09Z</time>
      </trkpt>
      <trkpt lat="41.85526030138135" lon="13.29150689765811">
        <ele>1234.469971</ele>
        <time>2017-06-15T06:46:21Z</time>
      </trkpt>
      <trkpt lat="41.855271868407726" lon="13.29155333340168">
        <ele>1234.950073</ele>
        <time>2017-06-15T06:46:25Z</time>
      </trkpt>
      <trkpt lat="41.855255858972669" lon="13.291628686711192">
        <ele>1235.910034</ele>
        <time>2017-06-15T06:46:33Z</time>
      </trkpt>
      <trkpt lat="41.855229958891869" lon="13.291653832420707">
        <ele>1236.3900149999999</ele>
        <time>2017-06-15T06:46:36Z</time>
      </trkpt>
      <trkpt lat="41.85518654063344" lon="13.291690964251757">
        <ele>1236.3900149999999</ele>
        <time>2017-06-15T06:46:42Z</time>
      </trkpt>
      <trkpt lat="41.855174135416746" lon="13.291800934821367">
        <ele>1238.320068</ele>
        <time>2017-06-15T06:46:53Z</time>
      </trkpt>
      <trkpt lat="41.855164160951972" lon="13.291847538203001">
        <ele>1239.2799070000001</ele>
        <time>2017-06-15T06:46:57Z</time>
      </trkpt>
      <trkpt lat="41.855144463479519" lon="13.29190906137228">
        <ele>1239.76001</ele>
        <time>2017-06-15T06:47:03Z</time>
      </trkpt>
      <trkpt lat="41.85514354147017" lon="13.291985420510173">
        <ele>1240.719971</ele>
        <time>2017-06-15T06:47:09Z</time>
      </trkpt>
      <trkpt lat="41.855132058262825" lon="13.292096816003323">
        <ele>1242.160034</ele>
        <time>2017-06-15T06:47:19Z</time>
      </trkpt>
      <trkpt lat="41.85511764138937" lon="13.292235536500812">
        <ele>1244.5600589999999</ele>
        <time>2017-06-15T06:47:31Z</time>
      </trkpt>
      <trkpt lat="41.855126610025764" lon="13.292264202609658">
        <ele>1245.040039</ele>
        <time>2017-06-15T06:47:34Z</time>
      </trkpt>
      <trkpt lat="41.855148319154978" lon="13.292321367189288">
        <ele>1245.530029</ele>
        <time>2017-06-15T06:47:49Z</time>
      </trkpt>
      <trkpt lat="41.85514940880239" lon="13.292351039126515">
        <ele>1246.01001</ele>
        <time>2017-06-15T06:47:59Z</time>
      </trkpt>
      <trkpt lat="41.855126693844795" lon="13.292504260316491">
        <ele>1247.9300539999999</ele>
        <time>2017-06-15T06:48:11Z</time>
      </trkpt>
      <trkpt lat="41.855120491236448" lon="13.292651362717152">
        <ele>1249.849976</ele>
        <time>2017-06-15T06:48:22Z</time>
      </trkpt>
      <trkpt lat="41.85512350872159" lon="13.292669216170907">
        <ele>1250.329956</ele>
        <time>2017-06-15T06:48:24Z</time>
      </trkpt>
      <trkpt lat="41.855127615854144" lon="13.292735265567899">
        <ele>1251.290039</ele>
        <time>2017-06-15T06:48:30Z</time>
      </trkpt>
      <trkpt lat="41.855122167617083" lon="13.292824197560549">
        <ele>1253.219971</ele>
        <time>2017-06-15T06:48:39Z</time>
      </trkpt>
      <trkpt lat="41.85512937605381" lon="13.292970126494765">
        <ele>1255.1400149999999</ele>
        <time>2017-06-15T06:48:53Z</time>
      </trkpt>
      <trkpt lat="41.855156365782022" lon="13.293098201975226">
        <ele>1256.579956</ele>
        <time>2017-06-15T06:49:05Z</time>
      </trkpt>
      <trkpt lat="41.855144882574677" lon="13.293137261644006">
        <ele>1257.059937</ele>
        <time>2017-06-15T06:49:09Z</time>
      </trkpt>
      <trkpt lat="41.855152007192373" lon="13.293281011283398">
        <ele>1258.9799800000001</ele>
        <time>2017-06-15T06:49:22Z</time>
      </trkpt>
      <trkpt lat="41.85511127114296" lon="13.293397938832641">
        <ele>1260.910034</ele>
        <time>2017-06-15T06:49:37Z</time>
      </trkpt>
      <trkpt lat="41.855085035786033" lon="13.293505311012268">
        <ele>1262.829956</ele>
        <time>2017-06-15T06:49:49Z</time>
      </trkpt>
      <trkpt lat="41.855043126270175" lon="13.293636571615934">
        <ele>1265.2299800000001</ele>
        <time>2017-06-15T06:50:03Z</time>
      </trkpt>
      <trkpt lat="41.855072798207402" lon="13.293704800307751">
        <ele>1265.709961</ele>
        <time>2017-06-15T06:50:18Z</time>
      </trkpt>
      <trkpt lat="41.855066763237119" lon="13.293738579377532">
        <ele>1266.1899410000001</ele>
        <time>2017-06-15T06:50:28Z</time>
      </trkpt>
      <trkpt lat="41.85503457672894" lon="13.293840084224939">
        <ele>1268.119995</ele>
        <time>2017-06-15T06:50:39Z</time>
      </trkpt>
      <trkpt lat="41.855012699961662" lon="13.293968662619591">
        <ele>1269.5600589999999</ele>
        <time>2017-06-15T06:50:52Z</time>
      </trkpt>
      <trkpt lat="41.854992415755987" lon="13.294093636795878">
        <ele>1270.9998780000001</ele>
        <time>2017-06-15T06:51:05Z</time>
      </trkpt>
      <trkpt lat="41.854993840679526" lon="13.294214922934771">
        <ele>1272.4399410000001</ele>
        <time>2017-06-15T06:51:16Z</time>
      </trkpt>
      <trkpt lat="41.854980261996388" lon="13.294307207688689">
        <ele>1274.3599850000001</ele>
        <time>2017-06-15T06:51:29Z</time>
      </trkpt>
      <trkpt lat="41.854940196499228" lon="13.294455064460635">
        <ele>1276.290039</ele>
        <time>2017-06-15T06:51:43Z</time>
      </trkpt>
      <trkpt lat="41.85493491590023" lon="13.294531758874655">
        <ele>1277.7299800000001</ele>
        <time>2017-06-15T06:51:53Z</time>
      </trkpt>
      <trkpt lat="41.854924270883203" lon="13.294661594554782">
        <ele>1279.170044</ele>
        <time>2017-06-15T06:52:06Z</time>
      </trkpt>
      <trkpt lat="41.854930222034454" lon="13.294754466041923">
        <ele>1280.610107</ele>
        <time>2017-06-15T06:52:16Z</time>
      </trkpt>
      <trkpt lat="41.85500524006784" lon="13.294852031394839">
        <ele>1281.0900879999999</ele>
        <time>2017-06-15T06:52:29Z</time>
      </trkpt>
      <trkpt lat="41.855021333321929" lon="13.294895365834236">
        <ele>1281.5699460000001</ele>
        <time>2017-06-15T06:52:44Z</time>
      </trkpt>
      <trkpt lat="41.854968359693885" lon="13.29489117488265">
        <ele>1282.059937</ele>
        <time>2017-06-15T06:52:58Z</time>
      </trkpt>
      <trkpt lat="41.854940028861165" lon="13.29489410854876">
        <ele>1282.540039</ele>
        <time>2017-06-15T06:53:01Z</time>
      </trkpt>
      <trkpt lat="41.85489627532661" lon="13.294978262856603">
        <ele>1282.540039</ele>
        <time>2017-06-15T06:53:12Z</time>
      </trkpt>
      <trkpt lat="41.854892335832119" lon="13.295168364420533">
        <ele>1284.940063</ele>
        <time>2017-06-15T06:53:27Z</time>
      </trkpt>
      <trkpt lat="41.854947740212083" lon="13.295315969735384">
        <ele>1286.380005</ele>
        <time>2017-06-15T06:53:42Z</time>
      </trkpt>
      <trkpt lat="41.854994427412748" lon="13.295354023575783">
        <ele>1287.820068</ele>
        <time>2017-06-15T06:53:49Z</time>
      </trkpt>
      <trkpt lat="41.855083275586367" lon="13.295424096286297">
        <ele>1289.75</ele>
        <time>2017-06-15T06:54:03Z</time>
      </trkpt>
      <trkpt lat="41.855195006355643" lon="13.295483021065593">
        <ele>1292.150024</ele>
        <time>2017-06-15T06:54:19Z</time>
      </trkpt>
      <trkpt lat="41.855315370485187" lon="13.295551501214504">
        <ele>1294.5500489999999</ele>
        <time>2017-06-15T06:54:36Z</time>
      </trkpt>
      <trkpt lat="41.855403799563646" lon="13.295601876452565">
        <ele>1297.919922</ele>
        <time>2017-06-15T06:54:52Z</time>
      </trkpt>
      <trkpt lat="41.855501029640436" lon="13.295673793181777">
        <ele>1300.799927</ele>
        <time>2017-06-15T06:55:11Z</time>
      </trkpt>
      <trkpt lat="41.855579232797027" lon="13.295706901699305">
        <ele>1302.719971</ele>
        <time>2017-06-15T06:55:26Z</time>
      </trkpt>
      <trkpt lat="41.855621226131916" lon="13.295729868113995">
        <ele>1304.650024</ele>
        <time>2017-06-15T06:55:33Z</time>
      </trkpt>
      <trkpt lat="41.855699429288507" lon="13.295776890590787">
        <ele>1306.5699460000001</ele>
        <time>2017-06-15T06:55:46Z</time>
      </trkpt>
      <trkpt lat="41.855807723477483" lon="13.295837240293622">
        <ele>1309.4499510000001</ele>
        <time>2017-06-15T06:56:03Z</time>
      </trkpt>
      <trkpt lat="41.855882573872805" lon="13.295884262770414">
        <ele>1312.3400879999999</ele>
        <time>2017-06-15T06:56:24Z</time>
      </trkpt>
      <trkpt lat="41.855995394289494" lon="13.295977637171745">
        <ele>1315.2200929999999</ele>
        <time>2017-06-15T06:56:43Z</time>
      </trkpt>
      <trkpt lat="41.85606999322772" lon="13.296030778437853">
        <ele>1318.099976</ele>
        <time>2017-06-15T06:57:01Z</time>
      </trkpt>
      <trkpt lat="41.856181137263775" lon="13.296062964946032">
        <ele>1320.98999</ele>
        <time>2017-06-15T06:57:18Z</time>
      </trkpt>
      <trkpt lat="41.85628255829215" lon="13.296079393476248">
        <ele>1323.8698730000001</ele>
        <time>2017-06-15T06:57:36Z</time>
      </trkpt>
      <trkpt lat="41.856359085068107" lon="13.296152735128999">
        <ele>1325.799927</ele>
        <time>2017-06-15T06:57:53Z</time>
      </trkpt>
      <trkpt lat="41.85645597986877" lon="13.296207217499614">
        <ele>1327.719971</ele>
        <time>2017-06-15T06:58:11Z</time>
      </trkpt>
      <trkpt lat="41.856551365926862" lon="13.296249462291598">
        <ele>1330.599976</ele>
        <time>2017-06-15T06:58:27Z</time>
      </trkpt>
      <trkpt lat="41.856618504971266" lon="13.296261616051197">
        <ele>1332.5200199999999</ele>
        <time>2017-06-15T06:58:42Z</time>
      </trkpt>
      <trkpt lat="41.856666030362248" lon="13.296297574415803">
        <ele>1334.929932</ele>
        <time>2017-06-15T06:58:58Z</time>
      </trkpt>
      <trkpt lat="41.856713471934199" lon="13.296326827257872">
        <ele>1336.849976</ele>
        <time>2017-06-15T06:59:17Z</time>
      </trkpt>
      <trkpt lat="41.856753034517169" lon="13.296413915231824">
        <ele>1339.7299800000001</ele>
        <time>2017-06-15T06:59:39Z</time>
      </trkpt>
      <trkpt lat="41.856721602380276" lon="13.296519694849849">
        <ele>1341.6599120000001</ele>
        <time>2017-06-15T07:00:01Z</time>
      </trkpt>
      <trkpt lat="41.856675669550896" lon="13.296551797538996">
        <ele>1342.1400149999999</ele>
        <time>2017-06-15T07:00:25Z</time>
      </trkpt>
      <trkpt lat="41.856676507741213" lon="13.296600077301264">
        <ele>1343.099976</ele>
        <time>2017-06-15T07:00:50Z</time>
      </trkpt>
      <trkpt lat="41.856724033132195" lon="13.296639304608107">
        <ele>1344.540039</ele>
        <time>2017-06-15T07:01:09Z</time>
      </trkpt>
      <trkpt lat="41.85676627792418" lon="13.296701833605766">
        <ele>1346.459961</ele>
        <time>2017-06-15T07:01:28Z</time>
      </trkpt>
      <trkpt lat="41.856841212138534" lon="13.296704012900591">
        <ele>1348.8698730000001</ele>
        <time>2017-06-15T07:01:46Z</time>
      </trkpt>
      <trkpt lat="41.856921762228012" lon="13.296682387590408">
        <ele>1350.7899170000001</ele>
        <time>2017-06-15T07:02:03Z</time>
      </trkpt>
      <trkpt lat="41.85703843832016" lon="13.296764697879553">
        <ele>1353.669922</ele>
        <time>2017-06-15T07:02:21Z</time>
      </trkpt>
      <trkpt lat="41.857131225988269" lon="13.296861760318279">
        <ele>1355.599976</ele>
        <time>2017-06-15T07:02:39Z</time>
      </trkpt>
      <trkpt lat="41.857148995622993" lon="13.29697416163981">
        <ele>1357.5200199999999</ele>
        <time>2017-06-15T07:02:58Z</time>
      </trkpt>
      <trkpt lat="41.857130890712142" lon="13.297109194099903">
        <ele>1360.880005</ele>
        <time>2017-06-15T07:03:16Z</time>
      </trkpt>
      <trkpt lat="41.857144301757216" lon="13.297260738909245">
        <ele>1362.8100589999999</ele>
        <time>2017-06-15T07:03:36Z</time>
      </trkpt>
      <trkpt lat="41.857133070006967" lon="13.297315137460828">
        <ele>1363.7700199999999</ele>
        <time>2017-06-15T07:03:58Z</time>
      </trkpt>
      <trkpt lat="41.857167603448033" lon="13.297385880723596">
        <ele>1364.7299800000001</ele>
        <time>2017-06-15T07:04:15Z</time>
      </trkpt>
      <trkpt lat="41.857179086655378" lon="13.297435585409403">
        <ele>1365.690063</ele>
        <time>2017-06-15T07:04:32Z</time>
      </trkpt>
      <trkpt lat="41.85730816796422" lon="13.297490738332272">
        <ele>1368.0900879999999</ele>
        <time>2017-06-15T07:04:50Z</time>
      </trkpt>
      <trkpt lat="41.85736533254385" lon="13.297547735273838">
        <ele>1370.0200199999999</ele>
        <time>2017-06-15T07:05:04Z</time>
      </trkpt>
      <trkpt lat="41.857375223189592" lon="13.29762602224946">
        <ele>1371.940063</ele>
        <time>2017-06-15T07:05:16Z</time>
      </trkpt>
      <trkpt lat="41.857424341142178" lon="13.297728030011058">
        <ele>1373.380005</ele>
        <time>2017-06-15T07:05:35Z</time>
      </trkpt>
      <trkpt lat="41.857476895675063" lon="13.29783758148551">
        <ele>1374.339966</ele>
        <time>2017-06-15T07:06:02Z</time>
      </trkpt>
      <trkpt lat="41.857529617846012" lon="13.29796708188951">
        <ele>1376.26001</ele>
        <time>2017-06-15T07:06:18Z</time>
      </trkpt>
      <trkpt lat="41.857594074681401" lon="13.298066658899188">
        <ele>1378.1899410000001</ele>
        <time>2017-06-15T07:06:35Z</time>
      </trkpt>
      <trkpt lat="41.857615867629647" lon="13.298208732157946">
        <ele>1380.589966</ele>
        <time>2017-06-15T07:06:52Z</time>
      </trkpt>
      <trkpt lat="41.857590386644006" lon="13.298340579494834">
        <ele>1382.51001</ele>
        <time>2017-06-15T07:07:07Z</time>
      </trkpt>
      <trkpt lat="41.857581334188581" lon="13.298460189253092">
        <ele>1385.3999020000001</ele>
        <time>2017-06-15T07:07:28Z</time>
      </trkpt>
      <trkpt lat="41.857571862637997" lon="13.298540320247412">
        <ele>1386.3599850000001</ele>
        <time>2017-06-15T07:07:44Z</time>
      </trkpt>
      <trkpt lat="41.857593739405274" lon="13.29861986450851">
        <ele>1386.3599850000001</ele>
        <time>2017-06-15T07:07:59Z</time>
      </trkpt>
      <trkpt lat="41.85750799253583" lon="13.29867166467011">
        <ele>1388.280029</ele>
        <time>2017-06-15T07:08:15Z</time>
      </trkpt>
      <trkpt lat="41.857493240386248" lon="13.298800997436047">
        <ele>1389.719971</ele>
        <time>2017-06-15T07:08:30Z</time>
      </trkpt>
      <trkpt lat="41.857441607862711" lon="13.298910213634372">
        <ele>1391.170044</ele>
        <time>2017-06-15T07:08:43Z</time>
      </trkpt>
      <trkpt lat="41.857338007539511" lon="13.298951704055071">
        <ele>1392.130005</ele>
        <time>2017-06-15T07:09:08Z</time>
      </trkpt>
      <trkpt lat="41.857314789667726" lon="13.299068380147219">
        <ele>1393.570068</ele>
        <time>2017-06-15T07:09:20Z</time>
      </trkpt>
      <trkpt lat="41.857349239289761" lon="13.299182709306479">
        <ele>1394.5299070000001</ele>
        <time>2017-06-15T07:09:32Z</time>
      </trkpt>
      <trkpt lat="41.857352927327156" lon="13.299196287989616">
        <ele>1394.5299070000001</ele>
        <time>2017-06-15T07:09:33Z</time>
      </trkpt>
      <trkpt lat="41.857368517667055" lon="13.299296284094453">
        <ele>1394.5299070000001</ele>
        <time>2017-06-15T07:09:47Z</time>
      </trkpt>
      <trkpt lat="41.857392741367221" lon="13.299425868317485">
        <ele>1394.5299070000001</ele>
        <time>2017-06-15T07:10:01Z</time>
      </trkpt>
      <trkpt lat="41.857389472424984" lon="13.299442967399955">
        <ele>1394.5299070000001</ele>
        <time>2017-06-15T07:10:16Z</time>
      </trkpt>
      <trkpt lat="41.85742786154151" lon="13.299546064808965">
        <ele>1395.01001</ele>
        <time>2017-06-15T07:10:34Z</time>
      </trkpt>
      <trkpt lat="41.857419898733497" lon="13.299690401181579">
        <ele>1395.01001</ele>
        <time>2017-06-15T07:10:48Z</time>
      </trkpt>
      <trkpt lat="41.857357621192932" lon="13.299815291538835">
        <ele>1395.01001</ele>
        <time>2017-06-15T07:11:03Z</time>
      </trkpt>
      <trkpt lat="41.857292493805289" lon="13.299929620698094">
        <ele>1395.969971</ele>
        <time>2017-06-15T07:11:18Z</time>
      </trkpt>
      <trkpt lat="41.857288302853703" lon="13.299935236573219">
        <ele>1396.4499510000001</ele>
        <time>2017-06-15T07:11:36Z</time>
      </trkpt>
      <trkpt lat="41.857241364195943" lon="13.299947222694755">
        <ele>1397.410034</ele>
        <time>2017-06-15T07:11:53Z</time>
      </trkpt>
      <trkpt lat="41.85714983381331" lon="13.29995334148407">
        <ele>1400.3000489999999</ele>
        <time>2017-06-15T07:12:07Z</time>
      </trkpt>
      <trkpt lat="41.857067523524165" lon="13.299981839954853">
        <ele>1401.7398679999999</ele>
        <time>2017-06-15T07:12:20Z</time>
      </trkpt>
      <trkpt lat="41.856996528804302" lon="13.300055265426636">
        <ele>1404.139893</ele>
        <time>2017-06-15T07:12:35Z</time>
      </trkpt>
      <trkpt lat="41.856881864368916" lon="13.300175713375211">
        <ele>1406.0699460000001</ele>
        <time>2017-06-15T07:12:52Z</time>
      </trkpt>
      <trkpt lat="41.856801984831691" lon="13.30025827512145">
        <ele>1407.51001</ele>
        <time>2017-06-15T07:13:05Z</time>
      </trkpt>
      <trkpt lat="41.856767116114497" lon="13.30032080411911">
        <ele>1407.98999</ele>
        <time>2017-06-15T07:13:11Z</time>
      </trkpt>
      <trkpt lat="41.856680866330862" lon="13.300437480211258">
        <ele>1408.950073</ele>
        <time>2017-06-15T07:13:23Z</time>
      </trkpt>
      <trkpt lat="41.856644488871098" lon="13.300456339493394">
        <ele>1409.910034</ele>
        <time>2017-06-15T07:13:29Z</time>
      </trkpt>
      <trkpt lat="41.856598136946559" lon="13.300601514056325">
        <ele>1410.869995</ele>
        <time>2017-06-15T07:13:45Z</time>
      </trkpt>
      <trkpt lat="41.856567040085793" lon="13.300590785220265">
        <ele>1411.830078</ele>
        <time>2017-06-15T07:14:00Z</time>
      </trkpt>
      <trkpt lat="41.856507360935211" lon="13.300621462985873">
        <ele>1411.830078</ele>
        <time>2017-06-15T07:14:11Z</time>
      </trkpt>
      <trkpt lat="41.856472240760922" lon="13.300664629787207">
        <ele>1411.830078</ele>
        <time>2017-06-15T07:14:16Z</time>
      </trkpt>
      <trkpt lat="41.856442065909505" lon="13.300713412463665">
        <ele>1412.3100589999999</ele>
        <time>2017-06-15T07:14:20Z</time>
      </trkpt>
      <trkpt lat="41.856377022340894" lon="13.30085732974112">
        <ele>1414.23999</ele>
        <time>2017-06-15T07:14:36Z</time>
      </trkpt>
      <trkpt lat="41.856319019570947" lon="13.300972664728761">
        <ele>1414.23999</ele>
        <time>2017-06-15T07:14:50Z</time>
      </trkpt>
      <trkpt lat="41.856236290186644" lon="13.301024464890361">
        <ele>1414.719971</ele>
        <time>2017-06-15T07:14:58Z</time>
      </trkpt>
      <trkpt lat="41.856124894693494" lon="13.301238119602203">
        <ele>1414.719971</ele>
        <time>2017-06-15T07:15:13Z</time>
      </trkpt>
      <trkpt lat="41.856080638244748" lon="13.301379606127739">
        <ele>1415.6800539999999</ele>
        <time>2017-06-15T07:15:27Z</time>
      </trkpt>
      <trkpt lat="41.856074267998338" lon="13.301385305821896">
        <ele>1415.6800539999999</ele>
        <time>2017-06-15T07:15:28Z</time>
      </trkpt>
      <trkpt lat="41.856034370139241" lon="13.30143048427999">
        <ele>1415.6800539999999</ele>
        <time>2017-06-15T07:15:33Z</time>
      </trkpt>
      <trkpt lat="41.856032023206353" lon="13.301474237814546">
        <ele>1415.6800539999999</ele>
        <time>2017-06-15T07:15:36Z</time>
      </trkpt>
      <trkpt lat="41.856082314625382" lon="13.301562163978815">
        <ele>1416.6400149999999</ele>
        <time>2017-06-15T07:15:49Z</time>
      </trkpt>
      <trkpt lat="41.856092624366283" lon="13.301650676876307">
        <ele>1416.6400149999999</ele>
        <time>2017-06-15T07:16:01Z</time>
      </trkpt>
      <trkpt lat="41.856116596609354" lon="13.301809933036566">
        <ele>1414.23999</ele>
        <time>2017-06-15T07:16:14Z</time>
      </trkpt>
      <trkpt lat="41.856125565245748" lon="13.301942115649581">
        <ele>1413.280029</ele>
        <time>2017-06-15T07:16:29Z</time>
      </trkpt>
      <trkpt lat="41.856098994612694" lon="13.302042027935386">
        <ele>1413.280029</ele>
        <time>2017-06-15T07:16:38Z</time>
      </trkpt>
      <trkpt lat="41.856149202212691" lon="13.302252162247896">
        <ele>1412.7899170000001</ele>
        <time>2017-06-15T07:16:55Z</time>
      </trkpt>
      <trkpt lat="41.856144675984979" lon="13.302296418696642">
        <ele>1412.7899170000001</ele>
        <time>2017-06-15T07:16:58Z</time>
      </trkpt>
      <trkpt lat="41.856174934655428" lon="13.302433295175433">
        <ele>1412.7899170000001</ele>
        <time>2017-06-15T07:17:10Z</time>
      </trkpt>
      <trkpt lat="41.856195973232388" lon="13.302478808909655">
        <ele>1414.719971</ele>
        <time>2017-06-15T07:17:14Z</time>
      </trkpt>
      <trkpt lat="41.856229836121202" lon="13.302603280171752">
        <ele>1414.719971</ele>
        <time>2017-06-15T07:17:26Z</time>
      </trkpt>
      <trkpt lat="41.856242241337895" lon="13.302741833031178">
        <ele>1416.6400149999999</ele>
        <time>2017-06-15T07:17:38Z</time>
      </trkpt>
      <trkpt lat="41.856282390654087" lon="13.302854485809803">
        <ele>1418.080078</ele>
        <time>2017-06-15T07:17:51Z</time>
      </trkpt>
      <trkpt lat="41.856246097013354" lon="13.303033439442515">
        <ele>1417.599976</ele>
        <time>2017-06-15T07:18:05Z</time>
      </trkpt>
      <trkpt lat="41.856242241337895" lon="13.303054478019476">
        <ele>1417.599976</ele>
        <time>2017-06-15T07:18:07Z</time>
      </trkpt>
      <trkpt lat="41.856221035122871" lon="13.303193617612123">
        <ele>1418.5600589999999</ele>
        <time>2017-06-15T07:18:16Z</time>
      </trkpt>
      <trkpt lat="41.856190105900168" lon="13.303242065012455">
        <ele>1418.5600589999999</ele>
        <time>2017-06-15T07:18:22Z</time>
      </trkpt>
      <trkpt lat="41.856171833351254" lon="13.303291937336326">
        <ele>1419.040039</ele>
        <time>2017-06-15T07:18:26Z</time>
      </trkpt>
      <trkpt lat="41.856080805882812" lon="13.303475333377719">
        <ele>1420</ele>
        <time>2017-06-15T07:18:40Z</time>
      </trkpt>
      <trkpt lat="41.856075022369623" lon="13.303671469911933">
        <ele>1420</ele>
        <time>2017-06-15T07:18:53Z</time>
      </trkpt>
      <trkpt lat="41.856138641014695" lon="13.303767358884215">
        <ele>1420</ele>
        <time>2017-06-15T07:19:08Z</time>
      </trkpt>
      <trkpt lat="41.856140568852425" lon="13.30377783626318">
        <ele>1420</ele>
        <time>2017-06-15T07:19:09Z</time>
      </trkpt>
      <trkpt lat="41.85617065988481" lon="13.303835839033127">
        <ele>1419.040039</ele>
        <time>2017-06-15T07:19:22Z</time>
      </trkpt>
      <trkpt lat="41.856182729825377" lon="13.303913287818432">
        <ele>1418.080078</ele>
        <time>2017-06-15T07:19:27Z</time>
      </trkpt>
      <trkpt lat="41.856222879141569" lon="13.304126439616084">
        <ele>1417.119995</ele>
        <time>2017-06-15T07:19:43Z</time>
      </trkpt>
      <trkpt lat="41.856229500845075" lon="13.30419173464179">
        <ele>1416.160034</ele>
        <time>2017-06-15T07:19:56Z</time>
      </trkpt>
      <trkpt lat="41.856239475309849" lon="13.304242864251137">
        <ele>1415.1999510000001</ele>
        <time>2017-06-15T07:20:02Z</time>
      </trkpt>
      <trkpt lat="41.856221873313189" lon="13.304318385198712">
        <ele>1415.1999510000001</ele>
        <time>2017-06-15T07:20:06Z</time>
      </trkpt>
      <trkpt lat="41.856235787272453" lon="13.304454339668155">
        <ele>1415.6800539999999</ele>
        <time>2017-06-15T07:20:16Z</time>
      </trkpt>
      <trkpt lat="41.856204438954592" lon="13.304698839783669">
        <ele>1414.719971</ele>
        <time>2017-06-15T07:20:32Z</time>
      </trkpt>
      <trkpt lat="41.856116261333227" lon="13.304822472855449">
        <ele>1416.160034</ele>
        <time>2017-06-15T07:20:43Z</time>
      </trkpt>
      <trkpt lat="41.856074267998338" lon="13.304889779537916">
        <ele>1417.119995</ele>
        <time>2017-06-15T07:20:50Z</time>
      </trkpt>
      <trkpt lat="41.855990281328559" lon="13.305015340447426">
        <ele>1419.040039</ele>
        <time>2017-06-15T07:21:03Z</time>
      </trkpt>
      <trkpt lat="41.855920208618045" lon="13.305124221369624">
        <ele>1420</ele>
        <time>2017-06-15T07:21:16Z</time>
      </trkpt>
      <trkpt lat="41.85590679757297" lon="13.30514601431787">
        <ele>1420.48999</ele>
        <time>2017-06-15T07:21:19Z</time>
      </trkpt>
      <trkpt lat="41.855868408456445" lon="13.305347431451082">
        <ele>1420.48999</ele>
        <time>2017-06-15T07:21:35Z</time>
      </trkpt>
      <trkpt lat="41.855858266353607" lon="13.30544650554657">
        <ele>1420.48999</ele>
        <time>2017-06-15T07:21:43Z</time>
      </trkpt>
      <trkpt lat="41.855835467576981" lon="13.305520014837384">
        <ele>1420.48999</ele>
        <time>2017-06-15T07:21:57Z</time>
      </trkpt>
      <trkpt lat="41.855829767882824" lon="13.305544406175613">
        <ele>1420.48999</ele>
        <time>2017-06-15T07:22:17Z</time>
      </trkpt>
      <trkpt lat="41.855918867513537" lon="13.305436614900827">
        <ele>1419.040039</ele>
        <time>2017-06-15T07:22:29Z</time>
      </trkpt>
      <trkpt lat="41.855929093435407" lon="13.305449187755585">
        <ele>1418.080078</ele>
        <time>2017-06-15T07:22:31Z</time>
      </trkpt>
      <trkpt lat="41.855942588299513" lon="13.305588914081454">
        <ele>1417.119995</ele>
        <time>2017-06-15T07:22:41Z</time>
      </trkpt>
      <trkpt lat="41.855952059850097" lon="13.305616490542889">
        <ele>1417.119995</ele>
        <time>2017-06-15T07:22:43Z</time>
      </trkpt>
      <trkpt lat="41.855939319357276" lon="13.305730316787958">
        <ele>1417.119995</ele>
        <time>2017-06-15T07:22:49Z</time>
      </trkpt>
      <trkpt lat="41.855939067900181" lon="13.305856632068753">
        <ele>1416.6400149999999</ele>
        <time>2017-06-15T07:22:56Z</time>
      </trkpt>
      <trkpt lat="41.855950383469462" lon="13.305882196873426">
        <ele>1416.160034</ele>
        <time>2017-06-15T07:22:58Z</time>
      </trkpt>
      <trkpt lat="41.855998076498508" lon="13.306067269295454">
        <ele>1415.6800539999999</ele>
        <time>2017-06-15T07:23:11Z</time>
      </trkpt>
      <trkpt lat="41.856006793677807" lon="13.306293496862054">
        <ele>1414.23999</ele>
        <time>2017-06-15T07:23:24Z</time>
      </trkpt>
      <trkpt lat="41.856045937165618" lon="13.306432804092765">
        <ele>1413.76001</ele>
        <time>2017-06-15T07:23:34Z</time>
      </trkpt>
      <trkpt lat="41.856060773134232" lon="13.306542607024312">
        <ele>1413.76001</ele>
        <time>2017-06-15T07:23:42Z</time>
      </trkpt>
      <trkpt lat="41.856086337938905" lon="13.306584097445011">
        <ele>1413.280029</ele>
        <time>2017-06-15T07:23:46Z</time>
      </trkpt>
      <trkpt lat="41.856112824752927" lon="13.306724075227976">
        <ele>1411.3500979999999</ele>
        <time>2017-06-15T07:23:56Z</time>
      </trkpt>
      <trkpt lat="41.856122799217701" lon="13.306800769641995">
        <ele>1410.3900149999999</ele>
        <time>2017-06-15T07:24:01Z</time>
      </trkpt>
      <trkpt lat="41.856124978512526" lon="13.306890875101089">
        <ele>1409.910034</ele>
        <time>2017-06-15T07:24:07Z</time>
      </trkpt>
      <trkpt lat="41.856089606881142" lon="13.30708441324532">
        <ele>1409.910034</ele>
        <time>2017-06-15T07:24:21Z</time>
      </trkpt>
      <trkpt lat="41.85604115948081" lon="13.307125400751829">
        <ele>1410.869995</ele>
        <time>2017-06-15T07:24:28Z</time>
      </trkpt>
      <trkpt lat="41.856023306027055" lon="13.30721533857286">
        <ele>1410.869995</ele>
        <time>2017-06-15T07:24:34Z</time>
      </trkpt>
      <trkpt lat="41.856020037084818" lon="13.307245429605246">
        <ele>1410.869995</ele>
        <time>2017-06-15T07:24:36Z</time>
      </trkpt>
      <trkpt lat="41.855995981022716" lon="13.307316172868013">
        <ele>1411.3500979999999</ele>
        <time>2017-06-15T07:24:40Z</time>
      </trkpt>
      <trkpt lat="41.856002183631063" lon="13.307376019656658">
        <ele>1411.3500979999999</ele>
        <time>2017-06-15T07:24:45Z</time>
      </trkpt>
      <trkpt lat="41.855992460623384" lon="13.307418180629611">
        <ele>1411.3500979999999</ele>
        <time>2017-06-15T07:24:48Z</time>
      </trkpt>
      <trkpt lat="41.856029508635402" lon="13.307541394606233">
        <ele>1412.3100589999999</ele>
        <time>2017-06-15T07:24:57Z</time>
      </trkpt>
      <trkpt lat="41.85605239123106" lon="13.307655639946461">
        <ele>1413.280029</ele>
        <time>2017-06-15T07:25:05Z</time>
      </trkpt>
      <trkpt lat="41.856068819761276" lon="13.307695118710399">
        <ele>1413.76001</ele>
        <time>2017-06-15T07:25:08Z</time>
      </trkpt>
      <trkpt lat="41.856097569689155" lon="13.307762425392866">
        <ele>1414.719971</ele>
        <time>2017-06-15T07:25:25Z</time>
      </trkpt>
      <trkpt lat="41.856097737327218" lon="13.307768208906054">
        <ele>1414.719971</ele>
        <time>2017-06-15T07:25:33Z</time>
      </trkpt>
      <trkpt lat="41.856140736490488" lon="13.307848758995533">
        <ele>1415.1999510000001</ele>
        <time>2017-06-15T07:25:40Z</time>
      </trkpt>
      <trkpt lat="41.856163535267115" lon="13.307984126731753">
        <ele>1416.160034</ele>
        <time>2017-06-15T07:25:50Z</time>
      </trkpt>
      <trkpt lat="41.856288341805339" lon="13.308140113949776">
        <ele>1417.599976</ele>
        <time>2017-06-15T07:26:06Z</time>
      </trkpt>
      <trkpt lat="41.856308374553919" lon="13.308193003758788">
        <ele>1417.599976</ele>
        <time>2017-06-15T07:26:10Z</time>
      </trkpt>
      <trkpt lat="41.856416333466768" lon="13.308377824723721">
        <ele>1419.040039</ele>
        <time>2017-06-15T07:26:27Z</time>
      </trkpt>
      <trkpt lat="41.856522196903825" lon="13.308527441695333">
        <ele>1420.969971</ele>
        <time>2017-06-15T07:26:42Z</time>
      </trkpt>
      <trkpt lat="41.856609787791967" lon="13.308702120557427">
        <ele>1421.4499510000001</ele>
        <time>2017-06-15T07:26:56Z</time>
      </trkpt>
      <trkpt lat="41.85670031234622" lon="13.308846540749073">
        <ele>1421.929932</ele>
        <time>2017-06-15T07:27:11Z</time>
      </trkpt>
      <trkpt lat="41.856767199933529" lon="13.308981573209167">
        <ele>1421.929932</ele>
        <time>2017-06-15T07:27:22Z</time>
      </trkpt>
      <trkpt lat="41.85686158016324" lon="13.309176368638873">
        <ele>1420.48999</ele>
        <time>2017-06-15T07:27:37Z</time>
      </trkpt>
      <trkpt lat="41.856949171051383" lon="13.309330595657229">
        <ele>1420.48999</ele>
        <time>2017-06-15T07:27:52Z</time>
      </trkpt>
      <trkpt lat="41.857011029496789" lon="13.309481889009476">
        <ele>1419.040039</ele>
        <time>2017-06-15T07:28:03Z</time>
      </trkpt>
      <trkpt lat="41.85703894123435" lon="13.309529665857553">
        <ele>1419.040039</ele>
        <time>2017-06-15T07:28:08Z</time>
      </trkpt>
      <trkpt lat="41.857157377526164" lon="13.309749523177743">
        <ele>1417.599976</ele>
        <time>2017-06-15T07:28:25Z</time>
      </trkpt>
      <trkpt lat="41.857257038354874" lon="13.309820769354701">
        <ele>1420.969971</ele>
        <time>2017-06-15T07:28:39Z</time>
      </trkpt>
      <trkpt lat="41.8573316372931" lon="13.309888327494264">
        <ele>1421.4499510000001</ele>
        <time>2017-06-15T07:28:48Z</time>
      </trkpt>
      <trkpt lat="41.857414115220308" lon="13.309990921989083">
        <ele>1421.929932</ele>
        <time>2017-06-15T07:28:56Z</time>
      </trkpt>
      <trkpt lat="41.857570186257362" lon="13.310223938897252">
        <ele>1422.8900149999999</ele>
        <time>2017-06-15T07:29:15Z</time>
      </trkpt>
      <trkpt lat="41.857686694711447" lon="13.310415800660849">
        <ele>1423.849976</ele>
        <time>2017-06-15T07:29:27Z</time>
      </trkpt>
      <trkpt lat="41.857698261737823" lon="13.310474473983049">
        <ele>1423.849976</ele>
        <time>2017-06-15T07:29:31Z</time>
      </trkpt>
      <trkpt lat="41.857852069661021" lon="13.310739928856492">
        <ele>1423.849976</ele>
        <time>2017-06-15T07:29:50Z</time>
      </trkpt>
      <trkpt lat="41.857868330553174" lon="13.310795500874519">
        <ele>1424.329956</ele>
        <time>2017-06-15T07:29:54Z</time>
      </trkpt>
      <trkpt lat="41.857988107949495" lon="13.311023321002722">
        <ele>1422.8900149999999</ele>
        <time>2017-06-15T07:30:09Z</time>
      </trkpt>
      <trkpt lat="41.858047200366855" lon="13.311103535816073">
        <ele>1422.8900149999999</ele>
        <time>2017-06-15T07:30:16Z</time>
      </trkpt>
      <trkpt lat="41.858165133744478" lon="13.311295816674829">
        <ele>1422.8900149999999</ele>
        <time>2017-06-15T07:30:33Z</time>
      </trkpt>
      <trkpt lat="41.858326233923435" lon="13.311435710638762">
        <ele>1423.369995</ele>
        <time>2017-06-15T07:30:51Z</time>
      </trkpt>
      <trkpt lat="41.858531087636948" lon="13.311623800545931">
        <ele>1423.369995</ele>
        <time>2017-06-15T07:31:10Z</time>
      </trkpt>
      <trkpt lat="41.858635693788528" lon="13.311835359781981">
        <ele>1422.8900149999999</ele>
        <time>2017-06-15T07:31:27Z</time>
      </trkpt>
      <trkpt lat="41.858779191970825" lon="13.312036274001002">
        <ele>1423.369995</ele>
        <time>2017-06-15T07:31:43Z</time>
      </trkpt>
      <trkpt lat="41.858890084549785" lon="13.312277840450406">
        <ele>1423.849976</ele>
        <time>2017-06-15T07:32:00Z</time>
      </trkpt>
      <trkpt lat="41.859025619924068" lon="13.312517227604985">
        <ele>1423.849976</ele>
        <time>2017-06-15T07:32:17Z</time>
      </trkpt>
      <trkpt lat="41.859115893021226" lon="13.312722835689783">
        <ele>1424.329956</ele>
        <time>2017-06-15T07:32:30Z</time>
      </trkpt>
      <trkpt lat="41.859211111441255" lon="13.313121814280748">
        <ele>1424.8100589999999</ele>
        <time>2017-06-15T07:32:50Z</time>
      </trkpt>
      <trkpt lat="41.859237514436245" lon="13.313186019659042">
        <ele>1424.8100589999999</ele>
        <time>2017-06-15T07:32:54Z</time>
      </trkpt>
      <trkpt lat="41.85927146114409" lon="13.313309820368886">
        <ele>1424.8100589999999</ele>
        <time>2017-06-15T07:33:01Z</time>
      </trkpt>
      <trkpt lat="41.859384616836905" lon="13.313526827841997">
        <ele>1424.8100589999999</ele>
        <time>2017-06-15T07:33:18Z</time>
      </trkpt>
      <trkpt lat="41.859494000673294" lon="13.313687676563859">
        <ele>1424.8100589999999</ele>
        <time>2017-06-15T07:33:34Z</time>
      </trkpt>
      <trkpt lat="41.859553512185812" lon="13.313737297430634">
        <ele>1426.25</ele>
        <time>2017-06-15T07:33:41Z</time>
      </trkpt>
      <trkpt lat="41.859607072547078" lon="13.313760263845325">
        <ele>1426.25</ele>
        <time>2017-06-15T07:33:46Z</time>
      </trkpt>
      <trkpt lat="41.85967362485826" lon="13.313808040693402">
        <ele>1427.209961</ele>
        <time>2017-06-15T07:33:50Z</time>
      </trkpt>
      <trkpt lat="41.859846208244562" lon="13.313885740935802">
        <ele>1428.179932</ele>
        <time>2017-06-15T07:34:05Z</time>
      </trkpt>
      <trkpt lat="41.859914604574442" lon="13.313913065940142">
        <ele>1429.139893</ele>
        <time>2017-06-15T07:34:13Z</time>
      </trkpt>
      <trkpt lat="41.860059192404151" lon="13.314029490575194">
        <ele>1430.099976</ele>
        <time>2017-06-15T07:34:27Z</time>
      </trkpt>
      <trkpt lat="41.860176539048553" lon="13.314181873574853">
        <ele>1430.099976</ele>
        <time>2017-06-15T07:34:39Z</time>
      </trkpt>
      <trkpt lat="41.860263124108315" lon="13.314311541616917">
        <ele>1429.139893</ele>
        <time>2017-06-15T07:34:51Z</time>
      </trkpt>
      <trkpt lat="41.860377537086606" lon="13.314448669552803">
        <ele>1429.139893</ele>
        <time>2017-06-15T07:35:04Z</time>
      </trkpt>
      <trkpt lat="41.8604901060462" lon="13.314661988988519">
        <ele>1429.139893</ele>
        <time>2017-06-15T07:35:18Z</time>
      </trkpt>
      <trkpt lat="41.860576774924994" lon="13.314829962328076">
        <ele>1428.6599120000001</ele>
        <time>2017-06-15T07:35:30Z</time>
      </trkpt>
      <trkpt lat="41.860681213438511" lon="13.314980585128069">
        <ele>1428.6599120000001</ele>
        <time>2017-06-15T07:35:43Z</time>
      </trkpt>
      <trkpt lat="41.860698061063886" lon="13.315001791343093">
        <ele>1430.099976</ele>
        <time>2017-06-15T07:35:45Z</time>
      </trkpt>
      <trkpt lat="41.860717590898275" lon="13.315019980072975">
        <ele>1430.099976</ele>
        <time>2017-06-15T07:35:47Z</time>
      </trkpt>
      <trkpt lat="41.860737958922982" lon="13.315036240965128">
        <ele>1430.099976</ele>
        <time>2017-06-15T07:35:49Z</time>
      </trkpt>
      <trkpt lat="41.860764781013131" lon="13.315075132995844">
        <ele>1430.099976</ele>
        <time>2017-06-15T07:35:52Z</time>
      </trkpt>
      <trkpt lat="41.860910039395094" lon="13.315264815464616">
        <ele>1430.099976</ele>
        <time>2017-06-15T07:36:05Z</time>
      </trkpt>
      <trkpt lat="41.861040629446507" lon="13.315419377759099">
        <ele>1430.099976</ele>
        <time>2017-06-15T07:36:20Z</time>
      </trkpt>
      <trkpt lat="41.861198712140322" lon="13.315617106854916">
        <ele>1428.6599120000001</ele>
        <time>2017-06-15T07:36:33Z</time>
      </trkpt>
      <trkpt lat="41.861329469829798" lon="13.315653065219522">
        <ele>1428.179932</ele>
        <time>2017-06-15T07:36:46Z</time>
      </trkpt>
      <trkpt lat="41.861336762085557" lon="13.315651640295982">
        <ele>1428.179932</ele>
        <time>2017-06-15T07:36:47Z</time>
      </trkpt>
      <trkpt lat="41.861464837566018" lon="13.315714588388801">
        <ele>1427.209961</ele>
        <time>2017-06-15T07:37:02Z</time>
      </trkpt>
      <trkpt lat="41.861554272472858" lon="13.31574727781117">
        <ele>1424.329956</ele>
        <time>2017-06-15T07:37:17Z</time>
      </trkpt>
      <trkpt lat="41.861559972167015" lon="13.315752474591136">
        <ele>1423.849976</ele>
        <time>2017-06-15T07:37:18Z</time>
      </trkpt>
      <trkpt lat="41.861594337970018" lon="13.315770663321018">
        <ele>1422.8900149999999</ele>
        <time>2017-06-15T07:37:21Z</time>
      </trkpt>
      <trkpt lat="41.861632224172354" lon="13.315771669149399">
        <ele>1421.929932</ele>
        <time>2017-06-15T07:37:24Z</time>
      </trkpt>
      <trkpt lat="41.861715875566006" lon="13.315729675814509">
        <ele>1421.4499510000001</ele>
        <time>2017-06-15T07:37:32Z</time>
      </trkpt>
      <trkpt lat="41.861881334334612" lon="13.315684664994478">
        <ele>1419.040039</ele>
        <time>2017-06-15T07:37:47Z</time>
      </trkpt>
      <trkpt lat="41.862037489190698" lon="13.315628338605165">
        <ele>1418.080078</ele>
        <time>2017-06-15T07:38:01Z</time>
      </trkpt>
      <trkpt lat="41.862128181383014" lon="13.315628673881292">
        <ele>1418.080078</ele>
        <time>2017-06-15T07:38:08Z</time>
      </trkpt>
      <trkpt lat="41.862228764221072" lon="13.315780470147729">
        <ele>1417.599976</ele>
        <time>2017-06-15T07:38:22Z</time>
      </trkpt>
      <trkpt lat="41.862289365381002" lon="13.315832270309329">
        <ele>1417.119995</ele>
        <time>2017-06-15T07:38:27Z</time>
      </trkpt>
      <trkpt lat="41.862429175525904" lon="13.315971158444881">
        <ele>1417.119995</ele>
        <time>2017-06-15T07:38:42Z</time>
      </trkpt>
      <trkpt lat="41.862502517178655" lon="13.316035363823175">
        <ele>1418.080078</ele>
        <time>2017-06-15T07:38:57Z</time>
      </trkpt>
      <trkpt lat="41.862654481083155" lon="13.316204762086272">
        <ele>1418.5600589999999</ele>
        <time>2017-06-15T07:39:14Z</time>
      </trkpt>
      <trkpt lat="41.862673508003354" lon="13.316216664388776">
        <ele>1418.5600589999999</ele>
        <time>2017-06-15T07:39:16Z</time>
      </trkpt>
      <trkpt lat="41.862781383097172" lon="13.316395785659552">
        <ele>1419.040039</ele>
        <time>2017-06-15T07:39:30Z</time>
      </trkpt>
      <trkpt lat="41.862820358946919" lon="13.31645923666656">
        <ele>1419.040039</ele>
        <time>2017-06-15T07:39:35Z</time>
      </trkpt>
      <trkpt lat="41.862795716151595" lon="13.316528974100947">
        <ele>1419.040039</ele>
        <time>2017-06-15T07:39:50Z</time>
      </trkpt>
      <trkpt lat="41.862782305106521" lon="13.316535511985421">
        <ele>1420</ele>
        <time>2017-06-15T07:40:17Z</time>
      </trkpt>
      <trkpt lat="41.8627695646137" lon="13.316694935783744">
        <ele>1420</ele>
        <time>2017-06-15T07:40:32Z</time>
      </trkpt>
      <trkpt lat="41.86276906169951" lon="13.31668546423316">
        <ele>1420</ele>
        <time>2017-06-15T07:40:33Z</time>
      </trkpt>
      <trkpt lat="41.862764284014702" lon="13.316544061526656">
        <ele>1420</ele>
        <time>2017-06-15T07:40:47Z</time>
      </trkpt>
      <trkpt lat="41.862763781100512" lon="13.316627210006118">
        <ele>1420</ele>
        <time>2017-06-15T07:40:51Z</time>
      </trkpt>
      <trkpt lat="41.862796638160944" lon="13.316838936880231">
        <ele>1420.48999</ele>
        <time>2017-06-15T07:41:03Z</time>
      </trkpt>
      <trkpt lat="41.862816503271461" lon="13.316905237734318">
        <ele>1420.969971</ele>
        <time>2017-06-15T07:41:09Z</time>
      </trkpt>
      <trkpt lat="41.862856401130557" lon="13.317182259634137">
        <ele>1422.8900149999999</ele>
        <time>2017-06-15T07:41:26Z</time>
      </trkpt>
      <trkpt lat="41.862875428050756" lon="13.317405134439468">
        <ele>1424.8100589999999</ele>
        <time>2017-06-15T07:41:40Z</time>
      </trkpt>
      <trkpt lat="41.862888671457767" lon="13.317601773887873">
        <ele>1426.7299800000001</ele>
        <time>2017-06-15T07:41:53Z</time>
      </trkpt>
      <trkpt lat="41.862900741398335" lon="13.317697662860155">
        <ele>1427.700073</ele>
        <time>2017-06-15T07:42:01Z</time>
      </trkpt>
      <trkpt lat="41.862875763326883" lon="13.317885585129261">
        <ele>1429.139893</ele>
        <time>2017-06-15T07:42:15Z</time>
      </trkpt>
      <trkpt lat="41.862836536020041" lon="13.318093288689852">
        <ele>1430.579956</ele>
        <time>2017-06-15T07:42:28Z</time>
      </trkpt>
      <trkpt lat="41.862825136631727" lon="13.318158583715558">
        <ele>1431.059937</ele>
        <time>2017-06-15T07:42:33Z</time>
      </trkpt>
      <trkpt lat="41.862780377268791" lon="13.318434515967965">
        <ele>1432.0200199999999</ele>
        <time>2017-06-15T07:42:50Z</time>
      </trkpt>
      <trkpt lat="41.862773839384317" lon="13.318491177633405">
        <ele>1432.5</ele>
        <time>2017-06-15T07:42:55Z</time>
      </trkpt>
      <trkpt lat="41.862737210467458" lon="13.318658228963614">
        <ele>1433.9399410000001</ele>
        <time>2017-06-15T07:43:08Z</time>
      </trkpt>
      <trkpt lat="41.862680716440082" lon="13.318820418789983">
        <ele>1434.910034</ele>
        <time>2017-06-15T07:43:20Z</time>
      </trkpt>
      <trkpt lat="41.862633526325226" lon="13.319023931398988">
        <ele>1436.3500979999999</ele>
        <time>2017-06-15T07:43:33Z</time>
      </trkpt>
      <trkpt lat="41.862618187442422" lon="13.319180337712169">
        <ele>1437.7899170000001</ele>
        <time>2017-06-15T07:43:44Z</time>
      </trkpt>
      <trkpt lat="41.862595304846764" lon="13.319346886128187">
        <ele>1439.709961</ele>
        <time>2017-06-15T07:43:57Z</time>
      </trkpt>
      <trkpt lat="41.862584576010704" lon="13.319405140355229">
        <ele>1440.1899410000001</ele>
        <time>2017-06-15T07:44:01Z</time>
      </trkpt>
      <trkpt lat="41.862605782225728" lon="13.319508237764239">
        <ele>1441.150024</ele>
        <time>2017-06-15T07:44:10Z</time>
      </trkpt>
      <trkpt lat="41.862609134986997" lon="13.319645533338189">
        <ele>1443.5600589999999</ele>
        <time>2017-06-15T07:44:22Z</time>
      </trkpt>
      <trkpt lat="41.862608380615711" lon="13.319662129506469">
        <ele>1444.040039</ele>
        <time>2017-06-15T07:44:23Z</time>
      </trkpt>
      <trkpt lat="41.862622797489166" lon="13.31980437040329">
        <ele>1445.9600829999999</ele>
        <time>2017-06-15T07:44:35Z</time>
      </trkpt>
      <trkpt lat="41.862635035067797" lon="13.31990847364068">
        <ele>1447.8801269999999</ele>
        <time>2017-06-15T07:44:44Z</time>
      </trkpt>
      <trkpt lat="41.8626659642905" lon="13.320013834163547">
        <ele>1450.290039</ele>
        <time>2017-06-15T07:44:57Z</time>
      </trkpt>
      <trkpt lat="41.862679626792669" lon="13.320101676508784">
        <ele>1452.209961</ele>
        <time>2017-06-15T07:45:10Z</time>
      </trkpt>
      <trkpt lat="41.862672585994005" lon="13.320138640701771">
        <ele>1452.690063</ele>
        <time>2017-06-15T07:45:15Z</time>
      </trkpt>
      <trkpt lat="41.862628497183323" lon="13.320240397006273">
        <ele>1454.130005</ele>
        <time>2017-06-15T07:45:28Z</time>
      </trkpt>
      <trkpt lat="41.862647021189332" lon="13.320262106135488">
        <ele>1455.570068</ele>
        <time>2017-06-15T07:45:33Z</time>
      </trkpt>
      <trkpt lat="41.862698821350932" lon="13.320289431139827">
        <ele>1456.5299070000001</ele>
        <time>2017-06-15T07:45:45Z</time>
      </trkpt>
      <trkpt lat="41.862709382548928" lon="13.320298567414284">
        <ele>1456.5299070000001</ele>
        <time>2017-06-15T07:45:50Z</time>
      </trkpt>
      <trkpt lat="41.862718435004354" lon="13.320395881310105">
        <ele>1458.459961</ele>
        <time>2017-06-15T07:46:01Z</time>
      </trkpt>
      <trkpt lat="41.862719105556607" lon="13.320516915991902">
        <ele>1460.8599850000001</ele>
        <time>2017-06-15T07:46:14Z</time>
      </trkpt>
      <trkpt lat="41.862758500501513" lon="13.320533763617277">
        <ele>1462.780029</ele>
        <time>2017-06-15T07:46:24Z</time>
      </trkpt>
      <trkpt lat="41.86276176944375" lon="13.32053828984499">
        <ele>1462.780029</ele>
        <time>2017-06-15T07:46:25Z</time>
      </trkpt>
      <trkpt lat="41.862735114991665" lon="13.320652032271028">
        <ele>1464.2299800000001</ele>
        <time>2017-06-15T07:46:36Z</time>
      </trkpt>
      <trkpt lat="41.862743915989995" lon="13.320699222385883">
        <ele>1465.1899410000001</ele>
        <time>2017-06-15T07:46:41Z</time>
      </trkpt>
      <trkpt lat="41.862766463309526" lon="13.320765858516097">
        <ele>1466.150024</ele>
        <time>2017-06-15T07:46:48Z</time>
      </trkpt>
      <trkpt lat="41.862768139690161" lon="13.32081338390708">
        <ele>1466.630005</ele>
        <time>2017-06-15T07:46:53Z</time>
      </trkpt>
      <trkpt lat="41.862769229337573" lon="13.320887815207243">
        <ele>1468.0699460000001</ele>
        <time>2017-06-15T07:47:01Z</time>
      </trkpt>
      <trkpt lat="41.862743832170963" lon="13.320932993665338">
        <ele>1468.5500489999999</ele>
        <time>2017-06-15T07:47:06Z</time>
      </trkpt>
      <trkpt lat="41.862720362842083" lon="13.321079760789871">
        <ele>1468.5500489999999</ele>
        <time>2017-06-15T07:47:18Z</time>
      </trkpt>
      <trkpt lat="41.862683314830065" lon="13.321101805195212">
        <ele>1468.0699460000001</ele>
        <time>2017-06-15T07:47:28Z</time>
      </trkpt>
      <trkpt lat="41.86268306337297" lon="13.321106499060988">
        <ele>1467.589966</ele>
        <time>2017-06-15T07:47:29Z</time>
      </trkpt>
      <trkpt lat="41.862651463598013" lon="13.321177493780851">
        <ele>1467.1099850000001</ele>
        <time>2017-06-15T07:47:36Z</time>
      </trkpt>
      <trkpt lat="41.862616930156946" lon="13.321243794634938">
        <ele>1467.1099850000001</ele>
        <time>2017-06-15T07:47:40Z</time>
      </trkpt>
      <trkpt lat="41.862611398100853" lon="13.321443032473326">
        <ele>1467.1099850000001</ele>
        <time>2017-06-15T07:47:53Z</time>
      </trkpt>
      <trkpt lat="41.862614415585995" lon="13.321468262001872">
        <ele>1467.1099850000001</ele>
        <time>2017-06-15T07:47:56Z</time>
      </trkpt>
      <trkpt lat="41.862608464434743" lon="13.321609580889344">
        <ele>1466.150024</ele>
        <time>2017-06-15T07:48:08Z</time>
      </trkpt>
      <trkpt lat="41.862599328160286" lon="13.321738829836249">
        <ele>1466.150024</ele>
        <time>2017-06-15T07:48:19Z</time>
      </trkpt>
      <trkpt lat="41.862600166350603" lon="13.321751235052943">
        <ele>1466.150024</ele>
        <time>2017-06-15T07:48:20Z</time>
      </trkpt>
      <trkpt lat="41.86259564012289" lon="13.321981402114034">
        <ele>1467.1099850000001</ele>
        <time>2017-06-15T07:48:32Z</time>
      </trkpt>
      <trkpt lat="41.862602680921555" lon="13.322128839790821">
        <ele>1467.589966</ele>
        <time>2017-06-15T07:48:42Z</time>
      </trkpt>
      <trkpt lat="41.86260636895895" lon="13.322206120938063">
        <ele>1468.0699460000001</ele>
        <time>2017-06-15T07:48:46Z</time>
      </trkpt>
      <trkpt lat="41.862611062824726" lon="13.322351882234216">
        <ele>1468.0699460000001</ele>
        <time>2017-06-15T07:48:56Z</time>
      </trkpt>
      <trkpt lat="41.86261223629117" lon="13.322445340454578">
        <ele>1468.5500489999999</ele>
        <time>2017-06-15T07:49:03Z</time>
      </trkpt>
      <trkpt lat="41.86260930262506" lon="13.322500577196479">
        <ele>1468.5500489999999</ele>
        <time>2017-06-15T07:49:07Z</time>
      </trkpt>
      <trkpt lat="41.862609386444092" lon="13.322573667392135">
        <ele>1469.51001</ele>
        <time>2017-06-15T07:49:13Z</time>
      </trkpt>
      <trkpt lat="41.862616259604692" lon="13.322614906355739">
        <ele>1469.51001</ele>
        <time>2017-06-15T07:49:17Z</time>
      </trkpt>
      <trkpt lat="41.862595304846764" lon="13.322660839185119">
        <ele>1469.51001</ele>
        <time>2017-06-15T07:49:20Z</time>
      </trkpt>
      <trkpt lat="41.862595807760954" lon="13.322723032906651">
        <ele>1469.51001</ele>
        <time>2017-06-15T07:49:26Z</time>
      </trkpt>
      <trkpt lat="41.862587928771973" lon="13.322745077311993">
        <ele>1468.5500489999999</ele>
        <time>2017-06-15T07:49:28Z</time>
      </trkpt>
      <trkpt lat="41.862622126936913" lon="13.32278061658144">
        <ele>1468.5500489999999</ele>
        <time>2017-06-15T07:49:36Z</time>
      </trkpt>
      <trkpt lat="41.862629503011703" lon="13.322819508612156">
        <ele>1469.51001</ele>
        <time>2017-06-15T07:49:39Z</time>
      </trkpt>
      <trkpt lat="41.862641740590334" lon="13.322847504168749">
        <ele>1469.51001</ele>
        <time>2017-06-15T07:49:42Z</time>
      </trkpt>
      <trkpt lat="41.862677112221718" lon="13.322987062856555">
        <ele>1471.440063</ele>
        <time>2017-06-15T07:49:55Z</time>
      </trkpt>
      <trkpt lat="41.862690104171634" lon="13.323017740622163">
        <ele>1471.440063</ele>
        <time>2017-06-15T07:49:58Z</time>
      </trkpt>
      <trkpt lat="41.86270359903574" lon="13.323101811110973">
        <ele>1471.440063</ele>
        <time>2017-06-15T07:50:06Z</time>
      </trkpt>
      <trkpt lat="41.862703263759613" lon="13.323219576850533">
        <ele>1469.98999</ele>
        <time>2017-06-15T07:50:14Z</time>
      </trkpt>
      <trkpt lat="41.862756740301847" lon="13.323391741141677">
        <ele>1469.51001</ele>
        <time>2017-06-15T07:50:25Z</time>
      </trkpt>
      <trkpt lat="41.862766798585653" lon="13.323531886562705">
        <ele>1469.030029</ele>
        <time>2017-06-15T07:50:34Z</time>
      </trkpt>
      <trkpt lat="41.862802086398005" lon="13.323612101376057">
        <ele>1468.5500489999999</ele>
        <time>2017-06-15T07:50:40Z</time>
      </trkpt>
      <trkpt lat="41.86280426569283" lon="13.323786361142993">
        <ele>1467.1099850000001</ele>
        <time>2017-06-15T07:50:51Z</time>
      </trkpt>
      <trkpt lat="41.862812396138906" lon="13.323827181011438">
        <ele>1466.630005</ele>
        <time>2017-06-15T07:50:54Z</time>
      </trkpt>
      <trkpt lat="41.862800158560276" lon="13.324019964784384">
        <ele>1466.150024</ele>
        <time>2017-06-15T07:51:06Z</time>
      </trkpt>
      <trkpt lat="41.862784819677472" lon="13.324215766042471">
        <ele>1466.150024</ele>
        <time>2017-06-15T07:51:17Z</time>
      </trkpt>
      <trkpt lat="41.8627989012748" lon="13.324401928111911">
        <ele>1466.630005</ele>
        <time>2017-06-15T07:51:30Z</time>
      </trkpt>
      <trkpt lat="41.862788088619709" lon="13.324432605877519">
        <ele>1466.630005</ele>
        <time>2017-06-15T07:51:45Z</time>
      </trkpt>
      <trkpt lat="41.862786998972297" lon="13.324428498744965">
        <ele>1466.630005</ele>
        <time>2017-06-15T07:51:59Z</time>
      </trkpt>
      <trkpt lat="41.862752633169293" lon="13.324542995542288">
        <ele>1466.630005</ele>
        <time>2017-06-15T07:52:17Z</time>
      </trkpt>
      <trkpt lat="41.862737881019711" lon="13.324557328596711">
        <ele>1466.630005</ele>
        <time>2017-06-15T07:52:19Z</time>
      </trkpt>
      <trkpt lat="41.862728577107191" lon="13.324569901451468">
        <ele>1466.150024</ele>
        <time>2017-06-15T07:52:20Z</time>
      </trkpt>
      <trkpt lat="41.862721536308527" lon="13.324579037725925">
        <ele>1466.150024</ele>
        <time>2017-06-15T07:52:21Z</time>
      </trkpt>
      <trkpt lat="41.862714076414704" lon="13.324591610580683">
        <ele>1465.669922</ele>
        <time>2017-06-15T07:52:22Z</time>
      </trkpt>
      <trkpt lat="41.86270896345377" lon="13.324606865644455">
        <ele>1465.669922</ele>
        <time>2017-06-15T07:52:23Z</time>
      </trkpt>
      <trkpt lat="41.862687589600682" lon="13.32467257976532">
        <ele>1465.669922</ele>
        <time>2017-06-15T07:52:28Z</time>
      </trkpt>
      <trkpt lat="41.862681470811367" lon="13.324685236439109">
        <ele>1465.669922</ele>
        <time>2017-06-15T07:52:29Z</time>
      </trkpt>
      <trkpt lat="41.862659174948931" lon="13.324723038822412">
        <ele>1465.669922</ele>
        <time>2017-06-15T07:52:32Z</time>
      </trkpt>
      <trkpt lat="41.862650290131569" lon="13.324726978316903">
        <ele>1465.669922</ele>
        <time>2017-06-15T07:52:33Z</time>
      </trkpt>
      <trkpt lat="41.862642662599683" lon="13.324731001630425">
        <ele>1465.1899410000001</ele>
        <time>2017-06-15T07:52:34Z</time>
      </trkpt>
      <trkpt lat="41.862636962905526" lon="13.324742568656802">
        <ele>1465.1899410000001</ele>
        <time>2017-06-15T07:52:35Z</time>
      </trkpt>
      <trkpt lat="41.862629922106862" lon="13.32475908100605">
        <ele>1465.1899410000001</ele>
        <time>2017-06-15T07:52:36Z</time>
      </trkpt>
      <trkpt lat="41.862623216584325" lon="13.324772240594029">
        <ele>1465.1899410000001</ele>
        <time>2017-06-15T07:52:37Z</time>
      </trkpt>
      <trkpt lat="41.862586084753275" lon="13.324808701872826">
        <ele>1464.2299800000001</ele>
        <time>2017-06-15T07:52:42Z</time>
      </trkpt>
      <trkpt lat="41.862448872998357" lon="13.324917498975992">
        <ele>1461.820068</ele>
        <time>2017-06-15T07:52:59Z</time>
      </trkpt>
      <trkpt lat="41.862397072836757" lon="13.324971981346607">
        <ele>1460.8599850000001</ele>
        <time>2017-06-15T07:53:05Z</time>
      </trkpt>
      <trkpt lat="41.862304117530584" lon="13.325113300234079">
        <ele>1458.459961</ele>
        <time>2017-06-15T07:53:18Z</time>
      </trkpt>
      <trkpt lat="41.862175203859806" lon="13.325253361836076">
        <ele>1457.5</ele>
        <time>2017-06-15T07:53:31Z</time>
      </trkpt>
      <trkpt lat="41.862091803923249" lon="13.325382694602013">
        <ele>1457.0200199999999</ele>
        <time>2017-06-15T07:53:41Z</time>
      </trkpt>
      <trkpt lat="41.861969428136945" lon="13.325580675154924">
        <ele>1457.5</ele>
        <time>2017-06-15T07:53:57Z</time>
      </trkpt>
      <trkpt lat="41.861956436187029" lon="13.325637336820364">
        <ele>1457.5</ele>
        <time>2017-06-15T07:54:02Z</time>
      </trkpt>
      <trkpt lat="41.861948808655143" lon="13.32565133459866">
        <ele>1457.5</ele>
        <time>2017-06-15T07:54:03Z</time>
      </trkpt>
      <trkpt lat="41.861940762028098" lon="13.32566499710083">
        <ele>1457.5</ele>
        <time>2017-06-15T07:54:04Z</time>
      </trkpt>
      <trkpt lat="41.861932883039117" lon="13.325681425631046">
        <ele>1457.5</ele>
        <time>2017-06-15T07:54:05Z</time>
      </trkpt>
      <trkpt lat="41.861924836412072" lon="13.325696513056755">
        <ele>1457.5</ele>
        <time>2017-06-15T07:54:06Z</time>
      </trkpt>
      <trkpt lat="41.861915197223425" lon="13.325716881081462">
        <ele>1457.5</ele>
        <time>2017-06-15T07:54:07Z</time>
      </trkpt>
      <trkpt lat="41.861907569691539" lon="13.325739009305835">
        <ele>1457.5</ele>
        <time>2017-06-15T07:54:08Z</time>
      </trkpt>
      <trkpt lat="41.861859038472176" lon="13.325906731188297">
        <ele>1459.900024</ele>
        <time>2017-06-15T07:54:19Z</time>
      </trkpt>
      <trkpt lat="41.861791899427772" lon="13.326082583516836">
        <ele>1459.900024</ele>
        <time>2017-06-15T07:54:31Z</time>
      </trkpt>
      <trkpt lat="41.861745463684201" lon="13.326180232688785">
        <ele>1460.380005</ele>
        <time>2017-06-15T07:54:37Z</time>
      </trkpt>
      <trkpt lat="41.861745296046138" lon="13.326193140819669">
        <ele>1460.380005</ele>
        <time>2017-06-15T07:54:38Z</time>
      </trkpt>
      <trkpt lat="41.861746972426772" lon="13.326205965131521">
        <ele>1460.380005</ele>
        <time>2017-06-15T07:54:39Z</time>
      </trkpt>
      <trkpt lat="41.861730208620429" lon="13.326268577948213">
        <ele>1460.380005</ele>
        <time>2017-06-15T07:54:45Z</time>
      </trkpt>
      <trkpt lat="41.861720737069845" lon="13.326285677030683">
        <ele>1460.380005</ele>
        <time>2017-06-15T07:54:46Z</time>
      </trkpt>
      <trkpt lat="41.861710092052817" lon="13.326303195208311">
        <ele>1461.339966</ele>
        <time>2017-06-15T07:54:47Z</time>
      </trkpt>
      <trkpt lat="41.861696681007743" lon="13.3263192884624">
        <ele>1460.8599850000001</ele>
        <time>2017-06-15T07:54:48Z</time>
      </trkpt>
      <trkpt lat="41.861685113981366" lon="13.326336639001966">
        <ele>1461.339966</ele>
        <time>2017-06-15T07:54:49Z</time>
      </trkpt>
      <trkpt lat="41.861672541126609" lon="13.326356168836355">
        <ele>1461.339966</ele>
        <time>2017-06-15T07:54:50Z</time>
      </trkpt>
      <trkpt lat="41.861656615510583" lon="13.326516598463058">
        <ele>1459.900024</ele>
        <time>2017-06-15T07:55:02Z</time>
      </trkpt>
      <trkpt lat="41.86160028912127" lon="13.326711729168892">
        <ele>1459.900024</ele>
        <time>2017-06-15T07:55:14Z</time>
      </trkpt>
      <trkpt lat="41.861560558900237" lon="13.326887162402272">
        <ele>1459.900024</ele>
        <time>2017-06-15T07:55:28Z</time>
      </trkpt>
      <trkpt lat="41.86148595996201" lon="13.32709327340126">
        <ele>1459.900024</ele>
        <time>2017-06-15T07:55:41Z</time>
      </trkpt>
      <trkpt lat="41.861464669927955" lon="13.327136440202594">
        <ele>1459.900024</ele>
        <time>2017-06-15T07:55:45Z</time>
      </trkpt>
      <trkpt lat="41.861452097073197" lon="13.327144319191575">
        <ele>1459.900024</ele>
        <time>2017-06-15T07:55:46Z</time>
      </trkpt>
      <trkpt lat="41.861440781503916" lon="13.327157059684396">
        <ele>1459.420044</ele>
        <time>2017-06-15T07:55:47Z</time>
      </trkpt>
      <trkpt lat="41.861418401822448" lon="13.327181367203593">
        <ele>1458.9399410000001</ele>
        <time>2017-06-15T07:55:56Z</time>
      </trkpt>
      <trkpt lat="41.861399374902248" lon="13.327201567590237">
        <ele>1458.459961</ele>
        <time>2017-06-15T07:55:58Z</time>
      </trkpt>
      <trkpt lat="41.861323937773705" lon="13.3274054992944">
        <ele>1457.0200199999999</ele>
        <time>2017-06-15T07:56:11Z</time>
      </trkpt>
      <trkpt lat="41.861254032701254" lon="13.327649412676692">
        <ele>1456.5299070000001</ele>
        <time>2017-06-15T07:56:27Z</time>
      </trkpt>
      <trkpt lat="41.861197873950005" lon="13.327840603888035">
        <ele>1457.9799800000001</ele>
        <time>2017-06-15T07:56:40Z</time>
      </trkpt>
      <trkpt lat="41.861170716583729" lon="13.327909922227263">
        <ele>1458.459961</ele>
        <time>2017-06-15T07:56:45Z</time>
      </trkpt>
      <trkpt lat="41.861117575317621" lon="13.328033974394202">
        <ele>1458.459961</ele>
        <time>2017-06-15T07:56:53Z</time>
      </trkpt>
      <trkpt lat="41.861106930300593" lon="13.32805048674345">
        <ele>1458.459961</ele>
        <time>2017-06-15T07:56:54Z</time>
      </trkpt>
      <trkpt lat="41.8610979616642" lon="13.328062975779176">
        <ele>1458.459961</ele>
        <time>2017-06-15T07:56:55Z</time>
      </trkpt>
      <trkpt lat="41.861086981371045" lon="13.328080913051963">
        <ele>1458.459961</ele>
        <time>2017-06-15T07:56:56Z</time>
      </trkpt>
      <trkpt lat="41.861079772934318" lon="13.328097760677338">
        <ele>1458.459961</ele>
        <time>2017-06-15T07:56:57Z</time>
      </trkpt>
      <trkpt lat="41.861075581982732" lon="13.328116871416569">
        <ele>1458.459961</ele>
        <time>2017-06-15T07:56:58Z</time>
      </trkpt>
      <trkpt lat="41.861071307212114" lon="13.328138161450624">
        <ele>1458.459961</ele>
        <time>2017-06-15T07:56:59Z</time>
      </trkpt>
      <trkpt lat="41.861062841489911" lon="13.328157691285014">
        <ele>1458.459961</ele>
        <time>2017-06-15T07:57:00Z</time>
      </trkpt>
      <trkpt lat="41.861053202301264" lon="13.328177724033594">
        <ele>1458.459961</ele>
        <time>2017-06-15T07:57:01Z</time>
      </trkpt>
      <trkpt lat="41.861045239493251" lon="13.328196331858635">
        <ele>1458.459961</ele>
        <time>2017-06-15T07:57:02Z</time>
      </trkpt>
      <trkpt lat="41.861026212573051" lon="13.328264812007546">
        <ele>1457.0200199999999</ele>
        <time>2017-06-15T07:57:07Z</time>
      </trkpt>
      <trkpt lat="41.86094063334167" lon="13.3284917101264">
        <ele>1457.5</ele>
        <time>2017-06-15T07:57:24Z</time>
      </trkpt>
      <trkpt lat="41.86086393892765" lon="13.328635459765792">
        <ele>1457.5</ele>
        <time>2017-06-15T07:57:38Z</time>
      </trkpt>
      <trkpt lat="41.860780119895935" lon="13.328875685110688">
        <ele>1456.0500489999999</ele>
        <time>2017-06-15T07:57:54Z</time>
      </trkpt>
      <trkpt lat="41.860775928944349" lon="13.328951122239232">
        <ele>1456.0500489999999</ele>
        <time>2017-06-15T07:57:59Z</time>
      </trkpt>
      <trkpt lat="41.860709125176072" lon="13.329111635684967">
        <ele>1456.0500489999999</ele>
        <time>2017-06-15T07:58:08Z</time>
      </trkpt>
      <trkpt lat="41.860702335834503" lon="13.3291254658252">
        <ele>1456.0500489999999</ele>
        <time>2017-06-15T07:58:09Z</time>
      </trkpt>
      <trkpt lat="41.860697139054537" lon="13.32913963124156">
        <ele>1456.0500489999999</ele>
        <time>2017-06-15T07:58:10Z</time>
      </trkpt>
      <trkpt lat="41.860631760209799" lon="13.329366529360414">
        <ele>1456.0500489999999</ele>
        <time>2017-06-15T07:58:27Z</time>
      </trkpt>
      <trkpt lat="41.860579289495945" lon="13.329503489658237">
        <ele>1456.0500489999999</ele>
        <time>2017-06-15T07:58:34Z</time>
      </trkpt>
      <trkpt lat="41.860566129907966" lon="13.329522265121341">
        <ele>1455.0900879999999</ele>
        <time>2017-06-15T07:58:35Z</time>
      </trkpt>
      <trkpt lat="41.860557664185762" lon="13.329537268728018">
        <ele>1455.0900879999999</ele>
        <time>2017-06-15T07:58:36Z</time>
      </trkpt>
      <trkpt lat="41.86055070720613" lon="13.329711863771081">
        <ele>1454.6099850000001</ele>
        <time>2017-06-15T07:58:50Z</time>
      </trkpt>
      <trkpt lat="41.860468313097954" lon="13.329933397471905">
        <ele>1455.0900879999999</ele>
        <time>2017-06-15T07:59:03Z</time>
      </trkpt>
      <trkpt lat="41.860435539856553" lon="13.330082092434168">
        <ele>1455.570068</ele>
        <time>2017-06-15T07:59:17Z</time>
      </trkpt>
      <trkpt lat="41.860393965616822" lon="13.330163983628154">
        <ele>1454.130005</ele>
        <time>2017-06-15T07:59:23Z</time>
      </trkpt>
      <trkpt lat="41.860349709168077" lon="13.330389289185405">
        <ele>1452.690063</ele>
        <time>2017-06-15T07:59:37Z</time>
      </trkpt>
      <trkpt lat="41.860337806865573" lon="13.33057033829391">
        <ele>1452.209961</ele>
        <time>2017-06-15T07:59:50Z</time>
      </trkpt>
      <trkpt lat="41.860342584550381" lon="13.330617109313607">
        <ele>1452.690063</ele>
        <time>2017-06-15T07:59:54Z</time>
      </trkpt>
      <trkpt lat="41.860316684469581" lon="13.330684499815106">
        <ele>1453.650024</ele>
        <time>2017-06-15T07:59:59Z</time>
      </trkpt>
      <trkpt lat="41.860267231240869" lon="13.330870661884546">
        <ele>1454.130005</ele>
        <time>2017-06-15T08:00:12Z</time>
      </trkpt>
      <trkpt lat="41.860220627859235" lon="13.330972585827112">
        <ele>1454.130005</ele>
        <time>2017-06-15T08:00:26Z</time>
      </trkpt>
      <trkpt lat="41.860190285369754" lon="13.331003012135625">
        <ele>1452.690063</ele>
        <time>2017-06-15T08:00:48Z</time>
      </trkpt>
      <trkpt lat="41.860141335055232" lon="13.331111641600728">
        <ele>1451.25</ele>
        <time>2017-06-15T08:00:58Z</time>
      </trkpt>
      <trkpt lat="41.860138736665249" lon="13.331125639379025">
        <ele>1451.25</ele>
        <time>2017-06-15T08:00:59Z</time>
      </trkpt>
      <trkpt lat="41.860026586800814" lon="13.331255223602057">
        <ele>1450.290039</ele>
        <time>2017-06-15T08:01:12Z</time>
      </trkpt>
      <trkpt lat="41.859980989247561" lon="13.331300485879183">
        <ele>1450.290039</ele>
        <time>2017-06-15T08:01:17Z</time>
      </trkpt>
      <trkpt lat="41.859966907650232" lon="13.331308867782354">
        <ele>1450.290039</ele>
        <time>2017-06-15T08:01:18Z</time>
      </trkpt>
      <trkpt lat="41.859924579039216" lon="13.331401739269495">
        <ele>1451.7299800000001</ele>
        <time>2017-06-15T08:01:29Z</time>
      </trkpt>
      <trkpt lat="41.859907396137714" lon="13.331463430076838">
        <ele>1452.209961</ele>
        <time>2017-06-15T08:01:35Z</time>
      </trkpt>
      <trkpt lat="41.859905887395144" lon="13.331477763131261">
        <ele>1452.209961</ele>
        <time>2017-06-15T08:01:36Z</time>
      </trkpt>
      <trkpt lat="41.859897337853909" lon="13.331532496958971">
        <ele>1453.650024</ele>
        <time>2017-06-15T08:01:42Z</time>
      </trkpt>
      <trkpt lat="41.859879400581121" lon="13.331559905782342">
        <ele>1453.650024</ele>
        <time>2017-06-15T08:01:44Z</time>
      </trkpt>
      <trkpt lat="41.859849812462926" lon="13.331607263535261">
        <ele>1454.130005</ele>
        <time>2017-06-15T08:01:48Z</time>
      </trkpt>
      <trkpt lat="41.859827181324363" lon="13.331689741462469">
        <ele>1455.570068</ele>
        <time>2017-06-15T08:01:55Z</time>
      </trkpt>
      <trkpt lat="41.859788959845901" lon="13.331771213561296">
        <ele>1456.0500489999999</ele>
        <time>2017-06-15T08:02:02Z</time>
      </trkpt>
      <trkpt lat="41.859782924875617" lon="13.331828964874148">
        <ele>1457.0200199999999</ele>
        <time>2017-06-15T08:02:08Z</time>
      </trkpt>
      <trkpt lat="41.859743362292647" lon="13.331907084211707">
        <ele>1457.0200199999999</ele>
        <time>2017-06-15T08:02:15Z</time>
      </trkpt>
      <trkpt lat="41.859683431684971" lon="13.332110596820712">
        <ele>1457.9799800000001</ele>
        <time>2017-06-15T08:02:30Z</time>
      </trkpt>
      <trkpt lat="41.859640013426542" lon="13.332270439714193">
        <ele>1458.9399410000001</ele>
        <time>2017-06-15T08:02:43Z</time>
      </trkpt>
      <trkpt lat="41.859624003991485" lon="13.332386612892151">
        <ele>1458.9399410000001</ele>
        <time>2017-06-15T08:02:52Z</time>
      </trkpt>
      <trkpt lat="41.859580166637897" lon="13.332497086375952">
        <ele>1458.459961</ele>
        <time>2017-06-15T08:03:05Z</time>
      </trkpt>
      <trkpt lat="41.859501292929053" lon="13.332673441618681">
        <ele>1456.5299070000001</ele>
        <time>2017-06-15T08:03:19Z</time>
      </trkpt>
      <trkpt lat="41.859493162482977" lon="13.332722224295139">
        <ele>1456.5299070000001</ele>
        <time>2017-06-15T08:03:22Z</time>
      </trkpt>
      <trkpt lat="41.859451336786151" lon="13.332893801853061">
        <ele>1456.5299070000001</ele>
        <time>2017-06-15T08:03:35Z</time>
      </trkpt>
      <trkpt lat="41.85939266346395" lon="13.333073677495122">
        <ele>1456.0500489999999</ele>
        <time>2017-06-15T08:03:48Z</time>
      </trkpt>
      <trkpt lat="41.859350418671966" lon="13.333254307508469">
        <ele>1455.0900879999999</ele>
        <time>2017-06-15T08:04:03Z</time>
      </trkpt>
      <trkpt lat="41.859345892444253" lon="13.333280961960554">
        <ele>1456.0500489999999</ele>
        <time>2017-06-15T08:04:05Z</time>
      </trkpt>
      <trkpt lat="41.859299289062619" lon="13.333383221179247">
        <ele>1456.0500489999999</ele>
        <time>2017-06-15T08:04:15Z</time>
      </trkpt>
      <trkpt lat="41.859261821955442" lon="13.333435859531164">
        <ele>1454.6099850000001</ele>
        <time>2017-06-15T08:04:19Z</time>
      </trkpt>
      <trkpt lat="41.859199460595846" lon="13.33362428471446">
        <ele>1453.170044</ele>
        <time>2017-06-15T08:04:32Z</time>
      </trkpt>
      <trkpt lat="41.859158389270306" lon="13.333751941099763">
        <ele>1452.209961</ele>
        <time>2017-06-15T08:04:44Z</time>
      </trkpt>
      <trkpt lat="41.859144559130073" lon="13.33382117561996">
        <ele>1451.25</ele>
        <time>2017-06-15T08:04:49Z</time>
      </trkpt>
      <trkpt lat="41.859146822243929" lon="13.333884961903095">
        <ele>1452.690063</ele>
        <time>2017-06-15T08:04:54Z</time>
      </trkpt>
      <trkpt lat="41.859100218862295" lon="13.333974983543158">
        <ele>1451.7299800000001</ele>
        <time>2017-06-15T08:05:02Z</time>
      </trkpt>
      <trkpt lat="41.859031403437257" lon="13.334186458960176">
        <ele>1451.25</ele>
        <time>2017-06-15T08:05:17Z</time>
      </trkpt>
      <trkpt lat="41.859006760641932" lon="13.33423113450408">
        <ele>1450.7700199999999</ele>
        <time>2017-06-15T08:05:20Z</time>
      </trkpt>
      <trkpt lat="41.858937358483672" lon="13.334419811144471">
        <ele>1449.3199460000001</ele>
        <time>2017-06-15T08:05:33Z</time>
      </trkpt>
      <trkpt lat="41.858921935781837" lon="13.334474125877023">
        <ele>1449.8100589999999</ele>
        <time>2017-06-15T08:05:36Z</time>
      </trkpt>
      <trkpt lat="41.85891673900187" lon="13.334560040384531">
        <ele>1449.8100589999999</ele>
        <time>2017-06-15T08:05:41Z</time>
      </trkpt>
      <trkpt lat="41.85886736959219" lon="13.334763636812568">
        <ele>1449.3199460000001</ele>
        <time>2017-06-15T08:05:54Z</time>
      </trkpt>
      <trkpt lat="41.858848510310054" lon="13.334931107237935">
        <ele>1448.839966</ele>
        <time>2017-06-15T08:06:07Z</time>
      </trkpt>
      <trkpt lat="41.858757818117738" lon="13.335141241550446">
        <ele>1446.919922</ele>
        <time>2017-06-15T08:06:22Z</time>
      </trkpt>
      <trkpt lat="41.858731918036938" lon="13.335267724469304">
        <ele>1448.3599850000001</ele>
        <time>2017-06-15T08:06:32Z</time>
      </trkpt>
      <trkpt lat="41.858677938580513" lon="13.335387418046594">
        <ele>1448.839966</ele>
        <time>2017-06-15T08:06:43Z</time>
      </trkpt>
      <trkpt lat="41.858654720708728" lon="13.335451539605856">
        <ele>1447.3999020000001</ele>
        <time>2017-06-15T08:06:47Z</time>
      </trkpt>
      <trkpt lat="41.858561262488365" lon="13.335657734423876">
        <ele>1445.9600829999999</ele>
        <time>2017-06-15T08:07:03Z</time>
      </trkpt>
      <trkpt lat="41.858524717390537" lon="13.335727471858263">
        <ele>1445</ele>
        <time>2017-06-15T08:07:09Z</time>
      </trkpt>
      <trkpt lat="41.858483562245965" lon="13.335788240656257">
        <ele>1445</ele>
        <time>2017-06-15T08:07:16Z</time>
      </trkpt>
      <trkpt lat="41.858479371294379" lon="13.335848422721028">
        <ele>1445.4801030000001</ele>
        <time>2017-06-15T08:07:29Z</time>
      </trkpt>
      <trkpt lat="41.858451040461659" lon="13.335853116586804">
        <ele>1445.9600829999999</ele>
        <time>2017-06-15T08:07:47Z</time>
      </trkpt>
      <trkpt lat="41.858447939157486" lon="13.335812715813518">
        <ele>1445.9600829999999</ele>
        <time>2017-06-15T08:08:12Z</time>
      </trkpt>
      <trkpt lat="41.858441820368171" lon="13.33582554012537">
        <ele>1444.040039</ele>
        <time>2017-06-15T08:08:36Z</time>
      </trkpt>
      <trkpt lat="41.858434611931443" lon="13.335889494046569">
        <ele>1445.9600829999999</ele>
        <time>2017-06-15T08:08:58Z</time>
      </trkpt>
      <trkpt lat="41.858455734327435" lon="13.335824701935053">
        <ele>1445.9600829999999</ele>
        <time>2017-06-15T08:09:14Z</time>
      </trkpt>
      <trkpt lat="41.858478700742126" lon="13.33579913713038">
        <ele>1445.9600829999999</ele>
        <time>2017-06-15T08:09:40Z</time>
      </trkpt>
      <trkpt lat="41.858442574739456" lon="13.335860325023532">
        <ele>1445.9600829999999</ele>
        <time>2017-06-15T08:10:01Z</time>
      </trkpt>
      <trkpt lat="41.858473420143127" lon="13.335843477398157">
        <ele>1445.9600829999999</ele>
        <time>2017-06-15T08:10:21Z</time>
      </trkpt>
      <trkpt lat="41.858457997441292" lon="13.335860827937722">
        <ele>1443.080078</ele>
        <time>2017-06-15T08:10:31Z</time>
      </trkpt>
      <trkpt lat="41.858461098745465" lon="13.33587390370667">
        <ele>1446.919922</ele>
        <time>2017-06-15T08:10:45Z</time>
      </trkpt>
      <trkpt lat="41.858452465385199" lon="13.335914639756083">
        <ele>1444.5200199999999</ele>
        <time>2017-06-15T08:10:59Z</time>
      </trkpt>
      <trkpt lat="41.858459338545799" lon="13.33592033945024">
        <ele>1444.5200199999999</ele>
        <time>2017-06-15T08:11:05Z</time>
      </trkpt>
      <trkpt lat="41.858465541154146" lon="13.335852026939392">
        <ele>1445.9600829999999</ele>
        <time>2017-06-15T08:11:13Z</time>
      </trkpt>
      <trkpt lat="41.858423128724098" lon="13.335905084386468">
        <ele>1445.9600829999999</ele>
        <time>2017-06-15T08:11:29Z</time>
      </trkpt>
      <trkpt lat="41.858417093753815" lon="13.335903072729707">
        <ele>1441.630005</ele>
        <time>2017-06-15T08:11:32Z</time>
      </trkpt>
      <trkpt lat="41.858418015763164" lon="13.335907515138388">
        <ele>1443.080078</ele>
        <time>2017-06-15T08:11:33Z</time>
      </trkpt>
      <trkpt lat="41.858419440686703" lon="13.335907682776451">
        <ele>1444.040039</ele>
        <time>2017-06-15T08:11:35Z</time>
      </trkpt>
      <trkpt lat="41.858446514233947" lon="13.335843393579125">
        <ele>1444.5200199999999</ele>
        <time>2017-06-15T08:11:47Z</time>
      </trkpt>
      <trkpt lat="41.858451962471008" lon="13.335843561217189">
        <ele>1445.9600829999999</ele>
        <time>2017-06-15T08:12:07Z</time>
      </trkpt>
      <trkpt lat="41.858445759862661" lon="13.335863677784801">
        <ele>1446.440063</ele>
        <time>2017-06-15T08:12:33Z</time>
      </trkpt>
      <trkpt lat="41.858445927500725" lon="13.33586267195642">
        <ele>1446.440063</ele>
        <time>2017-06-15T08:12:59Z</time>
      </trkpt>
      <trkpt lat="41.858438719063997" lon="13.335852781310678">
        <ele>1446.440063</ele>
        <time>2017-06-15T08:13:16Z</time>
      </trkpt>
      <trkpt lat="41.858373675495386" lon="13.335822438821197">
        <ele>1445.4801030000001</ele>
        <time>2017-06-15T08:13:43Z</time>
      </trkpt>
      <trkpt lat="41.858390523120761" lon="13.335860827937722">
        <ele>1446.919922</ele>
        <time>2017-06-15T08:13:54Z</time>
      </trkpt>
      <trkpt lat="41.858422039076686" lon="13.335883459076285">
        <ele>1446.919922</ele>
        <time>2017-06-15T08:14:16Z</time>
      </trkpt>
      <trkpt lat="41.858421033248305" lon="13.335872227326035">
        <ele>1445.4801030000001</ele>
        <time>2017-06-15T08:14:32Z</time>
      </trkpt>
      <trkpt lat="41.85843251645565" lon="13.335845991969109">
        <ele>1445.9600829999999</ele>
        <time>2017-06-15T08:14:48Z</time>
      </trkpt>
      <trkpt lat="41.858461014926434" lon="13.335812129080296">
        <ele>1445.9600829999999</ele>
        <time>2017-06-15T08:15:06Z</time>
      </trkpt>
      <trkpt lat="41.858419021591544" lon="13.335846578702331">
        <ele>1445.9600829999999</ele>
        <time>2017-06-15T08:15:25Z</time>
      </trkpt>
      <trkpt lat="41.858422039076686" lon="13.3358602412045">
        <ele>1445.9600829999999</ele>
        <time>2017-06-15T08:15:40Z</time>
      </trkpt>
      <trkpt lat="41.858420614153147" lon="13.335898714140058">
        <ele>1445.9600829999999</ele>
        <time>2017-06-15T08:16:03Z</time>
      </trkpt>
      <trkpt lat="41.858453387394547" lon="13.335851859301329">
        <ele>1446.440063</ele>
        <time>2017-06-15T08:16:21Z</time>
      </trkpt>
      <trkpt lat="41.858436539769173" lon="13.335892595350742">
        <ele>1446.440063</ele>
        <time>2017-06-15T08:16:37Z</time>
      </trkpt>
      <trkpt lat="41.858413740992546" lon="13.335923105478287">
        <ele>1446.440063</ele>
        <time>2017-06-15T08:16:44Z</time>
      </trkpt>
      <trkpt lat="41.858387505635619" lon="13.33600583486259">
        <ele>1445.4801030000001</ele>
        <time>2017-06-15T08:16:49Z</time>
      </trkpt>
      <trkpt lat="41.858382560312748" lon="13.336104322224855">
        <ele>1446.919922</ele>
        <time>2017-06-15T08:17:03Z</time>
      </trkpt>
      <trkpt lat="41.858375687152147" lon="13.336251592263579">
        <ele>1447.8801269999999</ele>
        <time>2017-06-15T08:17:13Z</time>
      </trkpt>
      <trkpt lat="41.858396222814918" lon="13.336396683007479">
        <ele>1449.3199460000001</ele>
        <time>2017-06-15T08:17:23Z</time>
      </trkpt>
      <trkpt lat="41.858393792062998" lon="13.336513191461563">
        <ele>1450.7700199999999</ele>
        <time>2017-06-15T08:17:32Z</time>
      </trkpt>
      <trkpt lat="41.858408292755485" lon="13.336595417931676">
        <ele>1453.170044</ele>
        <time>2017-06-15T08:17:45Z</time>
      </trkpt>
      <trkpt lat="41.858410136774182" lon="13.336608661338687">
        <ele>1453.170044</ele>
        <time>2017-06-15T08:17:47Z</time>
      </trkpt>
      <trkpt lat="41.858349535614252" lon="13.336817789822817">
        <ele>1453.170044</ele>
        <time>2017-06-15T08:18:02Z</time>
      </trkpt>
      <trkpt lat="41.858356241136789" lon="13.336952487006783">
        <ele>1455.0900879999999</ele>
        <time>2017-06-15T08:18:15Z</time>
      </trkpt>
      <trkpt lat="41.858361186459661" lon="13.336962461471558">
        <ele>1456.0500489999999</ele>
        <time>2017-06-15T08:18:16Z</time>
      </trkpt>
      <trkpt lat="41.858333358541131" lon="13.337126998230815">
        <ele>1457.0200199999999</ele>
        <time>2017-06-15T08:18:30Z</time>
      </trkpt>
      <trkpt lat="41.858308799564838" lon="13.337207464501262">
        <ele>1457.5</ele>
        <time>2017-06-15T08:18:36Z</time>
      </trkpt>
      <trkpt lat="41.858240738511086" lon="13.337328331544995">
        <ele>1457.5</ele>
        <time>2017-06-15T08:18:45Z</time>
      </trkpt>
      <trkpt lat="41.858167564496398" lon="13.337505022063851">
        <ele>1457.9799800000001</ele>
        <time>2017-06-15T08:19:00Z</time>
      </trkpt>
      <trkpt lat="41.858124732971191" lon="13.337630666792393">
        <ele>1459.420044</ele>
        <time>2017-06-15T08:19:13Z</time>
      </trkpt>
      <trkpt lat="41.858125990256667" lon="13.337659584358335">
        <ele>1459.900024</ele>
        <time>2017-06-15T08:19:17Z</time>
      </trkpt>
      <trkpt lat="41.858076034113765" lon="13.337760837748647">
        <ele>1461.339966</ele>
        <time>2017-06-15T08:19:30Z</time>
      </trkpt>
      <trkpt lat="41.858043679967523" lon="13.337810123339295">
        <ele>1461.339966</ele>
        <time>2017-06-15T08:19:35Z</time>
      </trkpt>
      <trkpt lat="41.857929015532136" lon="13.337869215756655">
        <ele>1462.3000489999999</ele>
        <time>2017-06-15T08:19:43Z</time>
      </trkpt>
      <trkpt lat="41.857871264219284" lon="13.337975414469838">
        <ele>1463.73999</ele>
        <time>2017-06-15T08:19:56Z</time>
      </trkpt>
      <trkpt lat="41.857863217592239" lon="13.338049510493875">
        <ele>1465.669922</ele>
        <time>2017-06-15T08:20:05Z</time>
      </trkpt>
      <trkpt lat="41.857827007770538" lon="13.338159564882517">
        <ele>1467.589966</ele>
        <time>2017-06-15T08:20:19Z</time>
      </trkpt>
      <trkpt lat="41.857782835140824" lon="13.338225781917572">
        <ele>1468.5500489999999</ele>
        <time>2017-06-15T08:20:26Z</time>
      </trkpt>
      <trkpt lat="41.85772298835218" lon="13.338316641747952">
        <ele>1469.030029</ele>
        <time>2017-06-15T08:20:34Z</time>
      </trkpt>
      <trkpt lat="41.857624836266041" lon="13.338486375287175">
        <ele>1469.51001</ele>
        <time>2017-06-15T08:20:47Z</time>
      </trkpt>
      <trkpt lat="41.857573203742504" lon="13.338595172390342">
        <ele>1468.5500489999999</ele>
        <time>2017-06-15T08:20:57Z</time>
      </trkpt>
      <trkpt lat="41.857576807960868" lon="13.338671866804361">
        <ele>1469.98999</ele>
        <time>2017-06-15T08:21:05Z</time>
      </trkpt>
      <trkpt lat="41.857563564553857" lon="13.338824165984988">
        <ele>1471.919922</ele>
        <time>2017-06-15T08:21:19Z</time>
      </trkpt>
      <trkpt lat="41.857558200135827" lon="13.338857023045421">
        <ele>1473.3599850000001</ele>
        <time>2017-06-15T08:21:23Z</time>
      </trkpt>
      <trkpt lat="41.857503382489085" lon="13.33903731778264">
        <ele>1473.839966</ele>
        <time>2017-06-15T08:21:37Z</time>
      </trkpt>
      <trkpt lat="41.857466166839004" lon="13.339221887290478">
        <ele>1474.799927</ele>
        <time>2017-06-15T08:21:51Z</time>
      </trkpt>
      <trkpt lat="41.857464574277401" lon="13.339253822341561">
        <ele>1475.76001</ele>
        <time>2017-06-15T08:21:54Z</time>
      </trkpt>
      <trkpt lat="41.857432136312127" lon="13.339343089610338">
        <ele>1475.76001</ele>
        <time>2017-06-15T08:22:01Z</time>
      </trkpt>
      <trkpt lat="41.857422161847353" lon="13.339402182027698">
        <ele>1475.76001</ele>
        <time>2017-06-15T08:22:05Z</time>
      </trkpt>
      <trkpt lat="41.857414618134499" lon="13.339444426819682">
        <ele>1476.719971</ele>
        <time>2017-06-15T08:22:09Z</time>
      </trkpt>
      <trkpt lat="41.857416797429323" lon="13.339567640796304">
        <ele>1477.1999510000001</ele>
        <time>2017-06-15T08:22:18Z</time>
      </trkpt>
      <trkpt lat="41.857394585385919" lon="13.339668810367584">
        <ele>1478.650024</ele>
        <time>2017-06-15T08:22:26Z</time>
      </trkpt>
      <trkpt lat="41.857375474646688" lon="13.339823875576258">
        <ele>1480.0900879999999</ele>
        <time>2017-06-15T08:22:40Z</time>
      </trkpt>
      <trkpt lat="41.857340522110462" lon="13.340000063180923">
        <ele>1481.0500489999999</ele>
        <time>2017-06-15T08:22:53Z</time>
      </trkpt>
      <trkpt lat="41.85734773054719" lon="13.340024538338184">
        <ele>1481.0500489999999</ele>
        <time>2017-06-15T08:22:55Z</time>
      </trkpt>
      <trkpt lat="41.857268940657377" lon="13.340183040127158">
        <ele>1481.0500489999999</ele>
        <time>2017-06-15T08:23:08Z</time>
      </trkpt>
      <trkpt lat="41.857197778299451" lon="13.340330058708787">
        <ele>1482.009888</ele>
        <time>2017-06-15T08:23:21Z</time>
      </trkpt>
      <trkpt lat="41.857095435261726" lon="13.340427288785577">
        <ele>1483.4499510000001</ele>
        <time>2017-06-15T08:23:36Z</time>
      </trkpt>
      <trkpt lat="41.856990661472082" lon="13.340519070625305">
        <ele>1483.4499510000001</ele>
        <time>2017-06-15T08:23:49Z</time>
      </trkpt>
      <trkpt lat="41.856942297890782" lon="13.340649912133813">
        <ele>1485.849976</ele>
        <time>2017-06-15T08:24:00Z</time>
      </trkpt>
      <trkpt lat="41.856922768056393" lon="13.340710261836648">
        <ele>1485.849976</ele>
        <time>2017-06-15T08:24:05Z</time>
      </trkpt>
      <trkpt lat="41.856862837448716" lon="13.340846886858344">
        <ele>1486.820068</ele>
        <time>2017-06-15T08:24:18Z</time>
      </trkpt>
      <trkpt lat="41.85675261542201" lon="13.340998515486717">
        <ele>1488.26001</ele>
        <time>2017-06-15T08:24:34Z</time>
      </trkpt>
      <trkpt lat="41.856749933212996" lon="13.341005388647318">
        <ele>1488.26001</ele>
        <time>2017-06-15T08:24:35Z</time>
      </trkpt>
      <trkpt lat="41.856692265719175" lon="13.341120639815927">
        <ele>1489.700073</ele>
        <time>2017-06-15T08:24:51Z</time>
      </trkpt>
      <trkpt lat="41.856656223535538" lon="13.341176295652986">
        <ele>1488.73999</ele>
        <time>2017-06-15T08:25:03Z</time>
      </trkpt>
      <trkpt lat="41.856619762256742" lon="13.341227928176522">
        <ele>1486.820068</ele>
        <time>2017-06-15T08:25:09Z</time>
      </trkpt>
      <trkpt lat="41.856613727286458" lon="13.341255336999893">
        <ele>1486.339966</ele>
        <time>2017-06-15T08:25:11Z</time>
      </trkpt>
      <trkpt lat="41.856595790013671" lon="13.341416185721755">
        <ele>1484.4099120000001</ele>
        <time>2017-06-15T08:25:24Z</time>
      </trkpt>
      <trkpt lat="41.856578439474106" lon="13.341445019468665">
        <ele>1483.929932</ele>
        <time>2017-06-15T08:25:27Z</time>
      </trkpt>
      <trkpt lat="41.856560334563255" lon="13.3415019325912">
        <ele>1482.969971</ele>
        <time>2017-06-15T08:25:31Z</time>
      </trkpt>
      <trkpt lat="41.856565698981285" lon="13.341677701100707">
        <ele>1482.48999</ele>
        <time>2017-06-15T08:25:43Z</time>
      </trkpt>
      <trkpt lat="41.856564106419683" lon="13.34170326590538">
        <ele>1483.929932</ele>
        <time>2017-06-15T08:25:45Z</time>
      </trkpt>
      <trkpt lat="41.856498559936881" lon="13.341877441853285">
        <ele>1485.849976</ele>
        <time>2017-06-15T08:25:58Z</time>
      </trkpt>
      <trkpt lat="41.856476180255413" lon="13.341979030519724">
        <ele>1483.929932</ele>
        <time>2017-06-15T08:26:07Z</time>
      </trkpt>
      <trkpt lat="41.856437288224697" lon="13.342037117108703">
        <ele>1482.48999</ele>
        <time>2017-06-15T08:26:11Z</time>
      </trkpt>
      <trkpt lat="41.856346428394318" lon="13.342251610010862">
        <ele>1480.0900879999999</ele>
        <time>2017-06-15T08:26:25Z</time>
      </trkpt>
      <trkpt lat="41.856326311826706" lon="13.342319671064615">
        <ele>1480.0900879999999</ele>
        <time>2017-06-15T08:26:30Z</time>
      </trkpt>
      <trkpt lat="41.856319019570947" lon="13.342530811205506">
        <ele>1479.130005</ele>
        <time>2017-06-15T08:26:41Z</time>
      </trkpt>
      <trkpt lat="41.856353133916855" lon="13.342679673805833">
        <ele>1478.650024</ele>
        <time>2017-06-15T08:26:56Z</time>
      </trkpt>
      <trkpt lat="41.856343578547239" lon="13.342727702111006">
        <ele>1478.650024</ele>
        <time>2017-06-15T08:26:59Z</time>
      </trkpt>
      <trkpt lat="41.856315163895488" lon="13.342976728454232">
        <ele>1476.719971</ele>
        <time>2017-06-15T08:27:12Z</time>
      </trkpt>
      <trkpt lat="41.856336537748575" lon="13.34310756996274">
        <ele>1474.799927</ele>
        <time>2017-06-15T08:27:24Z</time>
      </trkpt>
      <trkpt lat="41.856345422565937" lon="13.343156017363071">
        <ele>1474.799927</ele>
        <time>2017-06-15T08:27:27Z</time>
      </trkpt>
      <trkpt lat="41.856362102553248" lon="13.343308568000793">
        <ele>1472.3999020000001</ele>
        <time>2017-06-15T08:27:35Z</time>
      </trkpt>
      <trkpt lat="41.856375765055418" lon="13.343382077291608">
        <ele>1471.919922</ele>
        <time>2017-06-15T08:27:39Z</time>
      </trkpt>
      <trkpt lat="41.856381380930543" lon="13.343468578532338">
        <ele>1470.950073</ele>
        <time>2017-06-15T08:27:43Z</time>
      </trkpt>
      <trkpt lat="41.856444999575615" lon="13.343540662899613">
        <ele>1470.950073</ele>
        <time>2017-06-15T08:27:54Z</time>
      </trkpt>
      <trkpt lat="41.856479533016682" lon="13.343596486374736">
        <ele>1470.469971</ele>
        <time>2017-06-15T08:28:00Z</time>
      </trkpt>
      <trkpt lat="41.85654197819531" lon="13.343728920444846">
        <ele>1469.51001</ele>
        <time>2017-06-15T08:28:17Z</time>
      </trkpt>
      <trkpt lat="41.856549773365259" lon="13.343847440555692">
        <ele>1467.1099850000001</ele>
        <time>2017-06-15T08:28:32Z</time>
      </trkpt>
      <trkpt lat="41.856552958488464" lon="13.343968726694584">
        <ele>1465.1899410000001</ele>
        <time>2017-06-15T08:28:40Z</time>
      </trkpt>
      <trkpt lat="41.856550360098481" lon="13.344240635633469">
        <ele>1464.2299800000001</ele>
        <time>2017-06-15T08:28:57Z</time>
      </trkpt>
      <trkpt lat="41.856549102813005" lon="13.344318922609091">
        <ele>1464.2299800000001</ele>
        <time>2017-06-15T08:29:11Z</time>
      </trkpt>
      <trkpt lat="41.856556227430701" lon="13.344518411904573">
        <ele>1464.2299800000001</ele>
        <time>2017-06-15T08:29:27Z</time>
      </trkpt>
      <trkpt lat="41.85652052052319" lon="13.344632908701897">
        <ele>1464.2299800000001</ele>
        <time>2017-06-15T08:29:35Z</time>
      </trkpt>
      <trkpt lat="41.856512641534209" lon="13.344919066876173">
        <ele>1465.1899410000001</ele>
        <time>2017-06-15T08:29:52Z</time>
      </trkpt>
      <trkpt lat="41.856499398127198" lon="13.345241099596024">
        <ele>1465.1899410000001</ele>
        <time>2017-06-15T08:30:07Z</time>
      </trkpt>
      <trkpt lat="41.856523538008332" lon="13.345542596653104">
        <ele>1465.1899410000001</ele>
        <time>2017-06-15T08:30:26Z</time>
      </trkpt>
      <trkpt lat="41.856556395068765" lon="13.345836801454425">
        <ele>1464.2299800000001</ele>
        <time>2017-06-15T08:30:43Z</time>
      </trkpt>
      <trkpt lat="41.856595706194639" lon="13.346141064539552">
        <ele>1464.2299800000001</ele>
        <time>2017-06-15T08:31:00Z</time>
      </trkpt>
      <trkpt lat="41.856597885489464" lon="13.346184901893139">
        <ele>1464.2299800000001</ele>
        <time>2017-06-15T08:31:02Z</time>
      </trkpt>
      <trkpt lat="41.856611799448729" lon="13.346289340406656">
        <ele>1465.669922</ele>
        <time>2017-06-15T08:31:08Z</time>
      </trkpt>
      <trkpt lat="41.856618672609329" lon="13.346304092556238">
        <ele>1465.669922</ele>
        <time>2017-06-15T08:31:09Z</time>
      </trkpt>
      <trkpt lat="41.856645494699478" lon="13.346479861065745">
        <ele>1465.669922</ele>
        <time>2017-06-15T08:31:21Z</time>
      </trkpt>
      <trkpt lat="41.856658821925521" lon="13.346515567973256">
        <ele>1465.669922</ele>
        <time>2017-06-15T08:31:24Z</time>
      </trkpt>
      <trkpt lat="41.856685560196638" lon="13.34675713442266">
        <ele>1465.669922</ele>
        <time>2017-06-15T08:31:40Z</time>
      </trkpt>
      <trkpt lat="41.856706263497472" lon="13.346805162727833">
        <ele>1465.669922</ele>
        <time>2017-06-15T08:31:44Z</time>
      </trkpt>
      <trkpt lat="41.856761584058404" lon="13.347135996446013">
        <ele>1466.630005</ele>
        <time>2017-06-15T08:32:02Z</time>
      </trkpt>
      <trkpt lat="41.856861663982272" lon="13.347429363057017">
        <ele>1468.0699460000001</ele>
        <time>2017-06-15T08:32:22Z</time>
      </trkpt>
      <trkpt lat="41.856944980099797" lon="13.347561210393906">
        <ele>1468.0699460000001</ele>
        <time>2017-06-15T08:32:34Z</time>
      </trkpt>
      <trkpt lat="41.856956128031015" lon="13.347630612552166">
        <ele>1468.0699460000001</ele>
        <time>2017-06-15T08:32:38Z</time>
      </trkpt>
      <trkpt lat="41.85699057765305" lon="13.347818283364177">
        <ele>1468.5500489999999</ele>
        <time>2017-06-15T08:32:48Z</time>
      </trkpt>
      <trkpt lat="41.857020333409309" lon="13.347939988598228">
        <ele>1468.5500489999999</ele>
        <time>2017-06-15T08:33:04Z</time>
      </trkpt>
      <trkpt lat="41.857017818838358" lon="13.347948119044304">
        <ele>1468.5500489999999</ele>
        <time>2017-06-15T08:33:05Z</time>
      </trkpt>
      <trkpt lat="41.857040701434016" lon="13.348023472353816">
        <ele>1469.030029</ele>
        <time>2017-06-15T08:33:11Z</time>
      </trkpt>
      <trkpt lat="41.857083197683096" lon="13.348137633875012">
        <ele>1469.98999</ele>
        <time>2017-06-15T08:33:20Z</time>
      </trkpt>
      <trkpt lat="41.857094010338187" lon="13.348279958590865">
        <ele>1469.98999</ele>
        <time>2017-06-15T08:33:28Z</time>
      </trkpt>
      <trkpt lat="41.85712493956089" lon="13.348369896411896">
        <ele>1469.98999</ele>
        <time>2017-06-15T08:33:36Z</time>
      </trkpt>
      <trkpt lat="41.857087891548872" lon="13.348528565838933">
        <ele>1471.440063</ele>
        <time>2017-06-15T08:33:46Z</time>
      </trkpt>
      <trkpt lat="41.85710784047842" lon="13.348748506978154">
        <ele>1471.919922</ele>
        <time>2017-06-15T08:34:01Z</time>
      </trkpt>
      <trkpt lat="41.857134411111474" lon="13.348793098703027">
        <ele>1471.919922</ele>
        <time>2017-06-15T08:34:05Z</time>
      </trkpt>
      <trkpt lat="41.857176823541522" lon="13.348818579688668">
        <ele>1472.3999020000001</ele>
        <time>2017-06-15T08:34:10Z</time>
      </trkpt>
      <trkpt lat="41.857302216812968" lon="13.348918659612536">
        <ele>1473.3599850000001</ele>
        <time>2017-06-15T08:34:24Z</time>
      </trkpt>
      <trkpt lat="41.857397267594934" lon="13.349133236333728">
        <ele>1474.3199460000001</ele>
        <time>2017-06-15T08:34:39Z</time>
      </trkpt>
      <trkpt lat="41.857462981715798" lon="13.349273717030883">
        <ele>1475.280029</ele>
        <time>2017-06-15T08:34:49Z</time>
      </trkpt>
      <trkpt lat="41.857489300891757" lon="13.349302383139729">
        <ele>1475.280029</ele>
        <time>2017-06-15T08:34:52Z</time>
      </trkpt>
      <trkpt lat="41.857555098831654" lon="13.349475804716349">
        <ele>1475.76001</ele>
        <time>2017-06-15T08:35:05Z</time>
      </trkpt>
      <trkpt lat="41.857585776597261" lon="13.349495669826865">
        <ele>1476.23999</ele>
        <time>2017-06-15T08:35:08Z</time>
      </trkpt>
      <trkpt lat="41.857612766325474" lon="13.349558785557747">
        <ele>1476.23999</ele>
        <time>2017-06-15T08:35:12Z</time>
      </trkpt>
      <trkpt lat="41.85769566334784" lon="13.349737990647554">
        <ele>1477.6800539999999</ele>
        <time>2017-06-15T08:35:25Z</time>
      </trkpt>
      <trkpt lat="41.857714438810945" lon="13.349782079458237">
        <ele>1477.6800539999999</ele>
        <time>2017-06-15T08:35:30Z</time>
      </trkpt>
      <trkpt lat="41.857713432982564" lon="13.349829688668251">
        <ele>1477.6800539999999</ele>
        <time>2017-06-15T08:35:33Z</time>
      </trkpt>
      <trkpt lat="41.857857434079051" lon="13.35008081048727">
        <ele>1478.160034</ele>
        <time>2017-06-15T08:35:50Z</time>
      </trkpt>
      <trkpt lat="41.857871767133474" lon="13.350122971460223">
        <ele>1478.650024</ele>
        <time>2017-06-15T08:35:53Z</time>
      </trkpt>
      <trkpt lat="41.857935888692737" lon="13.35031290538609">
        <ele>1480.0900879999999</ele>
        <time>2017-06-15T08:36:06Z</time>
      </trkpt>
      <trkpt lat="41.858032867312431" lon="13.350583724677563">
        <ele>1480.570068</ele>
        <time>2017-06-15T08:36:23Z</time>
      </trkpt>
      <trkpt lat="41.8580586835742" lon="13.350759325549006">
        <ele>1482.009888</ele>
        <time>2017-06-15T08:36:37Z</time>
      </trkpt>
      <trkpt lat="41.858081733807921" lon="13.350952360779047">
        <ele>1482.969971</ele>
        <time>2017-06-15T08:36:53Z</time>
      </trkpt>
      <trkpt lat="41.858079889789224" lon="13.350964095443487">
        <ele>1482.969971</ele>
        <time>2017-06-15T08:36:54Z</time>
      </trkpt>
      <trkpt lat="41.858151471242309" lon="13.351077334955335">
        <ele>1484.4099120000001</ele>
        <time>2017-06-15T08:37:09Z</time>
      </trkpt>
      <trkpt lat="41.858172090724111" lon="13.351079262793064">
        <ele>1484.4099120000001</ele>
        <time>2017-06-15T08:37:23Z</time>
      </trkpt>
      <trkpt lat="41.858226908370852" lon="13.351312866434455">
        <ele>1485.369995</ele>
        <time>2017-06-15T08:37:38Z</time>
      </trkpt>
      <trkpt lat="41.858250210061669" lon="13.351355865597725">
        <ele>1485.369995</ele>
        <time>2017-06-15T08:37:43Z</time>
      </trkpt>
      <trkpt lat="41.858322881162167" lon="13.351521575823426">
        <ele>1487.3000489999999</ele>
        <time>2017-06-15T08:37:57Z</time>
      </trkpt>
      <trkpt lat="41.858376441523433" lon="13.351750737056136">
        <ele>1489.2200929999999</ele>
        <time>2017-06-15T08:38:14Z</time>
      </trkpt>
      <trkpt lat="41.858426565304399" lon="13.351907730102539">
        <ele>1489.700073</ele>
        <time>2017-06-15T08:38:27Z</time>
      </trkpt>
      <trkpt lat="41.85846570879221" lon="13.352082576602697">
        <ele>1491.6201169999999</ele>
        <time>2017-06-15T08:38:39Z</time>
      </trkpt>
      <trkpt lat="41.858422625809908" lon="13.352241413667798">
        <ele>1492.579956</ele>
        <time>2017-06-15T08:38:52Z</time>
      </trkpt>
      <trkpt lat="41.858357498422265" lon="13.352384828031063">
        <ele>1494.030029</ele>
        <time>2017-06-15T08:39:07Z</time>
      </trkpt>
      <trkpt lat="41.858334532007575" lon="13.352560009807348">
        <ele>1495.950073</ele>
        <time>2017-06-15T08:39:20Z</time>
      </trkpt>
      <trkpt lat="41.858275774866343" lon="13.352700993418694">
        <ele>1497.869995</ele>
        <time>2017-06-15T08:39:32Z</time>
      </trkpt>
      <trkpt lat="41.858270661905408" lon="13.352728737518191">
        <ele>1498.3500979999999</ele>
        <time>2017-06-15T08:39:36Z</time>
      </trkpt>
      <trkpt lat="41.858256999403238" lon="13.352796379476786">
        <ele>1499.3100589999999</ele>
        <time>2017-06-15T08:39:43Z</time>
      </trkpt>
      <trkpt lat="41.858259430155158" lon="13.352888412773609">
        <ele>1500.2698969999999</ele>
        <time>2017-06-15T08:39:50Z</time>
      </trkpt>
      <trkpt lat="41.85827367939055" lon="13.353055967018008">
        <ele>1502.6800539999999</ele>
        <time>2017-06-15T08:40:04Z</time>
      </trkpt>
      <trkpt lat="41.858285581693053" lon="13.353140708059072">
        <ele>1503.6400149999999</ele>
        <time>2017-06-15T08:40:12Z</time>
      </trkpt>
      <trkpt lat="41.858339728787541" lon="13.353243721649051">
        <ele>1505.079956</ele>
        <time>2017-06-15T08:40:24Z</time>
      </trkpt>
      <trkpt lat="41.858370993286371" lon="13.353274315595627">
        <ele>1505.5600589999999</ele>
        <time>2017-06-15T08:40:32Z</time>
      </trkpt>
      <trkpt lat="41.858611134812236" lon="13.35328227840364">
        <ele>1506.5200199999999</ele>
        <time>2017-06-15T08:40:45Z</time>
      </trkpt>
      <trkpt lat="41.858626641333103" lon="13.353286385536194">
        <ele>1506.5200199999999</ele>
        <time>2017-06-15T08:40:47Z</time>
      </trkpt>
      <trkpt lat="41.858699815347791" lon="13.353327540680766">
        <ele>1507</ele>
        <time>2017-06-15T08:40:54Z</time>
      </trkpt>
      <trkpt lat="41.858770893886685" lon="13.353340364992619">
        <ele>1507.4799800000001</ele>
        <time>2017-06-15T08:41:02Z</time>
      </trkpt>
      <trkpt lat="41.858861418440938" lon="13.353331480175257">
        <ele>1508.4499510000001</ele>
        <time>2017-06-15T08:41:11Z</time>
      </trkpt>
      <trkpt lat="41.858982620760798" lon="13.353273812681437">
        <ele>1509.4099120000001</ele>
        <time>2017-06-15T08:41:26Z</time>
      </trkpt>
      <trkpt lat="41.859047329053283" lon="13.353283703327179">
        <ele>1511.329956</ele>
        <time>2017-06-15T08:41:37Z</time>
      </trkpt>
      <trkpt lat="41.859155539423227" lon="13.353309519588947">
        <ele>1513.25</ele>
        <time>2017-06-15T08:41:51Z</time>
      </trkpt>
      <trkpt lat="41.859164005145431" lon="13.353306921198964">
        <ele>1513.25</ele>
        <time>2017-06-15T08:41:52Z</time>
      </trkpt>
      <trkpt lat="41.859279340133071" lon="13.353341203182936">
        <ele>1514.209961</ele>
        <time>2017-06-15T08:42:05Z</time>
      </trkpt>
      <trkpt lat="41.859379420056939" lon="13.353484366089106">
        <ele>1515.6599120000001</ele>
        <time>2017-06-15T08:42:17Z</time>
      </trkpt>
      <trkpt lat="41.859471285715699" lon="13.35360866971314">
        <ele>1517.099976</ele>
        <time>2017-06-15T08:42:33Z</time>
      </trkpt>
      <trkpt lat="41.859496766701341" lon="13.353678407147527">
        <ele>1518.059937</ele>
        <time>2017-06-15T08:42:38Z</time>
      </trkpt>
      <trkpt lat="41.859503639861941" lon="13.35388720035553">
        <ele>1519.0200199999999</ele>
        <time>2017-06-15T08:42:51Z</time>
      </trkpt>
      <trkpt lat="41.859651999548078" lon="13.354140920564532">
        <ele>1520.9399410000001</ele>
        <time>2017-06-15T08:43:08Z</time>
      </trkpt>
      <trkpt lat="41.859683264046907" lon="13.354308474808931">
        <ele>1521.900024</ele>
        <time>2017-06-15T08:43:19Z</time>
      </trkpt>
      <trkpt lat="41.859730537980795" lon="13.354434035718441">
        <ele>1523.3500979999999</ele>
        <time>2017-06-15T08:43:29Z</time>
      </trkpt>
      <trkpt lat="41.859823493286967" lon="13.354524308815598">
        <ele>1524.790039</ele>
        <time>2017-06-15T08:43:40Z</time>
      </trkpt>
      <trkpt lat="41.859902869910002" lon="13.354612989351153">
        <ele>1526.2299800000001</ele>
        <time>2017-06-15T08:43:53Z</time>
      </trkpt>
      <trkpt lat="41.859975038096309" lon="13.354727737605572">
        <ele>1527.1899410000001</ele>
        <time>2017-06-15T08:44:06Z</time>
      </trkpt>
      <trkpt lat="41.860011164098978" lon="13.354866458103061">
        <ele>1529.1099850000001</ele>
        <time>2017-06-15T08:44:20Z</time>
      </trkpt>
      <trkpt lat="41.860067825764418" lon="13.354988163337111">
        <ele>1530.079956</ele>
        <time>2017-06-15T08:44:33Z</time>
      </trkpt>
      <trkpt lat="41.860128594562411" lon="13.355149934068322">
        <ele>1531.5200199999999</ele>
        <time>2017-06-15T08:44:45Z</time>
      </trkpt>
      <trkpt lat="41.860185340046883" lon="13.355318075045943">
        <ele>1532.4799800000001</ele>
        <time>2017-06-15T08:44:57Z</time>
      </trkpt>
      <trkpt lat="41.860197074711323" lon="13.355347830802202">
        <ele>1532.4799800000001</ele>
        <time>2017-06-15T08:45:00Z</time>
      </trkpt>
      <trkpt lat="41.860242336988449" lon="13.355438187718391">
        <ele>1533.440063</ele>
        <time>2017-06-15T08:45:08Z</time>
      </trkpt>
      <trkpt lat="41.860303021967411" lon="13.355551091954112">
        <ele>1534.3999020000001</ele>
        <time>2017-06-15T08:45:18Z</time>
      </trkpt>
      <trkpt lat="41.860340740531683" lon="13.355696015059948">
        <ele>1534.8798830000001</ele>
        <time>2017-06-15T08:45:29Z</time>
      </trkpt>
      <trkpt lat="41.860377788543701" lon="13.355745635926723">
        <ele>1534.8798830000001</ele>
        <time>2017-06-15T08:45:33Z</time>
      </trkpt>
      <trkpt lat="41.860422883182764" lon="13.355785785242915">
        <ele>1535.839966</ele>
        <time>2017-06-15T08:45:38Z</time>
      </trkpt>
      <trkpt lat="41.860449369996786" lon="13.355833394452929">
        <ele>1536.3199460000001</ele>
        <time>2017-06-15T08:45:43Z</time>
      </trkpt>
      <trkpt lat="41.860523214563727" lon="13.355928864330053">
        <ele>1537.290039</ele>
        <time>2017-06-15T08:45:53Z</time>
      </trkpt>
      <trkpt lat="41.860563280060887" lon="13.356077559292316">
        <ele>1537.7700199999999</ele>
        <time>2017-06-15T08:46:05Z</time>
      </trkpt>
      <trkpt lat="41.860646260902286" lon="13.356209238991141">
        <ele>1538.25</ele>
        <time>2017-06-15T08:46:18Z</time>
      </trkpt>
      <trkpt lat="41.860797135159373" lon="13.356189373880625">
        <ele>1538.7299800000001</ele>
        <time>2017-06-15T08:46:33Z</time>
      </trkpt>
      <trkpt lat="41.860891180112958" lon="13.356320718303323">
        <ele>1539.209961</ele>
        <time>2017-06-15T08:46:48Z</time>
      </trkpt>
      <trkpt lat="41.860983464866877" lon="13.356346031650901">
        <ele>1539.690063</ele>
        <time>2017-06-15T08:46:55Z</time>
      </trkpt>
      <trkpt lat="41.861129477620125" lon="13.356387102976441">
        <ele>1541.130005</ele>
        <time>2017-06-15T08:47:09Z</time>
      </trkpt>
      <trkpt lat="41.861243220046163" lon="13.356492128223181">
        <ele>1542.0900879999999</ele>
        <time>2017-06-15T08:47:24Z</time>
      </trkpt>
      <trkpt lat="41.861338941380382" lon="13.356634620577097">
        <ele>1543.530029</ele>
        <time>2017-06-15T08:47:39Z</time>
      </trkpt>
      <trkpt lat="41.861395938321948" lon="13.356733862310648">
        <ele>1544.009888</ele>
        <time>2017-06-15T08:47:46Z</time>
      </trkpt>
      <trkpt lat="41.861472381278872" lon="13.356916839256883">
        <ele>1546.420044</ele>
        <time>2017-06-15T08:48:01Z</time>
      </trkpt>
      <trkpt lat="41.861540693789721" lon="13.3569953776896">
        <ele>1547.8599850000001</ele>
        <time>2017-06-15T08:48:16Z</time>
      </trkpt>
      <trkpt lat="41.861676815897226" lon="13.357000239193439">
        <ele>1548.820068</ele>
        <time>2017-06-15T08:48:33Z</time>
      </trkpt>
      <trkpt lat="41.861824337393045" lon="13.357122279703617">
        <ele>1551.2200929999999</ele>
        <time>2017-06-15T08:48:50Z</time>
      </trkpt>
      <trkpt lat="41.861934475600719" lon="13.357263933867216">
        <ele>1553.630005</ele>
        <time>2017-06-15T08:49:04Z</time>
      </trkpt>
      <trkpt lat="41.8620131816715" lon="13.357368037104607">
        <ele>1555.0699460000001</ele>
        <time>2017-06-15T08:49:17Z</time>
      </trkpt>
      <trkpt lat="41.862040339037776" lon="13.357466105371714">
        <ele>1555.5500489999999</ele>
        <time>2017-06-15T08:49:27Z</time>
      </trkpt>
      <trkpt lat="41.862034890800714" lon="13.357509607449174">
        <ele>1556.030029</ele>
        <time>2017-06-15T08:49:31Z</time>
      </trkpt>
      <trkpt lat="41.862052073702216" lon="13.357597785070539">
        <ele>1556.51001</ele>
        <time>2017-06-15T08:49:37Z</time>
      </trkpt>
      <trkpt lat="41.862090127542615" lon="13.357700714841485">
        <ele>1556.98999</ele>
        <time>2017-06-15T08:49:43Z</time>
      </trkpt>
      <trkpt lat="41.862109405919909" lon="13.357854522764683">
        <ele>1557.9499510000001</ele>
        <time>2017-06-15T08:49:52Z</time>
      </trkpt>
      <trkpt lat="41.862154500558972" lon="13.357898611575365">
        <ele>1558.4300539999999</ele>
        <time>2017-06-15T08:49:57Z</time>
      </trkpt>
      <trkpt lat="41.862282240763307" lon="13.358016712591052">
        <ele>1558.920044</ele>
        <time>2017-06-15T08:50:10Z</time>
      </trkpt>
      <trkpt lat="41.862348541617393" lon="13.358114110305905">
        <ele>1560.360107</ele>
        <time>2017-06-15T08:50:22Z</time>
      </trkpt>
      <trkpt lat="41.862415932118893" lon="13.358211759477854">
        <ele>1561.3199460000001</ele>
        <time>2017-06-15T08:50:33Z</time>
      </trkpt>
      <trkpt lat="41.862498912960291" lon="13.358451565727592">
        <ele>1562.76001</ele>
        <time>2017-06-15T08:50:51Z</time>
      </trkpt>
      <trkpt lat="41.862580636516213" lon="13.358613671734929">
        <ele>1563.23999</ele>
        <time>2017-06-15T08:51:03Z</time>
      </trkpt>
      <trkpt lat="41.862576277926564" lon="13.358655497431755">
        <ele>1563.719971</ele>
        <time>2017-06-15T08:51:05Z</time>
      </trkpt>
      <trkpt lat="41.862585665658116" lon="13.35884777829051">
        <ele>1564.679932</ele>
        <time>2017-06-15T08:51:17Z</time>
      </trkpt>
      <trkpt lat="41.862589018419385" lon="13.358896393328905">
        <ele>1564.679932</ele>
        <time>2017-06-15T08:51:20Z</time>
      </trkpt>
      <trkpt lat="41.862579211592674" lon="13.358956491574645">
        <ele>1565.6400149999999</ele>
        <time>2017-06-15T08:51:25Z</time>
      </trkpt>
      <trkpt lat="41.862592035904527" lon="13.359122788533568">
        <ele>1567.0900879999999</ele>
        <time>2017-06-15T08:51:39Z</time>
      </trkpt>
      <trkpt lat="41.86259463429451" lon="13.359144665300846">
        <ele>1568.0500489999999</ele>
        <time>2017-06-15T08:51:41Z</time>
      </trkpt>
      <trkpt lat="41.862597400322556" lon="13.359278859570622">
        <ele>1569.490112</ele>
        <time>2017-06-15T08:51:54Z</time>
      </trkpt>
      <trkpt lat="41.862694714218378" lon="13.359340885654092">
        <ele>1570.4499510000001</ele>
        <time>2017-06-15T08:52:09Z</time>
      </trkpt>
      <trkpt lat="41.86277057044208" lon="13.359470218420029">
        <ele>1571.8900149999999</ele>
        <time>2017-06-15T08:52:25Z</time>
      </trkpt>
      <trkpt lat="41.862830333411694" lon="13.359667360782623">
        <ele>1572.849976</ele>
        <time>2017-06-15T08:52:40Z</time>
      </trkpt>
      <trkpt lat="41.862894035875797" lon="13.359828041866422">
        <ele>1574.3000489999999</ele>
        <time>2017-06-15T08:52:51Z</time>
      </trkpt>
      <trkpt lat="41.862942734733224" lon="13.359967935830355">
        <ele>1575.73999</ele>
        <time>2017-06-15T08:53:03Z</time>
      </trkpt>
      <trkpt lat="41.863052621483803" lon="13.360166670754552">
        <ele>1577.660034</ele>
        <time>2017-06-15T08:53:23Z</time>
      </trkpt>
      <trkpt lat="41.863227467983961" lon="13.360371440649033">
        <ele>1579.1000979999999</ele>
        <time>2017-06-15T08:53:40Z</time>
      </trkpt>
      <trkpt lat="41.863338779658079" lon="13.360445871949196">
        <ele>1579.579956</ele>
        <time>2017-06-15T08:53:53Z</time>
      </trkpt>
      <trkpt lat="41.86339259147644" lon="13.360506892204285">
        <ele>1580.059937</ele>
        <time>2017-06-15T08:54:00Z</time>
      </trkpt>
      <trkpt lat="41.863402063027024" lon="13.360606888309121">
        <ele>1580.5399170000001</ele>
        <time>2017-06-15T08:54:07Z</time>
      </trkpt>
      <trkpt lat="41.863400805741549" lon="13.360696658492088">
        <ele>1581.030029</ele>
        <time>2017-06-15T08:54:15Z</time>
      </trkpt>
      <trkpt lat="41.863424777984619" lon="13.36076807230711">
        <ele>1581.51001</ele>
        <time>2017-06-15T08:54:20Z</time>
      </trkpt>
      <trkpt lat="41.863481272011995" lon="13.3609464392066">
        <ele>1582.9499510000001</ele>
        <time>2017-06-15T08:54:33Z</time>
      </trkpt>
      <trkpt lat="41.863520666956902" lon="13.361119274049997">
        <ele>1584.3900149999999</ele>
        <time>2017-06-15T08:54:46Z</time>
      </trkpt>
      <trkpt lat="41.863504741340876" lon="13.361277440562844">
        <ele>1585.349976</ele>
        <time>2017-06-15T08:54:57Z</time>
      </trkpt>
      <trkpt lat="41.863529803231359" lon="13.361335275694728">
        <ele>1585.349976</ele>
        <time>2017-06-15T08:55:02Z</time>
      </trkpt>
      <trkpt lat="41.863559810444713" lon="13.361489670351148">
        <ele>1585.349976</ele>
        <time>2017-06-15T08:55:13Z</time>
      </trkpt>
      <trkpt lat="41.863610269501805" lon="13.361704833805561">
        <ele>1586.3100589999999</ele>
        <time>2017-06-15T08:55:28Z</time>
      </trkpt>
      <trkpt lat="41.863643629476428" lon="13.361860569566488">
        <ele>1586.790039</ele>
        <time>2017-06-15T08:55:38Z</time>
      </trkpt>
      <trkpt lat="41.863687885925174" lon="13.362034158781171">
        <ele>1588.23999</ele>
        <time>2017-06-15T08:55:52Z</time>
      </trkpt>
      <trkpt lat="41.863735159859061" lon="13.362152175977826">
        <ele>1589.1999510000001</ele>
        <time>2017-06-15T08:56:02Z</time>
      </trkpt>
      <trkpt lat="41.863845968618989" lon="13.362270360812545">
        <ele>1590.6400149999999</ele>
        <time>2017-06-15T08:56:15Z</time>
      </trkpt>
      <trkpt lat="41.863921238109469" lon="13.36245140992105">
        <ele>1591.119995</ele>
        <time>2017-06-15T08:56:30Z</time>
      </trkpt>
      <trkpt lat="41.863955436274409" lon="13.362612091004848">
        <ele>1592.079956</ele>
        <time>2017-06-15T08:56:42Z</time>
      </trkpt>
      <trkpt lat="41.863994831219316" lon="13.362672608345747">
        <ele>1593.040039</ele>
        <time>2017-06-15T08:56:48Z</time>
      </trkpt>
      <trkpt lat="41.864034309983253" lon="13.362788613885641">
        <ele>1593.5200199999999</ele>
        <time>2017-06-15T08:56:57Z</time>
      </trkpt>
      <trkpt lat="41.864039339125156" lon="13.362996987998486">
        <ele>1594.9600829999999</ele>
        <time>2017-06-15T08:57:12Z</time>
      </trkpt>
      <trkpt lat="41.86404881067574" lon="13.36302699521184">
        <ele>1595.4499510000001</ele>
        <time>2017-06-15T08:57:14Z</time>
      </trkpt>
      <trkpt lat="41.864097593352199" lon="13.363093631342053">
        <ele>1596.4099120000001</ele>
        <time>2017-06-15T08:57:20Z</time>
      </trkpt>
      <trkpt lat="41.864174790680408" lon="13.36326252669096">
        <ele>1597.369995</ele>
        <time>2017-06-15T08:57:35Z</time>
      </trkpt>
      <trkpt lat="41.864170599728823" lon="13.363406108692288">
        <ele>1599.290039</ele>
        <time>2017-06-15T08:57:47Z</time>
      </trkpt>
      <trkpt lat="41.864119302481413" lon="13.363506691530347">
        <ele>1599.7700199999999</ele>
        <time>2017-06-15T08:57:54Z</time>
      </trkpt>
      <trkpt lat="41.864074291661382" lon="13.363647339865565">
        <ele>1600.7299800000001</ele>
        <time>2017-06-15T08:58:04Z</time>
      </trkpt>
      <trkpt lat="41.864047469571233" lon="13.363839201629162">
        <ele>1603.139893</ele>
        <time>2017-06-15T08:58:18Z</time>
      </trkpt>
      <trkpt lat="41.864075381308794" lon="13.363963840529323">
        <ele>1604.579956</ele>
        <time>2017-06-15T08:58:30Z</time>
      </trkpt>
      <trkpt lat="41.864035902544856" lon="13.364143380895257">
        <ele>1606.5</ele>
        <time>2017-06-15T08:58:45Z</time>
      </trkpt>
      <trkpt lat="41.864020563662052" lon="13.364274725317955">
        <ele>1607.9399410000001</ele>
        <time>2017-06-15T08:58:56Z</time>
      </trkpt>
      <trkpt lat="41.864059707149863" lon="13.364437334239483">
        <ele>1610.349976</ele>
        <time>2017-06-15T08:59:10Z</time>
      </trkpt>
      <trkpt lat="41.864057024940848" lon="13.364542024210095">
        <ele>1613.2301030000001</ele>
        <time>2017-06-15T08:59:21Z</time>
      </trkpt>
      <trkpt lat="41.864075213670731" lon="13.364613438025117">
        <ele>1615.1499020000001</ele>
        <time>2017-06-15T08:59:31Z</time>
      </trkpt>
      <trkpt lat="41.864134892821312" lon="13.364648725837469">
        <ele>1615.630005</ele>
        <time>2017-06-15T08:59:47Z</time>
      </trkpt>
      <trkpt lat="41.864199098199606" lon="13.364733885973692">
        <ele>1617.5600589999999</ele>
        <time>2017-06-15T09:00:00Z</time>
      </trkpt>
      <trkpt lat="41.864214772358537" lon="13.36476749740541">
        <ele>1619.9600829999999</ele>
        <time>2017-06-15T09:00:12Z</time>
      </trkpt>
      <trkpt lat="41.864218963310122" lon="13.364853914827108">
        <ele>1622.360107</ele>
        <time>2017-06-15T09:00:26Z</time>
      </trkpt>
      <trkpt lat="41.864249389618635" lon="13.3649907913059">
        <ele>1624.7700199999999</ele>
        <time>2017-06-15T09:00:45Z</time>
      </trkpt>
      <trkpt lat="41.86429456807673" lon="13.365118196234107">
        <ele>1627.170044</ele>
        <time>2017-06-15T09:01:03Z</time>
      </trkpt>
      <trkpt lat="41.864286940544844" lon="13.365252139046788">
        <ele>1629.570068</ele>
        <time>2017-06-15T09:01:20Z</time>
      </trkpt>
      <trkpt lat="41.864258777350187" lon="13.365365881472826">
        <ele>1631.490112</ele>
        <time>2017-06-15T09:01:33Z</time>
      </trkpt>
      <trkpt lat="41.864292975515127" lon="13.365475432947278">
        <ele>1633.900024</ele>
        <time>2017-06-15T09:01:50Z</time>
      </trkpt>
      <trkpt lat="41.864303620532155" lon="13.365533268079162">
        <ele>1637.26001</ele>
        <time>2017-06-15T09:02:06Z</time>
      </trkpt>
      <trkpt lat="41.864289036020637" lon="13.365630079060793">
        <ele>1639.1899410000001</ele>
        <time>2017-06-15T09:02:28Z</time>
      </trkpt>
      <trkpt lat="41.864286018535495" lon="13.365702498704195">
        <ele>1642.0699460000001</ele>
        <time>2017-06-15T09:02:39Z</time>
      </trkpt>
      <trkpt lat="41.864256262779236" lon="13.365811295807362">
        <ele>1643.98999</ele>
        <time>2017-06-15T09:03:01Z</time>
      </trkpt>
      <trkpt lat="41.864245366305113" lon="13.365872986614704">
        <ele>1647.360107</ele>
        <time>2017-06-15T09:03:14Z</time>
      </trkpt>
      <trkpt lat="41.864214520901442" lon="13.365885224193335">
        <ele>1649.2799070000001</ele>
        <time>2017-06-15T09:03:31Z</time>
      </trkpt>
      <trkpt lat="41.864215862005949" lon="13.365926714614034">
        <ele>1650.23999</ele>
        <time>2017-06-15T09:03:46Z</time>
      </trkpt>
      <trkpt lat="41.864219885319471" lon="13.365957476198673">
        <ele>1652.6400149999999</ele>
        <time>2017-06-15T09:04:00Z</time>
      </trkpt>
      <trkpt lat="41.864278893917799" lon="13.365965439006686">
        <ele>1656.01001</ele>
        <time>2017-06-15T09:04:15Z</time>
      </trkpt>
      <trkpt lat="41.864331280812621" lon="13.365994691848755">
        <ele>1657.450073</ele>
        <time>2017-06-15T09:04:31Z</time>
      </trkpt>
      <trkpt lat="41.864356091246009" lon="13.366049928590655">
        <ele>1659.849976</ele>
        <time>2017-06-15T09:04:45Z</time>
      </trkpt>
      <trkpt lat="41.864383919164538" lon="13.366076163947582">
        <ele>1662.26001</ele>
        <time>2017-06-15T09:04:54Z</time>
      </trkpt>
      <trkpt lat="41.864484334364533" lon="13.366153696551919">
        <ele>1664.660034</ele>
        <time>2017-06-15T09:05:11Z</time>
      </trkpt>
      <trkpt lat="41.864549713209271" lon="13.366207676008344">
        <ele>1668.0198969999999</ele>
        <time>2017-06-15T09:05:25Z</time>
      </trkpt>
      <trkpt lat="41.864581732079387" lon="13.366274060681462">
        <ele>1669.9499510000001</ele>
        <time>2017-06-15T09:05:39Z</time>
      </trkpt>
      <trkpt lat="41.864599836990237" lon="13.366307085379958">
        <ele>1671.869995</ele>
        <time>2017-06-15T09:05:56Z</time>
      </trkpt>
      <trkpt lat="41.864570081233978" lon="13.366325022652745">
        <ele>1671.869995</ele>
        <time>2017-06-15T09:06:35Z</time>
      </trkpt>
      <trkpt lat="41.864580977708101" lon="13.366321586072445">
        <ele>1672.349976</ele>
        <time>2017-06-15T09:07:13Z</time>
      </trkpt>
      <trkpt lat="41.864593718200922" lon="13.366320412606001">
        <ele>1672.349976</ele>
        <time>2017-06-15T09:07:52Z</time>
      </trkpt>
      <trkpt lat="41.86461953446269" lon="13.366336338222027">
        <ele>1672.830078</ele>
        <time>2017-06-15T09:08:29Z</time>
      </trkpt>
      <trkpt lat="41.864542420953512" lon="13.366380929946899">
        <ele>1672.830078</ele>
        <time>2017-06-15T09:08:45Z</time>
      </trkpt>
      <trkpt lat="41.864504367113113" lon="13.366353940218687">
        <ele>1672.830078</ele>
        <time>2017-06-15T09:09:00Z</time>
      </trkpt>
      <trkpt lat="41.864356426522136" lon="13.366430886089802">
        <ele>1673.3100589999999</ele>
        <time>2017-06-15T09:09:15Z</time>
      </trkpt>
      <trkpt lat="41.864287359640002" lon="13.366589387878776">
        <ele>1675.2301030000001</ele>
        <time>2017-06-15T09:09:26Z</time>
      </trkpt>
      <trkpt lat="41.864205887541175" lon="13.366677230224013">
        <ele>1677.6400149999999</ele>
        <time>2017-06-15T09:09:42Z</time>
      </trkpt>
      <trkpt lat="41.864177472889423" lon="13.366665914654732">
        <ele>1678.119995</ele>
        <time>2017-06-15T09:09:59Z</time>
      </trkpt>
      <trkpt lat="41.864255340769887" lon="13.366624927148223">
        <ele>1675.2301030000001</ele>
        <time>2017-06-15T09:10:13Z</time>
      </trkpt>
      <trkpt lat="41.86427554115653" lon="13.366617718711495">
        <ele>1676.679932</ele>
        <time>2017-06-15T09:10:39Z</time>
      </trkpt>
      <trkpt lat="41.864284425973892" lon="13.3666105940938">
        <ele>1677.160034</ele>
        <time>2017-06-15T09:11:07Z</time>
      </trkpt>
      <trkpt lat="41.864241762086749" lon="13.36660816334188">
        <ele>1677.160034</ele>
        <time>2017-06-15T09:11:32Z</time>
      </trkpt>
      <trkpt lat="41.864132964983582" lon="13.36672006174922">
        <ele>1679.5600589999999</ele>
        <time>2017-06-15T09:11:47Z</time>
      </trkpt>
      <trkpt lat="41.864000614732504" lon="13.366795079782605">
        <ele>1681.4799800000001</ele>
        <time>2017-06-15T09:12:02Z</time>
      </trkpt>
      <trkpt lat="41.863907240331173" lon="13.366818465292454">
        <ele>1684.369995</ele>
        <time>2017-06-15T09:12:16Z</time>
      </trkpt>
      <trkpt lat="41.863797102123499" lon="13.366833636537194">
        <ele>1686.7700199999999</ele>
        <time>2017-06-15T09:12:31Z</time>
      </trkpt>
      <trkpt lat="41.863723341375589" lon="13.366861380636692">
        <ele>1688.6899410000001</ele>
        <time>2017-06-15T09:12:44Z</time>
      </trkpt>
      <trkpt lat="41.863644383847713" lon="13.366906978189945">
        <ele>1692.059937</ele>
        <time>2017-06-15T09:12:59Z</time>
      </trkpt>
      <trkpt lat="41.863579675555229" lon="13.366935476660728">
        <ele>1693.9799800000001</ele>
        <time>2017-06-15T09:13:13Z</time>
      </trkpt>
      <trkpt lat="41.863534329459071" lon="13.366986019536853">
        <ele>1695.900024</ele>
        <time>2017-06-15T09:13:25Z</time>
      </trkpt>
      <trkpt lat="41.863467860966921" lon="13.367034383118153">
        <ele>1697.830078</ele>
        <time>2017-06-15T09:13:40Z</time>
      </trkpt>
      <trkpt lat="41.86342041939497" lon="13.367096073925495">
        <ele>1700.2301030000001</ele>
        <time>2017-06-15T09:13:55Z</time>
      </trkpt>
      <trkpt lat="41.863407008349895" lon="13.367131277918816">
        <ele>1700.2301030000001</ele>
        <time>2017-06-15T09:13:59Z</time>
      </trkpt>
      <trkpt lat="41.863335510715842" lon="13.367212666198611">
        <ele>1702.1499020000001</ele>
        <time>2017-06-15T09:14:13Z</time>
      </trkpt>
      <trkpt lat="41.863296702504158" lon="13.367327079176903">
        <ele>1702.630005</ele>
        <time>2017-06-15T09:14:29Z</time>
      </trkpt>
      <trkpt lat="41.863364763557911" lon="13.367361696437001">
        <ele>1703.1099850000001</ele>
        <time>2017-06-15T09:14:59Z</time>
      </trkpt>
      <trkpt lat="41.863412791863084" lon="13.367433277890086">
        <ele>1703.1099850000001</ele>
        <time>2017-06-15T09:15:25Z</time>
      </trkpt>
      <trkpt lat="41.863332577049732" lon="13.367405366152525">
        <ele>1704.0699460000001</ele>
        <time>2017-06-15T09:16:00Z</time>
      </trkpt>
      <trkpt lat="41.863299384713173" lon="13.367430679500103">
        <ele>1704.0699460000001</ele>
        <time>2017-06-15T09:16:28Z</time>
      </trkpt>
      <trkpt lat="41.863301564007998" lon="13.367441827431321">
        <ele>1705.040039</ele>
        <time>2017-06-15T09:17:01Z</time>
      </trkpt>
      <trkpt lat="41.86326895840466" lon="13.367391619831324">
        <ele>1705.040039</ele>
        <time>2017-06-15T09:17:27Z</time>
      </trkpt>
      <trkpt lat="41.863204669207335" lon="13.367438139393926">
        <ele>1706</ele>
        <time>2017-06-15T09:17:47Z</time>
      </trkpt>
      <trkpt lat="41.863149600103498" lon="13.367504859343171">
        <ele>1707.920044</ele>
        <time>2017-06-15T09:18:02Z</time>
      </trkpt>
      <trkpt lat="41.863106098026037" lon="13.367665959522128">
        <ele>1709.8400879999999</ele>
        <time>2017-06-15T09:18:17Z</time>
      </trkpt>
      <trkpt lat="41.863108109682798" lon="13.367749694734812">
        <ele>1709.8400879999999</ele>
        <time>2017-06-15T09:18:21Z</time>
      </trkpt>
      <trkpt lat="41.863051364198327" lon="13.367897635325789">
        <ele>1711.7601320000001</ele>
        <time>2017-06-15T09:18:36Z</time>
      </trkpt>
      <trkpt lat="41.862957403063774" lon="13.368078265339136">
        <ele>1714.170044</ele>
        <time>2017-06-15T09:18:52Z</time>
      </trkpt>
      <trkpt lat="41.862829076126218" lon="13.368236934766173">
        <ele>1717.530029</ele>
        <time>2017-06-15T09:19:09Z</time>
      </trkpt>
      <trkpt lat="41.862831506878138" lon="13.368402561172843">
        <ele>1718.01001</ele>
        <time>2017-06-15T09:19:25Z</time>
      </trkpt>
      <trkpt lat="41.862818598747253" lon="13.368611186742783">
        <ele>1720.419922</ele>
        <time>2017-06-15T09:19:42Z</time>
      </trkpt>
      <trkpt lat="41.862808372825384" lon="13.368795169517398">
        <ele>1723.3000489999999</ele>
        <time>2017-06-15T09:19:59Z</time>
      </trkpt>
      <trkpt lat="41.862810719758272" lon="13.368971776217222">
        <ele>1726.1800539999999</ele>
        <time>2017-06-15T09:20:16Z</time>
      </trkpt>
      <trkpt lat="41.862765708938241" lon="13.369031874462962">
        <ele>1726.669922</ele>
        <time>2017-06-15T09:20:33Z</time>
      </trkpt>
      <trkpt lat="41.862733019515872" lon="13.368992730975151">
        <ele>1727.630005</ele>
        <time>2017-06-15T09:20:51Z</time>
      </trkpt>
      <trkpt lat="41.862757997587323" lon="13.369031539186835">
        <ele>1726.669922</ele>
        <time>2017-06-15T09:21:12Z</time>
      </trkpt>
      <trkpt lat="41.862760176882148" lon="13.369004465639591">
        <ele>1726.669922</ele>
        <time>2017-06-15T09:21:45Z</time>
      </trkpt>
      <trkpt lat="41.862774174660444" lon="13.369012679904699">
        <ele>1726.669922</ele>
        <time>2017-06-15T09:21:59Z</time>
      </trkpt>
      <trkpt lat="41.862844163551927" lon="13.369101528078318">
        <ele>1725.219971</ele>
        <time>2017-06-15T09:22:09Z</time>
      </trkpt>
      <trkpt lat="41.862844917923212" lon="13.368958868086338">
        <ele>1726.669922</ele>
        <time>2017-06-15T09:22:21Z</time>
      </trkpt>
      <trkpt lat="41.862848438322544" lon="13.368928777053952">
        <ele>1725.219971</ele>
        <time>2017-06-15T09:22:24Z</time>
      </trkpt>
      <trkpt lat="41.862864112481475" lon="13.3687639888376">
        <ele>1722.339966</ele>
        <time>2017-06-15T09:22:37Z</time>
      </trkpt>
      <trkpt lat="41.862888503819704" lon="13.368522087112069">
        <ele>1718.48999</ele>
        <time>2017-06-15T09:22:54Z</time>
      </trkpt>
      <trkpt lat="41.862920522689819" lon="13.368349671363831">
        <ele>1718.01001</ele>
        <time>2017-06-15T09:23:07Z</time>
      </trkpt>
      <trkpt lat="41.86299042776227" lon="13.368177674710751">
        <ele>1715.130005</ele>
        <time>2017-06-15T09:23:21Z</time>
      </trkpt>
      <trkpt lat="41.862991517409682" lon="13.368160827085376">
        <ele>1714.650024</ele>
        <time>2017-06-15T09:23:22Z</time>
      </trkpt>
      <trkpt lat="41.862989002838731" lon="13.368040965870023">
        <ele>1714.170044</ele>
        <time>2017-06-15T09:23:28Z</time>
      </trkpt>
      <trkpt lat="41.863000402227044" lon="13.367896964773536">
        <ele>1711.2799070000001</ele>
        <time>2017-06-15T09:23:38Z</time>
      </trkpt>
      <trkpt lat="41.863041305914521" lon="13.367718514055014">
        <ele>1709.8400879999999</ele>
        <time>2017-06-15T09:23:51Z</time>
      </trkpt>
      <trkpt lat="41.863135267049074" lon="13.367489771917462">
        <ele>1707.920044</ele>
        <time>2017-06-15T09:24:04Z</time>
      </trkpt>
      <trkpt lat="41.86326258815825" lon="13.367307214066386">
        <ele>1703.589966</ele>
        <time>2017-06-15T09:24:18Z</time>
      </trkpt>
      <trkpt lat="41.863377336412668" lon="13.367091463878751">
        <ele>1701.669922</ele>
        <time>2017-06-15T09:24:31Z</time>
      </trkpt>
      <trkpt lat="41.863429471850395" lon="13.36703329347074">
        <ele>1700.7100829999999</ele>
        <time>2017-06-15T09:24:35Z</time>
      </trkpt>
      <trkpt lat="41.863470459356904" lon="13.367008315399289">
        <ele>1699.2700199999999</ele>
        <time>2017-06-15T09:24:38Z</time>
      </trkpt>
      <trkpt lat="41.863484121859074" lon="13.367000687867403">
        <ele>1698.790039</ele>
        <time>2017-06-15T09:24:39Z</time>
      </trkpt>
      <trkpt lat="41.863575484603643" lon="13.366919634863734">
        <ele>1694.9399410000001</ele>
        <time>2017-06-15T09:24:48Z</time>
      </trkpt>
      <trkpt lat="41.863633822649717" lon="13.366830535233021">
        <ele>1691.1000979999999</ele>
        <time>2017-06-15T09:24:57Z</time>
      </trkpt>
      <trkpt lat="41.863696770742536" lon="13.36677823215723">
        <ele>1687.7299800000001</ele>
        <time>2017-06-15T09:25:05Z</time>
      </trkpt>
      <trkpt lat="41.863710265606642" lon="13.366774460300803">
        <ele>1687.7299800000001</ele>
        <time>2017-06-15T09:25:06Z</time>
      </trkpt>
      <trkpt lat="41.863797688856721" lon="13.366796337068081">
        <ele>1683.8900149999999</ele>
        <time>2017-06-15T09:25:17Z</time>
      </trkpt>
      <trkpt lat="41.863806573674083" lon="13.366796504706144">
        <ele>1683.8900149999999</ele>
        <time>2017-06-15T09:25:18Z</time>
      </trkpt>
      <trkpt lat="41.863933140411973" lon="13.366748560220003">
        <ele>1681</ele>
        <time>2017-06-15T09:25:32Z</time>
      </trkpt>
      <trkpt lat="41.863972032442689" lon="13.366719810292125">
        <ele>1681</ele>
        <time>2017-06-15T09:25:36Z</time>
      </trkpt>
      <trkpt lat="41.864113518968225" lon="13.366552339866757">
        <ele>1677.6400149999999</ele>
        <time>2017-06-15T09:25:52Z</time>
      </trkpt>
      <trkpt lat="41.86412014067173" lon="13.366526691243052">
        <ele>1677.6400149999999</ele>
        <time>2017-06-15T09:25:54Z</time>
      </trkpt>
      <trkpt lat="41.864226507022977" lon="13.366413284093142">
        <ele>1676.1999510000001</ele>
        <time>2017-06-15T09:26:07Z</time>
      </trkpt>
      <trkpt lat="41.864351062104106" lon="13.36641563102603">
        <ele>1675.2301030000001</ele>
        <time>2017-06-15T09:26:21Z</time>
      </trkpt>
      <trkpt lat="41.864391211420298" lon="13.366414541378617">
        <ele>1676.679932</ele>
        <time>2017-06-15T09:26:27Z</time>
      </trkpt>
      <trkpt lat="41.864489195868373" lon="13.366420660167933">
        <ele>1677.160034</ele>
        <time>2017-06-15T09:26:48Z</time>
      </trkpt>
      <trkpt lat="41.864518783986568" lon="13.366423510015011">
        <ele>1677.160034</ele>
        <time>2017-06-15T09:27:10Z</time>
      </trkpt>
      <trkpt lat="41.864538481459022" lon="13.36640196852386">
        <ele>1677.6400149999999</ele>
        <time>2017-06-15T09:27:35Z</time>
      </trkpt>
      <trkpt lat="41.864507384598255" lon="13.366451505571604">
        <ele>1677.6400149999999</ele>
        <time>2017-06-15T09:28:01Z</time>
      </trkpt>
      <trkpt lat="41.864521466195583" lon="13.36644790135324">
        <ele>1676.679932</ele>
        <time>2017-06-15T09:28:35Z</time>
      </trkpt>
      <trkpt lat="41.864540325477719" lon="13.366452008485794">
        <ele>1676.1999510000001</ele>
        <time>2017-06-15T09:28:53Z</time>
      </trkpt>
      <trkpt lat="41.864596735686064" lon="13.36645670235157">
        <ele>1672.349976</ele>
        <time>2017-06-15T09:29:22Z</time>
      </trkpt>
      <trkpt lat="41.864617271348834" lon="13.366490481421351">
        <ele>1670.4300539999999</ele>
        <time>2017-06-15T09:29:26Z</time>
      </trkpt>
      <trkpt lat="41.864638812839985" lon="13.366526439785957">
        <ele>1668.51001</ele>
        <time>2017-06-15T09:29:29Z</time>
      </trkpt>
      <trkpt lat="41.864646272733808" lon="13.366581760346889">
        <ele>1665.1400149999999</ele>
        <time>2017-06-15T09:29:35Z</time>
      </trkpt>
      <trkpt lat="41.86465909704566" lon="13.366592740640044">
        <ele>1664.1800539999999</ele>
        <time>2017-06-15T09:29:37Z</time>
      </trkpt>
      <trkpt lat="41.864668736234307" lon="13.366692066192627">
        <ele>1661.3000489999999</ele>
        <time>2017-06-15T09:29:44Z</time>
      </trkpt>
      <trkpt lat="41.864690193906426" lon="13.366828439757228">
        <ele>1657.929932</ele>
        <time>2017-06-15T09:29:51Z</time>
      </trkpt>
      <trkpt lat="41.864704862236977" lon="13.366887280717492">
        <ele>1654.570068</ele>
        <time>2017-06-15T09:30:03Z</time>
      </trkpt>
      <trkpt lat="41.86471626162529" lon="13.366903038695455">
        <ele>1652.6400149999999</ele>
        <time>2017-06-15T09:30:06Z</time>
      </trkpt>
      <trkpt lat="41.864726068452001" lon="13.366932962089777">
        <ele>1651.1999510000001</ele>
        <time>2017-06-15T09:30:09Z</time>
      </trkpt>
      <trkpt lat="41.864740988239646" lon="13.367017200216651">
        <ele>1648.3199460000001</ele>
        <time>2017-06-15T09:30:14Z</time>
      </trkpt>
      <trkpt lat="41.864709304645658" lon="13.367159860208631">
        <ele>1644.9499510000001</ele>
        <time>2017-06-15T09:30:24Z</time>
      </trkpt>
      <trkpt lat="41.864704862236977" lon="13.367240829393268">
        <ele>1641.589966</ele>
        <time>2017-06-15T09:30:31Z</time>
      </trkpt>
      <trkpt lat="41.864682482555509" lon="13.367279386147857">
        <ele>1639.669922</ele>
        <time>2017-06-15T09:30:35Z</time>
      </trkpt>
      <trkpt lat="41.864683739840984" lon="13.367326240986586">
        <ele>1636.3000489999999</ele>
        <time>2017-06-15T09:30:43Z</time>
      </trkpt>
      <trkpt lat="41.864661276340485" lon="13.367408132180572">
        <ele>1636.780029</ele>
        <time>2017-06-15T09:31:03Z</time>
      </trkpt>
      <trkpt lat="41.86463026329875" lon="13.367587337270379">
        <ele>1632.459961</ele>
        <time>2017-06-15T09:31:16Z</time>
      </trkpt>
      <trkpt lat="41.864606877788901" lon="13.367689680308104">
        <ele>1629.0900879999999</ele>
        <time>2017-06-15T09:31:23Z</time>
      </trkpt>
      <trkpt lat="41.864573014900088" lon="13.367752125486732">
        <ele>1626.690063</ele>
        <time>2017-06-15T09:31:36Z</time>
      </trkpt>
      <trkpt lat="41.864565890282393" lon="13.367775762453675">
        <ele>1626.209961</ele>
        <time>2017-06-15T09:31:38Z</time>
      </trkpt>
      <trkpt lat="41.864538062363863" lon="13.367856564000249">
        <ele>1623.3199460000001</ele>
        <time>2017-06-15T09:31:50Z</time>
      </trkpt>
      <trkpt lat="41.864550216123462" lon="13.367899563163519">
        <ele>1621.400024</ele>
        <time>2017-06-15T09:31:53Z</time>
      </trkpt>
      <trkpt lat="41.864588269963861" lon="13.367975084111094">
        <ele>1618.040039</ele>
        <time>2017-06-15T09:32:01Z</time>
      </trkpt>
      <trkpt lat="41.864611236378551" lon="13.368055634200573">
        <ele>1614.669922</ele>
        <time>2017-06-15T09:32:12Z</time>
      </trkpt>
      <trkpt lat="41.86460436321795" lon="13.368123779073358">
        <ele>1611.3100589999999</ele>
        <time>2017-06-15T09:32:19Z</time>
      </trkpt>
      <trkpt lat="41.864601681008935" lon="13.36813610047102">
        <ele>1611.3100589999999</ele>
        <time>2017-06-15T09:32:20Z</time>
      </trkpt>
      <trkpt lat="41.864540241658688" lon="13.368208520114422">
        <ele>1608.900024</ele>
        <time>2017-06-15T09:32:28Z</time>
      </trkpt>
      <trkpt lat="41.86448416672647" lon="13.368276916444302">
        <ele>1608.419922</ele>
        <time>2017-06-15T09:32:40Z</time>
      </trkpt>
      <trkpt lat="41.864487184211612" lon="13.368315640836954">
        <ele>1608.419922</ele>
        <time>2017-06-15T09:32:52Z</time>
      </trkpt>
      <trkpt lat="41.864442341029644" lon="13.36837456561625">
        <ele>1608.419922</ele>
        <time>2017-06-15T09:33:16Z</time>
      </trkpt>
      <trkpt lat="41.864499840885401" lon="13.368438770994544">
        <ele>1605.059937</ele>
        <time>2017-06-15T09:33:30Z</time>
      </trkpt>
      <trkpt lat="41.864473018795252" lon="13.36850699968636">
        <ele>1603.139893</ele>
        <time>2017-06-15T09:33:41Z</time>
      </trkpt>
      <trkpt lat="41.864481065422297" lon="13.368621664121747">
        <ele>1599.7700199999999</ele>
        <time>2017-06-15T09:33:53Z</time>
      </trkpt>
      <trkpt lat="41.864487687125802" lon="13.368648234754801">
        <ele>1598.809937</ele>
        <time>2017-06-15T09:33:55Z</time>
      </trkpt>
      <trkpt lat="41.864509060978889" lon="13.368725934997201">
        <ele>1595.4499510000001</ele>
        <time>2017-06-15T09:34:03Z</time>
      </trkpt>
      <trkpt lat="41.864514090120792" lon="13.368741190060973">
        <ele>1595.4499510000001</ele>
        <time>2017-06-15T09:34:04Z</time>
      </trkpt>
      <trkpt lat="41.864547869190574" lon="13.36885392665863">
        <ele>1591.119995</ele>
        <time>2017-06-15T09:34:14Z</time>
      </trkpt>
      <trkpt lat="41.864546863362193" lon="13.368867672979832">
        <ele>1591.119995</ele>
        <time>2017-06-15T09:34:15Z</time>
      </trkpt>
      <trkpt lat="41.864537559449673" lon="13.369000190868974">
        <ele>1587.2700199999999</ele>
        <time>2017-06-15T09:34:24Z</time>
      </trkpt>
      <trkpt lat="41.86455256305635" lon="13.369036568328738">
        <ele>1585.830078</ele>
        <time>2017-06-15T09:34:28Z</time>
      </trkpt>
      <trkpt lat="41.864556334912777" lon="13.369060624390841">
        <ele>1584.869995</ele>
        <time>2017-06-15T09:34:30Z</time>
      </trkpt>
      <trkpt lat="41.864565135911107" lon="13.369207559153438">
        <ele>1581.51001</ele>
        <time>2017-06-15T09:34:39Z</time>
      </trkpt>
      <trkpt lat="41.86460243538022" lon="13.369253659620881">
        <ele>1580.059937</ele>
        <time>2017-06-15T09:34:44Z</time>
      </trkpt>
      <trkpt lat="41.864641578868032" lon="13.369286097586155">
        <ele>1578.139893</ele>
        <time>2017-06-15T09:34:53Z</time>
      </trkpt>
      <trkpt lat="41.864657085388899" lon="13.369299424812198">
        <ele>1578.139893</ele>
        <time>2017-06-15T09:34:55Z</time>
      </trkpt>
      <trkpt lat="41.864676782861352" lon="13.36932398378849">
        <ele>1577.660034</ele>
        <time>2017-06-15T09:34:57Z</time>
      </trkpt>
      <trkpt lat="41.864735037088394" lon="13.369400762021542">
        <ele>1575.73999</ele>
        <time>2017-06-15T09:35:13Z</time>
      </trkpt>
      <trkpt lat="41.864737970754504" lon="13.369416771456599">
        <ele>1574.780029</ele>
        <time>2017-06-15T09:35:16Z</time>
      </trkpt>
      <trkpt lat="41.86477879062295" lon="13.369438396766782">
        <ele>1573.329956</ele>
        <time>2017-06-15T09:35:20Z</time>
      </trkpt>
      <trkpt lat="41.864792872220278" lon="13.369447365403175">
        <ele>1572.849976</ele>
        <time>2017-06-15T09:35:29Z</time>
      </trkpt>
      <trkpt lat="41.864812821149826" lon="13.369553228840232">
        <ele>1570.929932</ele>
        <time>2017-06-15T09:35:41Z</time>
      </trkpt>
      <trkpt lat="41.864774012938142" lon="13.369575440883636">
        <ele>1570.929932</ele>
        <time>2017-06-15T09:36:07Z</time>
      </trkpt>
      <trkpt lat="41.864832686260343" lon="13.369634114205837">
        <ele>1567.570068</ele>
        <time>2017-06-15T09:36:19Z</time>
      </trkpt>
      <trkpt lat="41.864888509735465" lon="13.369687087833881">
        <ele>1564.1999510000001</ele>
        <time>2017-06-15T09:36:28Z</time>
      </trkpt>
      <trkpt lat="41.864951960742474" lon="13.369670659303665">
        <ele>1560.839966</ele>
        <time>2017-06-15T09:36:39Z</time>
      </trkpt>
      <trkpt lat="41.865016920492053" lon="13.369581559672952">
        <ele>1557.469971</ele>
        <time>2017-06-15T09:36:49Z</time>
      </trkpt>
      <trkpt lat="41.865064864978194" lon="13.369542416185141">
        <ele>1555.5500489999999</ele>
        <time>2017-06-15T09:36:55Z</time>
      </trkpt>
      <trkpt lat="41.865096632391214" lon="13.369495561346412">
        <ele>1554.1099850000001</ele>
        <time>2017-06-15T09:37:00Z</time>
      </trkpt>
      <trkpt lat="41.865135189145803" lon="13.369400929659605">
        <ele>1552.669922</ele>
        <time>2017-06-15T09:37:13Z</time>
      </trkpt>
      <trkpt lat="41.865137536078691" lon="13.369390536099672">
        <ele>1552.1899410000001</ele>
        <time>2017-06-15T09:37:14Z</time>
      </trkpt>
      <trkpt lat="41.865141307935119" lon="13.369365809485316">
        <ele>1552.1899410000001</ele>
        <time>2017-06-15T09:37:16Z</time>
      </trkpt>
      <trkpt lat="41.865183636546135" lon="13.369278972968459">
        <ele>1549.780029</ele>
        <time>2017-06-15T09:37:31Z</time>
      </trkpt>
      <trkpt lat="41.865242561325431" lon="13.369192639365792">
        <ele>1548.339966</ele>
        <time>2017-06-15T09:37:44Z</time>
      </trkpt>
      <trkpt lat="41.865243315696716" lon="13.369148802012205">
        <ele>1545.459961</ele>
        <time>2017-06-15T09:37:58Z</time>
      </trkpt>
      <trkpt lat="41.86532068066299" lon="13.369164392352104">
        <ele>1542.0900879999999</ele>
        <time>2017-06-15T09:38:07Z</time>
      </trkpt>
      <trkpt lat="41.865352028980851" lon="13.369154836982489">
        <ele>1540.650024</ele>
        <time>2017-06-15T09:38:15Z</time>
      </trkpt>
      <trkpt lat="41.865393100306392" lon="13.369138240814209">
        <ele>1537.7700199999999</ele>
        <time>2017-06-15T09:38:21Z</time>
      </trkpt>
      <trkpt lat="41.865405170246959" lon="13.369049560278654">
        <ele>1535.839966</ele>
        <time>2017-06-15T09:38:33Z</time>
      </trkpt>
      <trkpt lat="41.865447666496038" lon="13.369011506438255">
        <ele>1533.920044</ele>
        <time>2017-06-15T09:38:42Z</time>
      </trkpt>
      <trkpt lat="41.865526288747787" lon="13.368995832279325">
        <ele>1531.040039</ele>
        <time>2017-06-15T09:38:53Z</time>
      </trkpt>
      <trkpt lat="41.865628967061639" lon="13.368949312716722">
        <ele>1529.1099850000001</ele>
        <time>2017-06-15T09:39:04Z</time>
      </trkpt>
      <trkpt lat="41.865734998136759" lon="13.368967417627573">
        <ele>1528.630005</ele>
        <time>2017-06-15T09:39:19Z</time>
      </trkpt>
      <trkpt lat="41.865767603740096" lon="13.368979319930077">
        <ele>1528.150024</ele>
        <time>2017-06-15T09:39:23Z</time>
      </trkpt>
      <trkpt lat="41.865813536569476" lon="13.369022235274315">
        <ele>1525.2698969999999</ele>
        <time>2017-06-15T09:39:31Z</time>
      </trkpt>
      <trkpt lat="41.865839939564466" lon="13.369080489501357">
        <ele>1521.900024</ele>
        <time>2017-06-15T09:39:36Z</time>
      </trkpt>
      <trkpt lat="41.865893835201859" lon="13.369096163660288">
        <ele>1519.5</ele>
        <time>2017-06-15T09:39:42Z</time>
      </trkpt>
      <trkpt lat="41.865953765809536" lon="13.369159111753106">
        <ele>1515.1800539999999</ele>
        <time>2017-06-15T09:39:53Z</time>
      </trkpt>
      <trkpt lat="41.8660350702703" lon="13.369169924408197">
        <ele>1511.809937</ele>
        <time>2017-06-15T09:40:06Z</time>
      </trkpt>
      <trkpt lat="41.866134898737073" lon="13.369202362373471">
        <ele>1510.369995</ele>
        <time>2017-06-15T09:40:25Z</time>
      </trkpt>
      <trkpt lat="41.8662388343364" lon="13.369215773418546">
        <ele>1510.369995</ele>
        <time>2017-06-15T09:40:50Z</time>
      </trkpt>
      <trkpt lat="41.866219136863947" lon="13.369161207228899">
        <ele>1510.369995</ele>
        <time>2017-06-15T09:41:08Z</time>
      </trkpt>
      <trkpt lat="41.866261130198836" lon="13.369161710143089">
        <ele>1507.4799800000001</ele>
        <time>2017-06-15T09:41:18Z</time>
      </trkpt>
      <trkpt lat="41.866330364719033" lon="13.369166990742087">
        <ele>1504.119995</ele>
        <time>2017-06-15T09:41:28Z</time>
      </trkpt>
      <trkpt lat="41.866396833211184" lon="13.369179060682654">
        <ele>1500.76001</ele>
        <time>2017-06-15T09:41:39Z</time>
      </trkpt>
      <trkpt lat="41.866400940343738" lon="13.369185095652938">
        <ele>1500.2698969999999</ele>
        <time>2017-06-15T09:41:40Z</time>
      </trkpt>
      <trkpt lat="41.86644016765058" lon="13.369217198342085">
        <ele>1498.3500979999999</ele>
        <time>2017-06-15T09:41:53Z</time>
      </trkpt>
      <trkpt lat="41.86645039357245" lon="13.369218036532402">
        <ele>1497.869995</ele>
        <time>2017-06-15T09:41:55Z</time>
      </trkpt>
      <trkpt lat="41.86649389564991" lon="13.369222478941083">
        <ele>1496.910034</ele>
        <time>2017-06-15T09:42:00Z</time>
      </trkpt>
      <trkpt lat="41.866605374962091" lon="13.369250809773803">
        <ele>1496.910034</ele>
        <time>2017-06-15T09:42:13Z</time>
      </trkpt>
      <trkpt lat="41.86666002497077" lon="13.369223987683654">
        <ele>1494.98999</ele>
        <time>2017-06-15T09:42:30Z</time>
      </trkpt>
      <trkpt lat="41.866729175671935" lon="13.369206385686994">
        <ele>1491.6201169999999</ele>
        <time>2017-06-15T09:42:40Z</time>
      </trkpt>
      <trkpt lat="41.866784077137709" lon="13.369251061230898">
        <ele>1488.73999</ele>
        <time>2017-06-15T09:42:53Z</time>
      </trkpt>
      <trkpt lat="41.866841241717339" lon="13.369258521124721">
        <ele>1485.369995</ele>
        <time>2017-06-15T09:43:00Z</time>
      </trkpt>
      <trkpt lat="41.866847360506654" lon="13.369344603270292">
        <ele>1482.48999</ele>
        <time>2017-06-15T09:43:12Z</time>
      </trkpt>
      <trkpt lat="41.866926988586783" lon="13.369413167238235">
        <ele>1479.6099850000001</ele>
        <time>2017-06-15T09:43:20Z</time>
      </trkpt>
      <trkpt lat="41.866957414895296" lon="13.369472930207849">
        <ele>1475.76001</ele>
        <time>2017-06-15T09:43:32Z</time>
      </trkpt>
      <trkpt lat="41.866971580311656" lon="13.369472427293658">
        <ele>1475.280029</ele>
        <time>2017-06-15T09:43:38Z</time>
      </trkpt>
      <trkpt lat="41.867067134007812" lon="13.369503859430552">
        <ele>1470.950073</ele>
        <time>2017-06-15T09:43:48Z</time>
      </trkpt>
      <trkpt lat="41.867121700197458" lon="13.369573429226875">
        <ele>1467.589966</ele>
        <time>2017-06-15T09:43:58Z</time>
      </trkpt>
      <trkpt lat="41.867231503129005" lon="13.369629587978125">
        <ele>1465.1899410000001</ele>
        <time>2017-06-15T09:44:11Z</time>
      </trkpt>
      <trkpt lat="41.867275005206466" lon="13.369688177481294">
        <ele>1461.820068</ele>
        <time>2017-06-15T09:44:20Z</time>
      </trkpt>
      <trkpt lat="41.867344994097948" lon="13.369715334847569">
        <ele>1458.9399410000001</ele>
        <time>2017-06-15T09:44:31Z</time>
      </trkpt>
      <trkpt lat="41.867358321323991" lon="13.369736038148403">
        <ele>1457.5</ele>
        <time>2017-06-15T09:44:34Z</time>
      </trkpt>
      <trkpt lat="41.867381706833839" lon="13.369843158870935">
        <ele>1454.6099850000001</ele>
        <time>2017-06-15T09:44:48Z</time>
      </trkpt>
      <trkpt lat="41.867426969110966" lon="13.369928486645222">
        <ele>1451.25</ele>
        <time>2017-06-15T09:45:01Z</time>
      </trkpt>
      <trkpt lat="41.867471393197775" lon="13.370038289576769">
        <ele>1448.839966</ele>
        <time>2017-06-15T09:45:12Z</time>
      </trkpt>
      <trkpt lat="41.867537023499608" lon="13.370185727253556">
        <ele>1445.9600829999999</ele>
        <time>2017-06-15T09:45:23Z</time>
      </trkpt>
      <trkpt lat="41.867488408461213" lon="13.37024942971766">
        <ele>1446.440063</ele>
        <time>2017-06-15T09:45:30Z</time>
      </trkpt>
      <trkpt lat="41.867415066808462" lon="13.370295781642199">
        <ele>1447.3999020000001</ele>
        <time>2017-06-15T09:45:37Z</time>
      </trkpt>
      <trkpt lat="41.867324626073241" lon="13.370462413877249">
        <ele>1449.3199460000001</ele>
        <time>2017-06-15T09:45:51Z</time>
      </trkpt>
      <trkpt lat="41.867302497848868" lon="13.370518824085593">
        <ele>1450.290039</ele>
        <time>2017-06-15T09:45:55Z</time>
      </trkpt>
      <trkpt lat="41.867240471765399" lon="13.370658969506621">
        <ele>1452.209961</ele>
        <time>2017-06-15T09:46:07Z</time>
      </trkpt>
      <trkpt lat="41.867189090698957" lon="13.370819985866547">
        <ele>1454.130005</ele>
        <time>2017-06-15T09:46:20Z</time>
      </trkpt>
      <trkpt lat="41.867108792066574" lon="13.370959125459194">
        <ele>1454.6099850000001</ele>
        <time>2017-06-15T09:46:31Z</time>
      </trkpt>
      <trkpt lat="41.866994882002473" lon="13.371079908683896">
        <ele>1456.5299070000001</ele>
        <time>2017-06-15T09:46:45Z</time>
      </trkpt>
      <trkpt lat="41.866878792643547" lon="13.371223239228129">
        <ele>1457.5</ele>
        <time>2017-06-15T09:47:00Z</time>
      </trkpt>
      <trkpt lat="41.866873763501644" lon="13.371237069368362">
        <ele>1457.5</ele>
        <time>2017-06-15T09:47:01Z</time>
      </trkpt>
      <trkpt lat="41.866736803203821" lon="13.371409066021442">
        <ele>1458.9399410000001</ele>
        <time>2017-06-15T09:47:17Z</time>
      </trkpt>
      <trkpt lat="41.866626664996147" lon="13.371500093489885">
        <ele>1459.900024</ele>
        <time>2017-06-15T09:47:29Z</time>
      </trkpt>
      <trkpt lat="41.86658626422286" lon="13.371511660516262">
        <ele>1460.380005</ele>
        <time>2017-06-15T09:47:32Z</time>
      </trkpt>
      <trkpt lat="41.866519963368773" lon="13.371559521183372">
        <ele>1460.380005</ele>
        <time>2017-06-15T09:47:39Z</time>
      </trkpt>
      <trkpt lat="41.866357941180468" lon="13.37169723585248">
        <ele>1461.339966</ele>
        <time>2017-06-15T09:47:54Z</time>
      </trkpt>
      <trkpt lat="41.86633413657546" lon="13.371766973286867">
        <ele>1461.820068</ele>
        <time>2017-06-15T09:47:58Z</time>
      </trkpt>
      <trkpt lat="41.866229195147753" lon="13.372000996023417">
        <ele>1462.780029</ele>
        <time>2017-06-15T09:48:16Z</time>
      </trkpt>
      <trkpt lat="41.866179071366787" lon="13.372010635212064">
        <ele>1463.26001</ele>
        <time>2017-06-15T09:48:37Z</time>
      </trkpt>
      <trkpt lat="41.866157362237573" lon="13.372049359604716">
        <ele>1463.26001</ele>
        <time>2017-06-15T09:48:42Z</time>
      </trkpt>
      <trkpt lat="41.866041608154774" lon="13.372219260782003">
        <ele>1465.1899410000001</ele>
        <time>2017-06-15T09:48:57Z</time>
      </trkpt>
      <trkpt lat="41.866003638133407" lon="13.372261673212051">
        <ele>1466.630005</ele>
        <time>2017-06-15T09:49:01Z</time>
      </trkpt>
      <trkpt lat="41.865911101922393" lon="13.372390335425735">
        <ele>1467.589966</ele>
        <time>2017-06-15T09:49:12Z</time>
      </trkpt>
      <trkpt lat="41.865822169929743" lon="13.372504664584994">
        <ele>1467.589966</ele>
        <time>2017-06-15T09:49:28Z</time>
      </trkpt>
      <trkpt lat="41.865817727521062" lon="13.372510699555278">
        <ele>1468.0699460000001</ele>
        <time>2017-06-15T09:49:37Z</time>
      </trkpt>
      <trkpt lat="41.865850668400526" lon="13.372471639886498">
        <ele>1468.0699460000001</ele>
        <time>2017-06-15T09:49:43Z</time>
      </trkpt>
      <trkpt lat="41.865949323400855" lon="13.372381282970309">
        <ele>1468.0699460000001</ele>
        <time>2017-06-15T09:49:51Z</time>
      </trkpt>
      <trkpt lat="41.866004895418882" lon="13.372301235795021">
        <ele>1466.150024</ele>
        <time>2017-06-15T09:49:58Z</time>
      </trkpt>
      <trkpt lat="41.866018809378147" lon="13.372310204431415">
        <ele>1465.1899410000001</ele>
        <time>2017-06-15T09:50:15Z</time>
      </trkpt>
      <trkpt lat="41.866056276485324" lon="13.372316993772984">
        <ele>1464.709961</ele>
        <time>2017-06-15T09:50:39Z</time>
      </trkpt>
      <trkpt lat="41.86602576635778" lon="13.372386563569307">
        <ele>1464.709961</ele>
        <time>2017-06-15T09:51:11Z</time>
      </trkpt>
      <trkpt lat="41.866034986451268" lon="13.37240332737565">
        <ele>1464.709961</ele>
        <time>2017-06-15T09:51:47Z</time>
      </trkpt>
      <trkpt lat="41.865989975631237" lon="13.372367788106203">
        <ele>1464.709961</ele>
        <time>2017-06-15T09:52:13Z</time>
      </trkpt>
      <trkpt lat="41.866075387224555" lon="13.372439704835415">
        <ele>1464.709961</ele>
        <time>2017-06-15T09:52:41Z</time>
      </trkpt>
      <trkpt lat="41.866044038906693" lon="13.372415984049439">
        <ele>1464.709961</ele>
        <time>2017-06-15T09:53:22Z</time>
      </trkpt>
      <trkpt lat="41.866066083312035" lon="13.372291764244437">
        <ele>1465.669922</ele>
        <time>2017-06-15T09:53:45Z</time>
      </trkpt>
      <trkpt lat="41.866144370287657" lon="13.372221607714891">
        <ele>1465.669922</ele>
        <time>2017-06-15T09:54:17Z</time>
      </trkpt>
      <trkpt lat="41.86611226759851" lon="13.372219176962972">
        <ele>1465.669922</ele>
        <time>2017-06-15T09:54:45Z</time>
      </trkpt>
      <trkpt lat="41.86616163700819" lon="13.372256141155958">
        <ele>1465.669922</ele>
        <time>2017-06-15T09:55:17Z</time>
      </trkpt>
      <trkpt lat="41.866142693907022" lon="13.372213561087847">
        <ele>1465.1899410000001</ele>
        <time>2017-06-15T09:55:47Z</time>
      </trkpt>
      <trkpt lat="41.866107741370797" lon="13.372201239690185">
        <ele>1464.2299800000001</ele>
        <time>2017-06-15T09:56:20Z</time>
      </trkpt>
      <trkpt lat="41.866138838231564" lon="13.372257566079497">
        <ele>1463.73999</ele>
        <time>2017-06-15T09:56:51Z</time>
      </trkpt>
      <trkpt lat="41.866138419136405" lon="13.372267875820398">
        <ele>1463.73999</ele>
        <time>2017-06-15T09:57:28Z</time>
      </trkpt>
      <trkpt lat="41.866121739149094" lon="13.372280364856124">
        <ele>1463.73999</ele>
        <time>2017-06-15T09:58:04Z</time>
      </trkpt>
      <trkpt lat="41.866167839616537" lon="13.372209537774324">
        <ele>1463.73999</ele>
        <time>2017-06-15T09:58:32Z</time>
      </trkpt>
      <trkpt lat="41.866158284246922" lon="13.372143404558301">
        <ele>1463.26001</ele>
        <time>2017-06-15T09:58:57Z</time>
      </trkpt>
      <trkpt lat="41.866233218461275" lon="13.372052712365985">
        <ele>1461.339966</ele>
        <time>2017-06-15T09:59:11Z</time>
      </trkpt>
      <trkpt lat="41.866317959502339" lon="13.371913991868496">
        <ele>1460.380005</ele>
        <time>2017-06-15T09:59:26Z</time>
      </trkpt>
      <trkpt lat="41.86641376465559" lon="13.371752137318254">
        <ele>1459.900024</ele>
        <time>2017-06-15T09:59:40Z</time>
      </trkpt>
      <trkpt lat="41.866508480161428" lon="13.371633868664503">
        <ele>1458.9399410000001</ele>
        <time>2017-06-15T09:59:53Z</time>
      </trkpt>
      <trkpt lat="41.866662539541721" lon="13.371465560048819">
        <ele>1457.5</ele>
        <time>2017-06-15T10:00:10Z</time>
      </trkpt>
      <trkpt lat="41.866755494847894" lon="13.37136497721076">
        <ele>1457.0200199999999</ele>
        <time>2017-06-15T10:00:22Z</time>
      </trkpt>
      <trkpt lat="41.866847025230527" lon="13.37123597972095">
        <ele>1455.570068</ele>
        <time>2017-06-15T10:00:34Z</time>
      </trkpt>
      <trkpt lat="41.866950625553727" lon="13.371125338599086">
        <ele>1454.130005</ele>
        <time>2017-06-15T10:00:47Z</time>
      </trkpt>
      <trkpt lat="41.867066463455558" lon="13.370939260348678">
        <ele>1452.209961</ele>
        <time>2017-06-15T10:01:04Z</time>
      </trkpt>
      <trkpt lat="41.867154976353049" lon="13.370748739689589">
        <ele>1450.7700199999999</ele>
        <time>2017-06-15T10:01:19Z</time>
      </trkpt>
      <trkpt lat="41.867234604433179" lon="13.370558638125658">
        <ele>1448.839966</ele>
        <time>2017-06-15T10:01:34Z</time>
      </trkpt>
      <trkpt lat="41.86733091250062" lon="13.370425868779421">
        <ele>1445.9600829999999</ele>
        <time>2017-06-15T10:01:47Z</time>
      </trkpt>
      <trkpt lat="41.867503160610795" lon="13.370308941230178">
        <ele>1444.040039</ele>
        <time>2017-06-15T10:02:02Z</time>
      </trkpt>
      <trkpt lat="41.867595529183745" lon="13.370250603184104">
        <ele>1443.080078</ele>
        <time>2017-06-15T10:02:18Z</time>
      </trkpt>
      <trkpt lat="41.867560325190425" lon="13.370246831327677">
        <ele>1443.080078</ele>
        <time>2017-06-15T10:02:39Z</time>
      </trkpt>
      <trkpt lat="41.867682784795761" lon="13.370124287903309">
        <ele>1442.599976</ele>
        <time>2017-06-15T10:02:52Z</time>
      </trkpt>
      <trkpt lat="41.867751432582736" lon="13.369982885196805">
        <ele>1440.1899410000001</ele>
        <time>2017-06-15T10:03:06Z</time>
      </trkpt>
      <trkpt lat="41.867905994877219" lon="13.369845421984792">
        <ele>1437.7899170000001</ele>
        <time>2017-06-15T10:03:23Z</time>
      </trkpt>
      <trkpt lat="41.868107914924622" lon="13.369778366759419">
        <ele>1435.3900149999999</ele>
        <time>2017-06-15T10:03:37Z</time>
      </trkpt>
      <trkpt lat="41.868149992078543" lon="13.369774594902992">
        <ele>1435.3900149999999</ele>
        <time>2017-06-15T10:03:40Z</time>
      </trkpt>
      <trkpt lat="41.868227105587721" lon="13.369758501648903">
        <ele>1433.9399410000001</ele>
        <time>2017-06-15T10:03:46Z</time>
      </trkpt>
      <trkpt lat="41.868279911577702" lon="13.369731428101659">
        <ele>1432.0200199999999</ele>
        <time>2017-06-15T10:03:51Z</time>
      </trkpt>
      <trkpt lat="41.868364904075861" lon="13.369691278785467">
        <ele>1431.059937</ele>
        <time>2017-06-15T10:04:04Z</time>
      </trkpt>
      <trkpt lat="41.868508402258158" lon="13.369688177481294">
        <ele>1429.139893</ele>
        <time>2017-06-15T10:04:18Z</time>
      </trkpt>
      <trkpt lat="41.868605297058821" lon="13.369698403403163">
        <ele>1429.139893</ele>
        <time>2017-06-15T10:04:39Z</time>
      </trkpt>
      <trkpt lat="41.86865508556366" lon="13.369859587401152">
        <ele>1425.7700199999999</ele>
        <time>2017-06-15T10:04:52Z</time>
      </trkpt>
      <trkpt lat="41.868590964004397" lon="13.369971737265587">
        <ele>1424.329956</ele>
        <time>2017-06-15T10:05:08Z</time>
      </trkpt>
      <trkpt lat="41.868596412241459" lon="13.370004426687956">
        <ele>1424.329956</ele>
        <time>2017-06-15T10:05:29Z</time>
      </trkpt>
      <trkpt lat="41.868561375886202" lon="13.370200395584106">
        <ele>1421.929932</ele>
        <time>2017-06-15T10:05:45Z</time>
      </trkpt>
      <trkpt lat="41.868548886850476" lon="13.370294189080596">
        <ele>1419.040039</ele>
        <time>2017-06-15T10:05:53Z</time>
      </trkpt>
      <trkpt lat="41.86854612082243" lon="13.370367279276252">
        <ele>1417.119995</ele>
        <time>2017-06-15T10:05:58Z</time>
      </trkpt>
      <trkpt lat="41.868551820516586" lon="13.370556207373738">
        <ele>1415.1999510000001</ele>
        <time>2017-06-15T10:06:10Z</time>
      </trkpt>
      <trkpt lat="41.868560034781694" lon="13.370691407471895">
        <ele>1413.280029</ele>
        <time>2017-06-15T10:06:24Z</time>
      </trkpt>
      <trkpt lat="41.86856028623879" lon="13.370708674192429">
        <ele>1413.280029</ele>
        <time>2017-06-15T10:06:26Z</time>
      </trkpt>
      <trkpt lat="41.868546959012747" lon="13.370744632557034">
        <ele>1411.830078</ele>
        <time>2017-06-15T10:06:29Z</time>
      </trkpt>
      <trkpt lat="41.868521561846137" lon="13.370955940335989">
        <ele>1409.910034</ele>
        <time>2017-06-15T10:06:41Z</time>
      </trkpt>
      <trkpt lat="41.868491135537624" lon="13.371055014431477">
        <ele>1407.030029</ele>
        <time>2017-06-15T10:06:51Z</time>
      </trkpt>
      <trkpt lat="41.86851242557168" lon="13.371174037456512">
        <ele>1406.0699460000001</ele>
        <time>2017-06-15T10:06:59Z</time>
      </trkpt>
      <trkpt lat="41.868522400036454" lon="13.371209912002087">
        <ele>1405.099976</ele>
        <time>2017-06-15T10:07:01Z</time>
      </trkpt>
      <trkpt lat="41.868533883243799" lon="13.371250564232469">
        <ele>1404.619995</ele>
        <time>2017-06-15T10:07:03Z</time>
      </trkpt>
      <trkpt lat="41.868620384484529" lon="13.371498165652156">
        <ele>1401.7398679999999</ele>
        <time>2017-06-15T10:07:16Z</time>
      </trkpt>
      <trkpt lat="41.86863069422543" lon="13.371611405164003">
        <ele>1399.3400879999999</ele>
        <time>2017-06-15T10:07:26Z</time>
      </trkpt>
      <trkpt lat="41.86862776055932" lon="13.371832184493542">
        <ele>1396.929932</ele>
        <time>2017-06-15T10:07:38Z</time>
      </trkpt>
      <trkpt lat="41.868630526587367" lon="13.371867639943957">
        <ele>1395.969971</ele>
        <time>2017-06-15T10:07:40Z</time>
      </trkpt>
      <trkpt lat="41.868637064471841" lon="13.372073834761977">
        <ele>1393.0900879999999</ele>
        <time>2017-06-15T10:07:53Z</time>
      </trkpt>
      <trkpt lat="41.868605799973011" lon="13.372237365692854">
        <ele>1391.170044</ele>
        <time>2017-06-15T10:08:05Z</time>
      </trkpt>
      <trkpt lat="41.868609571829438" lon="13.372379690408707">
        <ele>1389.719971</ele>
        <time>2017-06-15T10:08:15Z</time>
      </trkpt>
      <trkpt lat="41.868705209344625" lon="13.372569289058447">
        <ele>1386.839966</ele>
        <time>2017-06-15T10:08:31Z</time>
      </trkpt>
      <trkpt lat="41.868729600682855" lon="13.372638858854771">
        <ele>1385.880005</ele>
        <time>2017-06-15T10:08:36Z</time>
      </trkpt>
      <trkpt lat="41.868754159659147" lon="13.372799037024379">
        <ele>1383.9600829999999</ele>
        <time>2017-06-15T10:08:48Z</time>
      </trkpt>
      <trkpt lat="41.868729935958982" lon="13.372965082526207">
        <ele>1382.51001</ele>
        <time>2017-06-15T10:08:58Z</time>
      </trkpt>
      <trkpt lat="41.868705879896879" lon="13.373148227110505">
        <ele>1380.589966</ele>
        <time>2017-06-15T10:09:09Z</time>
      </trkpt>
      <trkpt lat="41.868704203516245" lon="13.373319134116173">
        <ele>1378.1899410000001</ele>
        <time>2017-06-15T10:09:21Z</time>
      </trkpt>
      <trkpt lat="41.868675034493208" lon="13.373339334502816">
        <ele>1378.1899410000001</ele>
        <time>2017-06-15T10:09:24Z</time>
      </trkpt>
      <trkpt lat="41.868608566001058" lon="13.373381160199642">
        <ele>1377.2299800000001</ele>
        <time>2017-06-15T10:09:30Z</time>
      </trkpt>
      <trkpt lat="41.868406562134624" lon="13.373417872935534">
        <ele>1376.26001</ele>
        <time>2017-06-15T10:09:45Z</time>
      </trkpt>
      <trkpt lat="41.868274128064513" lon="13.373412173241377">
        <ele>1375.780029</ele>
        <time>2017-06-15T10:09:57Z</time>
      </trkpt>
      <trkpt lat="41.868285359814763" lon="13.373395828530192">
        <ele>1375.780029</ele>
        <time>2017-06-15T10:10:09Z</time>
      </trkpt>
      <trkpt lat="41.868305811658502" lon="13.373368419706821">
        <ele>1375.780029</ele>
        <time>2017-06-15T10:10:12Z</time>
      </trkpt>
      <trkpt lat="41.868323497474194" lon="13.373354589566588">
        <ele>1375.780029</ele>
        <time>2017-06-15T10:10:14Z</time>
      </trkpt>
      <trkpt lat="41.868335735052824" lon="13.373334808275104">
        <ele>1377.2299800000001</ele>
        <time>2017-06-15T10:10:28Z</time>
      </trkpt>
      <trkpt lat="41.868334226310253" lon="13.373376969248056">
        <ele>1377.2299800000001</ele>
        <time>2017-06-15T10:10:57Z</time>
      </trkpt>
      <trkpt lat="41.868350822478533" lon="13.373330030590296">
        <ele>1377.2299800000001</ele>
        <time>2017-06-15T10:11:09Z</time>
      </trkpt>
      <trkpt lat="41.868333723396063" lon="13.373292898759246">
        <ele>1377.2299800000001</ele>
        <time>2017-06-15T10:11:35Z</time>
      </trkpt>
      <trkpt lat="41.86835459433496" lon="13.373290803283453">
        <ele>1377.2299800000001</ele>
        <time>2017-06-15T10:11:53Z</time>
      </trkpt>
      <trkpt lat="41.86836046166718" lon="13.373298766091466">
        <ele>1376.75</ele>
        <time>2017-06-15T10:12:12Z</time>
      </trkpt>
      <trkpt lat="41.868385272100568" lon="13.373332461342216">
        <ele>1376.75</ele>
        <time>2017-06-15T10:12:23Z</time>
      </trkpt>
      <trkpt lat="41.868460290133953" lon="13.373370012268424">
        <ele>1376.75</ele>
        <time>2017-06-15T10:12:32Z</time>
      </trkpt>
      <trkpt lat="41.868487363681197" lon="13.373368084430695">
        <ele>1376.75</ele>
        <time>2017-06-15T10:12:35Z</time>
      </trkpt>
      <trkpt lat="41.868480574339628" lon="13.37342600338161">
        <ele>1375.780029</ele>
        <time>2017-06-15T10:12:40Z</time>
      </trkpt>
      <trkpt lat="41.868343278765678" lon="13.373539578169584">
        <ele>1373.380005</ele>
        <time>2017-06-15T10:12:58Z</time>
      </trkpt>
      <trkpt lat="41.868355767801404" lon="13.373546535149217">
        <ele>1372.900024</ele>
        <time>2017-06-15T10:13:23Z</time>
      </trkpt>
      <trkpt lat="41.868339171633124" lon="13.373547038063407">
        <ele>1372.900024</ele>
        <time>2017-06-15T10:13:30Z</time>
      </trkpt>
      <trkpt lat="41.868294076994061" lon="13.373564975336194">
        <ele>1372.420044</ele>
        <time>2017-06-15T10:13:34Z</time>
      </trkpt>
      <trkpt lat="41.868252921849489" lon="13.373597413301468">
        <ele>1371.940063</ele>
        <time>2017-06-15T10:13:38Z</time>
      </trkpt>
      <trkpt lat="41.868062485009432" lon="13.373730769380927">
        <ele>1370.0200199999999</ele>
        <time>2017-06-15T10:13:56Z</time>
      </trkpt>
      <trkpt lat="41.868026023730636" lon="13.3738081343472">
        <ele>1370.0200199999999</ele>
        <time>2017-06-15T10:14:02Z</time>
      </trkpt>
      <trkpt lat="41.867970786988735" lon="13.373972084373236">
        <ele>1369.049927</ele>
        <time>2017-06-15T10:14:14Z</time>
      </trkpt>
      <trkpt lat="41.867941282689571" lon="13.374005360528827">
        <ele>1369.049927</ele>
        <time>2017-06-15T10:14:17Z</time>
      </trkpt>
      <trkpt lat="41.867853440344334" lon="13.374154809862375">
        <ele>1368.0900879999999</ele>
        <time>2017-06-15T10:14:33Z</time>
      </trkpt>
      <trkpt lat="41.867819325998425" lon="13.374208034947515">
        <ele>1367.610107</ele>
        <time>2017-06-15T10:14:37Z</time>
      </trkpt>
      <trkpt lat="41.867784289643168" lon="13.374282801523805">
        <ele>1367.130005</ele>
        <time>2017-06-15T10:14:41Z</time>
      </trkpt>
      <trkpt lat="41.867736428976059" lon="13.374332338571548">
        <ele>1367.130005</ele>
        <time>2017-06-15T10:14:45Z</time>
      </trkpt>
      <trkpt lat="41.867615561932325" lon="13.374526966363192">
        <ele>1366.650024</ele>
        <time>2017-06-15T10:14:58Z</time>
      </trkpt>
      <trkpt lat="41.867593182250857" lon="13.37454398162663">
        <ele>1366.650024</ele>
        <time>2017-06-15T10:15:00Z</time>
      </trkpt>
      <trkpt lat="41.867494359612465" lon="13.374780099838972">
        <ele>1366.650024</ele>
        <time>2017-06-15T10:15:12Z</time>
      </trkpt>
      <trkpt lat="41.867476422339678" lon="13.374801389873028">
        <ele>1366.650024</ele>
        <time>2017-06-15T10:15:15Z</time>
      </trkpt>
      <trkpt lat="41.867348095402122" lon="13.37496274150908">
        <ele>1366.650024</ele>
        <time>2017-06-15T10:15:27Z</time>
      </trkpt>
      <trkpt lat="41.867211470380425" lon="13.375077238306403">
        <ele>1366.650024</ele>
        <time>2017-06-15T10:15:41Z</time>
      </trkpt>
      <trkpt lat="41.867052465677261" lon="13.375152675434947">
        <ele>1366.170044</ele>
        <time>2017-06-15T10:15:58Z</time>
      </trkpt>
      <trkpt lat="41.866950709372759" lon="13.375268429517746">
        <ele>1368.0900879999999</ele>
        <time>2017-06-15T10:16:09Z</time>
      </trkpt>
      <trkpt lat="41.866783238947392" lon="13.375522904098034">
        <ele>1367.610107</ele>
        <time>2017-06-15T10:16:24Z</time>
      </trkpt>
      <trkpt lat="41.866718363016844" lon="13.375627677887678">
        <ele>1367.610107</ele>
        <time>2017-06-15T10:16:31Z</time>
      </trkpt>
      <trkpt lat="41.866603111848235" lon="13.375833537429571">
        <ele>1367.610107</ele>
        <time>2017-06-15T10:16:47Z</time>
      </trkpt>
      <trkpt lat="41.866486435756087" lon="13.376039899885654">
        <ele>1368.0900879999999</ele>
        <time>2017-06-15T10:17:02Z</time>
      </trkpt>
      <trkpt lat="41.86636196449399" lon="13.376308204606175">
        <ele>1368.570068</ele>
        <time>2017-06-15T10:17:17Z</time>
      </trkpt>
      <trkpt lat="41.866286778822541" lon="13.376478021964431">
        <ele>1368.570068</ele>
        <time>2017-06-15T10:17:31Z</time>
      </trkpt>
      <trkpt lat="41.866208408027887" lon="13.376636439934373">
        <ele>1368.570068</ele>
        <time>2017-06-15T10:17:43Z</time>
      </trkpt>
      <trkpt lat="41.866202037781477" lon="13.376649599522352">
        <ele>1368.570068</ele>
        <time>2017-06-15T10:17:44Z</time>
      </trkpt>
      <trkpt lat="41.866097263991833" lon="13.376878341659904">
        <ele>1368.570068</ele>
        <time>2017-06-15T10:17:58Z</time>
      </trkpt>
      <trkpt lat="41.866015708073974" lon="13.377093924209476">
        <ele>1368.570068</ele>
        <time>2017-06-15T10:18:11Z</time>
      </trkpt>
      <trkpt lat="41.865926189348102" lon="13.377272458747029">
        <ele>1368.570068</ele>
        <time>2017-06-15T10:18:22Z</time>
      </trkpt>
      <trkpt lat="41.865839185193181" lon="13.377433894202113">
        <ele>1369.540039</ele>
        <time>2017-06-15T10:18:37Z</time>
      </trkpt>
      <trkpt lat="41.865672133862972" lon="13.377595413476229">
        <ele>1370.5</ele>
        <time>2017-06-15T10:18:50Z</time>
      </trkpt>
      <trkpt lat="41.865559983998537" lon="13.377767158672214">
        <ele>1370.5</ele>
        <time>2017-06-15T10:19:03Z</time>
      </trkpt>
      <trkpt lat="41.865506088361144" lon="13.377811163663864">
        <ele>1370.5</ele>
        <time>2017-06-15T10:19:06Z</time>
      </trkpt>
      <trkpt lat="41.865445571020246" lon="13.377861538901925">
        <ele>1369.049927</ele>
        <time>2017-06-15T10:19:10Z</time>
      </trkpt>
      <trkpt lat="41.865409696474671" lon="13.377872603014112">
        <ele>1369.049927</ele>
        <time>2017-06-15T10:19:12Z</time>
      </trkpt>
      <trkpt lat="41.865377174690366" lon="13.377878637984395">
        <ele>1369.049927</ele>
        <time>2017-06-15T10:19:14Z</time>
      </trkpt>
      <trkpt lat="41.865266617387533" lon="13.377919038757682">
        <ele>1367.610107</ele>
        <time>2017-06-15T10:19:25Z</time>
      </trkpt>
      <trkpt lat="41.865119598805904" lon="13.377962205559015">
        <ele>1367.130005</ele>
        <time>2017-06-15T10:19:35Z</time>
      </trkpt>
      <trkpt lat="41.865021865814924" lon="13.378033535555005">
        <ele>1367.130005</ele>
        <time>2017-06-15T10:19:43Z</time>
      </trkpt>
      <trkpt lat="41.864974172785878" lon="13.378159934654832">
        <ele>1367.130005</ele>
        <time>2017-06-15T10:19:56Z</time>
      </trkpt>
      <trkpt lat="41.864968221634626" lon="13.378169909119606">
        <ele>1367.130005</ele>
        <time>2017-06-15T10:19:57Z</time>
      </trkpt>
      <trkpt lat="41.864936873316765" lon="13.378202766180038">
        <ele>1368.570068</ele>
        <time>2017-06-15T10:20:00Z</time>
      </trkpt>
      <trkpt lat="41.864840565249324" lon="13.378350120037794">
        <ele>1370.9799800000001</ele>
        <time>2017-06-15T10:20:15Z</time>
      </trkpt>
      <trkpt lat="41.864672005176544" lon="13.378465035930276">
        <ele>1371.459961</ele>
        <time>2017-06-15T10:20:30Z</time>
      </trkpt>
      <trkpt lat="41.864513419568539" lon="13.378610713407397">
        <ele>1371.459961</ele>
        <time>2017-06-15T10:20:43Z</time>
      </trkpt>
      <trkpt lat="41.86445826664567" lon="13.378741638734937">
        <ele>1370.9799800000001</ele>
        <time>2017-06-15T10:20:54Z</time>
      </trkpt>
      <trkpt lat="41.864430271089077" lon="13.378809783607721">
        <ele>1370.9799800000001</ele>
        <time>2017-06-15T10:20:59Z</time>
      </trkpt>
      <trkpt lat="41.86429800465703" lon="13.37906333617866">
        <ele>1370.9799800000001</ele>
        <time>2017-06-15T10:21:13Z</time>
      </trkpt>
      <trkpt lat="41.864193063229322" lon="13.379193590953946">
        <ele>1368.570068</ele>
        <time>2017-06-15T10:21:26Z</time>
      </trkpt>
      <trkpt lat="41.864148387685418" lon="13.379233321174979">
        <ele>1368.570068</ele>
        <time>2017-06-15T10:21:29Z</time>
      </trkpt>
      <trkpt lat="41.86403900384903" lon="13.379252599552274">
        <ele>1367.130005</ele>
        <time>2017-06-15T10:21:38Z</time>
      </trkpt>
      <trkpt lat="41.8639593757689" lon="13.379311859607697">
        <ele>1366.170044</ele>
        <time>2017-06-15T10:21:45Z</time>
      </trkpt>
      <trkpt lat="41.863830126821995" lon="13.37932962924242">
        <ele>1364.7299800000001</ele>
        <time>2017-06-15T10:21:57Z</time>
      </trkpt>
      <trkpt lat="41.863714708015323" lon="13.37937019765377">
        <ele>1364.25</ele>
        <time>2017-06-15T10:22:04Z</time>
      </trkpt>
      <trkpt lat="41.86365352012217" lon="13.379388134926558">
        <ele>1363.7700199999999</ele>
        <time>2017-06-15T10:22:08Z</time>
      </trkpt>
      <trkpt lat="41.863467693328857" lon="13.379472959786654">
        <ele>1363.7700199999999</ele>
        <time>2017-06-15T10:22:23Z</time>
      </trkpt>
      <trkpt lat="41.863334337249398" lon="13.379568010568619">
        <ele>1363.7700199999999</ele>
        <time>2017-06-15T10:22:37Z</time>
      </trkpt>
      <trkpt lat="41.863211458548903" lon="13.379658032208681">
        <ele>1363.290039</ele>
        <time>2017-06-15T10:22:49Z</time>
      </trkpt>
      <trkpt lat="41.863182708621025" lon="13.379669096320868">
        <ele>1363.290039</ele>
        <time>2017-06-15T10:22:51Z</time>
      </trkpt>
      <trkpt lat="41.86301096342504" lon="13.379811588674784">
        <ele>1363.290039</ele>
        <time>2017-06-15T10:23:05Z</time>
      </trkpt>
      <trkpt lat="41.862930916249752" lon="13.379883505403996">
        <ele>1363.290039</ele>
        <time>2017-06-15T10:23:15Z</time>
      </trkpt>
      <trkpt lat="41.862792195752263" lon="13.379946704953909">
        <ele>1362.8100589999999</ele>
        <time>2017-06-15T10:23:25Z</time>
      </trkpt>
      <trkpt lat="41.862629419192672" lon="13.380026500672102">
        <ele>1361.839966</ele>
        <time>2017-06-15T10:23:37Z</time>
      </trkpt>
      <trkpt lat="41.862556496635079" lon="13.380105039104819">
        <ele>1361.839966</ele>
        <time>2017-06-15T10:23:45Z</time>
      </trkpt>
      <trkpt lat="41.862355666235089" lon="13.380254069343209">
        <ele>1362.8100589999999</ele>
        <time>2017-06-15T10:24:01Z</time>
      </trkpt>
      <trkpt lat="41.862217029556632" lon="13.380360184237361">
        <ele>1364.25</ele>
        <time>2017-06-15T10:24:18Z</time>
      </trkpt>
      <trkpt lat="41.862118290737271" lon="13.380487337708473">
        <ele>1364.7299800000001</ele>
        <time>2017-06-15T10:24:30Z</time>
      </trkpt>
      <trkpt lat="41.862019803375006" lon="13.380615916103125">
        <ele>1365.690063</ele>
        <time>2017-06-15T10:24:44Z</time>
      </trkpt>
      <trkpt lat="41.861974289640784" lon="13.380697974935174">
        <ele>1365.690063</ele>
        <time>2017-06-15T10:24:50Z</time>
      </trkpt>
      <trkpt lat="41.861900696530938" lon="13.380869803950191">
        <ele>1365.2100829999999</ele>
        <time>2017-06-15T10:25:01Z</time>
      </trkpt>
      <trkpt lat="41.861845208331943" lon="13.381003411486745">
        <ele>1363.7700199999999</ele>
        <time>2017-06-15T10:25:12Z</time>
      </trkpt>
      <trkpt lat="41.861799862235785" lon="13.381110616028309">
        <ele>1363.7700199999999</ele>
        <time>2017-06-15T10:25:20Z</time>
      </trkpt>
      <trkpt lat="41.861723335459828" lon="13.381305579096079">
        <ele>1363.7700199999999</ele>
        <time>2017-06-15T10:25:30Z</time>
      </trkpt>
      <trkpt lat="41.861627614125609" lon="13.381505319848657">
        <ele>1363.7700199999999</ele>
        <time>2017-06-15T10:25:43Z</time>
      </trkpt>
      <trkpt lat="41.861565839499235" lon="13.381581930443645">
        <ele>1365.2100829999999</ele>
        <time>2017-06-15T10:25:51Z</time>
      </trkpt>
      <trkpt lat="41.861458634957671" lon="13.381684860214591">
        <ele>1366.170044</ele>
        <time>2017-06-15T10:26:03Z</time>
      </trkpt>
      <trkpt lat="41.861431477591395" lon="13.381705563515425">
        <ele>1366.170044</ele>
        <time>2017-06-15T10:26:05Z</time>
      </trkpt>
      <trkpt lat="41.861284459009767" lon="13.381873536854982">
        <ele>1367.610107</ele>
        <time>2017-06-15T10:26:20Z</time>
      </trkpt>
      <trkpt lat="41.861221762374043" lon="13.382022902369499">
        <ele>1368.570068</ele>
        <time>2017-06-15T10:26:31Z</time>
      </trkpt>
      <trkpt lat="41.861163591966033" lon="13.382190624251962">
        <ele>1369.540039</ele>
        <time>2017-06-15T10:26:43Z</time>
      </trkpt>
      <trkpt lat="41.861062338575721" lon="13.382395226508379">
        <ele>1369.540039</ele>
        <time>2017-06-15T10:26:58Z</time>
      </trkpt>
      <trkpt lat="41.861028727144003" lon="13.382453061640263">
        <ele>1369.540039</ele>
        <time>2017-06-15T10:27:02Z</time>
      </trkpt>
      <trkpt lat="41.860966365784407" lon="13.38256873190403">
        <ele>1370.9799800000001</ele>
        <time>2017-06-15T10:27:14Z</time>
      </trkpt>
      <trkpt lat="41.860936023294926" lon="13.382607540115714">
        <ele>1370.9799800000001</ele>
        <time>2017-06-15T10:27:18Z</time>
      </trkpt>
      <trkpt lat="41.860809037461877" lon="13.382777189835906">
        <ele>1371.459961</ele>
        <time>2017-06-15T10:27:32Z</time>
      </trkpt>
      <trkpt lat="41.860720440745354" lon="13.382904259487987">
        <ele>1371.459961</ele>
        <time>2017-06-15T10:27:40Z</time>
      </trkpt>
      <trkpt lat="41.860665706917644" lon="13.383010709658265">
        <ele>1371.459961</ele>
        <time>2017-06-15T10:27:51Z</time>
      </trkpt>
      <trkpt lat="41.860569231212139" lon="13.383096037432551">
        <ele>1371.459961</ele>
        <time>2017-06-15T10:28:02Z</time>
      </trkpt>
      <trkpt lat="41.860315008088946" lon="13.383248504251242">
        <ele>1371.940063</ele>
        <time>2017-06-15T10:28:16Z</time>
      </trkpt>
      <trkpt lat="41.860233703628182" lon="13.383330898359418">
        <ele>1371.940063</ele>
        <time>2017-06-15T10:28:24Z</time>
      </trkpt>
      <trkpt lat="41.860213419422507" lon="13.383370209485292">
        <ele>1371.940063</ele>
        <time>2017-06-15T10:28:27Z</time>
      </trkpt>
      <trkpt lat="41.860049972310662" lon="13.383480599150062">
        <ele>1372.420044</ele>
        <time>2017-06-15T10:28:41Z</time>
      </trkpt>
      <trkpt lat="41.860020132735372" lon="13.383505325764418">
        <ele>1372.420044</ele>
        <time>2017-06-15T10:28:46Z</time>
      </trkpt>
      <trkpt lat="41.859872359782457" lon="13.383432235568762">
        <ele>1372.900024</ele>
        <time>2017-06-15T10:28:59Z</time>
      </trkpt>
      <trkpt lat="41.859803292900324" lon="13.383418070152402">
        <ele>1372.900024</ele>
        <time>2017-06-15T10:29:06Z</time>
      </trkpt>
      <trkpt lat="41.859703967347741" lon="13.383338693529367">
        <ele>1371.459961</ele>
        <time>2017-06-15T10:29:14Z</time>
      </trkpt>
      <trkpt lat="41.859621740877628" lon="13.383214389905334">
        <ele>1370.5</ele>
        <time>2017-06-15T10:29:27Z</time>
      </trkpt>
      <trkpt lat="41.859619729220867" lon="13.383168959990144">
        <ele>1370.5</ele>
        <time>2017-06-15T10:29:30Z</time>
      </trkpt>
      <trkpt lat="41.85961646027863" lon="13.382987072691321">
        <ele>1370.0200199999999</ele>
        <time>2017-06-15T10:29:39Z</time>
      </trkpt>
      <trkpt lat="41.859573209658265" lon="13.382890177890658">
        <ele>1369.540039</ele>
        <time>2017-06-15T10:29:47Z</time>
      </trkpt>
      <trkpt lat="41.859567929059267" lon="13.382828822359443">
        <ele>1369.049927</ele>
        <time>2017-06-15T10:29:51Z</time>
      </trkpt>
      <trkpt lat="41.859561558812857" lon="13.382696388289332">
        <ele>1367.610107</ele>
        <time>2017-06-15T10:29:59Z</time>
      </trkpt>
      <trkpt lat="41.85949869453907" lon="13.382535120472312">
        <ele>1367.130005</ele>
        <time>2017-06-15T10:30:11Z</time>
      </trkpt>
      <trkpt lat="41.859479667618871" lon="13.382430262863636">
        <ele>1366.650024</ele>
        <time>2017-06-15T10:30:16Z</time>
      </trkpt>
      <trkpt lat="41.859479499980807" lon="13.382299924269319">
        <ele>1366.170044</ele>
        <time>2017-06-15T10:30:22Z</time>
      </trkpt>
      <trkpt lat="41.859415210783482" lon="13.38211284019053">
        <ele>1364.7299800000001</ele>
        <time>2017-06-15T10:30:38Z</time>
      </trkpt>
      <trkpt lat="41.859416803345084" lon="13.381998259574175">
        <ele>1364.7299800000001</ele>
        <time>2017-06-15T10:30:47Z</time>
      </trkpt>
      <trkpt lat="41.859411606565118" lon="13.381873117759824">
        <ele>1364.25</ele>
        <time>2017-06-15T10:30:52Z</time>
      </trkpt>
      <trkpt lat="41.859407834708691" lon="13.381713693961501">
        <ele>1364.25</ele>
        <time>2017-06-15T10:30:59Z</time>
      </trkpt>
      <trkpt lat="41.859346395358443" lon="13.381439102813601">
        <ele>1364.7299800000001</ele>
        <time>2017-06-15T10:31:14Z</time>
      </trkpt>
      <trkpt lat="41.85934329405427" lon="13.381424015387893">
        <ele>1364.7299800000001</ele>
        <time>2017-06-15T10:31:15Z</time>
      </trkpt>
      <trkpt lat="41.859335582703352" lon="13.381355619058013">
        <ele>1365.690063</ele>
        <time>2017-06-15T10:31:19Z</time>
      </trkpt>
      <trkpt lat="41.859251260757446" lon="13.381199799478054">
        <ele>1368.0900879999999</ele>
        <time>2017-06-15T10:31:32Z</time>
      </trkpt>
      <trkpt lat="41.859187390655279" lon="13.381049931049347">
        <ele>1370.5</ele>
        <time>2017-06-15T10:31:47Z</time>
      </trkpt>
      <trkpt lat="41.85914003290236" lon="13.38088933378458">
        <ele>1371.459961</ele>
        <time>2017-06-15T10:31:59Z</time>
      </trkpt>
      <trkpt lat="41.859133997932076" lon="13.380850441753864">
        <ele>1371.940063</ele>
        <time>2017-06-15T10:32:01Z</time>
      </trkpt>
      <trkpt lat="41.859156461432576" lon="13.380644163116813">
        <ele>1372.900024</ele>
        <time>2017-06-15T10:32:15Z</time>
      </trkpt>
      <trkpt lat="41.859199963510036" lon="13.380489265546203">
        <ele>1373.380005</ele>
        <time>2017-06-15T10:32:25Z</time>
      </trkpt>
      <trkpt lat="41.859211027622223" lon="13.380281394347548">
        <ele>1374.339966</ele>
        <time>2017-06-15T10:32:39Z</time>
      </trkpt>
      <trkpt lat="41.859206585213542" lon="13.380113085731864">
        <ele>1375.3000489999999</ele>
        <time>2017-06-15T10:32:50Z</time>
      </trkpt>
      <trkpt lat="41.85920943506062" lon="13.380067320540547">
        <ele>1375.780029</ele>
        <time>2017-06-15T10:32:52Z</time>
      </trkpt>
      <trkpt lat="41.859194179996848" lon="13.379919296130538">
        <ele>1377.2299800000001</ele>
        <time>2017-06-15T10:33:04Z</time>
      </trkpt>
      <trkpt lat="41.859112540259957" lon="13.379886522889137">
        <ele>1377.709961</ele>
        <time>2017-06-15T10:33:18Z</time>
      </trkpt>
      <trkpt lat="41.858991673216224" lon="13.379922397434711">
        <ele>1378.669922</ele>
        <time>2017-06-15T10:33:32Z</time>
      </trkpt>
      <trkpt lat="41.85883560217917" lon="13.379944190382957">
        <ele>1377.2299800000001</ele>
        <time>2017-06-15T10:33:46Z</time>
      </trkpt>
      <trkpt lat="41.858798135071993" lon="13.379997834563255">
        <ele>1376.26001</ele>
        <time>2017-06-15T10:33:51Z</time>
      </trkpt>
      <trkpt lat="41.858704760670662" lon="13.380145272240043">
        <ele>1374.339966</ele>
        <time>2017-06-15T10:34:04Z</time>
      </trkpt>
      <trkpt lat="41.858643991872668" lon="13.380264211446047">
        <ele>1373.8599850000001</ele>
        <time>2017-06-15T10:34:16Z</time>
      </trkpt>
      <trkpt lat="41.858613481745124" lon="13.380306791514158">
        <ele>1373.380005</ele>
        <time>2017-06-15T10:34:20Z</time>
      </trkpt>
      <trkpt lat="41.858590263873339" lon="13.380320789292455">
        <ele>1373.380005</ele>
        <time>2017-06-15T10:34:22Z</time>
      </trkpt>
      <trkpt lat="41.858451459556818" lon="13.380465041846037">
        <ele>1372.900024</ele>
        <time>2017-06-15T10:34:36Z</time>
      </trkpt>
      <trkpt lat="41.858434360474348" lon="13.380483314394951">
        <ele>1372.900024</ele>
        <time>2017-06-15T10:34:38Z</time>
      </trkpt>
      <trkpt lat="41.858404688537121" lon="13.380502508953214">
        <ele>1373.8599850000001</ele>
        <time>2017-06-15T10:34:40Z</time>
      </trkpt>
      <trkpt lat="41.858370993286371" lon="13.380546178668737">
        <ele>1374.820068</ele>
        <time>2017-06-15T10:34:43Z</time>
      </trkpt>
      <trkpt lat="41.858225064352155" lon="13.380678193643689">
        <ele>1374.820068</ele>
        <time>2017-06-15T10:34:56Z</time>
      </trkpt>
      <trkpt lat="41.858181059360504" lon="13.380724629387259">
        <ele>1373.380005</ele>
        <time>2017-06-15T10:35:01Z</time>
      </trkpt>
      <trkpt lat="41.858075112104416" lon="13.380805514752865">
        <ele>1370.5</ele>
        <time>2017-06-15T10:35:14Z</time>
      </trkpt>
      <trkpt lat="41.85797955840826" lon="13.380976589396596">
        <ele>1369.540039</ele>
        <time>2017-06-15T10:35:27Z</time>
      </trkpt>
      <trkpt lat="41.857897080481052" lon="13.381185801699758">
        <ele>1367.130005</ele>
        <time>2017-06-15T10:35:40Z</time>
      </trkpt>
      <trkpt lat="41.857791300863028" lon="13.381331730633974">
        <ele>1364.7299800000001</ele>
        <time>2017-06-15T10:35:53Z</time>
      </trkpt>
      <trkpt lat="41.857672361657023" lon="13.381411861628294">
        <ele>1362.8100589999999</ele>
        <time>2017-06-15T10:36:07Z</time>
      </trkpt>
      <trkpt lat="41.857570605352521" lon="13.381523173302412">
        <ele>1360.880005</ele>
        <time>2017-06-15T10:36:20Z</time>
      </trkpt>
      <trkpt lat="41.85745376162231" lon="13.381662564352155">
        <ele>1358.9600829999999</ele>
        <time>2017-06-15T10:36:31Z</time>
      </trkpt>
      <trkpt lat="41.857343204319477" lon="13.381796004250646">
        <ele>1357.9998780000001</ele>
        <time>2017-06-15T10:36:45Z</time>
      </trkpt>
      <trkpt lat="41.857254104688764" lon="13.381954589858651">
        <ele>1357.9998780000001</ele>
        <time>2017-06-15T10:36:57Z</time>
      </trkpt>
      <trkpt lat="41.857189983129501" lon="13.382053831592202">
        <ele>1357.9998780000001</ele>
        <time>2017-06-15T10:37:05Z</time>
      </trkpt>
      <trkpt lat="41.857015388086438" lon="13.382222559303045">
        <ele>1356.5600589999999</ele>
        <time>2017-06-15T10:37:19Z</time>
      </trkpt>
      <trkpt lat="41.856991415843368" lon="13.382244938984513">
        <ele>1356.5600589999999</ele>
        <time>2017-06-15T10:37:21Z</time>
      </trkpt>
      <trkpt lat="41.856843307614326" lon="13.38228290900588">
        <ele>1354.150024</ele>
        <time>2017-06-15T10:37:36Z</time>
      </trkpt>
      <trkpt lat="41.856736270710826" lon="13.382296320050955">
        <ele>1353.1899410000001</ele>
        <time>2017-06-15T10:37:45Z</time>
      </trkpt>
      <trkpt lat="41.856607859954238" lon="13.382274610921741">
        <ele>1352.2299800000001</ele>
        <time>2017-06-15T10:37:55Z</time>
      </trkpt>
      <trkpt lat="41.856511803343892" lon="13.382290033623576">
        <ele>1352.2299800000001</ele>
        <time>2017-06-15T10:38:01Z</time>
      </trkpt>
      <trkpt lat="41.856388421729207" lon="13.382369410246611">
        <ele>1351.75</ele>
        <time>2017-06-15T10:38:13Z</time>
      </trkpt>
      <trkpt lat="41.856230506673455" lon="13.382406458258629">
        <ele>1350.7899170000001</ele>
        <time>2017-06-15T10:38:29Z</time>
      </trkpt>
      <trkpt lat="41.856143418699503" lon="13.382403273135424">
        <ele>1350.309937</ele>
        <time>2017-06-15T10:38:36Z</time>
      </trkpt>
      <trkpt lat="41.855986090376973" lon="13.382521793246269">
        <ele>1349.830078</ele>
        <time>2017-06-15T10:38:51Z</time>
      </trkpt>
      <trkpt lat="41.855923058465123" lon="13.382572839036584">
        <ele>1349.830078</ele>
        <time>2017-06-15T10:39:00Z</time>
      </trkpt>
      <trkpt lat="41.855897912755609" lon="13.382602008059621">
        <ele>1349.830078</ele>
        <time>2017-06-15T10:39:02Z</time>
      </trkpt>
      <trkpt lat="41.85577679425478" lon="13.382732011377811">
        <ele>1349.830078</ele>
        <time>2017-06-15T10:39:17Z</time>
      </trkpt>
      <trkpt lat="41.855629859492183" lon="13.382793115451932">
        <ele>1347.910034</ele>
        <time>2017-06-15T10:39:28Z</time>
      </trkpt>
      <trkpt lat="41.855500107631087" lon="13.382837623357773">
        <ele>1346.940063</ele>
        <time>2017-06-15T10:39:40Z</time>
      </trkpt>
      <trkpt lat="41.855437159538269" lon="13.382878107950091">
        <ele>1346.940063</ele>
        <time>2017-06-15T10:39:46Z</time>
      </trkpt>
      <trkpt lat="41.855397764593363" lon="13.382952539250255">
        <ele>1346.459961</ele>
        <time>2017-06-15T10:39:51Z</time>
      </trkpt>
      <trkpt lat="41.85534780845046" lon="13.383014565333724">
        <ele>1345.9799800000001</ele>
        <time>2017-06-15T10:39:58Z</time>
      </trkpt>
      <trkpt lat="41.855320315808058" lon="13.383042979985476">
        <ele>1345.5</ele>
        <time>2017-06-15T10:40:01Z</time>
      </trkpt>
      <trkpt lat="41.855178829282522" lon="13.383096205070615">
        <ele>1344.059937</ele>
        <time>2017-06-15T10:40:13Z</time>
      </trkpt>
      <trkpt lat="41.855172039940953" lon="13.383098635822535">
        <ele>1344.059937</ele>
        <time>2017-06-15T10:40:14Z</time>
      </trkpt>
      <trkpt lat="41.854961737990379" lon="13.383129062131047">
        <ele>1342.619995</ele>
        <time>2017-06-15T10:40:29Z</time>
      </trkpt>
      <trkpt lat="41.854789406061172" lon="13.383203074336052">
        <ele>1342.1400149999999</ele>
        <time>2017-06-15T10:40:44Z</time>
      </trkpt>
      <trkpt lat="41.854760739952326" lon="13.383222687989473">
        <ele>1341.6599120000001</ele>
        <time>2017-06-15T10:40:46Z</time>
      </trkpt>
      <trkpt lat="41.854695864021778" lon="13.383268872275949">
        <ele>1341.6599120000001</ele>
        <time>2017-06-15T10:40:53Z</time>
      </trkpt>
      <trkpt lat="41.854564184322953" lon="13.383274739608169">
        <ele>1340.6999510000001</ele>
        <time>2017-06-15T10:41:01Z</time>
      </trkpt>
      <trkpt lat="41.854401240125299" lon="13.383339615538716">
        <ele>1339.25</ele>
        <time>2017-06-15T10:41:14Z</time>
      </trkpt>
      <trkpt lat="41.854240475222468" lon="13.383373813703656">
        <ele>1337.8100589999999</ele>
        <time>2017-06-15T10:41:27Z</time>
      </trkpt>
      <trkpt lat="41.85419118963182" lon="13.383386386558414">
        <ele>1337.329956</ele>
        <time>2017-06-15T10:41:31Z</time>
      </trkpt>
      <trkpt lat="41.854016175493598" lon="13.383369203656912">
        <ele>1335.8900149999999</ele>
        <time>2017-06-15T10:41:44Z</time>
      </trkpt>
      <trkpt lat="41.853832276538014" lon="13.383335424587131">
        <ele>1333.969971</ele>
        <time>2017-06-15T10:41:58Z</time>
      </trkpt>
      <trkpt lat="41.853818027302623" lon="13.383333999663591">
        <ele>1333.969971</ele>
        <time>2017-06-15T10:41:59Z</time>
      </trkpt>
      <trkpt lat="41.853693807497621" lon="13.383312458172441">
        <ele>1332.5200199999999</ele>
        <time>2017-06-15T10:42:11Z</time>
      </trkpt>
      <trkpt lat="41.853680396452546" lon="13.383310362696648">
        <ele>1332.5200199999999</ele>
        <time>2017-06-15T10:42:12Z</time>
      </trkpt>
      <trkpt lat="41.853580065071583" lon="13.383372640237212">
        <ele>1332.040039</ele>
        <time>2017-06-15T10:42:20Z</time>
      </trkpt>
      <trkpt lat="41.853499263525009" lon="13.383508594706655">
        <ele>1331.080078</ele>
        <time>2017-06-15T10:42:33Z</time>
      </trkpt>
      <trkpt lat="41.853415612131357" lon="13.383588306605816">
        <ele>1330.119995</ele>
        <time>2017-06-15T10:42:41Z</time>
      </trkpt>
      <trkpt lat="41.853361632674932" lon="13.383702132850885">
        <ele>1330.119995</ele>
        <time>2017-06-15T10:42:49Z</time>
      </trkpt>
      <trkpt lat="41.853275382891297" lon="13.383865496143699">
        <ele>1330.119995</ele>
        <time>2017-06-15T10:43:03Z</time>
      </trkpt>
      <trkpt lat="41.853192988783121" lon="13.383963396772742">
        <ele>1330.119995</ele>
        <time>2017-06-15T10:43:10Z</time>
      </trkpt>
      <trkpt lat="41.853026105090976" lon="13.384099937975407">
        <ele>1329.6400149999999</ele>
        <time>2017-06-15T10:43:23Z</time>
      </trkpt>
      <trkpt lat="41.852857964113355" lon="13.384194821119308">
        <ele>1329.6400149999999</ele>
        <time>2017-06-15T10:43:38Z</time>
      </trkpt>
      <trkpt lat="41.852690326049924" lon="13.38428090326488">
        <ele>1328.1999510000001</ele>
        <time>2017-06-15T10:43:51Z</time>
      </trkpt>
      <trkpt lat="41.852541966363788" lon="13.384374361485243">
        <ele>1328.1999510000001</ele>
        <time>2017-06-15T10:44:05Z</time>
      </trkpt>
      <trkpt lat="41.852510198950768" lon="13.384372182190418">
        <ele>1328.1999510000001</ele>
        <time>2017-06-15T10:44:09Z</time>
      </trkpt>
      <trkpt lat="41.852476503700018" lon="13.384366733953357">
        <ele>1328.1999510000001</ele>
        <time>2017-06-15T10:44:11Z</time>
      </trkpt>
      <trkpt lat="41.852369634434581" lon="13.384369667619467">
        <ele>1327.719971</ele>
        <time>2017-06-15T10:44:21Z</time>
      </trkpt>
      <trkpt lat="41.85232806019485" lon="13.384427921846509">
        <ele>1327.23999</ele>
        <time>2017-06-15T10:44:26Z</time>
      </trkpt>
      <trkpt lat="41.852353205904365" lon="13.384581226855516">
        <ele>1325.799927</ele>
        <time>2017-06-15T10:44:36Z</time>
      </trkpt>
      <trkpt lat="41.852405676618218" lon="13.38457016274333">
        <ele>1324.3500979999999</ele>
        <time>2017-06-15T10:44:44Z</time>
      </trkpt>
      <trkpt lat="41.852566776797175" lon="13.384621711447835">
        <ele>1321.950073</ele>
        <time>2017-06-15T10:45:00Z</time>
      </trkpt>
      <trkpt lat="41.852725362405181" lon="13.384640235453844">
        <ele>1319.070068</ele>
        <time>2017-06-15T10:45:16Z</time>
      </trkpt>
      <trkpt lat="41.852924935519695" lon="13.384637134149671">
        <ele>1318.099976</ele>
        <time>2017-06-15T10:45:32Z</time>
      </trkpt>
      <trkpt lat="41.852963576093316" lon="13.384646605700254">
        <ele>1317.619995</ele>
        <time>2017-06-15T10:45:36Z</time>
      </trkpt>
      <trkpt lat="41.853181840851903" lon="13.384580137208104">
        <ele>1317.619995</ele>
        <time>2017-06-15T10:45:53Z</time>
      </trkpt>
      <trkpt lat="41.853352664038539" lon="13.384481817483902">
        <ele>1316.6599120000001</ele>
        <time>2017-06-15T10:46:08Z</time>
      </trkpt>
      <trkpt lat="41.853454504162073" lon="13.384409816935658">
        <ele>1314.740112</ele>
        <time>2017-06-15T10:46:21Z</time>
      </trkpt>
      <trkpt lat="41.853517619892955" lon="13.384368326514959">
        <ele>1314.259888</ele>
        <time>2017-06-15T10:46:27Z</time>
      </trkpt>
      <trkpt lat="41.853595487773418" lon="13.38437863625586">
        <ele>1314.259888</ele>
        <time>2017-06-15T10:46:34Z</time>
      </trkpt>
      <trkpt lat="41.853809058666229" lon="13.38443043641746">
        <ele>1314.259888</ele>
        <time>2017-06-15T10:46:50Z</time>
      </trkpt>
      <trkpt lat="41.853881478309631" lon="13.384463964030147">
        <ele>1314.259888</ele>
        <time>2017-06-15T10:46:56Z</time>
      </trkpt>
      <trkpt lat="41.854054480791092" lon="13.384601259604096">
        <ele>1313.3000489999999</ele>
        <time>2017-06-15T10:47:08Z</time>
      </trkpt>
      <trkpt lat="41.854213234037161" lon="13.384624812752008">
        <ele>1311.8599850000001</ele>
        <time>2017-06-15T10:47:22Z</time>
      </trkpt>
      <trkpt lat="41.854233434423804" lon="13.384635876864195">
        <ele>1311.380005</ele>
        <time>2017-06-15T10:47:24Z</time>
      </trkpt>
      <trkpt lat="41.85438129119575" lon="13.384719025343657">
        <ele>1310.410034</ele>
        <time>2017-06-15T10:47:36Z</time>
      </trkpt>
      <trkpt lat="41.854444993659854" lon="13.384830337017775">
        <ele>1307.5299070000001</ele>
        <time>2017-06-15T10:47:50Z</time>
      </trkpt>
      <trkpt lat="41.854433258995414" lon="13.384846933186054">
        <ele>1307.049927</ele>
        <time>2017-06-15T10:47:52Z</time>
      </trkpt>
      <trkpt lat="41.8543631862849" lon="13.38489068672061">
        <ele>1306.089966</ele>
        <time>2017-06-15T10:47:58Z</time>
      </trkpt>
      <trkpt lat="41.854253299534321" lon="13.385037034749985">
        <ele>1303.690063</ele>
        <time>2017-06-15T10:48:13Z</time>
      </trkpt>
      <trkpt lat="41.854072166606784" lon="13.38516678661108">
        <ele>1301.280029</ele>
        <time>2017-06-15T10:48:28Z</time>
      </trkpt>
      <trkpt lat="41.85397032648325" lon="13.385298885405064">
        <ele>1298.3999020000001</ele>
        <time>2017-06-15T10:48:41Z</time>
      </trkpt>
      <trkpt lat="41.853928836062551" lon="13.385339705273509">
        <ele>1297.4399410000001</ele>
        <time>2017-06-15T10:48:47Z</time>
      </trkpt>
      <trkpt lat="41.853889273479581" lon="13.385376501828432">
        <ele>1296.4801030000001</ele>
        <time>2017-06-15T10:48:51Z</time>
      </trkpt>
      <trkpt lat="41.853702021762729" lon="13.385497871786356">
        <ele>1294.5500489999999</ele>
        <time>2017-06-15T10:49:06Z</time>
      </trkpt>
      <trkpt lat="41.853596493601799" lon="13.385675065219402">
        <ele>1292.150024</ele>
        <time>2017-06-15T10:49:22Z</time>
      </trkpt>
      <trkpt lat="41.853467579931021" lon="13.385843792930245">
        <ele>1290.2299800000001</ele>
        <time>2017-06-15T10:49:38Z</time>
      </trkpt>
      <trkpt lat="41.853403458371758" lon="13.385988129302859">
        <ele>1289.2700199999999</ele>
        <time>2017-06-15T10:49:45Z</time>
      </trkpt>
      <trkpt lat="41.85347436927259" lon="13.386167837306857">
        <ele>1287.3400879999999</ele>
        <time>2017-06-15T10:49:58Z</time>
      </trkpt>
      <trkpt lat="41.853519463911653" lon="13.386191306635737">
        <ele>1286.8599850000001</ele>
        <time>2017-06-15T10:50:02Z</time>
      </trkpt>
      <trkpt lat="41.853688359260559" lon="13.386249896138906">
        <ele>1284.459961</ele>
        <time>2017-06-15T10:50:18Z</time>
      </trkpt>
      <trkpt lat="41.853747284039855" lon="13.38626523502171">
        <ele>1283.5</ele>
        <time>2017-06-15T10:50:25Z</time>
      </trkpt>
      <trkpt lat="41.853804532438517" lon="13.386323824524879">
        <ele>1282.540039</ele>
        <time>2017-06-15T10:50:30Z</time>
      </trkpt>
      <trkpt lat="41.853940738365054" lon="13.38643915951252">
        <ele>1280.610107</ele>
        <time>2017-06-15T10:50:41Z</time>
      </trkpt>
      <trkpt lat="41.854028161615133" lon="13.386509316042066">
        <ele>1279.170044</ele>
        <time>2017-06-15T10:50:48Z</time>
      </trkpt>
      <trkpt lat="41.854146597906947" lon="13.386655412614346">
        <ele>1276.290039</ele>
        <time>2017-06-15T10:51:03Z</time>
      </trkpt>
      <trkpt lat="41.85417216271162" lon="13.386762365698814">
        <ele>1274.849976</ele>
        <time>2017-06-15T10:51:11Z</time>
      </trkpt>
      <trkpt lat="41.854178113862872" lon="13.386812238022685">
        <ele>1274.3599850000001</ele>
        <time>2017-06-15T10:51:14Z</time>
      </trkpt>
      <trkpt lat="41.854192111641169" lon="13.386885663494468">
        <ele>1273.880005</ele>
        <time>2017-06-15T10:51:18Z</time>
      </trkpt>
      <trkpt lat="41.854185238480568" lon="13.386912737041712">
        <ele>1272.919922</ele>
        <time>2017-06-15T10:51:20Z</time>
      </trkpt>
      <trkpt lat="41.854161098599434" lon="13.386989599093795">
        <ele>1270.9998780000001</ele>
        <time>2017-06-15T10:51:25Z</time>
      </trkpt>
      <trkpt lat="41.854161182418466" lon="13.387020276859403">
        <ele>1270.9998780000001</ele>
        <time>2017-06-15T10:51:27Z</time>
      </trkpt>
      <trkpt lat="41.854155734181404" lon="13.387048691511154">
        <ele>1270.040039</ele>
        <time>2017-06-15T10:51:29Z</time>
      </trkpt>
      <trkpt lat="41.854152213782072" lon="13.387137372046709">
        <ele>1268.119995</ele>
        <time>2017-06-15T10:51:35Z</time>
      </trkpt>
      <trkpt lat="41.854116087779403" lon="13.387216497212648">
        <ele>1267.160034</ele>
        <time>2017-06-15T10:51:40Z</time>
      </trkpt>
      <trkpt lat="41.854099240154028" lon="13.387289419770241">
        <ele>1265.709961</ele>
        <time>2017-06-15T10:51:45Z</time>
      </trkpt>
      <trkpt lat="41.854095133021474" lon="13.387473821640015">
        <ele>1262.349976</ele>
        <time>2017-06-15T10:51:59Z</time>
      </trkpt>
      <trkpt lat="41.854084236547351" lon="13.38750927709043">
        <ele>1262.349976</ele>
        <time>2017-06-15T10:52:02Z</time>
      </trkpt>
      <trkpt lat="41.854064539074898" lon="13.387536434456706">
        <ele>1260.910034</ele>
        <time>2017-06-15T10:52:04Z</time>
      </trkpt>
      <trkpt lat="41.854045931249857" lon="13.387751765549183">
        <ele>1257.540039</ele>
        <time>2017-06-15T10:52:19Z</time>
      </trkpt>
      <trkpt lat="41.854014499112964" lon="13.387881685048342">
        <ele>1256.099976</ele>
        <time>2017-06-15T10:52:28Z</time>
      </trkpt>
      <trkpt lat="41.853915341198444" lon="13.388088382780552">
        <ele>1254.179932</ele>
        <time>2017-06-15T10:52:42Z</time>
      </trkpt>
      <trkpt lat="41.853836802765727" lon="13.38819139637053">
        <ele>1252.740112</ele>
        <time>2017-06-15T10:52:52Z</time>
      </trkpt>
      <trkpt lat="41.853720713406801" lon="13.38827395811677">
        <ele>1252.25</ele>
        <time>2017-06-15T10:53:01Z</time>
      </trkpt>
      <trkpt lat="41.853658184409142" lon="13.388321399688721">
        <ele>1251.7700199999999</ele>
        <time>2017-06-15T10:53:07Z</time>
      </trkpt>
      <trkpt lat="41.853519463911653" lon="13.388451570644975">
        <ele>1248.8900149999999</ele>
        <time>2017-06-15T10:53:22Z</time>
      </trkpt>
      <trkpt lat="41.853409241884947" lon="13.388662626966834">
        <ele>1246.48999</ele>
        <time>2017-06-15T10:53:40Z</time>
      </trkpt>
      <trkpt lat="41.853367500007153" lon="13.388729766011238">
        <ele>1246.01001</ele>
        <time>2017-06-15T10:53:56Z</time>
      </trkpt>
      <trkpt lat="41.853313436731696" lon="13.388819703832269">
        <ele>1245.040039</ele>
        <time>2017-06-15T10:54:19Z</time>
      </trkpt>
      <trkpt lat="41.853229869157076" lon="13.388894135132432">
        <ele>1246.48999</ele>
        <time>2017-06-15T10:54:29Z</time>
      </trkpt>
      <trkpt lat="41.85324571095407" lon="13.388845017179847">
        <ele>1246.48999</ele>
        <time>2017-06-15T10:54:44Z</time>
      </trkpt>
      <trkpt lat="41.853325003758073" lon="13.388774525374174">
        <ele>1244.079956</ele>
        <time>2017-06-15T10:54:57Z</time>
      </trkpt>
      <trkpt lat="41.853439584374428" lon="13.388748122379184">
        <ele>1244.079956</ele>
        <time>2017-06-15T10:55:10Z</time>
      </trkpt>
      <trkpt lat="41.85346364043653" lon="13.38875968940556">
        <ele>1244.079956</ele>
        <time>2017-06-15T10:55:12Z</time>
      </trkpt>
      <trkpt lat="41.853519883006811" lon="13.388844514265656">
        <ele>1243.599976</ele>
        <time>2017-06-15T10:55:21Z</time>
      </trkpt>
      <trkpt lat="41.853483002632856" lon="13.389039477333426">
        <ele>1240.23999</ele>
        <time>2017-06-15T10:55:34Z</time>
      </trkpt>
      <trkpt lat="41.853455761447549" lon="13.389097563922405">
        <ele>1239.2799070000001</ele>
        <time>2017-06-15T10:55:47Z</time>
      </trkpt>
      <trkpt lat="41.853427262976766" lon="13.389177862554789">
        <ele>1237.829956</ele>
        <time>2017-06-15T10:56:04Z</time>
      </trkpt>
      <trkpt lat="41.853422317653894" lon="13.389268890023232">
        <ele>1236.3900149999999</ele>
        <time>2017-06-15T10:56:11Z</time>
      </trkpt>
      <trkpt lat="41.853442937135696" lon="13.389510959386826">
        <ele>1232.5500489999999</ele>
        <time>2017-06-15T10:56:26Z</time>
      </trkpt>
      <trkpt lat="41.853443859145045" lon="13.389641214162111">
        <ele>1231.1099850000001</ele>
        <time>2017-06-15T10:56:34Z</time>
      </trkpt>
      <trkpt lat="41.853409325703979" lon="13.389839697629213">
        <ele>1229.179932</ele>
        <time>2017-06-15T10:56:50Z</time>
      </trkpt>
      <trkpt lat="41.853515105322003" lon="13.389980513602495">
        <ele>1225.820068</ele>
        <time>2017-06-15T10:57:05Z</time>
      </trkpt>
      <trkpt lat="41.853523990139365" lon="13.390005407854915">
        <ele>1226.3000489999999</ele>
        <time>2017-06-15T10:57:07Z</time>
      </trkpt>
      <trkpt lat="41.853655921295285" lon="13.390104733407497">
        <ele>1222.9300539999999</ele>
        <time>2017-06-15T10:57:23Z</time>
      </trkpt>
      <trkpt lat="41.853665225207806" lon="13.390133986249566">
        <ele>1222.450073</ele>
        <time>2017-06-15T10:57:25Z</time>
      </trkpt>
      <trkpt lat="41.853693136945367" lon="13.390228366479278">
        <ele>1220.530029</ele>
        <time>2017-06-15T10:57:30Z</time>
      </trkpt>
      <trkpt lat="41.853748792782426" lon="13.390427939593792">
        <ele>1218.6099850000001</ele>
        <time>2017-06-15T10:57:46Z</time>
      </trkpt>
      <trkpt lat="41.853836635127664" lon="13.390485690906644">
        <ele>1218.130005</ele>
        <time>2017-06-15T10:57:53Z</time>
      </trkpt>
      <trkpt lat="41.853924728929996" lon="13.390503209084272">
        <ele>1218.130005</ele>
        <time>2017-06-15T10:57:59Z</time>
      </trkpt>
      <trkpt lat="41.853981809690595" lon="13.390576634556055">
        <ele>1216.690063</ele>
        <time>2017-06-15T10:58:09Z</time>
      </trkpt>
      <trkpt lat="41.853960603475571" lon="13.390670930966735">
        <ele>1215.23999</ele>
        <time>2017-06-15T10:58:16Z</time>
      </trkpt>
      <trkpt lat="41.853989269584417" lon="13.390828175470233">
        <ele>1214.2799070000001</ele>
        <time>2017-06-15T10:58:30Z</time>
      </trkpt>
      <trkpt lat="41.854058587923646" lon="13.390871426090598">
        <ele>1213.320068</ele>
        <time>2017-06-15T10:58:38Z</time>
      </trkpt>
      <trkpt lat="41.854174006730318" lon="13.390786601230502">
        <ele>1211.880005</ele>
        <time>2017-06-15T10:58:53Z</time>
      </trkpt>
      <trkpt lat="41.854220693930984" lon="13.390789702534676">
        <ele>1211.400024</ele>
        <time>2017-06-15T10:58:57Z</time>
      </trkpt>
      <trkpt lat="41.854246761649847" lon="13.390822894871235">
        <ele>1210.920044</ele>
        <time>2017-06-15T10:59:00Z</time>
      </trkpt>
      <trkpt lat="41.854286240413785" lon="13.390911994501948">
        <ele>1209</ele>
        <time>2017-06-15T10:59:10Z</time>
      </trkpt>
      <trkpt lat="41.854311218485236" lon="13.390928506851196">
        <ele>1208.51001</ele>
        <time>2017-06-15T10:59:12Z</time>
      </trkpt>
      <trkpt lat="41.854342566803098" lon="13.39093797840178">
        <ele>1208.51001</ele>
        <time>2017-06-15T10:59:14Z</time>
      </trkpt>
      <trkpt lat="41.854505259543657" lon="13.390870336443186">
        <ele>1208.030029</ele>
        <time>2017-06-15T10:59:26Z</time>
      </trkpt>
      <trkpt lat="41.854602489620447" lon="13.390888106077909">
        <ele>1209.4799800000001</ele>
        <time>2017-06-15T10:59:38Z</time>
      </trkpt>
      <trkpt lat="41.854662084951997" lon="13.391001680865884">
        <ele>1207.5500489999999</ele>
        <time>2017-06-15T10:59:50Z</time>
      </trkpt>
      <trkpt lat="41.854778593406081" lon="13.391060270369053">
        <ele>1205.630005</ele>
        <time>2017-06-15T11:00:01Z</time>
      </trkpt>
      <trkpt lat="41.854943884536624" lon="13.391026575118303">
        <ele>1203.2299800000001</ele>
        <time>2017-06-15T11:00:14Z</time>
      </trkpt>
      <trkpt lat="41.85508000664413" lon="13.391087260097265">
        <ele>1202.2700199999999</ele>
        <time>2017-06-15T11:00:26Z</time>
      </trkpt>
      <trkpt lat="41.855080593377352" lon="13.391097234562039">
        <ele>1202.75</ele>
        <time>2017-06-15T11:00:27Z</time>
      </trkpt>
      <trkpt lat="41.855064583942294" lon="13.391179293394089">
        <ele>1202.2700199999999</ele>
        <time>2017-06-15T11:00:32Z</time>
      </trkpt>
      <trkpt lat="41.855127364397049" lon="13.391320779919624">
        <ele>1202.2700199999999</ele>
        <time>2017-06-15T11:00:47Z</time>
      </trkpt>
      <trkpt lat="41.855157874524593" lon="13.391325976699591">
        <ele>1203.2299800000001</ele>
        <time>2017-06-15T11:00:51Z</time>
      </trkpt>
      <trkpt lat="41.855283183977008" lon="13.39129664003849">
        <ele>1206.589966</ele>
        <time>2017-06-15T11:01:04Z</time>
      </trkpt>
      <trkpt lat="41.855302462354302" lon="13.391272081062198">
        <ele>1207.5500489999999</ele>
        <time>2017-06-15T11:01:07Z</time>
      </trkpt>
      <trkpt lat="41.85539080761373" lon="13.39120184071362">
        <ele>1208.51001</ele>
        <time>2017-06-15T11:01:18Z</time>
      </trkpt>
      <trkpt lat="41.855490719899535" lon="13.391187004745007">
        <ele>1209.959961</ele>
        <time>2017-06-15T11:01:30Z</time>
      </trkpt>
      <trkpt lat="41.855453671887517" lon="13.391199829056859">
        <ele>1210.4399410000001</ele>
        <time>2017-06-15T11:01:43Z</time>
      </trkpt>
      <trkpt lat="41.855382174253464" lon="13.391163116320968">
        <ele>1209.4799800000001</ele>
        <time>2017-06-15T11:01:55Z</time>
      </trkpt>
      <trkpt lat="41.855367086827755" lon="13.391190860420465">
        <ele>1208.030029</ele>
        <time>2017-06-15T11:01:58Z</time>
      </trkpt>
      <trkpt lat="41.855259127914906" lon="13.3912702370435">
        <ele>1205.630005</ele>
        <time>2017-06-15T11:02:13Z</time>
      </trkpt>
      <trkpt lat="41.855203974992037" lon="13.391278367489576">
        <ele>1203.2299800000001</ele>
        <time>2017-06-15T11:02:21Z</time>
      </trkpt>
      <trkpt lat="41.855171034112573" lon="13.39126973412931">
        <ele>1202.75</ele>
        <time>2017-06-15T11:02:24Z</time>
      </trkpt>
      <trkpt lat="41.855125185102224" lon="13.391244085505605">
        <ele>1202.75</ele>
        <time>2017-06-15T11:02:30Z</time>
      </trkpt>
      <trkpt lat="41.855079671368003" lon="13.391096731647849">
        <ele>1201.790039</ele>
        <time>2017-06-15T11:02:41Z</time>
      </trkpt>
      <trkpt lat="41.855057291686535" lon="13.390984833240509">
        <ele>1201.3000489999999</ele>
        <time>2017-06-15T11:02:49Z</time>
      </trkpt>
      <trkpt lat="41.854982525110245" lon="13.390971925109625">
        <ele>1201.3000489999999</ele>
        <time>2017-06-15T11:02:56Z</time>
      </trkpt>
      <trkpt lat="41.854859897866845" lon="13.391021797433496">
        <ele>1204.670044</ele>
        <time>2017-06-15T11:03:10Z</time>
      </trkpt>
      <trkpt lat="41.854743724688888" lon="13.391019282862544">
        <ele>1206.589966</ele>
        <time>2017-06-15T11:03:24Z</time>
      </trkpt>
      <trkpt lat="41.854674825444818" lon="13.390905121341348">
        <ele>1208.51001</ele>
        <time>2017-06-15T11:03:38Z</time>
      </trkpt>
      <trkpt lat="41.85461238026619" lon="13.390798587352037">
        <ele>1208.51001</ele>
        <time>2017-06-15T11:03:51Z</time>
      </trkpt>
      <trkpt lat="41.854594526812434" lon="13.390806633979082">
        <ele>1208.51001</ele>
        <time>2017-06-15T11:03:53Z</time>
      </trkpt>
      <trkpt lat="41.854445831850171" lon="13.390856087207794">
        <ele>1206.589966</ele>
        <time>2017-06-15T11:04:10Z</time>
      </trkpt>
      <trkpt lat="41.854424709454179" lon="13.390856506302953">
        <ele>1206.589966</ele>
        <time>2017-06-15T11:04:12Z</time>
      </trkpt>
      <trkpt lat="41.854320522397757" lon="13.390792468562722">
        <ele>1208.030029</ele>
        <time>2017-06-15T11:04:25Z</time>
      </trkpt>
      <trkpt lat="41.854252712801099" lon="13.390713091939688">
        <ele>1209.4799800000001</ele>
        <time>2017-06-15T11:04:38Z</time>
      </trkpt>
      <trkpt lat="41.854119775816798" lon="13.390773022547364">
        <ele>1210.4399410000001</ele>
        <time>2017-06-15T11:04:54Z</time>
      </trkpt>
      <trkpt lat="41.854013660922647" lon="13.39072591625154">
        <ele>1211.400024</ele>
        <time>2017-06-15T11:05:09Z</time>
      </trkpt>
      <trkpt lat="41.854001171886921" lon="13.390592895448208">
        <ele>1211.880005</ele>
        <time>2017-06-15T11:05:24Z</time>
      </trkpt>
      <trkpt lat="41.853992370888591" lon="13.390462305396795">
        <ele>1213.8000489999999</ele>
        <time>2017-06-15T11:05:38Z</time>
      </trkpt>
      <trkpt lat="41.853932440280914" lon="13.390402961522341">
        <ele>1214.76001</ele>
        <time>2017-06-15T11:05:48Z</time>
      </trkpt>
      <trkpt lat="41.853792294859886" lon="13.390357028692961">
        <ele>1214.76001</ele>
        <time>2017-06-15T11:06:05Z</time>
      </trkpt>
      <trkpt lat="41.853738063946366" lon="13.390221828594804">
        <ele>1216.690063</ele>
        <time>2017-06-15T11:06:17Z</time>
      </trkpt>
      <trkpt lat="41.853691460564733" lon="13.390080258250237">
        <ele>1218.6099850000001</ele>
        <time>2017-06-15T11:06:31Z</time>
      </trkpt>
      <trkpt lat="41.853605126962066" lon="13.390005240216851">
        <ele>1221.01001</ele>
        <time>2017-06-15T11:06:48Z</time>
      </trkpt>
      <trkpt lat="41.853481661528349" lon="13.389921337366104">
        <ele>1222.450073</ele>
        <time>2017-06-15T11:07:02Z</time>
      </trkpt>
      <trkpt lat="41.853397339582443" lon="13.389857802540064">
        <ele>1223.900024</ele>
        <time>2017-06-15T11:07:19Z</time>
      </trkpt>
      <trkpt lat="41.853385521098971" lon="13.389803990721703">
        <ele>1224.8599850000001</ele>
        <time>2017-06-15T11:07:37Z</time>
      </trkpt>
      <trkpt lat="41.853059465065598" lon="13.389825280755758">
        <ele>1168.1400149999999</ele>
        <time>2017-06-15T11:08:31Z</time>
      </trkpt>
      <trkpt lat="41.853057704865932" lon="13.389820083975792">
        <ele>1168.1400149999999</ele>
        <time>2017-06-15T11:08:32Z</time>
      </trkpt>
      <trkpt lat="41.853125765919685" lon="13.389938520267606">
        <ele>1168.1400149999999</ele>
        <time>2017-06-15T11:09:03Z</time>
      </trkpt>
      <trkpt lat="41.853192821145058" lon="13.3899250254035">
        <ele>1171.5</ele>
        <time>2017-06-15T11:09:29Z</time>
      </trkpt>
      <trkpt lat="41.853196760639548" lon="13.389935335144401">
        <ele>1175.349976</ele>
        <time>2017-06-15T11:09:31Z</time>
      </trkpt>
      <trkpt lat="41.853198269382119" lon="13.389947572723031">
        <ele>1178.2299800000001</ele>
        <time>2017-06-15T11:09:33Z</time>
      </trkpt>
      <trkpt lat="41.853190138936043" lon="13.389962324872613">
        <ele>1181.599976</ele>
        <time>2017-06-15T11:09:35Z</time>
      </trkpt>
      <trkpt lat="41.85317731462419" lon="13.389981435611844">
        <ele>1185.920044</ele>
        <time>2017-06-15T11:09:38Z</time>
      </trkpt>
      <trkpt lat="41.853156862780452" lon="13.389968276023865">
        <ele>1189.7700199999999</ele>
        <time>2017-06-15T11:09:41Z</time>
      </trkpt>
      <trkpt lat="41.853151917457581" lon="13.389981687068939">
        <ele>1193.130005</ele>
        <time>2017-06-15T11:09:44Z</time>
      </trkpt>
      <trkpt lat="41.853149738162756" lon="13.389985207468271">
        <ele>1196.0200199999999</ele>
        <time>2017-06-15T11:09:46Z</time>
      </trkpt>
      <trkpt lat="41.853148899972439" lon="13.389984536916018">
        <ele>1196.0200199999999</ele>
        <time>2017-06-15T11:09:47Z</time>
      </trkpt>
      <trkpt lat="41.853144206106663" lon="13.389965677633882">
        <ele>1199.8599850000001</ele>
        <time>2017-06-15T11:09:51Z</time>
      </trkpt>
      <trkpt lat="41.853144960477948" lon="13.389949919655919">
        <ele>1203.709961</ele>
        <time>2017-06-15T11:09:55Z</time>
      </trkpt>
      <trkpt lat="41.853146133944392" lon="13.389935502782464">
        <ele>1207.0699460000001</ele>
        <time>2017-06-15T11:09:59Z</time>
      </trkpt>
      <trkpt lat="41.853128112852573" lon="13.389949081465602">
        <ele>1210.4399410000001</ele>
        <time>2017-06-15T11:10:03Z</time>
      </trkpt>
      <trkpt lat="41.853114198893309" lon="13.389970371499658">
        <ele>1213.8000489999999</ele>
        <time>2017-06-15T11:10:07Z</time>
      </trkpt>
      <trkpt lat="41.853098440915346" lon="13.39000079780817">
        <ele>1217.170044</ele>
        <time>2017-06-15T11:10:11Z</time>
      </trkpt>
      <trkpt lat="41.853091483935714" lon="13.390008676797152">
        <ele>1218.130005</ele>
        <time>2017-06-15T11:10:13Z</time>
      </trkpt>
      <trkpt lat="41.853066002950072" lon="13.390027284622192">
        <ele>1221.48999</ele>
        <time>2017-06-15T11:10:18Z</time>
      </trkpt>
      <trkpt lat="41.853098692372441" lon="13.38999099098146">
        <ele>1224.8599850000001</ele>
        <time>2017-06-15T11:10:24Z</time>
      </trkpt>
      <trkpt lat="41.853141775354743" lon="13.389984369277954">
        <ele>1226.7799070000001</ele>
        <time>2017-06-15T11:10:58Z</time>
      </trkpt>
      <trkpt lat="41.853152168914676" lon="13.389982860535383">
        <ele>1226.7799070000001</ele>
        <time>2017-06-15T11:11:29Z</time>
      </trkpt>
      <trkpt lat="41.853145882487297" lon="13.390003982931376">
        <ele>1226.7799070000001</ele>
        <time>2017-06-15T11:12:14Z</time>
      </trkpt>
      <trkpt lat="41.853146133944392" lon="13.389965258538723">
        <ele>1226.7799070000001</ele>
        <time>2017-06-15T11:12:53Z</time>
      </trkpt>
      <trkpt lat="41.85310740955174" lon="13.389888815581799">
        <ele>1226.7799070000001</ele>
        <time>2017-06-15T11:13:26Z</time>
      </trkpt>
      <trkpt lat="41.85311428271234" lon="13.389852270483971">
        <ele>1227.26001</ele>
        <time>2017-06-15T11:14:06Z</time>
      </trkpt>
      <trkpt lat="41.853218469768763" lon="13.389778174459934">
        <ele>1227.26001</ele>
        <time>2017-06-15T11:14:34Z</time>
      </trkpt>
      <trkpt lat="41.853285860270262" lon="13.389703324064612">
        <ele>1227.73999</ele>
        <time>2017-06-15T11:14:47Z</time>
      </trkpt>
      <trkpt lat="41.853361129760742" lon="13.389660324901342">
        <ele>1228.219971</ele>
        <time>2017-06-15T11:15:04Z</time>
      </trkpt>
      <trkpt lat="41.85337956994772" lon="13.389659319072962">
        <ele>1228.6999510000001</ele>
        <time>2017-06-15T11:15:26Z</time>
      </trkpt>
      <trkpt lat="41.85335366986692" lon="13.389700641855597">
        <ele>1228.6999510000001</ele>
        <time>2017-06-15T11:15:39Z</time>
      </trkpt>
      <trkpt lat="41.853330032899976" lon="13.389739617705345">
        <ele>1227.26001</ele>
        <time>2017-06-15T11:15:44Z</time>
      </trkpt>
      <trkpt lat="41.853275299072266" lon="13.389787310734391">
        <ele>1226.7799070000001</ele>
        <time>2017-06-15T11:16:00Z</time>
      </trkpt>
      <trkpt lat="41.853233641013503" lon="13.38983416557312">
        <ele>1226.7799070000001</ele>
        <time>2017-06-15T11:16:31Z</time>
      </trkpt>
      <trkpt lat="41.853253422304988" lon="13.389835171401501">
        <ele>1226.7799070000001</ele>
        <time>2017-06-15T11:17:02Z</time>
      </trkpt>
      <trkpt lat="41.853252500295639" lon="13.389867693185806">
        <ele>1226.7799070000001</ele>
        <time>2017-06-15T11:17:42Z</time>
      </trkpt>
      <trkpt lat="41.853206567466259" lon="13.389910776168108">
        <ele>1226.7799070000001</ele>
        <time>2017-06-15T11:18:10Z</time>
      </trkpt>
      <trkpt lat="41.853128364309669" lon="13.38994556106627">
        <ele>1225.820068</ele>
        <time>2017-06-15T11:18:24Z</time>
      </trkpt>
      <trkpt lat="41.853006323799491" lon="13.38997389189899">
        <ele>1225.820068</ele>
        <time>2017-06-15T11:18:38Z</time>
      </trkpt>
      <trkpt lat="41.852858634665608" lon="13.390050921589136">
        <ele>1223.900024</ele>
        <time>2017-06-15T11:18:53Z</time>
      </trkpt>
      <trkpt lat="41.852828962728381" lon="13.390065925195813">
        <ele>1222.9300539999999</ele>
        <time>2017-06-15T11:18:57Z</time>
      </trkpt>
      <trkpt lat="41.852723183110356" lon="13.390150330960751">
        <ele>1219.089966</ele>
        <time>2017-06-15T11:19:10Z</time>
      </trkpt>
      <trkpt lat="41.852615978568792" lon="13.390254434198141">
        <ele>1217.650024</ele>
        <time>2017-06-15T11:19:24Z</time>
      </trkpt>
      <trkpt lat="41.852475665509701" lon="13.390348479151726">
        <ele>1216.690063</ele>
        <time>2017-06-15T11:19:39Z</time>
      </trkpt>
      <trkpt lat="41.852296125143766" lon="13.390555931255221">
        <ele>1213.8000489999999</ele>
        <time>2017-06-15T11:19:57Z</time>
      </trkpt>
      <trkpt lat="41.85218196362257" lon="13.390698758885264">
        <ele>1212.3599850000001</ele>
        <time>2017-06-15T11:20:09Z</time>
      </trkpt>
      <trkpt lat="41.852178107947111" lon="13.390819877386093">
        <ele>1209.959961</ele>
        <time>2017-06-15T11:20:21Z</time>
      </trkpt>
      <trkpt lat="41.852168887853622" lon="13.390976032242179">
        <ele>1208.51001</ele>
        <time>2017-06-15T11:20:34Z</time>
      </trkpt>
      <trkpt lat="41.852157991379499" lon="13.391083739697933">
        <ele>1206.589966</ele>
        <time>2017-06-15T11:20:47Z</time>
      </trkpt>
      <trkpt lat="41.852142568677664" lon="13.391190441325307">
        <ele>1205.630005</ele>
        <time>2017-06-15T11:21:00Z</time>
      </trkpt>
      <trkpt lat="41.852108621969819" lon="13.391350619494915">
        <ele>1203.709961</ele>
        <time>2017-06-15T11:21:11Z</time>
      </trkpt>
      <trkpt lat="41.852104179561138" lon="13.391385823488235">
        <ele>1203.2299800000001</ele>
        <time>2017-06-15T11:21:14Z</time>
      </trkpt>
      <trkpt lat="41.852081967517734" lon="13.391490764915943">
        <ele>1201.790039</ele>
        <time>2017-06-15T11:21:23Z</time>
      </trkpt>
      <trkpt lat="41.852074507623911" lon="13.391533680260181">
        <ele>1200.820068</ele>
        <time>2017-06-15T11:21:25Z</time>
      </trkpt>
      <trkpt lat="41.852095378562808" lon="13.39160836301744">
        <ele>1200.339966</ele>
        <time>2017-06-15T11:21:29Z</time>
      </trkpt>
      <trkpt lat="41.852069478482008" lon="13.391698887571692">
        <ele>1199.8599850000001</ele>
        <time>2017-06-15T11:21:46Z</time>
      </trkpt>
      <trkpt lat="41.851971074938774" lon="13.391741216182709">
        <ele>1199.380005</ele>
        <time>2017-06-15T11:22:22Z</time>
      </trkpt>
      <trkpt lat="41.851974679157138" lon="13.391818581148982">
        <ele>1198.420044</ele>
        <time>2017-06-15T11:22:54Z</time>
      </trkpt>
      <trkpt lat="41.852077525109053" lon="13.391934670507908">
        <ele>1196.5</ele>
        <time>2017-06-15T11:23:05Z</time>
      </trkpt>
      <trkpt lat="41.852156734094024" lon="13.392057968303561">
        <ele>1194.580078</ele>
        <time>2017-06-15T11:23:15Z</time>
      </trkpt>
      <trkpt lat="41.852167379111052" lon="13.392121503129601">
        <ele>1193.6099850000001</ele>
        <time>2017-06-15T11:23:27Z</time>
      </trkpt>
      <trkpt lat="41.852188585326076" lon="13.392191575840116">
        <ele>1193.130005</ele>
        <time>2017-06-15T11:23:51Z</time>
      </trkpt>
      <trkpt lat="41.852177940309048" lon="13.392221163958311">
        <ele>1193.130005</ele>
        <time>2017-06-15T11:23:55Z</time>
      </trkpt>
      <trkpt lat="41.852202666923404" lon="13.392374720424414">
        <ele>1190.7299800000001</ele>
        <time>2017-06-15T11:24:07Z</time>
      </trkpt>
      <trkpt lat="41.852207528427243" lon="13.392419060692191">
        <ele>1190.7299800000001</ele>
        <time>2017-06-15T11:24:10Z</time>
      </trkpt>
      <trkpt lat="41.852187076583505" lon="13.392483768984675">
        <ele>1189.7700199999999</ele>
        <time>2017-06-15T11:24:14Z</time>
      </trkpt>
      <trkpt lat="41.852133264765143" lon="13.392630703747272">
        <ele>1187.849976</ele>
        <time>2017-06-15T11:24:27Z</time>
      </trkpt>
      <trkpt lat="41.852100659161806" lon="13.392812339589">
        <ele>1187.369995</ele>
        <time>2017-06-15T11:24:42Z</time>
      </trkpt>
      <trkpt lat="41.852051038295031" lon="13.392971428111196">
        <ele>1186.400024</ele>
        <time>2017-06-15T11:25:17Z</time>
      </trkpt>
      <trkpt lat="41.85204416513443" lon="13.393031107261777">
        <ele>1185.920044</ele>
        <time>2017-06-15T11:25:24Z</time>
      </trkpt>
      <trkpt lat="41.852072328329086" lon="13.393081733956933">
        <ele>1184.4799800000001</ele>
        <time>2017-06-15T11:25:33Z</time>
      </trkpt>
      <trkpt lat="41.852073166519403" lon="13.393111322075129">
        <ele>1184.4799800000001</ele>
        <time>2017-06-15T11:25:36Z</time>
      </trkpt>
      <trkpt lat="41.852139299735427" lon="13.393258173018694">
        <ele>1182.080078</ele>
        <time>2017-06-15T11:25:51Z</time>
      </trkpt>
      <trkpt lat="41.852122703567147" lon="13.39335179887712">
        <ele>1180.6400149999999</ele>
        <time>2017-06-15T11:25:59Z</time>
      </trkpt>
      <trkpt lat="41.852067215368152" lon="13.393544834107161">
        <ele>1178.2299800000001</ele>
        <time>2017-06-15T11:26:11Z</time>
      </trkpt>
      <trkpt lat="41.852060928940773" lon="13.393622534349561">
        <ele>1177.75</ele>
        <time>2017-06-15T11:26:16Z</time>
      </trkpt>
      <trkpt lat="41.851941738277674" lon="13.393823280930519">
        <ele>1174.869995</ele>
        <time>2017-06-15T11:26:32Z</time>
      </trkpt>
      <trkpt lat="41.851936876773834" lon="13.393835686147213">
        <ele>1174.869995</ele>
        <time>2017-06-15T11:26:33Z</time>
      </trkpt>
      <trkpt lat="41.851882394403219" lon="13.393982034176588">
        <ele>1172.469971</ele>
        <time>2017-06-15T11:26:45Z</time>
      </trkpt>
      <trkpt lat="41.851848866790533" lon="13.394055040553212">
        <ele>1171.9799800000001</ele>
        <time>2017-06-15T11:26:50Z</time>
      </trkpt>
      <trkpt lat="41.851770663633943" lon="13.394179763272405">
        <ele>1170.5399170000001</ele>
        <time>2017-06-15T11:27:02Z</time>
      </trkpt>
      <trkpt lat="41.851718612015247" lon="13.394303228706121">
        <ele>1169.099976</ele>
        <time>2017-06-15T11:27:13Z</time>
      </trkpt>
      <trkpt lat="41.851617693901062" lon="13.394431974738836">
        <ele>1167.1800539999999</ele>
        <time>2017-06-15T11:27:26Z</time>
      </trkpt>
      <trkpt lat="41.851522978395224" lon="13.394522415474057">
        <ele>1165.26001</ele>
        <time>2017-06-15T11:27:38Z</time>
      </trkpt>
      <trkpt lat="41.851450139656663" lon="13.394608162343502">
        <ele>1164.290039</ele>
        <time>2017-06-15T11:27:47Z</time>
      </trkpt>
      <trkpt lat="41.851405128836632" lon="13.394775465130806">
        <ele>1163.329956</ele>
        <time>2017-06-15T11:27:59Z</time>
      </trkpt>
      <trkpt lat="41.851279735565186" lon="13.394850734621286">
        <ele>1161.8900149999999</ele>
        <time>2017-06-15T11:28:14Z</time>
      </trkpt>
      <trkpt lat="41.851090220734477" lon="13.395007979124784">
        <ele>1159.48999</ele>
        <time>2017-06-15T11:28:28Z</time>
      </trkpt>
      <trkpt lat="41.851004138588905" lon="13.395161535590887">
        <ele>1158.0500489999999</ele>
        <time>2017-06-15T11:28:44Z</time>
      </trkpt>
      <trkpt lat="41.850989386439323" lon="13.395200511440635">
        <ele>1157.5600589999999</ele>
        <time>2017-06-15T11:28:47Z</time>
      </trkpt>
      <trkpt lat="41.850900873541832" lon="13.395445514470339">
        <ele>1156.599976</ele>
        <time>2017-06-15T11:29:02Z</time>
      </trkpt>
      <trkpt lat="41.850885534659028" lon="13.395482981577516">
        <ele>1156.599976</ele>
        <time>2017-06-15T11:29:04Z</time>
      </trkpt>
      <trkpt lat="41.850860975682735" lon="13.395503936335444">
        <ele>1156.599976</ele>
        <time>2017-06-15T11:29:06Z</time>
      </trkpt>
      <trkpt lat="41.850703563541174" lon="13.395538134500384">
        <ele>1154.1999510000001</ele>
        <time>2017-06-15T11:29:21Z</time>
      </trkpt>
      <trkpt lat="41.850555706769228" lon="13.395671574398875">
        <ele>1151.799927</ele>
        <time>2017-06-15T11:29:40Z</time>
      </trkpt>
      <trkpt lat="41.850457973778248" lon="13.395969467237592">
        <ele>1149.869995</ele>
        <time>2017-06-15T11:29:57Z</time>
      </trkpt>
      <trkpt lat="41.850440623238683" lon="13.396057058125734">
        <ele>1149.3900149999999</ele>
        <time>2017-06-15T11:30:02Z</time>
      </trkpt>
      <trkpt lat="41.8503930978477" lon="13.39613358490169">
        <ele>1149.3900149999999</ele>
        <time>2017-06-15T11:30:07Z</time>
      </trkpt>
      <trkpt lat="41.85024163685739" lon="13.396253865212202">
        <ele>1147.950073</ele>
        <time>2017-06-15T11:30:26Z</time>
      </trkpt>
      <trkpt lat="41.850120518356562" lon="13.396257469430566">
        <ele>1146.030029</ele>
        <time>2017-06-15T11:30:44Z</time>
      </trkpt>
      <trkpt lat="41.84983997605741" lon="13.39620977640152">
        <ele>1148.4300539999999</ele>
        <time>2017-06-15T11:31:02Z</time>
      </trkpt>
      <trkpt lat="41.849684827029705" lon="13.396308599039912">
        <ele>1148.9099120000001</ele>
        <time>2017-06-15T11:31:17Z</time>
      </trkpt>
      <trkpt lat="41.849511740729213" lon="13.396470034494996">
        <ele>1149.869995</ele>
        <time>2017-06-15T11:31:33Z</time>
      </trkpt>
      <trkpt lat="41.849359860643744" lon="13.396483277902007">
        <ele>1148.9099120000001</ele>
        <time>2017-06-15T11:31:50Z</time>
      </trkpt>
      <trkpt lat="41.849333290010691" lon="13.396494090557098">
        <ele>1148.4300539999999</ele>
        <time>2017-06-15T11:31:52Z</time>
      </trkpt>
      <trkpt lat="41.84927168302238" lon="13.396500712260604">
        <ele>1148.4300539999999</ele>
        <time>2017-06-15T11:32:04Z</time>
      </trkpt>
      <trkpt lat="41.849201861768961" lon="13.396514290943742">
        <ele>1148.4300539999999</ele>
        <time>2017-06-15T11:32:09Z</time>
      </trkpt>
      <trkpt lat="41.849178979173303" lon="13.396511105820537">
        <ele>1148.4300539999999</ele>
        <time>2017-06-15T11:32:11Z</time>
      </trkpt>
      <trkpt lat="41.848997594788671" lon="13.396495515480638">
        <ele>1148.4300539999999</ele>
        <time>2017-06-15T11:32:27Z</time>
      </trkpt>
      <trkpt lat="41.848987117409706" lon="13.396504065021873">
        <ele>1148.4300539999999</ele>
        <time>2017-06-15T11:32:28Z</time>
      </trkpt>
      <trkpt lat="41.848787041381001" lon="13.396602720022202">
        <ele>1148.4300539999999</ele>
        <time>2017-06-15T11:32:43Z</time>
      </trkpt>
      <trkpt lat="41.848743539303541" lon="13.396602971479297">
        <ele>1149.869995</ele>
        <time>2017-06-15T11:32:46Z</time>
      </trkpt>
      <trkpt lat="41.848553605377674" lon="13.396624764427543">
        <ele>1149.869995</ele>
        <time>2017-06-15T11:33:00Z</time>
      </trkpt>
      <trkpt lat="41.848424188792706" lon="13.396667595952749">
        <ele>1151.320068</ele>
        <time>2017-06-15T11:33:16Z</time>
      </trkpt>
      <trkpt lat="41.848392840474844" lon="13.396719396114349">
        <ele>1151.799927</ele>
        <time>2017-06-15T11:33:39Z</time>
      </trkpt>
      <trkpt lat="41.84826317243278" lon="13.396668434143066">
        <ele>1153.23999</ele>
        <time>2017-06-15T11:33:55Z</time>
      </trkpt>
      <trkpt lat="41.848131492733955" lon="13.39653423987329">
        <ele>1155.160034</ele>
        <time>2017-06-15T11:34:11Z</time>
      </trkpt>
      <trkpt lat="41.847992269322276" lon="13.396563660353422">
        <ele>1157.080078</ele>
        <time>2017-06-15T11:34:29Z</time>
      </trkpt>
      <trkpt lat="41.84780920855701" lon="13.396599283441901">
        <ele>1158.0500489999999</ele>
        <time>2017-06-15T11:34:46Z</time>
      </trkpt>
      <trkpt lat="41.847662776708603" lon="13.396635325625539">
        <ele>1158.530029</ele>
        <time>2017-06-15T11:35:02Z</time>
      </trkpt>
      <trkpt lat="41.847581807523966" lon="13.396503394469619">
        <ele>1160.9300539999999</ele>
        <time>2017-06-15T11:35:18Z</time>
      </trkpt>
      <trkpt lat="41.847534868866205" lon="13.396336762234569">
        <ele>1161.8900149999999</ele>
        <time>2017-06-15T11:35:32Z</time>
      </trkpt>
      <trkpt lat="41.847409391775727" lon="13.396183121949434">
        <ele>1164.290039</ele>
        <time>2017-06-15T11:35:49Z</time>
      </trkpt>
      <trkpt lat="41.847355999052525" lon="13.396074408665299">
        <ele>1165.26001</ele>
        <time>2017-06-15T11:36:04Z</time>
      </trkpt>
      <trkpt lat="41.847316604107618" lon="13.395985141396523">
        <ele>1167.1800539999999</ele>
        <time>2017-06-15T11:36:13Z</time>
      </trkpt>
      <trkpt lat="41.847267234697938" lon="13.395842481404543">
        <ele>1169.099976</ele>
        <time>2017-06-15T11:36:27Z</time>
      </trkpt>
      <trkpt lat="41.847200766205788" lon="13.395656906068325">
        <ele>1170.5399170000001</ele>
        <time>2017-06-15T11:36:42Z</time>
      </trkpt>
      <trkpt lat="41.847143936902285" lon="13.395523633807898">
        <ele>1172.950073</ele>
        <time>2017-06-15T11:36:56Z</time>
      </trkpt>
      <trkpt lat="41.847071768715978" lon="13.395391870290041">
        <ele>1173.9099120000001</ele>
        <time>2017-06-15T11:37:11Z</time>
      </trkpt>
      <trkpt lat="41.847004629671574" lon="13.395229261368513">
        <ele>1175.829956</ele>
        <time>2017-06-15T11:37:24Z</time>
      </trkpt>
      <trkpt lat="41.846971521154046" lon="13.39511820115149">
        <ele>1177.75</ele>
        <time>2017-06-15T11:37:37Z</time>
      </trkpt>
      <trkpt lat="41.846928102895617" lon="13.39504879899323">
        <ele>1179.670044</ele>
        <time>2017-06-15T11:37:47Z</time>
      </trkpt>
      <trkpt lat="41.846755603328347" lon="13.394952826201916">
        <ele>1181.599976</ele>
        <time>2017-06-15T11:38:04Z</time>
      </trkpt>
      <trkpt lat="41.846658540889621" lon="13.394842185080051">
        <ele>1182.5600589999999</ele>
        <time>2017-06-15T11:38:20Z</time>
      </trkpt>
      <trkpt lat="41.846459722146392" lon="13.394789379090071">
        <ele>1184.4799800000001</ele>
        <time>2017-06-15T11:38:39Z</time>
      </trkpt>
      <trkpt lat="41.846339777112007" lon="13.39471997693181">
        <ele>1185.4399410000001</ele>
        <time>2017-06-15T11:38:53Z</time>
      </trkpt>
      <trkpt lat="41.846212204545736" lon="13.394709080457687">
        <ele>1187.849976</ele>
        <time>2017-06-15T11:39:07Z</time>
      </trkpt>
      <trkpt lat="41.846074238419533" lon="13.394626937806606">
        <ele>1188.329956</ele>
        <time>2017-06-15T11:39:22Z</time>
      </trkpt>
      <trkpt lat="41.845944067463279" lon="13.394587961956859">
        <ele>1187.849976</ele>
        <time>2017-06-15T11:39:38Z</time>
      </trkpt>
      <trkpt lat="41.845864439383149" lon="13.394637918099761">
        <ele>1188.809937</ele>
        <time>2017-06-15T11:40:00Z</time>
      </trkpt>
      <trkpt lat="41.845723036676645" lon="13.394796838983893">
        <ele>1190.25</ele>
        <time>2017-06-15T11:40:16Z</time>
      </trkpt>
      <trkpt lat="41.845615915954113" lon="13.394893230870366">
        <ele>1191.690063</ele>
        <time>2017-06-15T11:40:31Z</time>
      </trkpt>
      <trkpt lat="41.845534611493349" lon="13.394980570301414">
        <ele>1194.089966</ele>
        <time>2017-06-15T11:40:47Z</time>
      </trkpt>
      <trkpt lat="41.845467388629913" lon="13.395046703517437">
        <ele>1194.089966</ele>
        <time>2017-06-15T11:40:58Z</time>
      </trkpt>
      <trkpt lat="41.845382396131754" lon="13.395166732370853">
        <ele>1194.089966</ele>
        <time>2017-06-15T11:41:13Z</time>
      </trkpt>
      <trkpt lat="41.845278209075332" lon="13.395256837829947">
        <ele>1195.0600589999999</ele>
        <time>2017-06-15T11:41:27Z</time>
      </trkpt>
      <trkpt lat="41.8452038615942" lon="13.395343674346805">
        <ele>1195.5399170000001</ele>
        <time>2017-06-15T11:41:35Z</time>
      </trkpt>
      <trkpt lat="41.845097579061985" lon="13.395455740392208">
        <ele>1196.0200199999999</ele>
        <time>2017-06-15T11:41:46Z</time>
      </trkpt>
      <trkpt lat="41.845062039792538" lon="13.395518269389868">
        <ele>1196.9799800000001</ele>
        <time>2017-06-15T11:41:52Z</time>
      </trkpt>
      <trkpt lat="41.845013005658984" lon="13.395671574398875">
        <ele>1198.420044</ele>
        <time>2017-06-15T11:42:05Z</time>
      </trkpt>
      <trkpt lat="41.844984591007233" lon="13.395776934921741">
        <ele>1199.380005</ele>
        <time>2017-06-15T11:42:13Z</time>
      </trkpt>
      <trkpt lat="41.844947710633278" lon="13.395897466689348">
        <ele>1200.820068</ele>
        <time>2017-06-15T11:42:22Z</time>
      </trkpt>
      <trkpt lat="41.844860538840294" lon="13.396017495542765">
        <ele>1201.790039</ele>
        <time>2017-06-15T11:42:35Z</time>
      </trkpt>
      <trkpt lat="41.844811672344804" lon="13.396036438643932">
        <ele>1201.790039</ele>
        <time>2017-06-15T11:42:40Z</time>
      </trkpt>
      <trkpt lat="41.84470203705132" lon="13.396026631817222">
        <ele>1202.75</ele>
        <time>2017-06-15T11:42:50Z</time>
      </trkpt>
      <trkpt lat="41.844625761732459" lon="13.395993690937757">
        <ele>1203.2299800000001</ele>
        <time>2017-06-15T11:43:03Z</time>
      </trkpt>
      <trkpt lat="41.844683093950152" lon="13.395956559106708">
        <ele>1203.2299800000001</ele>
        <time>2017-06-15T11:43:12Z</time>
      </trkpt>
      <trkpt lat="41.844795998185873" lon="13.395971059799194">
        <ele>1201.790039</ele>
        <time>2017-06-15T11:43:20Z</time>
      </trkpt>
      <trkpt lat="41.844865316525102" lon="13.395948428660631">
        <ele>1201.3000489999999</ele>
        <time>2017-06-15T11:43:28Z</time>
      </trkpt>
      <trkpt lat="41.844873111695051" lon="13.395893108099699">
        <ele>1200.339966</ele>
        <time>2017-06-15T11:43:42Z</time>
      </trkpt>
      <trkpt lat="41.844895659014583" lon="13.395862095057964">
        <ele>1199.380005</ele>
        <time>2017-06-15T11:43:47Z</time>
      </trkpt>
      <trkpt lat="41.844915440306067" lon="13.395851282402873">
        <ele>1198.900024</ele>
        <time>2017-06-15T11:43:50Z</time>
      </trkpt>
      <trkpt lat="41.844929940998554" lon="13.395815994590521">
        <ele>1198.420044</ele>
        <time>2017-06-15T11:43:54Z</time>
      </trkpt>
      <trkpt lat="41.845001019537449" lon="13.395642237737775">
        <ele>1196.0200199999999</ele>
        <time>2017-06-15T11:44:09Z</time>
      </trkpt>
      <trkpt lat="41.845075618475676" lon="13.395504523068666">
        <ele>1195.5399170000001</ele>
        <time>2017-06-15T11:44:19Z</time>
      </trkpt>
      <trkpt lat="41.84510663151741" lon="13.395452387630939">
        <ele>1195.0600589999999</ele>
        <time>2017-06-15T11:44:23Z</time>
      </trkpt>
      <trkpt lat="41.845186594873667" lon="13.395314086228609">
        <ele>1194.089966</ele>
        <time>2017-06-15T11:44:34Z</time>
      </trkpt>
      <trkpt lat="41.845340235158801" lon="13.395128007978201">
        <ele>1193.130005</ele>
        <time>2017-06-15T11:44:49Z</time>
      </trkpt>
      <trkpt lat="41.845465041697025" lon="13.394947964698076">
        <ele>1192.650024</ele>
        <time>2017-06-15T11:45:03Z</time>
      </trkpt>
      <trkpt lat="41.84546671807766" lon="13.394936816766858">
        <ele>1192.650024</ele>
        <time>2017-06-15T11:45:04Z</time>
      </trkpt>
      <trkpt lat="41.845475770533085" lon="13.394909324124455">
        <ele>1192.650024</ele>
        <time>2017-06-15T11:45:06Z</time>
      </trkpt>
      <trkpt lat="41.845519440248609" lon="13.394855763763189">
        <ele>1191.209961</ele>
        <time>2017-06-15T11:45:11Z</time>
      </trkpt>
      <trkpt lat="41.845654640346766" lon="13.394743194803596">
        <ele>1189.290039</ele>
        <time>2017-06-15T11:45:27Z</time>
      </trkpt>
      <trkpt lat="41.845696130767465" lon="13.394670858979225">
        <ele>1188.329956</ele>
        <time>2017-06-15T11:45:33Z</time>
      </trkpt>
      <trkpt lat="41.845735777169466" lon="13.394620902836323">
        <ele>1188.329956</ele>
        <time>2017-06-15T11:45:37Z</time>
      </trkpt>
      <trkpt lat="41.845812723040581" lon="13.394497269764543">
        <ele>1186.400024</ele>
        <time>2017-06-15T11:45:50Z</time>
      </trkpt>
      <trkpt lat="41.845911461859941" lon="13.394648563116789">
        <ele>1184.4799800000001</ele>
        <time>2017-06-15T11:46:04Z</time>
      </trkpt>
      <trkpt lat="41.846005339175463" lon="13.394843526184559">
        <ele>1183.0399170000001</ele>
        <time>2017-06-15T11:46:16Z</time>
      </trkpt>
      <trkpt lat="41.846008105203509" lon="13.394859870895743">
        <ele>1183.0399170000001</ele>
        <time>2017-06-15T11:46:17Z</time>
      </trkpt>
      <trkpt lat="41.846025204285979" lon="13.394915023818612">
        <ele>1182.5600589999999</ele>
        <time>2017-06-15T11:46:20Z</time>
      </trkpt>
      <trkpt lat="41.846067365258932" lon="13.395073860883713">
        <ele>1181.119995</ele>
        <time>2017-06-15T11:46:33Z</time>
      </trkpt>
      <trkpt lat="41.846126206219196" lon="13.395176287740469">
        <ele>1179.670044</ele>
        <time>2017-06-15T11:46:45Z</time>
      </trkpt>
      <trkpt lat="41.846230225637555" lon="13.395330095663667">
        <ele>1177.2700199999999</ele>
        <time>2017-06-15T11:46:58Z</time>
      </trkpt>
      <trkpt lat="41.846247659996152" lon="13.395361192524433">
        <ele>1177.75</ele>
        <time>2017-06-15T11:47:00Z</time>
      </trkpt>
      <trkpt lat="41.846357127651572" lon="13.395488765090704">
        <ele>1175.349976</ele>
        <time>2017-06-15T11:47:14Z</time>
      </trkpt>
      <trkpt lat="41.846471540629864" lon="13.395588174462318">
        <ele>1173.9099120000001</ele>
        <time>2017-06-15T11:47:27Z</time>
      </trkpt>
      <trkpt lat="41.846568938344717" lon="13.395647685974836">
        <ele>1172.469971</ele>
        <time>2017-06-15T11:47:40Z</time>
      </trkpt>
      <trkpt lat="41.846669940277934" lon="13.395754639059305">
        <ele>1171.5</ele>
        <time>2017-06-15T11:47:53Z</time>
      </trkpt>
      <trkpt lat="41.846709921956062" lon="13.395926216617227">
        <ele>1170.0600589999999</ele>
        <time>2017-06-15T11:48:08Z</time>
      </trkpt>
      <trkpt lat="41.846750238910317" lon="13.396111121401191">
        <ele>1169.580078</ele>
        <time>2017-06-15T11:48:19Z</time>
      </trkpt>
      <trkpt lat="41.846841517835855" lon="13.396281022578478">
        <ele>1167.660034</ele>
        <time>2017-06-15T11:48:34Z</time>
      </trkpt>
      <trkpt lat="41.846932796761394" lon="13.396391328424215">
        <ele>1165.26001</ele>
        <time>2017-06-15T11:48:46Z</time>
      </trkpt>
      <trkpt lat="41.847016699612141" lon="13.396532731130719">
        <ele>1164.290039</ele>
        <time>2017-06-15T11:48:58Z</time>
      </trkpt>
      <trkpt lat="41.847073696553707" lon="13.396714869886637">
        <ele>1162.849976</ele>
        <time>2017-06-15T11:49:12Z</time>
      </trkpt>
      <trkpt lat="41.847084341570735" lon="13.396804388612509">
        <ele>1162.369995</ele>
        <time>2017-06-15T11:49:18Z</time>
      </trkpt>
      <trkpt lat="41.847112672403455" lon="13.397057941183448">
        <ele>1160.450073</ele>
        <time>2017-06-15T11:49:33Z</time>
      </trkpt>
      <trkpt lat="41.84710755944252" lon="13.397092977538705">
        <ele>1159.969971</ele>
        <time>2017-06-15T11:49:35Z</time>
      </trkpt>
      <trkpt lat="41.847132537513971" lon="13.397243432700634">
        <ele>1159.48999</ele>
        <time>2017-06-15T11:49:44Z</time>
      </trkpt>
      <trkpt lat="41.847166568040848" lon="13.397335801273584">
        <ele>1157.5600589999999</ele>
        <time>2017-06-15T11:49:56Z</time>
      </trkpt>
      <trkpt lat="41.847190540283918" lon="13.397412328049541">
        <ele>1155.6400149999999</ele>
        <time>2017-06-15T11:50:08Z</time>
      </trkpt>
      <trkpt lat="41.847287435084581" lon="13.397532189264894">
        <ele>1152.76001</ele>
        <time>2017-06-15T11:50:23Z</time>
      </trkpt>
      <trkpt lat="41.847311574965715" lon="13.397542834281921">
        <ele>1151.799927</ele>
        <time>2017-06-15T11:50:38Z</time>
      </trkpt>
      <trkpt lat="41.847320878878236" lon="13.397550461813807">
        <ele>1151.799927</ele>
        <time>2017-06-15T11:50:39Z</time>
      </trkpt>
      <trkpt lat="41.847404865548015" lon="13.39759849011898">
        <ele>1149.869995</ele>
        <time>2017-06-15T11:50:55Z</time>
      </trkpt>
      <trkpt lat="41.847351724281907" lon="13.397581893950701">
        <ele>1150.839966</ele>
        <time>2017-06-15T11:51:08Z</time>
      </trkpt>
      <trkpt lat="41.847323896363378" lon="13.397552976384759">
        <ele>1151.799927</ele>
        <time>2017-06-15T11:51:15Z</time>
      </trkpt>
      <trkpt lat="41.847236473113298" lon="13.397490112110972">
        <ele>1154.1999510000001</ele>
        <time>2017-06-15T11:51:26Z</time>
      </trkpt>
      <trkpt lat="41.847191965207458" lon="13.397419285029173">
        <ele>1155.6400149999999</ele>
        <time>2017-06-15T11:51:37Z</time>
      </trkpt>
      <trkpt lat="41.847143936902285" lon="13.397377962246537">
        <ele>1157.080078</ele>
        <time>2017-06-15T11:51:50Z</time>
      </trkpt>
      <trkpt lat="41.847081910818815" lon="13.397261034697294">
        <ele>1159.01001</ele>
        <time>2017-06-15T11:52:06Z</time>
      </trkpt>
      <trkpt lat="41.847053328529" lon="13.397121140733361">
        <ele>1159.969971</ele>
        <time>2017-06-15T11:52:20Z</time>
      </trkpt>
      <trkpt lat="41.847060788422823" lon="13.396947216242552">
        <ele>1160.9300539999999</ele>
        <time>2017-06-15T11:52:32Z</time>
      </trkpt>
      <trkpt lat="41.84715106151998" lon="13.396790893748403">
        <ele>1162.369995</ele>
        <time>2017-06-15T11:52:45Z</time>
      </trkpt>
      <trkpt lat="41.847279137000442" lon="13.396663991734385">
        <ele>1162.849976</ele>
        <time>2017-06-15T11:52:58Z</time>
      </trkpt>
      <trkpt lat="41.847341917455196" lon="13.396547399461269">
        <ele>1159.969971</ele>
        <time>2017-06-15T11:53:09Z</time>
      </trkpt>
      <trkpt lat="41.847484661266208" lon="13.3964819367975">
        <ele>1158.530029</ele>
        <time>2017-06-15T11:53:22Z</time>
      </trkpt>
      <trkpt lat="41.847638469189405" lon="13.396512279286981">
        <ele>1157.080078</ele>
        <time>2017-06-15T11:53:36Z</time>
      </trkpt>
      <trkpt lat="41.847837623208761" lon="13.396492414176464">
        <ele>1156.119995</ele>
        <time>2017-06-15T11:53:49Z</time>
      </trkpt>
      <trkpt lat="41.848007692024112" lon="13.396447235718369">
        <ele>1155.6400149999999</ele>
        <time>2017-06-15T11:54:02Z</time>
      </trkpt>
      <trkpt lat="41.848120596259832" lon="13.396384036168456">
        <ele>1153.23999</ele>
        <time>2017-06-15T11:54:16Z</time>
      </trkpt>
      <trkpt lat="41.848180694505572" lon="13.396410522982478">
        <ele>1152.76001</ele>
        <time>2017-06-15T11:54:21Z</time>
      </trkpt>
      <trkpt lat="41.848245821893215" lon="13.396460562944412">
        <ele>1151.320068</ele>
        <time>2017-06-15T11:54:26Z</time>
      </trkpt>
      <trkpt lat="41.848370879888535" lon="13.39657380245626">
        <ele>1149.869995</ele>
        <time>2017-06-15T11:54:40Z</time>
      </trkpt>
      <trkpt lat="41.848479676991701" lon="13.396655358374119">
        <ele>1147.469971</ele>
        <time>2017-06-15T11:54:53Z</time>
      </trkpt>
      <trkpt lat="41.848506331443787" lon="13.396679162979126">
        <ele>1146.98999</ele>
        <time>2017-06-15T11:54:56Z</time>
      </trkpt>
      <trkpt lat="41.848626025021076" lon="13.396741021424532">
        <ele>1144.589966</ele>
        <time>2017-06-15T11:55:10Z</time>
      </trkpt>
      <trkpt lat="41.848664078861475" lon="13.396896338090301">
        <ele>1142.1800539999999</ele>
        <time>2017-06-15T11:55:20Z</time>
      </trkpt>
      <trkpt lat="41.848717136308551" lon="13.39708149433136">
        <ele>1139.780029</ele>
        <time>2017-06-15T11:55:34Z</time>
      </trkpt>
      <trkpt lat="41.848671035841107" lon="13.397168666124344">
        <ele>1137.8599850000001</ele>
        <time>2017-06-15T11:55:46Z</time>
      </trkpt>
      <trkpt lat="41.848596688359976" lon="13.397178640589118">
        <ele>1136.900024</ele>
        <time>2017-06-15T11:55:59Z</time>
      </trkpt>
      <trkpt lat="41.848560059443116" lon="13.397148214280605">
        <ele>1136.420044</ele>
        <time>2017-06-15T11:56:14Z</time>
      </trkpt>
      <trkpt lat="41.848544888198376" lon="13.397165983915329">
        <ele>1136.420044</ele>
        <time>2017-06-15T11:56:35Z</time>
      </trkpt>
      <trkpt lat="41.848583780229092" lon="13.397155590355396">
        <ele>1137.380005</ele>
        <time>2017-06-15T11:57:01Z</time>
      </trkpt>
      <trkpt lat="41.848574560135603" lon="13.397151986137033">
        <ele>1137.380005</ele>
        <time>2017-06-15T11:57:31Z</time>
      </trkpt>
      <trkpt lat="41.848601382225752" lon="13.397148381918669">
        <ele>1137.8599850000001</ele>
        <time>2017-06-15T11:58:02Z</time>
      </trkpt>
      <trkpt lat="41.848520999774337" lon="13.397192638367414">
        <ele>1137.8599850000001</ele>
        <time>2017-06-15T11:58:32Z</time>
      </trkpt>
      <trkpt lat="41.848531728610396" lon="13.397185765206814">
        <ele>1137.8599850000001</ele>
        <time>2017-06-15T11:59:09Z</time>
      </trkpt>
      <trkpt lat="41.84861596673727" lon="13.397138826549053">
        <ele>1138.820068</ele>
        <time>2017-06-15T11:59:25Z</time>
      </trkpt>
      <trkpt lat="41.848621079698205" lon="13.397173611447215">
        <ele>1138.339966</ele>
        <time>2017-06-15T11:59:41Z</time>
      </trkpt>
      <trkpt lat="41.848584366962314" lon="13.397137233987451">
        <ele>1134.969971</ele>
        <time>2017-06-15T11:59:56Z</time>
      </trkpt>
      <trkpt lat="41.848470792174339" lon="13.397109406068921">
        <ele>1131.6099850000001</ele>
        <time>2017-06-15T12:00:12Z</time>
      </trkpt>
      <trkpt lat="41.848424440249801" lon="13.397173695266247">
        <ele>1130.650024</ele>
        <time>2017-06-15T12:00:17Z</time>
      </trkpt>
      <trkpt lat="41.848343387246132" lon="13.397203367203474">
        <ele>1129.2100829999999</ele>
        <time>2017-06-15T12:00:28Z</time>
      </trkpt>
      <trkpt lat="41.848275326192379" lon="13.397245528176427">
        <ele>1128.7299800000001</ele>
        <time>2017-06-15T12:00:42Z</time>
      </trkpt>
      <trkpt lat="41.848246911540627" lon="13.397278971970081">
        <ele>1127.280029</ele>
        <time>2017-06-15T12:00:47Z</time>
      </trkpt>
      <trkpt lat="41.848231824114919" lon="13.397294981405139">
        <ele>1126.320068</ele>
        <time>2017-06-15T12:00:49Z</time>
      </trkpt>
      <trkpt lat="41.848238864913583" lon="13.397338315844536">
        <ele>1123.920044</ele>
        <time>2017-06-15T12:01:02Z</time>
      </trkpt>
      <trkpt lat="41.84821673668921" lon="13.397376034408808">
        <ele>1123.4399410000001</ele>
        <time>2017-06-15T12:01:28Z</time>
      </trkpt>
      <trkpt lat="41.848188238218427" lon="13.397396402433515">
        <ele>1123.4399410000001</ele>
        <time>2017-06-15T12:02:03Z</time>
      </trkpt>
      <trkpt lat="41.848298041149974" lon="13.397357761859894">
        <ele>1120.5500489999999</ele>
        <time>2017-06-15T12:02:20Z</time>
      </trkpt>
      <trkpt lat="41.848486214876175" lon="13.397285426035523">
        <ele>1118.630005</ele>
        <time>2017-06-15T12:02:37Z</time>
      </trkpt>
      <trkpt lat="41.848576739430428" lon="13.397354073822498">
        <ele>1116.2299800000001</ele>
        <time>2017-06-15T12:02:51Z</time>
      </trkpt>
      <trkpt lat="41.84855293482542" lon="13.397463038563728">
        <ele>1115.75</ele>
        <time>2017-06-15T12:03:08Z</time>
      </trkpt>
      <trkpt lat="41.848679836839437" lon="13.397442838177085">
        <ele>1113.339966</ele>
        <time>2017-06-15T12:03:30Z</time>
      </trkpt>
      <trkpt lat="41.848757034167647" lon="13.397455159574747">
        <ele>1109.9799800000001</ele>
        <time>2017-06-15T12:03:43Z</time>
      </trkpt>
      <trkpt lat="41.848824340850115" lon="13.397466978058219">
        <ele>1109.0200199999999</ele>
        <time>2017-06-15T12:03:50Z</time>
      </trkpt>
      <trkpt lat="41.84894286096096" lon="13.397591365501285">
        <ele>1107.580078</ele>
        <time>2017-06-15T12:04:02Z</time>
      </trkpt>
      <trkpt lat="41.849017962813377" lon="13.397656492888927">
        <ele>1106.6099850000001</ele>
        <time>2017-06-15T12:04:14Z</time>
      </trkpt>
      <trkpt lat="41.849126927554607" lon="13.397716591134667">
        <ele>1104.690063</ele>
        <time>2017-06-15T12:04:30Z</time>
      </trkpt>
      <trkpt lat="41.849272437393665" lon="13.397809294983745">
        <ele>1103.7299800000001</ele>
        <time>2017-06-15T12:04:55Z</time>
      </trkpt>
      <trkpt lat="41.849426329135895" lon="13.397942064329982">
        <ele>1100.369995</ele>
        <time>2017-06-15T12:05:09Z</time>
      </trkpt>
      <trkpt lat="41.84957267716527" lon="13.398066284134984">
        <ele>1097.4799800000001</ele>
        <time>2017-06-15T12:05:21Z</time>
      </trkpt>
      <trkpt lat="41.849633865058422" lon="13.398082796484232">
        <ele>1096.0399170000001</ele>
        <time>2017-06-15T12:05:28Z</time>
      </trkpt>
      <trkpt lat="41.849675439298153" lon="13.398100901395082">
        <ele>1096.5200199999999</ele>
        <time>2017-06-15T12:05:39Z</time>
      </trkpt>
      <trkpt lat="41.849768562242389" lon="13.398112719878554">
        <ele>1098.920044</ele>
        <time>2017-06-15T12:05:51Z</time>
      </trkpt>
      <trkpt lat="41.849795216694474" lon="13.398124873638153">
        <ele>1097.4799800000001</ele>
        <time>2017-06-15T12:05:57Z</time>
      </trkpt>
      <trkpt lat="41.849821200594306" lon="13.398136273026466">
        <ele>1096.0399170000001</ele>
        <time>2017-06-15T12:06:08Z</time>
      </trkpt>
      <trkpt lat="41.849877862259746" lon="13.398106098175049">
        <ele>1095.559937</ele>
        <time>2017-06-15T12:06:15Z</time>
      </trkpt>
      <trkpt lat="41.849962016567588" lon="13.398145660758018">
        <ele>1095.080078</ele>
        <time>2017-06-15T12:06:29Z</time>
      </trkpt>
      <trkpt lat="41.850039968267083" lon="13.398266863077879">
        <ele>1091.7100829999999</ele>
        <time>2017-06-15T12:06:45Z</time>
      </trkpt>
      <trkpt lat="41.850089840590954" lon="13.398321513086557">
        <ele>1089.3100589999999</ele>
        <time>2017-06-15T12:06:55Z</time>
      </trkpt>
      <trkpt lat="41.850123284384608" lon="13.398425029590726">
        <ele>1087.869995</ele>
        <time>2017-06-15T12:07:04Z</time>
      </trkpt>
      <trkpt lat="41.850168211385608" lon="13.398577077314258">
        <ele>1085.950073</ele>
        <time>2017-06-15T12:07:19Z</time>
      </trkpt>
      <trkpt lat="41.850229734554887" lon="13.398639522492886">
        <ele>1082.580078</ele>
        <time>2017-06-15T12:07:28Z</time>
      </trkpt>
      <trkpt lat="41.850324282422662" lon="13.398743458092213">
        <ele>1079.6999510000001</ele>
        <time>2017-06-15T12:07:42Z</time>
      </trkpt>
      <trkpt lat="41.85033056885004" lon="13.398752510547638">
        <ele>1079.6999510000001</ele>
        <time>2017-06-15T12:07:43Z</time>
      </trkpt>
      <trkpt lat="41.850437438115478" lon="13.3989133592695">
        <ele>1078.26001</ele>
        <time>2017-06-15T12:07:55Z</time>
      </trkpt>
      <trkpt lat="41.850463841110468" lon="13.3990428596735">
        <ele>1076.8100589999999</ele>
        <time>2017-06-15T12:08:04Z</time>
      </trkpt>
      <trkpt lat="41.850574398413301" lon="13.399095078930259">
        <ele>1072.969971</ele>
        <time>2017-06-15T12:08:19Z</time>
      </trkpt>
      <trkpt lat="41.850646734237671" lon="13.399076387286186">
        <ele>1071.0500489999999</ele>
        <time>2017-06-15T12:08:27Z</time>
      </trkpt>
      <trkpt lat="41.850804565474391" lon="13.399102035909891">
        <ele>1067.1999510000001</ele>
        <time>2017-06-15T12:08:39Z</time>
      </trkpt>
      <trkpt lat="41.850921660661697" lon="13.399114441126585">
        <ele>1065.76001</ele>
        <time>2017-06-15T12:08:55Z</time>
      </trkpt>
      <trkpt lat="41.850947979837656" lon="13.399120895192027">
        <ele>1063.8400879999999</ele>
        <time>2017-06-15T12:09:00Z</time>
      </trkpt>
      <trkpt lat="41.850999612361193" lon="13.399149896577001">
        <ele>1060.950073</ele>
        <time>2017-06-15T12:09:11Z</time>
      </trkpt>
      <trkpt lat="41.851177476346493" lon="13.399198092520237">
        <ele>1058.0699460000001</ele>
        <time>2017-06-15T12:09:26Z</time>
      </trkpt>
      <trkpt lat="41.851266659796238" lon="13.399258777499199">
        <ele>1054.6999510000001</ele>
        <time>2017-06-15T12:09:38Z</time>
      </trkpt>
      <trkpt lat="41.851332541555166" lon="13.399287527427077">
        <ele>1051.3400879999999</ele>
        <time>2017-06-15T12:09:51Z</time>
      </trkpt>
      <trkpt lat="41.851434465497732" lon="13.399209575727582">
        <ele>1048.450073</ele>
        <time>2017-06-15T12:10:07Z</time>
      </trkpt>
      <trkpt lat="41.851507136598229" lon="13.399074710905552">
        <ele>1045.089966</ele>
        <time>2017-06-15T12:10:18Z</time>
      </trkpt>
      <trkpt lat="41.851568995043635" lon="13.398987203836441">
        <ele>1041.7299800000001</ele>
        <time>2017-06-15T12:10:32Z</time>
      </trkpt>
      <trkpt lat="41.851652730256319" lon="13.398926183581352">
        <ele>1038.3599850000001</ele>
        <time>2017-06-15T12:10:45Z</time>
      </trkpt>
      <trkpt lat="41.851843083277345" lon="13.398857368156314">
        <ele>1035.4799800000001</ele>
        <time>2017-06-15T12:11:01Z</time>
      </trkpt>
      <trkpt lat="41.852016001939774" lon="13.398872371762991">
        <ele>1032.589966</ele>
        <time>2017-06-15T12:11:15Z</time>
      </trkpt>
      <trkpt lat="41.852086409926414" lon="13.398872874677181">
        <ele>1030.669922</ele>
        <time>2017-06-15T12:11:31Z</time>
      </trkpt>
      <trkpt lat="41.852097390219569" lon="13.399020731449127">
        <ele>1030.669922</ele>
        <time>2017-06-15T12:11:43Z</time>
      </trkpt>
      <trkpt lat="41.852112058550119" lon="13.399059036746621">
        <ele>1029.2299800000001</ele>
        <time>2017-06-15T12:11:49Z</time>
      </trkpt>
      <trkpt lat="41.852146005257964" lon="13.399141514673829">
        <ele>1025.8599850000001</ele>
        <time>2017-06-15T12:12:03Z</time>
      </trkpt>
      <trkpt lat="41.852187411859632" lon="13.399214940145612">
        <ele>1023.459961</ele>
        <time>2017-06-15T12:12:15Z</time>
      </trkpt>
      <trkpt lat="41.852189926430583" lon="13.399235894903541">
        <ele>1022.499939</ele>
        <time>2017-06-15T12:12:18Z</time>
      </trkpt>
      <trkpt lat="41.852190513163805" lon="13.399266069754958">
        <ele>1022.02002</ele>
        <time>2017-06-15T12:12:20Z</time>
      </trkpt>
      <trkpt lat="41.852306015789509" lon="13.399322228506207">
        <ele>1019.130005</ele>
        <time>2017-06-15T12:12:34Z</time>
      </trkpt>
      <trkpt lat="41.852350188419223" lon="13.399276630952954">
        <ele>1017.210022</ele>
        <time>2017-06-15T12:12:50Z</time>
      </trkpt>
      <trkpt lat="41.852363599464297" lon="13.399241175502539">
        <ele>1014.809998</ele>
        <time>2017-06-15T12:13:06Z</time>
      </trkpt>
      <trkpt lat="41.852442137897015" lon="13.399179819971323">
        <ele>1011.929993</ele>
        <time>2017-06-15T12:13:19Z</time>
      </trkpt>
      <trkpt lat="41.852519670501351" lon="13.399130869656801">
        <ele>1008.559998</ele>
        <time>2017-06-15T12:13:31Z</time>
      </trkpt>
      <trkpt lat="41.852621007710695" lon="13.399046966806054">
        <ele>1004.719971</ele>
        <time>2017-06-15T12:13:46Z</time>
      </trkpt>
      <trkpt lat="41.852716477587819" lon="13.398958034813404">
        <ele>1001.349976</ele>
        <time>2017-06-15T12:13:59Z</time>
      </trkpt>
      <trkpt lat="41.852736258879304" lon="13.398963063955307">
        <ele>1001.349976</ele>
        <time>2017-06-15T12:14:00Z</time>
      </trkpt>
      <trkpt lat="41.852847235277295" lon="13.398943785578012">
        <ele>997.98999000000003</ele>
        <time>2017-06-15T12:14:12Z</time>
      </trkpt>
      <trkpt lat="41.852960474789143" lon="13.39898619800806">
        <ele>995.09997599999997</ele>
        <time>2017-06-15T12:14:25Z</time>
      </trkpt>
      <trkpt lat="41.853036666288972" lon="13.399054259061813">
        <ele>991.74005099999999</ele>
        <time>2017-06-15T12:14:41Z</time>
      </trkpt>
      <trkpt lat="41.853109002113342" lon="13.398989886045456">
        <ele>989.80999799999995</ele>
        <time>2017-06-15T12:14:56Z</time>
      </trkpt>
      <trkpt lat="41.853167926892638" lon="13.398953340947628">
        <ele>986.45001200000002</ele>
        <time>2017-06-15T12:15:09Z</time>
      </trkpt>
      <trkpt lat="41.853251662105322" lon="13.398917466402054">
        <ele>985.01000999999997</ele>
        <time>2017-06-15T12:15:23Z</time>
      </trkpt>
      <trkpt lat="41.853367164731026" lon="13.39887036010623">
        <ele>983.089966</ele>
        <time>2017-06-15T12:15:38Z</time>
      </trkpt>
      <trkpt lat="41.853428017348051" lon="13.398828869685531">
        <ele>980.67999299999997</ele>
        <time>2017-06-15T12:15:52Z</time>
      </trkpt>
      <trkpt lat="41.853488283231854" lon="13.398819901049137">
        <ele>977.32000700000003</ele>
        <time>2017-06-15T12:16:05Z</time>
      </trkpt>
      <trkpt lat="41.853513931855559" lon="13.39890212751925">
        <ele>975.88000499999998</ele>
        <time>2017-06-15T12:16:17Z</time>
      </trkpt>
      <trkpt lat="41.853571683168411" lon="13.398852171376348">
        <ele>972.51000999999997</ele>
        <time>2017-06-15T12:16:29Z</time>
      </trkpt>
      <trkpt lat="41.85358140617609" lon="13.398854937404394">
        <ele>972.51000999999997</ele>
        <time>2017-06-15T12:16:30Z</time>
      </trkpt>
      <trkpt lat="41.853694897145033" lon="13.398778662085533">
        <ele>969.62994400000002</ele>
        <time>2017-06-15T12:16:43Z</time>
      </trkpt>
      <trkpt lat="41.853776872158051" lon="13.398711020126939">
        <ele>967.21997099999999</ele>
        <time>2017-06-15T12:16:56Z</time>
      </trkpt>
      <trkpt lat="41.85385256074369" lon="13.398740608245134">
        <ele>964.82000700000003</ele>
        <time>2017-06-15T12:17:09Z</time>
      </trkpt>
      <trkpt lat="41.853836132213473" lon="13.398833815008402">
        <ele>963.38000499999998</ele>
        <time>2017-06-15T12:17:20Z</time>
      </trkpt>
      <trkpt lat="41.853878209367394" lon="13.398904222995043">
        <ele>960.01000999999997</ele>
        <time>2017-06-15T12:17:32Z</time>
      </trkpt>
      <trkpt lat="41.853805622085929" lon="13.398988712579012">
        <ele>958.089966</ele>
        <time>2017-06-15T12:17:44Z</time>
      </trkpt>
      <trkpt lat="41.853830013424158" lon="13.399016037583351">
        <ele>955.21002199999998</ele>
        <time>2017-06-15T12:17:54Z</time>
      </trkpt>
      <trkpt lat="41.853812327608466" lon="13.399080997332931">
        <ele>952.79998799999998</ele>
        <time>2017-06-15T12:18:05Z</time>
      </trkpt>
      <trkpt lat="41.853798665106297" lon="13.399091558530927">
        <ele>951.84002699999996</ele>
        <time>2017-06-15T12:18:08Z</time>
      </trkpt>
      <trkpt lat="41.85377100482583" lon="13.399122571572661">
        <ele>948.95996100000002</ele>
        <time>2017-06-15T12:18:19Z</time>
      </trkpt>
      <trkpt lat="41.85384526848793" lon="13.399084936827421">
        <ele>945.589966</ele>
        <time>2017-06-15T12:18:33Z</time>
      </trkpt>
      <trkpt lat="41.853900086134672" lon="13.399141179397702">
        <ele>942.71002199999998</ele>
        <time>2017-06-15T12:18:47Z</time>
      </trkpt>
      <trkpt lat="41.853892290964723" lon="13.399150734767318">
        <ele>941.27002000000005</ele>
        <time>2017-06-15T12:18:51Z</time>
      </trkpt>
      <trkpt lat="41.853909892961383" lon="13.399216365069151">
        <ele>938.38000499999998</ele>
        <time>2017-06-15T12:19:01Z</time>
      </trkpt>
      <trkpt lat="41.853933613747358" lon="13.399263639003038">
        <ele>937.419983</ele>
        <time>2017-06-15T12:19:08Z</time>
      </trkpt>
      <trkpt lat="41.853883489966393" lon="13.399354917928576">
        <ele>934.05999799999995</ele>
        <time>2017-06-15T12:19:21Z</time>
      </trkpt>
      <trkpt lat="41.853840909898281" lon="13.39936388656497">
        <ele>933.10003700000004</ele>
        <time>2017-06-15T12:19:26Z</time>
      </trkpt>
      <trkpt lat="41.853808471933007" lon="13.399400934576988">
        <ele>930.21002199999998</ele>
        <time>2017-06-15T12:19:37Z</time>
      </trkpt>
      <trkpt lat="41.853759437799454" lon="13.399475365877151">
        <ele>927.32995600000004</ele>
        <time>2017-06-15T12:19:48Z</time>
      </trkpt>
      <trkpt lat="41.853823307901621" lon="13.399488190189004">
        <ele>923.95996100000002</ele>
        <time>2017-06-15T12:20:03Z</time>
      </trkpt>
      <trkpt lat="41.85387896373868" lon="13.399531608447433">
        <ele>922.04003899999998</ele>
        <time>2017-06-15T12:20:20Z</time>
      </trkpt>
      <trkpt lat="41.853895811364055" lon="13.399535715579987">
        <ele>921.080017</ele>
        <time>2017-06-15T12:20:23Z</time>
      </trkpt>
      <trkpt lat="41.853943085297942" lon="13.399574775248766">
        <ele>919.64001499999995</ele>
        <time>2017-06-15T12:20:42Z</time>
      </trkpt>
      <trkpt lat="41.853984659537673" lon="13.399602100253105">
        <ele>919.64001499999995</ele>
        <time>2017-06-15T12:21:07Z</time>
      </trkpt>
      <trkpt lat="41.854019863530993" lon="13.399685835465789">
        <ele>916.27002000000005</ele>
        <time>2017-06-15T12:21:18Z</time>
      </trkpt>
      <trkpt lat="41.854012403637171" lon="13.399701677262783">
        <ele>916.27002000000005</ele>
        <time>2017-06-15T12:21:19Z</time>
      </trkpt>
      <trkpt lat="41.853968733921647" lon="13.399730678647757">
        <ele>915.78997800000002</ele>
        <time>2017-06-15T12:21:28Z</time>
      </trkpt>
      <trkpt lat="41.853867396712303" lon="13.399750040844083">
        <ele>912.910034</ele>
        <time>2017-06-15T12:21:40Z</time>
      </trkpt>
      <trkpt lat="41.853809980675578" lon="13.399771582335234">
        <ele>910.03002900000001</ele>
        <time>2017-06-15T12:21:53Z</time>
      </trkpt>
      <trkpt lat="41.853814758360386" lon="13.399812737479806">
        <ele>907.14001499999995</ele>
        <time>2017-06-15T12:22:05Z</time>
      </trkpt>
      <trkpt lat="41.853828588500619" lon="13.399898819625378">
        <ele>905.21997099999999</ele>
        <time>2017-06-15T12:22:19Z</time>
      </trkpt>
      <trkpt lat="41.853803358972073" lon="13.399965958669782">
        <ele>902.82000700000003</ele>
        <time>2017-06-15T12:22:32Z</time>
      </trkpt>
      <trkpt lat="41.853788858279586" lon="13.399982135742903">
        <ele>900.88995399999999</ele>
        <time>2017-06-15T12:22:38Z</time>
      </trkpt>
      <trkpt lat="41.85380813665688" lon="13.400014070793986">
        <ele>898.01000999999997</ele>
        <time>2017-06-15T12:22:51Z</time>
      </trkpt>
      <trkpt lat="41.853823224082589" lon="13.40006017126143">
        <ele>894.64001499999995</ele>
        <time>2017-06-15T12:23:02Z</time>
      </trkpt>
      <trkpt lat="41.853777458891273" lon="13.40011146850884">
        <ele>891.75994900000001</ele>
        <time>2017-06-15T12:23:13Z</time>
      </trkpt>
      <trkpt lat="41.85381886549294" lon="13.400248931720853">
        <ele>889.84002699999996</ele>
        <time>2017-06-15T12:23:32Z</time>
      </trkpt>
      <trkpt lat="41.853827917948365" lon="13.400242058560252">
        <ele>888.40002400000003</ele>
        <time>2017-06-15T12:23:53Z</time>
      </trkpt>
      <trkpt lat="41.853817440569401" lon="13.40020626783371">
        <ele>888.40002400000003</ele>
        <time>2017-06-15T12:24:13Z</time>
      </trkpt>
      <trkpt lat="41.853815177455544" lon="13.400340965017676">
        <ele>887.910034</ele>
        <time>2017-06-15T12:24:31Z</time>
      </trkpt>
      <trkpt lat="41.853751307353377" lon="13.400469711050391">
        <ele>886.47003199999995</ele>
        <time>2017-06-15T12:24:46Z</time>
      </trkpt>
      <trkpt lat="41.853747703135014" lon="13.40051949955523">
        <ele>887.910034</ele>
        <time>2017-06-15T12:24:53Z</time>
      </trkpt>
      <trkpt lat="41.85373337008059" lon="13.400578759610653">
        <ele>889.35998500000005</ele>
        <time>2017-06-15T12:25:04Z</time>
      </trkpt>
      <trkpt lat="41.853710906580091" lon="13.400661237537861">
        <ele>889.35998500000005</ele>
        <time>2017-06-15T12:25:17Z</time>
      </trkpt>
      <trkpt lat="41.853708811104298" lon="13.400680096819997">
        <ele>887.910034</ele>
        <time>2017-06-15T12:25:21Z</time>
      </trkpt>
      <trkpt lat="41.85373337008059" lon="13.400707840919495">
        <ele>886.95001200000002</ele>
        <time>2017-06-15T12:25:35Z</time>
      </trkpt>
      <trkpt lat="41.853798078373075" lon="13.400752013549209">
        <ele>884.07000700000003</ele>
        <time>2017-06-15T12:25:48Z</time>
      </trkpt>
      <trkpt lat="41.853818530216813" lon="13.400814961642027">
        <ele>882.63000499999998</ele>
        <time>2017-06-15T12:25:53Z</time>
      </trkpt>
      <trkpt lat="41.85390486381948" lon="13.400885704904795">
        <ele>882.63000499999998</ele>
        <time>2017-06-15T12:26:09Z</time>
      </trkpt>
      <trkpt lat="41.853926489129663" lon="13.400899535045028">
        <ele>879.25994900000001</ele>
        <time>2017-06-15T12:26:14Z</time>
      </trkpt>
      <trkpt lat="41.853963537141681" lon="13.40092945843935">
        <ele>877.82000700000003</ele>
        <time>2017-06-15T12:26:21Z</time>
      </trkpt>
      <trkpt lat="41.854001507163048" lon="13.400928620249033">
        <ele>876.85998500000005</ele>
        <time>2017-06-15T12:26:25Z</time>
      </trkpt>
      <trkpt lat="41.85410812497139" lon="13.400982264429331">
        <ele>873.97997999999995</ele>
        <time>2017-06-15T12:26:41Z</time>
      </trkpt>
      <trkpt lat="41.854172078892589" lon="13.401054097339511">
        <ele>871.57000700000003</ele>
        <time>2017-06-15T12:26:55Z</time>
      </trkpt>
      <trkpt lat="41.854160763323307" lon="13.401178736239672">
        <ele>868.68994099999998</ele>
        <time>2017-06-15T12:27:08Z</time>
      </trkpt>
      <trkpt lat="41.854115165770054" lon="13.401219137012959">
        <ele>867.25</ele>
        <time>2017-06-15T12:27:14Z</time>
      </trkpt>
      <trkpt lat="41.854099491611123" lon="13.401325587183237">
        <ele>863.88000499999998</ele>
        <time>2017-06-15T12:27:29Z</time>
      </trkpt>
      <trkpt lat="41.85407929122448" lon="13.40143421664834">
        <ele>861</ele>
        <time>2017-06-15T12:27:40Z</time>
      </trkpt>
      <trkpt lat="41.85408616438508" lon="13.401527507230639">
        <ele>858.10998500000005</ele>
        <time>2017-06-15T12:27:54Z</time>
      </trkpt>
      <trkpt lat="41.854061018675566" lon="13.401609901338816">
        <ele>856.67004399999996</ele>
        <time>2017-06-15T12:28:06Z</time>
      </trkpt>
      <trkpt lat="41.854048278182745" lon="13.401650637388229">
        <ele>855.71002199999998</ele>
        <time>2017-06-15T12:28:09Z</time>
      </trkpt>
      <trkpt lat="41.853975858539343" lon="13.401793465018272">
        <ele>854.27002000000005</ele>
        <time>2017-06-15T12:28:22Z</time>
      </trkpt>
      <trkpt lat="41.853957837447524" lon="13.401845600455999">
        <ele>851.86999500000002</ele>
        <time>2017-06-15T12:28:30Z</time>
      </trkpt>
      <trkpt lat="41.853918358683586" lon="13.401938723400235">
        <ele>848.97997999999995</ele>
        <time>2017-06-15T12:28:42Z</time>
      </trkpt>
      <trkpt lat="41.853862283751369" lon="13.401986500248313">
        <ele>846.10003700000004</ele>
        <time>2017-06-15T12:28:57Z</time>
      </trkpt>
      <trkpt lat="41.853808639571071" lon="13.402063362300396">
        <ele>843.21002199999998</ele>
        <time>2017-06-15T12:29:10Z</time>
      </trkpt>
      <trkpt lat="41.853796988725662" lon="13.402160424739122">
        <ele>841.28997800000002</ele>
        <time>2017-06-15T12:29:23Z</time>
      </trkpt>
      <trkpt lat="41.853696908801794" lon="13.40227316133678">
        <ele>839.36999500000002</ele>
        <time>2017-06-15T12:29:36Z</time>
      </trkpt>
      <trkpt lat="41.85366983525455" lon="13.40232202783227">
        <ele>837.44995100000006</ele>
        <time>2017-06-15T12:29:48Z</time>
      </trkpt>
      <trkpt lat="41.85367813333869" lon="13.402328230440617">
        <ele>836.95996100000002</ele>
        <time>2017-06-15T12:29:50Z</time>
      </trkpt>
      <trkpt lat="41.853674026206136" lon="13.402376174926758">
        <ele>835.51995799999997</ele>
        <time>2017-06-15T12:29:55Z</time>
      </trkpt>
      <trkpt lat="41.853684671223164" lon="13.40246669948101">
        <ele>832.160034</ele>
        <time>2017-06-15T12:30:09Z</time>
      </trkpt>
      <trkpt lat="41.853716522455215" lon="13.402578514069319">
        <ele>830.23999000000003</ele>
        <time>2017-06-15T12:30:22Z</time>
      </trkpt>
      <trkpt lat="41.853721216320992" lon="13.402601480484009">
        <ele>829.76000999999997</ele>
        <time>2017-06-15T12:30:27Z</time>
      </trkpt>
      <trkpt lat="41.853663716465235" lon="13.402741122990847">
        <ele>826.38995399999999</ele>
        <time>2017-06-15T12:30:41Z</time>
      </trkpt>
      <trkpt lat="41.853654496371746" lon="13.402667278423905">
        <ele>824.94995100000006</ele>
        <time>2017-06-15T12:30:50Z</time>
      </trkpt>
      <trkpt lat="41.853626668453217" lon="13.402727795764804">
        <ele>822.06005900000002</ele>
        <time>2017-06-15T12:31:02Z</time>
      </trkpt>
      <trkpt lat="41.853562379255891" lon="13.402800131589174">
        <ele>819.660034</ele>
        <time>2017-06-15T12:31:15Z</time>
      </trkpt>
      <trkpt lat="41.853534216061234" lon="13.402822762727737">
        <ele>817.73999000000003</ele>
        <time>2017-06-15T12:31:23Z</time>
      </trkpt>
      <trkpt lat="41.853453498333693" lon="13.403041362762451">
        <ele>816.29998799999998</ele>
        <time>2017-06-15T12:31:37Z</time>
      </trkpt>
      <trkpt lat="41.85344947502017" lon="13.403068268671632">
        <ele>815.81994599999996</ele>
        <time>2017-06-15T12:31:39Z</time>
      </trkpt>
      <trkpt lat="41.853440841659904" lon="13.403117218986154">
        <ele>815.34002699999996</ele>
        <time>2017-06-15T12:31:43Z</time>
      </trkpt>
      <trkpt lat="41.853420473635197" lon="13.403186621144414">
        <ele>814.36999500000002</ele>
        <time>2017-06-15T12:31:50Z</time>
      </trkpt>
      <trkpt lat="41.853479398414493" lon="13.403233559802175">
        <ele>812.93005400000004</ele>
        <time>2017-06-15T12:32:04Z</time>
      </trkpt>
      <trkpt lat="41.853546788915992" lon="13.403315031901002">
        <ele>810.04998799999998</ele>
        <time>2017-06-15T12:32:19Z</time>
      </trkpt>
      <trkpt lat="41.853634882718325" lon="13.40347470715642">
        <ele>807.64001499999995</ele>
        <time>2017-06-15T12:32:33Z</time>
      </trkpt>
      <trkpt lat="41.853729262948036" lon="13.40369263663888">
        <ele>805.71997099999999</ele>
        <time>2017-06-15T12:32:48Z</time>
      </trkpt>
      <trkpt lat="41.853793635964394" lon="13.403871590271592">
        <ele>803.79998799999998</ele>
        <time>2017-06-15T12:33:02Z</time>
      </trkpt>
      <trkpt lat="41.853866390883923" lon="13.404038138687611">
        <ele>800.44000200000005</ele>
        <time>2017-06-15T12:33:16Z</time>
      </trkpt>
      <trkpt lat="41.85392732731998" lon="13.404208039864898">
        <ele>798.03002900000001</ele>
        <time>2017-06-15T12:33:31Z</time>
      </trkpt>
      <trkpt lat="41.853972505778074" lon="13.404322788119316">
        <ele>796.589966</ele>
        <time>2017-06-15T12:33:44Z</time>
      </trkpt>
      <trkpt lat="41.854066969826818" lon="13.404466034844518">
        <ele>795.14996299999996</ele>
        <time>2017-06-15T12:33:57Z</time>
      </trkpt>
      <trkpt lat="41.854129834100604" lon="13.404613137245178">
        <ele>794.669983</ele>
        <time>2017-06-15T12:34:06Z</time>
      </trkpt>
      <trkpt lat="41.854204600676894" lon="13.404836934059858">
        <ele>794.669983</ele>
        <time>2017-06-15T12:34:21Z</time>
      </trkpt>
      <trkpt lat="41.854210887104273" lon="13.404848165810108">
        <ele>794.669983</ele>
        <time>2017-06-15T12:34:22Z</time>
      </trkpt>
      <trkpt lat="41.854301076382399" lon="13.405127702280879">
        <ele>795.63000499999998</ele>
        <time>2017-06-15T12:34:41Z</time>
      </trkpt>
      <trkpt lat="41.854366036131978" lon="13.405235074460506">
        <ele>795.63000499999998</ele>
        <time>2017-06-15T12:34:49Z</time>
      </trkpt>
      <trkpt lat="41.854391014203429" lon="13.405463565140963">
        <ele>793.70996100000002</ele>
        <time>2017-06-15T12:35:05Z</time>
      </trkpt>
      <trkpt lat="41.854400066658854" lon="13.405546965077519">
        <ele>793.21997099999999</ele>
        <time>2017-06-15T12:35:10Z</time>
      </trkpt>
      <trkpt lat="41.854416914284229" lon="13.405744526535273">
        <ele>790.34002699999996</ele>
        <time>2017-06-15T12:35:24Z</time>
      </trkpt>
      <trkpt lat="41.854420434683561" lon="13.405840331688523">
        <ele>787.94000200000005</ele>
        <time>2017-06-15T12:35:32Z</time>
      </trkpt>
      <trkpt lat="41.854466116055846" lon="13.405997324734926">
        <ele>785.04998799999998</ele>
        <time>2017-06-15T12:35:45Z</time>
      </trkpt>
      <trkpt lat="41.854507271200418" lon="13.40613042935729">
        <ele>784.089966</ele>
        <time>2017-06-15T12:35:58Z</time>
      </trkpt>
      <trkpt lat="41.854573236778378" lon="13.406312484294176">
        <ele>782.169983</ele>
        <time>2017-06-15T12:36:11Z</time>
      </trkpt>
      <trkpt lat="41.854611374437809" lon="13.406426729634404">
        <ele>781.69006300000001</ele>
        <time>2017-06-15T12:36:25Z</time>
      </trkpt>
      <trkpt lat="41.854567034170032" lon="13.40644751675427">
        <ele>781.20996100000002</ele>
        <time>2017-06-15T12:36:40Z</time>
      </trkpt>
      <trkpt lat="41.854509534314275" lon="13.406470399349928">
        <ele>778.80999799999995</ele>
        <time>2017-06-15T12:36:52Z</time>
      </trkpt>
      <trkpt lat="41.854528058320284" lon="13.406653208658099">
        <ele>776.40002400000003</ele>
        <time>2017-06-15T12:37:04Z</time>
      </trkpt>
      <trkpt lat="41.854556724429131" lon="13.406801568344235">
        <ele>774</ele>
        <time>2017-06-15T12:37:15Z</time>
      </trkpt>
      <trkpt lat="41.854574074968696" lon="13.407066939398646">
        <ele>771.10998500000005</ele>
        <time>2017-06-15T12:37:31Z</time>
      </trkpt>
      <trkpt lat="41.854604836553335" lon="13.407179592177272">
        <ele>770.14996299999996</ele>
        <time>2017-06-15T12:37:39Z</time>
      </trkpt>
      <trkpt lat="41.854634173214436" lon="13.407217729836702">
        <ele>769.19006300000001</ele>
        <time>2017-06-15T12:37:43Z</time>
      </trkpt>
      <trkpt lat="41.85469837859273" lon="13.40728553943336">
        <ele>768.70996100000002</ele>
        <time>2017-06-15T12:37:50Z</time>
      </trkpt>
      <trkpt lat="41.854785634204745" lon="13.407407160848379">
        <ele>768.23004200000003</ele>
        <time>2017-06-15T12:38:03Z</time>
      </trkpt>
      <trkpt lat="41.854828968644142" lon="13.407497433945537">
        <ele>767.75</ele>
        <time>2017-06-15T12:38:10Z</time>
      </trkpt>
      <trkpt lat="41.854860400781035" lon="13.407536828890443">
        <ele>767.27002000000005</ele>
        <time>2017-06-15T12:38:14Z</time>
      </trkpt>
      <trkpt lat="41.85489191673696" lon="13.407594999298453">
        <ele>766.79003899999998</ele>
        <time>2017-06-15T12:38:23Z</time>
      </trkpt>
      <trkpt lat="41.85495737940073" lon="13.40772676281631">
        <ele>766.79003899999998</ele>
        <time>2017-06-15T12:38:38Z</time>
      </trkpt>
      <trkpt lat="41.854948159307241" lon="13.407745370641351">
        <ele>765.830017</ele>
        <time>2017-06-15T12:38:52Z</time>
      </trkpt>
      <trkpt lat="41.854925528168678" lon="13.407781831920147">
        <ele>764.86999500000002</ele>
        <time>2017-06-15T12:39:06Z</time>
      </trkpt>
      <trkpt lat="41.8548933416605" lon="13.407819969579577">
        <ele>763.90002400000003</ele>
        <time>2017-06-15T12:39:21Z</time>
      </trkpt>
      <trkpt lat="41.85489191673696" lon="13.407752495259047">
        <ele>764.39001499999995</ele>
        <time>2017-06-15T12:39:35Z</time>
      </trkpt>
      <trkpt lat="41.854889569804072" lon="13.407645793631673">
        <ele>764.86999500000002</ele>
        <time>2017-06-15T12:39:48Z</time>
      </trkpt>
      <trkpt lat="41.854886300861835" lon="13.407542612403631">
        <ele>765.830017</ele>
        <time>2017-06-15T12:40:01Z</time>
      </trkpt>
      <trkpt lat="41.854824358597398" lon="13.407418560236692">
        <ele>767.75</ele>
        <time>2017-06-15T12:40:15Z</time>
      </trkpt>
      <trkpt lat="41.854813294485211" lon="13.407403137534857">
        <ele>767.75</ele>
        <time>2017-06-15T12:40:17Z</time>
      </trkpt>
      <trkpt lat="41.854705335572362" lon="13.407264165580273">
        <ele>768.23004200000003</ele>
        <time>2017-06-15T12:40:33Z</time>
      </trkpt>
      <trkpt lat="41.854694858193398" lon="13.40724597685039">
        <ele>768.70996100000002</ele>
        <time>2017-06-15T12:40:35Z</time>
      </trkpt>
      <trkpt lat="41.854586312547326" lon="13.407103735953569">
        <ele>769.19006300000001</ele>
        <time>2017-06-15T12:40:50Z</time>
      </trkpt>
      <trkpt lat="41.854578936472535" lon="13.407068364322186">
        <ele>769.669983</ele>
        <time>2017-06-15T12:40:53Z</time>
      </trkpt>
      <trkpt lat="41.854573572054505" lon="13.406877340748906">
        <ele>771.60003700000004</ele>
        <time>2017-06-15T12:41:08Z</time>
      </trkpt>
      <trkpt lat="41.854555886238813" lon="13.406726298853755">
        <ele>773.51995799999997</ele>
        <time>2017-06-15T12:41:21Z</time>
      </trkpt>
      <trkpt lat="41.854529231786728" lon="13.406580034643412">
        <ele>774.96002199999998</ele>
        <time>2017-06-15T12:41:34Z</time>
      </trkpt>
      <trkpt lat="41.854516239836812" lon="13.406540136784315">
        <ele>775.44000200000005</ele>
        <time>2017-06-15T12:41:38Z</time>
      </trkpt>
      <trkpt lat="41.854473240673542" lon="13.406377276405692">
        <ele>776.88000499999998</ele>
        <time>2017-06-15T12:41:53Z</time>
      </trkpt>
      <trkpt lat="41.854431163519621" lon="13.40634148567915">
        <ele>776.88000499999998</ele>
        <time>2017-06-15T12:41:58Z</time>
      </trkpt>
      <trkpt lat="41.85426888987422" lon="13.406243417412043">
        <ele>775.919983</ele>
        <time>2017-06-15T12:42:14Z</time>
      </trkpt>
      <trkpt lat="41.85423812828958" lon="13.40622179210186">
        <ele>775.919983</ele>
        <time>2017-06-15T12:42:17Z</time>
      </trkpt>
      <trkpt lat="41.854071915149689" lon="13.406066223978996">
        <ele>774</ele>
        <time>2017-06-15T12:42:33Z</time>
      </trkpt>
      <trkpt lat="41.853985916823149" lon="13.405982740223408">
        <ele>772.55999799999995</ele>
        <time>2017-06-15T12:42:45Z</time>
      </trkpt>
      <trkpt lat="41.853931099176407" lon="13.405879558995366">
        <ele>772.07995600000004</ele>
        <time>2017-06-15T12:42:53Z</time>
      </trkpt>
      <trkpt lat="41.853844011202455" lon="13.405675124377012">
        <ele>771.10998500000005</ele>
        <time>2017-06-15T12:43:10Z</time>
      </trkpt>
      <trkpt lat="41.853787265717983" lon="13.405476221814752">
        <ele>768.70996100000002</ele>
        <time>2017-06-15T12:43:22Z</time>
      </trkpt>
      <trkpt lat="41.853735465556383" lon="13.40524991042912">
        <ele>767.27002000000005</ele>
        <time>2017-06-15T12:43:36Z</time>
      </trkpt>
      <trkpt lat="41.85364929959178" lon="13.405067184939981">
        <ele>766.30999799999995</ele>
        <time>2017-06-15T12:43:49Z</time>
      </trkpt>
      <trkpt lat="41.85362440533936" lon="13.404994430020452">
        <ele>765.830017</ele>
        <time>2017-06-15T12:43:54Z</time>
      </trkpt>
      <trkpt lat="41.853562463074923" lon="13.404857804998755">
        <ele>764.39001499999995</ele>
        <time>2017-06-15T12:44:06Z</time>
      </trkpt>
      <trkpt lat="41.853489791974425" lon="13.404718162491918">
        <ele>763.419983</ele>
        <time>2017-06-15T12:44:18Z</time>
      </trkpt>
      <trkpt lat="41.85346313752234" lon="13.404691340401769">
        <ele>762.94000200000005</ele>
        <time>2017-06-15T12:44:21Z</time>
      </trkpt>
      <trkpt lat="41.853293823078275" lon="13.404505262151361">
        <ele>761.5</ele>
        <time>2017-06-15T12:44:37Z</time>
      </trkpt>
      <trkpt lat="41.853166418150067" lon="13.404381712898612">
        <ele>760.53997800000002</ele>
        <time>2017-06-15T12:44:49Z</time>
      </trkpt>
      <trkpt lat="41.853044126182795" lon="13.404431166127324">
        <ele>758.14001499999995</ele>
        <time>2017-06-15T12:45:02Z</time>
      </trkpt>
      <trkpt lat="41.853035409003496" lon="13.404441559687257">
        <ele>758.14001499999995</ele>
        <time>2017-06-15T12:45:03Z</time>
      </trkpt>
      <trkpt lat="41.853005737066269" lon="13.404558906331658">
        <ele>756.69006300000001</ele>
        <time>2017-06-15T12:45:11Z</time>
      </trkpt>
      <trkpt lat="41.853000372648239" lon="13.404693938791752">
        <ele>755.25</ele>
        <time>2017-06-15T12:45:21Z</time>
      </trkpt>
      <trkpt lat="41.853006994351745" lon="13.404767531901598">
        <ele>754.77002000000005</ele>
        <time>2017-06-15T12:45:26Z</time>
      </trkpt>
      <trkpt lat="41.853116378188133" lon="13.404880687594414">
        <ele>753.80999799999995</ele>
        <time>2017-06-15T12:45:39Z</time>
      </trkpt>
      <trkpt lat="41.853215200826526" lon="13.404976576566696">
        <ele>752.36999500000002</ele>
        <time>2017-06-15T12:45:52Z</time>
      </trkpt>
      <trkpt lat="41.853309078142047" lon="13.405183106660843">
        <ele>751.40997300000004</ele>
        <time>2017-06-15T12:46:07Z</time>
      </trkpt>
      <trkpt lat="41.85329751111567" lon="13.405255191028118">
        <ele>750.92999299999997</ele>
        <time>2017-06-15T12:46:12Z</time>
      </trkpt>
      <trkpt lat="41.853235568851233" lon="13.40553623624146">
        <ele>749</ele>
        <time>2017-06-15T12:46:28Z</time>
      </trkpt>
      <trkpt lat="41.853219559416175" lon="13.405681829899549">
        <ele>748.03997800000002</ele>
        <time>2017-06-15T12:46:36Z</time>
      </trkpt>
      <trkpt lat="41.853206316009164" lon="13.405710831284523">
        <ele>748.03997800000002</ele>
        <time>2017-06-15T12:46:38Z</time>
      </trkpt>
      <trkpt lat="41.853177817538381" lon="13.405859861522913">
        <ele>746.60003700000004</ele>
        <time>2017-06-15T12:46:51Z</time>
      </trkpt>
      <trkpt lat="41.853122664615512" lon="13.406014507636428">
        <ele>745.160034</ele>
        <time>2017-06-15T12:47:12Z</time>
      </trkpt>
      <trkpt lat="41.853108331561089" lon="13.40607619844377">
        <ele>745.160034</ele>
        <time>2017-06-15T12:47:17Z</time>
      </trkpt>
      <trkpt lat="41.853075893595815" lon="13.406188935041428">
        <ele>743.72003199999995</ele>
        <time>2017-06-15T12:47:23Z</time>
      </trkpt>
      <trkpt lat="41.85307421721518" lon="13.40628826059401">
        <ele>743.72003199999995</ele>
        <time>2017-06-15T12:47:28Z</time>
      </trkpt>
      <trkpt lat="41.853047059848905" lon="13.406584560871124">
        <ele>741.30999799999995</ele>
        <time>2017-06-15T12:47:42Z</time>
      </trkpt>
      <trkpt lat="41.853083940222859" lon="13.406762089580297">
        <ele>739.86999500000002</ele>
        <time>2017-06-15T12:47:56Z</time>
      </trkpt>
      <trkpt lat="41.853111684322357" lon="13.406979432329535">
        <ele>738.90997300000004</ele>
        <time>2017-06-15T12:48:10Z</time>
      </trkpt>
      <trkpt lat="41.853106822818518" lon="13.407082697376609">
        <ele>738.90997300000004</ele>
        <time>2017-06-15T12:48:19Z</time>
      </trkpt>
      <trkpt lat="41.853213189169765" lon="13.407243797555566">
        <ele>736.99005099999999</ele>
        <time>2017-06-15T12:48:34Z</time>
      </trkpt>
      <trkpt lat="41.853256691247225" lon="13.407298699021339">
        <ele>736.51000999999997</ele>
        <time>2017-06-15T12:48:39Z</time>
      </trkpt>
      <trkpt lat="41.853369595482945" lon="13.407582929357886">
        <ele>735.07000700000003</ele>
        <time>2017-06-15T12:48:55Z</time>
      </trkpt>
      <trkpt lat="41.853413432836533" lon="13.407829524949193">
        <ele>734.10003700000004</ele>
        <time>2017-06-15T12:49:11Z</time>
      </trkpt>
      <trkpt lat="41.853422401472926" lon="13.408057009801269">
        <ele>733.61999500000002</ele>
        <time>2017-06-15T12:49:27Z</time>
      </trkpt>
      <trkpt lat="41.85346657410264" lon="13.408317100256681">
        <ele>732.660034</ele>
        <time>2017-06-15T12:49:42Z</time>
      </trkpt>
      <trkpt lat="41.853441093116999" lon="13.408469567075372">
        <ele>732.17999299999997</ele>
        <time>2017-06-15T12:49:54Z</time>
      </trkpt>
      <trkpt lat="41.853369427844882" lon="13.408509213477373">
        <ele>730.73999000000003</ele>
        <time>2017-06-15T12:50:03Z</time>
      </trkpt>
      <trkpt lat="41.853328105062246" lon="13.408669978380203">
        <ele>729.77996800000005</ele>
        <time>2017-06-15T12:50:15Z</time>
      </trkpt>
      <trkpt lat="41.853286530822515" lon="13.408724209293723">
        <ele>728.339966</ele>
        <time>2017-06-15T12:50:21Z</time>
      </trkpt>
      <trkpt lat="41.853245459496975" lon="13.408836862072349">
        <ele>725.44995100000006</ele>
        <time>2017-06-15T12:50:34Z</time>
      </trkpt>
      <trkpt lat="41.853277562186122" lon="13.408899810165167">
        <ele>722.57000700000003</ele>
        <time>2017-06-15T12:50:44Z</time>
      </trkpt>
      <trkpt lat="41.853240262717009" lon="13.409044481813908">
        <ele>718.72003199999995</ele>
        <time>2017-06-15T12:50:57Z</time>
      </trkpt>
      <trkpt lat="41.853236323222518" lon="13.409161241725087">
        <ele>715.839966</ele>
        <time>2017-06-15T12:51:07Z</time>
      </trkpt>
      <trkpt lat="41.853243866935372" lon="13.409303398802876">
        <ele>711.99005099999999</ele>
        <time>2017-06-15T12:51:20Z</time>
      </trkpt>
      <trkpt lat="41.853152168914676" lon="13.40939300134778">
        <ele>710.54998799999998</ele>
        <time>2017-06-15T12:51:39Z</time>
      </trkpt>
      <trkpt lat="41.853115120902658" lon="13.409518394619226">
        <ele>706.22997999999995</ele>
        <time>2017-06-15T12:51:51Z</time>
      </trkpt>
      <trkpt lat="41.853105397894979" lon="13.409558711573482">
        <ele>706.22997999999995</ele>
        <time>2017-06-15T12:52:07Z</time>
      </trkpt>
      <trkpt lat="41.853106319904327" lon="13.409565165638924">
        <ele>704.77996800000005</ele>
        <time>2017-06-15T12:52:10Z</time>
      </trkpt>
      <trkpt lat="41.853071115911007" lon="13.409635322168469">
        <ele>703.339966</ele>
        <time>2017-06-15T12:52:26Z</time>
      </trkpt>
      <trkpt lat="41.853037420660257" lon="13.409747807309031">
        <ele>699.97997999999995</ele>
        <time>2017-06-15T12:52:38Z</time>
      </trkpt>
      <trkpt lat="41.852970030158758" lon="13.409833135083318">
        <ele>696.60998500000005</ele>
        <time>2017-06-15T12:52:50Z</time>
      </trkpt>
      <trkpt lat="41.852890569716692" lon="13.409908069297671">
        <ele>693.24993900000004</ele>
        <time>2017-06-15T12:53:02Z</time>
      </trkpt>
      <trkpt lat="41.852799039334059" lon="13.409950230270624">
        <ele>690.36004600000001</ele>
        <time>2017-06-15T12:53:14Z</time>
      </trkpt>
      <trkpt lat="41.852710777893662" lon="13.410012507811189">
        <ele>687</ele>
        <time>2017-06-15T12:53:27Z</time>
      </trkpt>
      <trkpt lat="41.852773977443576" lon="13.410195736214519">
        <ele>683.63000499999998</ele>
        <time>2017-06-15T12:53:43Z</time>
      </trkpt>
      <trkpt lat="41.852771127596498" lon="13.410309478640556">
        <ele>681.22997999999995</ele>
        <time>2017-06-15T12:53:56Z</time>
      </trkpt>
      <trkpt lat="41.852736175060272" lon="13.410385334864259">
        <ele>679.79003899999998</ele>
        <time>2017-06-15T12:54:11Z</time>
      </trkpt>
      <trkpt lat="41.852767439559102" lon="13.410433614626527">
        <ele>678.35003700000004</ele>
        <time>2017-06-15T12:54:25Z</time>
      </trkpt>
      <trkpt lat="41.852777665480971" lon="13.410475691780448">
        <ele>676.42004399999996</ele>
        <time>2017-06-15T12:54:31Z</time>
      </trkpt>
      <trkpt lat="41.852788813412189" lon="13.410491617396474">
        <ele>675.94000200000005</ele>
        <time>2017-06-15T12:54:33Z</time>
      </trkpt>
      <trkpt lat="41.852849498391151" lon="13.410536628216505">
        <ele>673.05999799999995</ele>
        <time>2017-06-15T12:54:46Z</time>
      </trkpt>
      <trkpt lat="41.852896939963102" lon="13.410645090043545">
        <ele>669.70001200000002</ele>
        <time>2017-06-15T12:54:59Z</time>
      </trkpt>
      <trkpt lat="41.852972460910678" lon="13.410785989835858">
        <ele>666.330017</ele>
        <time>2017-06-15T12:55:16Z</time>
      </trkpt>
      <trkpt lat="41.852989476174116" lon="13.410985730588436">
        <ele>663.45001200000002</ele>
        <time>2017-06-15T12:55:33Z</time>
      </trkpt>
      <trkpt lat="41.852935161441565" lon="13.411001237109303">
        <ele>661.03997800000002</ele>
        <time>2017-06-15T12:55:44Z</time>
      </trkpt>
      <trkpt lat="41.852886211127043" lon="13.411035435274243">
        <ele>658.160034</ele>
        <time>2017-06-15T12:55:54Z</time>
      </trkpt>
      <trkpt lat="41.852811025455594" lon="13.411098718643188">
        <ele>657.67999299999997</ele>
        <time>2017-06-15T12:56:03Z</time>
      </trkpt>
      <trkpt lat="41.852638106793165" lon="13.4112483356148">
        <ele>656.23999000000003</ele>
        <time>2017-06-15T12:56:19Z</time>
      </trkpt>
      <trkpt lat="41.852528722956777" lon="13.411315474659204">
        <ele>653.830017</ele>
        <time>2017-06-15T12:56:35Z</time>
      </trkpt>
      <trkpt lat="41.852515563368797" lon="13.411349337548018">
        <ele>653.35003700000004</ele>
        <time>2017-06-15T12:56:38Z</time>
      </trkpt>
      <trkpt lat="41.852365108206868" lon="13.41153172776103">
        <ele>651.90997300000004</ele>
        <time>2017-06-15T12:56:54Z</time>
      </trkpt>
      <trkpt lat="41.85223326086998" lon="13.411677740514278">
        <ele>650.46997099999999</ele>
        <time>2017-06-15T12:57:07Z</time>
      </trkpt>
      <trkpt lat="41.852189423516393" lon="13.411718141287565">
        <ele>649.50994900000001</ele>
        <time>2017-06-15T12:57:12Z</time>
      </trkpt>
      <trkpt lat="41.852098312228918" lon="13.411760637536645">
        <ele>649.03002900000001</ele>
        <time>2017-06-15T12:57:28Z</time>
      </trkpt>
      <trkpt lat="41.852078530937433" lon="13.411767007783055">
        <ele>648.55004899999994</ele>
        <time>2017-06-15T12:57:46Z</time>
      </trkpt>
      <trkpt lat="41.852068975567818" lon="13.411822998896241">
        <ele>648.07000700000003</ele>
        <time>2017-06-15T12:58:14Z</time>
      </trkpt>
      <trkpt lat="41.852065119892359" lon="13.411808162927628">
        <ele>648.07000700000003</ele>
        <time>2017-06-15T12:58:44Z</time>
      </trkpt>
      <trkpt lat="41.852083140984178" lon="13.411845713853836">
        <ele>648.07000700000003</ele>
        <time>2017-06-15T12:59:09Z</time>
      </trkpt>
      <trkpt lat="41.852075597271323" lon="13.411856861785054">
        <ele>648.07000700000003</ele>
        <time>2017-06-15T12:59:38Z</time>
      </trkpt>
      <trkpt lat="41.852045506238937" lon="13.411847474053502">
        <ele>648.07000700000003</ele>
        <time>2017-06-15T13:00:06Z</time>
      </trkpt>
      <trkpt lat="41.851933104917407" lon="13.411811431869864">
        <ele>647.09997599999997</ele>
        <time>2017-06-15T13:00:16Z</time>
      </trkpt>
      <trkpt lat="41.851872839033604" lon="13.411827273666859">
        <ele>646.13995399999999</ele>
        <time>2017-06-15T13:00:22Z</time>
      </trkpt>
      <trkpt lat="41.851850459352136" lon="13.411821322515607">
        <ele>645.660034</ele>
        <time>2017-06-15T13:00:24Z</time>
      </trkpt>
      <trkpt lat="41.851720120757818" lon="13.411746807396412">
        <ele>644.22003199999995</ele>
        <time>2017-06-15T13:00:38Z</time>
      </trkpt>
      <trkpt lat="41.851624399423599" lon="13.411702634766698">
        <ele>642.77996800000005</ele>
        <time>2017-06-15T13:00:48Z</time>
      </trkpt>
      <trkpt lat="41.851490959525108" lon="13.411755105480552">
        <ele>641.339966</ele>
        <time>2017-06-15T13:01:02Z</time>
      </trkpt>
      <trkpt lat="41.851474866271019" lon="13.411835739389062">
        <ele>640.85998500000005</ele>
        <time>2017-06-15T13:01:17Z</time>
      </trkpt>
      <trkpt lat="41.851464891806245" lon="13.411828279495239">
        <ele>640.85998500000005</ele>
        <time>2017-06-15T13:01:32Z</time>
      </trkpt>
      <trkpt lat="41.851439662277699" lon="13.411919139325619">
        <ele>641.82000700000003</ele>
        <time>2017-06-15T13:01:46Z</time>
      </trkpt>
      <trkpt lat="41.851428262889385" lon="13.411962473765016">
        <ele>642.77996800000005</ele>
        <time>2017-06-15T13:01:50Z</time>
      </trkpt>
      <trkpt lat="41.851418204605579" lon="13.412058027461171">
        <ele>645.660034</ele>
        <time>2017-06-15T13:02:03Z</time>
      </trkpt>
      <trkpt lat="41.851326925680041" lon="13.412127261981368">
        <ele>646.13995399999999</ele>
        <time>2017-06-15T13:02:12Z</time>
      </trkpt>
      <trkpt lat="41.851189797744155" lon="13.412179397419095">
        <ele>646.13995399999999</ele>
        <time>2017-06-15T13:02:25Z</time>
      </trkpt>
      <trkpt lat="41.851067924872041" lon="13.412114521488547">
        <ele>648.07000700000003</ele>
        <time>2017-06-15T13:02:38Z</time>
      </trkpt>
      <trkpt lat="41.850937334820628" lon="13.412081161513925">
        <ele>649.03002900000001</ele>
        <time>2017-06-15T13:02:51Z</time>
      </trkpt>
      <trkpt lat="41.850926103070378" lon="13.412100775167346">
        <ele>649.03002900000001</ele>
        <time>2017-06-15T13:02:54Z</time>
      </trkpt>
      <trkpt lat="41.850843876600266" lon="13.412319123744965">
        <ele>649.03002900000001</ele>
        <time>2017-06-15T13:03:11Z</time>
      </trkpt>
      <trkpt lat="41.850839098915458" lon="13.412329433485866">
        <ele>649.03002900000001</ele>
        <time>2017-06-15T13:03:12Z</time>
      </trkpt>
      <trkpt lat="41.850804230198264" lon="13.412398416548967">
        <ele>649.03002900000001</ele>
        <time>2017-06-15T13:03:19Z</time>
      </trkpt>
      <trkpt lat="41.850744215771556" lon="13.412582231685519">
        <ele>648.55004899999994</ele>
        <time>2017-06-15T13:03:33Z</time>
      </trkpt>
      <trkpt lat="41.850735079497099" lon="13.41260427609086">
        <ele>648.55004899999994</ele>
        <time>2017-06-15T13:03:35Z</time>
      </trkpt>
      <trkpt lat="41.850692164152861" lon="13.412721622735262">
        <ele>648.55004899999994</ele>
        <time>2017-06-15T13:03:42Z</time>
      </trkpt>
      <trkpt lat="41.85068286024034" lon="13.412908622995019">
        <ele>648.55004899999994</ele>
        <time>2017-06-15T13:03:55Z</time>
      </trkpt>
      <trkpt lat="41.850667437538505" lon="13.413064777851105">
        <ele>648.55004899999994</ele>
        <time>2017-06-15T13:04:05Z</time>
      </trkpt>
      <trkpt lat="41.85071068815887" lon="13.413117164745927">
        <ele>647.09997599999997</ele>
        <time>2017-06-15T13:04:13Z</time>
      </trkpt>
      <trkpt lat="41.850856868550181" lon="13.41321213170886">
        <ele>644.70001200000002</ele>
        <time>2017-06-15T13:04:29Z</time>
      </trkpt>
      <trkpt lat="41.850965917110443" lon="13.41336065903306">
        <ele>643.73999000000003</ele>
        <time>2017-06-15T13:04:43Z</time>
      </trkpt>
      <trkpt lat="41.851040264591575" lon="13.413585126399994">
        <ele>643.26000999999997</ele>
        <time>2017-06-15T13:04:58Z</time>
      </trkpt>
      <trkpt lat="41.851079072803259" lon="13.41386441141367">
        <ele>642.29998799999998</ele>
        <time>2017-06-15T13:05:13Z</time>
      </trkpt>
      <trkpt lat="41.851137578487396" lon="13.414159538224339">
        <ele>642.29998799999998</ele>
        <time>2017-06-15T13:05:31Z</time>
      </trkpt>
      <trkpt lat="41.851183930411935" lon="13.414417533203959">
        <ele>641.82000700000003</ele>
        <time>2017-06-15T13:05:48Z</time>
      </trkpt>
      <trkpt lat="41.851237658411264" lon="13.41471316292882">
        <ele>641.82000700000003</ele>
        <time>2017-06-15T13:06:06Z</time>
      </trkpt>
      <trkpt lat="41.851284010335803" lon="13.415009714663029">
        <ele>641.339966</ele>
        <time>2017-06-15T13:06:23Z</time>
      </trkpt>
      <trkpt lat="41.851297421380877" lon="13.415103759616613">
        <ele>640.85998500000005</ele>
        <time>2017-06-15T13:06:29Z</time>
      </trkpt>
      <trkpt lat="41.851357184350491" lon="13.415363263338804">
        <ele>639.89001499999995</ele>
        <time>2017-06-15T13:06:46Z</time>
      </trkpt>
      <trkpt lat="41.851455168798566" lon="13.415577337145805">
        <ele>638.45001200000002</ele>
        <time>2017-06-15T13:07:02Z</time>
      </trkpt>
      <trkpt lat="41.85159363783896" lon="13.415873218327761">
        <ele>637.00994900000001</ele>
        <time>2017-06-15T13:07:21Z</time>
      </trkpt>
      <trkpt lat="41.851719534024596" lon="13.416117802262306">
        <ele>636.05004899999994</ele>
        <time>2017-06-15T13:07:39Z</time>
      </trkpt>
      <trkpt lat="41.851823385804892" lon="13.416379317641258">
        <ele>635.57000700000003</ele>
        <time>2017-06-15T13:07:58Z</time>
      </trkpt>
      <trkpt lat="41.851905696094036" lon="13.41664670035243">
        <ele>635.57000700000003</ele>
        <time>2017-06-15T13:08:13Z</time>
      </trkpt>
      <trkpt lat="41.851914413273335" lon="13.416676288470626">
        <ele>635.57000700000003</ele>
        <time>2017-06-15T13:08:15Z</time>
      </trkpt>
      <trkpt lat="41.85198750346899" lon="13.416948616504669">
        <ele>636.53002900000001</ele>
        <time>2017-06-15T13:08:33Z</time>
      </trkpt>
      <trkpt lat="41.852035615593195" lon="13.417125139385462">
        <ele>637.00994900000001</ele>
        <time>2017-06-15T13:08:46Z</time>
      </trkpt>
      <trkpt lat="41.852114824578166" lon="13.417407693341374">
        <ele>638.45001200000002</ele>
        <time>2017-06-15T13:09:04Z</time>
      </trkpt>
      <trkpt lat="41.852181879803538" lon="13.417668035253882">
        <ele>639.40997300000004</ele>
        <time>2017-06-15T13:09:20Z</time>
      </trkpt>
      <trkpt lat="41.852214569225907" lon="13.417901219800115">
        <ele>639.40997300000004</ele>
        <time>2017-06-15T13:09:37Z</time>
      </trkpt>
      <trkpt lat="41.8522132281214" lon="13.417903231456876">
        <ele>639.40997300000004</ele>
        <time>2017-06-15T13:09:39Z</time>
      </trkpt>
      <trkpt lat="41.852242983877659" lon="13.418143959715962">
        <ele>639.40997300000004</ele>
        <time>2017-06-15T13:09:55Z</time>
      </trkpt>
      <trkpt lat="41.852272320538759" lon="13.41824353672564">
        <ele>637.96997099999999</ele>
        <time>2017-06-15T13:10:01Z</time>
      </trkpt>
      <trkpt lat="41.85233736410737" lon="13.418453335762024">
        <ele>636.53002900000001</ele>
        <time>2017-06-15T13:10:17Z</time>
      </trkpt>
      <trkpt lat="41.852395534515381" lon="13.418678641319275">
        <ele>635.09002699999996</ele>
        <time>2017-06-15T13:10:33Z</time>
      </trkpt>
      <trkpt lat="41.852456470951438" lon="13.418930014595389">
        <ele>634.13000499999998</ele>
        <time>2017-06-15T13:10:50Z</time>
      </trkpt>
      <trkpt lat="41.852520424872637" lon="13.419174011796713">
        <ele>633.169983</ele>
        <time>2017-06-15T13:11:06Z</time>
      </trkpt>
      <trkpt lat="41.852590078487992" lon="13.419414907693863">
        <ele>631.72003199999995</ele>
        <time>2017-06-15T13:11:22Z</time>
      </trkpt>
      <trkpt lat="41.852648667991161" lon="13.419657563790679">
        <ele>629.79998799999998</ele>
        <time>2017-06-15T13:11:38Z</time>
      </trkpt>
      <trkpt lat="41.852681441232562" lon="13.419934920966625">
        <ele>626.92004399999996</ele>
        <time>2017-06-15T13:11:55Z</time>
      </trkpt>
      <trkpt lat="41.852713795378804" lon="13.420189395546913">
        <ele>625.46997099999999</ele>
        <time>2017-06-15T13:12:11Z</time>
      </trkpt>
      <trkpt lat="41.852750089019537" lon="13.420495167374611">
        <ele>624.03002900000001</ele>
        <time>2017-06-15T13:12:29Z</time>
      </trkpt>
      <trkpt lat="41.852852264419198" lon="13.420694908127189">
        <ele>623.54998799999998</ele>
        <time>2017-06-15T13:12:44Z</time>
      </trkpt>
      <trkpt lat="41.852914374321699" lon="13.420874197036028">
        <ele>622.10998500000005</ele>
        <time>2017-06-15T13:12:58Z</time>
      </trkpt>
      <trkpt lat="41.852959133684635" lon="13.420930691063404">
        <ele>621.14996299999996</ele>
        <time>2017-06-15T13:13:03Z</time>
      </trkpt>
      <trkpt lat="41.853099362924695" lon="13.421120624989271">
        <ele>619.22997999999995</ele>
        <time>2017-06-15T13:13:21Z</time>
      </trkpt>
      <trkpt lat="41.853247722610831" lon="13.421323299407959">
        <ele>618.26000999999997</ele>
        <time>2017-06-15T13:13:38Z</time>
      </trkpt>
      <trkpt lat="41.853389963507652" lon="13.421491105109453">
        <ele>617.29998799999998</ele>
        <time>2017-06-15T13:13:54Z</time>
      </trkpt>
      <trkpt lat="41.853512758389115" lon="13.421610295772552">
        <ele>616.34002699999996</ele>
        <time>2017-06-15T13:14:07Z</time>
      </trkpt>
      <trkpt lat="41.853644186630845" lon="13.421750022098422">
        <ele>616.34002699999996</ele>
        <time>2017-06-15T13:14:21Z</time>
      </trkpt>
      <trkpt lat="41.853783158585429" lon="13.421903159469366">
        <ele>615.85998500000005</ele>
        <time>2017-06-15T13:14:36Z</time>
      </trkpt>
      <trkpt lat="41.85391022823751" lon="13.422080604359508">
        <ele>614.419983</ele>
        <time>2017-06-15T13:14:51Z</time>
      </trkpt>
      <trkpt lat="41.854008212685585" lon="13.422275735065341">
        <ele>613.46002199999998</ele>
        <time>2017-06-15T13:15:05Z</time>
      </trkpt>
      <trkpt lat="41.85401969589293" lon="13.422538759186864">
        <ele>611.54003899999998</ele>
        <time>2017-06-15T13:15:22Z</time>
      </trkpt>
      <trkpt lat="41.854012403637171" lon="13.422740930691361">
        <ele>609.13000499999998</ele>
        <time>2017-06-15T13:15:36Z</time>
      </trkpt>
      <trkpt lat="41.854000333696604" lon="13.422819385305047">
        <ele>608.64996299999996</ele>
        <time>2017-06-15T13:15:41Z</time>
      </trkpt>
      <trkpt lat="41.854002764448524" lon="13.423069836571813">
        <ele>605.29003899999998</ele>
        <time>2017-06-15T13:15:58Z</time>
      </trkpt>
      <trkpt lat="41.854146430268884" lon="13.423117278143764">
        <ele>604.80999799999995</ele>
        <time>2017-06-15T13:16:13Z</time>
      </trkpt>
      <trkpt lat="41.854157662019134" lon="13.423124821856618">
        <ele>604.80999799999995</ele>
        <time>2017-06-15T13:16:14Z</time>
      </trkpt>
      <trkpt lat="41.854280792176723" lon="13.423201264813542">
        <ele>600.96002199999998</ele>
        <time>2017-06-15T13:16:26Z</time>
      </trkpt>
      <trkpt lat="41.854391684755683" lon="13.423257758840919">
        <ele>598.080017</ele>
        <time>2017-06-15T13:16:36Z</time>
      </trkpt>
      <trkpt lat="41.854450860992074" lon="13.423299333080649">
        <ele>597.11999500000002</ele>
        <time>2017-06-15T13:16:43Z</time>
      </trkpt>
      <trkpt lat="41.854665940627456" lon="13.423296734690666">
        <ele>594.71002199999998</ele>
        <time>2017-06-15T13:17:01Z</time>
      </trkpt>
      <trkpt lat="41.854738360270858" lon="13.423266559839249">
        <ele>593.75</ele>
        <time>2017-06-15T13:17:08Z</time>
      </trkpt>
      <trkpt lat="41.854903064668179" lon="13.423235965892673">
        <ele>592.79003899999998</ele>
        <time>2017-06-15T13:17:21Z</time>
      </trkpt>
      <trkpt lat="41.854962408542633" lon="13.423297237604856">
        <ele>592.30999799999995</ele>
        <time>2017-06-15T13:17:35Z</time>
      </trkpt>
      <trkpt lat="41.854967437684536" lon="13.42329396866262">
        <ele>592.30999799999995</ele>
        <time>2017-06-15T13:17:37Z</time>
      </trkpt>
      <trkpt lat="41.855012197047472" lon="13.423288268968463">
        <ele>592.30999799999995</ele>
        <time>2017-06-15T13:17:41Z</time>
      </trkpt>
      <trkpt lat="41.855172459036112" lon="13.42325733974576">
        <ele>590.86999500000002</ele>
        <time>2017-06-15T13:17:56Z</time>
      </trkpt>
      <trkpt lat="41.855372367426753" lon="13.423243425786495">
        <ele>590.39001499999995</ele>
        <time>2017-06-15T13:18:12Z</time>
      </trkpt>
      <trkpt lat="41.85556716285646" lon="13.423227583989501">
        <ele>589.42999299999997</ele>
        <time>2017-06-15T13:18:27Z</time>
      </trkpt>
      <trkpt lat="41.855784589424729" lon="13.423116272315383">
        <ele>588.46002199999998</ele>
        <time>2017-06-15T13:18:46Z</time>
      </trkpt>
      <trkpt lat="41.855906127020717" lon="13.423013174906373">
        <ele>588.95001200000002</ele>
        <time>2017-06-15T13:18:59Z</time>
      </trkpt>
      <trkpt lat="41.855931859463453" lon="13.423006720840931">
        <ele>588.95001200000002</ele>
        <time>2017-06-15T13:19:01Z</time>
      </trkpt>
      <trkpt lat="41.855974607169628" lon="13.422925919294357">
        <ele>588.95001200000002</ele>
        <time>2017-06-15T13:19:06Z</time>
      </trkpt>
      <trkpt lat="41.856033029034734" lon="13.422840591520071">
        <ele>588.46002199999998</ele>
        <time>2017-06-15T13:19:12Z</time>
      </trkpt>
      <trkpt lat="41.856119111180305" lon="13.42277848161757">
        <ele>587.5</ele>
        <time>2017-06-15T13:19:21Z</time>
      </trkpt>
      <trkpt lat="41.856267135590315" lon="13.422733470797539">
        <ele>587.5</ele>
        <time>2017-06-15T13:19:34Z</time>
      </trkpt>
      <trkpt lat="41.856423038989305" lon="13.422992471605539">
        <ele>587.01995799999997</ele>
        <time>2017-06-15T13:19:51Z</time>
      </trkpt>
      <trkpt lat="41.85643351636827" lon="13.423019628971815">
        <ele>587.01995799999997</ele>
        <time>2017-06-15T13:19:53Z</time>
      </trkpt>
      <trkpt lat="41.856509875506163" lon="13.423289777711034">
        <ele>587.01995799999997</ele>
        <time>2017-06-15T13:20:10Z</time>
      </trkpt>
      <trkpt lat="41.856631832197309" lon="13.423493038862944">
        <ele>587.97997999999995</ele>
        <time>2017-06-15T13:20:26Z</time>
      </trkpt>
      <trkpt lat="41.856783628463745" lon="13.423578701913357">
        <ele>587.97997999999995</ele>
        <time>2017-06-15T13:20:42Z</time>
      </trkpt>
      <trkpt lat="41.856834422796965" lon="13.423605272546411">
        <ele>586.54003899999998</ele>
        <time>2017-06-15T13:20:46Z</time>
      </trkpt>
      <trkpt lat="41.856858059763908" lon="13.423604685813189">
        <ele>586.54003899999998</ele>
        <time>2017-06-15T13:20:48Z</time>
      </trkpt>
      <trkpt lat="41.856914218515158" lon="13.423596220090985">
        <ele>586.05999799999995</ele>
        <time>2017-06-15T13:20:55Z</time>
      </trkpt>
      <trkpt lat="41.857116892933846" lon="13.423737203702331">
        <ele>585.09997599999997</ele>
        <time>2017-06-15T13:21:13Z</time>
      </trkpt>
      <trkpt lat="41.857287380844355" lon="13.423852119594812">
        <ele>584.14001499999995</ele>
        <time>2017-06-15T13:21:27Z</time>
      </trkpt>
      <trkpt lat="41.857299031689763" lon="13.423859914764762">
        <ele>583.65997300000004</ele>
        <time>2017-06-15T13:21:29Z</time>
      </trkpt>
      <trkpt lat="41.857460383325815" lon="13.423999808728695">
        <ele>582.70001200000002</ele>
        <time>2017-06-15T13:21:45Z</time>
      </trkpt>
      <trkpt lat="41.857580076903105" lon="13.424215139821172">
        <ele>581.25</ele>
        <time>2017-06-15T13:22:01Z</time>
      </trkpt>
      <trkpt lat="41.857679234817624" lon="13.424439691007137">
        <ele>580.29003899999998</ele>
        <time>2017-06-15T13:22:17Z</time>
      </trkpt>
      <trkpt lat="41.857758527621627" lon="13.424684861674905">
        <ele>579.330017</ele>
        <time>2017-06-15T13:22:34Z</time>
      </trkpt>
      <trkpt lat="41.857861541211605" lon="13.424867922440171">
        <ele>578.84997599999997</ele>
        <time>2017-06-15T13:22:49Z</time>
      </trkpt>
      <trkpt lat="41.85802792198956" lon="13.425044612959027">
        <ele>577.89001499999995</ele>
        <time>2017-06-15T13:23:07Z</time>
      </trkpt>
      <trkpt lat="41.858199080452323" lon="13.425138741731644">
        <ele>577.40997300000004</ele>
        <time>2017-06-15T13:23:22Z</time>
      </trkpt>
      <trkpt lat="41.858349200338125" lon="13.425202695652843">
        <ele>576.45001200000002</ele>
        <time>2017-06-15T13:23:35Z</time>
      </trkpt>
      <trkpt lat="41.858533686026931" lon="13.425271008163691">
        <ele>575.48999000000003</ele>
        <time>2017-06-15T13:23:50Z</time>
      </trkpt>
      <trkpt lat="41.858677938580513" lon="13.425455493852496">
        <ele>574.52996800000005</ele>
        <time>2017-06-15T13:24:06Z</time>
      </trkpt>
      <trkpt lat="41.858722697943449" lon="13.425560686737299">
        <ele>574.04003899999998</ele>
        <time>2017-06-15T13:24:14Z</time>
      </trkpt>
      <trkpt lat="41.85871247202158" lon="13.425666717812419">
        <ele>574.04003899999998</ele>
        <time>2017-06-15T13:24:19Z</time>
      </trkpt>
      <trkpt lat="41.858622869476676" lon="13.42593845911324">
        <ele>574.04003899999998</ele>
        <time>2017-06-15T13:24:36Z</time>
      </trkpt>
      <trkpt lat="41.858517928048968" lon="13.426185892894864">
        <ele>574.04003899999998</ele>
        <time>2017-06-15T13:24:53Z</time>
      </trkpt>
      <trkpt lat="41.858425894752145" lon="13.426415640860796">
        <ele>575.01000999999997</ele>
        <time>2017-06-15T13:25:09Z</time>
      </trkpt>
      <trkpt lat="41.858353391289711" lon="13.426666259765625">
        <ele>575.97003199999995</ele>
        <time>2017-06-15T13:25:25Z</time>
      </trkpt>
      <trkpt lat="41.858302261680365" lon="13.426900701597333">
        <ele>576.92999299999997</ele>
        <time>2017-06-15T13:25:41Z</time>
      </trkpt>
      <trkpt lat="41.858204863965511" lon="13.42714729718864">
        <ele>578.36999500000002</ele>
        <time>2017-06-15T13:25:57Z</time>
      </trkpt>
      <trkpt lat="41.858197906985879" lon="13.427319377660751">
        <ele>578.84997599999997</ele>
        <time>2017-06-15T13:26:10Z</time>
      </trkpt>
      <trkpt lat="41.858287677168846" lon="13.427476035431027">
        <ele>579.80999799999995</ele>
        <time>2017-06-15T13:26:24Z</time>
      </trkpt>
      <trkpt lat="41.858367305248976" lon="13.427636213600636">
        <ele>579.80999799999995</ele>
        <time>2017-06-15T13:26:38Z</time>
      </trkpt>
      <trkpt lat="41.858387840911746" lon="13.427670830860734">
        <ele>579.80999799999995</ele>
        <time>2017-06-15T13:26:51Z</time>
      </trkpt>
      <trkpt lat="41.858348865061998" lon="13.427814161404967">
        <ele>587.97997999999995</ele>
        <time>2017-06-16T05:56:43Z</time>
      </trkpt>
      <trkpt lat="41.858349535614252" lon="13.427815670147538">
        <ele>587.97997999999995</ele>
        <time>2017-06-16T05:56:44Z</time>
      </trkpt>
      <trkpt lat="41.858361437916756" lon="13.427820364013314">
        <ele>589.90997300000004</ele>
        <time>2017-06-16T05:57:10Z</time>
      </trkpt>
      <trkpt lat="41.858364958316088" lon="13.427823968231678">
        <ele>587.5</ele>
        <time>2017-06-16T05:57:14Z</time>
      </trkpt>
      <trkpt lat="41.858374094590545" lon="13.427764037624002">
        <ele>587.5</ele>
        <time>2017-06-16T05:57:24Z</time>
      </trkpt>
      <trkpt lat="41.858431007713079" lon="13.427670663222671">
        <ele>587.5</ele>
        <time>2017-06-16T05:57:47Z</time>
      </trkpt>
      <trkpt lat="41.858410639688373" lon="13.427670076489449">
        <ele>587.5</ele>
        <time>2017-06-16T05:57:50Z</time>
      </trkpt>
      <trkpt lat="41.858303099870682" lon="13.42758608981967">
        <ele>587.5</ele>
        <time>2017-06-16T05:57:58Z</time>
      </trkpt>
      <trkpt lat="41.858301591128111" lon="13.42747813090682">
        <ele>587.5</ele>
        <time>2017-06-16T05:58:05Z</time>
      </trkpt>
      <trkpt lat="41.858287090435624" lon="13.427433287724853">
        <ele>587.5</ele>
        <time>2017-06-16T05:58:09Z</time>
      </trkpt>
      <trkpt lat="41.858228417113423" lon="13.427474275231361">
        <ele>587.01995799999997</ele>
        <time>2017-06-16T05:58:16Z</time>
      </trkpt>
      <trkpt lat="41.858226908370852" lon="13.427590196952224">
        <ele>586.54003899999998</ele>
        <time>2017-06-16T05:58:23Z</time>
      </trkpt>
      <trkpt lat="41.858371160924435" lon="13.427854562178254">
        <ele>585.09997599999997</ele>
        <time>2017-06-16T05:58:41Z</time>
      </trkpt>
      <trkpt lat="41.858454309403896" lon="13.428009375929832">
        <ele>582.70001200000002</ele>
        <time>2017-06-16T05:58:54Z</time>
      </trkpt>
      <trkpt lat="41.858475599437952" lon="13.428026139736176">
        <ele>582.70001200000002</ele>
        <time>2017-06-16T05:58:57Z</time>
      </trkpt>
      <trkpt lat="41.858504265546799" lon="13.42803611420095">
        <ele>582.22003199999995</ele>
        <time>2017-06-16T05:58:59Z</time>
      </trkpt>
      <trkpt lat="41.858520861715078" lon="13.428047513589263">
        <ele>581.72997999999995</ele>
        <time>2017-06-16T05:59:00Z</time>
      </trkpt>
      <trkpt lat="41.858529997989535" lon="13.428058158606291">
        <ele>581.72997999999995</ele>
        <time>2017-06-16T05:59:01Z</time>
      </trkpt>
      <trkpt lat="41.858540140092373" lon="13.428071234375238">
        <ele>581.72997999999995</ele>
        <time>2017-06-16T05:59:02Z</time>
      </trkpt>
      <trkpt lat="41.858547599986196" lon="13.428084813058376">
        <ele>581.72997999999995</ele>
        <time>2017-06-16T05:59:03Z</time>
      </trkpt>
      <trkpt lat="41.858639130368829" lon="13.428200734779239">
        <ele>579.80999799999995</ele>
        <time>2017-06-16T05:59:13Z</time>
      </trkpt>
      <trkpt lat="41.858648182824254" lon="13.428213810548186">
        <ele>579.330017</ele>
        <time>2017-06-16T05:59:14Z</time>
      </trkpt>
      <trkpt lat="41.858766283839941" lon="13.428395194932818">
        <ele>576.92999299999997</ele>
        <time>2017-06-16T05:59:30Z</time>
      </trkpt>
      <trkpt lat="41.858851024881005" lon="13.428512122482061">
        <ele>575.97003199999995</ele>
        <time>2017-06-16T05:59:46Z</time>
      </trkpt>
      <trkpt lat="41.858961163088679" lon="13.428658973425627">
        <ele>574.52996800000005</ele>
        <time>2017-06-16T05:59:59Z</time>
      </trkpt>
      <trkpt lat="41.858966527506709" lon="13.428681939840317">
        <ele>574.04003899999998</ele>
        <time>2017-06-16T06:00:00Z</time>
      </trkpt>
      <trkpt lat="41.858969461172819" lon="13.428709264844656">
        <ele>574.04003899999998</ele>
        <time>2017-06-16T06:00:01Z</time>
      </trkpt>
      <trkpt lat="41.858973735943437" lon="13.428728794679046">
        <ele>574.04003899999998</ele>
        <time>2017-06-16T06:00:02Z</time>
      </trkpt>
      <trkpt lat="41.858982536941767" lon="13.428752096369863">
        <ele>574.04003899999998</ele>
        <time>2017-06-16T06:00:03Z</time>
      </trkpt>
      <trkpt lat="41.858992679044604" lon="13.428769027814269">
        <ele>573.55999799999995</ele>
        <time>2017-06-16T06:00:04Z</time>
      </trkpt>
      <trkpt lat="41.859168699011207" lon="13.428932139649987">
        <ele>571.64001499999995</ele>
        <time>2017-06-16T06:00:20Z</time>
      </trkpt>
      <trkpt lat="41.859311778098345" lon="13.429042277857661">
        <ele>570.20001200000002</ele>
        <time>2017-06-16T06:00:35Z</time>
      </trkpt>
      <trkpt lat="41.859532222151756" lon="13.429197678342462">
        <ele>568.76000999999997</ele>
        <time>2017-06-16T06:00:51Z</time>
      </trkpt>
      <trkpt lat="41.859693825244904" lon="13.429299602285028">
        <ele>567.32000700000003</ele>
        <time>2017-06-16T06:01:07Z</time>
      </trkpt>
      <trkpt lat="41.85988468118012" lon="13.429511077702045">
        <ele>565.39001499999995</ele>
        <time>2017-06-16T06:01:23Z</time>
      </trkpt>
      <trkpt lat="41.859989119693637" lon="13.42971358448267">
        <ele>563.47003199999995</ele>
        <time>2017-06-16T06:01:39Z</time>
      </trkpt>
      <trkpt lat="41.860073106363416" lon="13.430034192278981">
        <ele>561.54998799999998</ele>
        <time>2017-06-16T06:01:55Z</time>
      </trkpt>
      <trkpt lat="41.860150638967752" lon="13.430325463414192">
        <ele>560.10998500000005</ele>
        <time>2017-06-16T06:02:12Z</time>
      </trkpt>
      <trkpt lat="41.860267482697964" lon="13.430599635466933">
        <ele>557.70001200000002</ele>
        <time>2017-06-16T06:02:28Z</time>
      </trkpt>
      <trkpt lat="41.860321210697293" lon="13.430666858330369">
        <ele>556.73999000000003</ele>
        <time>2017-06-16T06:02:33Z</time>
      </trkpt>
      <trkpt lat="41.860323138535023" lon="13.430674066767097">
        <ele>556.73999000000003</ele>
        <time>2017-06-16T06:02:34Z</time>
      </trkpt>
      <trkpt lat="41.860328419134021" lon="13.430681191384792">
        <ele>556.73999000000003</ele>
        <time>2017-06-16T06:02:35Z</time>
      </trkpt>
      <trkpt lat="41.860334035009146" lon="13.430689070373774">
        <ele>556.26000999999997</ele>
        <time>2017-06-16T06:02:36Z</time>
      </trkpt>
      <trkpt lat="41.860336968675256" lon="13.430697787553072">
        <ele>556.26000999999997</ele>
        <time>2017-06-16T06:02:37Z</time>
      </trkpt>
      <trkpt lat="41.86040704138577" lon="13.430827287957072">
        <ele>555.29998799999998</ele>
        <time>2017-06-16T06:02:49Z</time>
      </trkpt>
      <trkpt lat="41.860413076356053" lon="13.430840196087956">
        <ele>555.29998799999998</ele>
        <time>2017-06-16T06:02:50Z</time>
      </trkpt>
      <trkpt lat="41.860420284792781" lon="13.430853607133031">
        <ele>554.82000700000003</ele>
        <time>2017-06-16T06:02:51Z</time>
      </trkpt>
      <trkpt lat="41.860428582876921" lon="13.430864084511995">
        <ele>554.82000700000003</ele>
        <time>2017-06-16T06:02:52Z</time>
      </trkpt>
      <trkpt lat="41.860554981976748" lon="13.430987214669585">
        <ele>553.38000499999998</ele>
        <time>2017-06-16T06:03:06Z</time>
      </trkpt>
      <trkpt lat="41.860752794891596" lon="13.43119609169662">
        <ele>551.92999299999997</ele>
        <time>2017-06-16T06:03:23Z</time>
      </trkpt>
      <trkpt lat="41.86079453676939" lon="13.431539162993431">
        <ele>550.48999000000003</ele>
        <time>2017-06-16T06:03:41Z</time>
      </trkpt>
      <trkpt lat="41.860861591994762" lon="13.431812664493918">
        <ele>549.04998799999998</ele>
        <time>2017-06-16T06:03:56Z</time>
      </trkpt>
      <trkpt lat="41.860972819849849" lon="13.432060768827796">
        <ele>547.13000499999998</ele>
        <time>2017-06-16T06:04:14Z</time>
      </trkpt>
      <trkpt lat="41.86108916066587" lon="13.432287164032459">
        <ele>545.20001200000002</ele>
        <time>2017-06-16T06:04:30Z</time>
      </trkpt>
      <trkpt lat="41.861131070181727" lon="13.432421777397394">
        <ele>543.76000999999997</ele>
        <time>2017-06-16T06:04:41Z</time>
      </trkpt>
      <trkpt lat="41.861226037144661" lon="13.432650016620755">
        <ele>541.84002699999996</ele>
        <time>2017-06-16T06:04:55Z</time>
      </trkpt>
      <trkpt lat="41.861323183402419" lon="13.432868365198374">
        <ele>538.96002199999998</ele>
        <time>2017-06-16T06:05:12Z</time>
      </trkpt>
      <trkpt lat="41.861290074884892" lon="13.43318872153759">
        <ele>536.54998799999998</ele>
        <time>2017-06-16T06:05:28Z</time>
      </trkpt>
      <trkpt lat="41.861221510916948" lon="13.433479825034738">
        <ele>534.63000499999998</ele>
        <time>2017-06-16T06:05:43Z</time>
      </trkpt>
      <trkpt lat="41.861193096265197" lon="13.433731198310852">
        <ele>532.22997999999995</ele>
        <time>2017-06-16T06:06:00Z</time>
      </trkpt>
      <trkpt lat="41.861188067123294" lon="13.43409757129848">
        <ele>529.82000700000003</ele>
        <time>2017-06-16T06:06:19Z</time>
      </trkpt>
      <trkpt lat="41.861192174255848" lon="13.434129171073437">
        <ele>529.34002699999996</ele>
        <time>2017-06-16T06:06:21Z</time>
      </trkpt>
      <trkpt lat="41.861191419884562" lon="13.43414593487978">
        <ele>529.34002699999996</ele>
        <time>2017-06-16T06:06:22Z</time>
      </trkpt>
      <trkpt lat="41.861198209226131" lon="13.434186838567257">
        <ele>529.34002699999996</ele>
        <time>2017-06-16T06:06:27Z</time>
      </trkpt>
      <trkpt lat="41.861203322187066" lon="13.434200836345553">
        <ele>528.85998500000005</ele>
        <time>2017-06-16T06:06:28Z</time>
      </trkpt>
      <trkpt lat="41.861312203109264" lon="13.434461764991283">
        <ele>528.38000499999998</ele>
        <time>2017-06-16T06:06:44Z</time>
      </trkpt>
      <trkpt lat="41.861384538933635" lon="13.434668462723494">
        <ele>526.46002199999998</ele>
        <time>2017-06-16T06:07:00Z</time>
      </trkpt>
      <trkpt lat="41.861375821754336" lon="13.434958895668387">
        <ele>525.02002000000005</ele>
        <time>2017-06-16T06:07:14Z</time>
      </trkpt>
      <trkpt lat="41.861334163695574" lon="13.435273636132479">
        <ele>524.05999799999995</ele>
        <time>2017-06-16T06:07:30Z</time>
      </trkpt>
      <trkpt lat="41.861377833411098" lon="13.435528362169862">
        <ele>523.09002699999996</ele>
        <time>2017-06-16T06:07:47Z</time>
      </trkpt>
      <trkpt lat="41.861446062102914" lon="13.435899009928107">
        <ele>521.169983</ele>
        <time>2017-06-16T06:08:06Z</time>
      </trkpt>
      <trkpt lat="41.861485624685884" lon="13.436193633824587">
        <ele>519.72997999999995</ele>
        <time>2017-06-16T06:08:21Z</time>
      </trkpt>
      <trkpt lat="41.861521163955331" lon="13.436402007937431">
        <ele>518.77002000000005</ele>
        <time>2017-06-16T06:08:35Z</time>
      </trkpt>
      <trkpt lat="41.86158075928688" lon="13.436702415347099">
        <ele>517.32995600000004</ele>
        <time>2017-06-16T06:08:52Z</time>
      </trkpt>
      <trkpt lat="41.861622836440802" lon="13.436957309022546">
        <ele>515.39996299999996</ele>
        <time>2017-06-16T06:09:08Z</time>
      </trkpt>
      <trkpt lat="41.861755941063166" lon="13.437194684520364">
        <ele>513.47997999999995</ele>
        <time>2017-06-16T06:09:24Z</time>
      </trkpt>
      <trkpt lat="41.861838838085532" lon="13.437397107481956">
        <ele>511.55999800000001</ele>
        <time>2017-06-16T06:09:38Z</time>
      </trkpt>
      <trkpt lat="41.861946294084191" lon="13.437637919560075">
        <ele>510.60000600000001</ele>
        <time>2017-06-16T06:09:53Z</time>
      </trkpt>
      <trkpt lat="41.862071771174669" lon="13.437771108001471">
        <ele>510.11999500000002</ele>
        <time>2017-06-16T06:10:06Z</time>
      </trkpt>
      <trkpt lat="41.86214511282742" lon="13.437799019739032">
        <ele>510.11999500000002</ele>
        <time>2017-06-16T06:10:14Z</time>
      </trkpt>
      <trkpt lat="41.862126002088189" lon="13.437892394140363">
        <ele>510.11999500000002</ele>
        <time>2017-06-16T06:10:29Z</time>
      </trkpt>
      <trkpt lat="41.862141508609056" lon="13.43790739774704">
        <ele>509.63998400000003</ele>
        <time>2017-06-16T06:10:58Z</time>
      </trkpt>
      <trkpt lat="41.862162463366985" lon="13.437882168218493">
        <ele>509.63998400000003</ele>
        <time>2017-06-16T06:11:14Z</time>
      </trkpt>
      <trkpt lat="41.862172521650791" lon="13.437887029722333">
        <ele>509.63998400000003</ele>
        <time>2017-06-16T06:11:29Z</time>
      </trkpt>
      <trkpt lat="41.862158440053463" lon="13.437912510707974">
        <ele>509.63998400000003</ele>
        <time>2017-06-16T06:11:59Z</time>
      </trkpt>
      <trkpt lat="41.862144526094198" lon="13.437909660860896">
        <ele>509.16000400000001</ele>
        <time>2017-06-16T06:12:30Z</time>
      </trkpt>
      <trkpt lat="41.862170593813062" lon="13.437885101884604">
        <ele>509.16000400000001</ele>
        <time>2017-06-16T06:12:44Z</time>
      </trkpt>
      <trkpt lat="41.862184340134263" lon="13.437880240380764">
        <ele>509.16000400000001</ele>
        <time>2017-06-16T06:12:45Z</time>
      </trkpt>
      <trkpt lat="41.862200181931257" lon="13.437880324199796">
        <ele>509.16000400000001</ele>
        <time>2017-06-16T06:12:46Z</time>
      </trkpt>
      <trkpt lat="41.862395564094186" lon="13.437978392466903">
        <ele>509.16000400000001</ele>
        <time>2017-06-16T06:13:01Z</time>
      </trkpt>
      <trkpt lat="41.86247200705111" lon="13.438219372183084">
        <ele>509.16000400000001</ele>
        <time>2017-06-16T06:13:17Z</time>
      </trkpt>
      <trkpt lat="41.862471336498857" lon="13.438364630565047">
        <ele>508.67001299999998</ele>
        <time>2017-06-16T06:13:27Z</time>
      </trkpt>
      <trkpt lat="41.862468738108873" lon="13.438381562009454">
        <ele>508.67001299999998</ele>
        <time>2017-06-16T06:13:28Z</time>
      </trkpt>
      <trkpt lat="41.862466558814049" lon="13.43840142711997">
        <ele>508.67001299999998</ele>
        <time>2017-06-16T06:13:29Z</time>
      </trkpt>
      <trkpt lat="41.862471923232079" lon="13.438769308850169">
        <ele>507.709991</ele>
        <time>2017-06-16T06:13:47Z</time>
      </trkpt>
      <trkpt lat="41.862459937110543" lon="13.438994362950325">
        <ele>507.22998000000001</ele>
        <time>2017-06-16T06:14:00Z</time>
      </trkpt>
      <trkpt lat="41.86245390214026" lon="13.439007187262177">
        <ele>507.22998000000001</ele>
        <time>2017-06-16T06:14:01Z</time>
      </trkpt>
      <trkpt lat="41.862449962645769" lon="13.439022358506918">
        <ele>507.22998000000001</ele>
        <time>2017-06-16T06:14:02Z</time>
      </trkpt>
      <trkpt lat="41.862398665398359" lon="13.439341960474849">
        <ele>506.27001999999999</ele>
        <time>2017-06-16T06:14:19Z</time>
      </trkpt>
      <trkpt lat="41.862322641536593" lon="13.439588136970997">
        <ele>505.790009</ele>
        <time>2017-06-16T06:14:37Z</time>
      </trkpt>
      <trkpt lat="41.862246533855796" lon="13.439851580187678">
        <ele>504.82998700000002</ele>
        <time>2017-06-16T06:14:53Z</time>
      </trkpt>
      <trkpt lat="41.862269164994359" lon="13.439964819699526">
        <ele>504.35000600000001</ele>
        <time>2017-06-16T06:15:01Z</time>
      </trkpt>
      <trkpt lat="41.862274361774325" lon="13.439984517171979">
        <ele>504.35000600000001</ele>
        <time>2017-06-16T06:15:02Z</time>
      </trkpt>
      <trkpt lat="41.862291041761637" lon="13.440035814419389">
        <ele>504.35000600000001</ele>
        <time>2017-06-16T06:15:05Z</time>
      </trkpt>
      <trkpt lat="41.862492961809039" lon="13.440299760550261">
        <ele>503.86999500000002</ele>
        <time>2017-06-16T06:15:22Z</time>
      </trkpt>
      <trkpt lat="41.862644338980317" lon="13.440475361421704">
        <ele>503.38998400000003</ele>
        <time>2017-06-16T06:15:38Z</time>
      </trkpt>
      <trkpt lat="41.862844666466117" lon="13.44070041552186">
        <ele>502.91000400000001</ele>
        <time>2017-06-16T06:15:54Z</time>
      </trkpt>
      <trkpt lat="41.862935861572623" lon="13.440837124362588">
        <ele>502.42999300000002</ele>
        <time>2017-06-16T06:16:05Z</time>
      </trkpt>
      <trkpt lat="41.863078437745571" lon="13.440966624766588">
        <ele>501.95001200000002</ele>
        <time>2017-06-16T06:16:17Z</time>
      </trkpt>
      <trkpt lat="41.86322352848947" lon="13.44127943739295">
        <ele>500.02001999999999</ele>
        <time>2017-06-16T06:16:35Z</time>
      </trkpt>
      <trkpt lat="41.863268371671438" lon="13.44132293947041">
        <ele>499.540009</ele>
        <time>2017-06-16T06:16:41Z</time>
      </trkpt>
      <trkpt lat="41.863407595083117" lon="13.441514298319817">
        <ele>498.10000600000001</ele>
        <time>2017-06-16T06:16:57Z</time>
      </trkpt>
      <trkpt lat="41.863536173477769" lon="13.441691575571895">
        <ele>497.13998400000003</ele>
        <time>2017-06-16T06:17:11Z</time>
      </trkpt>
      <trkpt lat="41.863665841519833" lon="13.441876815631986">
        <ele>496.17999300000002</ele>
        <time>2017-06-16T06:17:26Z</time>
      </trkpt>
      <trkpt lat="41.863782769069076" lon="13.442118465900421">
        <ele>495.70001200000002</ele>
        <time>2017-06-16T06:17:44Z</time>
      </trkpt>
      <trkpt lat="41.86393590644002" lon="13.442336563020945">
        <ele>495.70001200000002</ele>
        <time>2017-06-16T06:18:03Z</time>
      </trkpt>
      <trkpt lat="41.863998686894774" lon="13.442429937422276">
        <ele>494.25997899999999</ele>
        <time>2017-06-16T06:18:10Z</time>
      </trkpt>
      <trkpt lat="41.864081500098109" lon="13.442757334560156">
        <ele>492.80999800000001</ele>
        <time>2017-06-16T06:18:27Z</time>
      </trkpt>
      <trkpt lat="41.864120559766889" lon="13.442956740036607">
        <ele>491.85000600000001</ele>
        <time>2017-06-16T06:18:41Z</time>
      </trkpt>
      <trkpt lat="41.86414796859026" lon="13.443094538524747">
        <ele>491.85000600000001</ele>
        <time>2017-06-16T06:18:49Z</time>
      </trkpt>
      <trkpt lat="41.864145789295435" lon="13.44311180524528">
        <ele>491.85000600000001</ele>
        <time>2017-06-16T06:18:50Z</time>
      </trkpt>
      <trkpt lat="41.864144029095769" lon="13.443127730861306">
        <ele>491.85000600000001</ele>
        <time>2017-06-16T06:18:51Z</time>
      </trkpt>
      <trkpt lat="41.864146459847689" lon="13.443144913762808">
        <ele>491.85000600000001</ele>
        <time>2017-06-16T06:18:52Z</time>
      </trkpt>
      <trkpt lat="41.86414947733283" lon="13.443162934854627">
        <ele>491.36999500000002</ele>
        <time>2017-06-16T06:18:53Z</time>
      </trkpt>
      <trkpt lat="41.864149728789926" lon="13.44318363815546">
        <ele>491.36999500000002</ele>
        <time>2017-06-16T06:18:54Z</time>
      </trkpt>
      <trkpt lat="41.864145370200276" lon="13.443201240152121">
        <ele>491.36999500000002</ele>
        <time>2017-06-16T06:18:55Z</time>
      </trkpt>
      <trkpt lat="41.864111004397273" lon="13.443354880437255">
        <ele>490.41000400000001</ele>
        <time>2017-06-16T06:19:06Z</time>
      </trkpt>
      <trkpt lat="41.864024922251701" lon="13.443573396652937">
        <ele>489.45001200000002</ele>
        <time>2017-06-16T06:19:20Z</time>
      </trkpt>
      <trkpt lat="41.86401997692883" lon="13.443592423573136">
        <ele>489.45001200000002</ele>
        <time>2017-06-16T06:19:21Z</time>
      </trkpt>
      <trkpt lat="41.864013858139515" lon="13.44361069612205">
        <ele>488.97000100000002</ele>
        <time>2017-06-16T06:19:22Z</time>
      </trkpt>
      <trkpt lat="41.864006062969565" lon="13.443625615909696">
        <ele>488.97000100000002</ele>
        <time>2017-06-16T06:19:23Z</time>
      </trkpt>
      <trkpt lat="41.863998519256711" lon="13.443642798811197">
        <ele>488.97000100000002</ele>
        <time>2017-06-16T06:19:24Z</time>
      </trkpt>
      <trkpt lat="41.863994495943189" lon="13.443655874580145">
        <ele>488.97000100000002</ele>
        <time>2017-06-16T06:19:25Z</time>
      </trkpt>
      <trkpt lat="41.863990975543857" lon="13.443671213462949">
        <ele>488.48998999999998</ele>
        <time>2017-06-16T06:19:26Z</time>
      </trkpt>
      <trkpt lat="41.863986281678081" lon="13.443887382745743">
        <ele>487.53002900000001</ele>
        <time>2017-06-16T06:19:41Z</time>
      </trkpt>
      <trkpt lat="41.863973876461387" lon="13.444030126556754">
        <ele>486.55999800000001</ele>
        <time>2017-06-16T06:19:49Z</time>
      </trkpt>
      <trkpt lat="41.863975217565894" lon="13.444047141820192">
        <ele>486.55999800000001</ele>
        <time>2017-06-16T06:19:50Z</time>
      </trkpt>
      <trkpt lat="41.863969434052706" lon="13.444208158180118">
        <ele>485.11999500000002</ele>
        <time>2017-06-16T06:20:02Z</time>
      </trkpt>
      <trkpt lat="41.86396180652082" lon="13.444244200363755">
        <ele>485.11999500000002</ele>
        <time>2017-06-16T06:20:04Z</time>
      </trkpt>
      <trkpt lat="41.863946802914143" lon="13.444331372156739">
        <ele>485.11999500000002</ele>
        <time>2017-06-16T06:20:09Z</time>
      </trkpt>
      <trkpt lat="41.863943533971906" lon="13.444349896162748">
        <ele>485.11999500000002</ele>
        <time>2017-06-16T06:20:10Z</time>
      </trkpt>
      <trkpt lat="41.863938337191939" lon="13.444370264187455">
        <ele>485.11999500000002</ele>
        <time>2017-06-16T06:20:11Z</time>
      </trkpt>
      <trkpt lat="41.863934397697449" lon="13.444389291107655">
        <ele>484.64001500000001</ele>
        <time>2017-06-16T06:20:12Z</time>
      </trkpt>
      <trkpt lat="41.863889889791608" lon="13.4446822386235">
        <ele>483.20001200000002</ele>
        <time>2017-06-16T06:20:28Z</time>
      </trkpt>
      <trkpt lat="41.863885698840022" lon="13.444885164499283">
        <ele>482.23998999999998</ele>
        <time>2017-06-16T06:20:42Z</time>
      </trkpt>
      <trkpt lat="41.863861978054047" lon="13.444964960217476">
        <ele>481.75997899999999</ele>
        <time>2017-06-16T06:20:52Z</time>
      </trkpt>
      <trkpt lat="41.863860636949539" lon="13.444984741508961">
        <ele>481.75997899999999</ele>
        <time>2017-06-16T06:20:53Z</time>
      </trkpt>
      <trkpt lat="41.863858792930841" lon="13.445003936067224">
        <ele>481.75997899999999</ele>
        <time>2017-06-16T06:20:54Z</time>
      </trkpt>
      <trkpt lat="41.863855691626668" lon="13.445024387910962">
        <ele>481.75997899999999</ele>
        <time>2017-06-16T06:20:55Z</time>
      </trkpt>
      <trkpt lat="41.863851081579924" lon="13.44504333101213">
        <ele>481.75997899999999</ele>
        <time>2017-06-16T06:20:56Z</time>
      </trkpt>
      <trkpt lat="41.863848734647036" lon="13.4450638666749">
        <ele>481.75997899999999</ele>
        <time>2017-06-16T06:20:57Z</time>
      </trkpt>
      <trkpt lat="41.863810764625669" lon="13.445320269092917">
        <ele>479.83999599999999</ele>
        <time>2017-06-16T06:21:12Z</time>
      </trkpt>
      <trkpt lat="41.863768938928843" lon="13.445639871060848">
        <ele>478.86999500000002</ele>
        <time>2017-06-16T06:21:28Z</time>
      </trkpt>
      <trkpt lat="41.863762736320496" lon="13.445709859952331">
        <ele>478.39001500000001</ele>
        <time>2017-06-16T06:21:32Z</time>
      </trkpt>
      <trkpt lat="41.863725939765573" lon="13.445896441116929">
        <ele>476.95001200000002</ele>
        <time>2017-06-16T06:21:46Z</time>
      </trkpt>
      <trkpt lat="41.863709008321166" lon="13.446040358394384">
        <ele>475.98998999999998</ele>
        <time>2017-06-16T06:21:55Z</time>
      </trkpt>
      <trkpt lat="41.863709595054388" lon="13.446055362001061">
        <ele>475.98998999999998</ele>
        <time>2017-06-16T06:21:56Z</time>
      </trkpt>
      <trkpt lat="41.863678498193622" lon="13.446344202384353">
        <ele>475.029968</ele>
        <time>2017-06-16T06:22:12Z</time>
      </trkpt>
      <trkpt lat="41.863674307242036" lon="13.44668660312891">
        <ele>473.58999599999999</ele>
        <time>2017-06-16T06:22:28Z</time>
      </trkpt>
      <trkpt lat="41.863681096583605" lon="13.446891289204359">
        <ele>473.10998499999999</ele>
        <time>2017-06-16T06:22:40Z</time>
      </trkpt>
      <trkpt lat="41.863679420202971" lon="13.447120869532228">
        <ele>472.63000499999998</ele>
        <time>2017-06-16T06:22:54Z</time>
      </trkpt>
      <trkpt lat="41.863681096583605" lon="13.447197899222374">
        <ele>471.66000400000001</ele>
        <time>2017-06-16T06:22:59Z</time>
      </trkpt>
      <trkpt lat="41.863625608384609" lon="13.447369979694486">
        <ele>471.66000400000001</ele>
        <time>2017-06-16T06:23:10Z</time>
      </trkpt>
      <trkpt lat="41.863621836528182" lon="13.4473916888237">
        <ele>471.17999300000002</ele>
        <time>2017-06-16T06:23:11Z</time>
      </trkpt>
      <trkpt lat="41.863616891205311" lon="13.447415828704834">
        <ele>471.17999300000002</ele>
        <time>2017-06-16T06:23:12Z</time>
      </trkpt>
      <trkpt lat="41.863613873720169" lon="13.447440303862095">
        <ele>471.17999300000002</ele>
        <time>2017-06-16T06:23:13Z</time>
      </trkpt>
      <trkpt lat="41.863615466281772" lon="13.447464359924197">
        <ele>471.17999300000002</ele>
        <time>2017-06-16T06:23:14Z</time>
      </trkpt>
      <trkpt lat="41.863617897033691" lon="13.447487074881792">
        <ele>471.17999300000002</ele>
        <time>2017-06-16T06:23:15Z</time>
      </trkpt>
      <trkpt lat="41.863621333613992" lon="13.447508700191975">
        <ele>471.17999300000002</ele>
        <time>2017-06-16T06:23:16Z</time>
      </trkpt>
      <trkpt lat="41.863624434918165" lon="13.447531834244728">
        <ele>471.17999300000002</ele>
        <time>2017-06-16T06:23:17Z</time>
      </trkpt>
      <trkpt lat="41.863626781851053" lon="13.447553878650069">
        <ele>471.17999300000002</ele>
        <time>2017-06-16T06:23:18Z</time>
      </trkpt>
      <trkpt lat="41.863626278936863" lon="13.447572905570269">
        <ele>471.17999300000002</ele>
        <time>2017-06-16T06:23:19Z</time>
      </trkpt>
      <trkpt lat="41.86362368054688" lon="13.447587573900819">
        <ele>471.17999300000002</ele>
        <time>2017-06-16T06:23:20Z</time>
      </trkpt>
      <trkpt lat="41.863570120185614" lon="13.447668626904488">
        <ele>470.70001200000002</ele>
        <time>2017-06-16T06:23:26Z</time>
      </trkpt>
      <trkpt lat="41.863442631438375" lon="13.447952270507813">
        <ele>470.22000100000002</ele>
        <time>2017-06-16T06:23:41Z</time>
      </trkpt>
      <trkpt lat="41.863365434110165" lon="13.448212025687099">
        <ele>469.73998999999998</ele>
        <time>2017-06-16T06:23:56Z</time>
      </trkpt>
      <trkpt lat="41.86335981823504" lon="13.448222586885095">
        <ele>469.73998999999998</ele>
        <time>2017-06-16T06:23:57Z</time>
      </trkpt>
      <trkpt lat="41.863352190703154" lon="13.448234824463725">
        <ele>469.73998999999998</ele>
        <time>2017-06-16T06:23:58Z</time>
      </trkpt>
      <trkpt lat="41.863314639776945" lon="13.448372539132833">
        <ele>469.25997899999999</ele>
        <time>2017-06-16T06:24:07Z</time>
      </trkpt>
      <trkpt lat="41.863311622291803" lon="13.448389889672399">
        <ele>469.25997899999999</ele>
        <time>2017-06-16T06:24:08Z</time>
      </trkpt>
      <trkpt lat="41.863306006416678" lon="13.448407491669059">
        <ele>469.25997899999999</ele>
        <time>2017-06-16T06:24:09Z</time>
      </trkpt>
      <trkpt lat="41.863171895965934" lon="13.448688704520464">
        <ele>469.25997899999999</ele>
        <time>2017-06-16T06:24:25Z</time>
      </trkpt>
      <trkpt lat="41.863122023642063" lon="13.448843099176884">
        <ele>468.779968</ele>
        <time>2017-06-16T06:24:35Z</time>
      </trkpt>
      <trkpt lat="41.863119509071112" lon="13.448858438059688">
        <ele>468.779968</ele>
        <time>2017-06-16T06:24:36Z</time>
      </trkpt>
      <trkpt lat="41.863117162138224" lon="13.448873609304428">
        <ele>468.779968</ele>
        <time>2017-06-16T06:24:37Z</time>
      </trkpt>
      <trkpt lat="41.863043066114187" lon="13.44917812384665">
        <ele>468.779968</ele>
        <time>2017-06-16T06:24:53Z</time>
      </trkpt>
      <trkpt lat="41.863022027537227" lon="13.449230929836631">
        <ele>468.30001800000002</ele>
        <time>2017-06-16T06:25:06Z</time>
      </trkpt>
      <trkpt lat="41.863016160205007" lon="13.44929002225399">
        <ele>468.30001800000002</ele>
        <time>2017-06-16T06:25:15Z</time>
      </trkpt>
      <trkpt lat="41.863014735281467" lon="13.449306869879365">
        <ele>468.30001800000002</ele>
        <time>2017-06-16T06:25:16Z</time>
      </trkpt>
      <trkpt lat="41.863011633977294" lon="13.449323466047645">
        <ele>468.30001800000002</ele>
        <time>2017-06-16T06:25:17Z</time>
      </trkpt>
      <trkpt lat="41.863008197396994" lon="13.449340229853988">
        <ele>468.30001800000002</ele>
        <time>2017-06-16T06:25:18Z</time>
      </trkpt>
      <trkpt lat="41.863003168255091" lon="13.449358586221933">
        <ele>468.30001800000002</ele>
        <time>2017-06-16T06:25:19Z</time>
      </trkpt>
      <trkpt lat="41.862999061122537" lon="13.449377613142133">
        <ele>468.30001800000002</ele>
        <time>2017-06-16T06:25:20Z</time>
      </trkpt>
      <trkpt lat="41.862998474389315" lon="13.449395382776856">
        <ele>468.30001800000002</ele>
        <time>2017-06-16T06:25:21Z</time>
      </trkpt>
      <trkpt lat="41.862996462732553" lon="13.449416337534785">
        <ele>468.30001800000002</ele>
        <time>2017-06-16T06:25:22Z</time>
      </trkpt>
      <trkpt lat="41.862993277609348" lon="13.449432430788875">
        <ele>468.30001800000002</ele>
        <time>2017-06-16T06:25:23Z</time>
      </trkpt>
      <trkpt lat="41.862990260124207" lon="13.449447769671679">
        <ele>468.30001800000002</ele>
        <time>2017-06-16T06:25:24Z</time>
      </trkpt>
      <trkpt lat="41.862988835200667" lon="13.449463024735451">
        <ele>468.30001800000002</ele>
        <time>2017-06-16T06:25:25Z</time>
      </trkpt>
      <trkpt lat="41.862988080829382" lon="13.449479537084699">
        <ele>468.30001800000002</ele>
        <time>2017-06-16T06:25:26Z</time>
      </trkpt>
      <trkpt lat="41.863001994788647" lon="13.449749518185854">
        <ele>468.30001800000002</ele>
        <time>2017-06-16T06:25:43Z</time>
      </trkpt>
      <trkpt lat="41.86300702393055" lon="13.449765695258975">
        <ele>468.30001800000002</ele>
        <time>2017-06-16T06:25:44Z</time>
      </trkpt>
      <trkpt lat="41.863150941208005" lon="13.450079681351781">
        <ele>467.82000699999998</ele>
        <time>2017-06-16T06:26:03Z</time>
      </trkpt>
      <trkpt lat="41.863276334479451" lon="13.450334239751101">
        <ele>467.82000699999998</ele>
        <time>2017-06-16T06:26:21Z</time>
      </trkpt>
      <trkpt lat="41.863379934802651" lon="13.450614530593157">
        <ele>467.82000699999998</ele>
        <time>2017-06-16T06:26:37Z</time>
      </trkpt>
      <trkpt lat="41.863499460741878" lon="13.450928684324026">
        <ele>467.82000699999998</ele>
        <time>2017-06-16T06:26:56Z</time>
      </trkpt>
      <trkpt lat="41.86351278796792" lon="13.450984004884958">
        <ele>467.82000699999998</ele>
        <time>2017-06-16T06:27:00Z</time>
      </trkpt>
      <trkpt lat="41.863525360822678" lon="13.451042762026191">
        <ele>467.82000699999998</ele>
        <time>2017-06-16T06:27:04Z</time>
      </trkpt>
      <trkpt lat="41.863529803231359" lon="13.451058939099312">
        <ele>467.82000699999998</ele>
        <time>2017-06-16T06:27:05Z</time>
      </trkpt>
      <trkpt lat="41.863568862900138" lon="13.451426485553384">
        <ele>467.33999599999999</ele>
        <time>2017-06-16T06:27:24Z</time>
      </trkpt>
      <trkpt lat="41.863599540665746" lon="13.451690264046192">
        <ele>466.85998499999999</ele>
        <time>2017-06-16T06:27:40Z</time>
      </trkpt>
      <trkpt lat="41.863617729395628" lon="13.452056385576725">
        <ele>466.38000499999998</ele>
        <time>2017-06-16T06:28:00Z</time>
      </trkpt>
      <trkpt lat="41.863626865670085" lon="13.452344639226794">
        <ele>466.38000499999998</ele>
        <time>2017-06-16T06:28:17Z</time>
      </trkpt>
      <trkpt lat="41.863660560920835" lon="13.452680166810751">
        <ele>465.89999399999999</ele>
        <time>2017-06-16T06:28:34Z</time>
      </trkpt>
      <trkpt lat="41.863660393282771" lon="13.452802458778024">
        <ele>465.42001299999998</ele>
        <time>2017-06-16T06:28:40Z</time>
      </trkpt>
      <trkpt lat="41.863663997501135" lon="13.453038241714239">
        <ele>465.42001299999998</ele>
        <time>2017-06-16T06:28:55Z</time>
      </trkpt>
      <trkpt lat="41.86366081237793" lon="13.45334610901773">
        <ele>464.92999300000002</ele>
        <time>2017-06-16T06:29:11Z</time>
      </trkpt>
      <trkpt lat="41.863684030249715" lon="13.453628411516547">
        <ele>464.92999300000002</ele>
        <time>2017-06-16T06:29:28Z</time>
      </trkpt>
      <trkpt lat="41.863741530105472" lon="13.453929908573627">
        <ele>464.45001200000002</ele>
        <time>2017-06-16T06:29:46Z</time>
      </trkpt>
      <trkpt lat="41.863829707726836" lon="13.45423785969615">
        <ele>463.48998999999998</ele>
        <time>2017-06-16T06:30:04Z</time>
      </trkpt>
      <trkpt lat="41.863872623071074" lon="13.454431314021349">
        <ele>463.00997899999999</ele>
        <time>2017-06-16T06:30:17Z</time>
      </trkpt>
      <trkpt lat="41.863874886184931" lon="13.454448580741882">
        <ele>463.00997899999999</ele>
        <time>2017-06-16T06:30:18Z</time>
      </trkpt>
      <trkpt lat="41.863877065479755" lon="13.454470206052065">
        <ele>463.00997899999999</ele>
        <time>2017-06-16T06:30:19Z</time>
      </trkpt>
      <trkpt lat="41.863877568393946" lon="13.454487975686789">
        <ele>463.00997899999999</ele>
        <time>2017-06-16T06:30:20Z</time>
      </trkpt>
      <trkpt lat="41.863879328593612" lon="13.454507002606988">
        <ele>463.00997899999999</ele>
        <time>2017-06-16T06:30:21Z</time>
      </trkpt>
      <trkpt lat="41.863882429897785" lon="13.454530220478773">
        <ele>463.00997899999999</ele>
        <time>2017-06-16T06:30:22Z</time>
      </trkpt>
      <trkpt lat="41.863884776830673" lon="13.454544385895133">
        <ele>463.00997899999999</ele>
        <time>2017-06-16T06:30:23Z</time>
      </trkpt>
      <trkpt lat="41.863888297230005" lon="13.454560311511159">
        <ele>463.00997899999999</ele>
        <time>2017-06-16T06:30:24Z</time>
      </trkpt>
      <trkpt lat="41.863954681903124" lon="13.454760136082768">
        <ele>462.529968</ele>
        <time>2017-06-16T06:30:38Z</time>
      </trkpt>
      <trkpt lat="41.864015534520149" lon="13.454969935119152">
        <ele>461.57000699999998</ele>
        <time>2017-06-16T06:30:52Z</time>
      </trkpt>
      <trkpt lat="41.864058282226324" lon="13.455119719728827">
        <ele>461.57000699999998</ele>
        <time>2017-06-16T06:31:00Z</time>
      </trkpt>
      <trkpt lat="41.86406834051013" lon="13.455137740820646">
        <ele>461.57000699999998</ele>
        <time>2017-06-16T06:31:01Z</time>
      </trkpt>
      <trkpt lat="41.864156518131495" lon="13.455385006964207">
        <ele>461.57000699999998</ele>
        <time>2017-06-16T06:31:16Z</time>
      </trkpt>
      <trkpt lat="41.864265901967883" lon="13.455682229250669">
        <ele>461.08999599999999</ele>
        <time>2017-06-16T06:31:33Z</time>
      </trkpt>
      <trkpt lat="41.864394564181566" lon="13.455903176218271">
        <ele>460.60998499999999</ele>
        <time>2017-06-16T06:31:49Z</time>
      </trkpt>
      <trkpt lat="41.864436389878392" lon="13.455996969714761">
        <ele>460.13000499999998</ele>
        <time>2017-06-16T06:31:54Z</time>
      </trkpt>
      <trkpt lat="41.864440999925137" lon="13.456013901159167">
        <ele>460.13000499999998</ele>
        <time>2017-06-16T06:31:55Z</time>
      </trkpt>
      <trkpt lat="41.864445023238659" lon="13.45603502355516">
        <ele>460.13000499999998</ele>
        <time>2017-06-16T06:31:56Z</time>
      </trkpt>
      <trkpt lat="41.86444946564734" lon="13.456054888665676">
        <ele>460.13000499999998</ele>
        <time>2017-06-16T06:31:57Z</time>
      </trkpt>
      <trkpt lat="41.864453991875052" lon="13.456076011061668">
        <ele>459.64999399999999</ele>
        <time>2017-06-16T06:31:58Z</time>
      </trkpt>
      <trkpt lat="41.864551724866033" lon="13.456274662166834">
        <ele>459.17001299999998</ele>
        <time>2017-06-16T06:32:13Z</time>
      </trkpt>
      <trkpt lat="41.864656833931804" lon="13.456570291891694">
        <ele>458.69000199999999</ele>
        <time>2017-06-16T06:32:29Z</time>
      </trkpt>
      <trkpt lat="41.864770073443651" lon="13.456747569143772">
        <ele>458.209991</ele>
        <time>2017-06-16T06:32:43Z</time>
      </trkpt>
      <trkpt lat="41.864901836961508" lon="13.456976059824228">
        <ele>457.72000100000002</ele>
        <time>2017-06-16T06:32:58Z</time>
      </trkpt>
      <trkpt lat="41.864917930215597" lon="13.457009335979819">
        <ele>457.23998999999998</ele>
        <time>2017-06-16T06:33:01Z</time>
      </trkpt>
      <trkpt lat="41.865068804472685" lon="13.457338660955429">
        <ele>456.75997899999999</ele>
        <time>2017-06-16T06:33:21Z</time>
      </trkpt>
      <trkpt lat="41.865209620445967" lon="13.45759330317378">
        <ele>454.83999599999999</ele>
        <time>2017-06-16T06:33:40Z</time>
      </trkpt>
      <trkpt lat="41.865334510803223" lon="13.457846939563751">
        <ele>453.88000499999998</ele>
        <time>2017-06-16T06:33:56Z</time>
      </trkpt>
      <trkpt lat="41.865446241572499" lon="13.458051374182105">
        <ele>452.92001299999998</ele>
        <time>2017-06-16T06:34:11Z</time>
      </trkpt>
      <trkpt lat="41.865545734763145" lon="13.458353960886598">
        <ele>451</ele>
        <time>2017-06-16T06:34:28Z</time>
      </trkpt>
      <trkpt lat="41.865564761683345" lon="13.458403078839183">
        <ele>450.51998900000001</ele>
        <time>2017-06-16T06:34:31Z</time>
      </trkpt>
      <trkpt lat="41.865575406700373" lon="13.458420429378748">
        <ele>451</ele>
        <time>2017-06-16T06:34:32Z</time>
      </trkpt>
      <trkpt lat="41.865581022575498" lon="13.458437193185091">
        <ele>451</ele>
        <time>2017-06-16T06:34:33Z</time>
      </trkpt>
      <trkpt lat="41.865637935698032" lon="13.458614805713296">
        <ele>449.55001800000002</ele>
        <time>2017-06-16T06:34:45Z</time>
      </trkpt>
      <trkpt lat="41.865756958723068" lon="13.458838937804103">
        <ele>449.07000699999998</ele>
        <time>2017-06-16T06:35:02Z</time>
      </trkpt>
      <trkpt lat="41.865766094997525" lon="13.458852265030146">
        <ele>449.07000699999998</ele>
        <time>2017-06-16T06:35:03Z</time>
      </trkpt>
      <trkpt lat="41.865770369768143" lon="13.45887397415936">
        <ele>448.58999599999999</ele>
        <time>2017-06-16T06:35:04Z</time>
      </trkpt>
      <trkpt lat="41.86577120795846" lon="13.458893587812781">
        <ele>448.58999599999999</ele>
        <time>2017-06-16T06:35:05Z</time>
      </trkpt>
      <trkpt lat="41.865770118311048" lon="13.458914291113615">
        <ele>448.58999599999999</ele>
        <time>2017-06-16T06:35:06Z</time>
      </trkpt>
      <trkpt lat="41.865753438323736" lon="13.45914957113564">
        <ele>447.63000499999998</ele>
        <time>2017-06-16T06:35:20Z</time>
      </trkpt>
      <trkpt lat="41.865793420001864" lon="13.459250992164016">
        <ele>447.14999399999999</ele>
        <time>2017-06-16T06:35:33Z</time>
      </trkpt>
      <trkpt lat="41.865819236263633" lon="13.459284268319607">
        <ele>447.14999399999999</ele>
        <time>2017-06-16T06:35:40Z</time>
      </trkpt>
      <trkpt lat="41.865865085273981" lon="13.45933623611927">
        <ele>446.67001299999998</ele>
        <time>2017-06-16T06:35:45Z</time>
      </trkpt>
      <trkpt lat="41.865878663957119" lon="13.459339505061507">
        <ele>446.67001299999998</ele>
        <time>2017-06-16T06:35:46Z</time>
      </trkpt>
      <trkpt lat="41.86589433811605" lon="13.459338583052158">
        <ele>446.67001299999998</ele>
        <time>2017-06-16T06:35:47Z</time>
      </trkpt>
      <trkpt lat="41.865910263732076" lon="13.459335900843143">
        <ele>446.67001299999998</ele>
        <time>2017-06-16T06:35:48Z</time>
      </trkpt>
      <trkpt lat="41.865928703919053" lon="13.459332212805748">
        <ele>446.67001299999998</ele>
        <time>2017-06-16T06:35:49Z</time>
      </trkpt>
      <trkpt lat="41.865948066115379" lon="13.459329027682543">
        <ele>446.67001299999998</ele>
        <time>2017-06-16T06:35:50Z</time>
      </trkpt>
      <trkpt lat="41.866091061383486" lon="13.459202377125621">
        <ele>445.23001099999999</ele>
        <time>2017-06-16T06:36:04Z</time>
      </trkpt>
      <trkpt lat="41.866330867633224" lon="13.459087125957012">
        <ele>445.23001099999999</ele>
        <time>2017-06-16T06:36:23Z</time>
      </trkpt>
      <trkpt lat="41.866342769935727" lon="13.459085365757346">
        <ele>444.26998900000001</ele>
        <time>2017-06-16T06:36:24Z</time>
      </trkpt>
      <trkpt lat="41.866356516256928" lon="13.459085030481219">
        <ele>444.26998900000001</ele>
        <time>2017-06-16T06:36:25Z</time>
      </trkpt>
      <trkpt lat="41.866370094940066" lon="13.459082935005426">
        <ele>443.78997800000002</ele>
        <time>2017-06-16T06:36:26Z</time>
      </trkpt>
      <trkpt lat="41.866426840424538" lon="13.459087796509266">
        <ele>442.82000699999998</ele>
        <time>2017-06-16T06:36:30Z</time>
      </trkpt>
      <trkpt lat="41.866537062451243" lon="13.459187541157007">
        <ele>442.82000699999998</ele>
        <time>2017-06-16T06:36:39Z</time>
      </trkpt>
      <trkpt lat="41.866649799048901" lon="13.459417121484876">
        <ele>442.82000699999998</ele>
        <time>2017-06-16T06:36:54Z</time>
      </trkpt>
      <trkpt lat="41.86668885871768" lon="13.45950429327786">
        <ele>442.82000699999998</ele>
        <time>2017-06-16T06:37:11Z</time>
      </trkpt>
      <trkpt lat="41.866774773225188" lon="13.459734125062823">
        <ele>442.82000699999998</ele>
        <time>2017-06-16T06:37:25Z</time>
      </trkpt>
      <trkpt lat="41.866782736033201" lon="13.459748039022088">
        <ele>442.82000699999998</ele>
        <time>2017-06-16T06:37:26Z</time>
      </trkpt>
      <trkpt lat="41.866948530077934" lon="13.459971584379673">
        <ele>442.82000699999998</ele>
        <time>2017-06-16T06:37:46Z</time>
      </trkpt>
      <trkpt lat="41.867167130112648" lon="13.460058672353625">
        <ele>442.82000699999998</ele>
        <time>2017-06-16T06:38:02Z</time>
      </trkpt>
      <trkpt lat="41.867235358804464" lon="13.460084740072489">
        <ele>442.82000699999998</ele>
        <time>2017-06-16T06:38:10Z</time>
      </trkpt>
      <trkpt lat="41.867448259145021" lon="13.460154896602035">
        <ele>442.82000699999998</ele>
        <time>2017-06-16T06:38:26Z</time>
      </trkpt>
      <trkpt lat="41.86766367405653" lon="13.460218934342265">
        <ele>443.78997800000002</ele>
        <time>2017-06-16T06:38:43Z</time>
      </trkpt>
      <trkpt lat="41.867859726771712" lon="13.460288923233747">
        <ele>444.26998900000001</ele>
        <time>2017-06-16T06:38:59Z</time>
      </trkpt>
      <trkpt lat="41.868011606857181" lon="13.460404425859451">
        <ele>444.26998900000001</ele>
        <time>2017-06-16T06:39:13Z</time>
      </trkpt>
      <trkpt lat="41.868137922137976" lon="13.460632162168622">
        <ele>444.26998900000001</ele>
        <time>2017-06-16T06:39:28Z</time>
      </trkpt>
      <trkpt lat="41.868261639028788" lon="13.460843386128545">
        <ele>444.75</ele>
        <time>2017-06-16T06:39:44Z</time>
      </trkpt>
      <trkpt lat="41.868272535502911" lon="13.460855036973953">
        <ele>444.75</ele>
        <time>2017-06-16T06:39:45Z</time>
      </trkpt>
      <trkpt lat="41.86828033067286" lon="13.460865765810013">
        <ele>444.75</ele>
        <time>2017-06-16T06:39:46Z</time>
      </trkpt>
      <trkpt lat="41.868394408375025" lon="13.461104733869433">
        <ele>445.709991</ele>
        <time>2017-06-16T06:40:01Z</time>
      </trkpt>
      <trkpt lat="41.868557101115584" lon="13.461128538474441">
        <ele>446.67001299999998</ele>
        <time>2017-06-16T06:40:14Z</time>
      </trkpt>
      <trkpt lat="41.868643518537283" lon="13.461099620908499">
        <ele>447.14999399999999</ele>
        <time>2017-06-16T06:40:22Z</time>
      </trkpt>
      <trkpt lat="41.868658773601055" lon="13.461090819910169">
        <ele>447.14999399999999</ele>
        <time>2017-06-16T06:40:23Z</time>
      </trkpt>
      <trkpt lat="41.868669921532273" lon="13.461082773283124">
        <ele>447.14999399999999</ele>
        <time>2017-06-16T06:40:24Z</time>
      </trkpt>
      <trkpt lat="41.868682326748967" lon="13.461071373894811">
        <ele>447.63000499999998</ele>
        <time>2017-06-16T06:40:25Z</time>
      </trkpt>
      <trkpt lat="41.868694229051471" lon="13.461060896515846">
        <ele>447.63000499999998</ele>
        <time>2017-06-16T06:40:26Z</time>
      </trkpt>
      <trkpt lat="41.8688740208745" lon="13.461000295355916">
        <ele>448.58999599999999</ele>
        <time>2017-06-16T06:40:41Z</time>
      </trkpt>
      <trkpt lat="41.869017519056797" lon="13.461182015016675">
        <ele>450.029968</ele>
        <time>2017-06-16T06:40:56Z</time>
      </trkpt>
      <trkpt lat="41.869048029184341" lon="13.461224678903818">
        <ele>450.029968</ele>
        <time>2017-06-16T06:41:00Z</time>
      </trkpt>
      <trkpt lat="41.869057165458798" lon="13.461238676682115">
        <ele>450.51998900000001</ele>
        <time>2017-06-16T06:41:01Z</time>
      </trkpt>
      <trkpt lat="41.869065295904875" lon="13.461254434660077">
        <ele>450.51998900000001</ele>
        <time>2017-06-16T06:41:02Z</time>
      </trkpt>
      <trkpt lat="41.86907627619803" lon="13.461275305598974">
        <ele>450.51998900000001</ele>
        <time>2017-06-16T06:41:03Z</time>
      </trkpt>
      <trkpt lat="41.869088765233755" lon="13.461291482672095">
        <ele>450.51998900000001</ele>
        <time>2017-06-16T06:41:04Z</time>
      </trkpt>
      <trkpt lat="41.869105193763971" lon="13.461301792412996">
        <ele>450.51998900000001</ele>
        <time>2017-06-16T06:41:05Z</time>
      </trkpt>
      <trkpt lat="41.869119023904204" lon="13.46130196005106">
        <ele>450.51998900000001</ele>
        <time>2017-06-16T06:41:06Z</time>
      </trkpt>
      <trkpt lat="41.869162861257792" lon="13.461253261193633">
        <ele>451.48001099999999</ele>
        <time>2017-06-16T06:41:12Z</time>
      </trkpt>
      <trkpt lat="41.869173841550946" lon="13.461244041100144">
        <ele>451</ele>
        <time>2017-06-16T06:41:13Z</time>
      </trkpt>
      <trkpt lat="41.869180463254452" lon="13.461237838491797">
        <ele>451.48001099999999</ele>
        <time>2017-06-16T06:41:14Z</time>
      </trkpt>
      <trkpt lat="41.869208123534918" lon="13.461224595084786">
        <ele>451</ele>
        <time>2017-06-16T06:41:21Z</time>
      </trkpt>
      <trkpt lat="41.869228994473815" lon="13.461204981431365">
        <ele>451</ele>
        <time>2017-06-16T06:41:24Z</time>
      </trkpt>
      <trkpt lat="41.869238214567304" lon="13.461194504052401">
        <ele>451</ele>
        <time>2017-06-16T06:41:25Z</time>
      </trkpt>
      <trkpt lat="41.869309460744262" lon="13.461139686405659">
        <ele>451.959991</ele>
        <time>2017-06-16T06:41:40Z</time>
      </trkpt>
      <trkpt lat="41.869414234533906" lon="13.460957799106836">
        <ele>451.959991</ele>
        <time>2017-06-16T06:41:52Z</time>
      </trkpt>
      <trkpt lat="41.869585979729891" lon="13.460648758336902">
        <ele>451.959991</ele>
        <time>2017-06-16T06:42:10Z</time>
      </trkpt>
      <trkpt lat="41.869682287797332" lon="13.46043661236763">
        <ele>451.959991</ele>
        <time>2017-06-16T06:42:26Z</time>
      </trkpt>
      <trkpt lat="41.869855122640729" lon="13.460206529125571">
        <ele>451.48001099999999</ele>
        <time>2017-06-16T06:42:41Z</time>
      </trkpt>
      <trkpt lat="41.869967021048069" lon="13.460054313763976">
        <ele>451.48001099999999</ele>
        <time>2017-06-16T06:42:54Z</time>
      </trkpt>
      <trkpt lat="41.870164163410664" lon="13.459877874702215">
        <ele>451.959991</ele>
        <time>2017-06-16T06:43:10Z</time>
      </trkpt>
      <trkpt lat="41.870337836444378" lon="13.459717780351639">
        <ele>451.959991</ele>
        <time>2017-06-16T06:43:27Z</time>
      </trkpt>
      <trkpt lat="41.87035208567977" lon="13.459711661562324">
        <ele>451.959991</ele>
        <time>2017-06-16T06:43:28Z</time>
      </trkpt>
      <trkpt lat="41.870367508381605" lon="13.459707973524928">
        <ele>451.959991</ele>
        <time>2017-06-16T06:43:29Z</time>
      </trkpt>
      <trkpt lat="41.870384104549885" lon="13.459699507802725">
        <ele>451.959991</ele>
        <time>2017-06-16T06:43:30Z</time>
      </trkpt>
      <trkpt lat="41.870398605242372" lon="13.459688359871507">
        <ele>451.959991</ele>
        <time>2017-06-16T06:43:31Z</time>
      </trkpt>
      <trkpt lat="41.870411261916161" lon="13.459680397063494">
        <ele>451.959991</ele>
        <time>2017-06-16T06:43:32Z</time>
      </trkpt>
      <trkpt lat="41.870426768437028" lon="13.459670171141624">
        <ele>451.959991</ele>
        <time>2017-06-16T06:43:33Z</time>
      </trkpt>
      <trkpt lat="41.870551994070411" lon="13.459569504484534">
        <ele>451.959991</ele>
        <time>2017-06-16T06:43:43Z</time>
      </trkpt>
      <trkpt lat="41.870563058182597" lon="13.459555339068174">
        <ele>451.959991</ele>
        <time>2017-06-16T06:43:44Z</time>
      </trkpt>
      <trkpt lat="41.87071468681097" lon="13.459411924704909">
        <ele>451.959991</ele>
        <time>2017-06-16T06:43:59Z</time>
      </trkpt>
      <trkpt lat="41.870914259925485" lon="13.459262978285551">
        <ele>451.959991</ele>
        <time>2017-06-16T06:44:14Z</time>
      </trkpt>
      <trkpt lat="41.871043760329485" lon="13.459136160090566">
        <ele>451.959991</ele>
        <time>2017-06-16T06:44:28Z</time>
      </trkpt>
      <trkpt lat="41.871285662055016" lon="13.458965588361025">
        <ele>452.44000199999999</ele>
        <time>2017-06-16T06:44:46Z</time>
      </trkpt>
      <trkpt lat="41.871463023126125" lon="13.458916218951344">
        <ele>452.92001299999998</ele>
        <time>2017-06-16T06:44:58Z</time>
      </trkpt>
      <trkpt lat="41.871492108330131" lon="13.458910770714283">
        <ele>452.92001299999998</ele>
        <time>2017-06-16T06:45:01Z</time>
      </trkpt>
      <trkpt lat="41.871528569608927" lon="13.458926361054182">
        <ele>452.92001299999998</ele>
        <time>2017-06-16T06:45:04Z</time>
      </trkpt>
      <trkpt lat="41.871538627892733" lon="13.458946477621794">
        <ele>452.92001299999998</ele>
        <time>2017-06-16T06:45:05Z</time>
      </trkpt>
      <trkpt lat="41.871614484116435" lon="13.459193324670196">
        <ele>453.88000499999998</ele>
        <time>2017-06-16T06:45:18Z</time>
      </trkpt>
      <trkpt lat="41.871606688946486" lon="13.459457019343972">
        <ele>455.32000699999998</ele>
        <time>2017-06-16T06:45:34Z</time>
      </trkpt>
      <trkpt lat="41.871554385870695" lon="13.459558021277189">
        <ele>455.80001800000002</ele>
        <time>2017-06-16T06:45:40Z</time>
      </trkpt>
      <trkpt lat="41.871549440547824" lon="13.459577970206738">
        <ele>455.80001800000002</ele>
        <time>2017-06-16T06:45:41Z</time>
      </trkpt>
      <trkpt lat="41.871543321758509" lon="13.459599008783698">
        <ele>455.80001800000002</ele>
        <time>2017-06-16T06:45:42Z</time>
      </trkpt>
      <trkpt lat="41.871536197140813" lon="13.459618790075183">
        <ele>455.80001800000002</ele>
        <time>2017-06-16T06:45:43Z</time>
      </trkpt>
      <trkpt lat="41.871527982875705" lon="13.459640499204397">
        <ele>455.80001800000002</ele>
        <time>2017-06-16T06:45:44Z</time>
      </trkpt>
      <trkpt lat="41.871457071974874" lon="13.45980335958302">
        <ele>457.23998999999998</ele>
        <time>2017-06-16T06:45:57Z</time>
      </trkpt>
      <trkpt lat="41.871447935700417" lon="13.459814423695207">
        <ele>457.23998999999998</ele>
        <time>2017-06-16T06:45:58Z</time>
      </trkpt>
      <trkpt lat="41.871255487203598" lon="13.459991700947285">
        <ele>459.17001299999998</ele>
        <time>2017-06-16T06:46:17Z</time>
      </trkpt>
      <trkpt lat="41.871241070330143" lon="13.460020534694195">
        <ele>459.17001299999998</ele>
        <time>2017-06-16T06:46:19Z</time>
      </trkpt>
      <trkpt lat="41.871230341494083" lon="13.46003151498735">
        <ele>459.17001299999998</ele>
        <time>2017-06-16T06:46:20Z</time>
      </trkpt>
      <trkpt lat="41.871219696477056" lon="13.460042914375663">
        <ele>459.17001299999998</ele>
        <time>2017-06-16T06:46:21Z</time>
      </trkpt>
      <trkpt lat="41.871070163324475" lon="13.460237458348274">
        <ele>460.60998499999999</ele>
        <time>2017-06-16T06:46:38Z</time>
      </trkpt>
      <trkpt lat="41.870957259088755" lon="13.46046200953424">
        <ele>462.05001800000002</ele>
        <time>2017-06-16T06:46:54Z</time>
      </trkpt>
      <trkpt lat="41.870824741199613" lon="13.460721764713526">
        <ele>463.48998999999998</ele>
        <time>2017-06-16T06:47:11Z</time>
      </trkpt>
      <trkpt lat="41.87075668014586" lon="13.460872136056423">
        <ele>463.97000100000002</ele>
        <time>2017-06-16T06:47:23Z</time>
      </trkpt>
      <trkpt lat="41.870745532214642" lon="13.460883870720863">
        <ele>463.97000100000002</ele>
        <time>2017-06-16T06:47:24Z</time>
      </trkpt>
      <trkpt lat="41.870734384283423" lon="13.460903065279126">
        <ele>464.45001200000002</ele>
        <time>2017-06-16T06:47:25Z</time>
      </trkpt>
      <trkpt lat="41.870724158361554" lon="13.460919577628374">
        <ele>464.45001200000002</ele>
        <time>2017-06-16T06:47:26Z</time>
      </trkpt>
      <trkpt lat="41.870712004601955" lon="13.460935167968273">
        <ele>464.45001200000002</ele>
        <time>2017-06-16T06:47:27Z</time>
      </trkpt>
      <trkpt lat="41.870687110349536" lon="13.46097213216126">
        <ele>464.92999300000002</ele>
        <time>2017-06-16T06:47:30Z</time>
      </trkpt>
      <trkpt lat="41.870679734274745" lon="13.460981184616685">
        <ele>464.92999300000002</ele>
        <time>2017-06-16T06:47:31Z</time>
      </trkpt>
      <trkpt lat="41.870587365701795" lon="13.461159467697144">
        <ele>465.89999399999999</ele>
        <time>2017-06-16T06:47:45Z</time>
      </trkpt>
      <trkpt lat="41.870417380705476" lon="13.46144906245172">
        <ele>467.33999599999999</ele>
        <time>2017-06-16T06:48:04Z</time>
      </trkpt>
      <trkpt lat="41.870302213355899" lon="13.461756678298116">
        <ele>467.33999599999999</ele>
        <time>2017-06-16T06:48:20Z</time>
      </trkpt>
      <trkpt lat="41.870212024077773" lon="13.461944935843349">
        <ele>468.779968</ele>
        <time>2017-06-16T06:48:34Z</time>
      </trkpt>
      <trkpt lat="41.870241109281778" lon="13.462033364921808">
        <ele>468.779968</ele>
        <time>2017-06-16T06:48:40Z</time>
      </trkpt>
      <trkpt lat="41.870252676308155" lon="13.462034370750189">
        <ele>468.779968</ele>
        <time>2017-06-16T06:48:41Z</time>
      </trkpt>
      <trkpt lat="41.870264494791627" lon="13.462031101807952">
        <ele>468.779968</ele>
        <time>2017-06-16T06:48:42Z</time>
      </trkpt>
      <trkpt lat="41.870276816189289" lon="13.462026659399271">
        <ele>468.779968</ele>
        <time>2017-06-16T06:48:43Z</time>
      </trkpt>
      <trkpt lat="41.870288383215666" lon="13.462020792067051">
        <ele>468.779968</ele>
        <time>2017-06-16T06:48:44Z</time>
      </trkpt>
      <trkpt lat="41.870300201699138" lon="13.462015008553863">
        <ele>468.779968</ele>
        <time>2017-06-16T06:48:45Z</time>
      </trkpt>
      <trkpt lat="41.870311936363578" lon="13.462009225040674">
        <ele>468.779968</ele>
        <time>2017-06-16T06:48:46Z</time>
      </trkpt>
      <trkpt lat="41.870323000475764" lon="13.46200562082231">
        <ele>469.73998999999998</ele>
        <time>2017-06-16T06:48:47Z</time>
      </trkpt>
      <trkpt lat="41.870334399864078" lon="13.462003692984581">
        <ele>469.73998999999998</ele>
        <time>2017-06-16T06:48:48Z</time>
      </trkpt>
      <trkpt lat="41.870350576937199" lon="13.462001429870725">
        <ele>469.73998999999998</ele>
        <time>2017-06-16T06:48:49Z</time>
      </trkpt>
      <trkpt lat="41.870363904163241" lon="13.462000004947186">
        <ele>469.73998999999998</ele>
        <time>2017-06-16T06:48:50Z</time>
      </trkpt>
      <trkpt lat="41.870379075407982" lon="13.461997490376234">
        <ele>469.73998999999998</ele>
        <time>2017-06-16T06:48:51Z</time>
      </trkpt>
      <trkpt lat="41.870391229167581" lon="13.461995562538505">
        <ele>470.22000100000002</ele>
        <time>2017-06-16T06:48:52Z</time>
      </trkpt>
      <trkpt lat="41.870420901104808" lon="13.462023725733161">
        <ele>470.22000100000002</ele>
        <time>2017-06-16T06:48:59Z</time>
      </trkpt>
      <trkpt lat="41.870456775650382" lon="13.462149370461702">
        <ele>472.63000499999998</ele>
        <time>2017-06-16T06:49:11Z</time>
      </trkpt>
      <trkpt lat="41.870530201122165" lon="13.462312063202262">
        <ele>474.07000699999998</ele>
        <time>2017-06-16T06:49:23Z</time>
      </trkpt>
      <trkpt lat="41.870547803118825" lon="13.462323127314448">
        <ele>474.07000699999998</ele>
        <time>2017-06-16T06:49:25Z</time>
      </trkpt>
      <trkpt lat="41.870610835030675" lon="13.462426140904427">
        <ele>475.98998999999998</ele>
        <time>2017-06-16T06:49:37Z</time>
      </trkpt>
      <trkpt lat="41.87061058357358" lon="13.462424129247665">
        <ele>476.47000100000002</ele>
        <time>2017-06-16T06:49:47Z</time>
      </trkpt>
      <trkpt lat="41.870672777295113" lon="13.462533261626959">
        <ele>476.47000100000002</ele>
        <time>2017-06-16T06:49:57Z</time>
      </trkpt>
      <trkpt lat="41.870726002380252" lon="13.462616158649325">
        <ele>475.50997899999999</ele>
        <time>2017-06-16T06:50:07Z</time>
      </trkpt>
      <trkpt lat="41.870788112282753" lon="13.462695367634296">
        <ele>477.42999300000002</ele>
        <time>2017-06-16T06:50:21Z</time>
      </trkpt>
      <trkpt lat="41.870768833905458" lon="13.462697295472026">
        <ele>477.91000400000001</ele>
        <time>2017-06-16T06:50:34Z</time>
      </trkpt>
      <trkpt lat="41.870725583285093" lon="13.462675837799907">
        <ele>475.50997899999999</ele>
        <time>2017-06-16T06:50:46Z</time>
      </trkpt>
      <trkpt lat="41.870722230523825" lon="13.462676340714097">
        <ele>475.50997899999999</ele>
        <time>2017-06-16T06:50:52Z</time>
      </trkpt>
      <trkpt lat="41.870705801993608" lon="13.462647926062346">
        <ele>475.029968</ele>
        <time>2017-06-16T06:50:55Z</time>
      </trkpt>
      <trkpt lat="41.870645871385932" lon="13.46256603486836">
        <ele>476.47000100000002</ele>
        <time>2017-06-16T06:51:02Z</time>
      </trkpt>
      <trkpt lat="41.870557023212314" lon="13.462401079013944">
        <ele>476.47000100000002</ele>
        <time>2017-06-16T06:51:16Z</time>
      </trkpt>
      <trkpt lat="41.870543360710144" lon="13.462380459532142">
        <ele>475.029968</ele>
        <time>2017-06-16T06:51:18Z</time>
      </trkpt>
      <trkpt lat="41.870512096211314" lon="13.462307285517454">
        <ele>474.07000699999998</ele>
        <time>2017-06-16T06:51:24Z</time>
      </trkpt>
      <trkpt lat="41.870430707931519" lon="13.462162027135491">
        <ele>471.17999300000002</ele>
        <time>2017-06-16T06:51:37Z</time>
      </trkpt>
      <trkpt lat="41.870396761223674" lon="13.462054487317801">
        <ele>470.22000100000002</ele>
        <time>2017-06-16T06:51:43Z</time>
      </trkpt>
      <trkpt lat="41.870419224724174" lon="13.461994808167219">
        <ele>469.73998999999998</ele>
        <time>2017-06-16T06:51:55Z</time>
      </trkpt>
      <trkpt lat="41.870448393747211" lon="13.461978463456035">
        <ele>469.73998999999998</ele>
        <time>2017-06-16T06:52:09Z</time>
      </trkpt>
      <trkpt lat="41.870589964091778" lon="13.461782159283757">
        <ele>473.58999599999999</ele>
        <time>2017-06-16T06:52:25Z</time>
      </trkpt>
      <trkpt lat="41.870782496407628" lon="13.461514441296458">
        <ele>474.07000699999998</ele>
        <time>2017-06-16T06:52:46Z</time>
      </trkpt>
      <trkpt lat="41.871057422831655" lon="13.461381839588284">
        <ele>475.50997899999999</ele>
        <time>2017-06-16T06:53:07Z</time>
      </trkpt>
      <trkpt lat="41.871240315958858" lon="13.461272874847054">
        <ele>475.98998999999998</ele>
        <time>2017-06-16T06:53:24Z</time>
      </trkpt>
      <trkpt lat="41.87128490768373" lon="13.461227277293801">
        <ele>476.95001200000002</ele>
        <time>2017-06-16T06:53:29Z</time>
      </trkpt>
      <trkpt lat="41.871439134702086" lon="13.461074726656079">
        <ele>478.39001500000001</ele>
        <time>2017-06-16T06:53:45Z</time>
      </trkpt>
      <trkpt lat="41.871590930968523" lon="13.460913877934217">
        <ele>479.35000600000001</ele>
        <time>2017-06-16T06:54:01Z</time>
      </trkpt>
      <trkpt lat="41.871724622324109" lon="13.460767865180969">
        <ele>480.80001800000002</ele>
        <time>2017-06-16T06:54:16Z</time>
      </trkpt>
      <trkpt lat="41.871927212923765" lon="13.4605763386935">
        <ele>481.75997899999999</ele>
        <time>2017-06-16T06:54:34Z</time>
      </trkpt>
      <trkpt lat="41.872070459648967" lon="13.460425967350602">
        <ele>483.20001200000002</ele>
        <time>2017-06-16T06:54:50Z</time>
      </trkpt>
      <trkpt lat="41.872223680838943" lon="13.460274506360292">
        <ele>484.16000400000001</ele>
        <time>2017-06-16T06:55:05Z</time>
      </trkpt>
      <trkpt lat="41.872395258396864" lon="13.460175599902868">
        <ele>485.60000600000001</ele>
        <time>2017-06-16T06:55:20Z</time>
      </trkpt>
      <trkpt lat="41.872600363567472" lon="13.460111813619733">
        <ele>486.55999800000001</ele>
        <time>2017-06-16T06:55:36Z</time>
      </trkpt>
      <trkpt lat="41.872814437374473" lon="13.460090858861804">
        <ele>488.48998999999998</ele>
        <time>2017-06-16T06:55:54Z</time>
      </trkpt>
      <trkpt lat="41.872998084872961" lon="13.460075436159968">
        <ele>489.45001200000002</ele>
        <time>2017-06-16T06:56:09Z</time>
      </trkpt>
      <trkpt lat="41.873115263879299" lon="13.460093038156629">
        <ele>489.92999300000002</ele>
        <time>2017-06-16T06:56:20Z</time>
      </trkpt>
      <trkpt lat="41.873300839215517" lon="13.460135702043772">
        <ele>490.89001500000001</ele>
        <time>2017-06-16T06:56:36Z</time>
      </trkpt>
      <trkpt lat="41.873488258570433" lon="13.460213737562299">
        <ele>492.80999800000001</ele>
        <time>2017-06-16T06:56:52Z</time>
      </trkpt>
      <trkpt lat="41.873514074832201" lon="13.460222370922565">
        <ele>492.80999800000001</ele>
        <time>2017-06-16T06:56:54Z</time>
      </trkpt>
      <trkpt lat="41.873657237738371" lon="13.46021331846714">
        <ele>493.77001999999999</ele>
        <time>2017-06-16T06:57:07Z</time>
      </trkpt>
      <trkpt lat="41.873825630173087" lon="13.460131594911218">
        <ele>494.73998999999998</ele>
        <time>2017-06-16T06:57:22Z</time>
      </trkpt>
      <trkpt lat="41.873947335407138" lon="13.459951970726252">
        <ele>495.70001200000002</ele>
        <time>2017-06-16T06:57:37Z</time>
      </trkpt>
      <trkpt lat="41.874066358432174" lon="13.459749715402722">
        <ele>497.13998400000003</ele>
        <time>2017-06-16T06:57:53Z</time>
      </trkpt>
      <trkpt lat="41.874166438356042" lon="13.459604121744633">
        <ele>498.10000600000001</ele>
        <time>2017-06-16T06:58:07Z</time>
      </trkpt>
      <trkpt lat="41.87433491460979" lon="13.459523236379027">
        <ele>499.05999800000001</ele>
        <time>2017-06-16T06:58:20Z</time>
      </trkpt>
      <trkpt lat="41.874543623998761" lon="13.459525918588042">
        <ele>500.97998000000001</ele>
        <time>2017-06-16T06:58:36Z</time>
      </trkpt>
      <trkpt lat="41.874689385294914" lon="13.459526840597391">
        <ele>501.95001200000002</ele>
        <time>2017-06-16T06:58:49Z</time>
      </trkpt>
      <trkpt lat="41.874869763851166" lon="13.459538407623768">
        <ele>503.38998400000003</ele>
        <time>2017-06-16T06:59:04Z</time>
      </trkpt>
      <trkpt lat="41.874901279807091" lon="13.459531366825104">
        <ele>503.38998400000003</ele>
        <time>2017-06-16T06:59:07Z</time>
      </trkpt>
      <trkpt lat="41.875161537900567" lon="13.459497336298227">
        <ele>505.30999800000001</ele>
        <time>2017-06-16T06:59:24Z</time>
      </trkpt>
      <trkpt lat="41.875340826809406" lon="13.459445033222437">
        <ele>506.75003099999998</ele>
        <time>2017-06-16T06:59:40Z</time>
      </trkpt>
      <trkpt lat="41.875450881198049" lon="13.459422988817096">
        <ele>507.22998000000001</ele>
        <time>2017-06-16T06:59:47Z</time>
      </trkpt>
      <trkpt lat="41.875505112111568" lon="13.459496665745974">
        <ele>509.16000400000001</ele>
        <time>2017-06-16T06:59:54Z</time>
      </trkpt>
      <trkpt lat="41.875545009970665" lon="13.459559194743633">
        <ele>510.11999500000002</ele>
        <time>2017-06-16T07:00:01Z</time>
      </trkpt>
      <trkpt lat="41.875569066032767" lon="13.459572941064835">
        <ele>511.55999800000001</ele>
        <time>2017-06-16T07:00:04Z</time>
      </trkpt>
      <trkpt lat="41.875596391037107" lon="13.459590962156653">
        <ele>513.47997999999995</ele>
        <time>2017-06-16T07:00:10Z</time>
      </trkpt>
      <trkpt lat="41.875583231449127" lon="13.459682827815413">
        <ele>513.96002199999998</ele>
        <time>2017-06-16T07:00:17Z</time>
      </trkpt>
      <trkpt lat="41.875388687476516" lon="13.459858512505889">
        <ele>515.39996299999996</ele>
        <time>2017-06-16T07:00:34Z</time>
      </trkpt>
      <trkpt lat="41.875203363597393" lon="13.459983989596367">
        <ele>517.32995600000004</ele>
        <time>2017-06-16T07:00:49Z</time>
      </trkpt>
      <trkpt lat="41.874994905665517" lon="13.460077028721571">
        <ele>518.28997800000002</ele>
        <time>2017-06-16T07:01:06Z</time>
      </trkpt>
      <trkpt lat="41.874821735545993" lon="13.460216671228409">
        <ele>520.21002199999998</ele>
        <time>2017-06-16T07:01:23Z</time>
      </trkpt>
      <trkpt lat="41.874671112746" lon="13.460352793335915">
        <ele>521.169983</ele>
        <time>2017-06-16T07:01:37Z</time>
      </trkpt>
      <trkpt lat="41.874524932354689" lon="13.460547169670463">
        <ele>522.13000499999998</ele>
        <time>2017-06-16T07:01:52Z</time>
      </trkpt>
      <trkpt lat="41.87442921102047" lon="13.460669964551926">
        <ele>523.57995600000004</ele>
        <time>2017-06-16T07:02:05Z</time>
      </trkpt>
      <trkpt lat="41.874350169673562" lon="13.46086023375392">
        <ele>524.53997800000002</ele>
        <time>2017-06-16T07:02:19Z</time>
      </trkpt>
      <trkpt lat="41.874297112226486" lon="13.461098531261086">
        <ele>526.46002199999998</ele>
        <time>2017-06-16T07:02:34Z</time>
      </trkpt>
      <trkpt lat="41.874285629019141" lon="13.461125688627362">
        <ele>526.46002199999998</ele>
        <time>2017-06-16T07:02:36Z</time>
      </trkpt>
      <trkpt lat="41.874279091134667" lon="13.461140692234039">
        <ele>526.46002199999998</ele>
        <time>2017-06-16T07:02:37Z</time>
      </trkpt>
      <trkpt lat="41.874271212145686" lon="13.461159635335207">
        <ele>526.46002199999998</ele>
        <time>2017-06-16T07:02:38Z</time>
      </trkpt>
      <trkpt lat="41.874174317345023" lon="13.461369602009654">
        <ele>527.419983</ele>
        <time>2017-06-16T07:02:52Z</time>
      </trkpt>
      <trkpt lat="41.873950269073248" lon="13.461519218981266">
        <ele>528.38000499999998</ele>
        <time>2017-06-16T07:03:09Z</time>
      </trkpt>
      <trkpt lat="41.87371633015573" lon="13.46152818761766">
        <ele>529.34002699999996</ele>
        <time>2017-06-16T07:03:26Z</time>
      </trkpt>
      <trkpt lat="41.873577274382114" lon="13.4614690952003">
        <ele>530.29998799999998</ele>
        <time>2017-06-16T07:03:37Z</time>
      </trkpt>
      <trkpt lat="41.873560007661581" lon="13.46146565862">
        <ele>530.29998799999998</ele>
        <time>2017-06-16T07:03:38Z</time>
      </trkpt>
      <trkpt lat="41.873350124806166" lon="13.46143146045506">
        <ele>531.27002000000005</ele>
        <time>2017-06-16T07:03:53Z</time>
      </trkpt>
      <trkpt lat="41.873300420120358" lon="13.461411092430353">
        <ele>531.75</ele>
        <time>2017-06-16T07:04:04Z</time>
      </trkpt>
      <trkpt lat="41.873288517817855" lon="13.461420061066747">
        <ele>531.75</ele>
        <time>2017-06-16T07:04:05Z</time>
      </trkpt>
      <trkpt lat="41.873272759839892" lon="13.46142802387476">
        <ele>531.75</ele>
        <time>2017-06-16T07:04:06Z</time>
      </trkpt>
      <trkpt lat="41.873166225850582" lon="13.461550064384937">
        <ele>532.71002199999998</ele>
        <time>2017-06-16T07:04:20Z</time>
      </trkpt>
      <trkpt lat="41.873115515336394" lon="13.461706973612309">
        <ele>533.19000200000005</ele>
        <time>2017-06-16T07:04:32Z</time>
      </trkpt>
      <trkpt lat="41.873050639405847" lon="13.461945941671729">
        <ele>534.14996299999996</ele>
        <time>2017-06-16T07:04:44Z</time>
      </trkpt>
      <trkpt lat="41.87305323779583" lon="13.461968321353197">
        <ele>534.14996299999996</ele>
        <time>2017-06-16T07:04:45Z</time>
      </trkpt>
      <trkpt lat="41.873054578900337" lon="13.461991539224982">
        <ele>534.14996299999996</ele>
        <time>2017-06-16T07:04:46Z</time>
      </trkpt>
      <trkpt lat="41.873053321614861" lon="13.462014086544514">
        <ele>534.63000499999998</ele>
        <time>2017-06-16T07:04:47Z</time>
      </trkpt>
      <trkpt lat="41.873050723224878" lon="13.462041830644011">
        <ele>534.63000499999998</ele>
        <time>2017-06-16T07:04:48Z</time>
      </trkpt>
      <trkpt lat="41.873047538101673" lon="13.462058510631323">
        <ele>534.63000499999998</ele>
        <time>2017-06-16T07:04:49Z</time>
      </trkpt>
      <trkpt lat="41.873044101521373" lon="13.462078627198935">
        <ele>534.63000499999998</ele>
        <time>2017-06-16T07:04:50Z</time>
      </trkpt>
      <trkpt lat="41.873039240017533" lon="13.462099330499768">
        <ele>534.63000499999998</ele>
        <time>2017-06-16T07:04:51Z</time>
      </trkpt>
      <trkpt lat="41.873035468161106" lon="13.462118441238999">
        <ele>534.63000499999998</ele>
        <time>2017-06-16T07:04:52Z</time>
      </trkpt>
      <trkpt lat="41.873032534494996" lon="13.462133361026645">
        <ele>534.63000499999998</ele>
        <time>2017-06-16T07:04:53Z</time>
      </trkpt>
      <trkpt lat="41.873025577515364" lon="13.462152471765876">
        <ele>534.63000499999998</ele>
        <time>2017-06-16T07:04:54Z</time>
      </trkpt>
      <trkpt lat="41.872970340773463" lon="13.462432427331805">
        <ele>535.59002699999996</ele>
        <time>2017-06-16T07:05:12Z</time>
      </trkpt>
      <trkpt lat="41.872903620824218" lon="13.4626848064363">
        <ele>536.54998799999998</ele>
        <time>2017-06-16T07:05:27Z</time>
      </trkpt>
      <trkpt lat="41.872860118746758" lon="13.462944226339459">
        <ele>537.02996800000005</ele>
        <time>2017-06-16T07:05:40Z</time>
      </trkpt>
      <trkpt lat="41.872853329405189" lon="13.462959481403232">
        <ele>537.02996800000005</ele>
        <time>2017-06-16T07:05:41Z</time>
      </trkpt>
      <trkpt lat="41.872846623882651" lon="13.462975323200226">
        <ele>537.02996800000005</ele>
        <time>2017-06-16T07:05:42Z</time>
      </trkpt>
      <trkpt lat="41.872842600569129" lon="13.462990159168839">
        <ele>537.51000999999997</ele>
        <time>2017-06-16T07:05:43Z</time>
      </trkpt>
      <trkpt lat="41.872839918360114" lon="13.463004659861326">
        <ele>537.51000999999997</ele>
        <time>2017-06-16T07:05:44Z</time>
      </trkpt>
      <trkpt lat="41.872837990522385" lon="13.463019831106067">
        <ele>537.51000999999997</ele>
        <time>2017-06-16T07:05:45Z</time>
      </trkpt>
      <trkpt lat="41.872769678011537" lon="13.463275814428926">
        <ele>538.47997999999995</ele>
        <time>2017-06-16T07:06:03Z</time>
      </trkpt>
      <trkpt lat="41.872768504545093" lon="13.463312527164817">
        <ele>538.47997999999995</ele>
        <time>2017-06-16T07:06:06Z</time>
      </trkpt>
      <trkpt lat="41.872741682454944" lon="13.463589800521731">
        <ele>539.44000200000005</ele>
        <time>2017-06-16T07:06:22Z</time>
      </trkpt>
      <trkpt lat="41.872741430997849" lon="13.463610420003533">
        <ele>539.44000200000005</ele>
        <time>2017-06-16T07:06:23Z</time>
      </trkpt>
      <trkpt lat="41.872749896720052" lon="13.463875539600849">
        <ele>540.39996299999996</ele>
        <time>2017-06-16T07:06:39Z</time>
      </trkpt>
      <trkpt lat="41.872809575870633" lon="13.463974865153432">
        <ele>540.88000499999998</ele>
        <time>2017-06-16T07:06:47Z</time>
      </trkpt>
      <trkpt lat="41.872817287221551" lon="13.463971093297005">
        <ele>540.88000499999998</ele>
        <time>2017-06-16T07:06:48Z</time>
      </trkpt>
      <trkpt lat="41.872823908925056" lon="13.463964387774467">
        <ele>540.88000499999998</ele>
        <time>2017-06-16T07:06:49Z</time>
      </trkpt>
      <trkpt lat="41.872829776257277" lon="13.463956173509359">
        <ele>540.88000499999998</ele>
        <time>2017-06-16T07:06:50Z</time>
      </trkpt>
      <trkpt lat="41.872841594740748" lon="13.463919460773468">
        <ele>541.35998500000005</ele>
        <time>2017-06-16T07:06:53Z</time>
      </trkpt>
      <trkpt lat="41.87284360639751" lon="13.463904708623886">
        <ele>541.35998500000005</ele>
        <time>2017-06-16T07:06:54Z</time>
      </trkpt>
      <trkpt lat="41.872846120968461" lon="13.463885011151433">
        <ele>541.35998500000005</ele>
        <time>2017-06-16T07:06:55Z</time>
      </trkpt>
      <trkpt lat="41.872846037149429" lon="13.463864224031568">
        <ele>541.35998500000005</ele>
        <time>2017-06-16T07:06:56Z</time>
      </trkpt>
      <trkpt lat="41.872843103483319" lon="13.463847041130066">
        <ele>542.32000700000003</ele>
        <time>2017-06-16T07:06:57Z</time>
      </trkpt>
      <trkpt lat="41.872839583083987" lon="13.46382767893374">
        <ele>541.84002699999996</ele>
        <time>2017-06-16T07:06:58Z</time>
      </trkpt>
      <trkpt lat="41.872836817055941" lon="13.463807059451938">
        <ele>542.32000700000003</ele>
        <time>2017-06-16T07:06:59Z</time>
      </trkpt>
      <trkpt lat="41.872836062684655" lon="13.463787864893675">
        <ele>541.84002699999996</ele>
        <time>2017-06-16T07:07:00Z</time>
      </trkpt>
      <trkpt lat="41.872836900874972" lon="13.463769759982824">
        <ele>542.32000700000003</ele>
        <time>2017-06-16T07:07:01Z</time>
      </trkpt>
      <trkpt lat="41.872836397960782" lon="13.463749391958117">
        <ele>542.32000700000003</ele>
        <time>2017-06-16T07:07:02Z</time>
      </trkpt>
      <trkpt lat="41.872835895046592" lon="13.46372852101922">
        <ele>542.32000700000003</ele>
        <time>2017-06-16T07:07:03Z</time>
      </trkpt>
      <trkpt lat="41.872852994129062" lon="13.463528361171484">
        <ele>542.79998799999998</ele>
        <time>2017-06-16T07:07:16Z</time>
      </trkpt>
      <trkpt lat="41.872924072667956" lon="13.463267935439944">
        <ele>543.76000999999997</ele>
        <time>2017-06-16T07:07:30Z</time>
      </trkpt>
      <trkpt lat="41.872990960255265" lon="13.463078839704394">
        <ele>544.72003199999995</ele>
        <time>2017-06-16T07:07:45Z</time>
      </trkpt>
      <trkpt lat="41.873153736814857" lon="13.462874321267009">
        <ele>546.169983</ele>
        <time>2017-06-16T07:08:02Z</time>
      </trkpt>
      <trkpt lat="41.873192461207509" lon="13.462831992655993">
        <ele>546.169983</ele>
        <time>2017-06-16T07:08:06Z</time>
      </trkpt>
      <trkpt lat="41.87324233353138" lon="13.462828639894724">
        <ele>547.13000499999998</ele>
        <time>2017-06-16T07:08:18Z</time>
      </trkpt>
      <trkpt lat="41.873263623565435" lon="13.462865268811584">
        <ele>548.09002699999996</ele>
        <time>2017-06-16T07:08:34Z</time>
      </trkpt>
      <trkpt lat="41.873247027397156" lon="13.462969707325101">
        <ele>549.52996800000005</ele>
        <time>2017-06-16T07:08:45Z</time>
      </trkpt>
      <trkpt lat="41.873271502554417" lon="13.463147236034274">
        <ele>551.92999299999997</ele>
        <time>2017-06-16T07:09:00Z</time>
      </trkpt>
      <trkpt lat="41.873324140906334" lon="13.463132232427597">
        <ele>552.40997300000004</ele>
        <time>2017-06-16T07:09:06Z</time>
      </trkpt>
      <trkpt lat="41.873376695439219" lon="13.463135836645961">
        <ele>552.89996299999996</ele>
        <time>2017-06-16T07:09:11Z</time>
      </trkpt>
      <trkpt lat="41.873404439538717" lon="13.463155198842287">
        <ele>554.82000700000003</ele>
        <time>2017-06-16T07:09:15Z</time>
      </trkpt>
      <trkpt lat="41.873423801735044" lon="13.463167939335108">
        <ele>555.29998799999998</ele>
        <time>2017-06-16T07:09:18Z</time>
      </trkpt>
      <trkpt lat="41.873495718464255" lon="13.463177913799882">
        <ele>556.73999000000003</ele>
        <time>2017-06-16T07:09:29Z</time>
      </trkpt>
      <trkpt lat="41.873502507805824" lon="13.463183864951134">
        <ele>556.73999000000003</ele>
        <time>2017-06-16T07:09:30Z</time>
      </trkpt>
      <trkpt lat="41.873538633808494" lon="13.46326382830739">
        <ele>558.17999299999997</ele>
        <time>2017-06-16T07:09:40Z</time>
      </trkpt>
      <trkpt lat="41.873542405664921" lon="13.463276736438274">
        <ele>559.61999500000002</ele>
        <time>2017-06-16T07:09:43Z</time>
      </trkpt>
      <trkpt lat="41.873598983511329" lon="13.463391065597534">
        <ele>561.54998799999998</ele>
        <time>2017-06-16T07:09:58Z</time>
      </trkpt>
      <trkpt lat="41.873638881370425" lon="13.463468011468649">
        <ele>563.95001200000002</ele>
        <time>2017-06-16T07:10:12Z</time>
      </trkpt>
      <trkpt lat="41.873648185282946" lon="13.463519560173154">
        <ele>564.42999299999997</ele>
        <time>2017-06-16T07:10:22Z</time>
      </trkpt>
      <trkpt lat="41.873668218031526" lon="13.463535318151116">
        <ele>564.90997300000004</ele>
        <time>2017-06-16T07:10:25Z</time>
      </trkpt>
      <trkpt lat="41.873695040121675" lon="13.463543364778161">
        <ele>566.34997599999997</ele>
        <time>2017-06-16T07:10:29Z</time>
      </trkpt>
      <trkpt lat="41.873727310448885" lon="13.463554093614221">
        <ele>566.830017</ele>
        <time>2017-06-16T07:10:33Z</time>
      </trkpt>
      <trkpt lat="41.873791264370084" lon="13.463609581813216">
        <ele>569.23999000000003</ele>
        <time>2017-06-16T07:10:45Z</time>
      </trkpt>
      <trkpt lat="41.873846836388111" lon="13.463674541562796">
        <ele>571.15997300000004</ele>
        <time>2017-06-16T07:10:55Z</time>
      </trkpt>
      <trkpt lat="41.87386242672801" lon="13.463693987578154">
        <ele>572.11999500000002</ele>
        <time>2017-06-16T07:10:59Z</time>
      </trkpt>
      <trkpt lat="41.873950185254216" lon="13.463777219876647">
        <ele>574.52996800000005</ele>
        <time>2017-06-16T07:11:13Z</time>
      </trkpt>
      <trkpt lat="41.873968625441194" lon="13.463782500475645">
        <ele>575.01000999999997</ele>
        <time>2017-06-16T07:11:15Z</time>
      </trkpt>
      <trkpt lat="41.873991005122662" lon="13.463810160756111">
        <ele>575.48999000000003</ele>
        <time>2017-06-16T07:11:18Z</time>
      </trkpt>
      <trkpt lat="41.874050684273243" lon="13.463894817978144">
        <ele>577.89001499999995</ele>
        <time>2017-06-16T07:11:31Z</time>
      </trkpt>
      <trkpt lat="41.874053869396448" lon="13.463910575956106">
        <ele>577.89001499999995</ele>
        <time>2017-06-16T07:11:33Z</time>
      </trkpt>
      <trkpt lat="41.874042637646198" lon="13.464063797146082">
        <ele>580.29003899999998</ele>
        <time>2017-06-16T07:11:47Z</time>
      </trkpt>
      <trkpt lat="41.874041715636849" lon="13.464101515710354">
        <ele>580.76995799999997</ele>
        <time>2017-06-16T07:11:50Z</time>
      </trkpt>
      <trkpt lat="41.874006260186434" lon="13.464283822104335">
        <ele>581.72997999999995</ele>
        <time>2017-06-16T07:12:04Z</time>
      </trkpt>
      <trkpt lat="41.874083038419485" lon="13.464380465447903">
        <ele>584.14001499999995</ele>
        <time>2017-06-16T07:12:18Z</time>
      </trkpt>
      <trkpt lat="41.87414389103651" lon="13.464411897584796">
        <ele>585.09997599999997</ele>
        <time>2017-06-16T07:12:26Z</time>
      </trkpt>
      <trkpt lat="41.874164259061217" lon="13.464502925053239">
        <ele>587.01995799999997</ele>
        <time>2017-06-16T07:12:35Z</time>
      </trkpt>
      <trkpt lat="41.874139280989766" lon="13.464608201757073">
        <ele>587.5</ele>
        <time>2017-06-16T07:12:46Z</time>
      </trkpt>
      <trkpt lat="41.874112961813807" lon="13.464693613350391">
        <ele>587.5</ele>
        <time>2017-06-16T07:12:58Z</time>
      </trkpt>
      <trkpt lat="41.874112207442522" lon="13.464705515652895">
        <ele>587.5</ele>
        <time>2017-06-16T07:13:02Z</time>
      </trkpt>
      <trkpt lat="41.874118996784091" lon="13.464773073792458">
        <ele>585.580017</ele>
        <time>2017-06-16T07:13:13Z</time>
      </trkpt>
      <trkpt lat="41.874109273776412" lon="13.464790089055896">
        <ele>585.580017</ele>
        <time>2017-06-16T07:13:26Z</time>
      </trkpt>
      <trkpt lat="41.874109860509634" lon="13.46479226835072">
        <ele>585.580017</ele>
        <time>2017-06-16T07:13:28Z</time>
      </trkpt>
      <trkpt lat="41.874135341495275" lon="13.464839961379766">
        <ele>587.01995799999997</ele>
        <time>2017-06-16T07:13:35Z</time>
      </trkpt>
      <trkpt lat="41.874192170798779" lon="13.464975161477923">
        <ele>590.39001499999995</ele>
        <time>2017-06-16T07:13:50Z</time>
      </trkpt>
      <trkpt lat="41.874260315671563" lon="13.465072391554713">
        <ele>593.26995799999997</ele>
        <time>2017-06-16T07:14:03Z</time>
      </trkpt>
      <trkpt lat="41.874307673424482" lon="13.465128634124994">
        <ele>595.669983</ele>
        <time>2017-06-16T07:14:16Z</time>
      </trkpt>
      <trkpt lat="41.87429727986455" lon="13.465169370174408">
        <ele>596.14996299999996</ele>
        <time>2017-06-16T07:14:34Z</time>
      </trkpt>
      <trkpt lat="41.874304236844182" lon="13.465244472026825">
        <ele>596.14996299999996</ele>
        <time>2017-06-16T07:14:42Z</time>
      </trkpt>
      <trkpt lat="41.874314462766051" lon="13.465276574715972">
        <ele>594.71002199999998</ele>
        <time>2017-06-16T07:14:45Z</time>
      </trkpt>
      <trkpt lat="41.874356037005782" lon="13.465331727638841">
        <ele>594.71002199999998</ele>
        <time>2017-06-16T07:14:56Z</time>
      </trkpt>
      <trkpt lat="41.874374393373728" lon="13.465300966054201">
        <ele>596.64001499999995</ele>
        <time>2017-06-16T07:15:09Z</time>
      </trkpt>
      <trkpt lat="41.874406496062875" lon="13.465304570272565">
        <ele>598.080017</ele>
        <time>2017-06-16T07:15:23Z</time>
      </trkpt>
      <trkpt lat="41.87436081469059" lon="13.465313874185085">
        <ele>596.64001499999995</ele>
        <time>2017-06-16T07:15:41Z</time>
      </trkpt>
      <trkpt lat="41.874378835782409" lon="13.46542208455503">
        <ele>595.669983</ele>
        <time>2017-06-16T07:15:55Z</time>
      </trkpt>
      <trkpt lat="41.874403059482574" lon="13.465425269678235">
        <ele>597.11999500000002</ele>
        <time>2017-06-16T07:16:05Z</time>
      </trkpt>
      <trkpt lat="41.874448237940669" lon="13.465456701815128">
        <ele>598.080017</ele>
        <time>2017-06-16T07:16:20Z</time>
      </trkpt>
      <trkpt lat="41.874431474134326" lon="13.465405236929655">
        <ele>598.080017</ele>
        <time>2017-06-16T07:16:32Z</time>
      </trkpt>
      <trkpt lat="41.874422840774059" lon="13.465449158102274">
        <ele>598.080017</ele>
        <time>2017-06-16T07:16:48Z</time>
      </trkpt>
      <trkpt lat="41.874398533254862" lon="13.465465502813458">
        <ele>596.64001499999995</ele>
        <time>2017-06-16T07:16:54Z</time>
      </trkpt>
      <trkpt lat="41.874431222677231" lon="13.465564493089914">
        <ele>596.64001499999995</ele>
        <time>2017-06-16T07:17:06Z</time>
      </trkpt>
      <trkpt lat="41.874442789703608" lon="13.465543370693922">
        <ele>598.080017</ele>
        <time>2017-06-16T07:17:20Z</time>
      </trkpt>
      <trkpt lat="41.874462487176061" lon="13.465536665171385">
        <ele>599.51995799999997</ele>
        <time>2017-06-16T07:17:28Z</time>
      </trkpt>
      <trkpt lat="41.874471791088581" lon="13.465531133115292">
        <ele>599.51995799999997</ele>
        <time>2017-06-16T07:17:43Z</time>
      </trkpt>
      <trkpt lat="41.874477826058865" lon="13.465532809495926">
        <ele>598.080017</ele>
        <time>2017-06-16T07:17:50Z</time>
      </trkpt>
      <trkpt lat="41.874477071687579" lon="13.465531468391418">
        <ele>600</ele>
        <time>2017-06-16T07:18:06Z</time>
      </trkpt>
      <trkpt lat="41.874490063637495" lon="13.465523337945342">
        <ele>601.44000200000005</ele>
        <time>2017-06-16T07:18:13Z</time>
      </trkpt>
      <trkpt lat="41.874505989253521" lon="13.465483104810119">
        <ele>600</ele>
        <time>2017-06-16T07:18:25Z</time>
      </trkpt>
      <trkpt lat="41.874528536573052" lon="13.465470699593425">
        <ele>603.35998500000005</ele>
        <time>2017-06-16T07:18:34Z</time>
      </trkpt>
      <trkpt lat="41.874547060579062" lon="13.465439015999436">
        <ele>605.29003899999998</ele>
        <time>2017-06-16T07:18:45Z</time>
      </trkpt>
      <trkpt lat="41.874580085277557" lon="13.465505735948682">
        <ele>605.76995799999997</ele>
        <time>2017-06-16T07:18:58Z</time>
      </trkpt>
      <trkpt lat="41.874583018943667" lon="13.465497940778732">
        <ele>607.21002199999998</ele>
        <time>2017-06-16T07:19:06Z</time>
      </trkpt>
      <trkpt lat="41.874598525464535" lon="13.465429209172726">
        <ele>608.64996299999996</ele>
        <time>2017-06-16T07:19:18Z</time>
      </trkpt>
      <trkpt lat="41.874603638425469" lon="13.465418061241508">
        <ele>608.64996299999996</ele>
        <time>2017-06-16T07:19:21Z</time>
      </trkpt>
      <trkpt lat="41.874640434980392" lon="13.465365339070559">
        <ele>610.57000700000003</ele>
        <time>2017-06-16T07:19:33Z</time>
      </trkpt>
      <trkpt lat="41.874644458293915" lon="13.465285459533334">
        <ele>611.54003899999998</ele>
        <time>2017-06-16T07:19:45Z</time>
      </trkpt>
      <trkpt lat="41.874662730842829" lon="13.46520222723484">
        <ele>613.46002199999998</ele>
        <time>2017-06-16T07:19:58Z</time>
      </trkpt>
      <trkpt lat="41.874712435528636" lon="13.465196778997779">
        <ele>613.94000200000005</ele>
        <time>2017-06-16T07:20:18Z</time>
      </trkpt>
      <trkpt lat="41.874742023646832" lon="13.465146068483591">
        <ele>616.82000700000003</ele>
        <time>2017-06-16T07:20:33Z</time>
      </trkpt>
      <trkpt lat="41.874816874042153" lon="13.465107092633843">
        <ele>618.75</ele>
        <time>2017-06-16T07:20:47Z</time>
      </trkpt>
      <trkpt lat="41.874853419139981" lon="13.465071804821491">
        <ele>619.22997999999995</ele>
        <time>2017-06-16T07:21:00Z</time>
      </trkpt>
      <trkpt lat="41.874871775507927" lon="13.465083874762058">
        <ele>619.71002199999998</ele>
        <time>2017-06-16T07:21:16Z</time>
      </trkpt>
      <trkpt lat="41.874867919832468" lon="13.465187139809132">
        <ele>621.63000499999998</ele>
        <time>2017-06-16T07:21:33Z</time>
      </trkpt>
      <trkpt lat="41.874852664768696" lon="13.465272635221481">
        <ele>622.59002699999996</ele>
        <time>2017-06-16T07:21:46Z</time>
      </trkpt>
      <trkpt lat="41.874864734709263" lon="13.465362992137671">
        <ele>623.54998799999998</ele>
        <time>2017-06-16T07:22:00Z</time>
      </trkpt>
      <trkpt lat="41.874907482415438" lon="13.465374894440174">
        <ele>624.50994900000001</ele>
        <time>2017-06-16T07:22:11Z</time>
      </trkpt>
      <trkpt lat="41.874984260648489" lon="13.465298200026155">
        <ele>626.92004399999996</ele>
        <time>2017-06-16T07:22:26Z</time>
      </trkpt>
      <trkpt lat="41.875061960890889" lon="13.465257296338677">
        <ele>628.839966</ele>
        <time>2017-06-16T07:22:39Z</time>
      </trkpt>
      <trkpt lat="41.875194730237126" lon="13.465184541419148">
        <ele>630.76000999999997</ele>
        <time>2017-06-16T07:22:54Z</time>
      </trkpt>
      <trkpt lat="41.875305119901896" lon="13.465171298012137">
        <ele>633.169983</ele>
        <time>2017-06-16T07:23:08Z</time>
      </trkpt>
      <trkpt lat="41.875388268381357" lon="13.465154869481921">
        <ele>634.60998500000005</ele>
        <time>2017-06-16T07:23:20Z</time>
      </trkpt>
      <trkpt lat="41.875381227582693" lon="13.465186301618814">
        <ele>635.57000700000003</ele>
        <time>2017-06-16T07:23:40Z</time>
      </trkpt>
      <trkpt lat="41.875344263389707" lon="13.465297194197774">
        <ele>637.00994900000001</ele>
        <time>2017-06-16T07:23:55Z</time>
      </trkpt>
      <trkpt lat="41.87533613294363" lon="13.465394675731659">
        <ele>637.96997099999999</ele>
        <time>2017-06-16T07:24:12Z</time>
      </trkpt>
      <trkpt lat="41.875340826809406" lon="13.465482434257865">
        <ele>639.89001499999995</ele>
        <time>2017-06-16T07:24:24Z</time>
      </trkpt>
      <trkpt lat="41.875359602272511" lon="13.465552004054189">
        <ele>641.82000700000003</ele>
        <time>2017-06-16T07:24:36Z</time>
      </trkpt>
      <trkpt lat="41.875445516780019" lon="13.465524762868881">
        <ele>643.73999000000003</ele>
        <time>2017-06-16T07:24:52Z</time>
      </trkpt>
      <trkpt lat="41.875514164566994" lon="13.465476566925645">
        <ele>645.17999299999997</ele>
        <time>2017-06-16T07:25:04Z</time>
      </trkpt>
      <trkpt lat="41.875559594482183" lon="13.46544848755002">
        <ele>646.13995399999999</ele>
        <time>2017-06-16T07:25:17Z</time>
      </trkpt>
      <trkpt lat="41.875639138743281" lon="13.465400962159038">
        <ele>648.07000700000003</ele>
        <time>2017-06-16T07:25:30Z</time>
      </trkpt>
      <trkpt lat="41.875688340514898" lon="13.465346563607454">
        <ele>649.50994900000001</ele>
        <time>2017-06-16T07:25:44Z</time>
      </trkpt>
      <trkpt lat="41.875708708539605" lon="13.465396016836166">
        <ele>650.46997099999999</ele>
        <time>2017-06-16T07:25:56Z</time>
      </trkpt>
      <trkpt lat="41.875730082392693" lon="13.465498527511954">
        <ele>652.86999500000002</ele>
        <time>2017-06-16T07:26:11Z</time>
      </trkpt>
      <trkpt lat="41.875765789300203" lon="13.465520069003105">
        <ele>652.86999500000002</ele>
        <time>2017-06-16T07:26:25Z</time>
      </trkpt>
      <trkpt lat="41.875808369368315" lon="13.465534234419465">
        <ele>654.79998799999998</ele>
        <time>2017-06-16T07:26:37Z</time>
      </trkpt>
      <trkpt lat="41.875877687707543" lon="13.465564073994756">
        <ele>655.76000999999997</ele>
        <time>2017-06-16T07:26:52Z</time>
      </trkpt>
      <trkpt lat="41.875920686870813" lon="13.465639008209109">
        <ele>657.67999299999997</ele>
        <time>2017-06-16T07:27:05Z</time>
      </trkpt>
      <trkpt lat="41.875969218090177" lon="13.465695334598422">
        <ele>659.12005599999998</ele>
        <time>2017-06-16T07:27:17Z</time>
      </trkpt>
      <trkpt lat="41.875999309122562" lon="13.465815028175712">
        <ele>660.55999799999995</ele>
        <time>2017-06-16T07:27:26Z</time>
      </trkpt>
      <trkpt lat="41.876090839505196" lon="13.465917203575373">
        <ele>661.03997800000002</ele>
        <time>2017-06-16T07:27:37Z</time>
      </trkpt>
      <trkpt lat="41.876162337139249" lon="13.465936565771699">
        <ele>662.00994900000001</ele>
        <time>2017-06-16T07:27:51Z</time>
      </trkpt>
      <trkpt lat="41.876163510605693" lon="13.465918879956007">
        <ele>662.00994900000001</ele>
        <time>2017-06-16T07:28:11Z</time>
      </trkpt>
      <trkpt lat="41.876156385987997" lon="13.465935559943318">
        <ele>661.52002000000005</ele>
        <time>2017-06-16T07:28:28Z</time>
      </trkpt>
      <trkpt lat="41.876150434836745" lon="13.465890465304255">
        <ele>662.00994900000001</ele>
        <time>2017-06-16T07:28:38Z</time>
      </trkpt>
      <trkpt lat="41.876100478693843" lon="13.465673541650176">
        <ele>660.55999799999995</ele>
        <time>2017-06-16T07:28:53Z</time>
      </trkpt>
      <trkpt lat="41.876133922487497" lon="13.465419737622142">
        <ele>659.12005599999998</ele>
        <time>2017-06-16T07:29:12Z</time>
      </trkpt>
      <trkpt lat="41.876194691285491" lon="13.465249165892601">
        <ele>658.160034</ele>
        <time>2017-06-16T07:29:28Z</time>
      </trkpt>
      <trkpt lat="41.876182705163956" lon="13.465263331308961">
        <ele>658.160034</ele>
        <time>2017-06-16T07:29:47Z</time>
      </trkpt>
      <trkpt lat="41.876215310767293" lon="13.465328961610794">
        <ele>658.160034</ele>
        <time>2017-06-16T07:30:02Z</time>
      </trkpt>
      <trkpt lat="41.876229979097843" lon="13.46533952280879">
        <ele>659.59997599999997</ele>
        <time>2017-06-16T07:30:10Z</time>
      </trkpt>
      <trkpt lat="41.876214388757944" lon="13.465320998802781">
        <ele>659.59997599999997</ele>
        <time>2017-06-16T07:30:16Z</time>
      </trkpt>
      <trkpt lat="41.876175999641418" lon="13.465349581092596">
        <ele>658.160034</ele>
        <time>2017-06-16T07:30:20Z</time>
      </trkpt>
      <trkpt lat="41.876146495342255" lon="13.465591901913285">
        <ele>659.59997599999997</ele>
        <time>2017-06-16T07:30:35Z</time>
      </trkpt>
      <trkpt lat="41.876165186986327" lon="13.465806059539318">
        <ele>661.52002000000005</ele>
        <time>2017-06-16T07:30:49Z</time>
      </trkpt>
      <trkpt lat="41.876239785924554" lon="13.466069586575031">
        <ele>663.92999299999997</ele>
        <time>2017-06-16T07:31:07Z</time>
      </trkpt>
      <trkpt lat="41.876313965767622" lon="13.466288102790713">
        <ele>664.89001499999995</ele>
        <time>2017-06-16T07:31:23Z</time>
      </trkpt>
      <trkpt lat="41.876354617998004" lon="13.466359097510576">
        <ele>665.85003700000004</ele>
        <time>2017-06-16T07:31:30Z</time>
      </trkpt>
      <trkpt lat="41.876403316855431" lon="13.466525729745626">
        <ele>666.80999799999995</ele>
        <time>2017-06-16T07:31:41Z</time>
      </trkpt>
      <trkpt lat="41.876487387344241" lon="13.466710215434432">
        <ele>667.77002000000005</ele>
        <time>2017-06-16T07:31:56Z</time>
      </trkpt>
      <trkpt lat="41.87651127576828" lon="13.46677316352725">
        <ele>668.24993900000004</ele>
        <time>2017-06-16T07:32:09Z</time>
      </trkpt>
      <trkpt lat="41.876506414264441" lon="13.466772492974997">
        <ele>668.24993900000004</ele>
        <time>2017-06-16T07:32:11Z</time>
      </trkpt>
      <trkpt lat="41.876528961583972" lon="13.466794872656465">
        <ele>668.72997999999995</ele>
        <time>2017-06-16T07:32:15Z</time>
      </trkpt>
      <trkpt lat="41.876585120335221" lon="13.466833010315895">
        <ele>669.22003199999995</ele>
        <time>2017-06-16T07:32:26Z</time>
      </trkpt>
      <trkpt lat="41.876622838899493" lon="13.466853210702538">
        <ele>669.22003199999995</ele>
        <time>2017-06-16T07:32:31Z</time>
      </trkpt>
      <trkpt lat="41.876634992659092" lon="13.466784730553627">
        <ele>671.13995399999999</ele>
        <time>2017-06-16T07:32:40Z</time>
      </trkpt>
      <trkpt lat="41.876703137531877" lon="13.466720441356301">
        <ele>672.57995600000004</ele>
        <time>2017-06-16T07:32:51Z</time>
      </trkpt>
      <trkpt lat="41.876782178878784" lon="13.46669496037066">
        <ele>674.5</ele>
        <time>2017-06-16T07:33:03Z</time>
      </trkpt>
      <trkpt lat="41.876816125586629" lon="13.466655230149627">
        <ele>675.46002199999998</ele>
        <time>2017-06-16T07:33:10Z</time>
      </trkpt>
      <trkpt lat="41.876853425055742" lon="13.466598065569997">
        <ele>676.90997300000004</ele>
        <time>2017-06-16T07:33:23Z</time>
      </trkpt>
      <trkpt lat="41.876877564936876" lon="13.466611560434103">
        <ele>675.94000200000005</ele>
        <time>2017-06-16T07:33:28Z</time>
      </trkpt>
      <trkpt lat="41.876885863021016" lon="13.466626731678843">
        <ele>676.90997300000004</ele>
        <time>2017-06-16T07:33:30Z</time>
      </trkpt>
      <trkpt lat="41.87690413556993" lon="13.46663486212492">
        <ele>678.35003700000004</ele>
        <time>2017-06-16T07:33:33Z</time>
      </trkpt>
      <trkpt lat="41.87692416831851" lon="13.46663829870522">
        <ele>679.79003899999998</ele>
        <time>2017-06-16T07:33:41Z</time>
      </trkpt>
      <trkpt lat="41.876887120306492" lon="13.466515336185694">
        <ele>679.79003899999998</ele>
        <time>2017-06-16T07:33:55Z</time>
      </trkpt>
      <trkpt lat="41.876837834715843" lon="13.466328922659159">
        <ele>680.74993900000004</ele>
        <time>2017-06-16T07:34:09Z</time>
      </trkpt>
      <trkpt lat="41.876814868301153" lon="13.466254910454154">
        <ele>680.74993900000004</ele>
        <time>2017-06-16T07:34:25Z</time>
      </trkpt>
      <trkpt lat="41.876798691228032" lon="13.466109065338969">
        <ele>682.19000200000005</ele>
        <time>2017-06-16T07:34:35Z</time>
      </trkpt>
      <trkpt lat="41.876813611015677" lon="13.465982163324952">
        <ele>682.669983</ele>
        <time>2017-06-16T07:34:44Z</time>
      </trkpt>
      <trkpt lat="41.876860465854406" lon="13.466009991243482">
        <ele>683.14996299999996</ele>
        <time>2017-06-16T07:34:56Z</time>
      </trkpt>
      <trkpt lat="41.87685820274055" lon="13.466019965708256">
        <ele>683.14996299999996</ele>
        <time>2017-06-16T07:35:00Z</time>
      </trkpt>
      <trkpt lat="41.876922994852066" lon="13.466065814718604">
        <ele>684.12005599999998</ele>
        <time>2017-06-16T07:35:08Z</time>
      </trkpt>
      <trkpt lat="41.877040592953563" lon="13.466062294319272">
        <ele>686.52002000000005</ele>
        <time>2017-06-16T07:35:21Z</time>
      </trkpt>
      <trkpt lat="41.877126423642039" lon="13.465998005121946">
        <ele>688.92004399999996</ele>
        <time>2017-06-16T07:35:34Z</time>
      </trkpt>
      <trkpt lat="41.877212002873421" lon="13.465945115312934">
        <ele>691.80999799999995</ele>
        <time>2017-06-16T07:35:47Z</time>
      </trkpt>
      <trkpt lat="41.877303700894117" lon="13.465900858864188">
        <ele>693.72997999999995</ele>
        <time>2017-06-16T07:36:00Z</time>
      </trkpt>
      <trkpt lat="41.87738542445004" lon="13.465870264917612">
        <ele>695.169983</ele>
        <time>2017-06-16T07:36:12Z</time>
      </trkpt>
      <trkpt lat="41.877435883507133" lon="13.465817626565695">
        <ele>696.60998500000005</ele>
        <time>2017-06-16T07:36:24Z</time>
      </trkpt>
      <trkpt lat="41.877484163269401" lon="13.465788122266531">
        <ele>697.57000700000003</ele>
        <time>2017-06-16T07:36:35Z</time>
      </trkpt>
      <trkpt lat="41.877484833821654" lon="13.465793989598751">
        <ele>699.5</ele>
        <time>2017-06-16T07:36:49Z</time>
      </trkpt>
      <trkpt lat="41.877510817721486" lon="13.465782003477216">
        <ele>699.97997999999995</ele>
        <time>2017-06-16T07:37:01Z</time>
      </trkpt>
      <trkpt lat="41.877538897097111" lon="13.465781416743994">
        <ele>699.97997999999995</ele>
        <time>2017-06-16T07:37:09Z</time>
      </trkpt>
      <trkpt lat="41.877575861290097" lon="13.465727688744664">
        <ele>699.97997999999995</ele>
        <time>2017-06-16T07:37:14Z</time>
      </trkpt>
      <trkpt lat="41.877670828253031" lon="13.465666500851512">
        <ele>701.42004399999996</ele>
        <time>2017-06-16T07:37:27Z</time>
      </trkpt>
      <trkpt lat="41.877808040007949" lon="13.465543538331985">
        <ele>701.90002400000003</ele>
        <time>2017-06-16T07:37:40Z</time>
      </trkpt>
      <trkpt lat="41.877935193479061" lon="13.465463574975729">
        <ele>703.339966</ele>
        <time>2017-06-16T07:37:53Z</time>
      </trkpt>
      <trkpt lat="41.877948939800262" lon="13.465453181415796">
        <ele>703.339966</ele>
        <time>2017-06-16T07:37:55Z</time>
      </trkpt>
      <trkpt lat="41.877999566495419" lon="13.465396519750357">
        <ele>702.37994400000002</ele>
        <time>2017-06-16T07:38:01Z</time>
      </trkpt>
      <trkpt lat="41.878025298938155" lon="13.465371541678905">
        <ele>702.37994400000002</ele>
        <time>2017-06-16T07:38:04Z</time>
      </trkpt>
      <trkpt lat="41.878195786848664" lon="13.465335499495268">
        <ele>700.94000200000005</ele>
        <time>2017-06-16T07:38:19Z</time>
      </trkpt>
      <trkpt lat="41.878294022753835" lon="13.465313538908958">
        <ele>699.97997999999995</ele>
        <time>2017-06-16T07:38:32Z</time>
      </trkpt>
      <trkpt lat="41.878302739933133" lon="13.465313790366054">
        <ele>698.53002900000001</ele>
        <time>2017-06-16T07:38:46Z</time>
      </trkpt>
      <trkpt lat="41.878297962248325" lon="13.465308509767056">
        <ele>699.97997999999995</ele>
        <time>2017-06-16T07:38:48Z</time>
      </trkpt>
      <trkpt lat="41.878296285867691" lon="13.465294931083918">
        <ele>699.97997999999995</ele>
        <time>2017-06-16T07:38:53Z</time>
      </trkpt>
      <trkpt lat="41.878339871764183" lon="13.465249836444855">
        <ele>698.53002900000001</ele>
        <time>2017-06-16T07:38:58Z</time>
      </trkpt>
      <trkpt lat="41.878393264487386" lon="13.465196108445525">
        <ele>698.53002900000001</ele>
        <time>2017-06-16T07:39:03Z</time>
      </trkpt>
      <trkpt lat="41.878514969721437" lon="13.465208262205124">
        <ele>698.53002900000001</ele>
        <time>2017-06-16T07:39:13Z</time>
      </trkpt>
      <trkpt lat="41.878573140129447" lon="13.465240867808461">
        <ele>698.53002900000001</ele>
        <time>2017-06-16T07:39:19Z</time>
      </trkpt>
      <trkpt lat="41.878621336072683" lon="13.465232737362385">
        <ele>699.97997999999995</ele>
        <time>2017-06-16T07:39:23Z</time>
      </trkpt>
      <trkpt lat="41.878786040470004" lon="13.465217063203454">
        <ele>700.94000200000005</ele>
        <time>2017-06-16T07:39:36Z</time>
      </trkpt>
      <trkpt lat="41.878870027139783" lon="13.465195102617145">
        <ele>700.94000200000005</ele>
        <time>2017-06-16T07:39:43Z</time>
      </trkpt>
      <trkpt lat="41.878997934982181" lon="13.465145230293274">
        <ele>701.90002400000003</ele>
        <time>2017-06-16T07:39:57Z</time>
      </trkpt>
      <trkpt lat="41.8791747931391" lon="13.465117234736681">
        <ele>702.37994400000002</ele>
        <time>2017-06-16T07:40:10Z</time>
      </trkpt>
      <trkpt lat="41.879217876121402" lon="13.465120419859886">
        <ele>702.86004600000001</ele>
        <time>2017-06-16T07:40:15Z</time>
      </trkpt>
      <trkpt lat="41.879415940493345" lon="13.465211614966393">
        <ele>703.82000700000003</ele>
        <time>2017-06-16T07:40:32Z</time>
      </trkpt>
      <trkpt lat="41.879522139206529" lon="13.465284537523985">
        <ele>704.77996800000005</ele>
        <time>2017-06-16T07:40:44Z</time>
      </trkpt>
      <trkpt lat="41.879686759784818" lon="13.465449661016464">
        <ele>706.22997999999995</ele>
        <time>2017-06-16T07:40:59Z</time>
      </trkpt>
      <trkpt lat="41.879875436425209" lon="13.465611515566707">
        <ele>707.19000200000005</ele>
        <time>2017-06-16T07:41:15Z</time>
      </trkpt>
      <trkpt lat="41.879909634590149" lon="13.465627105906606">
        <ele>707.669983</ele>
        <time>2017-06-16T07:41:19Z</time>
      </trkpt>
      <trkpt lat="41.879954058676958" lon="13.465687120333314">
        <ele>708.14996299999996</ele>
        <time>2017-06-16T07:41:23Z</time>
      </trkpt>
      <trkpt lat="41.880171233788133" lon="13.465957939624786">
        <ele>709.59002699999996</ele>
        <time>2017-06-16T07:41:45Z</time>
      </trkpt>
      <trkpt lat="41.880380026996136" lon="13.46606807783246">
        <ele>711.03002900000001</ele>
        <time>2017-06-16T07:42:03Z</time>
      </trkpt>
      <trkpt lat="41.880603488534689" lon="13.466068413108587">
        <ele>711.99005099999999</ele>
        <time>2017-06-16T07:42:20Z</time>
      </trkpt>
      <trkpt lat="41.880667693912983" lon="13.466036058962345">
        <ele>712.46997099999999</ele>
        <time>2017-06-16T07:42:27Z</time>
      </trkpt>
      <trkpt lat="41.880782190710306" lon="13.465985096991062">
        <ele>712.94995100000006</ele>
        <time>2017-06-16T07:42:35Z</time>
      </trkpt>
      <trkpt lat="41.880971537902951" lon="13.465847969055176">
        <ele>714.40002400000003</ele>
        <time>2017-06-16T07:42:52Z</time>
      </trkpt>
      <trkpt lat="41.881126938387752" lon="13.465682761743665">
        <ele>714.87994400000002</ele>
        <time>2017-06-16T07:43:08Z</time>
      </trkpt>
      <trkpt lat="41.881276974454522" lon="13.465530797839165">
        <ele>716.32000700000003</ele>
        <time>2017-06-16T07:43:23Z</time>
      </trkpt>
      <trkpt lat="41.881430028006434" lon="13.465386629104614">
        <ele>717.27996800000005</ele>
        <time>2017-06-16T07:43:39Z</time>
      </trkpt>
      <trkpt lat="41.881509907543659" lon="13.46531898714602">
        <ele>718.23999000000003</ele>
        <time>2017-06-16T07:43:55Z</time>
      </trkpt>
      <trkpt lat="41.881536561995745" lon="13.465314460918307">
        <ele>718.72003199999995</ele>
        <time>2017-06-16T07:44:02Z</time>
      </trkpt>
      <trkpt lat="41.881582997739315" lon="13.465326111763716">
        <ele>718.72003199999995</ele>
        <time>2017-06-16T07:44:06Z</time>
      </trkpt>
      <trkpt lat="41.881603030487895" lon="13.465333236381412">
        <ele>718.72003199999995</ele>
        <time>2017-06-16T07:44:08Z</time>
      </trkpt>
      <trkpt lat="41.881709899753332" lon="13.465342959389091">
        <ele>719.20001200000002</ele>
        <time>2017-06-16T07:44:17Z</time>
      </trkpt>
      <trkpt lat="41.881828587502241" lon="13.465390903875232">
        <ele>720.160034</ele>
        <time>2017-06-16T07:44:28Z</time>
      </trkpt>
      <trkpt lat="41.881998237222433" lon="13.465486289933324">
        <ele>721.13000499999998</ele>
        <time>2017-06-16T07:44:42Z</time>
      </trkpt>
      <trkpt lat="41.88220770098269" lon="13.465546136721969">
        <ele>722.09002699999996</ele>
        <time>2017-06-16T07:44:58Z</time>
      </trkpt>
      <trkpt lat="41.88234063796699" lon="13.465507412329316">
        <ele>722.57000700000003</ele>
        <time>2017-06-16T07:45:10Z</time>
      </trkpt>
      <trkpt lat="41.882388917729259" lon="13.465452762320638">
        <ele>723.04998799999998</ele>
        <time>2017-06-16T07:45:17Z</time>
      </trkpt>
      <trkpt lat="41.882520597428083" lon="13.465297361835837">
        <ele>724.01000999999997</ele>
        <time>2017-06-16T07:45:30Z</time>
      </trkpt>
      <trkpt lat="41.882601231336594" lon="13.465062668547034">
        <ele>725.44995100000006</ele>
        <time>2017-06-16T07:45:46Z</time>
      </trkpt>
      <trkpt lat="41.882625287398696" lon="13.464859826490283">
        <ele>726.40997300000004</ele>
        <time>2017-06-16T07:46:00Z</time>
      </trkpt>
      <trkpt lat="41.882633836939931" lon="13.464603507891297">
        <ele>726.40997300000004</ele>
        <time>2017-06-16T07:46:16Z</time>
      </trkpt>
      <trkpt lat="41.882636938244104" lon="13.464377615600824">
        <ele>727.36999500000002</ele>
        <time>2017-06-16T07:46:28Z</time>
      </trkpt>
      <trkpt lat="41.882661581039429" lon="13.464268231764436">
        <ele>727.86004600000001</ele>
        <time>2017-06-16T07:46:36Z</time>
      </trkpt>
      <trkpt lat="41.882672728970647" lon="13.464239230379462">
        <ele>727.86004600000001</ele>
        <time>2017-06-16T07:46:38Z</time>
      </trkpt>
      <trkpt lat="41.882707765325904" lon="13.46418047323823">
        <ele>727.86004600000001</ele>
        <time>2017-06-16T07:46:42Z</time>
      </trkpt>
      <trkpt lat="41.882917732000351" lon="13.464074609801173">
        <ele>728.82000700000003</ele>
        <time>2017-06-16T07:47:00Z</time>
      </trkpt>
      <trkpt lat="41.883083023130894" lon="13.464135881513357">
        <ele>729.77996800000005</ele>
        <time>2017-06-16T07:47:14Z</time>
      </trkpt>
      <trkpt lat="41.883241105824709" lon="13.464224059134722">
        <ele>730.73999000000003</ele>
        <time>2017-06-16T07:47:28Z</time>
      </trkpt>
      <trkpt lat="41.883446127176285" lon="13.464353894814849">
        <ele>731.70001200000002</ele>
        <time>2017-06-16T07:47:45Z</time>
      </trkpt>
      <trkpt lat="41.883619213476777" lon="13.464454980567098">
        <ele>733.14001499999995</ele>
        <time>2017-06-16T07:48:00Z</time>
      </trkpt>
      <trkpt lat="41.883785761892796" lon="13.464530669152737">
        <ele>734.10003700000004</ele>
        <time>2017-06-16T07:48:15Z</time>
      </trkpt>
      <trkpt lat="41.883950801566243" lon="13.464582972228527">
        <ele>735.07000700000003</ele>
        <time>2017-06-16T07:48:30Z</time>
      </trkpt>
      <trkpt lat="41.884131766855717" lon="13.464537961408496">
        <ele>736.03002900000001</ele>
        <time>2017-06-16T07:48:45Z</time>
      </trkpt>
      <trkpt lat="41.884324802085757" lon="13.464514827355742">
        <ele>736.51000999999997</ele>
        <time>2017-06-16T07:49:01Z</time>
      </trkpt>
      <trkpt lat="41.884518759325147" lon="13.464461099356413">
        <ele>737.94995100000006</ele>
        <time>2017-06-16T07:49:17Z</time>
      </trkpt>
      <trkpt lat="41.884701736271381" lon="13.464453723281622">
        <ele>738.90997300000004</ele>
        <time>2017-06-16T07:49:32Z</time>
      </trkpt>
      <trkpt lat="41.884924778714776" lon="13.464414663612843">
        <ele>740.34997599999997</ele>
        <time>2017-06-16T07:49:50Z</time>
      </trkpt>
      <trkpt lat="41.885169865563512" lon="13.464499237015843">
        <ele>742.27996800000005</ele>
        <time>2017-06-16T07:50:09Z</time>
      </trkpt>
      <trkpt lat="41.885310262441635" lon="13.464682968333364">
        <ele>743.23999000000003</ele>
        <time>2017-06-16T07:50:26Z</time>
      </trkpt>
      <trkpt lat="41.885291486978531" lon="13.464710460975766">
        <ele>743.23999000000003</ele>
        <time>2017-06-16T07:50:36Z</time>
      </trkpt>
      <trkpt lat="41.885316465049982" lon="13.464696714654565">
        <ele>743.23999000000003</ele>
        <time>2017-06-16T07:50:42Z</time>
      </trkpt>
      <trkpt lat="41.885443534702063" lon="13.464778102934361">
        <ele>744.20001200000002</ele>
        <time>2017-06-16T07:50:55Z</time>
      </trkpt>
      <trkpt lat="41.885616788640618" lon="13.46484943293035">
        <ele>745.160034</ele>
        <time>2017-06-16T07:51:10Z</time>
      </trkpt>
      <trkpt lat="41.885822480544448" lon="13.464925708249211">
        <ele>746.60003700000004</ele>
        <time>2017-06-16T07:51:26Z</time>
      </trkpt>
      <trkpt lat="41.885865479707718" lon="13.465009024366736">
        <ele>747.07995600000004</ele>
        <time>2017-06-16T07:51:33Z</time>
      </trkpt>
      <trkpt lat="41.88583136536181" lon="13.46511036157608">
        <ele>748.51995799999997</ele>
        <time>2017-06-16T07:51:40Z</time>
      </trkpt>
      <trkpt lat="41.885591140016913" lon="13.465108517557383">
        <ele>749.96997099999999</ele>
        <time>2017-06-16T07:51:58Z</time>
      </trkpt>
      <trkpt lat="41.885440181940794" lon="13.465079767629504">
        <ele>750.92999299999997</ele>
        <time>2017-06-16T07:52:11Z</time>
      </trkpt>
      <trkpt lat="41.885258965194225" lon="13.465035511180758">
        <ele>751.40997300000004</ele>
        <time>2017-06-16T07:52:25Z</time>
      </trkpt>
      <trkpt lat="41.885098619386554" lon="13.464993769302964">
        <ele>752.84997599999997</ele>
        <time>2017-06-16T07:52:39Z</time>
      </trkpt>
      <trkpt lat="41.884914133697748" lon="13.465001732110977">
        <ele>753.80999799999995</ele>
        <time>2017-06-16T07:52:54Z</time>
      </trkpt>
      <trkpt lat="41.884728474542499" lon="13.465048838406801">
        <ele>755.25</ele>
        <time>2017-06-16T07:53:10Z</time>
      </trkpt>
      <trkpt lat="41.884563937783241" lon="13.465137183666229">
        <ele>756.20996100000002</ele>
        <time>2017-06-16T07:53:25Z</time>
      </trkpt>
      <trkpt lat="41.884427312761545" lon="13.465246735140681">
        <ele>757.660034</ele>
        <time>2017-06-16T07:53:39Z</time>
      </trkpt>
      <trkpt lat="41.884290268644691" lon="13.465359471738338">
        <ele>758.14001499999995</ele>
        <time>2017-06-16T07:53:53Z</time>
      </trkpt>
      <trkpt lat="41.884125228971243" lon="13.465498359873891">
        <ele>759.57995600000004</ele>
        <time>2017-06-16T07:54:08Z</time>
      </trkpt>
      <trkpt lat="41.883973181247711" lon="13.465630207210779">
        <ele>761.01995799999997</ele>
        <time>2017-06-16T07:54:24Z</time>
      </trkpt>
      <trkpt lat="41.883952561765909" lon="13.46563171595335">
        <ele>761.01995799999997</ele>
        <time>2017-06-16T07:54:26Z</time>
      </trkpt>
      <trkpt lat="41.883790036663413" lon="13.465690640732646">
        <ele>762.46002199999998</ele>
        <time>2017-06-16T07:54:41Z</time>
      </trkpt>
      <trkpt lat="41.883613765239716" lon="13.465767838060856">
        <ele>763.419983</ele>
        <time>2017-06-16T07:54:57Z</time>
      </trkpt>
      <trkpt lat="41.883500693365932" lon="13.46587847918272">
        <ele>764.39001499999995</ele>
        <time>2017-06-16T07:55:12Z</time>
      </trkpt>
      <trkpt lat="41.883396925404668" lon="13.466069335117936">
        <ele>765.830017</ele>
        <time>2017-06-16T07:55:28Z</time>
      </trkpt>
      <trkpt lat="41.883288715034723" lon="13.466263879090548">
        <ele>767.27002000000005</ele>
        <time>2017-06-16T07:55:44Z</time>
      </trkpt>
      <trkpt lat="41.883213864639401" lon="13.466395894065499">
        <ele>768.23004200000003</ele>
        <time>2017-06-16T07:55:57Z</time>
      </trkpt>
      <trkpt lat="41.883122082799673" lon="13.46656403504312">
        <ele>769.669983</ele>
        <time>2017-06-16T07:56:11Z</time>
      </trkpt>
      <trkpt lat="41.882994761690497" lon="13.466741060838103">
        <ele>770.63000499999998</ele>
        <time>2017-06-16T07:56:26Z</time>
      </trkpt>
      <trkpt lat="41.882867692038417" lon="13.466861005872488">
        <ele>771.60003700000004</ele>
        <time>2017-06-16T07:56:41Z</time>
      </trkpt>
      <trkpt lat="41.882764929905534" lon="13.466917835175991">
        <ele>772.55999799999995</ele>
        <time>2017-06-16T07:56:51Z</time>
      </trkpt>
      <trkpt lat="41.882746405899525" lon="13.466960918158293">
        <ele>772.55999799999995</ele>
        <time>2017-06-16T07:57:05Z</time>
      </trkpt>
      <trkpt lat="41.882747327908874" lon="13.466955469921231">
        <ele>772.55999799999995</ele>
        <time>2017-06-16T07:57:11Z</time>
      </trkpt>
      <trkpt lat="41.882560914382339" lon="13.467009114101529">
        <ele>773.51995799999997</ele>
        <time>2017-06-16T07:57:27Z</time>
      </trkpt>
      <trkpt lat="41.882389085367322" lon="13.467106092721224">
        <ele>774.96002199999998</ele>
        <time>2017-06-16T07:57:43Z</time>
      </trkpt>
      <trkpt lat="41.882344661280513" lon="13.467161664739251">
        <ele>775.44000200000005</ele>
        <time>2017-06-16T07:57:49Z</time>
      </trkpt>
      <trkpt lat="41.882301662117243" lon="13.467225534841418">
        <ele>775.44000200000005</ele>
        <time>2017-06-16T07:57:54Z</time>
      </trkpt>
      <trkpt lat="41.882195379585028" lon="13.467434914782643">
        <ele>776.88000499999998</ele>
        <time>2017-06-16T07:58:09Z</time>
      </trkpt>
      <trkpt lat="41.882106699049473" lon="13.46760624088347">
        <ele>777.84002699999996</ele>
        <time>2017-06-16T07:58:23Z</time>
      </trkpt>
      <trkpt lat="41.882051797583699" lon="13.467695927247405">
        <ele>777.84002699999996</ele>
        <time>2017-06-16T07:58:32Z</time>
      </trkpt>
      <trkpt lat="41.882011564448476" lon="13.467652089893818">
        <ele>777.84002699999996</ele>
        <time>2017-06-16T07:58:41Z</time>
      </trkpt>
      <trkpt lat="41.881956662982702" lon="13.467756863683462">
        <ele>778.31994599999996</ele>
        <time>2017-06-16T07:58:50Z</time>
      </trkpt>
      <trkpt lat="41.881840405985713" lon="13.467993987724185">
        <ele>779.77002000000005</ele>
        <time>2017-06-16T07:59:08Z</time>
      </trkpt>
      <trkpt lat="41.881882734596729" lon="13.468228932470083">
        <ele>780.73004200000003</ele>
        <time>2017-06-16T07:59:23Z</time>
      </trkpt>
      <trkpt lat="41.881932774558663" lon="13.468246199190617">
        <ele>781.20996100000002</ele>
        <time>2017-06-16T07:59:29Z</time>
      </trkpt>
      <trkpt lat="41.881972337141633" lon="13.468226166442037">
        <ele>781.69006300000001</ele>
        <time>2017-06-16T07:59:33Z</time>
      </trkpt>
      <trkpt lat="41.882083062082529" lon="13.468005303293467">
        <ele>782.64996299999996</ele>
        <time>2017-06-16T07:59:49Z</time>
      </trkpt>
      <trkpt lat="41.882177861407399" lon="13.467813525348902">
        <ele>783.60998500000005</ele>
        <time>2017-06-16T08:00:04Z</time>
      </trkpt>
      <trkpt lat="41.882281294092536" lon="13.46764337271452">
        <ele>784.089966</ele>
        <time>2017-06-16T08:00:19Z</time>
      </trkpt>
      <trkpt lat="41.882322700694203" lon="13.467625770717859">
        <ele>784.57000700000003</ele>
        <time>2017-06-16T08:00:36Z</time>
      </trkpt>
      <trkpt lat="41.882325801998377" lon="13.467625183984637">
        <ele>784.57000700000003</ele>
        <time>2017-06-16T08:00:37Z</time>
      </trkpt>
      <trkpt lat="41.882476340979338" lon="13.467509262263775">
        <ele>785.53002900000001</ele>
        <time>2017-06-16T08:00:53Z</time>
      </trkpt>
      <trkpt lat="41.882511964067817" lon="13.467492163181305">
        <ele>786.01995799999997</ele>
        <time>2017-06-16T08:00:57Z</time>
      </trkpt>
      <trkpt lat="41.882648337632418" lon="13.467534240335226">
        <ele>786.5</ele>
        <time>2017-06-16T08:01:09Z</time>
      </trkpt>
      <trkpt lat="41.882636183872819" lon="13.467638259753585">
        <ele>787.46002199999998</ele>
        <time>2017-06-16T08:01:20Z</time>
      </trkpt>
      <trkpt lat="41.882637441158295" lon="13.467629961669445">
        <ele>787.46002199999998</ele>
        <time>2017-06-16T08:01:30Z</time>
      </trkpt>
      <trkpt lat="41.882652612403035" lon="13.46758327446878">
        <ele>787.46002199999998</ele>
        <time>2017-06-16T08:01:43Z</time>
      </trkpt>
      <trkpt lat="41.882663341239095" lon="13.467636164277792">
        <ele>787.46002199999998</ele>
        <time>2017-06-16T08:01:48Z</time>
      </trkpt>
      <trkpt lat="41.882726037874818" lon="13.467627111822367">
        <ele>789.38000499999998</ele>
        <time>2017-06-16T08:01:59Z</time>
      </trkpt>
      <trkpt lat="41.882793260738254" lon="13.467621663585305">
        <ele>790.34002699999996</ele>
        <time>2017-06-16T08:02:11Z</time>
      </trkpt>
      <trkpt lat="41.882816981524229" lon="13.467633398249745">
        <ele>792.26000999999997</ele>
        <time>2017-06-16T08:02:16Z</time>
      </trkpt>
      <trkpt lat="41.882793260738254" lon="13.467693915590644">
        <ele>793.21997099999999</ele>
        <time>2017-06-16T08:02:28Z</time>
      </trkpt>
      <trkpt lat="41.882769037038088" lon="13.467714618891478">
        <ele>793.70996100000002</ele>
        <time>2017-06-16T08:02:33Z</time>
      </trkpt>
      <trkpt lat="41.882688486948609" lon="13.46786867827177">
        <ele>795.14996299999996</ele>
        <time>2017-06-16T08:02:47Z</time>
      </trkpt>
      <trkpt lat="41.88261573202908" lon="13.46797320060432">
        <ele>796.589966</ele>
        <time>2017-06-16T08:03:01Z</time>
      </trkpt>
      <trkpt lat="41.88257466070354" lon="13.467998262494802">
        <ele>796.589966</ele>
        <time>2017-06-16T08:03:24Z</time>
      </trkpt>
      <trkpt lat="41.882552867755294" lon="13.467983594164252">
        <ele>796.589966</ele>
        <time>2017-06-16T08:03:48Z</time>
      </trkpt>
      <trkpt lat="41.882564183324575" lon="13.467933302745223">
        <ele>797.07000700000003</ele>
        <time>2017-06-16T08:04:15Z</time>
      </trkpt>
      <trkpt lat="41.882565021514893" lon="13.467965824529529">
        <ele>797.07000700000003</ele>
        <time>2017-06-16T08:04:31Z</time>
      </trkpt>
      <trkpt lat="41.882558735087514" lon="13.468025671318173">
        <ele>797.07000700000003</ele>
        <time>2017-06-16T08:04:57Z</time>
      </trkpt>
      <trkpt lat="41.882492937147617" lon="13.468123404309154">
        <ele>798.51000999999997</ele>
        <time>2017-06-16T08:05:09Z</time>
      </trkpt>
      <trkpt lat="41.882488662377" lon="13.468147292733192">
        <ele>798.51000999999997</ele>
        <time>2017-06-16T08:05:11Z</time>
      </trkpt>
      <trkpt lat="41.88246812671423" lon="13.468262879177928">
        <ele>800.44000200000005</ele>
        <time>2017-06-16T08:05:20Z</time>
      </trkpt>
      <trkpt lat="41.882472401484847" lon="13.468333035707474">
        <ele>801.40002400000003</ele>
        <time>2017-06-16T08:05:26Z</time>
      </trkpt>
      <trkpt lat="41.882468294352293" lon="13.468458009883761">
        <ele>802.84002699999996</ele>
        <time>2017-06-16T08:05:39Z</time>
      </trkpt>
      <trkpt lat="41.882447674870491" lon="13.468572422862053">
        <ele>804.76000999999997</ele>
        <time>2017-06-16T08:05:52Z</time>
      </trkpt>
      <trkpt lat="41.882441975176334" lon="13.468616176396608">
        <ele>805.71997099999999</ele>
        <time>2017-06-16T08:05:56Z</time>
      </trkpt>
      <trkpt lat="41.88244516029954" lon="13.46866412088275">
        <ele>805.71997099999999</ele>
        <time>2017-06-16T08:06:09Z</time>
      </trkpt>
      <trkpt lat="41.882414314895868" lon="13.468781132251024">
        <ele>807.160034</ele>
        <time>2017-06-16T08:06:20Z</time>
      </trkpt>
      <trkpt lat="41.88238363713026" lon="13.468857826665044">
        <ele>808.60998500000005</ele>
        <time>2017-06-16T08:06:34Z</time>
      </trkpt>
      <trkpt lat="41.882382882758975" lon="13.468857323750854">
        <ele>809.089966</ele>
        <time>2017-06-16T08:06:40Z</time>
      </trkpt>
      <trkpt lat="41.882367627695203" lon="13.468917338177562">
        <ele>809.089966</ele>
        <time>2017-06-16T08:06:54Z</time>
      </trkpt>
      <trkpt lat="41.882359581068158" lon="13.468911135569215">
        <ele>809.089966</ele>
        <time>2017-06-16T08:07:15Z</time>
      </trkpt>
      <trkpt lat="41.88233963213861" lon="13.468926474452019">
        <ele>809.089966</ele>
        <time>2017-06-16T08:07:43Z</time>
      </trkpt>
      <trkpt lat="41.882363436743617" lon="13.468900574371219">
        <ele>809.089966</ele>
        <time>2017-06-16T08:08:13Z</time>
      </trkpt>
      <trkpt lat="41.88235773704946" lon="13.468901077285409">
        <ele>809.089966</ele>
        <time>2017-06-16T08:08:46Z</time>
      </trkpt>
      <trkpt lat="41.882359497249126" lon="13.468896383419633">
        <ele>809.089966</ele>
        <time>2017-06-16T08:09:05Z</time>
      </trkpt>
      <trkpt lat="41.882366538047791" lon="13.468891019001603">
        <ele>809.089966</ele>
        <time>2017-06-16T08:09:35Z</time>
      </trkpt>
      <trkpt lat="41.882374165579677" lon="13.468908118084073">
        <ele>809.089966</ele>
        <time>2017-06-16T08:09:49Z</time>
      </trkpt>
      <trkpt lat="41.882399898022413" lon="13.468905100598931">
        <ele>809.089966</ele>
        <time>2017-06-16T08:10:16Z</time>
      </trkpt>
      <trkpt lat="41.882395371794701" lon="13.468872075900435">
        <ele>809.089966</ele>
        <time>2017-06-16T08:10:37Z</time>
      </trkpt>
      <trkpt lat="41.882387073710561" lon="13.468825137242675">
        <ele>809.089966</ele>
        <time>2017-06-16T08:10:50Z</time>
      </trkpt>
      <trkpt lat="41.882381541654468" lon="13.468811139464378">
        <ele>809.089966</ele>
        <time>2017-06-16T08:11:15Z</time>
      </trkpt>
      <trkpt lat="41.882369220256805" lon="13.468792866915464">
        <ele>809.089966</ele>
        <time>2017-06-16T08:11:32Z</time>
      </trkpt>
      <trkpt lat="41.882361341267824" lon="13.468789178878069">
        <ele>809.089966</ele>
        <time>2017-06-16T08:11:49Z</time>
      </trkpt>
      <trkpt lat="41.882376931607723" lon="13.468742240220308">
        <ele>808.13000499999998</ele>
        <time>2017-06-16T08:12:13Z</time>
      </trkpt>
      <trkpt lat="41.882413141429424" lon="13.468672335147858">
        <ele>806.67999299999997</ele>
        <time>2017-06-16T08:12:28Z</time>
      </trkpt>
      <trkpt lat="41.882460163906217" lon="13.468604860827327">
        <ele>807.64001499999995</ele>
        <time>2017-06-16T08:12:36Z</time>
      </trkpt>
      <trkpt lat="41.882475838065147" lon="13.468607040122151">
        <ele>808.13000499999998</ele>
        <time>2017-06-16T08:12:40Z</time>
      </trkpt>
      <trkpt lat="41.882530739530921" lon="13.468591533601284">
        <ele>810.53002900000001</ele>
        <time>2017-06-16T08:12:52Z</time>
      </trkpt>
      <trkpt lat="41.88255856744945" lon="13.468594383448362">
        <ele>812.93005400000004</ele>
        <time>2017-06-16T08:13:04Z</time>
      </trkpt>
      <trkpt lat="41.882572984322906" lon="13.468646937981248">
        <ele>815.34002699999996</ele>
        <time>2017-06-16T08:13:14Z</time>
      </trkpt>
      <trkpt lat="41.882603159174323" lon="13.468671999871731">
        <ele>815.81994599999996</ele>
        <time>2017-06-16T08:13:26Z</time>
      </trkpt>
      <trkpt lat="41.882613888010383" lon="13.468664037063718">
        <ele>818.70001200000002</ele>
        <time>2017-06-16T08:13:31Z</time>
      </trkpt>
      <trkpt lat="41.882638530805707" lon="13.468618858605623">
        <ele>819.17999299999997</ele>
        <time>2017-06-16T08:13:43Z</time>
      </trkpt>
      <trkpt lat="41.88267239369452" lon="13.468530932441354">
        <ele>819.660034</ele>
        <time>2017-06-16T08:13:53Z</time>
      </trkpt>
      <trkpt lat="41.882711788639426" lon="13.468410903587937">
        <ele>821.580017</ele>
        <time>2017-06-16T08:14:06Z</time>
      </trkpt>
      <trkpt lat="41.88275009393692" lon="13.468375699594617">
        <ele>823.03002900000001</ele>
        <time>2017-06-16T08:14:14Z</time>
      </trkpt>
      <trkpt lat="41.882748836651444" lon="13.468404365703464">
        <ele>823.51000999999997</ele>
        <time>2017-06-16T08:14:17Z</time>
      </trkpt>
      <trkpt lat="41.882748501375318" lon="13.468448119238019">
        <ele>823.98999000000003</ele>
        <time>2017-06-16T08:14:22Z</time>
      </trkpt>
      <trkpt lat="41.882746070623398" lon="13.468534536659718">
        <ele>824.94995100000006</ele>
        <time>2017-06-16T08:14:33Z</time>
      </trkpt>
      <trkpt lat="41.882757637649775" lon="13.468554569408298">
        <ele>825.90997300000004</ele>
        <time>2017-06-16T08:14:36Z</time>
      </trkpt>
      <trkpt lat="41.882754787802696" lon="13.468582984060049">
        <ele>826.38995399999999</ele>
        <time>2017-06-16T08:14:42Z</time>
      </trkpt>
      <trkpt lat="41.882768198847771" lon="13.468648614361882">
        <ele>829.27002000000005</ele>
        <time>2017-06-16T08:14:52Z</time>
      </trkpt>
      <trkpt lat="41.882791584357619" lon="13.468578876927495">
        <ele>830.23999000000003</ele>
        <time>2017-06-16T08:15:04Z</time>
      </trkpt>
      <trkpt lat="41.882805163040757" lon="13.468553312122822">
        <ele>830.71997099999999</ele>
        <time>2017-06-16T08:15:07Z</time>
      </trkpt>
      <trkpt lat="41.882840199396014" lon="13.468460189178586">
        <ele>832.64001499999995</ele>
        <time>2017-06-16T08:15:19Z</time>
      </trkpt>
      <trkpt lat="41.882873140275478" lon="13.468405036255717">
        <ele>834.080017</ele>
        <time>2017-06-16T08:15:27Z</time>
      </trkpt>
      <trkpt lat="41.882954109460115" lon="13.468324989080429">
        <ele>835.03997800000002</ele>
        <time>2017-06-16T08:15:40Z</time>
      </trkpt>
      <trkpt lat="41.882997276261449" lon="13.46829573623836">
        <ele>835.51995799999997</ele>
        <time>2017-06-16T08:15:46Z</time>
      </trkpt>
      <trkpt lat="41.883064666762948" lon="13.468285007402301">
        <ele>838.40997300000004</ele>
        <time>2017-06-16T08:15:57Z</time>
      </trkpt>
      <trkpt lat="41.883121579885483" lon="13.468271512538195">
        <ele>839.36999500000002</ele>
        <time>2017-06-16T08:16:06Z</time>
      </trkpt>
      <trkpt lat="41.883182683959603" lon="13.468256089836359">
        <ele>841.28997800000002</ele>
        <time>2017-06-16T08:16:17Z</time>
      </trkpt>
      <trkpt lat="41.883198358118534" lon="13.4683230612427">
        <ele>842.73004200000003</ele>
        <time>2017-06-16T08:16:27Z</time>
      </trkpt>
      <trkpt lat="41.883234065026045" lon="13.4683299344033">
        <ele>844.17999299999997</ele>
        <time>2017-06-16T08:16:43Z</time>
      </trkpt>
      <trkpt lat="41.883245296776295" lon="13.468324905261397">
        <ele>844.17999299999997</ele>
        <time>2017-06-16T08:16:45Z</time>
      </trkpt>
      <trkpt lat="41.883319895714521" lon="13.46831426024437">
        <ele>846.10003700000004</ele>
        <time>2017-06-16T08:16:56Z</time>
      </trkpt>
      <trkpt lat="41.883391393348575" lon="13.468337310478091">
        <ele>847.53997800000002</ele>
        <time>2017-06-16T08:17:07Z</time>
      </trkpt>
      <trkpt lat="41.883457275107503" lon="13.468362623825669">
        <ele>849.45996100000002</ele>
        <time>2017-06-16T08:17:17Z</time>
      </trkpt>
      <trkpt lat="41.88353480771184" lon="13.468395061790943">
        <ele>851.38000499999998</ele>
        <time>2017-06-16T08:17:29Z</time>
      </trkpt>
      <trkpt lat="41.88354603946209" lon="13.468393385410309">
        <ele>851.86999500000002</ele>
        <time>2017-06-16T08:17:31Z</time>
      </trkpt>
      <trkpt lat="41.883631199598312" lon="13.468448119238019">
        <ele>853.78997800000002</ele>
        <time>2017-06-16T08:17:44Z</time>
      </trkpt>
      <trkpt lat="41.8837009370327" lon="13.468507966026664">
        <ele>855.71002199999998</ele>
        <time>2017-06-16T08:17:57Z</time>
      </trkpt>
      <trkpt lat="41.88370487652719" lon="13.468511402606964">
        <ele>856.67004399999996</ele>
        <time>2017-06-16T08:17:58Z</time>
      </trkpt>
      <trkpt lat="41.883733123540878" lon="13.468540068715811">
        <ele>857.14996299999996</ele>
        <time>2017-06-16T08:18:03Z</time>
      </trkpt>
      <trkpt lat="41.883796658366919" lon="13.468604441732168">
        <ele>859.080017</ele>
        <time>2017-06-16T08:18:15Z</time>
      </trkpt>
      <trkpt lat="41.883851140737534" lon="13.468628162518144">
        <ele>860.51995799999997</ele>
        <time>2017-06-16T08:18:24Z</time>
      </trkpt>
      <trkpt lat="41.88387000001967" lon="13.468634365126491">
        <ele>861</ele>
        <time>2017-06-16T08:18:27Z</time>
      </trkpt>
      <trkpt lat="41.883892463520169" lon="13.468646099790931">
        <ele>861.47997999999995</ele>
        <time>2017-06-16T08:18:30Z</time>
      </trkpt>
      <trkpt lat="41.88391350209713" lon="13.46866462379694">
        <ele>861.47997999999995</ele>
        <time>2017-06-16T08:18:33Z</time>
      </trkpt>
      <trkpt lat="41.883979886770248" lon="13.468730924651027">
        <ele>862.919983</ele>
        <time>2017-06-16T08:18:45Z</time>
      </trkpt>
      <trkpt lat="41.88400050625205" lon="13.468749364838004">
        <ele>863.88000499999998</ele>
        <time>2017-06-16T08:18:49Z</time>
      </trkpt>
      <trkpt lat="41.884083235636353" lon="13.468821868300438">
        <ele>865.80004899999994</ele>
        <time>2017-06-16T08:19:01Z</time>
      </trkpt>
      <trkpt lat="41.884156074374914" lon="13.468890180811286">
        <ele>867.73004200000003</ele>
        <time>2017-06-16T08:19:13Z</time>
      </trkpt>
      <trkpt lat="41.884216172620654" lon="13.468949859961867">
        <ele>869.17004399999996</ele>
        <time>2017-06-16T08:19:24Z</time>
      </trkpt>
      <trkpt lat="41.884257160127163" lon="13.469001324847341">
        <ele>870.13000499999998</ele>
        <time>2017-06-16T08:19:32Z</time>
      </trkpt>
      <trkpt lat="41.884316923096776" lon="13.469080785289407">
        <ele>871.57000700000003</ele>
        <time>2017-06-16T08:19:44Z</time>
      </trkpt>
      <trkpt lat="41.884337961673737" lon="13.469109702855349">
        <ele>872.53002900000001</ele>
        <time>2017-06-16T08:19:48Z</time>
      </trkpt>
      <trkpt lat="41.884356234222651" lon="13.469130825251341">
        <ele>872.53002900000001</ele>
        <time>2017-06-16T08:19:51Z</time>
      </trkpt>
      <trkpt lat="41.884399736300111" lon="13.469189163297415">
        <ele>873.97997999999995</ele>
        <time>2017-06-16T08:19:58Z</time>
      </trkpt>
      <trkpt lat="41.884424965828657" lon="13.469234760850668">
        <ele>874.94000200000005</ele>
        <time>2017-06-16T08:20:03Z</time>
      </trkpt>
      <trkpt lat="41.884441310539842" lon="13.469266528263688">
        <ele>875.419983</ele>
        <time>2017-06-16T08:20:07Z</time>
      </trkpt>
      <trkpt lat="41.884512724354863" lon="13.469364931806922">
        <ele>876.85998500000005</ele>
        <time>2017-06-16T08:20:20Z</time>
      </trkpt>
      <trkpt lat="41.884564189240336" lon="13.469454534351826">
        <ele>878.77996800000005</ele>
        <time>2017-06-16T08:20:31Z</time>
      </trkpt>
      <trkpt lat="41.88461909070611" lon="13.46955101005733">
        <ele>880.71002199999998</ele>
        <time>2017-06-16T08:20:42Z</time>
      </trkpt>
      <trkpt lat="41.884657228365541" lon="13.469625692814589">
        <ele>881.67004399999996</ele>
        <time>2017-06-16T08:20:51Z</time>
      </trkpt>
      <trkpt lat="41.884725540876389" lon="13.469741782173514">
        <ele>883.10998500000005</ele>
        <time>2017-06-16T08:21:03Z</time>
      </trkpt>
      <trkpt lat="41.884778933599591" lon="13.4698168002069">
        <ele>883.589966</ele>
        <time>2017-06-16T08:21:12Z</time>
      </trkpt>
      <trkpt lat="41.884813969954848" lon="13.469906486570835">
        <ele>884.54998799999998</ele>
        <time>2017-06-16T08:21:24Z</time>
      </trkpt>
      <trkpt lat="41.884812628850341" lon="13.469899110496044">
        <ele>884.54998799999998</ele>
        <time>2017-06-16T08:21:35Z</time>
      </trkpt>
      <trkpt lat="41.884826626628637" lon="13.469918975606561">
        <ele>884.54998799999998</ele>
        <time>2017-06-16T08:21:38Z</time>
      </trkpt>
      <trkpt lat="41.884922264143825" lon="13.470030035823584">
        <ele>886.95001200000002</ele>
        <time>2017-06-16T08:21:53Z</time>
      </trkpt>
      <trkpt lat="41.884929304942489" lon="13.470024922862649">
        <ele>886.95001200000002</ele>
        <time>2017-06-16T08:21:54Z</time>
      </trkpt>
      <trkpt lat="41.884950762614608" lon="13.470002291724086">
        <ele>886.95001200000002</ele>
        <time>2017-06-16T08:21:57Z</time>
      </trkpt>
      <trkpt lat="41.885004071518779" lon="13.469995502382517">
        <ele>887.910034</ele>
        <time>2017-06-16T08:22:03Z</time>
      </trkpt>
      <trkpt lat="41.885058805346489" lon="13.469990724697709">
        <ele>887.910034</ele>
        <time>2017-06-16T08:22:09Z</time>
      </trkpt>
      <trkpt lat="41.885114628821611" lon="13.469950323924422">
        <ele>888.40002400000003</ele>
        <time>2017-06-16T08:22:24Z</time>
      </trkpt>
      <trkpt lat="41.885147904977202" lon="13.469973960891366">
        <ele>888.88000499999998</ele>
        <time>2017-06-16T08:22:51Z</time>
      </trkpt>
      <trkpt lat="41.885121501982212" lon="13.4700015373528">
        <ele>888.88000499999998</ele>
        <time>2017-06-16T08:22:56Z</time>
      </trkpt>
      <trkpt lat="41.885067438706756" lon="13.470045877620578">
        <ele>888.88000499999998</ele>
        <time>2017-06-16T08:23:02Z</time>
      </trkpt>
      <trkpt lat="41.885062661021948" lon="13.470128858461976">
        <ele>888.88000499999998</ele>
        <time>2017-06-16T08:23:07Z</time>
      </trkpt>
      <trkpt lat="41.885070204734802" lon="13.47028786316514">
        <ele>889.84002699999996</ele>
        <time>2017-06-16T08:23:21Z</time>
      </trkpt>
      <trkpt lat="41.885068025439978" lon="13.470336059108377">
        <ele>889.84002699999996</ele>
        <time>2017-06-16T08:23:37Z</time>
      </trkpt>
      <trkpt lat="41.885049836710095" lon="13.470418620854616">
        <ele>891.27996800000005</ele>
        <time>2017-06-16T08:23:50Z</time>
      </trkpt>
      <trkpt lat="41.88499828800559" lon="13.470474360510707">
        <ele>894.15997300000004</ele>
        <time>2017-06-16T08:24:00Z</time>
      </trkpt>
      <trkpt lat="41.884970040991902" lon="13.47046866081655">
        <ele>895.11999500000002</ele>
        <time>2017-06-16T08:24:03Z</time>
      </trkpt>
      <trkpt lat="41.884937938302755" lon="13.470484921708703">
        <ele>896.089966</ele>
        <time>2017-06-16T08:24:07Z</time>
      </trkpt>
      <trkpt lat="41.884944392368197" lon="13.470516270026565">
        <ele>896.57000700000003</ele>
        <time>2017-06-16T08:24:11Z</time>
      </trkpt>
      <trkpt lat="41.884988564997911" lon="13.470566226169467">
        <ele>898.48999000000003</ele>
        <time>2017-06-16T08:24:23Z</time>
      </trkpt>
      <trkpt lat="41.884932573884726" lon="13.470610566437244">
        <ele>899.93005400000004</ele>
        <time>2017-06-16T08:24:34Z</time>
      </trkpt>
      <trkpt lat="41.884888736531138" lon="13.470633868128061">
        <ele>901.84997599999997</ele>
        <time>2017-06-16T08:24:43Z</time>
      </trkpt>
      <trkpt lat="41.884905332699418" lon="13.470650296658278">
        <ele>902.82000700000003</ele>
        <time>2017-06-16T08:24:46Z</time>
      </trkpt>
      <trkpt lat="41.884937435388565" lon="13.470706958323717">
        <ele>904.25994900000001</ele>
        <time>2017-06-16T08:24:53Z</time>
      </trkpt>
      <trkpt lat="41.884920671582222" lon="13.470760434865952">
        <ele>905.21997099999999</ele>
        <time>2017-06-16T08:25:00Z</time>
      </trkpt>
      <trkpt lat="41.884782034903765" lon="13.470804439857602">
        <ele>905.70001200000002</ele>
        <time>2017-06-16T08:25:13Z</time>
      </trkpt>
      <trkpt lat="41.884660497307777" lon="13.470890941098332">
        <ele>906.17999299999997</ele>
        <time>2017-06-16T08:25:26Z</time>
      </trkpt>
      <trkpt lat="41.884525967761874" lon="13.470953973010182">
        <ele>907.61999500000002</ele>
        <time>2017-06-16T08:25:40Z</time>
      </trkpt>
      <trkpt lat="41.884474335238338" lon="13.4709807112813">
        <ele>907.14001499999995</ele>
        <time>2017-06-16T08:25:46Z</time>
      </trkpt>
      <trkpt lat="41.884388672187924" lon="13.471093699336052">
        <ele>907.61999500000002</ele>
        <time>2017-06-16T08:26:00Z</time>
      </trkpt>
      <trkpt lat="41.884382972493768" lon="13.471098309382796">
        <ele>907.14001499999995</ele>
        <time>2017-06-16T08:26:01Z</time>
      </trkpt>
      <trkpt lat="41.884340811520815" lon="13.471166286617517">
        <ele>908.580017</ele>
        <time>2017-06-16T08:26:12Z</time>
      </trkpt>
      <trkpt lat="41.884345589205623" lon="13.471187241375446">
        <ele>908.580017</ele>
        <time>2017-06-16T08:26:23Z</time>
      </trkpt>
      <trkpt lat="41.88430979847908" lon="13.47118841484189">
        <ele>908.580017</ele>
        <time>2017-06-16T08:26:51Z</time>
      </trkpt>
      <trkpt lat="41.884295968338847" lon="13.471193360164762">
        <ele>908.580017</ele>
        <time>2017-06-16T08:27:22Z</time>
      </trkpt>
      <trkpt lat="41.884347936138511" lon="13.471214566379786">
        <ele>909.05999799999995</ele>
        <time>2017-06-16T08:28:06Z</time>
      </trkpt>
      <trkpt lat="41.884340895339847" lon="13.471208615228534">
        <ele>909.05999799999995</ele>
        <time>2017-06-16T08:28:53Z</time>
      </trkpt>
      <trkpt lat="41.884311139583588" lon="13.471201825886965">
        <ele>909.05999799999995</ele>
        <time>2017-06-16T08:29:34Z</time>
      </trkpt>
      <trkpt lat="41.884284066036344" lon="13.471175171434879">
        <ele>909.05999799999995</ele>
        <time>2017-06-16T08:30:17Z</time>
      </trkpt>
      <trkpt lat="41.884282641112804" lon="13.471195371821523">
        <ele>909.54003899999998</ele>
        <time>2017-06-16T08:31:03Z</time>
      </trkpt>
      <trkpt lat="41.88430636189878" lon="13.47121280618012">
        <ele>909.54003899999998</ele>
        <time>2017-06-16T08:31:37Z</time>
      </trkpt>
      <trkpt lat="41.884300075471401" lon="13.471195623278618">
        <ele>909.54003899999998</ele>
        <time>2017-06-16T08:32:17Z</time>
      </trkpt>
      <trkpt lat="41.884278198704123" lon="13.471175758168101">
        <ele>910.03002900000001</ele>
        <time>2017-06-16T08:33:01Z</time>
      </trkpt>
      <trkpt lat="41.884278198704123" lon="13.471151199191809">
        <ele>910.03002900000001</ele>
        <time>2017-06-16T08:33:42Z</time>
      </trkpt>
      <trkpt lat="41.88428096473217" lon="13.471161173656583">
        <ele>910.03002900000001</ele>
        <time>2017-06-16T08:34:18Z</time>
      </trkpt>
      <trkpt lat="41.884282724931836" lon="13.471177686005831">
        <ele>910.51000999999997</ele>
        <time>2017-06-16T08:34:51Z</time>
      </trkpt>
      <trkpt lat="41.88427166081965" lon="13.471179362386465">
        <ele>910.51000999999997</ele>
        <time>2017-06-16T08:35:27Z</time>
      </trkpt>
      <trkpt lat="41.884271577000618" lon="13.471163101494312">
        <ele>909.54003899999998</ele>
        <time>2017-06-16T08:36:10Z</time>
      </trkpt>
      <trkpt lat="41.884265039116144" lon="13.47117668017745">
        <ele>910.03002900000001</ele>
        <time>2017-06-16T08:36:44Z</time>
      </trkpt>
      <trkpt lat="41.884313067421317" lon="13.471180703490973">
        <ele>910.51000999999997</ele>
        <time>2017-06-16T08:37:11Z</time>
      </trkpt>
      <trkpt lat="41.88432639464736" lon="13.471193360164762">
        <ele>910.51000999999997</ele>
        <time>2017-06-16T08:37:41Z</time>
      </trkpt>
      <trkpt lat="41.884313235059381" lon="13.471163269132376">
        <ele>910.51000999999997</ele>
        <time>2017-06-16T08:38:15Z</time>
      </trkpt>
      <trkpt lat="41.884293286129832" lon="13.471201658248901">
        <ele>909.54003899999998</ele>
        <time>2017-06-16T08:38:55Z</time>
      </trkpt>
      <trkpt lat="41.884271241724491" lon="13.471193192526698">
        <ele>909.54003899999998</ele>
        <time>2017-06-16T08:39:31Z</time>
      </trkpt>
      <trkpt lat="41.884270235896111" lon="13.471157066524029">
        <ele>910.03002900000001</ele>
        <time>2017-06-16T08:40:21Z</time>
      </trkpt>
      <trkpt lat="41.884314576163888" lon="13.471170896664262">
        <ele>910.03002900000001</ele>
        <time>2017-06-16T08:41:07Z</time>
      </trkpt>
      <trkpt lat="41.884286915883422" lon="13.471171231940389">
        <ele>910.51000999999997</ele>
        <time>2017-06-16T08:41:53Z</time>
      </trkpt>
      <trkpt lat="41.884286496788263" lon="13.471180284395814">
        <ele>910.51000999999997</ele>
        <time>2017-06-16T08:42:41Z</time>
      </trkpt>
      <trkpt lat="41.884317174553871" lon="13.471180871129036">
        <ele>910.51000999999997</ele>
        <time>2017-06-16T08:43:14Z</time>
      </trkpt>
      <trkpt lat="41.884328741580248" lon="13.471182882785797">
        <ele>910.51000999999997</ele>
        <time>2017-06-16T08:43:46Z</time>
      </trkpt>
      <trkpt lat="41.884322371333838" lon="13.471171064302325">
        <ele>910.51000999999997</ele>
        <time>2017-06-16T08:44:24Z</time>
      </trkpt>
      <trkpt lat="41.884353132918477" lon="13.471172908321023">
        <ele>910.51000999999997</ele>
        <time>2017-06-16T08:44:52Z</time>
      </trkpt>
      <trkpt lat="41.884358581155539" lon="13.471164777874947">
        <ele>910.51000999999997</ele>
        <time>2017-06-16T08:45:13Z</time>
      </trkpt>
      <trkpt lat="41.884382469579577" lon="13.47108188085258">
        <ele>909.05999799999995</ele>
        <time>2017-06-16T08:45:21Z</time>
      </trkpt>
      <trkpt lat="41.884415159001946" lon="13.471034020185471">
        <ele>909.05999799999995</ele>
        <time>2017-06-16T08:45:26Z</time>
      </trkpt>
      <trkpt lat="41.884536109864712" lon="13.470907369628549">
        <ele>910.51000999999997</ele>
        <time>2017-06-16T08:45:42Z</time>
      </trkpt>
      <trkpt lat="41.884653372690082" lon="13.47087518312037">
        <ele>910.51000999999997</ele>
        <time>2017-06-16T08:45:55Z</time>
      </trkpt>
      <trkpt lat="41.884817741811275" lon="13.470812235027552">
        <ele>908.10003700000004</ele>
        <time>2017-06-16T08:46:12Z</time>
      </trkpt>
      <trkpt lat="41.884923437610269" lon="13.470842577517033">
        <ele>907.61999500000002</ele>
        <time>2017-06-16T08:46:25Z</time>
      </trkpt>
      <trkpt lat="41.885068695992231" lon="13.470915164798498">
        <ele>907.61999500000002</ele>
        <time>2017-06-16T08:46:38Z</time>
      </trkpt>
      <trkpt lat="41.885244967415929" lon="13.470973670482635">
        <ele>907.14001499999995</ele>
        <time>2017-06-16T08:46:52Z</time>
      </trkpt>
      <trkpt lat="41.885350830852985" lon="13.470989093184471">
        <ele>907.14001499999995</ele>
        <time>2017-06-16T08:47:01Z</time>
      </trkpt>
      <trkpt lat="41.885544871911407" lon="13.470990769565105">
        <ele>906.65997300000004</ele>
        <time>2017-06-16T08:47:18Z</time>
      </trkpt>
      <trkpt lat="41.885583763942122" lon="13.470972832292318">
        <ele>906.17999299999997</ele>
        <time>2017-06-16T08:47:25Z</time>
      </trkpt>
      <trkpt lat="41.885705133900046" lon="13.470993535593152">
        <ele>906.17999299999997</ele>
        <time>2017-06-16T08:47:38Z</time>
      </trkpt>
      <trkpt lat="41.885772859677672" lon="13.47098708152771">
        <ele>906.17999299999997</ele>
        <time>2017-06-16T08:47:45Z</time>
      </trkpt>
      <trkpt lat="41.885927924886346" lon="13.471019519492984">
        <ele>906.17999299999997</ele>
        <time>2017-06-16T08:47:58Z</time>
      </trkpt>
      <trkpt lat="41.885969331488013" lon="13.471033098176122">
        <ele>907.61999500000002</ele>
        <time>2017-06-16T08:48:02Z</time>
      </trkpt>
      <trkpt lat="41.886081900447607" lon="13.471101494506001">
        <ele>908.580017</ele>
        <time>2017-06-16T08:48:17Z</time>
      </trkpt>
      <trkpt lat="41.88613043166697" lon="13.471178272739053">
        <ele>910.03002900000001</ele>
        <time>2017-06-16T08:48:28Z</time>
      </trkpt>
      <trkpt lat="41.88604929484427" lon="13.471276005730033">
        <ele>910.03002900000001</ele>
        <time>2017-06-16T08:48:41Z</time>
      </trkpt>
      <trkpt lat="41.88599606975913" lon="13.471371559426188">
        <ele>910.98999000000003</ele>
        <time>2017-06-16T08:48:50Z</time>
      </trkpt>
      <trkpt lat="41.885971091687679" lon="13.471491504460573">
        <ele>911.47003199999995</ele>
        <time>2017-06-16T08:48:59Z</time>
      </trkpt>
      <trkpt lat="41.885947538539767" lon="13.471693340688944">
        <ele>911.95001200000002</ele>
        <time>2017-06-16T08:49:14Z</time>
      </trkpt>
      <trkpt lat="41.885943599045277" lon="13.471744135022163">
        <ele>911.95001200000002</ele>
        <time>2017-06-16T08:49:17Z</time>
      </trkpt>
      <trkpt lat="41.885933205485344" lon="13.471877826377749">
        <ele>910.51000999999997</ele>
        <time>2017-06-16T08:49:26Z</time>
      </trkpt>
      <trkpt lat="41.885996572673321" lon="13.472033981233835">
        <ele>908.580017</ele>
        <time>2017-06-16T08:49:40Z</time>
      </trkpt>
      <trkpt lat="41.886086007580161" lon="13.472169013693929">
        <ele>908.10003700000004</ele>
        <time>2017-06-16T08:49:53Z</time>
      </trkpt>
      <trkpt lat="41.886099670082331" lon="13.472178233787417">
        <ele>908.10003700000004</ele>
        <time>2017-06-16T08:49:55Z</time>
      </trkpt>
      <trkpt lat="41.886213328689337" lon="13.472285522148013">
        <ele>906.65997300000004</ele>
        <time>2017-06-16T08:50:09Z</time>
      </trkpt>
      <trkpt lat="41.886298907920718" lon="13.472366658970714">
        <ele>905.70001200000002</ele>
        <time>2017-06-16T08:50:16Z</time>
      </trkpt>
      <trkpt lat="41.886326484382153" lon="13.472471768036485">
        <ele>905.70001200000002</ele>
        <time>2017-06-16T08:50:29Z</time>
      </trkpt>
      <trkpt lat="41.886306870728731" lon="13.472557095810771">
        <ele>905.70001200000002</ele>
        <time>2017-06-16T08:50:55Z</time>
      </trkpt>
      <trkpt lat="41.886329837143421" lon="13.472565058618784">
        <ele>905.70001200000002</ele>
        <time>2017-06-16T08:51:13Z</time>
      </trkpt>
      <trkpt lat="41.886328579857945" lon="13.47256388515234">
        <ele>904.73999000000003</ele>
        <time>2017-06-16T08:51:31Z</time>
      </trkpt>
      <trkpt lat="41.886329837143421" lon="13.472546534612775">
        <ele>904.73999000000003</ele>
        <time>2017-06-16T08:51:36Z</time>
      </trkpt>
      <trkpt lat="41.886289017274976" lon="13.472610991448164">
        <ele>904.73999000000003</ele>
        <time>2017-06-16T08:51:48Z</time>
      </trkpt>
      <trkpt lat="41.886290861293674" lon="13.47267041914165">
        <ele>904.25994900000001</ele>
        <time>2017-06-16T08:52:00Z</time>
      </trkpt>
      <trkpt lat="41.886274516582489" lon="13.472700174897909">
        <ele>903.77996800000005</ele>
        <time>2017-06-16T08:52:03Z</time>
      </trkpt>
      <trkpt lat="41.886287424713373" lon="13.472835374996066">
        <ele>904.25994900000001</ele>
        <time>2017-06-16T08:52:15Z</time>
      </trkpt>
      <trkpt lat="41.886235540732741" lon="13.472869405522943">
        <ele>902.82000700000003</ele>
        <time>2017-06-16T08:52:23Z</time>
      </trkpt>
      <trkpt lat="41.88622816465795" lon="13.472903268411756">
        <ele>901.84997599999997</ele>
        <time>2017-06-16T08:52:25Z</time>
      </trkpt>
      <trkpt lat="41.88620176166296" lon="13.472931683063507">
        <ele>901.36999500000002</ele>
        <time>2017-06-16T08:52:28Z</time>
      </trkpt>
      <trkpt lat="41.886194637045264" lon="13.472955739125609">
        <ele>901.36999500000002</ele>
        <time>2017-06-16T08:52:30Z</time>
      </trkpt>
      <trkpt lat="41.886182064190507" lon="13.473023967817426">
        <ele>900.410034</ele>
        <time>2017-06-16T08:52:43Z</time>
      </trkpt>
      <trkpt lat="41.886285580694675" lon="13.473027488216758">
        <ele>898.97003199999995</ele>
        <time>2017-06-16T08:52:56Z</time>
      </trkpt>
      <trkpt lat="41.88642212189734" lon="13.473133435472846">
        <ele>895.60998500000005</ele>
        <time>2017-06-16T08:53:10Z</time>
      </trkpt>
      <trkpt lat="41.886564362794161" lon="13.473253883421421">
        <ele>893.67999299999997</ele>
        <time>2017-06-16T08:53:25Z</time>
      </trkpt>
      <trkpt lat="41.886575510725379" lon="13.473269138485193">
        <ele>893.67999299999997</ele>
        <time>2017-06-16T08:53:27Z</time>
      </trkpt>
      <trkpt lat="41.88667181879282" lon="13.473382461816072">
        <ele>892.23999000000003</ele>
        <time>2017-06-16T08:53:41Z</time>
      </trkpt>
      <trkpt lat="41.886786986142397" lon="13.473546495661139">
        <ele>890.80004899999994</ele>
        <time>2017-06-16T08:53:56Z</time>
      </trkpt>
      <trkpt lat="41.886899974197149" lon="13.473628638312221">
        <ele>889.84002699999996</ele>
        <time>2017-06-16T08:54:08Z</time>
      </trkpt>
      <trkpt lat="41.887000137940049" lon="13.473738692700863">
        <ele>889.84002699999996</ele>
        <time>2017-06-16T08:54:20Z</time>
      </trkpt>
      <trkpt lat="41.887078592553735" lon="13.473839778453112">
        <ele>889.84002699999996</ele>
        <time>2017-06-16T08:54:31Z</time>
      </trkpt>
      <trkpt lat="41.887097116559744" lon="13.473872467875481">
        <ele>889.84002699999996</ele>
        <time>2017-06-16T08:54:34Z</time>
      </trkpt>
      <trkpt lat="41.887201638892293" lon="13.473970200866461">
        <ele>888.88000499999998</ele>
        <time>2017-06-16T08:54:52Z</time>
      </trkpt>
      <trkpt lat="41.887184036895633" lon="13.47396676428616">
        <ele>889.84002699999996</ele>
        <time>2017-06-16T08:55:07Z</time>
      </trkpt>
      <trkpt lat="41.887192334979773" lon="13.47392376512289">
        <ele>889.35998500000005</ele>
        <time>2017-06-16T08:55:20Z</time>
      </trkpt>
      <trkpt lat="41.887212870642543" lon="13.473976235836744">
        <ele>889.35998500000005</ele>
        <time>2017-06-16T08:55:34Z</time>
      </trkpt>
      <trkpt lat="41.887218570336699" lon="13.473973637446761">
        <ele>889.35998500000005</ele>
        <time>2017-06-16T08:55:51Z</time>
      </trkpt>
      <trkpt lat="41.88719904050231" lon="13.474043207243085">
        <ele>889.35998500000005</ele>
        <time>2017-06-16T08:55:56Z</time>
      </trkpt>
      <trkpt lat="41.887191664427519" lon="13.474070783704519">
        <ele>889.35998500000005</ele>
        <time>2017-06-16T08:56:00Z</time>
      </trkpt>
      <trkpt lat="41.88724153675139" lon="13.473995765671134">
        <ele>889.35998500000005</ele>
        <time>2017-06-16T08:56:14Z</time>
      </trkpt>
      <trkpt lat="41.887251762673259" lon="13.474020659923553">
        <ele>889.35998500000005</ele>
        <time>2017-06-16T08:56:21Z</time>
      </trkpt>
      <trkpt lat="41.887201638892293" lon="13.474099868908525">
        <ele>888.88000499999998</ele>
        <time>2017-06-16T08:56:28Z</time>
      </trkpt>
      <trkpt lat="41.887174062430859" lon="13.474168097600341">
        <ele>890.32000700000003</ele>
        <time>2017-06-16T08:56:32Z</time>
      </trkpt>
      <trkpt lat="41.887116059660912" lon="13.474381919950247">
        <ele>890.80004899999994</ele>
        <time>2017-06-16T08:56:46Z</time>
      </trkpt>
      <trkpt lat="41.887117484584451" lon="13.474405640736222">
        <ele>890.80004899999994</ele>
        <time>2017-06-16T08:56:48Z</time>
      </trkpt>
      <trkpt lat="41.887162495404482" lon="13.474558526650071">
        <ele>892.23999000000003</ele>
        <time>2017-06-16T08:57:00Z</time>
      </trkpt>
      <trkpt lat="41.887294175103307" lon="13.474472695961595">
        <ele>893.20001200000002</ele>
        <time>2017-06-16T08:57:14Z</time>
      </trkpt>
      <trkpt lat="41.887357039377093" lon="13.474365994334221">
        <ele>894.15997300000004</ele>
        <time>2017-06-16T08:57:24Z</time>
      </trkpt>
      <trkpt lat="41.887472374364734" lon="13.474220987409353">
        <ele>895.60998500000005</ele>
        <time>2017-06-16T08:57:38Z</time>
      </trkpt>
      <trkpt lat="41.88747949898243" lon="13.47420908510685">
        <ele>895.60998500000005</ele>
        <time>2017-06-16T08:57:39Z</time>
      </trkpt>
      <trkpt lat="41.88751470297575" lon="13.474169271066785">
        <ele>896.089966</ele>
        <time>2017-06-16T08:57:43Z</time>
      </trkpt>
      <trkpt lat="41.887639341875911" lon="13.473995514214039">
        <ele>897.53002900000001</ele>
        <time>2017-06-16T08:58:01Z</time>
      </trkpt>
      <trkpt lat="41.887761633843184" lon="13.473815973848104">
        <ele>898.01000999999997</ele>
        <time>2017-06-16T08:58:17Z</time>
      </trkpt>
      <trkpt lat="41.887778481468558" lon="13.473787726834416">
        <ele>898.01000999999997</ele>
        <time>2017-06-16T08:58:20Z</time>
      </trkpt>
      <trkpt lat="41.887869341298938" lon="13.473673313856125">
        <ele>899.45001200000002</ele>
        <time>2017-06-16T08:58:30Z</time>
      </trkpt>
      <trkpt lat="41.888011498376727" lon="13.473557559773326">
        <ele>899.93005400000004</ele>
        <time>2017-06-16T08:58:46Z</time>
      </trkpt>
      <trkpt lat="41.888097999617457" lon="13.473500814288855">
        <ele>900.88995399999999</ele>
        <time>2017-06-16T08:58:54Z</time>
      </trkpt>
      <trkpt lat="41.888224063441157" lon="13.473390759900212">
        <ele>901.36999500000002</ele>
        <time>2017-06-16T08:59:07Z</time>
      </trkpt>
      <trkpt lat="41.888397065922618" lon="13.473291518166661">
        <ele>901.84997599999997</ele>
        <time>2017-06-16T08:59:21Z</time>
      </trkpt>
      <trkpt lat="41.888525309041142" lon="13.473211219534278">
        <ele>902.82000700000003</ele>
        <time>2017-06-16T08:59:34Z</time>
      </trkpt>
      <trkpt lat="41.888577360659838" lon="13.473207363858819">
        <ele>902.82000700000003</ele>
        <time>2017-06-16T08:59:38Z</time>
      </trkpt>
      <trkpt lat="41.888607032597065" lon="13.473201161250472">
        <ele>903.30004899999994</ele>
        <time>2017-06-16T08:59:42Z</time>
      </trkpt>
      <trkpt lat="41.888668388128281" lon="13.473278023302555">
        <ele>904.25994900000001</ele>
        <time>2017-06-16T08:59:50Z</time>
      </trkpt>
      <trkpt lat="41.888651959598064" lon="13.473391933366656">
        <ele>904.73999000000003</ele>
        <time>2017-06-16T08:59:58Z</time>
      </trkpt>
      <trkpt lat="41.888628825545311" lon="13.473475333303213">
        <ele>905.21997099999999</ele>
        <time>2017-06-16T09:00:04Z</time>
      </trkpt>
      <trkpt lat="41.888564620167017" lon="13.473663339391351">
        <ele>906.65997300000004</ele>
        <time>2017-06-16T09:00:18Z</time>
      </trkpt>
      <trkpt lat="41.888525895774364" lon="13.473857380449772">
        <ele>907.61999500000002</ele>
        <time>2017-06-16T09:00:32Z</time>
      </trkpt>
      <trkpt lat="41.888469317927957" lon="13.474061479791999">
        <ele>909.05999799999995</ele>
        <time>2017-06-16T09:00:45Z</time>
      </trkpt>
      <trkpt lat="41.888478873297572" lon="13.47408696077764">
        <ele>909.54003899999998</ele>
        <time>2017-06-16T09:00:48Z</time>
      </trkpt>
      <trkpt lat="41.8885119818151" lon="13.474190309643745">
        <ele>910.03002900000001</ele>
        <time>2017-06-16T09:00:56Z</time>
      </trkpt>
      <trkpt lat="41.888640560209751" lon="13.474289635196328">
        <ele>910.51000999999997</ele>
        <time>2017-06-16T09:01:10Z</time>
      </trkpt>
      <trkpt lat="41.888701664283872" lon="13.474320480599999">
        <ele>911.47003199999995</ele>
        <time>2017-06-16T09:01:19Z</time>
      </trkpt>
      <trkpt lat="41.888818927109241" lon="13.47437378950417">
        <ele>912.43005400000004</ele>
        <time>2017-06-16T09:01:32Z</time>
      </trkpt>
      <trkpt lat="41.888944488018751" lon="13.474408406764269">
        <ele>913.38995399999999</ele>
        <time>2017-06-16T09:01:45Z</time>
      </trkpt>
      <trkpt lat="41.88907197676599" lon="13.474466828629375">
        <ele>914.82995600000004</ele>
        <time>2017-06-16T09:01:57Z</time>
      </trkpt>
      <trkpt lat="41.889135427772999" lon="13.47449641674757">
        <ele>915.30999799999995</ele>
        <time>2017-06-16T09:02:09Z</time>
      </trkpt>
      <trkpt lat="41.889185635372996" lon="13.474512174725533">
        <ele>915.78997800000002</ele>
        <time>2017-06-16T09:02:23Z</time>
      </trkpt>
      <trkpt lat="41.889123860746622" lon="13.474490800872445">
        <ele>915.78997800000002</ele>
        <time>2017-06-16T09:02:32Z</time>
      </trkpt>
      <trkpt lat="41.889047333970666" lon="13.474466828629375">
        <ele>914.82995600000004</ele>
        <time>2017-06-16T09:02:40Z</time>
      </trkpt>
      <trkpt lat="41.888899309560657" lon="13.474379237741232">
        <ele>913.38995399999999</ele>
        <time>2017-06-16T09:02:57Z</time>
      </trkpt>
      <trkpt lat="41.88869521021843" lon="13.474303297698498">
        <ele>911.95001200000002</ele>
        <time>2017-06-16T09:03:18Z</time>
      </trkpt>
      <trkpt lat="41.888590939342976" lon="13.47424378618598">
        <ele>910.98999000000003</ele>
        <time>2017-06-16T09:03:31Z</time>
      </trkpt>
      <trkpt lat="41.888506785035133" lon="13.474225932732224">
        <ele>910.03002900000001</ele>
        <time>2017-06-16T09:03:39Z</time>
      </trkpt>
      <trkpt lat="41.888398826122284" lon="13.47435032017529">
        <ele>910.03002900000001</ele>
        <time>2017-06-16T09:03:52Z</time>
      </trkpt>
      <trkpt lat="41.888398239389062" lon="13.474444700405002">
        <ele>910.03002900000001</ele>
        <time>2017-06-16T09:03:58Z</time>
      </trkpt>
      <trkpt lat="41.888425061479211" lon="13.474510665982962">
        <ele>911.95001200000002</ele>
        <time>2017-06-16T09:04:03Z</time>
      </trkpt>
      <trkpt lat="41.888514664024115" lon="13.474727589637041">
        <ele>914.82995600000004</ele>
        <time>2017-06-16T09:04:22Z</time>
      </trkpt>
      <trkpt lat="41.888548862189054" lon="13.474833704531193">
        <ele>916.27002000000005</ele>
        <time>2017-06-16T09:04:37Z</time>
      </trkpt>
      <trkpt lat="41.88858088105917" lon="13.474915092810988">
        <ele>916.27002000000005</ele>
        <time>2017-06-16T09:04:48Z</time>
      </trkpt>
      <trkpt lat="41.888599740341306" lon="13.474973682314157">
        <ele>917.23999000000003</ele>
        <time>2017-06-16T09:04:54Z</time>
      </trkpt>
      <trkpt lat="41.888685571029782" lon="13.475111480802298">
        <ele>920.60003700000004</ele>
        <time>2017-06-16T09:05:09Z</time>
      </trkpt>
      <trkpt lat="41.888764780014753" lon="13.475203178822994">
        <ele>922.04003899999998</ele>
        <time>2017-06-16T09:05:22Z</time>
      </trkpt>
      <trkpt lat="41.888812892138958" lon="13.475238298997283">
        <ele>923.00006099999996</ele>
        <time>2017-06-16T09:05:29Z</time>
      </trkpt>
      <trkpt lat="41.888899309560657" lon="13.475298900157213">
        <ele>924.45001200000002</ele>
        <time>2017-06-16T09:05:42Z</time>
      </trkpt>
      <trkpt lat="41.888988995924592" lon="13.475335780531168">
        <ele>926.84997599999997</ele>
        <time>2017-06-16T09:05:55Z</time>
      </trkpt>
      <trkpt lat="41.889051524922252" lon="13.475395208224654">
        <ele>928.28997800000002</ele>
        <time>2017-06-16T09:06:06Z</time>
      </trkpt>
      <trkpt lat="41.889125620946288" lon="13.475448433309793">
        <ele>930.21002199999998</ele>
        <time>2017-06-16T09:06:18Z</time>
      </trkpt>
      <trkpt lat="41.889193179085851" lon="13.475489085540175">
        <ele>931.65002400000003</ele>
        <time>2017-06-16T09:06:30Z</time>
      </trkpt>
      <trkpt lat="41.889236178249121" lon="13.475534683093429">
        <ele>933.10003700000004</ele>
        <time>2017-06-16T09:06:43Z</time>
      </trkpt>
      <trkpt lat="41.889256378635764" lon="13.475536527112126">
        <ele>933.10003700000004</ele>
        <time>2017-06-16T09:07:06Z</time>
      </trkpt>
      <trkpt lat="41.889314213767648" lon="13.475542478263378">
        <ele>933.580017</ele>
        <time>2017-06-16T09:07:19Z</time>
      </trkpt>
      <trkpt lat="41.889317985624075" lon="13.475559996441007">
        <ele>933.580017</ele>
        <time>2017-06-16T09:07:34Z</time>
      </trkpt>
      <trkpt lat="41.889393338933587" lon="13.475645072758198">
        <ele>934.05999799999995</ele>
        <time>2017-06-16T09:07:47Z</time>
      </trkpt>
      <trkpt lat="41.889387974515557" lon="13.475640630349517">
        <ele>934.05999799999995</ele>
        <time>2017-06-16T09:07:51Z</time>
      </trkpt>
      <trkpt lat="41.889366265386343" lon="13.475621016696095">
        <ele>934.05999799999995</ele>
        <time>2017-06-16T09:08:04Z</time>
      </trkpt>
      <trkpt lat="41.889359727501869" lon="13.475607940927148">
        <ele>934.05999799999995</ele>
        <time>2017-06-16T09:08:30Z</time>
      </trkpt>
      <trkpt lat="41.8893719650805" lon="13.475604169070721">
        <ele>934.05999799999995</ele>
        <time>2017-06-16T09:08:35Z</time>
      </trkpt>
      <trkpt lat="41.889410521835089" lon="13.47565689124167">
        <ele>934.05999799999995</ele>
        <time>2017-06-16T09:08:39Z</time>
      </trkpt>
      <trkpt lat="41.889421418309212" lon="13.475692262873054">
        <ele>934.54003899999998</ele>
        <time>2017-06-16T09:08:42Z</time>
      </trkpt>
      <trkpt lat="41.88943206332624" lon="13.475647671148181">
        <ele>935.01995799999997</ele>
        <time>2017-06-16T09:08:55Z</time>
      </trkpt>
      <trkpt lat="41.889436673372984" lon="13.475644821301103">
        <ele>935.01995799999997</ele>
        <time>2017-06-16T09:08:58Z</time>
      </trkpt>
      <trkpt lat="41.889454778283834" lon="13.475653035566211">
        <ele>935.01995799999997</ele>
        <time>2017-06-16T09:09:12Z</time>
      </trkpt>
      <trkpt lat="41.889439774677157" lon="13.475680779665709">
        <ele>935.01995799999997</ele>
        <time>2017-06-16T09:09:27Z</time>
      </trkpt>
      <trkpt lat="41.889442205429077" lon="13.475690670311451">
        <ele>934.54003899999998</ele>
        <time>2017-06-16T09:09:50Z</time>
      </trkpt>
      <trkpt lat="41.889442875981331" lon="13.475740039721131">
        <ele>934.54003899999998</ele>
        <time>2017-06-16T09:09:57Z</time>
      </trkpt>
      <trkpt lat="41.889529461041093" lon="13.475911868736148">
        <ele>935.01995799999997</ele>
        <time>2017-06-16T09:10:11Z</time>
      </trkpt>
      <trkpt lat="41.889599785208702" lon="13.476099288091063">
        <ele>936.94000200000005</ele>
        <time>2017-06-16T09:10:26Z</time>
      </trkpt>
      <trkpt lat="41.889654435217381" lon="13.47623691894114">
        <ele>938.85998500000005</ele>
        <time>2017-06-16T09:10:39Z</time>
      </trkpt>
      <trkpt lat="41.889676563441753" lon="13.476324761286378">
        <ele>940.78997800000002</ele>
        <time>2017-06-16T09:10:48Z</time>
      </trkpt>
      <trkpt lat="41.889675725251436" lon="13.476359378546476">
        <ele>940.78997800000002</ele>
        <time>2017-06-16T09:10:51Z</time>
      </trkpt>
      <trkpt lat="41.889676563441753" lon="13.476503463461995">
        <ele>941.75</ele>
        <time>2017-06-16T09:11:02Z</time>
      </trkpt>
      <trkpt lat="41.889647813513875" lon="13.476534727960825">
        <ele>941.75</ele>
        <time>2017-06-16T09:11:11Z</time>
      </trkpt>
      <trkpt lat="41.889621829614043" lon="13.47653984092176">
        <ele>941.75</ele>
        <time>2017-06-16T09:11:13Z</time>
      </trkpt>
      <trkpt lat="41.889506494626403" lon="13.476590383797884">
        <ele>943.19000200000005</ele>
        <time>2017-06-16T09:11:26Z</time>
      </trkpt>
      <trkpt lat="41.889484534040093" lon="13.476614020764828">
        <ele>943.19000200000005</ele>
        <time>2017-06-16T09:11:29Z</time>
      </trkpt>
      <trkpt lat="41.889457879588008" lon="13.47667227499187">
        <ele>943.67004399999996</ele>
        <time>2017-06-16T09:11:34Z</time>
      </trkpt>
      <trkpt lat="41.889416640624404" lon="13.476778138428926">
        <ele>946.07000700000003</ele>
        <time>2017-06-16T09:11:47Z</time>
      </trkpt>
      <trkpt lat="41.889402223750949" lon="13.47679540514946">
        <ele>946.55999799999995</ele>
        <time>2017-06-16T09:11:50Z</time>
      </trkpt>
      <trkpt lat="41.889379760250449" lon="13.476932365447283">
        <ele>948.47997999999995</ele>
        <time>2017-06-16T09:12:01Z</time>
      </trkpt>
      <trkpt lat="41.889379005879164" lon="13.476966395974159">
        <ele>948.95996100000002</ele>
        <time>2017-06-16T09:12:04Z</time>
      </trkpt>
      <trkpt lat="41.889371378347278" lon="13.47709346562624">
        <ele>950.40002400000003</ele>
        <time>2017-06-16T09:12:15Z</time>
      </trkpt>
      <trkpt lat="41.889413790777326" lon="13.477251464501023">
        <ele>951.84002699999996</ele>
        <time>2017-06-16T09:12:28Z</time>
      </trkpt>
      <trkpt lat="41.889409935101867" lon="13.477370236068964">
        <ele>953.28002900000001</ele>
        <time>2017-06-16T09:12:37Z</time>
      </trkpt>
      <trkpt lat="41.889335922896862" lon="13.477454809471965">
        <ele>953.28002900000001</ele>
        <time>2017-06-16T09:12:45Z</time>
      </trkpt>
      <trkpt lat="41.889287140220404" lon="13.477499568834901">
        <ele>953.28002900000001</ele>
        <time>2017-06-16T09:12:59Z</time>
      </trkpt>
      <trkpt lat="41.889228131622076" lon="13.477656897157431">
        <ele>955.21002199999998</ele>
        <time>2017-06-16T09:13:13Z</time>
      </trkpt>
      <trkpt lat="41.889193430542946" lon="13.477858817204833">
        <ele>957.60998500000005</ele>
        <time>2017-06-16T09:13:28Z</time>
      </trkpt>
      <trkpt lat="41.889178259298205" lon="13.477990077808499">
        <ele>959.04998799999998</ele>
        <time>2017-06-16T09:13:38Z</time>
      </trkpt>
      <trkpt lat="41.889167781919241" lon="13.478116812184453">
        <ele>959.52996800000005</ele>
        <time>2017-06-16T09:13:49Z</time>
      </trkpt>
      <trkpt lat="41.889164261519909" lon="13.478276738896966">
        <ele>961.45996100000002</ele>
        <time>2017-06-16T09:14:02Z</time>
      </trkpt>
      <trkpt lat="41.88914624042809" lon="13.478396600112319">
        <ele>961.94000200000005</ele>
        <time>2017-06-16T09:14:11Z</time>
      </trkpt>
      <trkpt lat="41.88906367868185" lon="13.478582929819822">
        <ele>963.85998500000005</ele>
        <time>2017-06-16T09:14:27Z</time>
      </trkpt>
      <trkpt lat="41.889009196311235" lon="13.478709161281586">
        <ele>965.78002900000001</ele>
        <time>2017-06-16T09:14:38Z</time>
      </trkpt>
      <trkpt lat="41.8889972101897" lon="13.478737324476242">
        <ele>966.25994900000001</ele>
        <time>2017-06-16T09:14:41Z</time>
      </trkpt>
      <trkpt lat="41.888936273753643" lon="13.478860035538673">
        <ele>967.69995100000006</ele>
        <time>2017-06-16T09:14:52Z</time>
      </trkpt>
      <trkpt lat="41.88890241086483" lon="13.47891703248024">
        <ele>968.17999299999997</ele>
        <time>2017-06-16T09:14:57Z</time>
      </trkpt>
      <trkpt lat="41.888759164139628" lon="13.479056926444173">
        <ele>969.62994400000002</ele>
        <time>2017-06-16T09:15:13Z</time>
      </trkpt>
      <trkpt lat="41.888720020651817" lon="13.479125574231148">
        <ele>970.589966</ele>
        <time>2017-06-16T09:15:28Z</time>
      </trkpt>
      <trkpt lat="41.88872111029923" lon="13.479131190106273">
        <ele>970.589966</ele>
        <time>2017-06-16T09:15:34Z</time>
      </trkpt>
      <trkpt lat="41.888693701475859" lon="13.479325901716948">
        <ele>971.54998799999998</ele>
        <time>2017-06-16T09:15:48Z</time>
      </trkpt>
      <trkpt lat="41.888694120571017" lon="13.479335960000753">
        <ele>971.54998799999998</ele>
        <time>2017-06-16T09:15:49Z</time>
      </trkpt>
      <trkpt lat="41.88867861405015" lon="13.479517679661512">
        <ele>974.42999299999997</ele>
        <time>2017-06-16T09:16:03Z</time>
      </trkpt>
      <trkpt lat="41.888729576021433" lon="13.479652376845479">
        <ele>976.35998500000005</ele>
        <time>2017-06-16T09:16:15Z</time>
      </trkpt>
      <trkpt lat="41.888763438910246" lon="13.479806603863835">
        <ele>978.28002900000001</ele>
        <time>2017-06-16T09:16:29Z</time>
      </trkpt>
      <trkpt lat="41.888783220201731" lon="13.479935266077518">
        <ele>979.71997099999999</ele>
        <time>2017-06-16T09:16:43Z</time>
      </trkpt>
      <trkpt lat="41.888812892138958" lon="13.480080273002386">
        <ele>981.64001499999995</ele>
        <time>2017-06-16T09:16:56Z</time>
      </trkpt>
      <trkpt lat="41.888841390609741" lon="13.480204241350293">
        <ele>983.57000700000003</ele>
        <time>2017-06-16T09:17:08Z</time>
      </trkpt>
      <trkpt lat="41.888860166072845" lon="13.480348074808717">
        <ele>985.48999000000003</ele>
        <time>2017-06-16T09:17:22Z</time>
      </trkpt>
      <trkpt lat="41.888871984556317" lon="13.480454105883837">
        <ele>986.92999299999997</ele>
        <time>2017-06-16T09:17:34Z</time>
      </trkpt>
      <trkpt lat="41.888868799433112" lon="13.480575559660792">
        <ele>989.32995600000004</ele>
        <time>2017-06-16T09:17:47Z</time>
      </trkpt>
      <trkpt lat="41.888856058940291" lon="13.480729032307863">
        <ele>991.74005099999999</ele>
        <time>2017-06-16T09:18:01Z</time>
      </trkpt>
      <trkpt lat="41.888862764462829" lon="13.480848893523216">
        <ele>993.17999299999997</ele>
        <time>2017-06-16T09:18:13Z</time>
      </trkpt>
      <trkpt lat="41.888864105567336" lon="13.481015525758266">
        <ele>995.580017</ele>
        <time>2017-06-16T09:18:28Z</time>
      </trkpt>
      <trkpt lat="41.888910373672843" lon="13.4811139293015">
        <ele>997.51000999999997</ele>
        <time>2017-06-16T09:18:40Z</time>
      </trkpt>
      <trkpt lat="41.88891313970089" lon="13.481152318418026">
        <ele>998.47003199999995</ele>
        <time>2017-06-16T09:18:57Z</time>
      </trkpt>
      <trkpt lat="41.888928562402725" lon="13.481180481612682">
        <ele>998.47003199999995</ele>
        <time>2017-06-16T09:19:16Z</time>
      </trkpt>
      <trkpt lat="41.888917665928602" lon="13.481271173804998">
        <ele>1000.870056</ele>
        <time>2017-06-16T09:19:31Z</time>
      </trkpt>
      <trkpt lat="41.888902494683862" lon="13.481373265385628">
        <ele>1003.27002</ele>
        <time>2017-06-16T09:19:43Z</time>
      </trkpt>
      <trkpt lat="41.888885730877519" lon="13.481406876817346">
        <ele>1003.75</ele>
        <time>2017-06-16T09:19:51Z</time>
      </trkpt>
      <trkpt lat="41.888886233791709" lon="13.481436967849731">
        <ele>1003.75</ele>
        <time>2017-06-16T09:19:54Z</time>
      </trkpt>
      <trkpt lat="41.888888916000724" lon="13.4815439209342">
        <ele>1006.6400149999999</ele>
        <time>2017-06-16T09:20:06Z</time>
      </trkpt>
      <trkpt lat="41.888910038396716" lon="13.481554565951228">
        <ele>1006.6400149999999</ele>
        <time>2017-06-16T09:20:19Z</time>
      </trkpt>
      <trkpt lat="41.888988073915243" lon="13.481566635891795">
        <ele>1008.559998</ele>
        <time>2017-06-16T09:20:32Z</time>
      </trkpt>
      <trkpt lat="41.88896200619638" lon="13.481639474630356">
        <ele>1009.999939</ele>
        <time>2017-06-16T09:20:45Z</time>
      </trkpt>
      <trkpt lat="41.88895664177835" lon="13.481703009456396">
        <ele>1012.410034</ele>
        <time>2017-06-16T09:20:56Z</time>
      </trkpt>
      <trkpt lat="41.888911966234446" lon="13.48181608133018">
        <ele>1013.849976</ele>
        <time>2017-06-16T09:21:09Z</time>
      </trkpt>
      <trkpt lat="41.888879695907235" lon="13.481896631419659">
        <ele>1015.77002</ele>
        <time>2017-06-16T09:21:20Z</time>
      </trkpt>
      <trkpt lat="41.88888237811625" lon="13.481901995837688">
        <ele>1015.77002</ele>
        <time>2017-06-16T09:21:22Z</time>
      </trkpt>
      <trkpt lat="41.888871062546968" lon="13.48192404024303">
        <ele>1016.25</ele>
        <time>2017-06-16T09:21:25Z</time>
      </trkpt>
      <trkpt lat="41.888745333999395" lon="13.481952538713813">
        <ele>1016.25</ele>
        <time>2017-06-16T09:21:38Z</time>
      </trkpt>
      <trkpt lat="41.888570403680205" lon="13.481992688030005">
        <ele>1017.210022</ele>
        <time>2017-06-16T09:21:55Z</time>
      </trkpt>
      <trkpt lat="41.888541234657168" lon="13.482009870931506">
        <ele>1017.210022</ele>
        <time>2017-06-16T09:21:58Z</time>
      </trkpt>
      <trkpt lat="41.888395138084888" lon="13.482030322775245">
        <ele>1019.130005</ele>
        <time>2017-06-16T09:22:11Z</time>
      </trkpt>
      <trkpt lat="41.888252478092909" lon="13.482084721326828">
        <ele>1020.099976</ele>
        <time>2017-06-16T09:22:25Z</time>
      </trkpt>
      <trkpt lat="41.888244180008769" lon="13.482079105451703">
        <ele>1020.580017</ele>
        <time>2017-06-16T09:22:37Z</time>
      </trkpt>
      <trkpt lat="41.888201599940658" lon="13.482172312214971">
        <ele>1022.02002</ele>
        <time>2017-06-16T09:22:49Z</time>
      </trkpt>
      <trkpt lat="41.888127084821463" lon="13.482260573655367">
        <ele>1025.380005</ele>
        <time>2017-06-16T09:23:04Z</time>
      </trkpt>
      <trkpt lat="41.888051396235824" lon="13.482351936399937">
        <ele>1027.790039</ele>
        <time>2017-06-16T09:23:17Z</time>
      </trkpt>
      <trkpt lat="41.887984089553356" lon="13.48239853978157">
        <ele>1029.2299800000001</ele>
        <time>2017-06-16T09:23:28Z</time>
      </trkpt>
      <trkpt lat="41.887917118147016" lon="13.48244296386838">
        <ele>1030.669922</ele>
        <time>2017-06-16T09:23:40Z</time>
      </trkpt>
      <trkpt lat="41.887851236388087" lon="13.482509683817625">
        <ele>1032.1099850000001</ele>
        <time>2017-06-16T09:23:52Z</time>
      </trkpt>
      <trkpt lat="41.887800609692931" lon="13.482575062662363">
        <ele>1034.040039</ele>
        <time>2017-06-16T09:24:03Z</time>
      </trkpt>
      <trkpt lat="41.887735733762383" lon="13.482623258605599">
        <ele>1035.4799800000001</ele>
        <time>2017-06-16T09:24:15Z</time>
      </trkpt>
      <trkpt lat="41.88763833604753" lon="13.482706490904093">
        <ele>1037.400024</ele>
        <time>2017-06-16T09:24:29Z</time>
      </trkpt>
      <trkpt lat="41.887625511735678" lon="13.482737336307764">
        <ele>1038.3599850000001</ele>
        <time>2017-06-16T09:24:33Z</time>
      </trkpt>
      <trkpt lat="41.88760070130229" lon="13.482751082628965">
        <ele>1038.8400879999999</ele>
        <time>2017-06-16T09:24:37Z</time>
      </trkpt>
      <trkpt lat="41.887563988566399" lon="13.482798105105758">
        <ele>1039.799927</ele>
        <time>2017-06-16T09:24:44Z</time>
      </trkpt>
      <trkpt lat="41.887495508417487" lon="13.482853593304753">
        <ele>1041.25</ele>
        <time>2017-06-16T09:24:55Z</time>
      </trkpt>
      <trkpt lat="41.887408839538693" lon="13.482930371537805">
        <ele>1042.6899410000001</ele>
        <time>2017-06-16T09:25:09Z</time>
      </trkpt>
      <trkpt lat="41.887382017448545" lon="13.482977310195565">
        <ele>1043.650024</ele>
        <time>2017-06-16T09:25:14Z</time>
      </trkpt>
      <trkpt lat="41.887329379096627" lon="13.483024584129453">
        <ele>1044.6099850000001</ele>
        <time>2017-06-16T09:25:22Z</time>
      </trkpt>
      <trkpt lat="41.887229215353727" lon="13.483103793114424">
        <ele>1046.530029</ele>
        <time>2017-06-16T09:25:35Z</time>
      </trkpt>
      <trkpt lat="41.887220498174429" lon="13.483117371797562">
        <ele>1046.530029</ele>
        <time>2017-06-16T09:25:37Z</time>
      </trkpt>
      <trkpt lat="41.887177331373096" lon="13.48314561881125">
        <ele>1047.01001</ele>
        <time>2017-06-16T09:25:42Z</time>
      </trkpt>
      <trkpt lat="41.8871252797544" lon="13.483179565519094">
        <ele>1047.48999</ele>
        <time>2017-06-16T09:25:48Z</time>
      </trkpt>
      <trkpt lat="41.887103738263249" lon="13.483218373730779">
        <ele>1047.969971</ele>
        <time>2017-06-16T09:25:52Z</time>
      </trkpt>
      <trkpt lat="41.887057889252901" lon="13.483258439227939">
        <ele>1048.940063</ele>
        <time>2017-06-16T09:25:58Z</time>
      </trkpt>
      <trkpt lat="41.887024696916342" lon="13.483278639614582">
        <ele>1049.900024</ele>
        <time>2017-06-16T09:26:02Z</time>
      </trkpt>
      <trkpt lat="41.886926209554076" lon="13.483363715931773">
        <ele>1051.8199460000001</ele>
        <time>2017-06-16T09:26:15Z</time>
      </trkpt>
      <trkpt lat="41.886919168755412" lon="13.483373271301389">
        <ele>1052.299927</ele>
        <time>2017-06-16T09:26:16Z</time>
      </trkpt>
      <trkpt lat="41.886888490989804" lon="13.483435465022922">
        <ele>1052.780029</ele>
        <time>2017-06-16T09:26:24Z</time>
      </trkpt>
      <trkpt lat="41.886852532625198" lon="13.483522888273001">
        <ele>1054.6999510000001</ele>
        <time>2017-06-16T09:26:35Z</time>
      </trkpt>
      <trkpt lat="41.886799139901996" lon="13.483574436977506">
        <ele>1056.630005</ele>
        <time>2017-06-16T09:26:46Z</time>
      </trkpt>
      <trkpt lat="41.886789416894317" lon="13.483576029539108">
        <ele>1057.1099850000001</ele>
        <time>2017-06-16T09:27:14Z</time>
      </trkpt>
      <trkpt lat="41.886762762442231" lon="13.483635541051626">
        <ele>1058.0699460000001</ele>
        <time>2017-06-16T09:27:29Z</time>
      </trkpt>
      <trkpt lat="41.88670258037746" lon="13.483747439458966">
        <ele>1059.98999</ele>
        <time>2017-06-16T09:27:41Z</time>
      </trkpt>
      <trkpt lat="41.886662933975458" lon="13.483839640393853">
        <ele>1061.910034</ele>
        <time>2017-06-16T09:27:52Z</time>
      </trkpt>
      <trkpt lat="41.886609205976129" lon="13.483902169391513">
        <ele>1063.8400879999999</ele>
        <time>2017-06-16T09:28:06Z</time>
      </trkpt>
      <trkpt lat="41.886606607586145" lon="13.483909210190177">
        <ele>1063.8400879999999</ele>
        <time>2017-06-16T09:28:07Z</time>
      </trkpt>
      <trkpt lat="41.886535864323378" lon="13.48399386741221">
        <ele>1065.280029</ele>
        <time>2017-06-16T09:28:20Z</time>
      </trkpt>
      <trkpt lat="41.886482471600175" lon="13.484074082225561">
        <ele>1067.1999510000001</ele>
        <time>2017-06-16T09:28:31Z</time>
      </trkpt>
      <trkpt lat="41.886405106633902" lon="13.484149435535073">
        <ele>1069.119995</ele>
        <time>2017-06-16T09:28:44Z</time>
      </trkpt>
      <trkpt lat="41.886395132169127" lon="13.484165864065289">
        <ele>1069.599976</ele>
        <time>2017-06-16T09:28:46Z</time>
      </trkpt>
      <trkpt lat="41.886375937610865" lon="13.484205426648259">
        <ele>1070.080078</ele>
        <time>2017-06-16T09:28:50Z</time>
      </trkpt>
      <trkpt lat="41.886263368651271" lon="13.484327467158437">
        <ele>1072.01001</ele>
        <time>2017-06-16T09:29:04Z</time>
      </trkpt>
      <trkpt lat="41.886255908757448" lon="13.484334172680974">
        <ele>1072.01001</ele>
        <time>2017-06-16T09:29:05Z</time>
      </trkpt>
      <trkpt lat="41.886227829381824" lon="13.48434959538281">
        <ele>1072.01001</ele>
        <time>2017-06-16T09:29:10Z</time>
      </trkpt>
      <trkpt lat="41.886155493557453" lon="13.484456883743405">
        <ele>1073.450073</ele>
        <time>2017-06-16T09:29:23Z</time>
      </trkpt>
      <trkpt lat="41.886132024228573" lon="13.484507761895657">
        <ele>1074.410034</ele>
        <time>2017-06-16T09:29:38Z</time>
      </trkpt>
      <trkpt lat="41.88608156517148" lon="13.484591664746404">
        <ele>1075.369995</ele>
        <time>2017-06-16T09:29:46Z</time>
      </trkpt>
      <trkpt lat="41.886035297065973" lon="13.484666179865599">
        <ele>1076.8100589999999</ele>
        <time>2017-06-16T09:29:54Z</time>
      </trkpt>
      <trkpt lat="41.885908897966146" lon="13.484781933948398">
        <ele>1078.26001</ele>
        <time>2017-06-16T09:30:09Z</time>
      </trkpt>
      <trkpt lat="41.885850559920073" lon="13.484830632805824">
        <ele>1079.219971</ele>
        <time>2017-06-16T09:30:21Z</time>
      </trkpt>
      <trkpt lat="41.885812925174832" lon="13.484910679981112">
        <ele>1080.1800539999999</ele>
        <time>2017-06-16T09:30:28Z</time>
      </trkpt>
      <trkpt lat="41.88573463819921" lon="13.485030792653561">
        <ele>1081.619995</ele>
        <time>2017-06-16T09:30:41Z</time>
      </trkpt>
      <trkpt lat="41.885657021775842" lon="13.485122406855226">
        <ele>1084.0200199999999</ele>
        <time>2017-06-16T09:30:53Z</time>
      </trkpt>
      <trkpt lat="41.885567586869001" lon="13.485199436545372">
        <ele>1085.469971</ele>
        <time>2017-06-16T09:31:04Z</time>
      </trkpt>
      <trkpt lat="41.885555600747466" lon="13.485215781256557">
        <ele>1085.950073</ele>
        <time>2017-06-16T09:31:06Z</time>
      </trkpt>
      <trkpt lat="41.885513858869672" lon="13.485252158716321">
        <ele>1086.429932</ele>
        <time>2017-06-16T09:31:11Z</time>
      </trkpt>
      <trkpt lat="41.885464740917087" lon="13.485280908644199">
        <ele>1087.3900149999999</ele>
        <time>2017-06-16T09:31:17Z</time>
      </trkpt>
      <trkpt lat="41.885379664599895" lon="13.485292559489608">
        <ele>1088.349976</ele>
        <time>2017-06-16T09:31:25Z</time>
      </trkpt>
      <trkpt lat="41.885295426473022" lon="13.485329439863563">
        <ele>1088.829956</ele>
        <time>2017-06-16T09:31:32Z</time>
      </trkpt>
      <trkpt lat="41.885260473936796" lon="13.485373612493277">
        <ele>1090.2700199999999</ele>
        <time>2017-06-16T09:31:37Z</time>
      </trkpt>
      <trkpt lat="41.88522350974381" lon="13.485442595556378">
        <ele>1091.7100829999999</ele>
        <time>2017-06-16T09:31:43Z</time>
      </trkpt>
      <trkpt lat="41.88514438457787" lon="13.485521133989096">
        <ele>1092.6800539999999</ele>
        <time>2017-06-16T09:31:55Z</time>
      </trkpt>
      <trkpt lat="41.885013375431299" lon="13.485635714605451">
        <ele>1094.599976</ele>
        <time>2017-06-16T09:32:09Z</time>
      </trkpt>
      <trkpt lat="41.884989319369197" lon="13.485674522817135">
        <ele>1095.080078</ele>
        <time>2017-06-16T09:32:13Z</time>
      </trkpt>
      <trkpt lat="41.884951433166862" lon="13.485712073743343">
        <ele>1095.559937</ele>
        <time>2017-06-16T09:32:18Z</time>
      </trkpt>
      <trkpt lat="41.884913463145494" lon="13.485739734023809">
        <ele>1096.0399170000001</ele>
        <time>2017-06-16T09:32:21Z</time>
      </trkpt>
      <trkpt lat="41.884813299402595" lon="13.485876861959696">
        <ele>1097</ele>
        <time>2017-06-16T09:32:34Z</time>
      </trkpt>
      <trkpt lat="41.884783208370209" lon="13.485961770638824">
        <ele>1097.4799800000001</ele>
        <time>2017-06-16T09:32:41Z</time>
      </trkpt>
      <trkpt lat="41.884788237512112" lon="13.486151704564691">
        <ele>1098.4399410000001</ele>
        <time>2017-06-16T09:32:54Z</time>
      </trkpt>
      <trkpt lat="41.884754626080394" lon="13.48627433180809">
        <ele>1100.369995</ele>
        <time>2017-06-16T09:33:05Z</time>
      </trkpt>
      <trkpt lat="41.884753536432981" lon="13.486292604357004">
        <ele>1100.369995</ele>
        <time>2017-06-16T09:33:07Z</time>
      </trkpt>
      <trkpt lat="41.884756637737155" lon="13.486415399238467">
        <ele>1101.8100589999999</ele>
        <time>2017-06-16T09:33:20Z</time>
      </trkpt>
      <trkpt lat="41.884749680757523" lon="13.486466528847814">
        <ele>1103.25</ele>
        <time>2017-06-16T09:33:36Z</time>
      </trkpt>
      <trkpt lat="41.88473735935986" lon="13.486541463062167">
        <ele>1103.25</ele>
        <time>2017-06-16T09:33:56Z</time>
      </trkpt>
      <trkpt lat="41.884731408208609" lon="13.48663005977869">
        <ele>1104.2100829999999</ele>
        <time>2017-06-16T09:34:03Z</time>
      </trkpt>
      <trkpt lat="41.884746663272381" lon="13.486807337030768">
        <ele>1105.650024</ele>
        <time>2017-06-16T09:34:15Z</time>
      </trkpt>
      <trkpt lat="41.884648092091084" lon="13.486850084736943">
        <ele>1105.650024</ele>
        <time>2017-06-16T09:34:29Z</time>
      </trkpt>
      <trkpt lat="41.884495206177235" lon="13.486805325374007">
        <ele>1104.690063</ele>
        <time>2017-06-16T09:34:45Z</time>
      </trkpt>
      <trkpt lat="41.884403340518475" lon="13.486779928207397">
        <ele>1103.7299800000001</ele>
        <time>2017-06-16T09:34:59Z</time>
      </trkpt>
      <trkpt lat="41.884272834286094" lon="13.486743634566665">
        <ele>1102.7700199999999</ele>
        <time>2017-06-16T09:35:13Z</time>
      </trkpt>
      <trkpt lat="41.88417543657124" lon="13.486746735870838">
        <ele>1102.290039</ele>
        <time>2017-06-16T09:35:30Z</time>
      </trkpt>
      <trkpt lat="41.884015593677759" lon="13.486749082803726">
        <ele>1100.849976</ele>
        <time>2017-06-16T09:35:44Z</time>
      </trkpt>
      <trkpt lat="41.88387000001967" lon="13.486791411414742">
        <ele>1101.8100589999999</ele>
        <time>2017-06-16T09:35:58Z</time>
      </trkpt>
      <trkpt lat="41.883850637823343" lon="13.486802978441119">
        <ele>1101.8100589999999</ele>
        <time>2017-06-16T09:36:00Z</time>
      </trkpt>
      <trkpt lat="41.883704541251063" lon="13.48684698343277">
        <ele>1104.690063</ele>
        <time>2017-06-16T09:36:15Z</time>
      </trkpt>
      <trkpt lat="41.883565904572606" lon="13.486934574320912">
        <ele>1106.6099850000001</ele>
        <time>2017-06-16T09:36:30Z</time>
      </trkpt>
      <trkpt lat="41.883467081934214" lon="13.486957540735602">
        <ele>1108.059937</ele>
        <time>2017-06-16T09:36:44Z</time>
      </trkpt>
      <trkpt lat="41.883350992575288" lon="13.486996935680509">
        <ele>1107.580078</ele>
        <time>2017-06-16T09:37:06Z</time>
      </trkpt>
      <trkpt lat="41.883173296228051" lon="13.487073294818401">
        <ele>1108.059937</ele>
        <time>2017-06-16T09:37:22Z</time>
      </trkpt>
      <trkpt lat="41.883090566843748" lon="13.487119562923908">
        <ele>1108.5399170000001</ele>
        <time>2017-06-16T09:37:40Z</time>
      </trkpt>
      <trkpt lat="41.88294212333858" lon="13.48724814131856">
        <ele>1109.9799800000001</ele>
        <time>2017-06-16T09:37:55Z</time>
      </trkpt>
      <trkpt lat="41.882789572700858" lon="13.487344197928905">
        <ele>1111.420044</ele>
        <time>2017-06-16T09:38:12Z</time>
      </trkpt>
      <trkpt lat="41.882639033719897" lon="13.48743480630219">
        <ele>1113.339966</ele>
        <time>2017-06-16T09:38:30Z</time>
      </trkpt>
      <trkpt lat="41.882641213014722" lon="13.487509321421385">
        <ele>1115.75</ele>
        <time>2017-06-16T09:38:44Z</time>
      </trkpt>
      <trkpt lat="41.882608188316226" lon="13.487548632547259">
        <ele>1117.190063</ele>
        <time>2017-06-16T09:38:59Z</time>
      </trkpt>
      <trkpt lat="41.882596202194691" lon="13.487580819055438">
        <ele>1117.669922</ele>
        <time>2017-06-16T09:39:29Z</time>
      </trkpt>
      <trkpt lat="41.882640793919563" lon="13.487519714981318">
        <ele>1116.7100829999999</ele>
        <time>2017-06-16T09:39:46Z</time>
      </trkpt>
      <trkpt lat="41.882643392309546" lon="13.487482080236077">
        <ele>1115.2700199999999</ele>
        <time>2017-06-16T09:39:49Z</time>
      </trkpt>
      <trkpt lat="41.882662838324904" lon="13.487423658370972">
        <ele>1113.339966</ele>
        <time>2017-06-16T09:39:58Z</time>
      </trkpt>
      <trkpt lat="41.882529063150287" lon="13.487516613677144">
        <ele>1114.790039</ele>
        <time>2017-06-16T09:40:13Z</time>
      </trkpt>
      <trkpt lat="41.882521100342274" lon="13.487526085227728">
        <ele>1114.790039</ele>
        <time>2017-06-16T09:40:14Z</time>
      </trkpt>
      <trkpt lat="41.882472317665815" lon="13.487688275054097">
        <ele>1117.669922</ele>
        <time>2017-06-16T09:40:28Z</time>
      </trkpt>
      <trkpt lat="41.882492434233427" lon="13.487783828750253">
        <ele>1119.1099850000001</ele>
        <time>2017-06-16T09:40:41Z</time>
      </trkpt>
      <trkpt lat="41.882566278800368" lon="13.487777374684811">
        <ele>1121.030029</ele>
        <time>2017-06-16T09:40:55Z</time>
      </trkpt>
      <trkpt lat="41.882608439773321" lon="13.487867815420032">
        <ele>1124.400024</ele>
        <time>2017-06-16T09:41:10Z</time>
      </trkpt>
      <trkpt lat="41.882607936859131" lon="13.487970158457756">
        <ele>1126.799927</ele>
        <time>2017-06-16T09:41:27Z</time>
      </trkpt>
      <trkpt lat="41.882631992921233" lon="13.488025814294815">
        <ele>1128.7299800000001</ele>
        <time>2017-06-16T09:41:37Z</time>
      </trkpt>
      <trkpt lat="41.882656384259462" lon="13.488031262531877">
        <ele>1130.169922</ele>
        <time>2017-06-16T09:41:41Z</time>
      </trkpt>
      <trkpt lat="41.882694605737925" lon="13.488070573657751">
        <ele>1131.6099850000001</ele>
        <time>2017-06-16T09:41:53Z</time>
      </trkpt>
      <trkpt lat="41.882738610729575" lon="13.48809982649982">
        <ele>1134.01001</ele>
        <time>2017-06-16T09:42:15Z</time>
      </trkpt>
      <trkpt lat="41.882789321243763" lon="13.488079961389303">
        <ele>1136.900024</ele>
        <time>2017-06-16T09:42:29Z</time>
      </trkpt>
      <trkpt lat="41.882873559370637" lon="13.488058419898152">
        <ele>1138.820068</ele>
        <time>2017-06-16T09:42:42Z</time>
      </trkpt>
      <trkpt lat="41.882943883538246" lon="13.488077530637383">
        <ele>1141.219971</ele>
        <time>2017-06-16T09:42:56Z</time>
      </trkpt>
      <trkpt lat="41.882960228249431" lon="13.488108040764928">
        <ele>1143.630005</ele>
        <time>2017-06-16T09:43:10Z</time>
      </trkpt>
      <trkpt lat="41.8828996270895" lon="13.488197308033705">
        <ele>1145.5500489999999</ele>
        <time>2017-06-16T09:43:24Z</time>
      </trkpt>
      <trkpt lat="41.882875906303525" lon="13.488278780132532">
        <ele>1146.98999</ele>
        <time>2017-06-16T09:43:39Z</time>
      </trkpt>
      <trkpt lat="41.882866518571973" lon="13.488382296636701">
        <ele>1148.9099120000001</ele>
        <time>2017-06-16T09:43:55Z</time>
      </trkpt>
      <trkpt lat="41.88286148943007" lon="13.488434432074428">
        <ele>1150.349976</ele>
        <time>2017-06-16T09:44:09Z</time>
      </trkpt>
      <trkpt lat="41.882893592119217" lon="13.488507186993957">
        <ele>1152.280029</ele>
        <time>2017-06-16T09:44:22Z</time>
      </trkpt>
      <trkpt lat="41.882901890203357" lon="13.488595616072416">
        <ele>1155.160034</ele>
        <time>2017-06-16T09:44:36Z</time>
      </trkpt>
      <trkpt lat="41.88294162042439" lon="13.488667868077755">
        <ele>1158.0500489999999</ele>
        <time>2017-06-16T09:44:50Z</time>
      </trkpt>
      <trkpt lat="41.882975064218044" lon="13.488715728744864">
        <ele>1160.450073</ele>
        <time>2017-06-16T09:45:04Z</time>
      </trkpt>
      <trkpt lat="41.882975483313203" lon="13.488706089556217">
        <ele>1161.8900149999999</ele>
        <time>2017-06-16T09:45:20Z</time>
      </trkpt>
      <trkpt lat="41.882988307625055" lon="13.488703323528171">
        <ele>1161.8900149999999</ele>
        <time>2017-06-16T09:45:41Z</time>
      </trkpt>
      <trkpt lat="41.883037760853767" lon="13.488721428439021">
        <ele>1165.26001</ele>
        <time>2017-06-16T09:45:54Z</time>
      </trkpt>
      <trkpt lat="41.883074138313532" lon="13.488724110648036">
        <ele>1167.1800539999999</ele>
        <time>2017-06-16T09:46:08Z</time>
      </trkpt>
      <trkpt lat="41.883087130263448" lon="13.488779515028">
        <ele>1169.099976</ele>
        <time>2017-06-16T09:46:21Z</time>
      </trkpt>
      <trkpt lat="41.883087381720543" lon="13.48881128244102">
        <ele>1171.0200199999999</ele>
        <time>2017-06-16T09:46:37Z</time>
      </trkpt>
      <trkpt lat="41.883080676198006" lon="13.488831063732505">
        <ele>1171.0200199999999</ele>
        <time>2017-06-16T09:46:50Z</time>
      </trkpt>
      <trkpt lat="41.883104732260108" lon="13.488863334059715">
        <ele>1171.5</ele>
        <time>2017-06-16T09:47:03Z</time>
      </trkpt>
      <trkpt lat="41.883102217689157" lon="13.488891664892435">
        <ele>1173.4300539999999</ele>
        <time>2017-06-16T09:47:15Z</time>
      </trkpt>
      <trkpt lat="41.883095512166619" lon="13.488920414820313">
        <ele>1175.829956</ele>
        <time>2017-06-16T09:47:26Z</time>
      </trkpt>
      <trkpt lat="41.883088639006019" lon="13.48892661742866">
        <ele>1174.3900149999999</ele>
        <time>2017-06-16T09:47:31Z</time>
      </trkpt>
      <trkpt lat="41.883080173283815" lon="13.488953439518809">
        <ele>1178.2299800000001</ele>
        <time>2017-06-16T09:47:37Z</time>
      </trkpt>
      <trkpt lat="41.883090315386653" lon="13.488973472267389">
        <ele>1176.309937</ele>
        <time>2017-06-16T09:47:39Z</time>
      </trkpt>
      <trkpt lat="41.883115796372294" lon="13.489029463380575">
        <ele>1177.75</ele>
        <time>2017-06-16T09:47:48Z</time>
      </trkpt>
      <trkpt lat="41.88310531899333" lon="13.489126861095428">
        <ele>1179.190063</ele>
        <time>2017-06-16T09:48:03Z</time>
      </trkpt>
      <trkpt lat="41.883083861321211" lon="13.48920363932848">
        <ele>1183.0399170000001</ele>
        <time>2017-06-16T09:48:17Z</time>
      </trkpt>
      <trkpt lat="41.883086292073131" lon="13.489209087565541">
        <ele>1183.5200199999999</ele>
        <time>2017-06-16T09:48:18Z</time>
      </trkpt>
      <trkpt lat="41.883096434175968" lon="13.48922710865736">
        <ele>1182.080078</ele>
        <time>2017-06-16T09:48:21Z</time>
      </trkpt>
      <trkpt lat="41.883116718381643" lon="13.489285279065371">
        <ele>1183.5200199999999</ele>
        <time>2017-06-16T09:48:28Z</time>
      </trkpt>
      <trkpt lat="41.883082017302513" lon="13.4893908072263">
        <ele>1185.920044</ele>
        <time>2017-06-16T09:48:42Z</time>
      </trkpt>
      <trkpt lat="41.88307011500001" lon="13.489509159699082">
        <ele>1187.369995</ele>
        <time>2017-06-16T09:48:57Z</time>
      </trkpt>
      <trkpt lat="41.883141025900841" lon="13.489470267668366">
        <ele>1188.809937</ele>
        <time>2017-06-16T09:49:09Z</time>
      </trkpt>
      <trkpt lat="41.883193161338568" lon="13.489446463063359">
        <ele>1190.7299800000001</ele>
        <time>2017-06-16T09:49:22Z</time>
      </trkpt>
      <trkpt lat="41.88324261456728" lon="13.489422323182225">
        <ele>1191.690063</ele>
        <time>2017-06-16T09:49:37Z</time>
      </trkpt>
      <trkpt lat="41.883251164108515" lon="13.489511841908097">
        <ele>1194.580078</ele>
        <time>2017-06-16T09:49:51Z</time>
      </trkpt>
      <trkpt lat="41.883243201300502" lon="13.489637318998575">
        <ele>1196.9799800000001</ele>
        <time>2017-06-16T09:50:07Z</time>
      </trkpt>
      <trkpt lat="41.883240938186646" lon="13.489762460812926">
        <ele>1199.380005</ele>
        <time>2017-06-16T09:50:21Z</time>
      </trkpt>
      <trkpt lat="41.88324311748147" lon="13.489874191582203">
        <ele>1200.820068</ele>
        <time>2017-06-16T09:50:34Z</time>
      </trkpt>
      <trkpt lat="41.883222162723541" lon="13.489889865741134">
        <ele>1200.820068</ele>
        <time>2017-06-16T09:50:49Z</time>
      </trkpt>
      <trkpt lat="41.883219564333558" lon="13.489860529080033">
        <ele>1200.820068</ele>
        <time>2017-06-16T09:51:25Z</time>
      </trkpt>
      <trkpt lat="41.883260635659099" lon="13.489864971488714">
        <ele>1201.3000489999999</ele>
        <time>2017-06-16T09:51:50Z</time>
      </trkpt>
      <trkpt lat="41.883253175765276" lon="13.489937474951148">
        <ele>1202.75</ele>
        <time>2017-06-16T09:52:03Z</time>
      </trkpt>
      <trkpt lat="41.883222833275795" lon="13.490022802725434">
        <ele>1205.150024</ele>
        <time>2017-06-16T09:52:16Z</time>
      </trkpt>
      <trkpt lat="41.883173631504178" lon="13.490103939548135">
        <ele>1207.0699460000001</ele>
        <time>2017-06-16T09:52:27Z</time>
      </trkpt>
      <trkpt lat="41.883078161627054" lon="13.490133276209235">
        <ele>1208.51001</ele>
        <time>2017-06-16T09:52:40Z</time>
      </trkpt>
      <trkpt lat="41.883014710620046" lon="13.490179711952806">
        <ele>1210.4399410000001</ele>
        <time>2017-06-16T09:52:53Z</time>
      </trkpt>
      <trkpt lat="41.882910691201687" lon="13.490204438567162">
        <ele>1211.880005</ele>
        <time>2017-06-16T09:53:06Z</time>
      </trkpt>
      <trkpt lat="41.882848078384995" lon="13.490231512114406">
        <ele>1213.8000489999999</ele>
        <time>2017-06-16T09:53:18Z</time>
      </trkpt>
      <trkpt lat="41.882803319022059" lon="13.490315834060311">
        <ele>1216.690063</ele>
        <time>2017-06-16T09:53:32Z</time>
      </trkpt>
      <trkpt lat="41.882751686498523" lon="13.490349277853966">
        <ele>1218.6099850000001</ele>
        <time>2017-06-16T09:53:45Z</time>
      </trkpt>
      <trkpt lat="41.882649259641767" lon="13.490359587594867">
        <ele>1220.0500489999999</ele>
        <time>2017-06-16T09:53:58Z</time>
      </trkpt>
      <trkpt lat="41.882601398974657" lon="13.490440892055631">
        <ele>1221.969971</ele>
        <time>2017-06-16T09:54:12Z</time>
      </trkpt>
      <trkpt lat="41.882563764229417" lon="13.490499230101705">
        <ele>1223.900024</ele>
        <time>2017-06-16T09:54:25Z</time>
      </trkpt>
      <trkpt lat="41.882556639611721" lon="13.490561759099364">
        <ele>1225.339966</ele>
        <time>2017-06-16T09:54:37Z</time>
      </trkpt>
      <trkpt lat="41.88259276561439" lon="13.49061137996614">
        <ele>1227.73999</ele>
        <time>2017-06-16T09:54:47Z</time>
      </trkpt>
      <trkpt lat="41.882660323753953" lon="13.490609871223569">
        <ele>1227.73999</ele>
        <time>2017-06-16T09:54:56Z</time>
      </trkpt>
      <trkpt lat="41.8827183265239" lon="13.490653540939093">
        <ele>1228.219971</ele>
        <time>2017-06-16T09:55:03Z</time>
      </trkpt>
      <trkpt lat="41.882739197462797" lon="13.490653624758124">
        <ele>1228.6999510000001</ele>
        <time>2017-06-16T09:55:05Z</time>
      </trkpt>
      <trkpt lat="41.882774736732244" lon="13.490687403827906">
        <ele>1228.6999510000001</ele>
        <time>2017-06-16T09:55:10Z</time>
      </trkpt>
      <trkpt lat="41.882814718410373" lon="13.490831488743424">
        <ele>1230.1400149999999</ele>
        <time>2017-06-16T09:55:23Z</time>
      </trkpt>
      <trkpt lat="41.882850090041757" lon="13.49088647402823">
        <ele>1231.1099850000001</ele>
        <time>2017-06-16T09:55:34Z</time>
      </trkpt>
      <trkpt lat="41.882915133610368" lon="13.490806175395846">
        <ele>1233.51001</ele>
        <time>2017-06-16T09:55:46Z</time>
      </trkpt>
      <trkpt lat="41.882944134995341" lon="13.490733001381159">
        <ele>1234.469971</ele>
        <time>2017-06-16T09:55:54Z</time>
      </trkpt>
      <trkpt lat="41.883031474426389" lon="13.490659072995186">
        <ele>1234.950073</ele>
        <time>2017-06-16T09:56:06Z</time>
      </trkpt>
      <trkpt lat="41.883123340085149" lon="13.490675920620561">
        <ele>1235.4300539999999</ele>
        <time>2017-06-16T09:56:18Z</time>
      </trkpt>
      <trkpt lat="41.883183186873794" lon="13.490679105743766">
        <ele>1235.910034</ele>
        <time>2017-06-16T09:56:30Z</time>
      </trkpt>
      <trkpt lat="41.883236579596996" lon="13.490661084651947">
        <ele>1235.910034</ele>
        <time>2017-06-16T09:56:43Z</time>
      </trkpt>
      <trkpt lat="41.883389465510845" lon="13.490604339167476">
        <ele>1235.910034</ele>
        <time>2017-06-16T09:56:56Z</time>
      </trkpt>
      <trkpt lat="41.88352894037962" lon="13.490586234256625">
        <ele>1237.349976</ele>
        <time>2017-06-16T09:57:09Z</time>
      </trkpt>
      <trkpt lat="41.883539501577616" lon="13.490582294762135">
        <ele>1237.349976</ele>
        <time>2017-06-16T09:57:10Z</time>
      </trkpt>
      <trkpt lat="41.883659865707159" lon="13.490435359999537">
        <ele>1238.320068</ele>
        <time>2017-06-16T09:57:27Z</time>
      </trkpt>
      <trkpt lat="41.883738990873098" lon="13.490364281460643">
        <ele>1240.23999</ele>
        <time>2017-06-16T09:57:39Z</time>
      </trkpt>
      <trkpt lat="41.883830018341541" lon="13.490265039727092">
        <ele>1242.160034</ele>
        <time>2017-06-16T09:57:52Z</time>
      </trkpt>
      <trkpt lat="41.883932109922171" lon="13.490184238180518">
        <ele>1243.599976</ele>
        <time>2017-06-16T09:58:06Z</time>
      </trkpt>
      <trkpt lat="41.884001092985272" lon="13.490138724446297">
        <ele>1245.040039</ele>
        <time>2017-06-16T09:58:16Z</time>
      </trkpt>
      <trkpt lat="41.884015426039696" lon="13.490133192390203">
        <ele>1245.040039</ele>
        <time>2017-06-16T09:58:18Z</time>
      </trkpt>
      <trkpt lat="41.884106621146202" lon="13.490068316459656">
        <ele>1247.450073</ele>
        <time>2017-06-16T09:58:30Z</time>
      </trkpt>
      <trkpt lat="41.884201504290104" lon="13.490036129951477">
        <ele>1249.369995</ele>
        <time>2017-06-16T09:58:42Z</time>
      </trkpt>
      <trkpt lat="41.884290939196944" lon="13.49000939168036">
        <ele>1251.290039</ele>
        <time>2017-06-16T09:58:55Z</time>
      </trkpt>
      <trkpt lat="41.884396132081747" lon="13.489972511306405">
        <ele>1252.740112</ele>
        <time>2017-06-16T09:59:09Z</time>
      </trkpt>
      <trkpt lat="41.884441478177905" lon="13.489966560155153">
        <ele>1253.6999510000001</ele>
        <time>2017-06-16T09:59:15Z</time>
      </trkpt>
      <trkpt lat="41.884452123194933" lon="13.490059934556484">
        <ele>1255.619995</ele>
        <time>2017-06-16T09:59:27Z</time>
      </trkpt>
      <trkpt lat="41.884398898109794" lon="13.49016772583127">
        <ele>1257.059937</ele>
        <time>2017-06-16T09:59:42Z</time>
      </trkpt>
      <trkpt lat="41.88430585898459" lon="13.49030158482492">
        <ele>1258.0200199999999</ele>
        <time>2017-06-16T09:59:58Z</time>
      </trkpt>
      <trkpt lat="41.884265206754208" lon="13.490413734689355">
        <ele>1258.9799800000001</ele>
        <time>2017-06-16T10:00:09Z</time>
      </trkpt>
      <trkpt lat="41.884217681363225" lon="13.49052781239152">
        <ele>1260.4300539999999</ele>
        <time>2017-06-16T10:00:21Z</time>
      </trkpt>
      <trkpt lat="41.88417099416256" lon="13.490666281431913">
        <ele>1263.309937</ele>
        <time>2017-06-16T10:00:36Z</time>
      </trkpt>
      <trkpt lat="41.884198319166899" lon="13.490704335272312">
        <ele>1265.2299800000001</ele>
        <time>2017-06-16T10:00:49Z</time>
      </trkpt>
      <trkpt lat="41.884182477369905" lon="13.490797039121389">
        <ele>1267.160034</ele>
        <time>2017-06-16T10:01:02Z</time>
      </trkpt>
      <trkpt lat="41.88417493365705" lon="13.490854538977146">
        <ele>1268.119995</ele>
        <time>2017-06-16T10:01:14Z</time>
      </trkpt>
      <trkpt lat="41.884179208427668" lon="13.490854287520051">
        <ele>1268.119995</ele>
        <time>2017-06-16T10:01:15Z</time>
      </trkpt>
      <trkpt lat="41.884252717718482" lon="13.490887731313705">
        <ele>1270.9998780000001</ele>
        <time>2017-06-16T10:01:29Z</time>
      </trkpt>
      <trkpt lat="41.88424383290112" lon="13.490994684398174">
        <ele>1270.9998780000001</ele>
        <time>2017-06-16T10:01:41Z</time>
      </trkpt>
      <trkpt lat="41.884224135428667" lon="13.491038102656603">
        <ele>1271.4801030000001</ele>
        <time>2017-06-16T10:01:46Z</time>
      </trkpt>
      <trkpt lat="41.884151212871075" lon="13.491149833425879">
        <ele>1273.3999020000001</ele>
        <time>2017-06-16T10:02:00Z</time>
      </trkpt>
      <trkpt lat="41.884175939485431" lon="13.491213535889983">
        <ele>1274.3599850000001</ele>
        <time>2017-06-16T10:02:12Z</time>
      </trkpt>
      <trkpt lat="41.884176358580589" lon="13.491214876994491">
        <ele>1274.3599850000001</ele>
        <time>2017-06-16T10:02:13Z</time>
      </trkpt>
      <trkpt lat="41.884189434349537" lon="13.491300623863935">
        <ele>1275.8100589999999</ele>
        <time>2017-06-16T10:02:26Z</time>
      </trkpt>
      <trkpt lat="41.88418566249311" lon="13.491316298022866">
        <ele>1276.290039</ele>
        <time>2017-06-16T10:02:48Z</time>
      </trkpt>
      <trkpt lat="41.88418029807508" lon="13.491418641060591">
        <ele>1278.2100829999999</ele>
        <time>2017-06-16T10:03:00Z</time>
      </trkpt>
      <trkpt lat="41.884157918393612" lon="13.491492485627532">
        <ele>1280.1298830000001</ele>
        <time>2017-06-16T10:03:12Z</time>
      </trkpt>
      <trkpt lat="41.884191613644361" lon="13.491556271910667">
        <ele>1282.059937</ele>
        <time>2017-06-16T10:03:24Z</time>
      </trkpt>
      <trkpt lat="41.88424332998693" lon="13.491594158113003">
        <ele>1283.5</ele>
        <time>2017-06-16T10:03:34Z</time>
      </trkpt>
      <trkpt lat="41.884238636121154" lon="13.491598265245557">
        <ele>1283.5</ele>
        <time>2017-06-16T10:03:51Z</time>
      </trkpt>
      <trkpt lat="41.884222039952874" lon="13.49160430021584">
        <ele>1283.5</ele>
        <time>2017-06-16T10:03:58Z</time>
      </trkpt>
      <trkpt lat="41.884168395772576" lon="13.49163162522018">
        <ele>1284.459961</ele>
        <time>2017-06-16T10:04:10Z</time>
      </trkpt>
      <trkpt lat="41.884186081588268" lon="13.49160136654973">
        <ele>1284.459961</ele>
        <time>2017-06-16T10:04:25Z</time>
      </trkpt>
      <trkpt lat="41.884226817637682" lon="13.491612179204822">
        <ele>1284.459961</ele>
        <time>2017-06-16T10:04:31Z</time>
      </trkpt>
      <trkpt lat="41.884308038279414" lon="13.491693902760744">
        <ele>1285.900024</ele>
        <time>2017-06-16T10:04:44Z</time>
      </trkpt>
      <trkpt lat="41.88432052731514" lon="13.491762969642878">
        <ele>1288.3000489999999</ele>
        <time>2017-06-16T10:04:55Z</time>
      </trkpt>
      <trkpt lat="41.884313067421317" lon="13.491843268275261">
        <ele>1290.2299800000001</ele>
        <time>2017-06-16T10:05:08Z</time>
      </trkpt>
      <trkpt lat="41.884330166503787" lon="13.491853158921003">
        <ele>1290.709961</ele>
        <time>2017-06-16T10:05:24Z</time>
      </trkpt>
      <trkpt lat="41.884384732693434" lon="13.49185542203486">
        <ele>1292.630005</ele>
        <time>2017-06-16T10:05:38Z</time>
      </trkpt>
      <trkpt lat="41.884411135688424" lon="13.491871934384108">
        <ele>1292.630005</ele>
        <time>2017-06-16T10:06:01Z</time>
      </trkpt>
      <trkpt lat="41.884462181478739" lon="13.491849219426513">
        <ele>1292.630005</ele>
        <time>2017-06-16T10:06:20Z</time>
      </trkpt>
      <trkpt lat="41.88445539213717" lon="13.491837736219168">
        <ele>1291.670044</ele>
        <time>2017-06-16T10:06:39Z</time>
      </trkpt>
      <trkpt lat="41.884436700493097" lon="13.491886937990785">
        <ele>1293.1099850000001</ele>
        <time>2017-06-16T10:06:46Z</time>
      </trkpt>
      <trkpt lat="41.884450865909457" lon="13.49192482419312">
        <ele>1293.589966</ele>
        <time>2017-06-16T10:07:03Z</time>
      </trkpt>
      <trkpt lat="41.884489003568888" lon="13.49195122718811">
        <ele>1295.98999</ele>
        <time>2017-06-16T10:07:22Z</time>
      </trkpt>
      <trkpt lat="41.884549437090755" lon="13.491986012086272">
        <ele>1297.4399410000001</ele>
        <time>2017-06-16T10:07:36Z</time>
      </trkpt>
      <trkpt lat="41.884637866169214" lon="13.492038482800126">
        <ele>1299.839966</ele>
        <time>2017-06-16T10:07:50Z</time>
      </trkpt>
      <trkpt lat="41.884702490642667" lon="13.492053486406803">
        <ele>1301.76001</ele>
        <time>2017-06-16T10:08:08Z</time>
      </trkpt>
      <trkpt lat="41.884802570566535" lon="13.492142586037517">
        <ele>1304.170044</ele>
        <time>2017-06-16T10:08:24Z</time>
      </trkpt>
      <trkpt lat="41.884862836450338" lon="13.492197822779417">
        <ele>1305.610107</ele>
        <time>2017-06-16T10:08:38Z</time>
      </trkpt>
      <trkpt lat="41.884911619126797" lon="13.492234535515308">
        <ele>1307.5299070000001</ele>
        <time>2017-06-16T10:08:50Z</time>
      </trkpt>
      <trkpt lat="41.884973561391234" lon="13.492324389517307">
        <ele>1309.4499510000001</ele>
        <time>2017-06-16T10:09:05Z</time>
      </trkpt>
      <trkpt lat="41.885001473128796" lon="13.492378201335669">
        <ele>1311.380005</ele>
        <time>2017-06-16T10:09:19Z</time>
      </trkpt>
      <trkpt lat="41.885061236098409" lon="13.492405610159039">
        <ele>1313.780029</ele>
        <time>2017-06-16T10:09:38Z</time>
      </trkpt>
      <trkpt lat="41.88512577675283" lon="13.492428408935666">
        <ele>1315.6999510000001</ele>
        <time>2017-06-16T10:09:56Z</time>
      </trkpt>
      <trkpt lat="41.885252008214593" lon="13.492419524118304">
        <ele>1318.589966</ele>
        <time>2017-06-16T10:10:15Z</time>
      </trkpt>
      <trkpt lat="41.885330127552152" lon="13.492419859394431">
        <ele>1320.51001</ele>
        <time>2017-06-16T10:10:31Z</time>
      </trkpt>
      <trkpt lat="41.885416377335787" lon="13.492477778345346">
        <ele>1323.3900149999999</ele>
        <time>2017-06-16T10:10:48Z</time>
      </trkpt>
      <trkpt lat="41.885428363457322" lon="13.492470989003778">
        <ele>1323.8698730000001</ele>
        <time>2017-06-16T10:11:12Z</time>
      </trkpt>
      <trkpt lat="41.885549062862992" lon="13.492463361471891">
        <ele>1326.76001</ele>
        <time>2017-06-16T10:11:30Z</time>
      </trkpt>
      <trkpt lat="41.885614190250635" lon="13.492489764466882">
        <ele>1328.6800539999999</ele>
        <time>2017-06-16T10:11:44Z</time>
      </trkpt>
      <trkpt lat="41.885592062026262" lon="13.492548018693924">
        <ele>1331.080078</ele>
        <time>2017-06-16T10:11:59Z</time>
      </trkpt>
      <trkpt lat="41.885576136410236" lon="13.492608871310949">
        <ele>1332.040039</ele>
        <time>2017-06-16T10:12:16Z</time>
      </trkpt>
      <trkpt lat="41.885615112259984" lon="13.492640806362033">
        <ele>1334.4499510000001</ele>
        <time>2017-06-16T10:12:31Z</time>
      </trkpt>
      <trkpt lat="41.885695829987526" lon="13.49260937422514">
        <ele>1336.849976</ele>
        <time>2017-06-16T10:12:46Z</time>
      </trkpt>
      <trkpt lat="41.885775122791529" lon="13.492572074756026">
        <ele>1338.290039</ele>
        <time>2017-06-16T10:13:02Z</time>
      </trkpt>
      <trkpt lat="41.885873777791858" lon="13.492524884641171">
        <ele>1340.2200929999999</ele>
        <time>2017-06-16T10:13:17Z</time>
      </trkpt>
      <trkpt lat="41.885952483862638" lon="13.492465792223811">
        <ele>1341.6599120000001</ele>
        <time>2017-06-16T10:13:29Z</time>
      </trkpt>
      <trkpt lat="41.886040074750781" lon="13.492387672886252">
        <ele>1343.579956</ele>
        <time>2017-06-16T10:13:42Z</time>
      </trkpt>
      <trkpt lat="41.886007469147444" lon="13.492451794445515">
        <ele>1345.5</ele>
        <time>2017-06-16T10:13:55Z</time>
      </trkpt>
      <trkpt lat="41.886048037558794" lon="13.492478532716632">
        <ele>1347.4300539999999</ele>
        <time>2017-06-16T10:14:07Z</time>
      </trkpt>
      <trkpt lat="41.886074859648943" lon="13.492554305121303">
        <ele>1348.8698730000001</ele>
        <time>2017-06-16T10:14:22Z</time>
      </trkpt>
      <trkpt lat="41.886063711717725" lon="13.492616498842835">
        <ele>1349.830078</ele>
        <time>2017-06-16T10:14:31Z</time>
      </trkpt>
      <trkpt lat="41.886071506887674" lon="13.4926494397223">
        <ele>1350.7899170000001</ele>
        <time>2017-06-16T10:14:47Z</time>
      </trkpt>
      <trkpt lat="41.886066310107708" lon="13.492662264034152">
        <ele>1350.7899170000001</ele>
        <time>2017-06-16T10:15:24Z</time>
      </trkpt>
      <trkpt lat="41.886071506887674" lon="13.492628065869212">
        <ele>1351.2698969999999</ele>
        <time>2017-06-16T10:15:43Z</time>
      </trkpt>
      <trkpt lat="41.885992884635925" lon="13.492622533813119">
        <ele>1351.2698969999999</ele>
        <time>2017-06-16T10:16:18Z</time>
      </trkpt>
      <trkpt lat="41.886046193540096" lon="13.492714064195752">
        <ele>1351.75</ele>
        <time>2017-06-16T10:16:53Z</time>
      </trkpt>
      <trkpt lat="41.886105537414551" lon="13.492644494399428">
        <ele>1351.75</ele>
        <time>2017-06-16T10:17:24Z</time>
      </trkpt>
      <trkpt lat="41.886098496615887" lon="13.492498733103275">
        <ele>1352.2299800000001</ele>
        <time>2017-06-16T10:17:54Z</time>
      </trkpt>
      <trkpt lat="41.886080894619226" lon="13.492477107793093">
        <ele>1352.2299800000001</ele>
        <time>2017-06-16T10:18:28Z</time>
      </trkpt>
      <trkpt lat="41.88607569783926" lon="13.492488591000438">
        <ele>1352.2299800000001</ele>
        <time>2017-06-16T10:18:57Z</time>
      </trkpt>
      <trkpt lat="41.886082906275988" lon="13.492493201047182">
        <ele>1353.1899410000001</ele>
        <time>2017-06-16T10:19:35Z</time>
      </trkpt>
      <trkpt lat="41.886090030893683" lon="13.492545587942004">
        <ele>1353.1899410000001</ele>
        <time>2017-06-16T10:20:06Z</time>
      </trkpt>
      <trkpt lat="41.88603613525629" lon="13.492646338418126">
        <ele>1353.669922</ele>
        <time>2017-06-16T10:20:31Z</time>
      </trkpt>
      <trkpt lat="41.886045522987843" lon="13.492683302611113">
        <ele>1353.669922</ele>
        <time>2017-06-16T10:20:52Z</time>
      </trkpt>
      <trkpt lat="41.886052563786507" lon="13.492673663422465">
        <ele>1353.669922</ele>
        <time>2017-06-16T10:21:28Z</time>
      </trkpt>
      <trkpt lat="41.886057425290346" lon="13.492634519934654">
        <ele>1354.150024</ele>
        <time>2017-06-16T10:22:02Z</time>
      </trkpt>
      <trkpt lat="41.88606203533709" lon="13.492582887411118">
        <ele>1354.630005</ele>
        <time>2017-06-16T10:22:30Z</time>
      </trkpt>
      <trkpt lat="41.88609816133976" lon="13.492677267640829">
        <ele>1354.630005</ele>
        <time>2017-06-16T10:23:05Z</time>
      </trkpt>
      <trkpt lat="41.886134538799524" lon="13.492620438337326">
        <ele>1355.599976</ele>
        <time>2017-06-16T10:23:39Z</time>
      </trkpt>
      <trkpt lat="41.886141831055284" lon="13.492633011192083">
        <ele>1357.040039</ele>
        <time>2017-06-16T10:23:52Z</time>
      </trkpt>
      <trkpt lat="41.886129593476653" lon="13.492686236277223">
        <ele>1358.9600829999999</ele>
        <time>2017-06-16T10:24:07Z</time>
      </trkpt>
      <trkpt lat="41.886134035885334" lon="13.492584060877562">
        <ele>1360.880005</ele>
        <time>2017-06-16T10:24:21Z</time>
      </trkpt>
      <trkpt lat="41.886213663965464" lon="13.492598477751017">
        <ele>1362.8100589999999</ele>
        <time>2017-06-16T10:24:35Z</time>
      </trkpt>
      <trkpt lat="41.886287592351437" lon="13.492559418082237">
        <ele>1364.25</ele>
        <time>2017-06-16T10:24:48Z</time>
      </trkpt>
      <trkpt lat="41.886353641748428" lon="13.492515496909618">
        <ele>1365.690063</ele>
        <time>2017-06-16T10:25:02Z</time>
      </trkpt>
      <trkpt lat="41.886410638689995" lon="13.492508875206113">
        <ele>1367.610107</ele>
        <time>2017-06-16T10:25:14Z</time>
      </trkpt>
      <trkpt lat="41.886484734714031" lon="13.492517927661538">
        <ele>1369.049927</ele>
        <time>2017-06-16T10:25:26Z</time>
      </trkpt>
      <trkpt lat="41.886463528499007" lon="13.492642398923635">
        <ele>1370.9799800000001</ele>
        <time>2017-06-16T10:25:39Z</time>
      </trkpt>
      <trkpt lat="41.886483393609524" lon="13.492812970653176">
        <ele>1373.380005</ele>
        <time>2017-06-16T10:25:54Z</time>
      </trkpt>
      <trkpt lat="41.886453637853265" lon="13.492904333397746">
        <ele>1374.820068</ele>
        <time>2017-06-16T10:26:07Z</time>
      </trkpt>
      <trkpt lat="41.886448441073298" lon="13.49299343302846">
        <ele>1376.26001</ele>
        <time>2017-06-16T10:26:22Z</time>
      </trkpt>
      <trkpt lat="41.886364538222551" lon="13.493053782731295">
        <ele>1378.1899410000001</ele>
        <time>2017-06-16T10:26:37Z</time>
      </trkpt>
      <trkpt lat="41.886397730559111" lon="13.493069959804416">
        <ele>1380.589966</ele>
        <time>2017-06-16T10:26:54Z</time>
      </trkpt>
      <trkpt lat="41.886456739157438" lon="13.493094434961677">
        <ele>1382.030029</ele>
        <time>2017-06-16T10:27:07Z</time>
      </trkpt>
      <trkpt lat="41.886505521833897" lon="13.493054201826453">
        <ele>1383.9600829999999</ele>
        <time>2017-06-16T10:27:18Z</time>
      </trkpt>
      <trkpt lat="41.886550197377801" lon="13.493016064167023">
        <ele>1385.3999020000001</ele>
        <time>2017-06-16T10:27:31Z</time>
      </trkpt>
      <trkpt lat="41.886655138805509" lon="13.492993265390396">
        <ele>1388.280029</ele>
        <time>2017-06-16T10:27:49Z</time>
      </trkpt>
      <trkpt lat="41.886653378605843" lon="13.49310684017837">
        <ele>1390.1999510000001</ele>
        <time>2017-06-16T10:28:05Z</time>
      </trkpt>
      <trkpt lat="41.886647092178464" lon="13.493132740259171">
        <ele>1391.650024</ele>
        <time>2017-06-16T10:28:18Z</time>
      </trkpt>
      <trkpt lat="41.886765528470278" lon="13.493085633963346">
        <ele>1394.049927</ele>
        <time>2017-06-16T10:28:33Z</time>
      </trkpt>
      <trkpt lat="41.886859321966767" lon="13.493056800216436">
        <ele>1395.969971</ele>
        <time>2017-06-16T10:28:48Z</time>
      </trkpt>
      <trkpt lat="41.886916905641556" lon="13.493061074987054">
        <ele>1397.8900149999999</ele>
        <time>2017-06-16T10:29:04Z</time>
      </trkpt>
      <trkpt lat="41.88696208409965" lon="13.493057722225785">
        <ele>1399.3400879999999</ele>
        <time>2017-06-16T10:29:23Z</time>
      </trkpt>
      <trkpt lat="41.887053279206157" lon="13.493059985339642">
        <ele>1401.7398679999999</ele>
        <time>2017-06-16T10:29:38Z</time>
      </trkpt>
      <trkpt lat="41.887118071317673" lon="13.493014806881547">
        <ele>1403.6599120000001</ele>
        <time>2017-06-16T10:29:51Z</time>
      </trkpt>
      <trkpt lat="41.887194765731692" lon="13.492981530725956">
        <ele>1405.579956</ele>
        <time>2017-06-16T10:30:05Z</time>
      </trkpt>
      <trkpt lat="41.887257127091289" lon="13.492914559319615">
        <ele>1407.51001</ele>
        <time>2017-06-16T10:30:17Z</time>
      </trkpt>
      <trkpt lat="41.887305239215493" lon="13.492863262072206">
        <ele>1408.469971</ele>
        <time>2017-06-16T10:30:30Z</time>
      </trkpt>
      <trkpt lat="41.887383610010147" lon="13.492838032543659">
        <ele>1410.3900149999999</ele>
        <time>2017-06-16T10:30:42Z</time>
      </trkpt>
      <trkpt lat="41.887417724356055" lon="13.49282437004149">
        <ele>1411.830078</ele>
        <time>2017-06-16T10:30:54Z</time>
      </trkpt>
      <trkpt lat="41.887470278888941" lon="13.492791093885899">
        <ele>1412.7899170000001</ele>
        <time>2017-06-16T10:31:08Z</time>
      </trkpt>
      <trkpt lat="41.887495592236519" lon="13.492776677012444">
        <ele>1412.7899170000001</ele>
        <time>2017-06-16T10:31:12Z</time>
      </trkpt>
      <trkpt lat="41.887606317177415" lon="13.492663269862533">
        <ele>1413.76001</ele>
        <time>2017-06-16T10:31:28Z</time>
      </trkpt>
      <trkpt lat="41.887626936659217" lon="13.492679782211781">
        <ele>1414.719971</ele>
        <time>2017-06-16T10:31:35Z</time>
      </trkpt>
      <trkpt lat="41.887593828141689" lon="13.492781706154346">
        <ele>1417.599976</ele>
        <time>2017-06-16T10:31:48Z</time>
      </trkpt>
      <trkpt lat="41.887579578906298" lon="13.492789082229137">
        <ele>1418.5600589999999</ele>
        <time>2017-06-16T10:32:02Z</time>
      </trkpt>
      <trkpt lat="41.887564491480589" lon="13.49282487295568">
        <ele>1418.5600589999999</ele>
        <time>2017-06-16T10:32:14Z</time>
      </trkpt>
      <trkpt lat="41.887572621926665" lon="13.492816993966699">
        <ele>1418.5600589999999</ele>
        <time>2017-06-16T10:32:15Z</time>
      </trkpt>
      <trkpt lat="41.887655686587095" lon="13.492775503546">
        <ele>1420.48999</ele>
        <time>2017-06-16T10:32:27Z</time>
      </trkpt>
      <trkpt lat="41.887730872258544" lon="13.492754884064198">
        <ele>1422.8900149999999</ele>
        <time>2017-06-16T10:32:40Z</time>
      </trkpt>
      <trkpt lat="41.88773212954402" lon="13.492797464132309">
        <ele>1423.849976</ele>
        <time>2017-06-16T10:32:51Z</time>
      </trkpt>
      <trkpt lat="41.887724585831165" lon="13.492891760542989">
        <ele>1426.7299800000001</ele>
        <time>2017-06-16T10:33:05Z</time>
      </trkpt>
      <trkpt lat="41.887737158685923" lon="13.492929479107261">
        <ele>1427.700073</ele>
        <time>2017-06-16T10:33:12Z</time>
      </trkpt>
      <trkpt lat="41.887681921944022" lon="13.49305453710258">
        <ele>1428.6599120000001</ele>
        <time>2017-06-16T10:33:24Z</time>
      </trkpt>
      <trkpt lat="41.887643281370401" lon="13.493100889027119">
        <ele>1428.6599120000001</ele>
        <time>2017-06-16T10:33:29Z</time>
      </trkpt>
      <trkpt lat="41.88761587254703" lon="13.493118658661842">
        <ele>1429.139893</ele>
        <time>2017-06-16T10:33:32Z</time>
      </trkpt>
      <trkpt lat="41.887595001608133" lon="13.493151180446148">
        <ele>1429.619995</ele>
        <time>2017-06-16T10:33:35Z</time>
      </trkpt>
      <trkpt lat="41.887543285265565" lon="13.493211781606078">
        <ele>1430.099976</ele>
        <time>2017-06-16T10:33:41Z</time>
      </trkpt>
      <trkpt lat="41.887512439861894" lon="13.49320842884481">
        <ele>1430.099976</ele>
        <time>2017-06-16T10:33:53Z</time>
      </trkpt>
      <trkpt lat="41.887506740167737" lon="13.493232065811753">
        <ele>1430.099976</ele>
        <time>2017-06-16T10:34:02Z</time>
      </trkpt>
      <trkpt lat="41.887444294989109" lon="13.493397776037455">
        <ele>1431.5399170000001</ele>
        <time>2017-06-16T10:34:16Z</time>
      </trkpt>
      <trkpt lat="41.887326361611485" lon="13.49357396364212">
        <ele>1432.9799800000001</ele>
        <time>2017-06-16T10:34:33Z</time>
      </trkpt>
      <trkpt lat="41.887300712987781" lon="13.4936130233109">
        <ele>1433.459961</ele>
        <time>2017-06-16T10:34:44Z</time>
      </trkpt>
      <trkpt lat="41.887279758229852" lon="13.493677815422416">
        <ele>1433.9399410000001</ele>
        <time>2017-06-16T10:35:00Z</time>
      </trkpt>
      <trkpt lat="41.887273220345378" lon="13.493690891191363">
        <ele>1434.420044</ele>
        <time>2017-06-16T10:35:17Z</time>
      </trkpt>
      <trkpt lat="41.887271460145712" lon="13.493675468489528">
        <ele>1434.420044</ele>
        <time>2017-06-16T10:35:41Z</time>
      </trkpt>
      <trkpt lat="41.887260396033525" lon="13.493683431297541">
        <ele>1434.420044</ele>
        <time>2017-06-16T10:35:51Z</time>
      </trkpt>
      <trkpt lat="41.887153526768088" lon="13.493794910609722">
        <ele>1435.3900149999999</ele>
        <time>2017-06-16T10:36:05Z</time>
      </trkpt>
      <trkpt lat="41.887144139036536" lon="13.493789965286851">
        <ele>1435.3900149999999</ele>
        <time>2017-06-16T10:36:17Z</time>
      </trkpt>
      <trkpt lat="41.887077586725354" lon="13.493914436548948">
        <ele>1435.869995</ele>
        <time>2017-06-16T10:36:28Z</time>
      </trkpt>
      <trkpt lat="41.886947499588132" lon="13.494044104591012">
        <ele>1437.3100589999999</ele>
        <time>2017-06-16T10:36:41Z</time>
      </trkpt>
      <trkpt lat="41.886922437697649" lon="13.494113590568304">
        <ele>1437.7899170000001</ele>
        <time>2017-06-16T10:36:47Z</time>
      </trkpt>
      <trkpt lat="41.88676418736577" lon="13.494207467883825">
        <ele>1439.709961</ele>
        <time>2017-06-16T10:37:00Z</time>
      </trkpt>
      <trkpt lat="41.886752871796489" lon="13.494229931384325">
        <ele>1440.1899410000001</ele>
        <time>2017-06-16T10:37:18Z</time>
      </trkpt>
      <trkpt lat="41.886739963665605" lon="13.494238816201687">
        <ele>1440.669922</ele>
        <time>2017-06-16T10:37:32Z</time>
      </trkpt>
      <trkpt lat="41.886686822399497" lon="13.494305536150932">
        <ele>1440.669922</ele>
        <time>2017-06-16T10:37:38Z</time>
      </trkpt>
      <trkpt lat="41.886669220402837" lon="13.494364460930228">
        <ele>1441.150024</ele>
        <time>2017-06-16T10:37:43Z</time>
      </trkpt>
      <trkpt lat="41.886598560959101" lon="13.494412740692496">
        <ele>1441.630005</ele>
        <time>2017-06-16T10:37:48Z</time>
      </trkpt>
      <trkpt lat="41.886543827131391" lon="13.494449034333229">
        <ele>1443.080078</ele>
        <time>2017-06-16T10:37:56Z</time>
      </trkpt>
      <trkpt lat="41.88649051822722" lon="13.494492368772626">
        <ele>1443.080078</ele>
        <time>2017-06-16T10:38:01Z</time>
      </trkpt>
      <trkpt lat="41.88633318990469" lon="13.494639806449413">
        <ele>1444.5200199999999</ele>
        <time>2017-06-16T10:38:16Z</time>
      </trkpt>
      <trkpt lat="41.886322293430567" lon="13.494647769257426">
        <ele>1445</ele>
        <time>2017-06-16T10:38:17Z</time>
      </trkpt>
      <trkpt lat="41.886204527691007" lon="13.494798811152577">
        <ele>1445.9600829999999</ele>
        <time>2017-06-16T10:38:32Z</time>
      </trkpt>
      <trkpt lat="41.886067315936089" lon="13.494895789772272">
        <ele>1447.8801269999999</ele>
        <time>2017-06-16T10:38:44Z</time>
      </trkpt>
      <trkpt lat="41.886003781110048" lon="13.494956139475107">
        <ele>1449.3199460000001</ele>
        <time>2017-06-16T10:38:51Z</time>
      </trkpt>
      <trkpt lat="41.885860031470656" lon="13.495063260197639">
        <ele>1449.3199460000001</ele>
        <time>2017-06-16T10:39:03Z</time>
      </trkpt>
      <trkpt lat="41.885759616270661" lon="13.495163088664412">
        <ele>1450.7700199999999</ele>
        <time>2017-06-16T10:39:15Z</time>
      </trkpt>
      <trkpt lat="41.885601617395878" lon="13.495323602110147">
        <ele>1451.7299800000001</ele>
        <time>2017-06-16T10:39:31Z</time>
      </trkpt>
      <trkpt lat="41.885532885789871" lon="13.49537355825305">
        <ele>1452.209961</ele>
        <time>2017-06-16T10:39:39Z</time>
      </trkpt>
      <trkpt lat="41.885344963520765" lon="13.495476907119155">
        <ele>1453.650024</ele>
        <time>2017-06-16T10:39:56Z</time>
      </trkpt>
      <trkpt lat="41.885185707360506" lon="13.495581680908799">
        <ele>1455.0900879999999</ele>
        <time>2017-06-16T10:40:11Z</time>
      </trkpt>
      <trkpt lat="41.885066935792565" lon="13.49564965814352">
        <ele>1456.5299070000001</ele>
        <time>2017-06-16T10:40:21Z</time>
      </trkpt>
      <trkpt lat="41.885013962164521" lon="13.495675222948194">
        <ele>1457.0200199999999</ele>
        <time>2017-06-16T10:40:27Z</time>
      </trkpt>
      <trkpt lat="41.885001976042986" lon="13.495681341737509">
        <ele>1457.0200199999999</ele>
        <time>2017-06-16T10:40:28Z</time>
      </trkpt>
      <trkpt lat="41.884989403188229" lon="13.495687041431665">
        <ele>1457.5</ele>
        <time>2017-06-16T10:40:29Z</time>
      </trkpt>
      <trkpt lat="41.884978171437979" lon="13.495692992582917">
        <ele>1457.5</ele>
        <time>2017-06-16T10:40:30Z</time>
      </trkpt>
      <trkpt lat="41.884967023506761" lon="13.495701625943184">
        <ele>1457.5</ele>
        <time>2017-06-16T10:40:31Z</time>
      </trkpt>
      <trkpt lat="41.884837439283729" lon="13.495815536007285">
        <ele>1458.9399410000001</ele>
        <time>2017-06-16T10:40:45Z</time>
      </trkpt>
      <trkpt lat="41.884673405438662" lon="13.495954591780901">
        <ele>1460.380005</ele>
        <time>2017-06-16T10:41:00Z</time>
      </trkpt>
      <trkpt lat="41.884539630264044" lon="13.496135640889406">
        <ele>1462.3000489999999</ele>
        <time>2017-06-16T10:41:16Z</time>
      </trkpt>
      <trkpt lat="41.88441189005971" lon="13.496323060244322">
        <ele>1464.2299800000001</ele>
        <time>2017-06-16T10:41:32Z</time>
      </trkpt>
      <trkpt lat="41.884302590042353" lon="13.49648080766201">
        <ele>1464.2299800000001</ele>
        <time>2017-06-16T10:41:46Z</time>
      </trkpt>
      <trkpt lat="41.884191362187266" lon="13.496664203703403">
        <ele>1466.630005</ele>
        <time>2017-06-16T10:42:00Z</time>
      </trkpt>
      <trkpt lat="41.884080469608307" lon="13.496907697990537">
        <ele>1467.589966</ele>
        <time>2017-06-16T10:42:17Z</time>
      </trkpt>
      <trkpt lat="41.88406890258193" lon="13.496960839256644">
        <ele>1468.0699460000001</ele>
        <time>2017-06-16T10:42:22Z</time>
      </trkpt>
      <trkpt lat="41.88406546600163" lon="13.496978608891368">
        <ele>1468.0699460000001</ele>
        <time>2017-06-16T10:42:23Z</time>
      </trkpt>
      <trkpt lat="41.884061861783266" lon="13.496995288878679">
        <ele>1468.5500489999999</ele>
        <time>2017-06-16T10:42:24Z</time>
      </trkpt>
      <trkpt lat="41.884010564535856" lon="13.497209278866649">
        <ele>1469.030029</ele>
        <time>2017-06-16T10:42:39Z</time>
      </trkpt>
      <trkpt lat="41.884009474888444" lon="13.497227299958467">
        <ele>1469.51001</ele>
        <time>2017-06-16T10:42:40Z</time>
      </trkpt>
      <trkpt lat="41.883991537615657" lon="13.497468112036586">
        <ele>1470.950073</ele>
        <time>2017-06-16T10:42:55Z</time>
      </trkpt>
      <trkpt lat="41.883986927568913" lon="13.497716803103685">
        <ele>1471.919922</ele>
        <time>2017-06-16T10:43:10Z</time>
      </trkpt>
      <trkpt lat="41.88397997058928" lon="13.497952334582806">
        <ele>1473.3599850000001</ele>
        <time>2017-06-16T10:43:25Z</time>
      </trkpt>
      <trkpt lat="41.883975360542536" lon="13.498152662068605">
        <ele>1474.3199460000001</ele>
        <time>2017-06-16T10:43:38Z</time>
      </trkpt>
      <trkpt lat="41.883932277560234" lon="13.498378219082952">
        <ele>1475.76001</ele>
        <time>2017-06-16T10:43:52Z</time>
      </trkpt>
      <trkpt lat="41.88387100584805" lon="13.49857410416007">
        <ele>1476.719971</ele>
        <time>2017-06-16T10:44:05Z</time>
      </trkpt>
      <trkpt lat="41.883772015571594" lon="13.498747777193785">
        <ele>1478.160034</ele>
        <time>2017-06-16T10:44:19Z</time>
      </trkpt>
      <trkpt lat="41.883639162406325" lon="13.498898986726999">
        <ele>1479.130005</ele>
        <time>2017-06-16T10:44:34Z</time>
      </trkpt>
      <trkpt lat="41.883482923731208" lon="13.499039970338345">
        <ele>1481.0500489999999</ele>
        <time>2017-06-16T10:44:50Z</time>
      </trkpt>
      <trkpt lat="41.883419724181294" lon="13.499081376940012">
        <ele>1481.5299070000001</ele>
        <time>2017-06-16T10:44:57Z</time>
      </trkpt>
      <trkpt lat="41.883411258459091" lon="13.499094117432833">
        <ele>1481.0500489999999</ele>
        <time>2017-06-16T10:44:58Z</time>
      </trkpt>
      <trkpt lat="41.883404888212681" lon="13.499106941744685">
        <ele>1481.0500489999999</ele>
        <time>2017-06-16T10:44:59Z</time>
      </trkpt>
      <trkpt lat="41.883395500481129" lon="13.499118760228157">
        <ele>1482.009888</ele>
        <time>2017-06-16T10:45:00Z</time>
      </trkpt>
      <trkpt lat="41.883384771645069" lon="13.499128818511963">
        <ele>1482.009888</ele>
        <time>2017-06-16T10:45:01Z</time>
      </trkpt>
      <trkpt lat="41.883230963721871" lon="13.499181875959039">
        <ele>1482.969971</ele>
        <time>2017-06-16T10:45:15Z</time>
      </trkpt>
      <trkpt lat="41.883104061707854" lon="13.499246081337333">
        <ele>1484.4099120000001</ele>
        <time>2017-06-16T10:45:27Z</time>
      </trkpt>
      <trkpt lat="41.883069612085819" lon="13.499262258410454">
        <ele>1484.4099120000001</ele>
        <time>2017-06-16T10:45:30Z</time>
      </trkpt>
      <trkpt lat="41.883057206869125" lon="13.499268377199769">
        <ele>1484.4099120000001</ele>
        <time>2017-06-16T10:45:31Z</time>
      </trkpt>
      <trkpt lat="41.883044634014368" lon="13.499278016388416">
        <ele>1484.4099120000001</ele>
        <time>2017-06-16T10:45:32Z</time>
      </trkpt>
      <trkpt lat="41.882992163300514" lon="13.499309616163373">
        <ele>1484.8900149999999</ele>
        <time>2017-06-16T10:45:38Z</time>
      </trkpt>
      <trkpt lat="41.882977411150932" lon="13.499321602284908">
        <ele>1484.8900149999999</ele>
        <time>2017-06-16T10:45:39Z</time>
      </trkpt>
      <trkpt lat="41.882962407544255" lon="13.499330068007112">
        <ele>1484.8900149999999</ele>
        <time>2017-06-16T10:45:40Z</time>
      </trkpt>
      <trkpt lat="41.882949080318213" lon="13.499336270615458">
        <ele>1484.8900149999999</ele>
        <time>2017-06-16T10:45:41Z</time>
      </trkpt>
      <trkpt lat="41.882934831082821" lon="13.499342724680901">
        <ele>1484.8900149999999</ele>
        <time>2017-06-16T10:45:42Z</time>
      </trkpt>
      <trkpt lat="41.882778005674481" lon="13.49941112101078">
        <ele>1486.339966</ele>
        <time>2017-06-16T10:45:55Z</time>
      </trkpt>
      <trkpt lat="41.882638363167644" lon="13.499531401321292">
        <ele>1487.780029</ele>
        <time>2017-06-16T10:46:09Z</time>
      </trkpt>
      <trkpt lat="41.882613804191351" lon="13.499581860378385">
        <ele>1488.26001</ele>
        <time>2017-06-16T10:46:13Z</time>
      </trkpt>
      <trkpt lat="41.88253409229219" lon="13.49975167773664">
        <ele>1489.2200929999999</ele>
        <time>2017-06-16T10:46:27Z</time>
      </trkpt>
      <trkpt lat="41.882472233846784" lon="13.49987581372261">
        <ele>1489.700073</ele>
        <time>2017-06-16T10:46:35Z</time>
      </trkpt>
      <trkpt lat="41.882446082308888" lon="13.499915041029453">
        <ele>1489.2200929999999</ele>
        <time>2017-06-16T10:46:40Z</time>
      </trkpt>
      <trkpt lat="41.88244080170989" lon="13.499930631369352">
        <ele>1489.2200929999999</ele>
        <time>2017-06-16T10:46:41Z</time>
      </trkpt>
      <trkpt lat="41.882434012368321" lon="13.499946976080537">
        <ele>1489.2200929999999</ele>
        <time>2017-06-16T10:46:42Z</time>
      </trkpt>
      <trkpt lat="41.882426803931594" lon="13.49996373988688">
        <ele>1489.2200929999999</ele>
        <time>2017-06-16T10:46:43Z</time>
      </trkpt>
      <trkpt lat="41.882419427856803" lon="13.499982180073857">
        <ele>1489.700073</ele>
        <time>2017-06-16T10:46:44Z</time>
      </trkpt>
      <trkpt lat="41.882378691807389" lon="13.500034818425775">
        <ele>1489.700073</ele>
        <time>2017-06-16T10:46:57Z</time>
      </trkpt>
      <trkpt lat="41.8823660351336" lon="13.500165240839124">
        <ele>1490.6599120000001</ele>
        <time>2017-06-16T10:47:04Z</time>
      </trkpt>
      <trkpt lat="41.882360503077507" lon="13.500429522246122">
        <ele>1491.6201169999999</ele>
        <time>2017-06-16T10:47:21Z</time>
      </trkpt>
      <trkpt lat="41.882340470328927" lon="13.500494565814734">
        <ele>1492.099976</ele>
        <time>2017-06-16T10:47:27Z</time>
      </trkpt>
      <trkpt lat="41.882332675158978" lon="13.500509988516569">
        <ele>1492.099976</ele>
        <time>2017-06-16T10:47:28Z</time>
      </trkpt>
      <trkpt lat="41.882326891645789" lon="13.500527339056134">
        <ele>1492.099976</ele>
        <time>2017-06-16T10:47:29Z</time>
      </trkpt>
      <trkpt lat="41.88232496380806" lon="13.500547623261809">
        <ele>1492.099976</ele>
        <time>2017-06-16T10:47:30Z</time>
      </trkpt>
      <trkpt lat="41.882322365418077" lon="13.500567236915231">
        <ele>1492.579956</ele>
        <time>2017-06-16T10:47:31Z</time>
      </trkpt>
      <trkpt lat="41.882320437580347" lon="13.500588275492191">
        <ele>1492.579956</ele>
        <time>2017-06-16T10:47:32Z</time>
      </trkpt>
      <trkpt lat="41.882317839190364" lon="13.500608811154962">
        <ele>1492.579956</ele>
        <time>2017-06-16T10:47:33Z</time>
      </trkpt>
      <trkpt lat="41.882318761199713" lon="13.500629933550954">
        <ele>1492.579956</ele>
        <time>2017-06-16T10:47:34Z</time>
      </trkpt>
      <trkpt lat="41.882322784513235" lon="13.500648122280836">
        <ele>1492.579956</ele>
        <time>2017-06-16T10:47:35Z</time>
      </trkpt>
      <trkpt lat="41.882323706522584" lon="13.500667819753289">
        <ele>1493.059937</ele>
        <time>2017-06-16T10:47:36Z</time>
      </trkpt>
      <trkpt lat="41.88228783197701" lon="13.50081592798233">
        <ele>1494.030029</ele>
        <time>2017-06-16T10:47:47Z</time>
      </trkpt>
      <trkpt lat="41.882262099534273" lon="13.500900669023395">
        <ele>1494.51001</ele>
        <time>2017-06-16T10:47:53Z</time>
      </trkpt>
      <trkpt lat="41.88219110481441" lon="13.501010723412037">
        <ele>1495.469971</ele>
        <time>2017-06-16T10:48:02Z</time>
      </trkpt>
      <trkpt lat="41.882144836708903" lon="13.501068977639079">
        <ele>1496.4300539999999</ele>
        <time>2017-06-16T10:48:08Z</time>
      </trkpt>
      <trkpt lat="41.882060933858156" lon="13.501190096139908">
        <ele>1497.3900149999999</ele>
        <time>2017-06-16T10:48:20Z</time>
      </trkpt>
      <trkpt lat="41.882027573883533" lon="13.501238375902176">
        <ele>1497.869995</ele>
        <time>2017-06-16T10:48:25Z</time>
      </trkpt>
      <trkpt lat="41.882020868360996" lon="13.501254133880138">
        <ele>1497.869995</ele>
        <time>2017-06-16T10:48:26Z</time>
      </trkpt>
      <trkpt lat="41.882012402638793" lon="13.501271065324545">
        <ele>1497.869995</ele>
        <time>2017-06-16T10:48:27Z</time>
      </trkpt>
      <trkpt lat="41.881925398483872" lon="13.50148388184607">
        <ele>1499.3100589999999</ele>
        <time>2017-06-16T10:48:42Z</time>
      </trkpt>
      <trkpt lat="41.881861863657832" lon="13.501618495211005">
        <ele>1499.3100589999999</ele>
        <time>2017-06-16T10:48:51Z</time>
      </trkpt>
      <trkpt lat="41.881857672706246" lon="13.501633666455746">
        <ele>1500.2698969999999</ele>
        <time>2017-06-16T10:48:52Z</time>
      </trkpt>
      <trkpt lat="41.881789360195398" lon="13.50183516740799">
        <ele>1501.23999</ele>
        <time>2017-06-16T10:49:06Z</time>
      </trkpt>
      <trkpt lat="41.881746612489223" lon="13.501995680853724">
        <ele>1502.6800539999999</ele>
        <time>2017-06-16T10:49:18Z</time>
      </trkpt>
      <trkpt lat="41.881649885326624" lon="13.502218220382929">
        <ele>1503.6400149999999</ele>
        <time>2017-06-16T10:49:33Z</time>
      </trkpt>
      <trkpt lat="41.881582578644156" lon="13.50245576351881">
        <ele>1505.079956</ele>
        <time>2017-06-16T10:49:50Z</time>
      </trkpt>
      <trkpt lat="41.88151728361845" lon="13.50242592394352">
        <ele>1505.5600589999999</ele>
        <time>2017-06-16T10:50:07Z</time>
      </trkpt>
      <trkpt lat="41.881525665521622" lon="13.502647960558534">
        <ele>1506.040039</ele>
        <time>2017-06-16T10:50:20Z</time>
      </trkpt>
      <trkpt lat="41.881506135687232" lon="13.502937639132142">
        <ele>1507.4799800000001</ele>
        <time>2017-06-16T10:50:37Z</time>
      </trkpt>
      <trkpt lat="41.881500603631139" lon="13.502977788448334">
        <ele>1507.969971</ele>
        <time>2017-06-16T10:50:39Z</time>
      </trkpt>
      <trkpt lat="41.881496664136648" lon="13.502997066825628">
        <ele>1507.969971</ele>
        <time>2017-06-16T10:50:40Z</time>
      </trkpt>
      <trkpt lat="41.881492640823126" lon="13.503016009926796">
        <ele>1507.969971</ele>
        <time>2017-06-16T10:50:41Z</time>
      </trkpt>
      <trkpt lat="41.881490964442492" lon="13.503031181171536">
        <ele>1507.969971</ele>
        <time>2017-06-16T10:50:42Z</time>
      </trkpt>
      <trkpt lat="41.881515774875879" lon="13.503245338797569">
        <ele>1508.4499510000001</ele>
        <time>2017-06-16T10:50:56Z</time>
      </trkpt>
      <trkpt lat="41.881501190364361" lon="13.503334019333124">
        <ele>1508.929932</ele>
        <time>2017-06-16T10:51:02Z</time>
      </trkpt>
      <trkpt lat="41.881503369659185" lon="13.503352627158165">
        <ele>1508.929932</ele>
        <time>2017-06-16T10:51:03Z</time>
      </trkpt>
      <trkpt lat="41.881498424336314" lon="13.503384059295058">
        <ele>1508.929932</ele>
        <time>2017-06-16T10:51:05Z</time>
      </trkpt>
      <trkpt lat="41.881491970270872" lon="13.503399733453989">
        <ele>1508.929932</ele>
        <time>2017-06-16T10:51:06Z</time>
      </trkpt>
      <trkpt lat="41.881407480686903" lon="13.503460083156824">
        <ele>1510.369995</ele>
        <time>2017-06-16T10:51:15Z</time>
      </trkpt>
      <trkpt lat="41.881385268643498" lon="13.503473158925772">
        <ele>1510.369995</ele>
        <time>2017-06-16T10:51:17Z</time>
      </trkpt>
      <trkpt lat="41.881371941417456" lon="13.503483133390546">
        <ele>1510.369995</ele>
        <time>2017-06-16T10:51:18Z</time>
      </trkpt>
      <trkpt lat="41.881358362734318" lon="13.503490593284369">
        <ele>1510.369995</ele>
        <time>2017-06-16T10:51:19Z</time>
      </trkpt>
      <trkpt lat="41.88134578987956" lon="13.503498723730445">
        <ele>1510.369995</ele>
        <time>2017-06-16T10:51:20Z</time>
      </trkpt>
      <trkpt lat="41.881332965567708" lon="13.503505764529109">
        <ele>1510.849976</ele>
        <time>2017-06-16T10:51:21Z</time>
      </trkpt>
      <trkpt lat="41.881317710503936" lon="13.503510961309075">
        <ele>1510.849976</ele>
        <time>2017-06-16T10:51:22Z</time>
      </trkpt>
      <trkpt lat="41.881236238405108" lon="13.503528060391545">
        <ele>1511.809937</ele>
        <time>2017-06-16T10:51:31Z</time>
      </trkpt>
      <trkpt lat="41.881222659721971" lon="13.503531664609909">
        <ele>1511.809937</ele>
        <time>2017-06-16T10:51:32Z</time>
      </trkpt>
      <trkpt lat="41.881208578124642" lon="13.503533927723765">
        <ele>1511.809937</ele>
        <time>2017-06-16T10:51:33Z</time>
      </trkpt>
      <trkpt lat="41.881194664165378" lon="13.503537867218256">
        <ele>1511.809937</ele>
        <time>2017-06-16T10:51:34Z</time>
      </trkpt>
      <trkpt lat="41.881177565082908" lon="13.503542728722095">
        <ele>1511.809937</ele>
        <time>2017-06-16T10:51:35Z</time>
      </trkpt>
      <trkpt lat="41.88116398639977" lon="13.503546165302396">
        <ele>1512.290039</ele>
        <time>2017-06-16T10:51:36Z</time>
      </trkpt>
      <trkpt lat="41.880995007231832" lon="13.50359863601625">
        <ele>1513.25</ele>
        <time>2017-06-16T10:51:51Z</time>
      </trkpt>
      <trkpt lat="41.88084396533668" lon="13.503664266318083">
        <ele>1514.690063</ele>
        <time>2017-06-16T10:52:05Z</time>
      </trkpt>
      <trkpt lat="41.880787303671241" lon="13.503695195540786">
        <ele>1515.1800539999999</ele>
        <time>2017-06-16T10:52:09Z</time>
      </trkpt>
      <trkpt lat="41.880715973675251" lon="13.503714138641953">
        <ele>1515.6599120000001</ele>
        <time>2017-06-16T10:52:16Z</time>
      </trkpt>
      <trkpt lat="41.880702059715986" lon="13.503719419240952">
        <ele>1515.6599120000001</ele>
        <time>2017-06-16T10:52:17Z</time>
      </trkpt>
      <trkpt lat="41.880687726661563" lon="13.503725035116076">
        <ele>1516.139893</ele>
        <time>2017-06-16T10:52:18Z</time>
      </trkpt>
      <trkpt lat="41.880675237625837" lon="13.503732997924089">
        <ele>1516.139893</ele>
        <time>2017-06-16T10:52:19Z</time>
      </trkpt>
      <trkpt lat="41.880661826580763" lon="13.503742385655642">
        <ele>1516.139893</ele>
        <time>2017-06-16T10:52:20Z</time>
      </trkpt>
      <trkpt lat="41.880647409707308" lon="13.503749007359147">
        <ele>1516.139893</ele>
        <time>2017-06-16T10:52:21Z</time>
      </trkpt>
      <trkpt lat="41.880631819367409" lon="13.503755209967494">
        <ele>1516.139893</ele>
        <time>2017-06-16T10:52:22Z</time>
      </trkpt>
      <trkpt lat="41.880478765815496" lon="13.503809189423919">
        <ele>1517.099976</ele>
        <time>2017-06-16T10:52:35Z</time>
      </trkpt>
      <trkpt lat="41.880302159115672" lon="13.503895187750459">
        <ele>1518.5399170000001</ele>
        <time>2017-06-16T10:52:50Z</time>
      </trkpt>
      <trkpt lat="41.880163438618183" lon="13.504025358706713">
        <ele>1519.0200199999999</ele>
        <time>2017-06-16T10:53:04Z</time>
      </trkpt>
      <trkpt lat="41.880141561850905" lon="13.504059640690684">
        <ele>1519.0200199999999</ele>
        <time>2017-06-16T10:53:06Z</time>
      </trkpt>
      <trkpt lat="41.88013007864356" lon="13.504072800278664">
        <ele>1519.0200199999999</ele>
        <time>2017-06-16T10:53:07Z</time>
      </trkpt>
      <trkpt lat="41.880112560465932" lon="13.504084534943104">
        <ele>1519.5</ele>
        <time>2017-06-16T10:53:08Z</time>
      </trkpt>
      <trkpt lat="41.880099233239889" lon="13.504089312627912">
        <ele>1519.5</ele>
        <time>2017-06-16T10:53:09Z</time>
      </trkpt>
      <trkpt lat="41.879964871332049" lon="13.504229541867971">
        <ele>1520.459961</ele>
        <time>2017-06-16T10:53:22Z</time>
      </trkpt>
      <trkpt lat="41.879877364262938" lon="13.504376979544759">
        <ele>1521.900024</ele>
        <time>2017-06-16T10:53:35Z</time>
      </trkpt>
      <trkpt lat="41.879806537181139" lon="13.504591137170792">
        <ele>1523.3500979999999</ele>
        <time>2017-06-16T10:53:50Z</time>
      </trkpt>
      <trkpt lat="41.879798239096999" lon="13.504663137719035">
        <ele>1523.830078</ele>
        <time>2017-06-16T10:53:56Z</time>
      </trkpt>
      <trkpt lat="41.879784995689988" lon="13.504676297307014">
        <ele>1523.830078</ele>
        <time>2017-06-16T10:53:57Z</time>
      </trkpt>
      <trkpt lat="41.879770075902343" lon="13.504689624533057">
        <ele>1523.830078</ele>
        <time>2017-06-16T10:53:58Z</time>
      </trkpt>
      <trkpt lat="41.879756581038237" lon="13.504706136882305">
        <ele>1524.3100589999999</ele>
        <time>2017-06-16T10:53:59Z</time>
      </trkpt>
      <trkpt lat="41.879747025668621" lon="13.504722397774458">
        <ele>1524.3100589999999</ele>
        <time>2017-06-16T10:54:00Z</time>
      </trkpt>
      <trkpt lat="41.879739314317703" lon="13.504739077761769">
        <ele>1524.3100589999999</ele>
        <time>2017-06-16T10:54:01Z</time>
      </trkpt>
      <trkpt lat="41.879682401195168" lon="13.504888527095318">
        <ele>1526.2299800000001</ele>
        <time>2017-06-16T10:54:13Z</time>
      </trkpt>
      <trkpt lat="41.879677372053266" lon="13.504905458539724">
        <ele>1526.2299800000001</ele>
        <time>2017-06-16T10:54:14Z</time>
      </trkpt>
      <trkpt lat="41.879638060927391" lon="13.505059601739049">
        <ele>1526.709961</ele>
        <time>2017-06-16T10:54:24Z</time>
      </trkpt>
      <trkpt lat="41.879566395655274" lon="13.505254061892629">
        <ele>1528.150024</ele>
        <time>2017-06-16T10:54:37Z</time>
      </trkpt>
      <trkpt lat="41.879470339044929" lon="13.505513481795788">
        <ele>1529.589966</ele>
        <time>2017-06-16T10:54:53Z</time>
      </trkpt>
      <trkpt lat="41.879474529996514" lon="13.505532424896955">
        <ele>1529.589966</ele>
        <time>2017-06-16T10:55:13Z</time>
      </trkpt>
      <trkpt lat="41.879473775625229" lon="13.505544494837523">
        <ele>1529.589966</ele>
        <time>2017-06-16T10:55:14Z</time>
      </trkpt>
      <trkpt lat="41.879470758140087" lon="13.505558827891946">
        <ele>1529.589966</ele>
        <time>2017-06-16T10:55:15Z</time>
      </trkpt>
      <trkpt lat="41.87946505844593" lon="13.505572909489274">
        <ele>1529.589966</ele>
        <time>2017-06-16T10:55:16Z</time>
      </trkpt>
      <trkpt lat="41.879400182515383" lon="13.505789414048195">
        <ele>1531.5200199999999</ele>
        <time>2017-06-16T10:55:31Z</time>
      </trkpt>
      <trkpt lat="41.879383586347103" lon="13.50595923140645">
        <ele>1532.9600829999999</ele>
        <time>2017-06-16T10:55:45Z</time>
      </trkpt>
      <trkpt lat="41.879251319915056" lon="13.506210520863533">
        <ele>1534.3999020000001</ele>
        <time>2017-06-16T10:55:59Z</time>
      </trkpt>
      <trkpt lat="41.879186863079667" lon="13.506351169198751">
        <ele>1535.839966</ele>
        <time>2017-06-16T10:56:13Z</time>
      </trkpt>
      <trkpt lat="41.878995420411229" lon="13.50652408786118">
        <ele>1537.290039</ele>
        <time>2017-06-16T10:56:28Z</time>
      </trkpt>
      <trkpt lat="41.878873715177178" lon="13.506703963503242">
        <ele>1539.209961</ele>
        <time>2017-06-16T10:56:43Z</time>
      </trkpt>
      <trkpt lat="41.878844629973173" lon="13.506774036213756">
        <ele>1539.690063</ele>
        <time>2017-06-16T10:56:48Z</time>
      </trkpt>
      <trkpt lat="41.878744885325432" lon="13.507067989557981">
        <ele>1541.130005</ele>
        <time>2017-06-16T10:57:04Z</time>
      </trkpt>
      <trkpt lat="41.878752512857318" lon="13.507261360064149">
        <ele>1542.0900879999999</ele>
        <time>2017-06-16T10:57:18Z</time>
      </trkpt>
      <trkpt lat="41.878752680495381" lon="13.507278207689524">
        <ele>1542.0900879999999</ele>
        <time>2017-06-16T10:57:19Z</time>
      </trkpt>
      <trkpt lat="41.878759637475014" lon="13.507292624562979">
        <ele>1543.0500489999999</ele>
        <time>2017-06-16T10:57:20Z</time>
      </trkpt>
      <trkpt lat="41.878774221986532" lon="13.507415922358632">
        <ele>1543.530029</ele>
        <time>2017-06-16T10:57:32Z</time>
      </trkpt>
      <trkpt lat="41.878771958872676" lon="13.50742950104177">
        <ele>1543.530029</ele>
        <time>2017-06-16T10:57:33Z</time>
      </trkpt>
      <trkpt lat="41.878769360482693" lon="13.507444337010384">
        <ele>1543.530029</ele>
        <time>2017-06-16T10:57:34Z</time>
      </trkpt>
      <trkpt lat="41.87876676209271" lon="13.507460178807378">
        <ele>1543.530029</ele>
        <time>2017-06-16T10:57:35Z</time>
      </trkpt>
      <trkpt lat="41.878734407946467" lon="13.507588841021061">
        <ele>1544.5</ele>
        <time>2017-06-16T10:57:49Z</time>
      </trkpt>
      <trkpt lat="41.878683026880026" lon="13.507643574848771">
        <ele>1544.9799800000001</ele>
        <time>2017-06-16T10:57:56Z</time>
      </trkpt>
      <trkpt lat="41.878410195931792" lon="13.507722113281488">
        <ele>1546.420044</ele>
        <time>2017-06-16T10:58:13Z</time>
      </trkpt>
      <trkpt lat="41.878276336938143" lon="13.507873574271798">
        <ele>1547.380005</ele>
        <time>2017-06-16T10:58:29Z</time>
      </trkpt>
      <trkpt lat="41.878106435760856" lon="13.507961416617036">
        <ele>1547.8599850000001</ele>
        <time>2017-06-16T10:58:41Z</time>
      </trkpt>
      <trkpt lat="41.878090258687735" lon="13.507978264242411">
        <ele>1547.8599850000001</ele>
        <time>2017-06-16T10:58:43Z</time>
      </trkpt>
      <trkpt lat="41.877911221235991" lon="13.508069962263107">
        <ele>1549.3000489999999</ele>
        <time>2017-06-16T10:58:59Z</time>
      </trkpt>
      <trkpt lat="41.877716761082411" lon="13.508229218423367">
        <ele>1550.73999</ele>
        <time>2017-06-16T10:59:17Z</time>
      </trkpt>
      <trkpt lat="41.87758969143033" lon="13.508389061316848">
        <ele>1551.709961</ele>
        <time>2017-06-16T10:59:31Z</time>
      </trkpt>
      <trkpt lat="41.877512661740184" lon="13.508595004677773">
        <ele>1552.669922</ele>
        <time>2017-06-16T10:59:48Z</time>
      </trkpt>
      <trkpt lat="41.877385089173913" lon="13.508831206709146">
        <ele>1554.1099850000001</ele>
        <time>2017-06-16T11:00:02Z</time>
      </trkpt>
      <trkpt lat="41.877375114709139" lon="13.508985517546535">
        <ele>1554.589966</ele>
        <time>2017-06-16T11:00:15Z</time>
      </trkpt>
      <trkpt lat="41.877300515770912" lon="13.509241081774235">
        <ele>1556.51001</ele>
        <time>2017-06-16T11:00:28Z</time>
      </trkpt>
      <trkpt lat="41.877295318990946" lon="13.50941433571279">
        <ele>1557.469971</ele>
        <time>2017-06-16T11:00:41Z</time>
      </trkpt>
      <trkpt lat="41.877254582941532" lon="13.509605107828975">
        <ele>1558.920044</ele>
        <time>2017-06-16T11:00:55Z</time>
      </trkpt>
      <trkpt lat="41.877218959853053" lon="13.509875508025289">
        <ele>1560.839966</ele>
        <time>2017-06-16T11:01:10Z</time>
      </trkpt>
      <trkpt lat="41.877175038680434" lon="13.510088659822941">
        <ele>1561.799927</ele>
        <time>2017-06-16T11:01:24Z</time>
      </trkpt>
      <trkpt lat="41.877176463603973" lon="13.510111458599567">
        <ele>1561.799927</ele>
        <time>2017-06-16T11:01:25Z</time>
      </trkpt>
      <trkpt lat="41.877180989831686" lon="13.510132078081369">
        <ele>1561.799927</ele>
        <time>2017-06-16T11:01:26Z</time>
      </trkpt>
      <trkpt lat="41.877186773344874" lon="13.510153871029615">
        <ele>1561.799927</ele>
        <time>2017-06-16T11:01:27Z</time>
      </trkpt>
      <trkpt lat="41.877195239067078" lon="13.510174239054322">
        <ele>1561.799927</ele>
        <time>2017-06-16T11:01:28Z</time>
      </trkpt>
      <trkpt lat="41.877202615141869" lon="13.510198462754488">
        <ele>1562.2799070000001</ele>
        <time>2017-06-16T11:01:29Z</time>
      </trkpt>
      <trkpt lat="41.877206219360232" lon="13.510220590978861">
        <ele>1562.2799070000001</ele>
        <time>2017-06-16T11:01:30Z</time>
      </trkpt>
      <trkpt lat="41.877220133319497" lon="13.510380433872342">
        <ele>1563.719971</ele>
        <time>2017-06-16T11:01:41Z</time>
      </trkpt>
      <trkpt lat="41.877223905175924" lon="13.510399125516415">
        <ele>1563.23999</ele>
        <time>2017-06-16T11:01:42Z</time>
      </trkpt>
      <trkpt lat="41.877226503565907" lon="13.51041697897017">
        <ele>1563.23999</ele>
        <time>2017-06-16T11:01:43Z</time>
      </trkpt>
      <trkpt lat="41.877224240452051" lon="13.510441286489367">
        <ele>1563.719971</ele>
        <time>2017-06-16T11:01:44Z</time>
      </trkpt>
      <trkpt lat="41.877219965681434" lon="13.510456960648298">
        <ele>1564.1999510000001</ele>
        <time>2017-06-16T11:01:45Z</time>
      </trkpt>
      <trkpt lat="41.877217702567577" lon="13.510473724454641">
        <ele>1564.1999510000001</ele>
        <time>2017-06-16T11:01:46Z</time>
      </trkpt>
      <trkpt lat="41.877248296514153" lon="13.510679919272661">
        <ele>1564.679932</ele>
        <time>2017-06-16T11:01:59Z</time>
      </trkpt>
      <trkpt lat="41.877248380333185" lon="13.510715626180172">
        <ele>1565.160034</ele>
        <time>2017-06-16T11:02:01Z</time>
      </trkpt>
      <trkpt lat="41.877241171896458" lon="13.510733060538769">
        <ele>1565.160034</ele>
        <time>2017-06-16T11:02:02Z</time>
      </trkpt>
      <trkpt lat="41.877237735316157" lon="13.51074923761189">
        <ele>1565.160034</ele>
        <time>2017-06-16T11:02:03Z</time>
      </trkpt>
      <trkpt lat="41.877292133867741" lon="13.510959539562464">
        <ele>1566.6099850000001</ele>
        <time>2017-06-16T11:02:18Z</time>
      </trkpt>
      <trkpt lat="41.877312082797289" lon="13.511130111292005">
        <ele>1567.570068</ele>
        <time>2017-06-16T11:02:29Z</time>
      </trkpt>
      <trkpt lat="41.877314178273082" lon="13.51115332916379">
        <ele>1567.570068</ele>
        <time>2017-06-16T11:02:30Z</time>
      </trkpt>
      <trkpt lat="41.877313172444701" lon="13.511174870654941">
        <ele>1567.570068</ele>
        <time>2017-06-16T11:02:31Z</time>
      </trkpt>
      <trkpt lat="41.877309232950211" lon="13.511194065213203">
        <ele>1568.0500489999999</ele>
        <time>2017-06-16T11:02:32Z</time>
      </trkpt>
      <trkpt lat="41.877304539084435" lon="13.511214600875974">
        <ele>1568.0500489999999</ele>
        <time>2017-06-16T11:02:33Z</time>
      </trkpt>
      <trkpt lat="41.877292133867741" lon="13.511446360498667">
        <ele>1569.009888</ele>
        <time>2017-06-16T11:02:47Z</time>
      </trkpt>
      <trkpt lat="41.87729649245739" lon="13.511617602780461">
        <ele>1570.4499510000001</ele>
        <time>2017-06-16T11:03:00Z</time>
      </trkpt>
      <trkpt lat="41.877297665923834" lon="13.511817259714007">
        <ele>1571.8900149999999</ele>
        <time>2017-06-16T11:03:14Z</time>
      </trkpt>
      <trkpt lat="41.877304539084435" lon="13.512005768716335">
        <ele>1572.849976</ele>
        <time>2017-06-16T11:03:26Z</time>
      </trkpt>
      <trkpt lat="41.877302024513483" lon="13.512048264965415">
        <ele>1572.849976</ele>
        <time>2017-06-16T11:03:28Z</time>
      </trkpt>
      <trkpt lat="41.877297330647707" lon="13.512072237208486">
        <ele>1572.849976</ele>
        <time>2017-06-16T11:03:29Z</time>
      </trkpt>
      <trkpt lat="41.877306299284101" lon="13.512260327115655">
        <ele>1573.820068</ele>
        <time>2017-06-16T11:03:41Z</time>
      </trkpt>
      <trkpt lat="41.877296660095453" lon="13.512414386495948">
        <ele>1575.26001</ele>
        <time>2017-06-16T11:03:51Z</time>
      </trkpt>
      <trkpt lat="41.87729112803936" lon="13.512432239949703">
        <ele>1575.26001</ele>
        <time>2017-06-16T11:03:52Z</time>
      </trkpt>
      <trkpt lat="41.877287523820996" lon="13.512447327375412">
        <ele>1575.26001</ele>
        <time>2017-06-16T11:03:53Z</time>
      </trkpt>
      <trkpt lat="41.877289284020662" lon="13.512552101165056">
        <ele>1575.73999</ele>
        <time>2017-06-16T11:04:01Z</time>
      </trkpt>
      <trkpt lat="41.877281991764903" lon="13.512587137520313">
        <ele>1576.2200929999999</ele>
        <time>2017-06-16T11:04:03Z</time>
      </trkpt>
      <trkpt lat="41.877293810248375" lon="13.51271546445787">
        <ele>1576.700073</ele>
        <time>2017-06-16T11:04:12Z</time>
      </trkpt>
      <trkpt lat="41.877296241000295" lon="13.512735161930323">
        <ele>1576.700073</ele>
        <time>2017-06-16T11:04:13Z</time>
      </trkpt>
      <trkpt lat="41.87728869728744" lon="13.512858627364039">
        <ele>1577.660034</ele>
        <time>2017-06-16T11:04:22Z</time>
      </trkpt>
      <trkpt lat="41.877304874360561" lon="13.512912020087242">
        <ele>1577.660034</ele>
        <time>2017-06-16T11:04:25Z</time>
      </trkpt>
      <trkpt lat="41.877303868532181" lon="13.512931130826473">
        <ele>1577.660034</ele>
        <time>2017-06-16T11:04:26Z</time>
      </trkpt>
      <trkpt lat="41.877302695065737" lon="13.513156101107597">
        <ele>1579.579956</ele>
        <time>2017-06-16T11:04:41Z</time>
      </trkpt>
      <trkpt lat="41.877287607640028" lon="13.513350980356336">
        <ele>1580.5399170000001</ele>
        <time>2017-06-16T11:04:55Z</time>
      </trkpt>
      <trkpt lat="41.877278136089444" lon="13.513376712799072">
        <ele>1581.51001</ele>
        <time>2017-06-16T11:04:57Z</time>
      </trkpt>
      <trkpt lat="41.877273106947541" lon="13.513485509902239">
        <ele>1581.98999</ele>
        <time>2017-06-16T11:05:06Z</time>
      </trkpt>
      <trkpt lat="41.877265060320497" lon="13.513501603156328">
        <ele>1581.98999</ele>
        <time>2017-06-16T11:05:07Z</time>
      </trkpt>
      <trkpt lat="41.877216110005975" lon="13.513685502111912">
        <ele>1583.4300539999999</ele>
        <time>2017-06-16T11:05:20Z</time>
      </trkpt>
      <trkpt lat="41.877156095579267" lon="13.51382371969521">
        <ele>1584.869995</ele>
        <time>2017-06-16T11:05:32Z</time>
      </trkpt>
      <trkpt lat="41.877115862444043" lon="13.513985238969326">
        <ele>1585.349976</ele>
        <time>2017-06-16T11:05:41Z</time>
      </trkpt>
      <trkpt lat="41.877047130838037" lon="13.514164863154292">
        <ele>1587.2700199999999</ele>
        <time>2017-06-16T11:05:54Z</time>
      </trkpt>
      <trkpt lat="41.876975633203983" lon="13.514309367164969">
        <ele>1588.719971</ele>
        <time>2017-06-16T11:06:08Z</time>
      </trkpt>
      <trkpt lat="41.876950738951564" lon="13.51436703465879">
        <ele>1588.719971</ele>
        <time>2017-06-16T11:06:12Z</time>
      </trkpt>
      <trkpt lat="41.876907739788294" lon="13.514448087662458">
        <ele>1589.679932</ele>
        <time>2017-06-16T11:06:20Z</time>
      </trkpt>
      <trkpt lat="41.876894161105156" lon="13.514491086825728">
        <ele>1590.160034</ele>
        <time>2017-06-16T11:06:22Z</time>
      </trkpt>
      <trkpt lat="41.876848060637712" lon="13.514637602493167">
        <ele>1591.119995</ele>
        <time>2017-06-16T11:06:30Z</time>
      </trkpt>
      <trkpt lat="41.876758290454745" lon="13.514874139800668">
        <ele>1592.5600589999999</ele>
        <time>2017-06-16T11:06:46Z</time>
      </trkpt>
      <trkpt lat="41.876752926036716" lon="13.514890065416694">
        <ele>1592.5600589999999</ele>
        <time>2017-06-16T11:06:47Z</time>
      </trkpt>
      <trkpt lat="41.876744292676449" lon="13.514906661584973">
        <ele>1592.5600589999999</ele>
        <time>2017-06-16T11:06:48Z</time>
      </trkpt>
      <trkpt lat="41.876732725650072" lon="13.514921413734555">
        <ele>1592.5600589999999</ele>
        <time>2017-06-16T11:06:49Z</time>
      </trkpt>
      <trkpt lat="41.876724762842059" lon="13.514932813122869">
        <ele>1593.040039</ele>
        <time>2017-06-16T11:06:50Z</time>
      </trkpt>
      <trkpt lat="41.876702383160591" lon="13.514967430382967">
        <ele>1593.040039</ele>
        <time>2017-06-16T11:06:53Z</time>
      </trkpt>
      <trkpt lat="41.876643458381295" lon="13.515108916908503">
        <ele>1594.4799800000001</ele>
        <time>2017-06-16T11:07:05Z</time>
      </trkpt>
      <trkpt lat="41.876592831686139" lon="13.515255935490131">
        <ele>1595.4499510000001</ele>
        <time>2017-06-16T11:07:16Z</time>
      </trkpt>
      <trkpt lat="41.876525860279799" lon="13.515461124479771">
        <ele>1596.8900149999999</ele>
        <time>2017-06-16T11:07:30Z</time>
      </trkpt>
      <trkpt lat="41.876450339332223" lon="13.515618788078427">
        <ele>1597.849976</ele>
        <time>2017-06-16T11:07:45Z</time>
      </trkpt>
      <trkpt lat="41.876325281336904" lon="13.515730937942863">
        <ele>1600.25</ele>
        <time>2017-06-16T11:08:00Z</time>
      </trkpt>
      <trkpt lat="41.876227213069797" lon="13.515857504680753">
        <ele>1600.7299800000001</ele>
        <time>2017-06-16T11:08:13Z</time>
      </trkpt>
      <trkpt lat="41.876105340197682" lon="13.515964793041348">
        <ele>1602.170044</ele>
        <time>2017-06-16T11:08:24Z</time>
      </trkpt>
      <trkpt lat="41.87609251588583" lon="13.515981137752533">
        <ele>1602.660034</ele>
        <time>2017-06-16T11:08:25Z</time>
      </trkpt>
      <trkpt lat="41.875980533659458" lon="13.51609580218792">
        <ele>1604.1000979999999</ele>
        <time>2017-06-16T11:08:36Z</time>
      </trkpt>
      <trkpt lat="41.875874921679497" lon="13.516255561262369">
        <ele>1605.059937</ele>
        <time>2017-06-16T11:08:50Z</time>
      </trkpt>
      <trkpt lat="41.875814739614725" lon="13.516440717503428">
        <ele>1606.5</ele>
        <time>2017-06-16T11:09:03Z</time>
      </trkpt>
      <trkpt lat="41.875804513692856" lon="13.51645446382463">
        <ele>1606.5</ele>
        <time>2017-06-16T11:09:04Z</time>
      </trkpt>
      <trkpt lat="41.875744080170989" lon="13.51660642772913">
        <ele>1607.459961</ele>
        <time>2017-06-16T11:09:17Z</time>
      </trkpt>
      <trkpt lat="41.875722035765648" lon="13.516651103273034">
        <ele>1607.9399410000001</ele>
        <time>2017-06-16T11:09:21Z</time>
      </trkpt>
      <trkpt lat="41.875714408233762" lon="13.516666861250997">
        <ele>1607.9399410000001</ele>
        <time>2017-06-16T11:09:22Z</time>
      </trkpt>
      <trkpt lat="41.875707702711225" lon="13.516682535409927">
        <ele>1607.9399410000001</ele>
        <time>2017-06-16T11:09:23Z</time>
      </trkpt>
      <trkpt lat="41.875705691054463" lon="13.516700807958841">
        <ele>1607.9399410000001</ele>
        <time>2017-06-16T11:09:24Z</time>
      </trkpt>
      <trkpt lat="41.875681299716234" lon="13.516782196238637">
        <ele>1608.900024</ele>
        <time>2017-06-16T11:09:31Z</time>
      </trkpt>
      <trkpt lat="41.875661937519908" lon="13.516913121566176">
        <ele>1609.380005</ele>
        <time>2017-06-16T11:09:39Z</time>
      </trkpt>
      <trkpt lat="41.875614495947957" lon="13.51702468469739">
        <ele>1610.349976</ele>
        <time>2017-06-16T11:09:49Z</time>
      </trkpt>
      <trkpt lat="41.875583734363317" lon="13.517081765457988">
        <ele>1610.349976</ele>
        <time>2017-06-16T11:09:54Z</time>
      </trkpt>
      <trkpt lat="41.875576358288527" lon="13.517098780721426">
        <ele>1610.349976</ele>
        <time>2017-06-16T11:09:55Z</time>
      </trkpt>
      <trkpt lat="41.875470913946629" lon="13.517256360501051">
        <ele>1611.790039</ele>
        <time>2017-06-16T11:10:09Z</time>
      </trkpt>
      <trkpt lat="41.87545632943511" lon="13.517313692718744">
        <ele>1612.2700199999999</ele>
        <time>2017-06-16T11:10:13Z</time>
      </trkpt>
      <trkpt lat="41.87542506493628" lon="13.517348477616906">
        <ele>1612.7498780000001</ele>
        <time>2017-06-16T11:10:19Z</time>
      </trkpt>
      <trkpt lat="41.875415509566665" lon="13.517363900318742">
        <ele>1612.7498780000001</ele>
        <time>2017-06-16T11:10:20Z</time>
      </trkpt>
      <trkpt lat="41.875392040237784" lon="13.517408659681678">
        <ele>1612.7498780000001</ele>
        <time>2017-06-16T11:10:24Z</time>
      </trkpt>
      <trkpt lat="41.875383406877518" lon="13.517424585297704">
        <ele>1612.7498780000001</ele>
        <time>2017-06-16T11:10:25Z</time>
      </trkpt>
      <trkpt lat="41.875375863164663" lon="13.51744051091373">
        <ele>1612.7498780000001</ele>
        <time>2017-06-16T11:10:26Z</time>
      </trkpt>
      <trkpt lat="41.875369492918253" lon="13.51745467633009">
        <ele>1612.7498780000001</ele>
        <time>2017-06-16T11:10:27Z</time>
      </trkpt>
      <trkpt lat="41.875344514846802" lon="13.517547296360135">
        <ele>1614.1899410000001</ele>
        <time>2017-06-16T11:10:35Z</time>
      </trkpt>
      <trkpt lat="41.875339318066835" lon="13.517561377957463">
        <ele>1614.1899410000001</ele>
        <time>2017-06-16T11:10:36Z</time>
      </trkpt>
      <trkpt lat="41.875333115458488" lon="13.51757537573576">
        <ele>1614.1899410000001</ele>
        <time>2017-06-16T11:10:37Z</time>
      </trkpt>
      <trkpt lat="41.875325320288539" lon="13.517589205875993">
        <ele>1614.669922</ele>
        <time>2017-06-16T11:10:38Z</time>
      </trkpt>
      <trkpt lat="41.875316770747304" lon="13.517603287473321">
        <ele>1614.669922</ele>
        <time>2017-06-16T11:10:39Z</time>
      </trkpt>
      <trkpt lat="41.87530729919672" lon="13.517617704346776">
        <ele>1614.669922</ele>
        <time>2017-06-16T11:10:40Z</time>
      </trkpt>
      <trkpt lat="41.875300006940961" lon="13.517631031572819">
        <ele>1614.669922</ele>
        <time>2017-06-16T11:10:41Z</time>
      </trkpt>
      <trkpt lat="41.875233538448811" lon="13.517785761505365">
        <ele>1616.1099850000001</ele>
        <time>2017-06-16T11:10:53Z</time>
      </trkpt>
      <trkpt lat="41.875188359990716" lon="13.517827084288001">
        <ele>1616.589966</ele>
        <time>2017-06-16T11:10:57Z</time>
      </trkpt>
      <trkpt lat="41.875174278393388" lon="13.517832867801189">
        <ele>1616.589966</ele>
        <time>2017-06-16T11:10:58Z</time>
      </trkpt>
      <trkpt lat="41.875149132683873" lon="13.517924565821886">
        <ele>1617.0699460000001</ele>
        <time>2017-06-16T11:11:05Z</time>
      </trkpt>
      <trkpt lat="41.875148126855493" lon="13.517942167818546">
        <ele>1617.0699460000001</ele>
        <time>2017-06-16T11:11:06Z</time>
      </trkpt>
      <trkpt lat="41.875138906762004" lon="13.51797359995544">
        <ele>1618.040039</ele>
        <time>2017-06-16T11:11:08Z</time>
      </trkpt>
      <trkpt lat="41.875128010287881" lon="13.517986172810197">
        <ele>1618.040039</ele>
        <time>2017-06-16T11:11:09Z</time>
      </trkpt>
      <trkpt lat="41.875119041651487" lon="13.518000589683652">
        <ele>1618.040039</ele>
        <time>2017-06-16T11:11:10Z</time>
      </trkpt>
      <trkpt lat="41.87510697171092" lon="13.518018275499344">
        <ele>1618.040039</ele>
        <time>2017-06-16T11:11:11Z</time>
      </trkpt>
      <trkpt lat="41.875091465190053" lon="13.518036715686321">
        <ele>1618.040039</ele>
        <time>2017-06-16T11:11:12Z</time>
      </trkpt>
      <trkpt lat="41.875078724697232" lon="13.518050294369459">
        <ele>1618.040039</ele>
        <time>2017-06-16T11:11:13Z</time>
      </trkpt>
      <trkpt lat="41.875051567330956" lon="13.5180982388556">
        <ele>1618.5200199999999</ele>
        <time>2017-06-16T11:11:18Z</time>
      </trkpt>
      <trkpt lat="41.875041509047151" lon="13.518110560253263">
        <ele>1618.5200199999999</ele>
        <time>2017-06-16T11:11:19Z</time>
      </trkpt>
      <trkpt lat="41.875029858201742" lon="13.518123971298337">
        <ele>1618.5200199999999</ele>
        <time>2017-06-16T11:11:20Z</time>
      </trkpt>
      <trkpt lat="41.875022230669856" lon="13.518140483647585">
        <ele>1618.5200199999999</ele>
        <time>2017-06-16T11:11:21Z</time>
      </trkpt>
      <trkpt lat="41.875016614794731" lon="13.518159175291657">
        <ele>1618.5200199999999</ele>
        <time>2017-06-16T11:11:22Z</time>
      </trkpt>
      <trkpt lat="41.875010412186384" lon="13.518175771459937">
        <ele>1619</ele>
        <time>2017-06-16T11:11:23Z</time>
      </trkpt>
      <trkpt lat="41.874994318932295" lon="13.518181890249252">
        <ele>1619</ele>
        <time>2017-06-16T11:11:24Z</time>
      </trkpt>
      <trkpt lat="41.874940507113934" lon="13.518254812806845">
        <ele>1619.9600829999999</ele>
        <time>2017-06-16T11:11:33Z</time>
      </trkpt>
      <trkpt lat="41.874930029734969" lon="13.51826679892838">
        <ele>1619.9600829999999</ele>
        <time>2017-06-16T11:11:34Z</time>
      </trkpt>
      <trkpt lat="41.874920558184385" lon="13.51827853359282">
        <ele>1619.9600829999999</ele>
        <time>2017-06-16T11:11:35Z</time>
      </trkpt>
      <trkpt lat="41.874910164624453" lon="13.518287837505341">
        <ele>1619.9600829999999</ele>
        <time>2017-06-16T11:11:36Z</time>
      </trkpt>
      <trkpt lat="41.874898765236139" lon="13.518295465037227">
        <ele>1619.9600829999999</ele>
        <time>2017-06-16T11:11:37Z</time>
      </trkpt>
      <trkpt lat="41.874886862933636" lon="13.51830342784524">
        <ele>1620.440063</ele>
        <time>2017-06-16T11:11:38Z</time>
      </trkpt>
      <trkpt lat="41.87487387098372" lon="13.518309462815523">
        <ele>1620.440063</ele>
        <time>2017-06-16T11:11:39Z</time>
      </trkpt>
      <trkpt lat="41.874719560146332" lon="13.518390599638224">
        <ele>1621.8798830000001</ele>
        <time>2017-06-16T11:11:54Z</time>
      </trkpt>
      <trkpt lat="41.87457824125886" lon="13.518469640985131">
        <ele>1623.3199460000001</ele>
        <time>2017-06-16T11:12:08Z</time>
      </trkpt>
      <trkpt lat="41.874462487176061" lon="13.518584724515676">
        <ele>1624.2799070000001</ele>
        <time>2017-06-16T11:12:21Z</time>
      </trkpt>
      <trkpt lat="41.874375063925982" lon="13.518644571304321">
        <ele>1625.25</ele>
        <time>2017-06-16T11:12:30Z</time>
      </trkpt>
      <trkpt lat="41.874361904338002" lon="13.518646834418178">
        <ele>1625.25</ele>
        <time>2017-06-16T11:12:31Z</time>
      </trkpt>
      <trkpt lat="41.874348996207118" lon="13.518644738942385">
        <ele>1625.25</ele>
        <time>2017-06-16T11:12:32Z</time>
      </trkpt>
      <trkpt lat="41.874336758628488" lon="13.518639793619514">
        <ele>1625.25</ele>
        <time>2017-06-16T11:12:33Z</time>
      </trkpt>
      <trkpt lat="41.874201139435172" lon="13.518655383959413">
        <ele>1623.3199460000001</ele>
        <time>2017-06-16T11:12:46Z</time>
      </trkpt>
      <trkpt lat="41.874099969863892" lon="13.518711207434535">
        <ele>1622.360107</ele>
        <time>2017-06-16T11:12:56Z</time>
      </trkpt>
      <trkpt lat="41.87407398596406" lon="13.518717158585787">
        <ele>1621.8798830000001</ele>
        <time>2017-06-16T11:12:58Z</time>
      </trkpt>
      <trkpt lat="41.873954962939024" lon="13.518670639023185">
        <ele>1621.400024</ele>
        <time>2017-06-16T11:13:09Z</time>
      </trkpt>
      <trkpt lat="41.873885309323668" lon="13.518613558262587">
        <ele>1621.400024</ele>
        <time>2017-06-16T11:13:15Z</time>
      </trkpt>
      <trkpt lat="41.873912801966071" lon="13.518432006239891">
        <ele>1620.920044</ele>
        <time>2017-06-16T11:13:28Z</time>
      </trkpt>
      <trkpt lat="41.873939959332347" lon="13.518342822790146">
        <ele>1619.9600829999999</ele>
        <time>2017-06-16T11:13:40Z</time>
      </trkpt>
      <trkpt lat="41.874006595462561" lon="13.518263027071953">
        <ele>1620.440063</ele>
        <time>2017-06-16T11:13:55Z</time>
      </trkpt>
      <trkpt lat="41.87401195988059" lon="13.518308373168111">
        <ele>1620.440063</ele>
        <time>2017-06-16T11:14:05Z</time>
      </trkpt>
      <trkpt lat="41.874008690938354" lon="13.518319772556424">
        <ele>1620.440063</ele>
        <time>2017-06-16T11:14:06Z</time>
      </trkpt>
      <trkpt lat="41.874000811949372" lon="13.518398310989141">
        <ele>1620.920044</ele>
        <time>2017-06-16T11:14:12Z</time>
      </trkpt>
      <trkpt lat="41.873949179425836" lon="13.518472323194146">
        <ele>1620.920044</ele>
        <time>2017-06-16T11:14:25Z</time>
      </trkpt>
      <trkpt lat="41.873978264629841" lon="13.518489841371775">
        <ele>1620.920044</ele>
        <time>2017-06-16T11:14:44Z</time>
      </trkpt>
      <trkpt lat="41.873952280730009" lon="13.518515406176448">
        <ele>1620.920044</ele>
        <time>2017-06-16T11:15:03Z</time>
      </trkpt>
      <trkpt lat="41.873863264918327" lon="13.518535438925028">
        <ele>1621.400024</ele>
        <time>2017-06-16T11:15:26Z</time>
      </trkpt>
      <trkpt lat="41.873894780874252" lon="13.51849596016109">
        <ele>1621.400024</ele>
        <time>2017-06-16T11:15:44Z</time>
      </trkpt>
      <trkpt lat="41.873833676800132" lon="13.518518675118685">
        <ele>1621.400024</ele>
        <time>2017-06-16T11:15:56Z</time>
      </trkpt>
      <trkpt lat="41.873874999582767" lon="13.518572570756078">
        <ele>1620.440063</ele>
        <time>2017-06-16T11:16:10Z</time>
      </trkpt>
      <trkpt lat="41.873893439769745" lon="13.518575672060251">
        <ele>1622.360107</ele>
        <time>2017-06-16T11:16:29Z</time>
      </trkpt>
      <trkpt lat="41.873906012624502" lon="13.518553040921688">
        <ele>1622.8400879999999</ele>
        <time>2017-06-16T11:16:54Z</time>
      </trkpt>
      <trkpt lat="41.873932415619493" lon="13.518565865233541">
        <ele>1622.8400879999999</ele>
        <time>2017-06-16T11:17:21Z</time>
      </trkpt>
      <trkpt lat="41.873977091163397" lon="13.518575336784124">
        <ele>1622.8400879999999</ele>
        <time>2017-06-16T11:17:49Z</time>
      </trkpt>
      <trkpt lat="41.873973235487938" lon="13.518579863011837">
        <ele>1623.3199460000001</ele>
        <time>2017-06-16T11:18:13Z</time>
      </trkpt>
      <trkpt lat="41.873938534408808" lon="13.518601907417178">
        <ele>1623.3199460000001</ele>
        <time>2017-06-16T11:18:37Z</time>
      </trkpt>
      <trkpt lat="41.873940713703632" lon="13.518580114468932">
        <ele>1623.3199460000001</ele>
        <time>2017-06-16T11:19:03Z</time>
      </trkpt>
      <trkpt lat="41.873925039544702" lon="13.518533762544394">
        <ele>1622.360107</ele>
        <time>2017-06-16T11:19:17Z</time>
      </trkpt>
      <trkpt lat="41.87387072481215" lon="13.518523368984461">
        <ele>1622.8400879999999</ele>
        <time>2017-06-16T11:19:37Z</time>
      </trkpt>
      <trkpt lat="41.87380718998611" lon="13.518568463623524">
        <ele>1622.8400879999999</ele>
        <time>2017-06-16T11:20:03Z</time>
      </trkpt>
      <trkpt lat="41.873876005411148" lon="13.518560500815511">
        <ele>1622.8400879999999</ele>
        <time>2017-06-16T11:20:28Z</time>
      </trkpt>
      <trkpt lat="41.873858235776424" lon="13.518576007336378">
        <ele>1623.3199460000001</ele>
        <time>2017-06-16T11:20:57Z</time>
      </trkpt>
      <trkpt lat="41.873899223282933" lon="13.518581874668598">
        <ele>1624.2799070000001</ele>
        <time>2017-06-16T11:21:13Z</time>
      </trkpt>
      <trkpt lat="41.873897714540362" lon="13.518572738394141">
        <ele>1624.2799070000001</ele>
        <time>2017-06-16T11:21:16Z</time>
      </trkpt>
      <trkpt lat="41.873881286010146" lon="13.51848715916276">
        <ele>1624.2799070000001</ele>
        <time>2017-06-16T11:21:28Z</time>
      </trkpt>
      <trkpt lat="41.873862510547042" lon="13.518512388691306">
        <ele>1624.7700199999999</ele>
        <time>2017-06-16T11:21:52Z</time>
      </trkpt>
      <trkpt lat="41.873877178877592" lon="13.518543569371104">
        <ele>1624.7700199999999</ele>
        <time>2017-06-16T11:21:58Z</time>
      </trkpt>
      <trkpt lat="41.873866869136691" lon="13.518564105033875">
        <ele>1624.7700199999999</ele>
        <time>2017-06-16T11:22:06Z</time>
      </trkpt>
      <trkpt lat="41.87386779114604" lon="13.518536277115345">
        <ele>1624.7700199999999</ele>
        <time>2017-06-16T11:22:20Z</time>
      </trkpt>
      <trkpt lat="41.87383652664721" lon="13.51854432374239">
        <ele>1624.7700199999999</ele>
        <time>2017-06-16T11:22:46Z</time>
      </trkpt>
      <trkpt lat="41.873826216906309" lon="13.518545413389802">
        <ele>1625.25</ele>
        <time>2017-06-16T11:23:08Z</time>
      </trkpt>
      <trkpt lat="41.873847926035523" lon="13.518510209396482">
        <ele>1625.25</ele>
        <time>2017-06-16T11:23:24Z</time>
      </trkpt>
      <trkpt lat="41.873929565772414" lon="13.518537115305662">
        <ele>1625.25</ele>
        <time>2017-06-16T11:23:46Z</time>
      </trkpt>
      <trkpt lat="41.873919675126672" lon="13.518517334014177">
        <ele>1625.25</ele>
        <time>2017-06-16T11:24:09Z</time>
      </trkpt>
      <trkpt lat="41.873926883563399" lon="13.518517585471272">
        <ele>1625.7299800000001</ele>
        <time>2017-06-16T11:24:26Z</time>
      </trkpt>
      <trkpt lat="41.873929481953382" lon="13.518552035093307">
        <ele>1625.7299800000001</ele>
        <time>2017-06-16T11:24:32Z</time>
      </trkpt>
      <trkpt lat="41.873939540237188" lon="13.518601572141051">
        <ele>1625.7299800000001</ele>
        <time>2017-06-16T11:24:37Z</time>
      </trkpt>
      <trkpt lat="41.874084295704961" lon="13.518638201057911">
        <ele>1626.690063</ele>
        <time>2017-06-16T11:24:50Z</time>
      </trkpt>
      <trkpt lat="41.874122517183423" lon="13.518627220764756">
        <ele>1627.170044</ele>
        <time>2017-06-16T11:24:54Z</time>
      </trkpt>
      <trkpt lat="41.874239193275571" lon="13.518558070063591">
        <ele>1628.6099850000001</ele>
        <time>2017-06-16T11:25:07Z</time>
      </trkpt>
      <trkpt lat="41.874247407540679" lon="13.518559578806162">
        <ele>1628.6099850000001</ele>
        <time>2017-06-16T11:25:08Z</time>
      </trkpt>
      <trkpt lat="41.874366262927651" lon="13.518634680658579">
        <ele>1629.570068</ele>
        <time>2017-06-16T11:25:20Z</time>
      </trkpt>
      <trkpt lat="41.874438179656863" lon="13.518828134983778">
        <ele>1630.0500489999999</ele>
        <time>2017-06-16T11:25:33Z</time>
      </trkpt>
      <trkpt lat="41.874433066695929" lon="13.519063079729676">
        <ele>1631.01001</ele>
        <time>2017-06-16T11:25:48Z</time>
      </trkpt>
      <trkpt lat="41.874371040612459" lon="13.519306322559714">
        <ele>1631.9799800000001</ele>
        <time>2017-06-16T11:26:02Z</time>
      </trkpt>
      <trkpt lat="41.874346984550357" lon="13.519389135763049">
        <ele>1632.459961</ele>
        <time>2017-06-16T11:26:06Z</time>
      </trkpt>
      <trkpt lat="41.874261992052197" lon="13.519547134637833">
        <ele>1633.419922</ele>
        <time>2017-06-16T11:26:19Z</time>
      </trkpt>
      <trkpt lat="41.874239780008793" lon="13.519577560946345">
        <ele>1633.419922</ele>
        <time>2017-06-16T11:26:21Z</time>
      </trkpt>
      <trkpt lat="41.874098461121321" lon="13.519727094098926">
        <ele>1634.8599850000001</ele>
        <time>2017-06-16T11:26:36Z</time>
      </trkpt>
      <trkpt lat="41.873969212174416" lon="13.51987536996603">
        <ele>1636.3000489999999</ele>
        <time>2017-06-16T11:26:51Z</time>
      </trkpt>
      <trkpt lat="41.873937109485269" lon="13.519910238683224">
        <ele>1636.780029</ele>
        <time>2017-06-16T11:27:01Z</time>
      </trkpt>
      <trkpt lat="41.873933002352715" lon="13.519925158470869">
        <ele>1636.780029</ele>
        <time>2017-06-16T11:27:03Z</time>
      </trkpt>
      <trkpt lat="41.873865695670247" lon="13.520166808739305">
        <ele>1637.73999</ele>
        <time>2017-06-16T11:27:19Z</time>
      </trkpt>
      <trkpt lat="41.873854966834188" lon="13.520403429865837">
        <ele>1638.700073</ele>
        <time>2017-06-16T11:27:34Z</time>
      </trkpt>
      <trkpt lat="41.87386536039412" lon="13.520664861425757">
        <ele>1639.669922</ele>
        <time>2017-06-16T11:27:49Z</time>
      </trkpt>
      <trkpt lat="41.873895199969411" lon="13.520931322127581">
        <ele>1640.630005</ele>
        <time>2017-06-16T11:28:04Z</time>
      </trkpt>
      <trkpt lat="41.87395328655839" lon="13.521212367340922">
        <ele>1641.1099850000001</ele>
        <time>2017-06-16T11:28:22Z</time>
      </trkpt>
      <trkpt lat="41.873998297378421" lon="13.521352261304855">
        <ele>1641.1099850000001</ele>
        <time>2017-06-16T11:28:32Z</time>
      </trkpt>
      <trkpt lat="41.874083960428834" lon="13.521507158875465">
        <ele>1641.1099850000001</ele>
        <time>2017-06-16T11:28:45Z</time>
      </trkpt>
      <trkpt lat="41.874098712578416" lon="13.521596258506179">
        <ele>1641.589966</ele>
        <time>2017-06-16T11:28:50Z</time>
      </trkpt>
      <trkpt lat="41.874092509970069" lon="13.521620314568281">
        <ele>1641.589966</ele>
        <time>2017-06-16T11:28:51Z</time>
      </trkpt>
      <trkpt lat="41.874087564647198" lon="13.521645292639732">
        <ele>1641.589966</ele>
        <time>2017-06-16T11:28:52Z</time>
      </trkpt>
      <trkpt lat="41.874086139723659" lon="13.521667588502169">
        <ele>1640.1499020000001</ele>
        <time>2017-06-16T11:28:53Z</time>
      </trkpt>
      <trkpt lat="41.874081529676914" lon="13.521685358136892">
        <ele>1640.1499020000001</ele>
        <time>2017-06-16T11:28:54Z</time>
      </trkpt>
      <trkpt lat="41.874083960428834" lon="13.52171209640801">
        <ele>1640.1499020000001</ele>
        <time>2017-06-16T11:28:56Z</time>
      </trkpt>
      <trkpt lat="41.874084966257215" lon="13.521732799708843">
        <ele>1640.1499020000001</ele>
        <time>2017-06-16T11:28:57Z</time>
      </trkpt>
      <trkpt lat="41.874113632366061" lon="13.521915776655078">
        <ele>1639.669922</ele>
        <time>2017-06-16T11:29:11Z</time>
      </trkpt>
      <trkpt lat="41.874135341495275" lon="13.522089701145887">
        <ele>1639.669922</ele>
        <time>2017-06-16T11:29:21Z</time>
      </trkpt>
      <trkpt lat="41.874135341495275" lon="13.522110907360911">
        <ele>1639.669922</ele>
        <time>2017-06-16T11:29:22Z</time>
      </trkpt>
      <trkpt lat="41.874149171635509" lon="13.522204617038369">
        <ele>1639.669922</ele>
        <time>2017-06-16T11:29:27Z</time>
      </trkpt>
      <trkpt lat="41.874148920178413" lon="13.522228170186281">
        <ele>1639.669922</ele>
        <time>2017-06-16T11:29:28Z</time>
      </trkpt>
      <trkpt lat="41.874149674549699" lon="13.522245939821005">
        <ele>1639.669922</ele>
        <time>2017-06-16T11:29:29Z</time>
      </trkpt>
      <trkpt lat="41.874150931835175" lon="13.522262200713158">
        <ele>1639.669922</ele>
        <time>2017-06-16T11:29:30Z</time>
      </trkpt>
      <trkpt lat="41.874150177463889" lon="13.522279635071754">
        <ele>1639.669922</ele>
        <time>2017-06-16T11:29:31Z</time>
      </trkpt>
      <trkpt lat="41.874164761975408" lon="13.522452637553215">
        <ele>1639.1899410000001</ele>
        <time>2017-06-16T11:29:42Z</time>
      </trkpt>
      <trkpt lat="41.874170377850533" lon="13.522464958950877">
        <ele>1639.1899410000001</ele>
        <time>2017-06-16T11:29:43Z</time>
      </trkpt>
      <trkpt lat="41.874170880764723" lon="13.522486835718155">
        <ele>1639.1899410000001</ele>
        <time>2017-06-16T11:29:44Z</time>
      </trkpt>
      <trkpt lat="41.874172305688262" lon="13.522510807961226">
        <ele>1639.1899410000001</ele>
        <time>2017-06-16T11:29:45Z</time>
      </trkpt>
      <trkpt lat="41.874176161363721" lon="13.522534696385264">
        <ele>1639.1899410000001</ele>
        <time>2017-06-16T11:29:46Z</time>
      </trkpt>
      <trkpt lat="41.874175490811467" lon="13.522563697770238">
        <ele>1639.1899410000001</ele>
        <time>2017-06-16T11:29:47Z</time>
      </trkpt>
      <trkpt lat="41.874172305688262" lon="13.522593537345529">
        <ele>1639.1899410000001</ele>
        <time>2017-06-16T11:29:48Z</time>
      </trkpt>
      <trkpt lat="41.874165516346693" lon="13.522625137120485">
        <ele>1639.1899410000001</ele>
        <time>2017-06-16T11:29:49Z</time>
      </trkpt>
      <trkpt lat="41.874164007604122" lon="13.522651540115476">
        <ele>1639.1899410000001</ele>
        <time>2017-06-16T11:29:50Z</time>
      </trkpt>
      <trkpt lat="41.874167695641518" lon="13.52269671857357">
        <ele>1639.1899410000001</ele>
        <time>2017-06-16T11:29:52Z</time>
      </trkpt>
      <trkpt lat="41.874173227697611" lon="13.522715577855706">
        <ele>1639.1899410000001</ele>
        <time>2017-06-16T11:29:53Z</time>
      </trkpt>
      <trkpt lat="41.874178424477577" lon="13.522733766585588">
        <ele>1639.1899410000001</ele>
        <time>2017-06-16T11:29:54Z</time>
      </trkpt>
      <trkpt lat="41.874184878543019" lon="13.522749524563551">
        <ele>1639.1899410000001</ele>
        <time>2017-06-16T11:29:55Z</time>
      </trkpt>
      <trkpt lat="41.874192506074905" lon="13.522765533998609">
        <ele>1639.1899410000001</ele>
        <time>2017-06-16T11:29:56Z</time>
      </trkpt>
      <trkpt lat="41.874259561300278" lon="13.522983463481069">
        <ele>1638.700073</ele>
        <time>2017-06-16T11:30:11Z</time>
      </trkpt>
      <trkpt lat="41.874366598203778" lon="13.523198710754514">
        <ele>1639.1899410000001</ele>
        <time>2017-06-16T11:30:25Z</time>
      </trkpt>
      <trkpt lat="41.874446393921971" lon="13.523368025198579">
        <ele>1638.700073</ele>
        <time>2017-06-16T11:30:35Z</time>
      </trkpt>
      <trkpt lat="41.874452931806445" lon="13.523388477042317">
        <ele>1638.700073</ele>
        <time>2017-06-16T11:30:36Z</time>
      </trkpt>
      <trkpt lat="41.874457541853189" lon="13.523408090695739">
        <ele>1638.700073</ele>
        <time>2017-06-16T11:30:37Z</time>
      </trkpt>
      <trkpt lat="41.874465588480234" lon="13.523426279425621">
        <ele>1638.700073</ele>
        <time>2017-06-16T11:30:38Z</time>
      </trkpt>
      <trkpt lat="41.874474640935659" lon="13.523446395993233">
        <ele>1638.700073</ele>
        <time>2017-06-16T11:30:39Z</time>
      </trkpt>
      <trkpt lat="41.87450397759676" lon="13.523499201983213">
        <ele>1638.219971</ele>
        <time>2017-06-16T11:30:42Z</time>
      </trkpt>
      <trkpt lat="41.87450791709125" lon="13.523514373227954">
        <ele>1638.219971</ele>
        <time>2017-06-16T11:30:43Z</time>
      </trkpt>
      <trkpt lat="41.874513113871217" lon="13.52353029884398">
        <ele>1638.219971</ele>
        <time>2017-06-16T11:30:44Z</time>
      </trkpt>
      <trkpt lat="41.874598022550344" lon="13.523750826716423">
        <ele>1637.73999</ele>
        <time>2017-06-16T11:31:02Z</time>
      </trkpt>
      <trkpt lat="41.87460414133966" lon="13.523769099265337">
        <ele>1637.73999</ele>
        <time>2017-06-16T11:31:03Z</time>
      </trkpt>
      <trkpt lat="41.8746901396662" lon="13.524018125608563">
        <ele>1637.26001</ele>
        <time>2017-06-16T11:31:16Z</time>
      </trkpt>
      <trkpt lat="41.874800864607096" lon="13.52433948777616">
        <ele>1637.26001</ele>
        <time>2017-06-16T11:31:32Z</time>
      </trkpt>
      <trkpt lat="41.874856939539313" lon="13.524585831910372">
        <ele>1636.780029</ele>
        <time>2017-06-16T11:31:49Z</time>
      </trkpt>
      <trkpt lat="41.874864064157009" lon="13.524621287360787">
        <ele>1636.780029</ele>
        <time>2017-06-16T11:31:52Z</time>
      </trkpt>
      <trkpt lat="41.874928688630462" lon="13.524899901822209">
        <ele>1636.780029</ele>
        <time>2017-06-16T11:32:10Z</time>
      </trkpt>
      <trkpt lat="41.874953666701913" lon="13.525017835199833">
        <ele>1636.3000489999999</ele>
        <time>2017-06-16T11:32:27Z</time>
      </trkpt>
      <trkpt lat="41.874975962564349" lon="13.525127889588475">
        <ele>1636.3000489999999</ele>
        <time>2017-06-16T11:32:42Z</time>
      </trkpt>
      <trkpt lat="41.875021560117602" lon="13.525306424126029">
        <ele>1636.3000489999999</ele>
        <time>2017-06-16T11:33:00Z</time>
      </trkpt>
      <trkpt lat="41.875146115198731" lon="13.525608340278268">
        <ele>1635.8199460000001</ele>
        <time>2017-06-16T11:33:18Z</time>
      </trkpt>
      <trkpt lat="41.875178385525942" lon="13.525658631697297">
        <ele>1635.8199460000001</ele>
        <time>2017-06-16T11:33:27Z</time>
      </trkpt>
      <trkpt lat="41.87518316321075" lon="13.525674138218164">
        <ele>1635.8199460000001</ele>
        <time>2017-06-16T11:33:28Z</time>
      </trkpt>
      <trkpt lat="41.875186264514923" lon="13.525688638910651">
        <ele>1635.8199460000001</ele>
        <time>2017-06-16T11:33:29Z</time>
      </trkpt>
      <trkpt lat="41.875191209837794" lon="13.525699619203806">
        <ele>1635.8199460000001</ele>
        <time>2017-06-16T11:33:30Z</time>
      </trkpt>
      <trkpt lat="41.875199759379029" lon="13.525709426030517">
        <ele>1635.8199460000001</ele>
        <time>2017-06-16T11:33:31Z</time>
      </trkpt>
      <trkpt lat="41.875208560377359" lon="13.525719065219164">
        <ele>1635.8199460000001</ele>
        <time>2017-06-16T11:33:32Z</time>
      </trkpt>
      <trkpt lat="41.875216858461499" lon="13.525728033855557">
        <ele>1635.8199460000001</ele>
        <time>2017-06-16T11:33:33Z</time>
      </trkpt>
      <trkpt lat="41.875260779634118" lon="13.525788467377424">
        <ele>1635.339966</ele>
        <time>2017-06-16T11:33:50Z</time>
      </trkpt>
      <trkpt lat="41.875294558703899" lon="13.52583272382617">
        <ele>1635.8199460000001</ele>
        <time>2017-06-16T11:34:12Z</time>
      </trkpt>
      <trkpt lat="41.875317860394716" lon="13.525864658877254">
        <ele>1635.8199460000001</ele>
        <time>2017-06-16T11:34:26Z</time>
      </trkpt>
      <trkpt lat="41.875451719388366" lon="13.525982340797782">
        <ele>1635.8199460000001</ele>
        <time>2017-06-16T11:34:40Z</time>
      </trkpt>
      <trkpt lat="41.875462615862489" lon="13.525987872853875">
        <ele>1634.8599850000001</ele>
        <time>2017-06-16T11:34:41Z</time>
      </trkpt>
      <trkpt lat="41.875498909503222" lon="13.526016622781754">
        <ele>1635.339966</ele>
        <time>2017-06-16T11:34:44Z</time>
      </trkpt>
      <trkpt lat="41.875751875340939" lon="13.526192726567388">
        <ele>1634.8599850000001</ele>
        <time>2017-06-16T11:35:03Z</time>
      </trkpt>
      <trkpt lat="41.87595278955996" lon="13.526363465934992">
        <ele>1634.380005</ele>
        <time>2017-06-16T11:35:19Z</time>
      </trkpt>
      <trkpt lat="41.876148590818048" lon="13.526540827006102">
        <ele>1633.419922</ele>
        <time>2017-06-16T11:35:36Z</time>
      </trkpt>
      <trkpt lat="41.876271637156606" lon="13.52666093967855">
        <ele>1632.9399410000001</ele>
        <time>2017-06-16T11:35:49Z</time>
      </trkpt>
      <trkpt lat="41.876347912475467" lon="13.526788596063852">
        <ele>1632.9399410000001</ele>
        <time>2017-06-16T11:36:03Z</time>
      </trkpt>
      <trkpt lat="41.876380601897836" lon="13.526848359033465">
        <ele>1632.459961</ele>
        <time>2017-06-16T11:36:18Z</time>
      </trkpt>
      <trkpt lat="41.876475233584642" lon="13.526969812810421">
        <ele>1631.9799800000001</ele>
        <time>2017-06-16T11:36:30Z</time>
      </trkpt>
      <trkpt lat="41.876499960198998" lon="13.526992863044143">
        <ele>1631.9799800000001</ele>
        <time>2017-06-16T11:36:32Z</time>
      </trkpt>
      <trkpt lat="41.876515718176961" lon="13.527006441727281">
        <ele>1631.9799800000001</ele>
        <time>2017-06-16T11:36:33Z</time>
      </trkpt>
      <trkpt lat="41.876527033746243" lon="13.527021612972021">
        <ele>1631.9799800000001</ele>
        <time>2017-06-16T11:36:34Z</time>
      </trkpt>
      <trkpt lat="41.876534828916192" lon="13.527038376778364">
        <ele>1631.9799800000001</ele>
        <time>2017-06-16T11:36:35Z</time>
      </trkpt>
      <trkpt lat="41.876542204990983" lon="13.52705916389823">
        <ele>1631.490112</ele>
        <time>2017-06-16T11:36:36Z</time>
      </trkpt>
      <trkpt lat="41.876693582162261" lon="13.527242559939623">
        <ele>1631.01001</ele>
        <time>2017-06-16T11:36:51Z</time>
      </trkpt>
      <trkpt lat="41.876766504719853" lon="13.527462668716908">
        <ele>1630.530029</ele>
        <time>2017-06-16T11:37:03Z</time>
      </trkpt>
      <trkpt lat="41.876870272681117" lon="13.527746060863137">
        <ele>1630.0500489999999</ele>
        <time>2017-06-16T11:37:16Z</time>
      </trkpt>
      <trkpt lat="41.876890221610665" lon="13.527884194627404">
        <ele>1629.570068</ele>
        <time>2017-06-16T11:37:25Z</time>
      </trkpt>
      <trkpt lat="41.876911260187626" lon="13.528169766068459">
        <ele>1629.570068</ele>
        <time>2017-06-16T11:37:40Z</time>
      </trkpt>
      <trkpt lat="41.876914529129863" lon="13.528221901506186">
        <ele>1629.0900879999999</ele>
        <time>2017-06-16T11:37:43Z</time>
      </trkpt>
      <trkpt lat="41.876945625990629" lon="13.528459360823035">
        <ele>1628.130005</ele>
        <time>2017-06-16T11:37:58Z</time>
      </trkpt>
      <trkpt lat="41.876980494707823" lon="13.528728503733873">
        <ele>1627.650024</ele>
        <time>2017-06-16T11:38:16Z</time>
      </trkpt>
      <trkpt lat="41.87696373090148" lon="13.529037209227681">
        <ele>1626.690063</ele>
        <time>2017-06-16T11:38:32Z</time>
      </trkpt>
      <trkpt lat="41.876949397847056" lon="13.529394278302789">
        <ele>1626.209961</ele>
        <time>2017-06-16T11:38:51Z</time>
      </trkpt>
      <trkpt lat="41.876888293772936" lon="13.529679514467716">
        <ele>1626.209961</ele>
        <time>2017-06-16T11:39:07Z</time>
      </trkpt>
      <trkpt lat="41.87686113640666" lon="13.529823264107108">
        <ele>1625.7299800000001</ele>
        <time>2017-06-16T11:39:21Z</time>
      </trkpt>
      <trkpt lat="41.876849234104156" lon="13.529817229136825">
        <ele>1625.7299800000001</ele>
        <time>2017-06-16T11:39:37Z</time>
      </trkpt>
      <trkpt lat="41.876844624057412" lon="13.529830640181899">
        <ele>1625.7299800000001</ele>
        <time>2017-06-16T11:39:38Z</time>
      </trkpt>
      <trkpt lat="41.876790476962924" lon="13.530039768666029">
        <ele>1625.25</ele>
        <time>2017-06-16T11:39:53Z</time>
      </trkpt>
      <trkpt lat="41.876747058704495" lon="13.530220482498407">
        <ele>1625.25</ele>
        <time>2017-06-16T11:40:04Z</time>
      </trkpt>
      <trkpt lat="41.876622084528208" lon="13.530449224635959">
        <ele>1624.2799070000001</ele>
        <time>2017-06-16T11:40:19Z</time>
      </trkpt>
      <trkpt lat="41.876406669616699" lon="13.530734376981854">
        <ele>1622.8400879999999</ele>
        <time>2017-06-16T11:40:41Z</time>
      </trkpt>
      <trkpt lat="41.876334920525551" lon="13.530812161043286">
        <ele>1622.8400879999999</ele>
        <time>2017-06-16T11:40:48Z</time>
      </trkpt>
      <trkpt lat="41.876168120652437" lon="13.53099706582725">
        <ele>1621.8798830000001</ele>
        <time>2017-06-16T11:41:04Z</time>
      </trkpt>
      <trkpt lat="41.876019341871142" lon="13.531161937862635">
        <ele>1621.400024</ele>
        <time>2017-06-16T11:41:19Z</time>
      </trkpt>
      <trkpt lat="41.875947676599026" lon="13.531212732195854">
        <ele>1621.400024</ele>
        <time>2017-06-16T11:41:25Z</time>
      </trkpt>
      <trkpt lat="41.875932086259127" lon="13.53122228756547">
        <ele>1621.400024</ele>
        <time>2017-06-16T11:41:26Z</time>
      </trkpt>
      <trkpt lat="41.875749276950955" lon="13.531363774091005">
        <ele>1620.440063</ele>
        <time>2017-06-16T11:41:40Z</time>
      </trkpt>
      <trkpt lat="41.875665038824081" lon="13.531413394957781">
        <ele>1620.440063</ele>
        <time>2017-06-16T11:41:54Z</time>
      </trkpt>
      <trkpt lat="41.875434033572674" lon="13.531543565914035">
        <ele>1619.9600829999999</ele>
        <time>2017-06-16T11:42:08Z</time>
      </trkpt>
      <trkpt lat="41.875214511528611" lon="13.531674239784479">
        <ele>1619.4799800000001</ele>
        <time>2017-06-16T11:42:23Z</time>
      </trkpt>
      <trkpt lat="41.875091968104243" lon="13.531776666641235">
        <ele>1619</ele>
        <time>2017-06-16T11:42:37Z</time>
      </trkpt>
      <trkpt lat="41.874893568456173" lon="13.531906418502331">
        <ele>1618.5200199999999</ele>
        <time>2017-06-16T11:42:54Z</time>
      </trkpt>
      <trkpt lat="41.874883091077209" lon="13.531916476786137">
        <ele>1618.5200199999999</ele>
        <time>2017-06-16T11:42:55Z</time>
      </trkpt>
      <trkpt lat="41.874779826030135" lon="13.53197623975575">
        <ele>1617.0699460000001</ele>
        <time>2017-06-16T11:43:06Z</time>
      </trkpt>
      <trkpt lat="41.874639764428139" lon="13.532094759866595">
        <ele>1616.589966</ele>
        <time>2017-06-16T11:43:18Z</time>
      </trkpt>
      <trkpt lat="41.874524764716625" lon="13.532173382118344">
        <ele>1616.589966</ele>
        <time>2017-06-16T11:43:29Z</time>
      </trkpt>
      <trkpt lat="41.874293424189091" lon="13.5322948358953">
        <ele>1615.630005</ele>
        <time>2017-06-16T11:43:46Z</time>
      </trkpt>
      <trkpt lat="41.874072728678584" lon="13.53237496688962">
        <ele>1615.1499020000001</ele>
        <time>2017-06-16T11:43:59Z</time>
      </trkpt>
      <trkpt lat="41.874054791405797" lon="13.532379241660237">
        <ele>1615.1499020000001</ele>
        <time>2017-06-16T11:44:00Z</time>
      </trkpt>
      <trkpt lat="41.87403785996139" lon="13.532382259145379">
        <ele>1615.1499020000001</ele>
        <time>2017-06-16T11:44:01Z</time>
      </trkpt>
      <trkpt lat="41.874020760878921" lon="13.532389719039202">
        <ele>1615.1499020000001</ele>
        <time>2017-06-16T11:44:02Z</time>
      </trkpt>
      <trkpt lat="41.874005841091275" lon="13.53240036405623">
        <ele>1615.1499020000001</ele>
        <time>2017-06-16T11:44:03Z</time>
      </trkpt>
      <trkpt lat="41.873992010951042" lon="13.532411428168416">
        <ele>1615.1499020000001</ele>
        <time>2017-06-16T11:44:04Z</time>
      </trkpt>
      <trkpt lat="41.873975414782763" lon="13.53242190554738">
        <ele>1615.1499020000001</ele>
        <time>2017-06-16T11:44:05Z</time>
      </trkpt>
      <trkpt lat="41.873960578814149" lon="13.532429365441203">
        <ele>1615.1499020000001</ele>
        <time>2017-06-16T11:44:06Z</time>
      </trkpt>
      <trkpt lat="41.873740637674928" lon="13.532622400671244">
        <ele>1614.1899410000001</ele>
        <time>2017-06-16T11:44:23Z</time>
      </trkpt>
      <trkpt lat="41.873533017933369" lon="13.53281426243484">
        <ele>1613.709961</ele>
        <time>2017-06-16T11:44:40Z</time>
      </trkpt>
      <trkpt lat="41.873447773978114" lon="13.532950971275568">
        <ele>1613.2301030000001</ele>
        <time>2017-06-16T11:44:55Z</time>
      </trkpt>
      <trkpt lat="41.873322632163763" lon="13.533168481662869">
        <ele>1612.7498780000001</ele>
        <time>2017-06-16T11:45:10Z</time>
      </trkpt>
      <trkpt lat="41.873299162834883" lon="13.533217599615455">
        <ele>1612.7498780000001</ele>
        <time>2017-06-16T11:45:13Z</time>
      </trkpt>
      <trkpt lat="41.873289858922362" lon="13.533232100307941">
        <ele>1612.7498780000001</ele>
        <time>2017-06-16T11:45:14Z</time>
      </trkpt>
      <trkpt lat="41.873281812295318" lon="13.533246433362365">
        <ele>1612.2700199999999</ele>
        <time>2017-06-16T11:45:15Z</time>
      </trkpt>
      <trkpt lat="41.873222468420863" lon="13.533379537984729">
        <ele>1612.2700199999999</ele>
        <time>2017-06-16T11:45:24Z</time>
      </trkpt>
      <trkpt lat="41.873217858374119" lon="13.533395128324628">
        <ele>1612.2700199999999</ele>
        <time>2017-06-16T11:45:25Z</time>
      </trkpt>
      <trkpt lat="41.873211739584804" lon="13.533410634845495">
        <ele>1612.2700199999999</ele>
        <time>2017-06-16T11:45:26Z</time>
      </trkpt>
      <trkpt lat="41.873197825625539" lon="13.533454807475209">
        <ele>1612.2700199999999</ele>
        <time>2017-06-16T11:45:29Z</time>
      </trkpt>
      <trkpt lat="41.873193383216858" lon="13.533469475805759">
        <ele>1612.2700199999999</ele>
        <time>2017-06-16T11:45:30Z</time>
      </trkpt>
      <trkpt lat="41.873178295791149" lon="13.533544829115272">
        <ele>1611.790039</ele>
        <time>2017-06-16T11:45:35Z</time>
      </trkpt>
      <trkpt lat="41.873050639405847" lon="13.533832663670182">
        <ele>1611.3100589999999</ele>
        <time>2017-06-16T11:45:51Z</time>
      </trkpt>
      <trkpt lat="41.873006466776133" lon="13.534092335030437">
        <ele>1610.830078</ele>
        <time>2017-06-16T11:46:09Z</time>
      </trkpt>
      <trkpt lat="41.872972939163446" lon="13.534421240910888">
        <ele>1609.8599850000001</ele>
        <time>2017-06-16T11:46:27Z</time>
      </trkpt>
      <trkpt lat="41.872955923900008" lon="13.534762384369969">
        <ele>1609.380005</ele>
        <time>2017-06-16T11:46:46Z</time>
      </trkpt>
      <trkpt lat="41.872959611937404" lon="13.534812424331903">
        <ele>1609.380005</ele>
        <time>2017-06-16T11:46:51Z</time>
      </trkpt>
      <trkpt lat="41.872960869222879" lon="13.534828517585993">
        <ele>1609.380005</ele>
        <time>2017-06-16T11:46:52Z</time>
      </trkpt>
      <trkpt lat="41.872961958870292" lon="13.534847712144256">
        <ele>1609.380005</ele>
        <time>2017-06-16T11:46:53Z</time>
      </trkpt>
      <trkpt lat="41.872970424592495" lon="13.535159938037395">
        <ele>1608.900024</ele>
        <time>2017-06-16T11:47:09Z</time>
      </trkpt>
      <trkpt lat="41.872999761253595" lon="13.535354817286134">
        <ele>1608.900024</ele>
        <time>2017-06-16T11:47:21Z</time>
      </trkpt>
      <trkpt lat="41.873018201440573" lon="13.535522622987628">
        <ele>1608.419922</ele>
        <time>2017-06-16T11:47:35Z</time>
      </trkpt>
      <trkpt lat="41.873047538101673" lon="13.535806518048048">
        <ele>1607.459961</ele>
        <time>2017-06-16T11:47:49Z</time>
      </trkpt>
      <trkpt lat="41.872973022982478" lon="13.535993685945868">
        <ele>1607.459961</ele>
        <time>2017-06-16T11:48:04Z</time>
      </trkpt>
      <trkpt lat="41.872912002727389" lon="13.53607683442533">
        <ele>1607.459961</ele>
        <time>2017-06-16T11:48:10Z</time>
      </trkpt>
      <trkpt lat="41.872900519520044" lon="13.53609686717391">
        <ele>1607.459961</ele>
        <time>2017-06-16T11:48:11Z</time>
      </trkpt>
      <trkpt lat="41.872889120131731" lon="13.536114888265729">
        <ele>1607.459961</ele>
        <time>2017-06-16T11:48:12Z</time>
      </trkpt>
      <trkpt lat="41.872748890891671" lon="13.536326363682747">
        <ele>1607.459961</ele>
        <time>2017-06-16T11:48:27Z</time>
      </trkpt>
      <trkpt lat="41.872605141252279" lon="13.536537000909448">
        <ele>1606.9799800000001</ele>
        <time>2017-06-16T11:48:39Z</time>
      </trkpt>
      <trkpt lat="41.872596004977822" lon="13.536553764715791">
        <ele>1606.9799800000001</ele>
        <time>2017-06-16T11:48:40Z</time>
      </trkpt>
      <trkpt lat="41.872586533427238" lon="13.536569522693753">
        <ele>1606.9799800000001</ele>
        <time>2017-06-16T11:48:41Z</time>
      </trkpt>
      <trkpt lat="41.872576391324401" lon="13.536585364490747">
        <ele>1606.5</ele>
        <time>2017-06-16T11:48:42Z</time>
      </trkpt>
      <trkpt lat="41.872567171230912" lon="13.536602128297091">
        <ele>1606.5</ele>
        <time>2017-06-16T11:48:43Z</time>
      </trkpt>
      <trkpt lat="41.872493997216225" lon="13.536759288981557">
        <ele>1606.5</ele>
        <time>2017-06-16T11:48:52Z</time>
      </trkpt>
      <trkpt lat="41.872488129884005" lon="13.536776471883059">
        <ele>1606.0200199999999</ele>
        <time>2017-06-16T11:48:53Z</time>
      </trkpt>
      <trkpt lat="41.872478825971484" lon="13.536791810765862">
        <ele>1606.0200199999999</ele>
        <time>2017-06-16T11:48:54Z</time>
      </trkpt>
      <trkpt lat="41.872468264773488" lon="13.53680782020092">
        <ele>1606.0200199999999</ele>
        <time>2017-06-16T11:48:55Z</time>
      </trkpt>
      <trkpt lat="41.872460721060634" lon="13.536823578178883">
        <ele>1606.0200199999999</ele>
        <time>2017-06-16T11:48:56Z</time>
      </trkpt>
      <trkpt lat="41.872344380244613" lon="13.537082495167851">
        <ele>1605.059937</ele>
        <time>2017-06-16T11:49:14Z</time>
      </trkpt>
      <trkpt lat="41.87222845852375" lon="13.537310231477022">
        <ele>1604.579956</ele>
        <time>2017-06-16T11:49:31Z</time>
      </trkpt>
      <trkpt lat="41.872063335031271" lon="13.537574680522084">
        <ele>1604.579956</ele>
        <time>2017-06-16T11:49:47Z</time>
      </trkpt>
      <trkpt lat="41.871937438845634" lon="13.537842063233256">
        <ele>1603.6201169999999</ele>
        <time>2017-06-16T11:50:06Z</time>
      </trkpt>
      <trkpt lat="41.871898462995887" lon="13.537900904193521">
        <ele>1603.6201169999999</ele>
        <time>2017-06-16T11:50:10Z</time>
      </trkpt>
      <trkpt lat="41.871887817978859" lon="13.53792043402791">
        <ele>1603.6201169999999</ele>
        <time>2017-06-16T11:50:11Z</time>
      </trkpt>
      <trkpt lat="41.871878514066339" lon="13.537937197834253">
        <ele>1603.6201169999999</ele>
        <time>2017-06-16T11:50:12Z</time>
      </trkpt>
      <trkpt lat="41.871870383620262" lon="13.537953123450279">
        <ele>1603.6201169999999</ele>
        <time>2017-06-16T11:50:13Z</time>
      </trkpt>
      <trkpt lat="41.871863007545471" lon="13.537971395999193">
        <ele>1603.6201169999999</ele>
        <time>2017-06-16T11:50:14Z</time>
      </trkpt>
      <trkpt lat="41.871823696419597" lon="13.538234420120716">
        <ele>1603.6201169999999</ele>
        <time>2017-06-16T11:50:29Z</time>
      </trkpt>
      <trkpt lat="41.871831575408578" lon="13.538248166441917">
        <ele>1603.6201169999999</ele>
        <time>2017-06-16T11:50:30Z</time>
      </trkpt>
      <trkpt lat="41.871842136606574" lon="13.538256967440248">
        <ele>1603.6201169999999</ele>
        <time>2017-06-16T11:50:31Z</time>
      </trkpt>
      <trkpt lat="41.871852362528443" lon="13.538266690447927">
        <ele>1603.6201169999999</ele>
        <time>2017-06-16T11:50:32Z</time>
      </trkpt>
      <trkpt lat="41.871862336993217" lon="13.538279263302684">
        <ele>1603.6201169999999</ele>
        <time>2017-06-16T11:50:33Z</time>
      </trkpt>
      <trkpt lat="41.871874239295721" lon="13.538292339071631">
        <ele>1603.6201169999999</ele>
        <time>2017-06-16T11:50:34Z</time>
      </trkpt>
      <trkpt lat="41.871885722503066" lon="13.538299212232232">
        <ele>1603.6201169999999</ele>
        <time>2017-06-16T11:50:35Z</time>
      </trkpt>
      <trkpt lat="41.87190055847168" lon="13.538303738459945">
        <ele>1603.6201169999999</ele>
        <time>2017-06-16T11:50:36Z</time>
      </trkpt>
      <trkpt lat="41.87191279605031" lon="13.538305833935738">
        <ele>1603.6201169999999</ele>
        <time>2017-06-16T11:50:37Z</time>
      </trkpt>
      <trkpt lat="41.871925368905067" lon="13.53830348700285">
        <ele>1603.6201169999999</ele>
        <time>2017-06-16T11:50:38Z</time>
      </trkpt>
      <trkpt lat="41.871939031407237" lon="13.538299463689327">
        <ele>1603.6201169999999</ele>
        <time>2017-06-16T11:50:39Z</time>
      </trkpt>
      <trkpt lat="41.872083870694041" lon="13.538187313824892">
        <ele>1603.6201169999999</ele>
        <time>2017-06-16T11:50:53Z</time>
      </trkpt>
      <trkpt lat="41.872260309755802" lon="13.538033170625567">
        <ele>1602.660034</ele>
        <time>2017-06-16T11:51:08Z</time>
      </trkpt>
      <trkpt lat="41.872474635019898" lon="13.537963768467307">
        <ele>1602.170044</ele>
        <time>2017-06-16T11:51:22Z</time>
      </trkpt>
      <trkpt lat="41.872644368559122" lon="13.537932587787509">
        <ele>1601.690063</ele>
        <time>2017-06-16T11:51:37Z</time>
      </trkpt>
      <trkpt lat="41.872797589749098" lon="13.537976760417223">
        <ele>1601.209961</ele>
        <time>2017-06-16T11:51:48Z</time>
      </trkpt>
      <trkpt lat="41.872885683551431" lon="13.538033338263631">
        <ele>1601.209961</ele>
        <time>2017-06-16T11:51:55Z</time>
      </trkpt>
      <trkpt lat="41.872895071282983" lon="13.538043228909373">
        <ele>1601.209961</ele>
        <time>2017-06-16T11:51:56Z</time>
      </trkpt>
      <trkpt lat="41.872902698814869" lon="13.538045659661293">
        <ele>1600.7299800000001</ele>
        <time>2017-06-16T11:51:57Z</time>
      </trkpt>
      <trkpt lat="41.872909739613533" lon="13.538052700459957">
        <ele>1600.7299800000001</ele>
        <time>2017-06-16T11:51:58Z</time>
      </trkpt>
      <trkpt lat="41.872921390458941" lon="13.538063513115048">
        <ele>1600.7299800000001</ele>
        <time>2017-06-16T11:51:59Z</time>
      </trkpt>
      <trkpt lat="41.872933208942413" lon="13.538073236122727">
        <ele>1600.7299800000001</ele>
        <time>2017-06-16T11:52:00Z</time>
      </trkpt>
      <trkpt lat="41.8729442730546" lon="13.538085138425231">
        <ele>1600.7299800000001</ele>
        <time>2017-06-16T11:52:01Z</time>
      </trkpt>
      <trkpt lat="41.872954582795501" lon="13.538095029070973">
        <ele>1600.7299800000001</ele>
        <time>2017-06-16T11:52:02Z</time>
      </trkpt>
      <trkpt lat="41.873011160641909" lon="13.538203574717045">
        <ele>1600.7299800000001</ele>
        <time>2017-06-16T11:52:10Z</time>
      </trkpt>
      <trkpt lat="41.873006634414196" lon="13.538223104551435">
        <ele>1600.7299800000001</ele>
        <time>2017-06-16T11:52:11Z</time>
      </trkpt>
      <trkpt lat="41.873002275824547" lon="13.538241880014539">
        <ele>1600.7299800000001</ele>
        <time>2017-06-16T11:52:12Z</time>
      </trkpt>
      <trkpt lat="41.872998671606183" lon="13.538259817287326">
        <ele>1600.7299800000001</ele>
        <time>2017-06-16T11:52:13Z</time>
      </trkpt>
      <trkpt lat="41.872996240854263" lon="13.538276664912701">
        <ele>1600.7299800000001</ele>
        <time>2017-06-16T11:52:14Z</time>
      </trkpt>
      <trkpt lat="41.872994899749756" lon="13.538293596357107">
        <ele>1600.7299800000001</ele>
        <time>2017-06-16T11:52:15Z</time>
      </trkpt>
      <trkpt lat="41.872978638857603" lon="13.538413792848587">
        <ele>1600.7299800000001</ele>
        <time>2017-06-16T11:52:22Z</time>
      </trkpt>
      <trkpt lat="41.872972771525383" lon="13.538649994879961">
        <ele>1599.7700199999999</ele>
        <time>2017-06-16T11:52:36Z</time>
      </trkpt>
      <trkpt lat="41.872963383793831" lon="13.538896003738046">
        <ele>1599.290039</ele>
        <time>2017-06-16T11:52:54Z</time>
      </trkpt>
      <trkpt lat="41.872939160093665" lon="13.539152070879936">
        <ele>1598.329956</ele>
        <time>2017-06-16T11:53:08Z</time>
      </trkpt>
      <trkpt lat="41.87293547205627" lon="13.539377460256219">
        <ele>1597.849976</ele>
        <time>2017-06-16T11:53:20Z</time>
      </trkpt>
      <trkpt lat="41.872950224205852" lon="13.539531603455544">
        <ele>1597.369995</ele>
        <time>2017-06-16T11:53:30Z</time>
      </trkpt>
      <trkpt lat="41.872949302196503" lon="13.539552558213472">
        <ele>1597.369995</ele>
        <time>2017-06-16T11:53:31Z</time>
      </trkpt>
      <trkpt lat="41.872947122901678" lon="13.539571836590767">
        <ele>1597.369995</ele>
        <time>2017-06-16T11:53:32Z</time>
      </trkpt>
      <trkpt lat="41.872937483713031" lon="13.539673676714301">
        <ele>1597.849976</ele>
        <time>2017-06-16T11:53:47Z</time>
      </trkpt>
      <trkpt lat="41.872891299426556" lon="13.539703097194433">
        <ele>1597.849976</ele>
        <time>2017-06-16T11:54:10Z</time>
      </trkpt>
      <trkpt lat="41.872902363538742" lon="13.539790268987417">
        <ele>1597.369995</ele>
        <time>2017-06-16T11:54:29Z</time>
      </trkpt>
      <trkpt lat="41.8729442730546" lon="13.540026806294918">
        <ele>1597.369995</ele>
        <time>2017-06-16T11:54:43Z</time>
      </trkpt>
      <trkpt lat="41.872987020760775" lon="13.540351940318942">
        <ele>1597.369995</ele>
        <time>2017-06-16T11:54:59Z</time>
      </trkpt>
      <trkpt lat="41.873029181733727" lon="13.540512034669518">
        <ele>1597.369995</ele>
        <time>2017-06-16T11:55:08Z</time>
      </trkpt>
      <trkpt lat="41.873036306351423" lon="13.540530139580369">
        <ele>1597.369995</ele>
        <time>2017-06-16T11:55:09Z</time>
      </trkpt>
      <trkpt lat="41.87304250895977" lon="13.540549334138632">
        <ele>1596.8900149999999</ele>
        <time>2017-06-16T11:55:10Z</time>
      </trkpt>
      <trkpt lat="41.873045861721039" lon="13.540569199249148">
        <ele>1596.8900149999999</ele>
        <time>2017-06-16T11:55:11Z</time>
      </trkpt>
      <trkpt lat="41.873047538101673" lon="13.540585292503238">
        <ele>1596.8900149999999</ele>
        <time>2017-06-16T11:55:12Z</time>
      </trkpt>
      <trkpt lat="41.873047286644578" lon="13.540605409070849">
        <ele>1596.8900149999999</ele>
        <time>2017-06-16T11:55:13Z</time>
      </trkpt>
      <trkpt lat="41.87305030412972" lon="13.540628459304571">
        <ele>1596.8900149999999</ele>
        <time>2017-06-16T11:55:14Z</time>
      </trkpt>
      <trkpt lat="41.873054495081306" lon="13.540650838986039">
        <ele>1596.8900149999999</ele>
        <time>2017-06-16T11:55:15Z</time>
      </trkpt>
      <trkpt lat="41.873137895017862" lon="13.541023666039109">
        <ele>1596.4099120000001</ele>
        <time>2017-06-16T11:55:32Z</time>
      </trkpt>
      <trkpt lat="41.873228838667274" lon="13.541199769824743">
        <ele>1595.4499510000001</ele>
        <time>2017-06-16T11:55:45Z</time>
      </trkpt>
      <trkpt lat="41.873355489224195" lon="13.541303621605039">
        <ele>1594.9600829999999</ele>
        <time>2017-06-16T11:55:58Z</time>
      </trkpt>
      <trkpt lat="41.873525138944387" lon="13.541429936885834">
        <ele>1594.9600829999999</ele>
        <time>2017-06-16T11:56:14Z</time>
      </trkpt>
      <trkpt lat="41.873726388439536" lon="13.541463129222393">
        <ele>1594</ele>
        <time>2017-06-16T11:56:31Z</time>
      </trkpt>
      <trkpt lat="41.873917663469911" lon="13.541485508903861">
        <ele>1593.040039</ele>
        <time>2017-06-16T11:56:46Z</time>
      </trkpt>
      <trkpt lat="41.874106088653207" lon="13.541534710675478">
        <ele>1592.5600589999999</ele>
        <time>2017-06-16T11:57:00Z</time>
      </trkpt>
      <trkpt lat="41.874150261282921" lon="13.541541416198015">
        <ele>1592.079956</ele>
        <time>2017-06-16T11:57:03Z</time>
      </trkpt>
      <trkpt lat="41.874166941270232" lon="13.541543176397681">
        <ele>1592.079956</ele>
        <time>2017-06-16T11:57:04Z</time>
      </trkpt>
      <trkpt lat="41.874183202162385" lon="13.54155239649117">
        <ele>1592.079956</ele>
        <time>2017-06-16T11:57:05Z</time>
      </trkpt>
      <trkpt lat="41.874198960140347" lon="13.541562035679817">
        <ele>1592.079956</ele>
        <time>2017-06-16T11:57:06Z</time>
      </trkpt>
      <trkpt lat="41.874217484146357" lon="13.541571758687496">
        <ele>1592.079956</ele>
        <time>2017-06-16T11:57:07Z</time>
      </trkpt>
      <trkpt lat="41.874235337600112" lon="13.54158072732389">
        <ele>1592.079956</ele>
        <time>2017-06-16T11:57:08Z</time>
      </trkpt>
      <trkpt lat="41.874360563233495" lon="13.541622972115874">
        <ele>1592.079956</ele>
        <time>2017-06-16T11:57:16Z</time>
      </trkpt>
      <trkpt lat="41.874376405030489" lon="13.541633784770966">
        <ele>1592.079956</ele>
        <time>2017-06-16T11:57:17Z</time>
      </trkpt>
      <trkpt lat="41.874437090009451" lon="13.541663540527225">
        <ele>1592.079956</ele>
        <time>2017-06-16T11:57:21Z</time>
      </trkpt>
      <trkpt lat="41.874503726139665" lon="13.541767224669456">
        <ele>1592.079956</ele>
        <time>2017-06-16T11:57:28Z</time>
      </trkpt>
      <trkpt lat="41.874503307044506" lon="13.541786335408688">
        <ele>1592.079956</ele>
        <time>2017-06-16T11:57:29Z</time>
      </trkpt>
      <trkpt lat="41.874501714482903" lon="13.541814833879471">
        <ele>1592.079956</ele>
        <time>2017-06-16T11:57:31Z</time>
      </trkpt>
      <trkpt lat="41.874502720311284" lon="13.541830759495497">
        <ele>1592.079956</ele>
        <time>2017-06-16T11:57:32Z</time>
      </trkpt>
      <trkpt lat="41.874500373378396" lon="13.542014071717858">
        <ele>1591.599976</ele>
        <time>2017-06-16T11:57:42Z</time>
      </trkpt>
      <trkpt lat="41.874402305111289" lon="13.542203838005662">
        <ele>1591.119995</ele>
        <time>2017-06-16T11:57:56Z</time>
      </trkpt>
      <trkpt lat="41.874427199363708" lon="13.542411709204316">
        <ele>1590.6400149999999</ele>
        <time>2017-06-16T11:58:09Z</time>
      </trkpt>
      <trkpt lat="41.874426361173391" lon="13.542433166876435">
        <ele>1590.6400149999999</ele>
        <time>2017-06-16T11:58:10Z</time>
      </trkpt>
      <trkpt lat="41.874424936249852" lon="13.542454289272428">
        <ele>1590.6400149999999</ele>
        <time>2017-06-16T11:58:11Z</time>
      </trkpt>
      <trkpt lat="41.874423176050186" lon="13.542473735287786">
        <ele>1590.6400149999999</ele>
        <time>2017-06-16T11:58:12Z</time>
      </trkpt>
      <trkpt lat="41.874420158565044" lon="13.542497120797634">
        <ele>1590.6400149999999</ele>
        <time>2017-06-16T11:58:13Z</time>
      </trkpt>
      <trkpt lat="41.874396102502942" lon="13.542599212378263">
        <ele>1590.160034</ele>
        <time>2017-06-16T11:58:18Z</time>
      </trkpt>
      <trkpt lat="41.874387888237834" lon="13.5426215082407">
        <ele>1590.160034</ele>
        <time>2017-06-16T11:58:19Z</time>
      </trkpt>
      <trkpt lat="41.874380512163043" lon="13.542640367522836">
        <ele>1590.160034</ele>
        <time>2017-06-16T11:58:20Z</time>
      </trkpt>
      <trkpt lat="41.874371962621808" lon="13.542657215148211">
        <ele>1590.160034</ele>
        <time>2017-06-16T11:58:21Z</time>
      </trkpt>
      <trkpt lat="41.874363413080573" lon="13.542675990611315">
        <ele>1590.160034</ele>
        <time>2017-06-16T11:58:22Z</time>
      </trkpt>
      <trkpt lat="41.874356372281909" lon="13.54269334115088">
        <ele>1589.679932</ele>
        <time>2017-06-16T11:58:23Z</time>
      </trkpt>
      <trkpt lat="41.874350002035499" lon="13.542710524052382">
        <ele>1589.679932</ele>
        <time>2017-06-16T11:58:24Z</time>
      </trkpt>
      <trkpt lat="41.874344302341342" lon="13.542724438011646">
        <ele>1589.679932</ele>
        <time>2017-06-16T11:58:25Z</time>
      </trkpt>
      <trkpt lat="41.874337261542678" lon="13.542740615084767">
        <ele>1589.679932</ele>
        <time>2017-06-16T11:58:26Z</time>
      </trkpt>
      <trkpt lat="41.874331310391426" lon="13.542759977281094">
        <ele>1589.679932</ele>
        <time>2017-06-16T11:58:27Z</time>
      </trkpt>
      <trkpt lat="41.874325359240174" lon="13.542774897068739">
        <ele>1589.679932</ele>
        <time>2017-06-16T11:58:28Z</time>
      </trkpt>
      <trkpt lat="41.874237013980746" lon="13.542967764660716">
        <ele>1589.679932</ele>
        <time>2017-06-16T11:58:41Z</time>
      </trkpt>
      <trkpt lat="41.874218406155705" lon="13.542995508760214">
        <ele>1589.679932</ele>
        <time>2017-06-16T11:58:43Z</time>
      </trkpt>
      <trkpt lat="41.874062418937683" lon="13.54327286593616">
        <ele>1589.679932</ele>
        <time>2017-06-16T11:58:57Z</time>
      </trkpt>
      <trkpt lat="41.873992262408137" lon="13.543447460979223">
        <ele>1589.1999510000001</ele>
        <time>2017-06-16T11:59:08Z</time>
      </trkpt>
      <trkpt lat="41.873953538015485" lon="13.543639238923788">
        <ele>1588.719971</ele>
        <time>2017-06-16T11:59:22Z</time>
      </trkpt>
      <trkpt lat="41.873938282951713" lon="13.543719369918108">
        <ele>1588.23999</ele>
        <time>2017-06-16T11:59:27Z</time>
      </trkpt>
      <trkpt lat="41.873868461698294" lon="13.543984824791551">
        <ele>1587.7498780000001</ele>
        <time>2017-06-16T11:59:42Z</time>
      </trkpt>
      <trkpt lat="41.873772237449884" lon="13.544264528900385">
        <ele>1587.2700199999999</ele>
        <time>2017-06-16T11:59:56Z</time>
      </trkpt>
      <trkpt lat="41.873724209144711" lon="13.544542221352458">
        <ele>1586.3100589999999</ele>
        <time>2017-06-16T12:00:11Z</time>
      </trkpt>
      <trkpt lat="41.873714234679937" lon="13.544696280732751">
        <ele>1585.830078</ele>
        <time>2017-06-16T12:00:23Z</time>
      </trkpt>
      <trkpt lat="41.873709540814161" lon="13.544710027053952">
        <ele>1585.830078</ele>
        <time>2017-06-16T12:00:24Z</time>
      </trkpt>
      <trkpt lat="41.873703086748719" lon="13.544727293774486">
        <ele>1585.830078</ele>
        <time>2017-06-16T12:00:25Z</time>
      </trkpt>
      <trkpt lat="41.873696381226182" lon="13.544742967933416">
        <ele>1585.830078</ele>
        <time>2017-06-16T12:00:26Z</time>
      </trkpt>
      <trkpt lat="41.873691435903311" lon="13.544756965711713">
        <ele>1585.830078</ele>
        <time>2017-06-16T12:00:27Z</time>
      </trkpt>
      <trkpt lat="41.873685987666249" lon="13.544772639870644">
        <ele>1585.830078</ele>
        <time>2017-06-16T12:00:28Z</time>
      </trkpt>
      <trkpt lat="41.873605772852898" lon="13.545060558244586">
        <ele>1585.349976</ele>
        <time>2017-06-16T12:00:45Z</time>
      </trkpt>
      <trkpt lat="41.87362345866859" lon="13.545325258746743">
        <ele>1584.3900149999999</ele>
        <time>2017-06-16T12:01:00Z</time>
      </trkpt>
      <trkpt lat="41.873641228303313" lon="13.545363731682301">
        <ele>1583.910034</ele>
        <time>2017-06-16T12:01:03Z</time>
      </trkpt>
      <trkpt lat="41.87367039732635" lon="13.545454675331712">
        <ele>1583.4300539999999</ele>
        <time>2017-06-16T12:01:09Z</time>
      </trkpt>
      <trkpt lat="41.873708786442876" lon="13.545810068026185">
        <ele>1582.469971</ele>
        <time>2017-06-16T12:01:25Z</time>
      </trkpt>
      <trkpt lat="41.873707696795464" lon="13.546018693596125">
        <ele>1581.51001</ele>
        <time>2017-06-16T12:01:38Z</time>
      </trkpt>
      <trkpt lat="41.873670564964414" lon="13.546100165694952">
        <ele>1581.51001</ele>
        <time>2017-06-16T12:01:51Z</time>
      </trkpt>
      <trkpt lat="41.873562689870596" lon="13.546414906159043">
        <ele>1581.51001</ele>
        <time>2017-06-16T12:02:10Z</time>
      </trkpt>
      <trkpt lat="41.873533520847559" lon="13.546741465106606">
        <ele>1581.030029</ele>
        <time>2017-06-16T12:02:28Z</time>
      </trkpt>
      <trkpt lat="41.873564114794135" lon="13.547097695991397">
        <ele>1579.1000979999999</ele>
        <time>2017-06-16T12:02:48Z</time>
      </trkpt>
      <trkpt lat="41.873554894700646" lon="13.547382429242134">
        <ele>1578.6201169999999</ele>
        <time>2017-06-16T12:03:04Z</time>
      </trkpt>
      <trkpt lat="41.873554727062583" lon="13.54740078561008">
        <ele>1578.6201169999999</ele>
        <time>2017-06-16T12:03:05Z</time>
      </trkpt>
      <trkpt lat="41.873554307967424" lon="13.547422075644135">
        <ele>1578.6201169999999</ele>
        <time>2017-06-16T12:03:06Z</time>
      </trkpt>
      <trkpt lat="41.8735555652529" lon="13.547444036230445">
        <ele>1578.139893</ele>
        <time>2017-06-16T12:03:07Z</time>
      </trkpt>
      <trkpt lat="41.873557241633534" lon="13.547462560236454">
        <ele>1578.139893</ele>
        <time>2017-06-16T12:03:08Z</time>
      </trkpt>
      <trkpt lat="41.873503178358078" lon="13.547696163877845">
        <ele>1578.139893</ele>
        <time>2017-06-16T12:03:21Z</time>
      </trkpt>
      <trkpt lat="41.873434195294976" lon="13.547921888530254">
        <ele>1578.139893</ele>
        <time>2017-06-16T12:03:38Z</time>
      </trkpt>
      <trkpt lat="41.873435117304325" lon="13.547947285696864">
        <ele>1578.139893</ele>
        <time>2017-06-16T12:03:46Z</time>
      </trkpt>
      <trkpt lat="41.873524636030197" lon="13.548181476071477">
        <ele>1580.059937</ele>
        <time>2017-06-16T12:04:03Z</time>
      </trkpt>
      <trkpt lat="41.873533939942718" lon="13.548190360888839">
        <ele>1580.059937</ele>
        <time>2017-06-16T12:04:04Z</time>
      </trkpt>
      <trkpt lat="41.873541735112667" lon="13.548201760277152">
        <ele>1580.059937</ele>
        <time>2017-06-16T12:04:05Z</time>
      </trkpt>
      <trkpt lat="41.873546931892633" lon="13.54821584187448">
        <ele>1580.059937</ele>
        <time>2017-06-16T12:04:06Z</time>
      </trkpt>
      <trkpt lat="41.873551793396473" lon="13.548231767490506">
        <ele>1580.059937</ele>
        <time>2017-06-16T12:04:07Z</time>
      </trkpt>
      <trkpt lat="41.87358096241951" lon="13.54831650853157">
        <ele>1580.059937</ele>
        <time>2017-06-16T12:04:13Z</time>
      </trkpt>
      <trkpt lat="41.873582135885954" lon="13.548331679776311">
        <ele>1580.059937</ele>
        <time>2017-06-16T12:04:14Z</time>
      </trkpt>
      <trkpt lat="41.873585321009159" lon="13.548348024487495">
        <ele>1580.059937</ele>
        <time>2017-06-16T12:04:15Z</time>
      </trkpt>
      <trkpt lat="41.873590433970094" lon="13.54836386628449">
        <ele>1580.059937</ele>
        <time>2017-06-16T12:04:16Z</time>
      </trkpt>
      <trkpt lat="41.873596888035536" lon="13.548376439139247">
        <ele>1580.5399170000001</ele>
        <time>2017-06-16T12:04:17Z</time>
      </trkpt>
      <trkpt lat="41.8736073654145" lon="13.548390017822385">
        <ele>1580.5399170000001</ele>
        <time>2017-06-16T12:04:18Z</time>
      </trkpt>
      <trkpt lat="41.87361516058445" lon="13.548400495201349">
        <ele>1580.059937</ele>
        <time>2017-06-16T12:04:19Z</time>
      </trkpt>
      <trkpt lat="41.87366746366024" lon="13.548466041684151">
        <ele>1580.059937</ele>
        <time>2017-06-16T12:04:26Z</time>
      </trkpt>
      <trkpt lat="41.873676599934697" lon="13.54847869835794">
        <ele>1580.059937</ele>
        <time>2017-06-16T12:04:27Z</time>
      </trkpt>
      <trkpt lat="41.873686239123344" lon="13.548493199050426">
        <ele>1580.059937</ele>
        <time>2017-06-16T12:04:28Z</time>
      </trkpt>
      <trkpt lat="41.873714821413159" lon="13.548545334488153">
        <ele>1578.6201169999999</ele>
        <time>2017-06-16T12:04:31Z</time>
      </trkpt>
      <trkpt lat="41.873835772275925" lon="13.548697466030717">
        <ele>1575.73999</ele>
        <time>2017-06-16T12:04:45Z</time>
      </trkpt>
      <trkpt lat="41.873908275738358" lon="13.548773741349578">
        <ele>1574.3000489999999</ele>
        <time>2017-06-16T12:04:58Z</time>
      </trkpt>
      <trkpt lat="41.874034339562058" lon="13.548946911469102">
        <ele>1571.8900149999999</ele>
        <time>2017-06-16T12:05:13Z</time>
      </trkpt>
      <trkpt lat="41.874096784740686" lon="13.549023941159248">
        <ele>1570.929932</ele>
        <time>2017-06-16T12:05:19Z</time>
      </trkpt>
      <trkpt lat="41.874112458899617" lon="13.549040704965591">
        <ele>1570.929932</ele>
        <time>2017-06-16T12:05:20Z</time>
      </trkpt>
      <trkpt lat="41.874125199392438" lon="13.549051014706492">
        <ele>1570.4499510000001</ele>
        <time>2017-06-16T12:05:21Z</time>
      </trkpt>
      <trkpt lat="41.874138275161386" lon="13.549058809876442">
        <ele>1570.929932</ele>
        <time>2017-06-16T12:05:22Z</time>
      </trkpt>
      <trkpt lat="41.874149590730667" lon="13.549070041626692">
        <ele>1570.4499510000001</ele>
        <time>2017-06-16T12:05:23Z</time>
      </trkpt>
      <trkpt lat="41.874271212145686" lon="13.549178503453732">
        <ele>1569.009888</ele>
        <time>2017-06-16T12:05:36Z</time>
      </trkpt>
      <trkpt lat="41.874383362010121" lon="13.549301885068417">
        <ele>1568.530029</ele>
        <time>2017-06-16T12:05:47Z</time>
      </trkpt>
      <trkpt lat="41.874505318701267" lon="13.549499362707138">
        <ele>1567.0900879999999</ele>
        <time>2017-06-16T12:05:58Z</time>
      </trkpt>
      <trkpt lat="41.874606572091579" lon="13.549614865332842">
        <ele>1567.0900879999999</ele>
        <time>2017-06-16T12:06:08Z</time>
      </trkpt>
      <trkpt lat="41.874708663672209" lon="13.549736235290766">
        <ele>1567.0900879999999</ele>
        <time>2017-06-16T12:06:19Z</time>
      </trkpt>
      <trkpt lat="41.874801702797413" lon="13.549838829785585">
        <ele>1567.0900879999999</ele>
        <time>2017-06-16T12:06:30Z</time>
      </trkpt>
      <trkpt lat="41.874903123825788" lon="13.54997294023633">
        <ele>1567.0900879999999</ele>
        <time>2017-06-16T12:06:42Z</time>
      </trkpt>
      <trkpt lat="41.875082831829786" lon="13.550103362649679">
        <ele>1566.119995</ele>
        <time>2017-06-16T12:06:56Z</time>
      </trkpt>
      <trkpt lat="41.875220462679863" lon="13.550201011821628">
        <ele>1566.6099850000001</ele>
        <time>2017-06-16T12:07:08Z</time>
      </trkpt>
      <trkpt lat="41.875295815989375" lon="13.550239987671375">
        <ele>1566.6099850000001</ele>
        <time>2017-06-16T12:07:12Z</time>
      </trkpt>
      <trkpt lat="41.875312915071845" lon="13.550249710679054">
        <ele>1566.6099850000001</ele>
        <time>2017-06-16T12:07:13Z</time>
      </trkpt>
      <trkpt lat="41.875443505123258" lon="13.550347862765193">
        <ele>1568.0500489999999</ele>
        <time>2017-06-16T12:07:22Z</time>
      </trkpt>
      <trkpt lat="41.875536208972335" lon="13.550403518602252">
        <ele>1566.119995</ele>
        <time>2017-06-16T12:07:31Z</time>
      </trkpt>
      <trkpt lat="41.875622291117907" lon="13.550388431176543">
        <ele>1564.1999510000001</ele>
        <time>2017-06-16T12:07:49Z</time>
      </trkpt>
      <trkpt lat="41.875624470412731" lon="13.550432184711099">
        <ele>1564.679932</ele>
        <time>2017-06-16T12:08:07Z</time>
      </trkpt>
      <trkpt lat="41.875667134299874" lon="13.550484320148826">
        <ele>1563.23999</ele>
        <time>2017-06-16T12:08:29Z</time>
      </trkpt>
      <trkpt lat="41.875766208395362" lon="13.550571575760841">
        <ele>1559.8798830000001</ele>
        <time>2017-06-16T12:08:39Z</time>
      </trkpt>
      <trkpt lat="41.875824965536594" lon="13.550677690654993">
        <ele>1557.9499510000001</ele>
        <time>2017-06-16T12:08:49Z</time>
      </trkpt>
      <trkpt lat="41.875832006335258" lon="13.550697974860668">
        <ele>1556.98999</ele>
        <time>2017-06-16T12:08:50Z</time>
      </trkpt>
      <trkpt lat="41.875942060723901" lon="13.550844071432948">
        <ele>1554.1099850000001</ele>
        <time>2017-06-16T12:09:01Z</time>
      </trkpt>
      <trkpt lat="41.876063933596015" lon="13.550953036174178">
        <ele>1550.73999</ele>
        <time>2017-06-16T12:09:12Z</time>
      </trkpt>
      <trkpt lat="41.876154458150268" lon="13.551009362563491">
        <ele>1547.380005</ele>
        <time>2017-06-16T12:09:22Z</time>
      </trkpt>
      <trkpt lat="41.876203995198011" lon="13.551024366170168">
        <ele>1545.9399410000001</ele>
        <time>2017-06-16T12:09:27Z</time>
      </trkpt>
      <trkpt lat="41.876228721812367" lon="13.551028640940785">
        <ele>1545.9399410000001</ele>
        <time>2017-06-16T12:09:29Z</time>
      </trkpt>
      <trkpt lat="41.876301225274801" lon="13.551037861034274">
        <ele>1544.009888</ele>
        <time>2017-06-16T12:09:42Z</time>
      </trkpt>
      <trkpt lat="41.876398203894496" lon="13.551021600142121">
        <ele>1541.6099850000001</ele>
        <time>2017-06-16T12:09:56Z</time>
      </trkpt>
      <trkpt lat="41.876596435904503" lon="13.551051439717412">
        <ele>1538.25</ele>
        <time>2017-06-16T12:10:09Z</time>
      </trkpt>
      <trkpt lat="41.876622335985303" lon="13.551068035885692">
        <ele>1537.7700199999999</ele>
        <time>2017-06-16T12:10:11Z</time>
      </trkpt>
      <trkpt lat="41.876754434779286" lon="13.551269117742777">
        <ele>1534.3999020000001</ele>
        <time>2017-06-16T12:10:22Z</time>
      </trkpt>
      <trkpt lat="41.87674873508513" lon="13.551305495202541">
        <ele>1533.920044</ele>
        <time>2017-06-16T12:10:24Z</time>
      </trkpt>
      <trkpt lat="41.876687714830041" lon="13.551442706957459">
        <ele>1530.5600589999999</ele>
        <time>2017-06-16T12:10:35Z</time>
      </trkpt>
      <trkpt lat="41.876658210530877" lon="13.551557958126068">
        <ele>1528.150024</ele>
        <time>2017-06-16T12:10:45Z</time>
      </trkpt>
      <trkpt lat="41.876650163903832" lon="13.551596095785499">
        <ele>1527.669922</ele>
        <time>2017-06-16T12:10:47Z</time>
      </trkpt>
      <trkpt lat="41.876644799485803" lon="13.551613362506032">
        <ele>1526.709961</ele>
        <time>2017-06-16T12:10:48Z</time>
      </trkpt>
      <trkpt lat="41.87664370983839" lon="13.551633059978485">
        <ele>1526.709961</ele>
        <time>2017-06-16T12:10:49Z</time>
      </trkpt>
      <trkpt lat="41.876640692353249" lon="13.551653176546097">
        <ele>1525.7501219999999</ele>
        <time>2017-06-16T12:10:50Z</time>
      </trkpt>
      <trkpt lat="41.876635830849409" lon="13.551673293113708">
        <ele>1525.2698969999999</ele>
        <time>2017-06-16T12:10:51Z</time>
      </trkpt>
      <trkpt lat="41.876632981002331" lon="13.55169240385294">
        <ele>1524.790039</ele>
        <time>2017-06-16T12:10:52Z</time>
      </trkpt>
      <trkpt lat="41.876629712060094" lon="13.551710341125727">
        <ele>1524.790039</ele>
        <time>2017-06-16T12:10:53Z</time>
      </trkpt>
      <trkpt lat="41.876626862213016" lon="13.551731295883656">
        <ele>1524.3100589999999</ele>
        <time>2017-06-16T12:10:54Z</time>
      </trkpt>
      <trkpt lat="41.876660976558924" lon="13.551844116300344">
        <ele>1521.420044</ele>
        <time>2017-06-16T12:11:04Z</time>
      </trkpt>
      <trkpt lat="41.87666273675859" lon="13.551861885935068">
        <ele>1520.9399410000001</ele>
        <time>2017-06-16T12:11:05Z</time>
      </trkpt>
      <trkpt lat="41.876641362905502" lon="13.552012676373124">
        <ele>1518.059937</ele>
        <time>2017-06-16T12:11:15Z</time>
      </trkpt>
      <trkpt lat="41.876647062599659" lon="13.552033295854926">
        <ele>1518.059937</ele>
        <time>2017-06-16T12:11:16Z</time>
      </trkpt>
      <trkpt lat="41.876708166673779" lon="13.552192132920027">
        <ele>1515.1800539999999</ele>
        <time>2017-06-16T12:11:29Z</time>
      </trkpt>
      <trkpt lat="41.876785280182958" lon="13.552363961935043">
        <ele>1512.7700199999999</ele>
        <time>2017-06-16T12:11:40Z</time>
      </trkpt>
      <trkpt lat="41.876790728420019" lon="13.552376786246896">
        <ele>1512.7700199999999</ele>
        <time>2017-06-16T12:11:41Z</time>
      </trkpt>
      <trkpt lat="41.876825178042054" lon="13.552445182576776">
        <ele>1511.809937</ele>
        <time>2017-06-16T12:11:46Z</time>
      </trkpt>
      <trkpt lat="41.876839762553573" lon="13.552471417933702">
        <ele>1511.329956</ele>
        <time>2017-06-16T12:11:48Z</time>
      </trkpt>
      <trkpt lat="41.876885024830699" lon="13.552541071549058">
        <ele>1509.8900149999999</ele>
        <time>2017-06-16T12:11:54Z</time>
      </trkpt>
      <trkpt lat="41.876897178590298" lon="13.55255339294672">
        <ele>1509.4099120000001</ele>
        <time>2017-06-16T12:11:55Z</time>
      </trkpt>
      <trkpt lat="41.876912182196975" lon="13.552567223086953">
        <ele>1509.4099120000001</ele>
        <time>2017-06-16T12:11:56Z</time>
      </trkpt>
      <trkpt lat="41.876927018165588" lon="13.552580131217837">
        <ele>1509.4099120000001</ele>
        <time>2017-06-16T12:11:57Z</time>
      </trkpt>
      <trkpt lat="41.876958198845387" lon="13.552672080695629">
        <ele>1507</ele>
        <time>2017-06-16T12:12:08Z</time>
      </trkpt>
      <trkpt lat="41.877044113352895" lon="13.552828738465905">
        <ele>1504.119995</ele>
        <time>2017-06-16T12:12:20Z</time>
      </trkpt>
      <trkpt lat="41.877058865502477" lon="13.552851201966405">
        <ele>1503.6400149999999</ele>
        <time>2017-06-16T12:12:21Z</time>
      </trkpt>
      <trkpt lat="41.877082083374262" lon="13.552880622446537">
        <ele>1503.6400149999999</ele>
        <time>2017-06-16T12:12:22Z</time>
      </trkpt>
      <trkpt lat="41.8770956620574" lon="13.552901996299624">
        <ele>1503.160034</ele>
        <time>2017-06-16T12:12:23Z</time>
      </trkpt>
      <trkpt lat="41.877109659835696" lon="13.552922699600458">
        <ele>1503.160034</ele>
        <time>2017-06-16T12:12:24Z</time>
      </trkpt>
      <trkpt lat="41.877115275710821" lon="13.552937367931008">
        <ele>1503.160034</ele>
        <time>2017-06-16T12:12:25Z</time>
      </trkpt>
      <trkpt lat="41.877129105851054" lon="13.552955472841859">
        <ele>1502.6800539999999</ele>
        <time>2017-06-16T12:12:26Z</time>
      </trkpt>
      <trkpt lat="41.877135308459401" lon="13.552966536954045">
        <ele>1502.6800539999999</ele>
        <time>2017-06-16T12:12:27Z</time>
      </trkpt>
      <trkpt lat="41.877138828858733" lon="13.553011463955045">
        <ele>1502.6800539999999</ele>
        <time>2017-06-16T12:12:29Z</time>
      </trkpt>
      <trkpt lat="41.877140337601304" lon="13.553127972409129">
        <ele>1501.23999</ele>
        <time>2017-06-16T12:12:37Z</time>
      </trkpt>
      <trkpt lat="41.877151736989617" lon="13.553154794499278">
        <ele>1500.76001</ele>
        <time>2017-06-16T12:12:39Z</time>
      </trkpt>
      <trkpt lat="41.877159364521503" lon="13.553171809762716">
        <ele>1500.2698969999999</ele>
        <time>2017-06-16T12:12:40Z</time>
      </trkpt>
      <trkpt lat="41.877241926267743" lon="13.553317068144679">
        <ele>1497.3900149999999</ele>
        <time>2017-06-16T12:12:53Z</time>
      </trkpt>
      <trkpt lat="41.877310909330845" lon="13.553418321534991">
        <ele>1494.51001</ele>
        <time>2017-06-16T12:13:02Z</time>
      </trkpt>
      <trkpt lat="41.877455161884427" lon="13.553466433659196">
        <ele>1492.099976</ele>
        <time>2017-06-16T12:13:16Z</time>
      </trkpt>
      <trkpt lat="41.877438230440021" lon="13.553462577983737">
        <ele>1492.099976</ele>
        <time>2017-06-16T12:13:38Z</time>
      </trkpt>
      <trkpt lat="41.8774254899472" lon="13.55363423936069">
        <ele>1490.1800539999999</ele>
        <time>2017-06-16T12:13:58Z</time>
      </trkpt>
      <trkpt lat="41.877443511039019" lon="13.553774384781718">
        <ele>1486.820068</ele>
        <time>2017-06-16T12:14:07Z</time>
      </trkpt>
      <trkpt lat="41.877446360886097" lon="13.553786035627127">
        <ele>1486.820068</ele>
        <time>2017-06-16T12:14:08Z</time>
      </trkpt>
      <trkpt lat="41.877473434433341" lon="13.553868178278208">
        <ele>1483.929932</ele>
        <time>2017-06-16T12:14:17Z</time>
      </trkpt>
      <trkpt lat="41.877491539344192" lon="13.553949063643813">
        <ele>1480.570068</ele>
        <time>2017-06-16T12:14:28Z</time>
      </trkpt>
      <trkpt lat="41.87750075943768" lon="13.554051239043474">
        <ele>1477.6800539999999</ele>
        <time>2017-06-16T12:14:37Z</time>
      </trkpt>
      <trkpt lat="41.87747972086072" lon="13.554155677556992">
        <ele>1474.3199460000001</ele>
        <time>2017-06-16T12:14:46Z</time>
      </trkpt>
      <trkpt lat="41.877495059743524" lon="13.554188366979361">
        <ele>1473.3599850000001</ele>
        <time>2017-06-16T12:14:49Z</time>
      </trkpt>
      <trkpt lat="41.877524396404624" lon="13.554327841848135">
        <ele>1469.98999</ele>
        <time>2017-06-16T12:15:00Z</time>
      </trkpt>
      <trkpt lat="41.877532862126827" lon="13.554340163245797">
        <ele>1469.98999</ele>
        <time>2017-06-16T12:15:01Z</time>
      </trkpt>
      <trkpt lat="41.87754032202065" lon="13.554354328662157">
        <ele>1469.51001</ele>
        <time>2017-06-16T12:15:02Z</time>
      </trkpt>
      <trkpt lat="41.877568988129497" lon="13.554395735263824">
        <ele>1468.0699460000001</ele>
        <time>2017-06-16T12:15:06Z</time>
      </trkpt>
      <trkpt lat="41.877609640359879" lon="13.554515261203051">
        <ele>1464.709961</ele>
        <time>2017-06-16T12:15:17Z</time>
      </trkpt>
      <trkpt lat="41.877583237364888" lon="13.554602516815066">
        <ele>1463.26001</ele>
        <time>2017-06-16T12:15:23Z</time>
      </trkpt>
      <trkpt lat="41.877569239586592" lon="13.554616179317236">
        <ele>1463.26001</ele>
        <time>2017-06-16T12:15:24Z</time>
      </trkpt>
      <trkpt lat="41.877448623999953" lon="13.554687341675162">
        <ele>1459.900024</ele>
        <time>2017-06-16T12:15:35Z</time>
      </trkpt>
      <trkpt lat="41.877304958179593" lon="13.554760431870818">
        <ele>1456.5299070000001</ele>
        <time>2017-06-16T12:15:46Z</time>
      </trkpt>
      <trkpt lat="41.877274280413985" lon="13.554799575358629">
        <ele>1456.0500489999999</ele>
        <time>2017-06-16T12:15:50Z</time>
      </trkpt>
      <trkpt lat="41.877278303727508" lon="13.554911892861128">
        <ele>1452.690063</ele>
        <time>2017-06-16T12:16:02Z</time>
      </trkpt>
      <trkpt lat="41.877383161336184" lon="13.554933434352279">
        <ele>1449.8100589999999</ele>
        <time>2017-06-16T12:16:13Z</time>
      </trkpt>
      <trkpt lat="41.877464298158884" lon="13.554959334433079">
        <ele>1447.3999020000001</ele>
        <time>2017-06-16T12:16:24Z</time>
      </trkpt>
      <trkpt lat="41.877518864348531" lon="13.555003004148602">
        <ele>1445.9600829999999</ele>
        <time>2017-06-16T12:16:31Z</time>
      </trkpt>
      <trkpt lat="41.877658339217305" lon="13.555054636672139">
        <ele>1443.5600589999999</ele>
        <time>2017-06-16T12:16:44Z</time>
      </trkpt>
      <trkpt lat="41.877796472981572" lon="13.555112471804023">
        <ele>1440.669922</ele>
        <time>2017-06-16T12:16:57Z</time>
      </trkpt>
      <trkpt lat="41.877920776605606" lon="13.555138958618045">
        <ele>1439.2299800000001</ele>
        <time>2017-06-16T12:17:11Z</time>
      </trkpt>
      <trkpt lat="41.878042565658689" lon="13.555097635835409">
        <ele>1437.3100589999999</ele>
        <time>2017-06-16T12:17:28Z</time>
      </trkpt>
      <trkpt lat="41.878169300034642" lon="13.555009290575981">
        <ele>1435.869995</ele>
        <time>2017-06-16T12:17:42Z</time>
      </trkpt>
      <trkpt lat="41.878365436568856" lon="13.554974086582661">
        <ele>1434.910034</ele>
        <time>2017-06-16T12:17:55Z</time>
      </trkpt>
      <trkpt lat="41.878514969721437" lon="13.554957825690508">
        <ele>1433.9399410000001</ele>
        <time>2017-06-16T12:18:09Z</time>
      </trkpt>
      <trkpt lat="41.878587640821934" lon="13.55499504134059">
        <ele>1433.459961</ele>
        <time>2017-06-16T12:18:14Z</time>
      </trkpt>
      <trkpt lat="41.878605661913753" lon="13.555004261434078">
        <ele>1433.459961</ele>
        <time>2017-06-16T12:18:15Z</time>
      </trkpt>
      <trkpt lat="41.878619324415922" lon="13.555013565346599">
        <ele>1433.459961</ele>
        <time>2017-06-16T12:18:16Z</time>
      </trkpt>
      <trkpt lat="41.878750836476684" lon="13.55506394058466">
        <ele>1431.059937</ele>
        <time>2017-06-16T12:18:27Z</time>
      </trkpt>
      <trkpt lat="41.878846222534776" lon="13.555102497339249">
        <ele>1427.700073</ele>
        <time>2017-06-16T12:18:38Z</time>
      </trkpt>
      <trkpt lat="41.878857538104057" lon="13.555109119042754">
        <ele>1427.700073</ele>
        <time>2017-06-16T12:18:39Z</time>
      </trkpt>
      <trkpt lat="41.878886958584189" lon="13.555131498724222">
        <ele>1427.209961</ele>
        <time>2017-06-16T12:18:42Z</time>
      </trkpt>
      <trkpt lat="41.878983937203884" lon="13.555234260857105">
        <ele>1424.8100589999999</ele>
        <time>2017-06-16T12:18:55Z</time>
      </trkpt>
      <trkpt lat="41.879138080403209" lon="13.555301818996668">
        <ele>1423.369995</ele>
        <time>2017-06-16T12:19:11Z</time>
      </trkpt>
      <trkpt lat="41.879279315471649" lon="13.555315062403679">
        <ele>1420.969971</ele>
        <time>2017-06-16T12:19:25Z</time>
      </trkpt>
      <trkpt lat="41.879337737336755" lon="13.555294862017035">
        <ele>1420</ele>
        <time>2017-06-16T12:19:30Z</time>
      </trkpt>
      <trkpt lat="41.879357434809208" lon="13.555291090160608">
        <ele>1420</ele>
        <time>2017-06-16T12:19:31Z</time>
      </trkpt>
      <trkpt lat="41.879541333764791" lon="13.555270973592997">
        <ele>1417.119995</ele>
        <time>2017-06-16T12:19:44Z</time>
      </trkpt>
      <trkpt lat="41.879618028178811" lon="13.555295029655099">
        <ele>1416.160034</ele>
        <time>2017-06-16T12:19:49Z</time>
      </trkpt>
      <trkpt lat="41.879638228565454" lon="13.555303495377302">
        <ele>1415.6800539999999</ele>
        <time>2017-06-16T12:19:50Z</time>
      </trkpt>
      <trkpt lat="41.879654992371798" lon="13.555314224213362">
        <ele>1415.6800539999999</ele>
        <time>2017-06-16T12:19:51Z</time>
      </trkpt>
      <trkpt lat="41.879685502499342" lon="13.555327299982309">
        <ele>1415.6800539999999</ele>
        <time>2017-06-16T12:19:53Z</time>
      </trkpt>
      <trkpt lat="41.879701595753431" lon="13.555338364094496">
        <ele>1415.6800539999999</ele>
        <time>2017-06-16T12:19:54Z</time>
      </trkpt>
      <trkpt lat="41.879715761169791" lon="13.555346829816699">
        <ele>1415.1999510000001</ele>
        <time>2017-06-16T12:19:55Z</time>
      </trkpt>
      <trkpt lat="41.879729675129056" lon="13.555358815938234">
        <ele>1415.1999510000001</ele>
        <time>2017-06-16T12:19:56Z</time>
      </trkpt>
      <trkpt lat="41.879743337631226" lon="13.555368203669786">
        <ele>1415.1999510000001</ele>
        <time>2017-06-16T12:19:57Z</time>
      </trkpt>
      <trkpt lat="41.879759933799505" lon="13.55537767522037">
        <ele>1415.1999510000001</ele>
        <time>2017-06-16T12:19:58Z</time>
      </trkpt>
      <trkpt lat="41.879879040643573" lon="13.555412627756596">
        <ele>1413.76001</ele>
        <time>2017-06-16T12:20:10Z</time>
      </trkpt>
      <trkpt lat="41.879944922402501" lon="13.55548563413322">
        <ele>1413.280029</ele>
        <time>2017-06-16T12:20:16Z</time>
      </trkpt>
      <trkpt lat="41.879957662895322" lon="13.555498039349914">
        <ele>1413.280029</ele>
        <time>2017-06-16T12:20:17Z</time>
      </trkpt>
      <trkpt lat="41.879976103082299" lon="13.55551396496594">
        <ele>1413.280029</ele>
        <time>2017-06-16T12:20:18Z</time>
      </trkpt>
      <trkpt lat="41.880007199943066" lon="13.555541960522532">
        <ele>1413.280029</ele>
        <time>2017-06-16T12:20:20Z</time>
      </trkpt>
      <trkpt lat="41.880020024254918" lon="13.555558808147907">
        <ele>1413.280029</ele>
        <time>2017-06-16T12:20:21Z</time>
      </trkpt>
      <trkpt lat="41.880031172186136" lon="13.55556970462203">
        <ele>1413.280029</ele>
        <time>2017-06-16T12:20:22Z</time>
      </trkpt>
      <trkpt lat="41.880127480253577" lon="13.555638939142227">
        <ele>1412.3100589999999</ele>
        <time>2017-06-16T12:20:31Z</time>
      </trkpt>
      <trkpt lat="41.88021020963788" lon="13.555736672133207">
        <ele>1411.3500979999999</ele>
        <time>2017-06-16T12:20:42Z</time>
      </trkpt>
      <trkpt lat="41.880242563784122" lon="13.555759890004992">
        <ele>1411.3500979999999</ele>
        <time>2017-06-16T12:20:45Z</time>
      </trkpt>
      <trkpt lat="41.880408441647887" lon="13.555862735956907">
        <ele>1409.910034</ele>
        <time>2017-06-16T12:21:00Z</time>
      </trkpt>
      <trkpt lat="41.880595609545708" lon="13.555948734283447">
        <ele>1409.910034</ele>
        <time>2017-06-16T12:21:14Z</time>
      </trkpt>
      <trkpt lat="41.880712117999792" lon="13.5560167953372">
        <ele>1408.950073</ele>
        <time>2017-06-16T12:21:27Z</time>
      </trkpt>
      <trkpt lat="41.880822340026498" lon="13.556051161140203">
        <ele>1405.579956</ele>
        <time>2017-06-16T12:21:38Z</time>
      </trkpt>
      <trkpt lat="41.880892161279917" lon="13.556139087304473">
        <ele>1403.6599120000001</ele>
        <time>2017-06-16T12:21:48Z</time>
      </trkpt>
      <trkpt lat="41.880906410515308" lon="13.556151576340199">
        <ele>1403.179932</ele>
        <time>2017-06-16T12:21:49Z</time>
      </trkpt>
      <trkpt lat="41.88092116266489" lon="13.556169513612986">
        <ele>1402.700073</ele>
        <time>2017-06-16T12:21:51Z</time>
      </trkpt>
      <trkpt lat="41.880933064967394" lon="13.556175297126174">
        <ele>1402.700073</ele>
        <time>2017-06-16T12:21:52Z</time>
      </trkpt>
      <trkpt lat="41.881046388298273" lon="13.556216787546873">
        <ele>1400.3000489999999</ele>
        <time>2017-06-16T12:22:04Z</time>
      </trkpt>
      <trkpt lat="41.881170608103275" lon="13.556209160014987">
        <ele>1397.8900149999999</ele>
        <time>2017-06-16T12:22:16Z</time>
      </trkpt>
      <trkpt lat="41.88123389147222" lon="13.556213434785604">
        <ele>1396.929932</ele>
        <time>2017-06-16T12:22:20Z</time>
      </trkpt>
      <trkpt lat="41.881316034123302" lon="13.556237239390612">
        <ele>1396.929932</ele>
        <time>2017-06-16T12:22:26Z</time>
      </trkpt>
      <trkpt lat="41.881321985274553" lon="13.556251237168908">
        <ele>1396.929932</ele>
        <time>2017-06-16T12:22:27Z</time>
      </trkpt>
      <trkpt lat="41.881323577836156" lon="13.556272862479091">
        <ele>1396.929932</ele>
        <time>2017-06-16T12:22:28Z</time>
      </trkpt>
      <trkpt lat="41.881321482360363" lon="13.556292979046702">
        <ele>1396.929932</ele>
        <time>2017-06-16T12:22:29Z</time>
      </trkpt>
      <trkpt lat="41.881316620856524" lon="13.556307060644031">
        <ele>1396.929932</ele>
        <time>2017-06-16T12:22:30Z</time>
      </trkpt>
      <trkpt lat="41.881301365792751" lon="13.556380569934845">
        <ele>1395.969971</ele>
        <time>2017-06-16T12:22:36Z</time>
      </trkpt>
      <trkpt lat="41.881281835958362" lon="13.556508980691433">
        <ele>1394.049927</ele>
        <time>2017-06-16T12:22:48Z</time>
      </trkpt>
      <trkpt lat="41.881306059658527" lon="13.556672930717468">
        <ele>1390.6800539999999</ele>
        <time>2017-06-16T12:23:01Z</time>
      </trkpt>
      <trkpt lat="41.881316620856524" lon="13.556720959022641">
        <ele>1390.6800539999999</ele>
        <time>2017-06-16T12:23:04Z</time>
      </trkpt>
      <trkpt lat="41.881321063265204" lon="13.556740321218967">
        <ele>1390.6800539999999</ele>
        <time>2017-06-16T12:23:05Z</time>
      </trkpt>
      <trkpt lat="41.881330031901598" lon="13.556759180501103">
        <ele>1390.6800539999999</ele>
        <time>2017-06-16T12:23:06Z</time>
      </trkpt>
      <trkpt lat="41.881338832899928" lon="13.556777704507113">
        <ele>1389.719971</ele>
        <time>2017-06-16T12:23:07Z</time>
      </trkpt>
      <trkpt lat="41.881348639726639" lon="13.556793965399265">
        <ele>1389.719971</ele>
        <time>2017-06-16T12:23:08Z</time>
      </trkpt>
      <trkpt lat="41.881362134590745" lon="13.556814165785909">
        <ele>1389.719971</ele>
        <time>2017-06-16T12:23:09Z</time>
      </trkpt>
      <trkpt lat="41.88137068413198" lon="13.556826571002603">
        <ele>1389.719971</ele>
        <time>2017-06-16T12:23:10Z</time>
      </trkpt>
      <trkpt lat="41.881380574777722" lon="13.556840736418962">
        <ele>1388.76001</ele>
        <time>2017-06-16T12:23:11Z</time>
      </trkpt>
      <trkpt lat="41.881468165665865" lon="13.556924806907773">
        <ele>1387.799927</ele>
        <time>2017-06-16T12:23:17Z</time>
      </trkpt>
      <trkpt lat="41.881485097110271" lon="13.556944839656353">
        <ele>1386.839966</ele>
        <time>2017-06-16T12:23:18Z</time>
      </trkpt>
      <trkpt lat="41.881509236991405" lon="13.556980965659022">
        <ele>1387.3199460000001</ele>
        <time>2017-06-16T12:23:20Z</time>
      </trkpt>
      <trkpt lat="41.881524240598083" lon="13.556994460523129">
        <ele>1386.839966</ele>
        <time>2017-06-16T12:23:21Z</time>
      </trkpt>
      <trkpt lat="41.881540333852172" lon="13.557008625939488">
        <ele>1386.839966</ele>
        <time>2017-06-16T12:23:22Z</time>
      </trkpt>
      <trkpt lat="41.881561120972037" lon="13.557018265128136">
        <ele>1386.839966</ele>
        <time>2017-06-16T12:23:23Z</time>
      </trkpt>
      <trkpt lat="41.881575370207429" lon="13.557029413059354">
        <ele>1385.880005</ele>
        <time>2017-06-16T12:23:24Z</time>
      </trkpt>
      <trkpt lat="41.881587691605091" lon="13.557039219886065">
        <ele>1385.880005</ele>
        <time>2017-06-16T12:23:25Z</time>
      </trkpt>
      <trkpt lat="41.881596995517612" lon="13.557051625102758">
        <ele>1385.880005</ele>
        <time>2017-06-16T12:23:26Z</time>
      </trkpt>
      <trkpt lat="41.881604790687561" lon="13.557064868509769">
        <ele>1385.3999020000001</ele>
        <time>2017-06-16T12:23:27Z</time>
      </trkpt>
      <trkpt lat="41.881648376584053" lon="13.557119434699416">
        <ele>1384.919922</ele>
        <time>2017-06-16T12:23:34Z</time>
      </trkpt>
      <trkpt lat="41.881651980802417" lon="13.557136030867696">
        <ele>1384.4399410000001</ele>
        <time>2017-06-16T12:23:35Z</time>
      </trkpt>
      <trkpt lat="41.88166530802846" lon="13.557158159092069">
        <ele>1384.4399410000001</ele>
        <time>2017-06-16T12:23:37Z</time>
      </trkpt>
      <trkpt lat="41.881735296919942" lon="13.557212390005589">
        <ele>1382.51001</ele>
        <time>2017-06-16T12:23:43Z</time>
      </trkpt>
      <trkpt lat="41.881739487871528" lon="13.557246839627624">
        <ele>1382.030029</ele>
        <time>2017-06-16T12:23:45Z</time>
      </trkpt>
      <trkpt lat="41.881739739328623" lon="13.557265112176538">
        <ele>1381.5500489999999</ele>
        <time>2017-06-16T12:23:46Z</time>
      </trkpt>
      <trkpt lat="41.881730100139976" lon="13.55728967115283">
        <ele>1382.030029</ele>
        <time>2017-06-16T12:23:48Z</time>
      </trkpt>
      <trkpt lat="41.881715096533298" lon="13.557300316169858">
        <ele>1381.5500489999999</ele>
        <time>2017-06-16T12:23:49Z</time>
      </trkpt>
      <trkpt lat="41.881709564477205" lon="13.557326383888721">
        <ele>1381.5500489999999</ele>
        <time>2017-06-16T12:23:52Z</time>
      </trkpt>
      <trkpt lat="41.881712414324284" lon="13.557346668094397">
        <ele>1381.5500489999999</ele>
        <time>2017-06-16T12:23:53Z</time>
      </trkpt>
      <trkpt lat="41.881709564477205" lon="13.557370640337467">
        <ele>1381.0699460000001</ele>
        <time>2017-06-16T12:23:54Z</time>
      </trkpt>
      <trkpt lat="41.881708893924952" lon="13.557383213192225">
        <ele>1381.0699460000001</ele>
        <time>2017-06-16T12:23:55Z</time>
      </trkpt>
      <trkpt lat="41.881711492314935" lon="13.557400479912758">
        <ele>1380.589966</ele>
        <time>2017-06-16T12:23:56Z</time>
      </trkpt>
      <trkpt lat="41.881715767085552" lon="13.557415315881371">
        <ele>1380.589966</ele>
        <time>2017-06-16T12:23:57Z</time>
      </trkpt>
      <trkpt lat="41.881728926673532" lon="13.557458482682705">
        <ele>1379.630005</ele>
        <time>2017-06-16T12:24:00Z</time>
      </trkpt>
      <trkpt lat="41.881740158423781" lon="13.55747633613646">
        <ele>1379.630005</ele>
        <time>2017-06-16T12:24:01Z</time>
      </trkpt>
      <trkpt lat="41.881750384345651" lon="13.557488825172186">
        <ele>1379.150024</ele>
        <time>2017-06-16T12:24:02Z</time>
      </trkpt>
      <trkpt lat="41.881762286648154" lon="13.557504834607244">
        <ele>1379.150024</ele>
        <time>2017-06-16T12:24:03Z</time>
      </trkpt>
      <trkpt lat="41.881779637187719" lon="13.557520927861333">
        <ele>1378.669922</ele>
        <time>2017-06-16T12:24:04Z</time>
      </trkpt>
      <trkpt lat="41.881792964413762" lon="13.55753400363028">
        <ele>1378.669922</ele>
        <time>2017-06-16T12:24:05Z</time>
      </trkpt>
      <trkpt lat="41.881804196164012" lon="13.557548420503736">
        <ele>1378.1899410000001</ele>
        <time>2017-06-16T12:24:06Z</time>
      </trkpt>
      <trkpt lat="41.881809728220105" lon="13.557563005015254">
        <ele>1378.1899410000001</ele>
        <time>2017-06-16T12:24:07Z</time>
      </trkpt>
      <trkpt lat="41.881814589723945" lon="13.557576164603233">
        <ele>1378.1899410000001</ele>
        <time>2017-06-16T12:24:08Z</time>
      </trkpt>
      <trkpt lat="41.881819367408752" lon="13.557588737457991">
        <ele>1377.709961</ele>
        <time>2017-06-16T12:24:09Z</time>
      </trkpt>
      <trkpt lat="41.881853397935629" lon="13.557716310024261">
        <ele>1375.780029</ele>
        <time>2017-06-16T12:24:21Z</time>
      </trkpt>
      <trkpt lat="41.881855493411422" lon="13.557730140164495">
        <ele>1375.780029</ele>
        <time>2017-06-16T12:24:22Z</time>
      </trkpt>
      <trkpt lat="41.881857924163342" lon="13.557745479047298">
        <ele>1375.3000489999999</ele>
        <time>2017-06-16T12:24:23Z</time>
      </trkpt>
      <trkpt lat="41.881859432905912" lon="13.557808427140117">
        <ele>1374.820068</ele>
        <time>2017-06-16T12:24:27Z</time>
      </trkpt>
      <trkpt lat="41.881859516724944" lon="13.557825107127428">
        <ele>1374.820068</ele>
        <time>2017-06-16T12:24:28Z</time>
      </trkpt>
      <trkpt lat="41.881861360743642" lon="13.5578403621912">
        <ele>1374.820068</ele>
        <time>2017-06-16T12:24:29Z</time>
      </trkpt>
      <trkpt lat="41.881901677697897" lon="13.558021578937769">
        <ele>1372.420044</ele>
        <time>2017-06-16T12:24:43Z</time>
      </trkpt>
      <trkpt lat="41.881923386827111" lon="13.558107661083341">
        <ele>1371.940063</ele>
        <time>2017-06-16T12:24:48Z</time>
      </trkpt>
      <trkpt lat="41.881930595263839" lon="13.558125765994191">
        <ele>1371.459961</ele>
        <time>2017-06-16T12:24:49Z</time>
      </trkpt>
      <trkpt lat="41.881947861984372" lon="13.558183098211884">
        <ele>1371.459961</ele>
        <time>2017-06-16T12:24:52Z</time>
      </trkpt>
      <trkpt lat="41.881954902783036" lon="13.558201119303703">
        <ele>1370.9799800000001</ele>
        <time>2017-06-16T12:24:53Z</time>
      </trkpt>
      <trkpt lat="41.881962362676859" lon="13.558218469843268">
        <ele>1370.9799800000001</ele>
        <time>2017-06-16T12:24:54Z</time>
      </trkpt>
      <trkpt lat="41.881976276636124" lon="13.558244034647942">
        <ele>1370.9799800000001</ele>
        <time>2017-06-16T12:24:55Z</time>
      </trkpt>
      <trkpt lat="41.881984071806073" lon="13.558263899758458">
        <ele>1370.9799800000001</ele>
        <time>2017-06-16T12:24:56Z</time>
      </trkpt>
      <trkpt lat="41.881993291899562" lon="13.558282759040594">
        <ele>1370.9799800000001</ele>
        <time>2017-06-16T12:24:57Z</time>
      </trkpt>
      <trkpt lat="41.882004272192717" lon="13.558295834809542">
        <ele>1370.9799800000001</ele>
        <time>2017-06-16T12:24:58Z</time>
      </trkpt>
      <trkpt lat="41.882016761228442" lon="13.55830798856914">
        <ele>1370.9799800000001</ele>
        <time>2017-06-16T12:24:59Z</time>
      </trkpt>
      <trkpt lat="41.882031010463834" lon="13.558324165642262">
        <ele>1370.9799800000001</ele>
        <time>2017-06-16T12:25:00Z</time>
      </trkpt>
      <trkpt lat="41.882046097889543" lon="13.558339169248939">
        <ele>1370.9799800000001</ele>
        <time>2017-06-16T12:25:01Z</time>
      </trkpt>
      <trkpt lat="41.8820586707443" lon="13.558350903913379">
        <ele>1370.9799800000001</ele>
        <time>2017-06-16T12:25:02Z</time>
      </trkpt>
      <trkpt lat="41.882069399580359" lon="13.558357274159789">
        <ele>1370.9799800000001</ele>
        <time>2017-06-16T12:25:03Z</time>
      </trkpt>
      <trkpt lat="41.882251538336277" lon="13.55841301381588">
        <ele>1369.049927</ele>
        <time>2017-06-16T12:25:17Z</time>
      </trkpt>
      <trkpt lat="41.88243493437767" lon="13.558553075417876">
        <ele>1367.610107</ele>
        <time>2017-06-16T12:25:31Z</time>
      </trkpt>
      <trkpt lat="41.882608523592353" lon="13.558676289394498">
        <ele>1365.690063</ele>
        <time>2017-06-16T12:25:44Z</time>
      </trkpt>
      <trkpt lat="41.882672309875488" lon="13.558816099539399">
        <ele>1364.25</ele>
        <time>2017-06-16T12:25:57Z</time>
      </trkpt>
      <trkpt lat="41.882679015398026" lon="13.558833869174123">
        <ele>1364.25</ele>
        <time>2017-06-16T12:25:58Z</time>
      </trkpt>
      <trkpt lat="41.882729893550277" lon="13.558992370963097">
        <ele>1363.290039</ele>
        <time>2017-06-16T12:26:12Z</time>
      </trkpt>
      <trkpt lat="41.882788063958287" lon="13.559130504727364">
        <ele>1362.329956</ele>
        <time>2017-06-16T12:26:27Z</time>
      </trkpt>
      <trkpt lat="41.88292158767581" lon="13.559355894103646">
        <ele>1361.3599850000001</ele>
        <time>2017-06-16T12:26:40Z</time>
      </trkpt>
      <trkpt lat="41.882936507463455" lon="13.559367712587118">
        <ele>1361.3599850000001</ele>
        <time>2017-06-16T12:26:41Z</time>
      </trkpt>
      <trkpt lat="41.882945811375976" lon="13.559382129460573">
        <ele>1360.880005</ele>
        <time>2017-06-16T12:26:42Z</time>
      </trkpt>
      <trkpt lat="41.882961485534906" lon="13.559412136673927">
        <ele>1360.880005</ele>
        <time>2017-06-16T12:26:44Z</time>
      </trkpt>
      <trkpt lat="41.882971962913871" lon="13.559428229928017">
        <ele>1360.880005</ele>
        <time>2017-06-16T12:26:45Z</time>
      </trkpt>
      <trkpt lat="41.882981602102518" lon="13.55944599956274">
        <ele>1360.3999020000001</ele>
        <time>2017-06-16T12:26:46Z</time>
      </trkpt>
      <trkpt lat="41.882993504405022" lon="13.559460919350386">
        <ele>1360.3999020000001</ele>
        <time>2017-06-16T12:26:47Z</time>
      </trkpt>
      <trkpt lat="41.883007334545255" lon="13.559478605166078">
        <ele>1360.3999020000001</ele>
        <time>2017-06-16T12:26:48Z</time>
      </trkpt>
      <trkpt lat="41.883018482476473" lon="13.559494279325008">
        <ele>1359.919922</ele>
        <time>2017-06-16T12:26:49Z</time>
      </trkpt>
      <trkpt lat="41.883100625127554" lon="13.559679100289941">
        <ele>1358.9600829999999</ele>
        <time>2017-06-16T12:27:02Z</time>
      </trkpt>
      <trkpt lat="41.883160220459104" lon="13.559892419725657">
        <ele>1357.5200199999999</ele>
        <time>2017-06-16T12:27:18Z</time>
      </trkpt>
      <trkpt lat="41.883221911266446" lon="13.560111438855529">
        <ele>1356.080078</ele>
        <time>2017-06-16T12:27:31Z</time>
      </trkpt>
      <trkpt lat="41.883307658135891" lon="13.56021068058908">
        <ele>1355.119995</ele>
        <time>2017-06-16T12:27:41Z</time>
      </trkpt>
      <trkpt lat="41.883335821330547" lon="13.560264660045505">
        <ele>1355.119995</ele>
        <time>2017-06-16T12:27:45Z</time>
      </trkpt>
      <trkpt lat="41.883469009771943" lon="13.560509160161018">
        <ele>1355.119995</ele>
        <time>2017-06-16T12:28:00Z</time>
      </trkpt>
      <trkpt lat="41.883555594831705" lon="13.56066657230258">
        <ele>1355.119995</ele>
        <time>2017-06-16T12:28:12Z</time>
      </trkpt>
      <trkpt lat="41.883584093302488" lon="13.560747122392058">
        <ele>1354.630005</ele>
        <time>2017-06-16T12:28:21Z</time>
      </trkpt>
      <trkpt lat="41.883595073595643" lon="13.560874862596393">
        <ele>1352.2299800000001</ele>
        <time>2017-06-16T12:28:33Z</time>
      </trkpt>
      <trkpt lat="41.883610999211669" lon="13.560866229236126">
        <ele>1352.2299800000001</ele>
        <time>2017-06-16T12:28:49Z</time>
      </trkpt>
      <trkpt lat="41.883606305345893" lon="13.560860529541969">
        <ele>1352.2299800000001</ele>
        <time>2017-06-16T12:29:02Z</time>
      </trkpt>
      <trkpt lat="41.883601527661085" lon="13.560870420187712">
        <ele>1351.75</ele>
        <time>2017-06-16T12:29:21Z</time>
      </trkpt>
      <trkpt lat="41.883605131879449" lon="13.560950215905905">
        <ele>1350.7899170000001</ele>
        <time>2017-06-16T12:29:47Z</time>
      </trkpt>
      <trkpt lat="41.883620973676443" lon="13.561098910868168">
        <ele>1346.940063</ele>
        <time>2017-06-16T12:30:01Z</time>
      </trkpt>
      <trkpt lat="41.883550230413675" lon="13.561198320239782">
        <ele>1344.059937</ele>
        <time>2017-06-16T12:30:12Z</time>
      </trkpt>
      <trkpt lat="41.883535981178284" lon="13.561222041025758">
        <ele>1344.059937</ele>
        <time>2017-06-16T12:30:14Z</time>
      </trkpt>
      <trkpt lat="41.88349231146276" lon="13.561360258609056">
        <ele>1340.6999510000001</ele>
        <time>2017-06-16T12:30:22Z</time>
      </trkpt>
      <trkpt lat="41.883466327562928" lon="13.561419518664479">
        <ele>1339.7299800000001</ele>
        <time>2017-06-16T12:30:26Z</time>
      </trkpt>
      <trkpt lat="41.883454006165266" lon="13.561429660767317">
        <ele>1339.25</ele>
        <time>2017-06-16T12:30:27Z</time>
      </trkpt>
      <trkpt lat="41.883437158539891" lon="13.561440138146281">
        <ele>1338.7700199999999</ele>
        <time>2017-06-16T12:30:28Z</time>
      </trkpt>
      <trkpt lat="41.883421065285802" lon="13.561448603868484">
        <ele>1338.7700199999999</ele>
        <time>2017-06-16T12:30:29Z</time>
      </trkpt>
      <trkpt lat="41.88340287655592" lon="13.561454806476831">
        <ele>1338.7700199999999</ele>
        <time>2017-06-16T12:30:30Z</time>
      </trkpt>
      <trkpt lat="41.883389465510845" lon="13.561461009085178">
        <ele>1338.7700199999999</ele>
        <time>2017-06-16T12:30:31Z</time>
      </trkpt>
      <trkpt lat="41.883374880999327" lon="13.561471235007048">
        <ele>1338.290039</ele>
        <time>2017-06-16T12:30:32Z</time>
      </trkpt>
      <trkpt lat="41.883361805230379" lon="13.56148649007082">
        <ele>1338.290039</ele>
        <time>2017-06-16T12:30:33Z</time>
      </trkpt>
      <trkpt lat="41.88335401006043" lon="13.561499565839767">
        <ele>1337.8100589999999</ele>
        <time>2017-06-16T12:30:34Z</time>
      </trkpt>
      <trkpt lat="41.883343197405338" lon="13.561518341302872">
        <ele>1337.8100589999999</ele>
        <time>2017-06-16T12:30:35Z</time>
      </trkpt>
      <trkpt lat="41.883288882672787" lon="13.561687069013715">
        <ele>1334.4499510000001</ele>
        <time>2017-06-16T12:30:48Z</time>
      </trkpt>
      <trkpt lat="41.883271615952253" lon="13.561873314902186">
        <ele>1331.5600589999999</ele>
        <time>2017-06-16T12:31:02Z</time>
      </trkpt>
      <trkpt lat="41.883209925144911" lon="13.562156287953258">
        <ele>1330.119995</ele>
        <time>2017-06-16T12:31:18Z</time>
      </trkpt>
      <trkpt lat="41.883187126368284" lon="13.562280340120196">
        <ele>1329.160034</ele>
        <time>2017-06-16T12:31:30Z</time>
      </trkpt>
      <trkpt lat="41.883178912103176" lon="13.562316214665771">
        <ele>1328.6800539999999</ele>
        <time>2017-06-16T12:31:32Z</time>
      </trkpt>
      <trkpt lat="41.883174385875463" lon="13.562333062291145">
        <ele>1328.6800539999999</ele>
        <time>2017-06-16T12:31:33Z</time>
      </trkpt>
      <trkpt lat="41.883169859647751" lon="13.562353933230042">
        <ele>1328.6800539999999</ele>
        <time>2017-06-16T12:31:34Z</time>
      </trkpt>
      <trkpt lat="41.883163740858436" lon="13.562372289597988">
        <ele>1328.1999510000001</ele>
        <time>2017-06-16T12:31:35Z</time>
      </trkpt>
      <trkpt lat="41.883154017850757" lon="13.56238947249949">
        <ele>1328.1999510000001</ele>
        <time>2017-06-16T12:31:36Z</time>
      </trkpt>
      <trkpt lat="41.883148569613695" lon="13.562405230477452">
        <ele>1328.1999510000001</ele>
        <time>2017-06-16T12:31:37Z</time>
      </trkpt>
      <trkpt lat="41.883147396147251" lon="13.562420569360256">
        <ele>1328.1999510000001</ele>
        <time>2017-06-16T12:31:38Z</time>
      </trkpt>
      <trkpt lat="41.883142702281475" lon="13.562440937384963">
        <ele>1328.1999510000001</ele>
        <time>2017-06-16T12:31:39Z</time>
      </trkpt>
      <trkpt lat="41.883135661482811" lon="13.56245887465775">
        <ele>1327.719971</ele>
        <time>2017-06-16T12:31:40Z</time>
      </trkpt>
      <trkpt lat="41.883127866312861" lon="13.562475135549903">
        <ele>1327.719971</ele>
        <time>2017-06-16T12:31:41Z</time>
      </trkpt>
      <trkpt lat="41.882989900186658" lon="13.562699183821678">
        <ele>1326.280029</ele>
        <time>2017-06-16T12:31:55Z</time>
      </trkpt>
      <trkpt lat="41.882979338988662" lon="13.562715779989958">
        <ele>1325.799927</ele>
        <time>2017-06-16T12:31:57Z</time>
      </trkpt>
      <trkpt lat="41.882834918797016" lon="13.562830025330186">
        <ele>1324.3500979999999</ele>
        <time>2017-06-16T12:32:12Z</time>
      </trkpt>
      <trkpt lat="41.882747579365969" lon="13.56306329369545">
        <ele>1322.910034</ele>
        <time>2017-06-16T12:32:27Z</time>
      </trkpt>
      <trkpt lat="41.882647834718227" lon="13.563278876245022">
        <ele>1321.4700929999999</ele>
        <time>2017-06-16T12:32:41Z</time>
      </trkpt>
      <trkpt lat="41.88253166154027" lon="13.563398737460375">
        <ele>1319.5500489999999</ele>
        <time>2017-06-16T12:32:52Z</time>
      </trkpt>
      <trkpt lat="41.88252872787416" lon="13.563410975039005">
        <ele>1319.5500489999999</ele>
        <time>2017-06-16T12:32:53Z</time>
      </trkpt>
      <trkpt lat="41.882444070652127" lon="13.563519520685077">
        <ele>1317.619995</ele>
        <time>2017-06-16T12:33:04Z</time>
      </trkpt>
      <trkpt lat="41.88243443146348" lon="13.563530081883073">
        <ele>1317.619995</ele>
        <time>2017-06-16T12:33:05Z</time>
      </trkpt>
      <trkpt lat="41.882421020418406" lon="13.563545420765877">
        <ele>1317.619995</ele>
        <time>2017-06-16T12:33:06Z</time>
      </trkpt>
      <trkpt lat="41.882320940494537" lon="13.563781371340156">
        <ele>1315.6999510000001</ele>
        <time>2017-06-16T12:33:20Z</time>
      </trkpt>
      <trkpt lat="41.88225313089788" lon="13.564010532572865">
        <ele>1314.259888</ele>
        <time>2017-06-16T12:33:34Z</time>
      </trkpt>
      <trkpt lat="41.882216082885861" lon="13.5641382727772">
        <ele>1313.780029</ele>
        <time>2017-06-16T12:33:44Z</time>
      </trkpt>
      <trkpt lat="41.882133185863495" lon="13.564351005479693">
        <ele>1313.3000489999999</ele>
        <time>2017-06-16T12:33:59Z</time>
      </trkpt>
      <trkpt lat="41.88205573707819" lon="13.564483188092709">
        <ele>1312.820068</ele>
        <time>2017-06-16T12:34:13Z</time>
      </trkpt>
      <trkpt lat="41.882039560005069" lon="13.564523002132773">
        <ele>1312.820068</ele>
        <time>2017-06-16T12:34:16Z</time>
      </trkpt>
      <trkpt lat="41.882030759006739" lon="13.564532641321421">
        <ele>1312.820068</ele>
        <time>2017-06-16T12:34:17Z</time>
      </trkpt>
      <trkpt lat="41.882020616903901" lon="13.564543705433607">
        <ele>1312.820068</ele>
        <time>2017-06-16T12:34:18Z</time>
      </trkpt>
      <trkpt lat="41.882009971886873" lon="13.564553763717413">
        <ele>1312.820068</ele>
        <time>2017-06-16T12:34:19Z</time>
      </trkpt>
      <trkpt lat="41.881997482851148" lon="13.56456583365798">
        <ele>1312.820068</ele>
        <time>2017-06-16T12:34:20Z</time>
      </trkpt>
      <trkpt lat="41.881984658539295" lon="13.5645751375705">
        <ele>1312.3400879999999</ele>
        <time>2017-06-16T12:34:21Z</time>
      </trkpt>
      <trkpt lat="41.881975019350648" lon="13.564580585807562">
        <ele>1312.3400879999999</ele>
        <time>2017-06-16T12:34:22Z</time>
      </trkpt>
      <trkpt lat="41.881946437060833" lon="13.564620316028595">
        <ele>1312.3400879999999</ele>
        <time>2017-06-16T12:34:33Z</time>
      </trkpt>
      <trkpt lat="41.881931014358997" lon="13.56464353390038">
        <ele>1312.3400879999999</ele>
        <time>2017-06-16T12:34:35Z</time>
      </trkpt>
      <trkpt lat="41.881922380998731" lon="13.564650071784854">
        <ele>1312.3400879999999</ele>
        <time>2017-06-16T12:34:36Z</time>
      </trkpt>
      <trkpt lat="41.881912825629115" lon="13.564661974087358">
        <ele>1312.3400879999999</ele>
        <time>2017-06-16T12:34:37Z</time>
      </trkpt>
      <trkpt lat="41.881902264431119" lon="13.564672702923417">
        <ele>1311.380005</ele>
        <time>2017-06-16T12:34:38Z</time>
      </trkpt>
      <trkpt lat="41.881868401542306" lon="13.564702877774835">
        <ele>1311.380005</ele>
        <time>2017-06-16T12:34:41Z</time>
      </trkpt>
      <trkpt lat="41.881857505068183" lon="13.564712097868323">
        <ele>1311.380005</ele>
        <time>2017-06-16T12:34:42Z</time>
      </trkpt>
      <trkpt lat="41.88184660859406" lon="13.56472316198051">
        <ele>1311.380005</ele>
        <time>2017-06-16T12:34:43Z</time>
      </trkpt>
      <trkpt lat="41.881835795938969" lon="13.564731879159808">
        <ele>1311.380005</ele>
        <time>2017-06-16T12:34:44Z</time>
      </trkpt>
      <trkpt lat="41.881825737655163" lon="13.56474026106298">
        <ele>1311.380005</ele>
        <time>2017-06-16T12:34:45Z</time>
      </trkpt>
      <trkpt lat="41.881812661886215" lon="13.564743278548121">
        <ele>1311.380005</ele>
        <time>2017-06-16T12:34:46Z</time>
      </trkpt>
      <trkpt lat="41.881797658279538" lon="13.564744535833597">
        <ele>1311.380005</ele>
        <time>2017-06-16T12:34:47Z</time>
      </trkpt>
      <trkpt lat="41.881783660501242" lon="13.564748726785183">
        <ele>1311.380005</ele>
        <time>2017-06-16T12:34:48Z</time>
      </trkpt>
      <trkpt lat="41.881769159808755" lon="13.564751660451293">
        <ele>1311.380005</ele>
        <time>2017-06-16T12:34:49Z</time>
      </trkpt>
      <trkpt lat="41.881754575297236" lon="13.564753336831927">
        <ele>1311.380005</ele>
        <time>2017-06-16T12:34:50Z</time>
      </trkpt>
      <trkpt lat="41.881739487871528" lon="13.564756941050291">
        <ele>1311.380005</ele>
        <time>2017-06-16T12:34:51Z</time>
      </trkpt>
      <trkpt lat="41.881726160645485" lon="13.564757276326418">
        <ele>1311.380005</ele>
        <time>2017-06-16T12:34:52Z</time>
      </trkpt>
      <trkpt lat="41.881709480658174" lon="13.564754175022244">
        <ele>1311.380005</ele>
        <time>2017-06-16T12:34:53Z</time>
      </trkpt>
      <trkpt lat="41.881693638861179" lon="13.564751073718071">
        <ele>1310.900024</ele>
        <time>2017-06-16T12:34:54Z</time>
      </trkpt>
      <trkpt lat="41.881631696596742" lon="13.564734561368823">
        <ele>1310.410034</ele>
        <time>2017-06-16T12:34:59Z</time>
      </trkpt>
      <trkpt lat="41.881619626656175" lon="13.564741602167487">
        <ele>1310.410034</ele>
        <time>2017-06-16T12:35:00Z</time>
      </trkpt>
      <trkpt lat="41.881606131792068" lon="13.56474906206131">
        <ele>1309.929932</ele>
        <time>2017-06-16T12:35:01Z</time>
      </trkpt>
      <trkpt lat="41.881590709090233" lon="13.564756270498037">
        <ele>1309.929932</ele>
        <time>2017-06-16T12:35:02Z</time>
      </trkpt>
      <trkpt lat="41.881577800959349" lon="13.564762305468321">
        <ele>1309.929932</ele>
        <time>2017-06-16T12:35:03Z</time>
      </trkpt>
      <trkpt lat="41.881564389914274" lon="13.564773201942444">
        <ele>1309.929932</ele>
        <time>2017-06-16T12:35:04Z</time>
      </trkpt>
      <trkpt lat="41.881373533979058" lon="13.564874287694693">
        <ele>1308.48999</ele>
        <time>2017-06-16T12:35:19Z</time>
      </trkpt>
      <trkpt lat="41.881237914785743" lon="13.56500948779285">
        <ele>1309.929932</ele>
        <time>2017-06-16T12:35:34Z</time>
      </trkpt>
      <trkpt lat="41.881165159866214" lon="13.565065562725067">
        <ele>1307.5299070000001</ele>
        <time>2017-06-16T12:35:42Z</time>
      </trkpt>
      <trkpt lat="41.881152838468552" lon="13.565077213570476">
        <ele>1307.5299070000001</ele>
        <time>2017-06-16T12:35:43Z</time>
      </trkpt>
      <trkpt lat="41.881139930337667" lon="13.565085595473647">
        <ele>1307.5299070000001</ele>
        <time>2017-06-16T12:35:44Z</time>
      </trkpt>
      <trkpt lat="41.881126519292593" lon="13.565090205520391">
        <ele>1307.5299070000001</ele>
        <time>2017-06-16T12:35:45Z</time>
      </trkpt>
      <trkpt lat="41.881111431866884" lon="13.565094564110041">
        <ele>1307.5299070000001</ele>
        <time>2017-06-16T12:35:46Z</time>
      </trkpt>
      <trkpt lat="41.881072791293263" lon="13.565115183591843">
        <ele>1307.5299070000001</ele>
        <time>2017-06-16T12:35:49Z</time>
      </trkpt>
      <trkpt lat="41.881059464067221" lon="13.565120128914714">
        <ele>1307.5299070000001</ele>
        <time>2017-06-16T12:35:50Z</time>
      </trkpt>
      <trkpt lat="41.881044628098607" lon="13.565126918256283">
        <ele>1307.5299070000001</ele>
        <time>2017-06-16T12:35:51Z</time>
      </trkpt>
      <trkpt lat="41.881033815443516" lon="13.565135803073645">
        <ele>1307.5299070000001</ele>
        <time>2017-06-16T12:35:52Z</time>
      </trkpt>
      <trkpt lat="41.881022835150361" lon="13.565145693719387">
        <ele>1307.5299070000001</ele>
        <time>2017-06-16T12:35:53Z</time>
      </trkpt>
      <trkpt lat="41.881012776866555" lon="13.565153740346432">
        <ele>1307.5299070000001</ele>
        <time>2017-06-16T12:35:54Z</time>
      </trkpt>
      <trkpt lat="41.881003389135003" lon="13.565161870792508">
        <ele>1307.049927</ele>
        <time>2017-06-16T12:35:55Z</time>
      </trkpt>
      <trkpt lat="41.880901381373405" lon="13.565318528562784">
        <ele>1305.610107</ele>
        <time>2017-06-16T12:36:09Z</time>
      </trkpt>
      <trkpt lat="41.880897441878915" lon="13.56536571867764">
        <ele>1305.1298830000001</ele>
        <time>2017-06-16T12:36:12Z</time>
      </trkpt>
      <trkpt lat="41.880881264805794" lon="13.565467139706016">
        <ele>1304.650024</ele>
        <time>2017-06-16T12:36:18Z</time>
      </trkpt>
      <trkpt lat="41.880876319482923" lon="13.5654834844172">
        <ele>1304.650024</ele>
        <time>2017-06-16T12:36:19Z</time>
      </trkpt>
      <trkpt lat="41.880737263709307" lon="13.565668221563101">
        <ele>1302.719971</ele>
        <time>2017-06-16T12:36:33Z</time>
      </trkpt>
      <trkpt lat="41.880658641457558" lon="13.565709879621863">
        <ele>1301.280029</ele>
        <time>2017-06-16T12:36:46Z</time>
      </trkpt>
      <trkpt lat="41.880648666992784" lon="13.565702671185136">
        <ele>1301.280029</ele>
        <time>2017-06-16T12:37:00Z</time>
      </trkpt>
      <trkpt lat="41.880528973415494" lon="13.565696720033884">
        <ele>1298.3999020000001</ele>
        <time>2017-06-16T12:37:17Z</time>
      </trkpt>
      <trkpt lat="41.880399892106652" lon="13.565666880458593">
        <ele>1295.51001</ele>
        <time>2017-06-16T12:37:30Z</time>
      </trkpt>
      <trkpt lat="41.880287490785122" lon="13.565623126924038">
        <ele>1292.630005</ele>
        <time>2017-06-16T12:37:41Z</time>
      </trkpt>
      <trkpt lat="41.88016620464623" lon="13.565595634281635">
        <ele>1289.2700199999999</ele>
        <time>2017-06-16T12:37:52Z</time>
      </trkpt>
      <trkpt lat="41.880024299025536" lon="13.565521286800504">
        <ele>1288.780029</ele>
        <time>2017-06-16T12:38:06Z</time>
      </trkpt>
      <trkpt lat="41.880013486370444" lon="13.565524723380804">
        <ele>1288.3000489999999</ele>
        <time>2017-06-16T12:38:07Z</time>
      </trkpt>
      <trkpt lat="41.88000108115375" lon="13.565526735037565">
        <ele>1288.3000489999999</ele>
        <time>2017-06-16T12:38:08Z</time>
      </trkpt>
      <trkpt lat="41.879895385354757" lon="13.565549617633224">
        <ele>1285.420044</ele>
        <time>2017-06-16T12:38:22Z</time>
      </trkpt>
      <trkpt lat="41.879809303209186" lon="13.565519275143743">
        <ele>1285.420044</ele>
        <time>2017-06-16T12:38:36Z</time>
      </trkpt>
      <trkpt lat="41.87976747751236" lon="13.565492872148752">
        <ele>1285.420044</ele>
        <time>2017-06-16T12:38:40Z</time>
      </trkpt>
      <trkpt lat="41.879756581038237" lon="13.565491531044245">
        <ele>1284.459961</ele>
        <time>2017-06-16T12:38:41Z</time>
      </trkpt>
      <trkpt lat="41.879741661250591" lon="13.565492872148752">
        <ele>1284.459961</ele>
        <time>2017-06-16T12:38:42Z</time>
      </trkpt>
      <trkpt lat="41.879727663472295" lon="13.565494967624545">
        <ele>1283.9799800000001</ele>
        <time>2017-06-16T12:38:43Z</time>
      </trkpt>
      <trkpt lat="41.879713665693998" lon="13.565498571842909">
        <ele>1283.9799800000001</ele>
        <time>2017-06-16T12:38:44Z</time>
      </trkpt>
      <trkpt lat="41.879584165289998" lon="13.565496308729053">
        <ele>1283.5</ele>
        <time>2017-06-16T12:38:54Z</time>
      </trkpt>
      <trkpt lat="41.879571676254272" lon="13.565501421689987">
        <ele>1283.5</ele>
        <time>2017-06-16T12:38:55Z</time>
      </trkpt>
      <trkpt lat="41.879399763420224" lon="13.565660426393151">
        <ele>1283.5</ele>
        <time>2017-06-16T12:39:11Z</time>
      </trkpt>
      <trkpt lat="41.879391632974148" lon="13.565674340352416">
        <ele>1283.5</ele>
        <time>2017-06-16T12:39:12Z</time>
      </trkpt>
      <trkpt lat="41.87938341870904" lon="13.565685572102666">
        <ele>1283.5</ele>
        <time>2017-06-16T12:39:13Z</time>
      </trkpt>
      <trkpt lat="41.879330864176154" lon="13.565949685871601">
        <ele>1282.059937</ele>
        <time>2017-06-16T12:39:31Z</time>
      </trkpt>
      <trkpt lat="41.879343604668975" lon="13.566084885969758">
        <ele>1280.1298830000001</ele>
        <time>2017-06-16T12:39:40Z</time>
      </trkpt>
      <trkpt lat="41.879343939945102" lon="13.566133165732026">
        <ele>1280.1298830000001</ele>
        <time>2017-06-16T12:39:43Z</time>
      </trkpt>
      <trkpt lat="41.879343520849943" lon="13.566155293956399">
        <ele>1280.1298830000001</ele>
        <time>2017-06-16T12:39:44Z</time>
      </trkpt>
      <trkpt lat="41.879368079826236" lon="13.566420329734683">
        <ele>1277.7299800000001</ele>
        <time>2017-06-16T12:39:56Z</time>
      </trkpt>
      <trkpt lat="41.879365229979157" lon="13.56643290258944">
        <ele>1277.7299800000001</ele>
        <time>2017-06-16T12:39:57Z</time>
      </trkpt>
      <trkpt lat="41.87936388887465" lon="13.566447570919991">
        <ele>1277.7299800000001</ele>
        <time>2017-06-16T12:39:58Z</time>
      </trkpt>
      <trkpt lat="41.879365229979157" lon="13.56646416708827">
        <ele>1277.7299800000001</ele>
        <time>2017-06-16T12:39:59Z</time>
      </trkpt>
      <trkpt lat="41.879363972693682" lon="13.566669691354036">
        <ele>1276.7700199999999</ele>
        <time>2017-06-16T12:40:11Z</time>
      </trkpt>
      <trkpt lat="41.879352405667305" lon="13.566720737144351">
        <ele>1276.7700199999999</ele>
        <time>2017-06-16T12:40:14Z</time>
      </trkpt>
      <trkpt lat="41.879347376525402" lon="13.566738925874233">
        <ele>1276.7700199999999</ele>
        <time>2017-06-16T12:40:15Z</time>
      </trkpt>
      <trkpt lat="41.879342263564467" lon="13.566754600033164">
        <ele>1276.7700199999999</ele>
        <time>2017-06-16T12:40:16Z</time>
      </trkpt>
      <trkpt lat="41.879242267459631" lon="13.56700018979609">
        <ele>1275.329956</ele>
        <time>2017-06-16T12:40:31Z</time>
      </trkpt>
      <trkpt lat="41.879233382642269" lon="13.567027011886239">
        <ele>1274.849976</ele>
        <time>2017-06-16T12:40:33Z</time>
      </trkpt>
      <trkpt lat="41.879195496439934" lon="13.567208396270871">
        <ele>1271.959961</ele>
        <time>2017-06-16T12:40:47Z</time>
      </trkpt>
      <trkpt lat="41.879073288291693" lon="13.567274026572704">
        <ele>1268.119995</ele>
        <time>2017-06-16T12:41:01Z</time>
      </trkpt>
      <trkpt lat="41.879011932760477" lon="13.567299088463187">
        <ele>1267.160034</ele>
        <time>2017-06-16T12:41:06Z</time>
      </trkpt>
      <trkpt lat="41.878993241116405" lon="13.56730118393898">
        <ele>1267.160034</ele>
        <time>2017-06-16T12:41:07Z</time>
      </trkpt>
      <trkpt lat="41.878971364349127" lon="13.567302105948329">
        <ele>1267.160034</ele>
        <time>2017-06-16T12:41:08Z</time>
      </trkpt>
      <trkpt lat="41.878791740164161" lon="13.567331023514271">
        <ele>1264.75</ele>
        <time>2017-06-16T12:41:21Z</time>
      </trkpt>
      <trkpt lat="41.878751004114747" lon="13.56733781285584">
        <ele>1264.2700199999999</ele>
        <time>2017-06-16T12:41:25Z</time>
      </trkpt>
      <trkpt lat="41.87873893417418" lon="13.567340662702918">
        <ele>1263.309937</ele>
        <time>2017-06-16T12:41:26Z</time>
      </trkpt>
      <trkpt lat="41.878726277500391" lon="13.567344434559345">
        <ele>1263.309937</ele>
        <time>2017-06-16T12:41:27Z</time>
      </trkpt>
      <trkpt lat="41.878589736297727" lon="13.567473934963346">
        <ele>1261.8701169999999</ele>
        <time>2017-06-16T12:41:41Z</time>
      </trkpt>
      <trkpt lat="41.878404831513762" lon="13.567624976858497">
        <ele>1260.4300539999999</ele>
        <time>2017-06-16T12:41:58Z</time>
      </trkpt>
      <trkpt lat="41.878394521772861" lon="13.567637382075191">
        <ele>1260.4300539999999</ele>
        <time>2017-06-16T12:41:59Z</time>
      </trkpt>
      <trkpt lat="41.878385385498405" lon="13.567647775635123">
        <ele>1259.940063</ele>
        <time>2017-06-16T12:42:00Z</time>
      </trkpt>
      <trkpt lat="41.878273067995906" lon="13.567837961018085">
        <ele>1257.540039</ele>
        <time>2017-06-16T12:42:15Z</time>
      </trkpt>
      <trkpt lat="41.878183465451002" lon="13.567921109497547">
        <ele>1255.619995</ele>
        <time>2017-06-16T12:42:24Z</time>
      </trkpt>
      <trkpt lat="41.878170808777213" lon="13.567924965173006">
        <ele>1255.1400149999999</ele>
        <time>2017-06-16T12:42:25Z</time>
      </trkpt>
      <trkpt lat="41.878155469894409" lon="13.567929407581687">
        <ele>1255.1400149999999</ele>
        <time>2017-06-16T12:42:26Z</time>
      </trkpt>
      <trkpt lat="41.878141304478049" lon="13.567939214408398">
        <ele>1255.1400149999999</ele>
        <time>2017-06-16T12:42:27Z</time>
      </trkpt>
      <trkpt lat="41.878128815442324" lon="13.567948015406728">
        <ele>1254.6599120000001</ele>
        <time>2017-06-16T12:42:28Z</time>
      </trkpt>
      <trkpt lat="41.87811590731144" lon="13.567951871082187">
        <ele>1254.6599120000001</ele>
        <time>2017-06-16T12:42:29Z</time>
      </trkpt>
      <trkpt lat="41.878102328628302" lon="13.567955140024424">
        <ele>1254.6599120000001</ele>
        <time>2017-06-16T12:42:30Z</time>
      </trkpt>
      <trkpt lat="41.878059329465032" lon="13.567997384816408">
        <ele>1253.6999510000001</ele>
        <time>2017-06-16T12:42:44Z</time>
      </trkpt>
      <trkpt lat="41.877980120480061" lon="13.568074163049459">
        <ele>1252.25</ele>
        <time>2017-06-16T12:43:04Z</time>
      </trkpt>
      <trkpt lat="41.877770321443677" lon="13.568173740059137">
        <ele>1249.849976</ele>
        <time>2017-06-16T12:43:19Z</time>
      </trkpt>
      <trkpt lat="41.877658423036337" lon="13.568271892145276">
        <ele>1247.9300539999999</ele>
        <time>2017-06-16T12:43:32Z</time>
      </trkpt>
      <trkpt lat="41.877566808834672" lon="13.568336181342602">
        <ele>1246.01001</ele>
        <time>2017-06-16T12:43:45Z</time>
      </trkpt>
      <trkpt lat="41.877503022551537" lon="13.568394519388676">
        <ele>1244.5600589999999</ele>
        <time>2017-06-16T12:43:52Z</time>
      </trkpt>
      <trkpt lat="41.87742792069912" lon="13.568469034507871">
        <ele>1241.679932</ele>
        <time>2017-06-16T12:44:03Z</time>
      </trkpt>
      <trkpt lat="41.87731359153986" lon="13.568575736135244">
        <ele>1238.320068</ele>
        <time>2017-06-16T12:44:14Z</time>
      </trkpt>
      <trkpt lat="41.877288110554218" lon="13.568607838824391">
        <ele>1237.349976</ele>
        <time>2017-06-16T12:44:17Z</time>
      </trkpt>
      <trkpt lat="41.87727746553719" lon="13.568613706156611">
        <ele>1237.349976</ele>
        <time>2017-06-16T12:44:18Z</time>
      </trkpt>
      <trkpt lat="41.877268329262733" lon="13.568623261526227">
        <ele>1236.869995</ele>
        <time>2017-06-16T12:44:19Z</time>
      </trkpt>
      <trkpt lat="41.877250140532851" lon="13.568668439984322">
        <ele>1235.910034</ele>
        <time>2017-06-16T12:44:22Z</time>
      </trkpt>
      <trkpt lat="41.877216696739197" lon="13.56873432174325">
        <ele>1234.950073</ele>
        <time>2017-06-16T12:44:27Z</time>
      </trkpt>
      <trkpt lat="41.877206470817327" lon="13.568749409168959">
        <ele>1234.469971</ele>
        <time>2017-06-16T12:44:28Z</time>
      </trkpt>
      <trkpt lat="41.87719875946641" lon="13.568765837699175">
        <ele>1234.469971</ele>
        <time>2017-06-16T12:44:29Z</time>
      </trkpt>
      <trkpt lat="41.877191886305809" lon="13.56877782382071">
        <ele>1233.51001</ele>
        <time>2017-06-16T12:44:30Z</time>
      </trkpt>
      <trkpt lat="41.877185180783272" lon="13.568792240694165">
        <ele>1233.51001</ele>
        <time>2017-06-16T12:44:31Z</time>
      </trkpt>
      <trkpt lat="41.877157688140869" lon="13.568846639245749">
        <ele>1232.5500489999999</ele>
        <time>2017-06-16T12:44:35Z</time>
      </trkpt>
      <trkpt lat="41.877154083922505" lon="13.568864827975631">
        <ele>1232.0699460000001</ele>
        <time>2017-06-16T12:44:36Z</time>
      </trkpt>
      <trkpt lat="41.877146540209651" lon="13.568879328668118">
        <ele>1232.0699460000001</ele>
        <time>2017-06-16T12:44:37Z</time>
      </trkpt>
      <trkpt lat="41.877008238807321" lon="13.569056019186974">
        <ele>1230.619995</ele>
        <time>2017-06-16T12:44:52Z</time>
      </trkpt>
      <trkpt lat="41.876848563551903" lon="13.569228015840054">
        <ele>1229.660034</ele>
        <time>2017-06-16T12:45:08Z</time>
      </trkpt>
      <trkpt lat="41.876839511096478" lon="13.569236313924193">
        <ele>1229.660034</ele>
        <time>2017-06-16T12:45:09Z</time>
      </trkpt>
      <trkpt lat="41.876797433942556" lon="13.569299932569265">
        <ele>1229.179932</ele>
        <time>2017-06-16T12:45:14Z</time>
      </trkpt>
      <trkpt lat="41.876790728420019" lon="13.569313008338213">
        <ele>1228.6999510000001</ele>
        <time>2017-06-16T12:45:15Z</time>
      </trkpt>
      <trkpt lat="41.876783017069101" lon="13.569326084107161">
        <ele>1228.6999510000001</ele>
        <time>2017-06-16T12:45:16Z</time>
      </trkpt>
      <trkpt lat="41.876707328483462" lon="13.569444939494133">
        <ele>1227.26001</ele>
        <time>2017-06-16T12:45:26Z</time>
      </trkpt>
      <trkpt lat="41.876702634617686" lon="13.56946480460465">
        <ele>1226.7799070000001</ele>
        <time>2017-06-16T12:45:27Z</time>
      </trkpt>
      <trkpt lat="41.876694839447737" lon="13.569482071325183">
        <ele>1226.7799070000001</ele>
        <time>2017-06-16T12:45:28Z</time>
      </trkpt>
      <trkpt lat="41.876687966287136" lon="13.569555161520839">
        <ele>1225.339966</ele>
        <time>2017-06-16T12:45:42Z</time>
      </trkpt>
      <trkpt lat="41.876701209694147" lon="13.569561615586281">
        <ele>1225.339966</ele>
        <time>2017-06-16T12:45:44Z</time>
      </trkpt>
      <trkpt lat="41.876799110323191" lon="13.569510234519839">
        <ele>1222.450073</ele>
        <time>2017-06-16T12:45:57Z</time>
      </trkpt>
      <trkpt lat="41.876808581873775" lon="13.569503109902143">
        <ele>1221.969971</ele>
        <time>2017-06-16T12:45:58Z</time>
      </trkpt>
      <trkpt lat="41.87681813724339" lon="13.569497996941209">
        <ele>1221.969971</ele>
        <time>2017-06-16T12:45:59Z</time>
      </trkpt>
      <trkpt lat="41.876859460026026" lon="13.569468492642045">
        <ele>1221.01001</ele>
        <time>2017-06-16T12:46:03Z</time>
      </trkpt>
      <trkpt lat="41.876870524138212" lon="13.569462038576603">
        <ele>1221.01001</ele>
        <time>2017-06-16T12:46:04Z</time>
      </trkpt>
      <trkpt lat="41.876879325136542" lon="13.5694570094347">
        <ele>1220.530029</ele>
        <time>2017-06-16T12:46:05Z</time>
      </trkpt>
      <trkpt lat="41.876891814172268" lon="13.56944921426475">
        <ele>1220.530029</ele>
        <time>2017-06-16T12:46:06Z</time>
      </trkpt>
      <trkpt lat="41.876903381198645" lon="13.569436892867088">
        <ele>1220.530029</ele>
        <time>2017-06-16T12:46:07Z</time>
      </trkpt>
      <trkpt lat="41.876913858577609" lon="13.569424990564585">
        <ele>1219.5699460000001</ele>
        <time>2017-06-16T12:46:08Z</time>
      </trkpt>
      <trkpt lat="41.876958534121513" lon="13.56938467361033">
        <ele>1219.089966</ele>
        <time>2017-06-16T12:46:12Z</time>
      </trkpt>
      <trkpt lat="41.876974878832698" lon="13.569376710802317">
        <ele>1218.6099850000001</ele>
        <time>2017-06-16T12:46:13Z</time>
      </trkpt>
      <trkpt lat="41.877158861607313" lon="13.569357935339212">
        <ele>1216.690063</ele>
        <time>2017-06-16T12:46:27Z</time>
      </trkpt>
      <trkpt lat="41.877339910715818" lon="13.569398671388626">
        <ele>1213.8000489999999</ele>
        <time>2017-06-16T12:46:44Z</time>
      </trkpt>
      <trkpt lat="41.877537723630667" lon="13.569396659731865">
        <ele>1211.880005</ele>
        <time>2017-06-16T12:46:58Z</time>
      </trkpt>
      <trkpt lat="41.877651801332831" lon="13.569508558139205">
        <ele>1208.51001</ele>
        <time>2017-06-16T12:47:12Z</time>
      </trkpt>
      <trkpt lat="41.877839639782906" lon="13.569688517600298">
        <ele>1206.589966</ele>
        <time>2017-06-16T12:47:29Z</time>
      </trkpt>
      <trkpt lat="41.878019263967872" lon="13.569886079058051">
        <ele>1204.190063</ele>
        <time>2017-06-16T12:47:43Z</time>
      </trkpt>
      <trkpt lat="41.878168964758515" lon="13.569942489266396">
        <ele>1201.790039</ele>
        <time>2017-06-16T12:47:58Z</time>
      </trkpt>
      <trkpt lat="41.878332998603582" lon="13.570026308298111">
        <ele>1198.420044</ele>
        <time>2017-06-16T12:48:11Z</time>
      </trkpt>
      <trkpt lat="41.878491165116429" lon="13.570068636909127">
        <ele>1195.5399170000001</ele>
        <time>2017-06-16T12:48:28Z</time>
      </trkpt>
      <trkpt lat="41.878505162894726" lon="13.570069139823318">
        <ele>1195.5399170000001</ele>
        <time>2017-06-16T12:48:29Z</time>
      </trkpt>
      <trkpt lat="41.878520585596561" lon="13.570068720728159">
        <ele>1195.0600589999999</ele>
        <time>2017-06-16T12:48:30Z</time>
      </trkpt>
      <trkpt lat="41.87853860668838" lon="13.570068636909127">
        <ele>1194.089966</ele>
        <time>2017-06-16T12:48:31Z</time>
      </trkpt>
      <trkpt lat="41.878698617219925" lon="13.570091938599944">
        <ele>1193.130005</ele>
        <time>2017-06-16T12:48:44Z</time>
      </trkpt>
      <trkpt lat="41.878895424306393" lon="13.570055393502116">
        <ele>1191.690063</ele>
        <time>2017-06-16T12:49:01Z</time>
      </trkpt>
      <trkpt lat="41.879034731537104" lon="13.570006275549531">
        <ele>1188.329956</ele>
        <time>2017-06-16T12:49:12Z</time>
      </trkpt>
      <trkpt lat="41.879249392077327" lon="13.569917678833008">
        <ele>1187.369995</ele>
        <time>2017-06-16T12:49:28Z</time>
      </trkpt>
      <trkpt lat="41.879398338496685" lon="13.569818688556552">
        <ele>1188.329956</ele>
        <time>2017-06-16T12:49:44Z</time>
      </trkpt>
      <trkpt lat="41.879407558590174" lon="13.56981223449111">
        <ele>1188.329956</ele>
        <time>2017-06-16T12:49:45Z</time>
      </trkpt>
      <trkpt lat="41.879432201385498" lon="13.569802008569241">
        <ele>1188.329956</ele>
        <time>2017-06-16T12:49:47Z</time>
      </trkpt>
      <trkpt lat="41.879446534439921" lon="13.569801421836019">
        <ele>1188.329956</ele>
        <time>2017-06-16T12:49:48Z</time>
      </trkpt>
      <trkpt lat="41.879517193883657" lon="13.569820784032345">
        <ele>1186.880005</ele>
        <time>2017-06-16T12:49:53Z</time>
      </trkpt>
      <trkpt lat="41.879525491967797" lon="13.56983813457191">
        <ele>1186.880005</ele>
        <time>2017-06-16T12:49:54Z</time>
      </trkpt>
      <trkpt lat="41.87953102402389" lon="13.569856658577919">
        <ele>1186.880005</ele>
        <time>2017-06-16T12:49:55Z</time>
      </trkpt>
      <trkpt lat="41.879530437290668" lon="13.56987820006907">
        <ele>1186.880005</ele>
        <time>2017-06-16T12:49:56Z</time>
      </trkpt>
      <trkpt lat="41.879527838900685" lon="13.56989479623735">
        <ele>1186.400024</ele>
        <time>2017-06-16T12:49:57Z</time>
      </trkpt>
      <trkpt lat="41.879525408148766" lon="13.569914996623993">
        <ele>1186.400024</ele>
        <time>2017-06-16T12:49:58Z</time>
      </trkpt>
      <trkpt lat="41.879454916343093" lon="13.570040976628661">
        <ele>1184.4799800000001</ele>
        <time>2017-06-16T12:50:10Z</time>
      </trkpt>
      <trkpt lat="41.879445528611541" lon="13.570052711293101">
        <ele>1184.4799800000001</ele>
        <time>2017-06-16T12:50:11Z</time>
      </trkpt>
      <trkpt lat="41.879435135051608" lon="13.570060338824987">
        <ele>1184</ele>
        <time>2017-06-16T12:50:12Z</time>
      </trkpt>
      <trkpt lat="41.879291888326406" lon="13.570157485082746">
        <ele>1182.080078</ele>
        <time>2017-06-16T12:50:26Z</time>
      </trkpt>
      <trkpt lat="41.879255762323737" lon="13.57019872404635">
        <ele>1181.119995</ele>
        <time>2017-06-16T12:50:30Z</time>
      </trkpt>
      <trkpt lat="41.879141768440604" lon="13.570381533354521">
        <ele>1179.190063</ele>
        <time>2017-06-16T12:50:44Z</time>
      </trkpt>
      <trkpt lat="41.879021907225251" lon="13.570545315742493">
        <ele>1176.790039</ele>
        <time>2017-06-16T12:51:00Z</time>
      </trkpt>
      <trkpt lat="41.878977231681347" lon="13.57063801959157">
        <ele>1174.869995</ele>
        <time>2017-06-16T12:51:08Z</time>
      </trkpt>
      <trkpt lat="41.878908164799213" lon="13.570810435339808">
        <ele>1171.5</ele>
        <time>2017-06-16T12:51:22Z</time>
      </trkpt>
      <trkpt lat="41.878912020474672" lon="13.570845890790224">
        <ele>1171.5</ele>
        <time>2017-06-16T12:51:24Z</time>
      </trkpt>
      <trkpt lat="41.87890850007534" lon="13.570862906053662">
        <ele>1171.0200199999999</ele>
        <time>2017-06-16T12:51:25Z</time>
      </trkpt>
      <trkpt lat="41.878878995776176" lon="13.570967260748148">
        <ele>1169.099976</ele>
        <time>2017-06-16T12:51:32Z</time>
      </trkpt>
      <trkpt lat="41.878866171464324" lon="13.570988718420267">
        <ele>1169.099976</ele>
        <time>2017-06-16T12:51:34Z</time>
      </trkpt>
      <trkpt lat="41.878479514271021" lon="13.571602860465646">
        <ele>1130.650024</ele>
        <time>2017-06-16T12:53:01Z</time>
      </trkpt>
      <trkpt lat="41.878479178994894" lon="13.571603614836931">
        <ele>1130.650024</ele>
        <time>2017-06-16T12:53:02Z</time>
      </trkpt>
      <trkpt lat="41.878535589203238" lon="13.571556089445949">
        <ele>1133.530029</ele>
        <time>2017-06-16T12:53:29Z</time>
      </trkpt>
      <trkpt lat="41.878513293340802" lon="13.571559526026249">
        <ele>1135.450073</ele>
        <time>2017-06-16T12:53:31Z</time>
      </trkpt>
      <trkpt lat="41.878508599475026" lon="13.571559777483344">
        <ele>1137.380005</ele>
        <time>2017-06-16T12:53:34Z</time>
      </trkpt>
      <trkpt lat="41.878510778769851" lon="13.571556592360139">
        <ele>1140.73999</ele>
        <time>2017-06-16T12:53:41Z</time>
      </trkpt>
      <trkpt lat="41.878532404080033" lon="13.571560028940439">
        <ele>1143.630005</ele>
        <time>2017-06-16T12:53:51Z</time>
      </trkpt>
      <trkpt lat="41.878523267805576" lon="13.571599759161472">
        <ele>1143.1400149999999</ele>
        <time>2017-06-16T12:53:54Z</time>
      </trkpt>
      <trkpt lat="41.878460235893726" lon="13.571745939552784">
        <ele>1139.780029</ele>
        <time>2017-06-16T12:54:07Z</time>
      </trkpt>
      <trkpt lat="41.878458810970187" lon="13.571773683652282">
        <ele>1139.299927</ele>
        <time>2017-06-16T12:54:09Z</time>
      </trkpt>
      <trkpt lat="41.878443220630288" lon="13.571852808818221">
        <ele>1138.339966</ele>
        <time>2017-06-16T12:54:16Z</time>
      </trkpt>
      <trkpt lat="41.878281701356173" lon="13.571962863206863">
        <ele>1134.969971</ele>
        <time>2017-06-16T12:54:35Z</time>
      </trkpt>
      <trkpt lat="41.878103418275714" lon="13.571966718882322">
        <ele>1132.5699460000001</ele>
        <time>2017-06-16T12:54:50Z</time>
      </trkpt>
      <trkpt lat="41.878017336130142" lon="13.572133183479309">
        <ele>1132.089966</ele>
        <time>2017-06-16T12:55:03Z</time>
      </trkpt>
      <trkpt lat="41.878041978925467" lon="13.572412636131048">
        <ele>1131.130005</ele>
        <time>2017-06-16T12:55:18Z</time>
      </trkpt>
      <trkpt lat="41.878061592578888" lon="13.572585135698318">
        <ele>1130.169922</ele>
        <time>2017-06-16T12:55:29Z</time>
      </trkpt>
      <trkpt lat="41.877919938415289" lon="13.572759479284286">
        <ele>1127.280029</ele>
        <time>2017-06-16T12:55:45Z</time>
      </trkpt>
      <trkpt lat="41.877792365849018" lon="13.572776662185788">
        <ele>1124.880005</ele>
        <time>2017-06-16T12:55:56Z</time>
      </trkpt>
      <trkpt lat="41.877779038622975" lon="13.572783032432199">
        <ele>1124.880005</ele>
        <time>2017-06-16T12:55:57Z</time>
      </trkpt>
      <trkpt lat="41.877671834081411" lon="13.57301470823586">
        <ele>1122</ele>
        <time>2017-06-16T12:56:15Z</time>
      </trkpt>
      <trkpt lat="41.877543004229665" lon="13.57315837405622">
        <ele>1120.0699460000001</ele>
        <time>2017-06-16T12:56:28Z</time>
      </trkpt>
      <trkpt lat="41.877401936799288" lon="13.573313439264894">
        <ele>1118.630005</ele>
        <time>2017-06-16T12:56:43Z</time>
      </trkpt>
      <trkpt lat="41.87721929512918" lon="13.573451992124319">
        <ele>1116.2299800000001</ele>
        <time>2017-06-16T12:57:00Z</time>
      </trkpt>
      <trkpt lat="41.877177134156227" lon="13.573482669889927">
        <ele>1115.75</ele>
        <time>2017-06-16T12:57:04Z</time>
      </trkpt>
      <trkpt lat="41.87707562930882" lon="13.573698336258531">
        <ele>1113.820068</ele>
        <time>2017-06-16T12:57:20Z</time>
      </trkpt>
      <trkpt lat="41.87707370147109" lon="13.573718871921301">
        <ele>1113.820068</ele>
        <time>2017-06-16T12:57:21Z</time>
      </trkpt>
      <trkpt lat="41.87701896764338" lon="13.574009723961353">
        <ele>1112.380005</ele>
        <time>2017-06-16T12:57:37Z</time>
      </trkpt>
      <trkpt lat="41.87698133289814" lon="13.574228659272194">
        <ele>1109.5</ele>
        <time>2017-06-16T12:57:50Z</time>
      </trkpt>
      <trkpt lat="41.876931712031364" lon="13.574481541290879">
        <ele>1108.5399170000001</ele>
        <time>2017-06-16T12:58:07Z</time>
      </trkpt>
      <trkpt lat="41.87691486440599" lon="13.574802065268159">
        <ele>1108.5399170000001</ele>
        <time>2017-06-16T12:58:24Z</time>
      </trkpt>
      <trkpt lat="41.876911260187626" lon="13.57484363950789">
        <ele>1108.5399170000001</ele>
        <time>2017-06-16T12:58:26Z</time>
      </trkpt>
      <trkpt lat="41.876925090327859" lon="13.575093504041433">
        <ele>1108.5399170000001</ele>
        <time>2017-06-16T12:58:39Z</time>
      </trkpt>
      <trkpt lat="41.876899106428027" lon="13.5754285287112">
        <ele>1108.5399170000001</ele>
        <time>2017-06-16T12:58:55Z</time>
      </trkpt>
      <trkpt lat="41.876794919371605" lon="13.575734132900834">
        <ele>1106.6099850000001</ele>
        <time>2017-06-16T12:59:11Z</time>
      </trkpt>
      <trkpt lat="41.87665251083672" lon="13.575814012438059">
        <ele>1102.7700199999999</ele>
        <time>2017-06-16T12:59:25Z</time>
      </trkpt>
      <trkpt lat="41.876612361520529" lon="13.575806636363268">
        <ele>1102.290039</ele>
        <time>2017-06-16T12:59:28Z</time>
      </trkpt>
      <trkpt lat="41.876570535823703" lon="13.57576422393322">
        <ele>1101.8100589999999</ele>
        <time>2017-06-16T12:59:33Z</time>
      </trkpt>
      <trkpt lat="41.87645117752254" lon="13.575680321082473">
        <ele>1098.920044</ele>
        <time>2017-06-16T12:59:45Z</time>
      </trkpt>
      <trkpt lat="41.876240791752934" lon="13.575656181201339">
        <ele>1096.0399170000001</ele>
        <time>2017-06-16T12:59:59Z</time>
      </trkpt>
      <trkpt lat="41.876130318269134" lon="13.575795823708177">
        <ele>1093.160034</ele>
        <time>2017-06-16T13:00:12Z</time>
      </trkpt>
      <trkpt lat="41.876112632453442" lon="13.575831362977624">
        <ele>1091.7100829999999</ele>
        <time>2017-06-16T13:00:18Z</time>
      </trkpt>
      <trkpt lat="41.875969134271145" lon="13.575756261125207">
        <ele>1088.349976</ele>
        <time>2017-06-16T13:00:31Z</time>
      </trkpt>
      <trkpt lat="41.875903839245439" lon="13.575729690492153">
        <ele>1087.3900149999999</ele>
        <time>2017-06-16T13:00:37Z</time>
      </trkpt>
      <trkpt lat="41.875817170366645" lon="13.575650565326214">
        <ele>1085.950073</ele>
        <time>2017-06-16T13:00:45Z</time>
      </trkpt>
      <trkpt lat="41.875728238373995" lon="13.575587868690491">
        <ele>1085.469971</ele>
        <time>2017-06-16T13:00:55Z</time>
      </trkpt>
      <trkpt lat="41.875670906156301" lon="13.57561762444675">
        <ele>1084.5</ele>
        <time>2017-06-16T13:01:00Z</time>
      </trkpt>
      <trkpt lat="41.875480804592371" lon="13.575676381587982">
        <ele>1081.619995</ele>
        <time>2017-06-16T13:01:18Z</time>
      </trkpt>
      <trkpt lat="41.875360859557986" lon="13.575658360496163">
        <ele>1080.660034</ele>
        <time>2017-06-16T13:01:28Z</time>
      </trkpt>
      <trkpt lat="41.875127172097564" lon="13.57566942460835">
        <ele>1077.780029</ele>
        <time>2017-06-16T13:01:45Z</time>
      </trkpt>
      <trkpt lat="41.874950565397739" lon="13.575692474842072">
        <ele>1074.410034</ele>
        <time>2017-06-16T13:01:58Z</time>
      </trkpt>
      <trkpt lat="41.87494033947587" lon="13.575693732127547">
        <ele>1074.410034</ele>
        <time>2017-06-16T13:01:59Z</time>
      </trkpt>
      <trkpt lat="41.874873787164688" lon="13.575739916414022">
        <ele>1072.969971</ele>
        <time>2017-06-16T13:02:08Z</time>
      </trkpt>
      <trkpt lat="41.874837577342987" lon="13.575761541724205">
        <ele>1071.530029</ele>
        <time>2017-06-16T13:02:12Z</time>
      </trkpt>
      <trkpt lat="41.874731713905931" lon="13.575785513967276">
        <ele>1068.6400149999999</ele>
        <time>2017-06-16T13:02:25Z</time>
      </trkpt>
      <trkpt lat="41.874705897644162" lon="13.575785681605339">
        <ele>1068.160034</ele>
        <time>2017-06-16T13:02:27Z</time>
      </trkpt>
      <trkpt lat="41.874508503824472" lon="13.57576766051352">
        <ele>1065.76001</ele>
        <time>2017-06-16T13:02:43Z</time>
      </trkpt>
      <trkpt lat="41.874457709491253" lon="13.575752740725875">
        <ele>1064.799927</ele>
        <time>2017-06-16T13:02:47Z</time>
      </trkpt>
      <trkpt lat="41.874248832464218" lon="13.575708735734224">
        <ele>1064.3199460000001</ele>
        <time>2017-06-16T13:03:00Z</time>
      </trkpt>
      <trkpt lat="41.874214969575405" lon="13.575735725462437">
        <ele>1064.3199460000001</ele>
        <time>2017-06-16T13:03:03Z</time>
      </trkpt>
      <trkpt lat="41.87422301620245" lon="13.575838739052415">
        <ele>1064.3199460000001</ele>
        <time>2017-06-16T13:03:10Z</time>
      </trkpt>
      <trkpt lat="41.874344805255532" lon="13.57600168325007">
        <ele>1062.869995</ele>
        <time>2017-06-16T13:03:26Z</time>
      </trkpt>
      <trkpt lat="41.874366011470556" lon="13.57603152282536">
        <ele>1061.910034</ele>
        <time>2017-06-16T13:03:29Z</time>
      </trkpt>
      <trkpt lat="41.874443963170052" lon="13.576141577214003">
        <ele>1060.950073</ele>
        <time>2017-06-16T13:03:37Z</time>
      </trkpt>
      <trkpt lat="41.874488806352019" lon="13.576219361275434">
        <ele>1060.469971</ele>
        <time>2017-06-16T13:03:42Z</time>
      </trkpt>
      <trkpt lat="41.874630376696587" lon="13.576332768425345">
        <ele>1059.51001</ele>
        <time>2017-06-16T13:03:53Z</time>
      </trkpt>
      <trkpt lat="41.874699862673879" lon="13.576368140056729">
        <ele>1059.51001</ele>
        <time>2017-06-16T13:03:58Z</time>
      </trkpt>
      <trkpt lat="41.874747723340988" lon="13.576387586072087">
        <ele>1059.51001</ele>
        <time>2017-06-16T13:04:02Z</time>
      </trkpt>
      <trkpt lat="41.874817712232471" lon="13.57641851529479">
        <ele>1059.51001</ele>
        <time>2017-06-16T13:04:08Z</time>
      </trkpt>
      <trkpt lat="41.875060871243477" lon="13.576470818370581">
        <ele>1058.0699460000001</ele>
        <time>2017-06-16T13:04:24Z</time>
      </trkpt>
      <trkpt lat="41.875242590904236" lon="13.576522283256054">
        <ele>1055.669922</ele>
        <time>2017-06-16T13:04:38Z</time>
      </trkpt>
      <trkpt lat="41.875349879264832" lon="13.576554469764233">
        <ele>1052.780029</ele>
        <time>2017-06-16T13:04:52Z</time>
      </trkpt>
      <trkpt lat="41.875467225909233" lon="13.576584560796618">
        <ele>1049.900024</ele>
        <time>2017-06-16T13:05:06Z</time>
      </trkpt>
      <trkpt lat="41.875523468479514" lon="13.576648263260722">
        <ele>1048.450073</ele>
        <time>2017-06-16T13:05:13Z</time>
      </trkpt>
      <trkpt lat="41.875654058530927" lon="13.576784636825323">
        <ele>1045.5699460000001</ele>
        <time>2017-06-16T13:05:28Z</time>
      </trkpt>
      <trkpt lat="41.875687334686518" lon="13.576809028163552">
        <ele>1044.6099850000001</ele>
        <time>2017-06-16T13:05:31Z</time>
      </trkpt>
      <trkpt lat="41.875845165923238" lon="13.577020168304443">
        <ele>1042.209961</ele>
        <time>2017-06-16T13:05:47Z</time>
      </trkpt>
      <trkpt lat="41.875996962189674" lon="13.577155284583569">
        <ele>1040.76001</ele>
        <time>2017-06-16T13:06:00Z</time>
      </trkpt>
      <trkpt lat="41.875999812036753" lon="13.577158385887742">
        <ele>1040.76001</ele>
        <time>2017-06-16T13:06:02Z</time>
      </trkpt>
      <trkpt lat="41.876092767342925" lon="13.57727506197989">
        <ele>1040.76001</ele>
        <time>2017-06-16T13:06:14Z</time>
      </trkpt>
      <trkpt lat="41.876224782317877" lon="13.577453512698412">
        <ele>1040.280029</ele>
        <time>2017-06-16T13:06:28Z</time>
      </trkpt>
      <trkpt lat="41.876285718753934" lon="13.577520232647657">
        <ele>1040.280029</ele>
        <time>2017-06-16T13:06:34Z</time>
      </trkpt>
      <trkpt lat="41.876401305198669" lon="13.577609080821276">
        <ele>1040.280029</ele>
        <time>2017-06-16T13:06:47Z</time>
      </trkpt>
      <trkpt lat="41.876430809497833" lon="13.577653924003243">
        <ele>1040.280029</ele>
        <time>2017-06-16T13:06:50Z</time>
      </trkpt>
      <trkpt lat="41.876460732892156" lon="13.57771192677319">
        <ele>1040.280029</ele>
        <time>2017-06-16T13:06:53Z</time>
      </trkpt>
      <trkpt lat="41.876534158363938" lon="13.577865986153483">
        <ele>1039.3199460000001</ele>
        <time>2017-06-16T13:07:02Z</time>
      </trkpt>
      <trkpt lat="41.876584868878126" lon="13.577931867912412">
        <ele>1039.3199460000001</ele>
        <time>2017-06-16T13:07:07Z</time>
      </trkpt>
      <trkpt lat="41.876699365675449" lon="13.577964473515749">
        <ele>1037.400024</ele>
        <time>2017-06-16T13:07:19Z</time>
      </trkpt>
      <trkpt lat="41.876710178330541" lon="13.577971095219254">
        <ele>1037.400024</ele>
        <time>2017-06-16T13:07:20Z</time>
      </trkpt>
      <trkpt lat="41.87681813724339" lon="13.578072683885694">
        <ele>1036.920044</ele>
        <time>2017-06-16T13:07:29Z</time>
      </trkpt>
      <trkpt lat="41.87695786356926" lon="13.578225318342447">
        <ele>1036.440063</ele>
        <time>2017-06-16T13:07:44Z</time>
      </trkpt>
      <trkpt lat="41.876973118633032" lon="13.578267563134432">
        <ele>1035.959961</ele>
        <time>2017-06-16T13:07:47Z</time>
      </trkpt>
      <trkpt lat="41.876991558820009" lon="13.578555732965469">
        <ele>1034.040039</ele>
        <time>2017-06-16T13:08:03Z</time>
      </trkpt>
      <trkpt lat="41.876988708972931" lon="13.578694621101022">
        <ele>1033.5500489999999</ele>
        <time>2017-06-16T13:08:14Z</time>
      </trkpt>
      <trkpt lat="41.876966496929526" lon="13.57883526943624">
        <ele>1033.0699460000001</ele>
        <time>2017-06-16T13:08:21Z</time>
      </trkpt>
      <trkpt lat="41.8769695982337" lon="13.578932164236903">
        <ele>1032.589966</ele>
        <time>2017-06-16T13:08:26Z</time>
      </trkpt>
      <trkpt lat="41.876990469172597" lon="13.579063760116696">
        <ele>1032.589966</ele>
        <time>2017-06-16T13:08:33Z</time>
      </trkpt>
      <trkpt lat="41.877012010663748" lon="13.579155709594488">
        <ele>1031.630005</ele>
        <time>2017-06-16T13:08:41Z</time>
      </trkpt>
      <trkpt lat="41.877017710357904" lon="13.579268027096987">
        <ele>1031.150024</ele>
        <time>2017-06-16T13:08:47Z</time>
      </trkpt>
      <trkpt lat="41.877062804996967" lon="13.579553179442883">
        <ele>1028.2700199999999</ele>
        <time>2017-06-16T13:09:02Z</time>
      </trkpt>
      <trkpt lat="41.87708199955523" lon="13.579676561057568">
        <ele>1026.829956</ele>
        <time>2017-06-16T13:09:12Z</time>
      </trkpt>
      <trkpt lat="41.877259192988276" lon="13.579892227426171">
        <ele>1023.940002</ele>
        <time>2017-06-16T13:09:29Z</time>
      </trkpt>
      <trkpt lat="41.87730235978961" lon="13.579971520230174">
        <ele>1022.980042</ele>
        <time>2017-06-16T13:09:34Z</time>
      </trkpt>
      <trkpt lat="41.877430938184261" lon="13.580131195485592">
        <ele>1020.099976</ele>
        <time>2017-06-16T13:09:48Z</time>
      </trkpt>
      <trkpt lat="41.877457927912474" lon="13.580186180770397">
        <ele>1019.619995</ele>
        <time>2017-06-16T13:09:54Z</time>
      </trkpt>
      <trkpt lat="41.877469411119819" lon="13.580215265974402">
        <ele>1019.130005</ele>
        <time>2017-06-16T13:09:56Z</time>
      </trkpt>
      <trkpt lat="41.877513164654374" lon="13.580265222117305">
        <ele>1018.650024</ele>
        <time>2017-06-16T13:10:00Z</time>
      </trkpt>
      <trkpt lat="41.877653393894434" lon="13.580363038927317">
        <ele>1016.25</ele>
        <time>2017-06-16T13:10:11Z</time>
      </trkpt>
      <trkpt lat="41.877830503508449" lon="13.580470662564039">
        <ele>1013.370056</ele>
        <time>2017-06-16T13:10:25Z</time>
      </trkpt>
      <trkpt lat="41.877915496006608" lon="13.580477619543672">
        <ele>1012.8900149999999</ele>
        <time>2017-06-16T13:10:31Z</time>
      </trkpt>
      <trkpt lat="41.878057820722461" lon="13.580510979518294">
        <ele>1011.929993</ele>
        <time>2017-06-16T13:10:45Z</time>
      </trkpt>
      <trkpt lat="41.878334758803248" lon="13.580662608146667">
        <ele>1010.959961</ele>
        <time>2017-06-16T13:11:04Z</time>
      </trkpt>
      <trkpt lat="41.878354540094733" lon="13.580732764676213">
        <ele>1010.959961</ele>
        <time>2017-06-16T13:11:09Z</time>
      </trkpt>
      <trkpt lat="41.878310535103083" lon="13.581079859286547">
        <ele>1010.959961</ele>
        <time>2017-06-16T13:11:29Z</time>
      </trkpt>
      <trkpt lat="41.878304164856672" lon="13.581154039129615">
        <ele>1010.959961</ele>
        <time>2017-06-16T13:11:33Z</time>
      </trkpt>
      <trkpt lat="41.878253538161516" lon="13.581377919763327">
        <ele>1010.480042</ele>
        <time>2017-06-16T13:11:50Z</time>
      </trkpt>
      <trkpt lat="41.878252867609262" lon="13.581382278352976">
        <ele>1010.480042</ele>
        <time>2017-06-16T13:11:54Z</time>
      </trkpt>
      <trkpt lat="41.878210958093405" lon="13.581463331356645">
        <ele>1009.52002</ele>
        <time>2017-06-16T13:11:59Z</time>
      </trkpt>
      <trkpt lat="41.878084139898419" lon="13.58168981038034">
        <ele>1007.599976</ele>
        <time>2017-06-16T13:12:16Z</time>
      </trkpt>
      <trkpt lat="41.87807341106236" lon="13.58171327970922">
        <ele>1007.599976</ele>
        <time>2017-06-16T13:12:18Z</time>
      </trkpt>
      <trkpt lat="41.87805287539959" lon="13.581776563078165">
        <ele>1006.6400149999999</ele>
        <time>2017-06-16T13:12:23Z</time>
      </trkpt>
      <trkpt lat="41.87790828756988" lon="13.58199717476964">
        <ele>1004.719971</ele>
        <time>2017-06-16T13:12:39Z</time>
      </trkpt>
      <trkpt lat="41.877766381949186" lon="13.582237986847758">
        <ele>1003.27002</ele>
        <time>2017-06-16T13:12:53Z</time>
      </trkpt>
      <trkpt lat="41.877750875428319" lon="13.582327589392662">
        <ele>1002.789978</ele>
        <time>2017-06-16T13:12:58Z</time>
      </trkpt>
      <trkpt lat="41.877754563465714" lon="13.582341335713863">
        <ele>1002.309998</ele>
        <time>2017-06-16T13:12:59Z</time>
      </trkpt>
      <trkpt lat="41.877786833792925" lon="13.582364972680807">
        <ele>1002.309998</ele>
        <time>2017-06-16T13:13:13Z</time>
      </trkpt>
      <trkpt lat="41.877796892076731" lon="13.582374192774296">
        <ele>1002.309998</ele>
        <time>2017-06-16T13:13:14Z</time>
      </trkpt>
      <trkpt lat="41.877808375284076" lon="13.582381065934896">
        <ele>1002.309998</ele>
        <time>2017-06-16T13:13:15Z</time>
      </trkpt>
      <trkpt lat="41.877819690853357" lon="13.582382909953594">
        <ele>1002.309998</ele>
        <time>2017-06-16T13:13:16Z</time>
      </trkpt>
      <trkpt lat="41.877830000594258" lon="13.582378970459104">
        <ele>1002.309998</ele>
        <time>2017-06-16T13:13:17Z</time>
      </trkpt>
      <trkpt lat="41.877854811027646" lon="13.582362290471792">
        <ele>1001.349976</ele>
        <time>2017-06-16T13:13:20Z</time>
      </trkpt>
      <trkpt lat="41.877980707213283" lon="13.582220887765288">
        <ele>998.47003199999995</ele>
        <time>2017-06-16T13:13:34Z</time>
      </trkpt>
      <trkpt lat="41.878040637820959" lon="13.582143187522888">
        <ele>996.54003899999998</ele>
        <time>2017-06-16T13:13:41Z</time>
      </trkpt>
      <trkpt lat="41.878178017213941" lon="13.582029864192009">
        <ele>993.17999299999997</ele>
        <time>2017-06-16T13:13:54Z</time>
      </trkpt>
      <trkpt lat="41.878193439915776" lon="13.582005808129907">
        <ele>993.17999299999997</ele>
        <time>2017-06-16T13:13:56Z</time>
      </trkpt>
      <trkpt lat="41.878200732171535" lon="13.581993570551276">
        <ele>992.69995100000006</ele>
        <time>2017-06-16T13:13:57Z</time>
      </trkpt>
      <trkpt lat="41.87836904078722" lon="13.581838086247444">
        <ele>990.30004899999994</ele>
        <time>2017-06-16T13:14:13Z</time>
      </trkpt>
      <trkpt lat="41.8783856369555" lon="13.581827022135258">
        <ele>990.30004899999994</ele>
        <time>2017-06-16T13:14:14Z</time>
      </trkpt>
      <trkpt lat="41.878402065485716" lon="13.58181637711823">
        <ele>990.30004899999994</ele>
        <time>2017-06-16T13:14:15Z</time>
      </trkpt>
      <trkpt lat="41.878416482359171" lon="13.581808162853122">
        <ele>989.32995600000004</ele>
        <time>2017-06-16T13:14:16Z</time>
      </trkpt>
      <trkpt lat="41.878433162346482" lon="13.581801289692521">
        <ele>989.32995600000004</ele>
        <time>2017-06-16T13:14:17Z</time>
      </trkpt>
      <trkpt lat="41.878445064648986" lon="13.581794835627079">
        <ele>989.32995600000004</ele>
        <time>2017-06-16T13:14:18Z</time>
      </trkpt>
      <trkpt lat="41.87858403660357" lon="13.581736665219069">
        <ele>989.32995600000004</ele>
        <time>2017-06-16T13:14:31Z</time>
      </trkpt>
      <trkpt lat="41.878603063523769" lon="13.581745130941272">
        <ele>989.32995600000004</ele>
        <time>2017-06-16T13:14:32Z</time>
      </trkpt>
      <trkpt lat="41.878618905320764" lon="13.581748986616731">
        <ele>989.32995600000004</ele>
        <time>2017-06-16T13:14:33Z</time>
      </trkpt>
      <trkpt lat="41.878885785117745" lon="13.581841858103871">
        <ele>988.84997599999997</ele>
        <time>2017-06-16T13:14:52Z</time>
      </trkpt>
      <trkpt lat="41.87892023473978" lon="13.581859795376658">
        <ele>987.89001499999995</ele>
        <time>2017-06-16T13:14:55Z</time>
      </trkpt>
      <trkpt lat="41.878933226689696" lon="13.581872368231416">
        <ele>987.89001499999995</ele>
        <time>2017-06-16T13:14:56Z</time>
      </trkpt>
      <trkpt lat="41.87907169573009" lon="13.581949481740594">
        <ele>986.45001200000002</ele>
        <time>2017-06-16T13:15:07Z</time>
      </trkpt>
      <trkpt lat="41.879276717081666" lon="13.581947889178991">
        <ele>984.52996800000005</ele>
        <time>2017-06-16T13:15:21Z</time>
      </trkpt>
      <trkpt lat="41.879496406763792" lon="13.581971526145935">
        <ele>982.59997599999997</ele>
        <time>2017-06-16T13:15:36Z</time>
      </trkpt>
      <trkpt lat="41.879681730642915" lon="13.581959288567305">
        <ele>981.15997300000004</ele>
        <time>2017-06-16T13:15:51Z</time>
      </trkpt>
      <trkpt lat="41.879779631271958" lon="13.581894328817725">
        <ele>979.71997099999999</ele>
        <time>2017-06-16T13:16:01Z</time>
      </trkpt>
      <trkpt lat="41.879793461412191" lon="13.581894412636757">
        <ele>979.71997099999999</ele>
        <time>2017-06-16T13:16:02Z</time>
      </trkpt>
      <trkpt lat="41.879958836361766" lon="13.581922659650445">
        <ele>977.80004899999994</ele>
        <time>2017-06-16T13:16:14Z</time>
      </trkpt>
      <trkpt lat="41.880015330389142" lon="13.581949230283499">
        <ele>977.32000700000003</ele>
        <time>2017-06-16T13:16:19Z</time>
      </trkpt>
      <trkpt lat="41.880027484148741" lon="13.581954091787338">
        <ele>977.32000700000003</ele>
        <time>2017-06-16T13:16:20Z</time>
      </trkpt>
      <trkpt lat="41.880042236298323" lon="13.581962306052446">
        <ele>976.84002699999996</ele>
        <time>2017-06-16T13:16:21Z</time>
      </trkpt>
      <trkpt lat="41.880054390057921" lon="13.581967921927571">
        <ele>976.84002699999996</ele>
        <time>2017-06-16T13:16:22Z</time>
      </trkpt>
      <trkpt lat="41.880065705627203" lon="13.581975800916553">
        <ele>976.84002699999996</ele>
        <time>2017-06-16T13:16:23Z</time>
      </trkpt>
      <trkpt lat="41.880162768065929" lon="13.582078479230404">
        <ele>973.47003199999995</ele>
        <time>2017-06-16T13:16:37Z</time>
      </trkpt>
      <trkpt lat="41.880187662318349" lon="13.582103122025728">
        <ele>972.98999000000003</ele>
        <time>2017-06-16T13:16:40Z</time>
      </trkpt>
      <trkpt lat="41.880198307335377" lon="13.582114018499851">
        <ele>972.51000999999997</ele>
        <time>2017-06-16T13:16:41Z</time>
      </trkpt>
      <trkpt lat="41.88021850772202" lon="13.582142014056444">
        <ele>972.02996800000005</ele>
        <time>2017-06-16T13:16:43Z</time>
      </trkpt>
      <trkpt lat="41.8803939409554" lon="13.582310741767287">
        <ele>970.10998500000005</ele>
        <time>2017-06-16T13:17:00Z</time>
      </trkpt>
      <trkpt lat="41.880576834082603" lon="13.582425406202674">
        <ele>967.21997099999999</ele>
        <time>2017-06-16T13:17:16Z</time>
      </trkpt>
      <trkpt lat="41.880732569843531" lon="13.582500172778964">
        <ele>964.82000700000003</ele>
        <time>2017-06-16T13:17:30Z</time>
      </trkpt>
      <trkpt lat="41.880918312817812" lon="13.582605868577957">
        <ele>961.94000200000005</ele>
        <time>2017-06-16T13:17:47Z</time>
      </trkpt>
      <trkpt lat="41.880976315587759" lon="13.582747941836715">
        <ele>960.97997999999995</ele>
        <time>2017-06-16T13:18:00Z</time>
      </trkpt>
      <trkpt lat="41.880988134071231" lon="13.582741906866431">
        <ele>960.97997999999995</ele>
        <time>2017-06-16T13:18:16Z</time>
      </trkpt>
      <trkpt lat="41.881066588684916" lon="13.582773003727198">
        <ele>959.52996800000005</ele>
        <time>2017-06-16T13:18:23Z</time>
      </trkpt>
      <trkpt lat="41.881082262843847" lon="13.582784319296479">
        <ele>959.52996800000005</ele>
        <time>2017-06-16T13:18:24Z</time>
      </trkpt>
      <trkpt lat="41.881098188459873" lon="13.58279412612319">
        <ele>959.04998799999998</ele>
        <time>2017-06-16T13:18:25Z</time>
      </trkpt>
      <trkpt lat="41.88128468580544" lon="13.582909628748894">
        <ele>957.12994400000002</ele>
        <time>2017-06-16T13:18:42Z</time>
      </trkpt>
      <trkpt lat="41.881439415737987" lon="13.583011468872428">
        <ele>955.69000200000005</ele>
        <time>2017-06-16T13:18:55Z</time>
      </trkpt>
      <trkpt lat="41.881583081558347" lon="13.583155302330852">
        <ele>954.25</ele>
        <time>2017-06-16T13:19:10Z</time>
      </trkpt>
      <trkpt lat="41.881729261949658" lon="13.583281617611647">
        <ele>952.32000700000003</ele>
        <time>2017-06-16T13:19:25Z</time>
      </trkpt>
      <trkpt lat="41.881873263046145" lon="13.583421260118484">
        <ele>950.88000499999998</ele>
        <time>2017-06-16T13:19:40Z</time>
      </trkpt>
      <trkpt lat="41.881920536980033" lon="13.583457889035344">
        <ele>950.40002400000003</ele>
        <time>2017-06-16T13:19:45Z</time>
      </trkpt>
      <trkpt lat="41.882003517821431" lon="13.583505162969232">
        <ele>949.44000200000005</ele>
        <time>2017-06-16T13:19:53Z</time>
      </trkpt>
      <trkpt lat="41.882017264142632" lon="13.583509186282754">
        <ele>949.44000200000005</ele>
        <time>2017-06-16T13:19:54Z</time>
      </trkpt>
      <trkpt lat="41.882026735693216" lon="13.583515975624323">
        <ele>949.44000200000005</ele>
        <time>2017-06-16T13:19:55Z</time>
      </trkpt>
      <trkpt lat="41.882170736789703" lon="13.583547994494438">
        <ele>948.00006099999996</ele>
        <time>2017-06-16T13:20:10Z</time>
      </trkpt>
      <trkpt lat="41.882192362099886" lon="13.583541540428996">
        <ele>948.00006099999996</ele>
        <time>2017-06-16T13:20:12Z</time>
      </trkpt>
      <trkpt lat="41.882203761488199" lon="13.583538439124823">
        <ele>948.00006099999996</ele>
        <time>2017-06-16T13:20:13Z</time>
      </trkpt>
      <trkpt lat="41.882212813943624" lon="13.583533829078078">
        <ele>948.00006099999996</ele>
        <time>2017-06-16T13:20:14Z</time>
      </trkpt>
      <trkpt lat="41.882224716246128" lon="13.583531314507127">
        <ele>948.00006099999996</ele>
        <time>2017-06-16T13:20:15Z</time>
      </trkpt>
      <trkpt lat="41.882234439253807" lon="13.583529889583588">
        <ele>948.00006099999996</ele>
        <time>2017-06-16T13:20:16Z</time>
      </trkpt>
      <trkpt lat="41.882374081760645" lon="13.583450680598617">
        <ele>945.589966</ele>
        <time>2017-06-16T13:20:29Z</time>
      </trkpt>
      <trkpt lat="41.882518418133259" lon="13.583379434421659">
        <ele>944.62994400000002</ele>
        <time>2017-06-16T13:20:43Z</time>
      </trkpt>
      <trkpt lat="41.882639704272151" lon="13.583348505198956">
        <ele>942.22997999999995</ele>
        <time>2017-06-16T13:20:57Z</time>
      </trkpt>
      <trkpt lat="41.882758811116219" lon="13.583405083045363">
        <ele>941.27002000000005</ele>
        <time>2017-06-16T13:21:10Z</time>
      </trkpt>
      <trkpt lat="41.882808767259121" lon="13.583464762195945">
        <ele>939.82995600000004</ele>
        <time>2017-06-16T13:21:17Z</time>
      </trkpt>
      <trkpt lat="41.882821675390005" lon="13.583473982289433">
        <ele>939.82995600000004</ele>
        <time>2017-06-16T13:21:18Z</time>
      </trkpt>
      <trkpt lat="41.882834332063794" lon="13.583477083593607">
        <ele>939.34997599999997</ele>
        <time>2017-06-16T13:21:19Z</time>
      </trkpt>
      <trkpt lat="41.882989564910531" lon="13.583568362519145">
        <ele>937.419983</ele>
        <time>2017-06-16T13:21:32Z</time>
      </trkpt>
      <trkpt lat="41.883060308173299" lon="13.583641285076737">
        <ele>936.94000200000005</ele>
        <time>2017-06-16T13:21:38Z</time>
      </trkpt>
      <trkpt lat="41.883067265152931" lon="13.583655701950192">
        <ele>936.94000200000005</ele>
        <time>2017-06-16T13:21:39Z</time>
      </trkpt>
      <trkpt lat="41.883111270144582" lon="13.583746561780572">
        <ele>936.94000200000005</ele>
        <time>2017-06-16T13:21:53Z</time>
      </trkpt>
      <trkpt lat="41.883087465539575" lon="13.583789728581905">
        <ele>936.94000200000005</ele>
        <time>2017-06-16T13:22:15Z</time>
      </trkpt>
      <trkpt lat="41.883095260709524" lon="13.583773635327816">
        <ele>936.94000200000005</ele>
        <time>2017-06-16T13:22:29Z</time>
      </trkpt>
      <trkpt lat="41.883195340633392" lon="13.583901124075055">
        <ele>936.45996100000002</ele>
        <time>2017-06-16T13:22:42Z</time>
      </trkpt>
      <trkpt lat="41.883179666474462" lon="13.583971699699759">
        <ele>937.419983</ele>
        <time>2017-06-16T13:22:56Z</time>
      </trkpt>
      <trkpt lat="41.883164495229721" lon="13.584002712741494">
        <ele>937.419983</ele>
        <time>2017-06-16T13:23:01Z</time>
      </trkpt>
      <trkpt lat="41.883059637621045" lon="13.58417403884232">
        <ele>937.419983</ele>
        <time>2017-06-16T13:23:13Z</time>
      </trkpt>
      <trkpt lat="41.88291965983808" lon="13.584372606128454">
        <ele>937.419983</ele>
        <time>2017-06-16T13:23:28Z</time>
      </trkpt>
      <trkpt lat="41.882781777530909" lon="13.584530102089047">
        <ele>935.97997999999995</ele>
        <time>2017-06-16T13:23:42Z</time>
      </trkpt>
      <trkpt lat="41.882683793082833" lon="13.584616435691714">
        <ele>935.97997999999995</ele>
        <time>2017-06-16T13:23:58Z</time>
      </trkpt>
      <trkpt lat="41.882573068141937" lon="13.584616519510746">
        <ele>935.97997999999995</ele>
        <time>2017-06-16T13:24:13Z</time>
      </trkpt>
      <trkpt lat="41.882555885240436" lon="13.584590367972851">
        <ele>937.419983</ele>
        <time>2017-06-16T13:24:35Z</time>
      </trkpt>
      <trkpt lat="41.882560160011053" lon="13.584597241133451">
        <ele>937.419983</ele>
        <time>2017-06-16T13:24:48Z</time>
      </trkpt>
      <trkpt lat="41.882542977109551" lon="13.584590200334787">
        <ele>937.419983</ele>
        <time>2017-06-16T13:25:18Z</time>
      </trkpt>
      <trkpt lat="41.882594609633088" lon="13.584610568359494">
        <ele>937.419983</ele>
        <time>2017-06-16T13:25:35Z</time>
      </trkpt>
      <trkpt lat="41.882757134735584" lon="13.584778541699052">
        <ele>935.01995799999997</ele>
        <time>2017-06-16T13:25:53Z</time>
      </trkpt>
      <trkpt lat="41.882903566583991" lon="13.584918938577175">
        <ele>932.61999500000002</ele>
        <time>2017-06-16T13:26:11Z</time>
      </trkpt>
      <trkpt lat="41.882942793890834" lon="13.584962859749794">
        <ele>932.61999500000002</ele>
        <time>2017-06-16T13:26:15Z</time>
      </trkpt>
      <trkpt lat="41.882956121116877" lon="13.584971409291029">
        <ele>932.14001499999995</ele>
        <time>2017-06-16T13:26:16Z</time>
      </trkpt>
      <trkpt lat="41.882968861609697" lon="13.584978701546788">
        <ele>932.14001499999995</ele>
        <time>2017-06-16T13:26:17Z</time>
      </trkpt>
      <trkpt lat="41.883129375055432" lon="13.585073668509722">
        <ele>930.69000200000005</ele>
        <time>2017-06-16T13:26:31Z</time>
      </trkpt>
      <trkpt lat="41.883291397243738" lon="13.585164863616228">
        <ele>928.28997800000002</ele>
        <time>2017-06-16T13:26:47Z</time>
      </trkpt>
      <trkpt lat="41.883410336449742" lon="13.58526561409235">
        <ele>925.88995399999999</ele>
        <time>2017-06-16T13:27:01Z</time>
      </trkpt>
      <trkpt lat="41.883590715005994" lon="13.585429899394512">
        <ele>924.45001200000002</ele>
        <time>2017-06-16T13:27:19Z</time>
      </trkpt>
      <trkpt lat="41.883620722219348" lon="13.5855324100703">
        <ele>923.47997999999995</ele>
        <time>2017-06-16T13:27:35Z</time>
      </trkpt>
      <trkpt lat="41.883633378893137" lon="13.585553113371134">
        <ele>923.47997999999995</ele>
        <time>2017-06-16T13:27:37Z</time>
      </trkpt>
      <trkpt lat="41.883650477975607" lon="13.585623940452933">
        <ele>923.00006099999996</ele>
        <time>2017-06-16T13:27:42Z</time>
      </trkpt>
      <trkpt lat="41.88365844078362" lon="13.585765259340405">
        <ele>923.00006099999996</ele>
        <time>2017-06-16T13:27:58Z</time>
      </trkpt>
      <trkpt lat="41.883745864033699" lon="13.585807839408517">
        <ele>922.51995799999997</ele>
        <time>2017-06-16T13:28:05Z</time>
      </trkpt>
      <trkpt lat="41.883855499327183" lon="13.585950080305338">
        <ele>920.11999500000002</ele>
        <time>2017-06-16T13:28:18Z</time>
      </trkpt>
      <trkpt lat="41.88385440967977" lon="13.58596483245492">
        <ele>919.64001499999995</ele>
        <time>2017-06-16T13:28:19Z</time>
      </trkpt>
      <trkpt lat="41.883837813511491" lon="13.586001293733716">
        <ele>918.67999299999997</ele>
        <time>2017-06-16T13:28:22Z</time>
      </trkpt>
      <trkpt lat="41.883785091340542" lon="13.586086537688971">
        <ele>917.71997099999999</ele>
        <time>2017-06-16T13:28:29Z</time>
      </trkpt>
      <trkpt lat="41.883820295333862" lon="13.586374623700976">
        <ele>915.78997800000002</ele>
        <time>2017-06-16T13:28:48Z</time>
      </trkpt>
      <trkpt lat="41.883832700550556" lon="13.586483169347048">
        <ele>914.82995600000004</ele>
        <time>2017-06-16T13:28:55Z</time>
      </trkpt>
      <trkpt lat="41.883860109373927" lon="13.586595738306642">
        <ele>913.86999500000002</ele>
        <time>2017-06-16T13:29:03Z</time>
      </trkpt>
      <trkpt lat="41.88387150876224" lon="13.586750635877252">
        <ele>912.910034</ele>
        <time>2017-06-16T13:29:14Z</time>
      </trkpt>
      <trkpt lat="41.883910065516829" lon="13.586919531226158">
        <ele>911.95001200000002</ele>
        <time>2017-06-16T13:29:36Z</time>
      </trkpt>
      <trkpt lat="41.883918531239033" lon="13.586955489590764">
        <ele>911.47003199999995</ele>
        <time>2017-06-16T13:29:38Z</time>
      </trkpt>
      <trkpt lat="41.884034872055054" lon="13.587271822616458">
        <ele>909.54003899999998</ele>
        <time>2017-06-16T13:29:58Z</time>
      </trkpt>
      <trkpt lat="41.884145429357886" lon="13.587519759312272">
        <ele>907.61999500000002</ele>
        <time>2017-06-16T13:30:15Z</time>
      </trkpt>
      <trkpt lat="41.884233774617314" lon="13.58780306763947">
        <ele>905.70001200000002</ele>
        <time>2017-06-16T13:30:33Z</time>
      </trkpt>
      <trkpt lat="41.884350031614304" lon="13.588074976578355">
        <ele>905.21997099999999</ele>
        <time>2017-06-16T13:30:52Z</time>
      </trkpt>
      <trkpt lat="41.884466288611293" lon="13.58833079226315">
        <ele>905.21997099999999</ele>
        <time>2017-06-16T13:31:10Z</time>
      </trkpt>
      <trkpt lat="41.884531332179904" lon="13.588448390364647">
        <ele>903.77996800000005</ele>
        <time>2017-06-16T13:31:24Z</time>
      </trkpt>
      <trkpt lat="41.884535858407617" lon="13.588482839986682">
        <ele>904.73999000000003</ele>
        <time>2017-06-16T13:31:40Z</time>
      </trkpt>
      <trkpt lat="41.884577600285411" lon="13.588526174426079">
        <ele>904.73999000000003</ele>
        <time>2017-06-16T13:31:45Z</time>
      </trkpt>
      <trkpt lat="41.884538792073727" lon="13.588834460824728">
        <ele>904.25994900000001</ele>
        <time>2017-06-16T13:32:05Z</time>
      </trkpt>
      <trkpt lat="41.884507108479738" lon="13.58917023986578">
        <ele>903.30004899999994</ele>
        <time>2017-06-16T13:32:23Z</time>
      </trkpt>
      <trkpt lat="41.88453895971179" lon="13.58950886875391">
        <ele>903.30004899999994</ele>
        <time>2017-06-16T13:32:41Z</time>
      </trkpt>
      <trkpt lat="41.884603165090084" lon="13.589733587577939">
        <ele>903.30004899999994</ele>
        <time>2017-06-16T13:32:54Z</time>
      </trkpt>
      <trkpt lat="41.884554801508784" lon="13.589993426576257">
        <ele>904.73999000000003</ele>
        <time>2017-06-16T13:33:10Z</time>
      </trkpt>
      <trkpt lat="41.884530996903777" lon="13.59030288644135">
        <ele>904.73999000000003</ele>
        <time>2017-06-16T13:33:28Z</time>
      </trkpt>
      <trkpt lat="41.884524626657367" lon="13.590410761535168">
        <ele>904.73999000000003</ele>
        <time>2017-06-16T13:33:34Z</time>
      </trkpt>
      <trkpt lat="41.884400825947523" lon="13.590689795091748">
        <ele>905.21997099999999</ele>
        <time>2017-06-16T13:33:51Z</time>
      </trkpt>
      <trkpt lat="41.884267134591937" lon="13.590849135071039">
        <ele>906.17999299999997</ele>
        <time>2017-06-16T13:34:05Z</time>
      </trkpt>
      <trkpt lat="41.884228410199285" lon="13.590902527794242">
        <ele>906.17999299999997</ele>
        <time>2017-06-16T13:34:11Z</time>
      </trkpt>
      <trkpt lat="41.884213909506798" lon="13.590914094820619">
        <ele>906.17999299999997</ele>
        <time>2017-06-16T13:34:12Z</time>
      </trkpt>
      <trkpt lat="41.884061694145203" lon="13.591040661558509">
        <ele>907.14001499999995</ele>
        <time>2017-06-16T13:34:27Z</time>
      </trkpt>
      <trkpt lat="41.883880058303475" lon="13.591157589107752">
        <ele>908.10003700000004</ele>
        <time>2017-06-16T13:34:42Z</time>
      </trkpt>
      <trkpt lat="41.883871592581272" lon="13.591184997931123">
        <ele>908.10003700000004</ele>
        <time>2017-06-16T13:34:44Z</time>
      </trkpt>
      <trkpt lat="41.883869497105479" lon="13.591198828071356">
        <ele>908.10003700000004</ele>
        <time>2017-06-16T13:34:45Z</time>
      </trkpt>
      <trkpt lat="41.883864300325513" lon="13.591214921325445">
        <ele>908.10003700000004</ele>
        <time>2017-06-16T13:34:46Z</time>
      </trkpt>
      <trkpt lat="41.883857762441039" lon="13.591229002922773">
        <ele>908.10003700000004</ele>
        <time>2017-06-16T13:34:47Z</time>
      </trkpt>
      <trkpt lat="41.88384803943336" lon="13.591244425624609">
        <ele>908.10003700000004</ele>
        <time>2017-06-16T13:34:48Z</time>
      </trkpt>
      <trkpt lat="41.883835718035698" lon="13.591258674860001">
        <ele>908.10003700000004</ele>
        <time>2017-06-16T13:34:49Z</time>
      </trkpt>
      <trkpt lat="41.88382213935256" lon="13.591272505000234">
        <ele>908.10003700000004</ele>
        <time>2017-06-16T13:34:50Z</time>
      </trkpt>
      <trkpt lat="41.883688867092133" lon="13.591403095051646">
        <ele>909.54003899999998</ele>
        <time>2017-06-16T13:35:05Z</time>
      </trkpt>
      <trkpt lat="41.883497592061758" lon="13.59149320051074">
        <ele>911.47003199999995</ele>
        <time>2017-06-16T13:35:21Z</time>
      </trkpt>
      <trkpt lat="41.883452581241727" lon="13.591506276279688">
        <ele>910.98999000000003</ele>
        <time>2017-06-16T13:35:24Z</time>
      </trkpt>
      <trkpt lat="41.883341437205672" lon="13.591596214100718">
        <ele>911.95001200000002</ele>
        <time>2017-06-16T13:35:35Z</time>
      </trkpt>
      <trkpt lat="41.88314052298665" lon="13.591713896021247">
        <ele>913.86999500000002</ele>
        <time>2017-06-16T13:35:54Z</time>
      </trkpt>
      <trkpt lat="41.88299149274826" lon="13.591884803026915">
        <ele>916.75</ele>
        <time>2017-06-16T13:36:11Z</time>
      </trkpt>
      <trkpt lat="41.882960060611367" lon="13.591965604573488">
        <ele>916.27002000000005</ele>
        <time>2017-06-16T13:36:26Z</time>
      </trkpt>
      <trkpt lat="41.882949164137244" lon="13.592011034488678">
        <ele>916.75</ele>
        <time>2017-06-16T13:36:40Z</time>
      </trkpt>
      <trkpt lat="41.882906835526228" lon="13.592143636196852">
        <ele>916.75</ele>
        <time>2017-06-16T13:36:53Z</time>
      </trkpt>
      <trkpt lat="41.882833829149604" lon="13.592299707233906">
        <ele>917.71997099999999</ele>
        <time>2017-06-16T13:37:04Z</time>
      </trkpt>
      <trkpt lat="41.882717404514551" lon="13.592466926202178">
        <ele>919.15997300000004</ele>
        <time>2017-06-16T13:37:18Z</time>
      </trkpt>
      <trkpt lat="41.882633836939931" lon="13.592659961432219">
        <ele>920.60003700000004</ele>
        <time>2017-06-16T13:37:35Z</time>
      </trkpt>
      <trkpt lat="41.882599806413054" lon="13.59275140799582">
        <ele>921.080017</ele>
        <time>2017-06-16T13:37:46Z</time>
      </trkpt>
      <trkpt lat="41.882538702338934" lon="13.592993812635541">
        <ele>922.04003899999998</ele>
        <time>2017-06-16T13:38:03Z</time>
      </trkpt>
      <trkpt lat="41.882493104785681" lon="13.593242922797799">
        <ele>924.45001200000002</ele>
        <time>2017-06-16T13:38:20Z</time>
      </trkpt>
      <trkpt lat="41.882437616586685" lon="13.593424307182431">
        <ele>926.36999500000002</ele>
        <time>2017-06-16T13:38:33Z</time>
      </trkpt>
      <trkpt lat="41.882317839190364" lon="13.593535702675581">
        <ele>926.84997599999997</ele>
        <time>2017-06-16T13:38:46Z</time>
      </trkpt>
      <trkpt lat="41.882278108969331" lon="13.593557998538017">
        <ele>926.84997599999997</ele>
        <time>2017-06-16T13:38:49Z</time>
      </trkpt>
      <trkpt lat="41.882131174206734" lon="13.593687331303954">
        <ele>927.32995600000004</ele>
        <time>2017-06-16T13:39:03Z</time>
      </trkpt>
      <trkpt lat="41.882000667974353" lon="13.593833511695266">
        <ele>928.77002000000005</ele>
        <time>2017-06-16T13:39:18Z</time>
      </trkpt>
      <trkpt lat="41.881959596648812" lon="13.593878606334329">
        <ele>929.72997999999995</ele>
        <time>2017-06-16T13:39:24Z</time>
      </trkpt>
      <trkpt lat="41.881816685199738" lon="13.593951864168048">
        <ele>931.17004399999996</ele>
        <time>2017-06-16T13:39:37Z</time>
      </trkpt>
      <trkpt lat="41.881673019379377" lon="13.594006765633821">
        <ele>932.61999500000002</ele>
        <time>2017-06-16T13:39:49Z</time>
      </trkpt>
      <trkpt lat="41.8814991787076" lon="13.594096703454852">
        <ele>933.580017</ele>
        <time>2017-06-16T13:40:04Z</time>
      </trkpt>
      <trkpt lat="41.88134428113699" lon="13.594186892732978">
        <ele>935.50006099999996</ele>
        <time>2017-06-16T13:40:19Z</time>
      </trkpt>
      <trkpt lat="41.881182761862874" lon="13.594212960451841">
        <ele>936.45996100000002</ele>
        <time>2017-06-16T13:40:33Z</time>
      </trkpt>
      <trkpt lat="41.881110426038504" lon="13.594228215515614">
        <ele>937.419983</ele>
        <time>2017-06-16T13:40:40Z</time>
      </trkpt>
      <trkpt lat="41.881097769364715" lon="13.594227209687233">
        <ele>937.90002400000003</ele>
        <time>2017-06-16T13:40:41Z</time>
      </trkpt>
      <trkpt lat="41.881037838757038" lon="13.594254534691572">
        <ele>939.34997599999997</ele>
        <time>2017-06-16T13:40:56Z</time>
      </trkpt>
      <trkpt lat="41.880967430770397" lon="13.594317985698581">
        <ele>939.34997599999997</ele>
        <time>2017-06-16T13:41:17Z</time>
      </trkpt>
      <trkpt lat="41.880969023332" lon="13.594329971820116">
        <ele>939.82995600000004</ele>
        <time>2017-06-16T13:41:35Z</time>
      </trkpt>
      <trkpt lat="41.880958378314972" lon="13.594359308481216">
        <ele>939.82995600000004</ele>
        <time>2017-06-16T13:41:43Z</time>
      </trkpt>
      <trkpt lat="41.88095829449594" lon="13.594376659020782">
        <ele>939.82995600000004</ele>
        <time>2017-06-16T13:41:44Z</time>
      </trkpt>
      <trkpt lat="41.880959132686257" lon="13.594458214938641">
        <ele>940.30999799999995</ele>
        <time>2017-06-16T13:42:00Z</time>
      </trkpt>
      <trkpt lat="41.880938680842519" lon="13.594435080885887">
        <ele>940.30999799999995</ele>
        <time>2017-06-16T13:42:34Z</time>
      </trkpt>
      <trkpt lat="41.880984278395772" lon="13.594308597967029">
        <ele>938.85998500000005</ele>
        <time>2017-06-16T13:42:44Z</time>
      </trkpt>
      <trkpt lat="41.881009675562382" lon="13.594286888837814">
        <ele>938.85998500000005</ele>
        <time>2017-06-16T13:42:47Z</time>
      </trkpt>
      <trkpt lat="41.88114638440311" lon="13.594270963221788">
        <ele>937.90002400000003</ele>
        <time>2017-06-16T13:42:59Z</time>
      </trkpt>
      <trkpt lat="41.881227605044842" lon="13.594500040635467">
        <ele>935.50006099999996</ele>
        <time>2017-06-16T13:43:16Z</time>
      </trkpt>
      <trkpt lat="41.881278399378061" lon="13.594743367284536">
        <ele>934.05999799999995</ele>
        <time>2017-06-16T13:43:31Z</time>
      </trkpt>
      <trkpt lat="41.881360458210111" lon="13.595052324235439">
        <ele>933.580017</ele>
        <time>2017-06-16T13:43:50Z</time>
      </trkpt>
      <trkpt lat="41.881385436281562" lon="13.595122061669827">
        <ele>933.580017</ele>
        <time>2017-06-16T13:43:55Z</time>
      </trkpt>
      <trkpt lat="41.881486186757684" lon="13.595387684181333">
        <ele>935.01995799999997</ele>
        <time>2017-06-16T13:44:12Z</time>
      </trkpt>
      <trkpt lat="41.881548296660185" lon="13.595587927848101">
        <ele>938.38000499999998</ele>
        <time>2017-06-16T13:44:26Z</time>
      </trkpt>
      <trkpt lat="41.881574364379048" lon="13.595832176506519">
        <ele>940.30999799999995</ele>
        <time>2017-06-16T13:44:42Z</time>
      </trkpt>
      <trkpt lat="41.881591882556677" lon="13.596080867573619">
        <ele>939.82995600000004</ele>
        <time>2017-06-16T13:44:56Z</time>
      </trkpt>
      <trkpt lat="41.881575118750334" lon="13.596305586397648">
        <ele>938.85998500000005</ele>
        <time>2017-06-16T13:45:10Z</time>
      </trkpt>
      <trkpt lat="41.881533125415444" lon="13.596564084291458">
        <ele>940.30999799999995</ele>
        <time>2017-06-16T13:45:26Z</time>
      </trkpt>
      <trkpt lat="41.88151728361845" lon="13.596777906641364">
        <ele>941.75</ele>
        <time>2017-06-16T13:45:41Z</time>
      </trkpt>
      <trkpt lat="41.881610490381718" lon="13.596999775618315">
        <ele>939.82995600000004</ele>
        <time>2017-06-16T13:45:57Z</time>
      </trkpt>
      <trkpt lat="41.881606634706259" lon="13.597074961289763">
        <ele>939.34997599999997</ele>
        <time>2017-06-16T13:46:03Z</time>
      </trkpt>
      <trkpt lat="41.881584506481886" lon="13.597125420346856">
        <ele>938.38000499999998</ele>
        <time>2017-06-16T13:46:07Z</time>
      </trkpt>
      <trkpt lat="41.881594816222787" lon="13.597178729251027">
        <ele>937.419983</ele>
        <time>2017-06-16T13:46:11Z</time>
      </trkpt>
      <trkpt lat="41.881604623049498" lon="13.597384504973888">
        <ele>935.01995799999997</ele>
        <time>2017-06-16T13:46:24Z</time>
      </trkpt>
      <trkpt lat="41.881541758775711" lon="13.597628334537148">
        <ele>932.14001499999995</ele>
        <time>2017-06-16T13:46:40Z</time>
      </trkpt>
      <trkpt lat="41.881489958614111" lon="13.59779354184866">
        <ele>931.17004399999996</ele>
        <time>2017-06-16T13:46:51Z</time>
      </trkpt>
      <trkpt lat="41.881488114595413" lon="13.597879288718104">
        <ele>930.21002199999998</ele>
        <time>2017-06-16T13:46:56Z</time>
      </trkpt>
      <trkpt lat="41.881458358839154" lon="13.598165363073349">
        <ele>927.80999799999995</ele>
        <time>2017-06-16T13:47:13Z</time>
      </trkpt>
      <trkpt lat="41.881417874246836" lon="13.598339119926095">
        <ele>926.36999500000002</ele>
        <time>2017-06-16T13:47:25Z</time>
      </trkpt>
      <trkpt lat="41.881336569786072" lon="13.598565263673663">
        <ele>924.93005400000004</ele>
        <time>2017-06-16T13:47:40Z</time>
      </trkpt>
      <trkpt lat="41.881248559802771" lon="13.598743630573153">
        <ele>923.95996100000002</ele>
        <time>2017-06-16T13:47:52Z</time>
      </trkpt>
      <trkpt lat="41.88114982098341" lon="13.59893599525094">
        <ele>923.00006099999996</ele>
        <time>2017-06-16T13:48:05Z</time>
      </trkpt>
      <trkpt lat="41.881122076883912" lon="13.598995674401522">
        <ele>922.04003899999998</ele>
        <time>2017-06-16T13:48:10Z</time>
      </trkpt>
      <trkpt lat="41.881077568978071" lon="13.599064741283655">
        <ele>921.55999799999995</ele>
        <time>2017-06-16T13:48:16Z</time>
      </trkpt>
      <trkpt lat="41.880992408841848" lon="13.599334806203842">
        <ele>920.11999500000002</ele>
        <time>2017-06-16T13:48:33Z</time>
      </trkpt>
      <trkpt lat="41.880927197635174" lon="13.599557094275951">
        <ele>919.64001499999995</ele>
        <time>2017-06-16T13:48:47Z</time>
      </trkpt>
      <trkpt lat="41.880809934809804" lon="13.599840234965086">
        <ele>918.20001200000002</ele>
        <time>2017-06-16T13:49:06Z</time>
      </trkpt>
      <trkpt lat="41.880728965625167" lon="13.599986499175429">
        <ele>917.71997099999999</ele>
        <time>2017-06-16T13:49:21Z</time>
      </trkpt>
      <trkpt lat="41.880640620365739" lon="13.600237369537354">
        <ele>917.71997099999999</ele>
        <time>2017-06-16T13:49:37Z</time>
      </trkpt>
      <trkpt lat="41.880506174638867" lon="13.600426129996777">
        <ele>917.71997099999999</ele>
        <time>2017-06-16T13:49:51Z</time>
      </trkpt>
      <trkpt lat="41.880444986745715" lon="13.600684041157365">
        <ele>917.71997099999999</ele>
        <time>2017-06-16T13:50:06Z</time>
      </trkpt>
      <trkpt lat="41.880351779982448" lon="13.600950837135315">
        <ele>917.71997099999999</ele>
        <time>2017-06-16T13:50:24Z</time>
      </trkpt>
      <trkpt lat="41.880312636494637" lon="13.600964918732643">
        <ele>917.23999000000003</ele>
        <time>2017-06-16T13:50:31Z</time>
      </trkpt>
      <trkpt lat="41.880137706175447" lon="13.601106908172369">
        <ele>917.23999000000003</ele>
        <time>2017-06-16T13:50:45Z</time>
      </trkpt>
      <trkpt lat="41.880105938762426" lon="13.601164324209094">
        <ele>917.23999000000003</ele>
        <time>2017-06-16T13:50:51Z</time>
      </trkpt>
      <trkpt lat="41.879909634590149" lon="13.601359035819769">
        <ele>916.75</ele>
        <time>2017-06-16T13:51:09Z</time>
      </trkpt>
      <trkpt lat="41.879758760333061" lon="13.601523488759995">
        <ele>916.75</ele>
        <time>2017-06-16T13:51:23Z</time>
      </trkpt>
      <trkpt lat="41.879662703722715" lon="13.601642176508904">
        <ele>917.71997099999999</ele>
        <time>2017-06-16T13:51:34Z</time>
      </trkpt>
      <trkpt lat="41.879572933539748" lon="13.601819705218077">
        <ele>918.67999299999997</ele>
        <time>2017-06-16T13:51:48Z</time>
      </trkpt>
      <trkpt lat="41.879438236355782" lon="13.601964628323913">
        <ele>920.11999500000002</ele>
        <time>2017-06-16T13:52:03Z</time>
      </trkpt>
      <trkpt lat="41.879303874447942" lon="13.602205691859126">
        <ele>920.11999500000002</ele>
        <time>2017-06-16T13:52:18Z</time>
      </trkpt>
      <trkpt lat="41.879221061244607" lon="13.602502662688494">
        <ele>920.60003700000004</ele>
        <time>2017-06-16T13:52:34Z</time>
      </trkpt>
      <trkpt lat="41.879091560840607" lon="13.602619003504515">
        <ele>921.55999799999995</ele>
        <time>2017-06-16T13:52:48Z</time>
      </trkpt>
      <trkpt lat="41.878996510058641" lon="13.602805500850081">
        <ele>921.55999799999995</ele>
        <time>2017-06-16T13:53:02Z</time>
      </trkpt>
      <trkpt lat="41.878867177292705" lon="13.602991076186299">
        <ele>922.04003899999998</ele>
        <time>2017-06-16T13:53:15Z</time>
      </trkpt>
      <trkpt lat="41.878734240308404" lon="13.603226859122515">
        <ele>922.04003899999998</ele>
        <time>2017-06-16T13:53:32Z</time>
      </trkpt>
      <trkpt lat="41.878705909475684" lon="13.603361304849386">
        <ele>922.51995799999997</ele>
        <time>2017-06-16T13:53:42Z</time>
      </trkpt>
      <trkpt lat="41.878626281395555" lon="13.603629777207971">
        <ele>923.00006099999996</ele>
        <time>2017-06-16T13:53:58Z</time>
      </trkpt>
      <trkpt lat="41.878622677177191" lon="13.603794481605291">
        <ele>921.55999799999995</ele>
        <time>2017-06-16T13:54:06Z</time>
      </trkpt>
      <trkpt lat="41.878547072410583" lon="13.604065384715796">
        <ele>921.55999799999995</ele>
        <time>2017-06-16T13:54:22Z</time>
      </trkpt>
      <trkpt lat="41.878454117104411" lon="13.604275267571211">
        <ele>922.51995799999997</ele>
        <time>2017-06-16T13:54:37Z</time>
      </trkpt>
      <trkpt lat="41.878364682197571" lon="13.604520438238978">
        <ele>922.51995799999997</ele>
        <time>2017-06-16T13:54:52Z</time>
      </trkpt>
      <trkpt lat="41.878234930336475" lon="13.604701487347484">
        <ele>923.47997999999995</ele>
        <time>2017-06-16T13:55:08Z</time>
      </trkpt>
      <trkpt lat="41.878141472116113" lon="13.604897959157825">
        <ele>924.93005400000004</ele>
        <time>2017-06-16T13:55:22Z</time>
      </trkpt>
      <trkpt lat="41.878064190968871" lon="13.605179591104388">
        <ele>924.45001200000002</ele>
        <time>2017-06-16T13:55:39Z</time>
      </trkpt>
      <trkpt lat="41.877981796860695" lon="13.605405231937766">
        <ele>924.93005400000004</ele>
        <time>2017-06-16T13:55:54Z</time>
      </trkpt>
      <trkpt lat="41.877962434664369" lon="13.605431718751788">
        <ele>924.93005400000004</ele>
        <time>2017-06-16T13:55:57Z</time>
      </trkpt>
      <trkpt lat="41.877949107438326" lon="13.605436664074659">
        <ele>925.410034</ele>
        <time>2017-06-16T13:55:58Z</time>
      </trkpt>
      <trkpt lat="41.877939384430647" lon="13.60544353723526">
        <ele>925.88995399999999</ele>
        <time>2017-06-16T13:55:59Z</time>
      </trkpt>
      <trkpt lat="41.877836119383574" lon="13.605495672672987">
        <ele>927.80999799999995</ele>
        <time>2017-06-16T13:56:10Z</time>
      </trkpt>
      <trkpt lat="41.877825558185577" lon="13.605504641309381">
        <ele>927.80999799999995</ele>
        <time>2017-06-16T13:56:11Z</time>
      </trkpt>
      <trkpt lat="41.87781348824501" lon="13.605517214164138">
        <ele>927.80999799999995</ele>
        <time>2017-06-16T13:56:12Z</time>
      </trkpt>
      <trkpt lat="41.877804435789585" lon="13.605534983798862">
        <ele>927.80999799999995</ele>
        <time>2017-06-16T13:56:13Z</time>
      </trkpt>
      <trkpt lat="41.877796892076731" lon="13.605555770918727">
        <ele>927.80999799999995</ele>
        <time>2017-06-16T13:56:14Z</time>
      </trkpt>
      <trkpt lat="41.877792533487082" lon="13.605573875829577">
        <ele>927.80999799999995</ele>
        <time>2017-06-16T13:56:15Z</time>
      </trkpt>
      <trkpt lat="41.877789935097098" lon="13.605591477826238">
        <ele>927.80999799999995</ele>
        <time>2017-06-16T13:56:16Z</time>
      </trkpt>
      <trkpt lat="41.877761520445347" lon="13.60570446588099">
        <ele>928.28997800000002</ele>
        <time>2017-06-16T13:56:24Z</time>
      </trkpt>
      <trkpt lat="41.877750959247351" lon="13.60570932738483">
        <ele>928.77002000000005</ele>
        <time>2017-06-16T13:56:25Z</time>
      </trkpt>
      <trkpt lat="41.877740314230323" lon="13.605719720944762">
        <ele>928.77002000000005</ele>
        <time>2017-06-16T13:56:26Z</time>
      </trkpt>
      <trkpt lat="41.877656662836671" lon="13.605909235775471">
        <ele>929.72997999999995</ele>
        <time>2017-06-16T13:56:39Z</time>
      </trkpt>
      <trkpt lat="41.87754862010479" lon="13.606178127229214">
        <ele>930.21002199999998</ele>
        <time>2017-06-16T13:56:56Z</time>
      </trkpt>
      <trkpt lat="41.877523893490434" lon="13.606249373406172">
        <ele>930.69000200000005</ele>
        <time>2017-06-16T13:57:12Z</time>
      </trkpt>
      <trkpt lat="41.877427082508802" lon="13.606544332578778">
        <ele>930.69000200000005</ele>
        <time>2017-06-16T13:57:29Z</time>
      </trkpt>
      <trkpt lat="41.877317111939192" lon="13.606728566810489">
        <ele>930.69000200000005</ele>
        <time>2017-06-16T13:57:44Z</time>
      </trkpt>
      <trkpt lat="41.877311998978257" lon="13.606744073331356">
        <ele>930.69000200000005</ele>
        <time>2017-06-16T13:57:45Z</time>
      </trkpt>
      <trkpt lat="41.877305125817657" lon="13.606763016432524">
        <ele>930.69000200000005</ele>
        <time>2017-06-16T13:57:46Z</time>
      </trkpt>
      <trkpt lat="41.877247709780931" lon="13.607025537639856">
        <ele>931.17004399999996</ele>
        <time>2017-06-16T13:58:02Z</time>
      </trkpt>
      <trkpt lat="41.87716213054955" lon="13.607259728014469">
        <ele>931.65002400000003</ele>
        <time>2017-06-16T13:58:17Z</time>
      </trkpt>
      <trkpt lat="41.87706146389246" lon="13.607451841235161">
        <ele>931.65002400000003</ele>
        <time>2017-06-16T13:58:31Z</time>
      </trkpt>
      <trkpt lat="41.877015866339207" lon="13.607749734073877">
        <ele>930.69000200000005</ele>
        <time>2017-06-16T13:58:48Z</time>
      </trkpt>
      <trkpt lat="41.87706246972084" lon="13.6079575214535">
        <ele>930.69000200000005</ele>
        <time>2017-06-16T13:59:01Z</time>
      </trkpt>
      <trkpt lat="41.877144612371922" lon="13.608159860596061">
        <ele>932.61999500000002</ele>
        <time>2017-06-16T13:59:15Z</time>
      </trkpt>
      <trkpt lat="41.877147378399968" lon="13.608179893344641">
        <ele>932.14001499999995</ele>
        <time>2017-06-16T13:59:16Z</time>
      </trkpt>
      <trkpt lat="41.877170260995626" lon="13.608314758166671">
        <ele>931.17004399999996</ele>
        <time>2017-06-16T13:59:24Z</time>
      </trkpt>
      <trkpt lat="41.877204291522503" lon="13.608583398163319">
        <ele>930.21002199999998</ele>
        <time>2017-06-16T13:59:40Z</time>
      </trkpt>
      <trkpt lat="41.877187695354223" lon="13.608852038159966">
        <ele>930.21002199999998</ele>
        <time>2017-06-16T13:59:55Z</time>
      </trkpt>
      <trkpt lat="41.877159364521503" lon="13.609136771410704">
        <ele>930.21002199999998</ele>
        <time>2017-06-16T14:00:10Z</time>
      </trkpt>
      <trkpt lat="41.877132039517164" lon="13.609375404193997">
        <ele>929.72997999999995</ele>
        <time>2017-06-16T14:00:25Z</time>
      </trkpt>
      <trkpt lat="41.877118293195963" lon="13.609652426093817">
        <ele>931.17004399999996</ele>
        <time>2017-06-16T14:00:41Z</time>
      </trkpt>
      <trkpt lat="41.877119885757565" lon="13.60966868698597">
        <ele>931.17004399999996</ele>
        <time>2017-06-16T14:00:42Z</time>
      </trkpt>
      <trkpt lat="41.877144863829017" lon="13.609732808545232">
        <ele>931.65002400000003</ele>
        <time>2017-06-16T14:00:54Z</time>
      </trkpt>
      <trkpt lat="41.877102702856064" lon="13.609823836013675">
        <ele>931.65002400000003</ele>
        <time>2017-06-16T14:01:02Z</time>
      </trkpt>
      <trkpt lat="41.877056183293462" lon="13.609881503507495">
        <ele>931.65002400000003</ele>
        <time>2017-06-16T14:01:07Z</time>
      </trkpt>
      <trkpt lat="41.877015195786953" lon="13.609934980049729">
        <ele>932.14001499999995</ele>
        <time>2017-06-16T14:01:12Z</time>
      </trkpt>
      <trkpt lat="41.876932634040713" lon="13.61002542078495">
        <ele>932.14001499999995</ele>
        <time>2017-06-16T14:01:21Z</time>
      </trkpt>
      <trkpt lat="41.876899274066091" lon="13.61007428728044">
        <ele>932.14001499999995</ele>
        <time>2017-06-16T14:01:25Z</time>
      </trkpt>
      <trkpt lat="41.876749908551574" lon="13.610238404944539">
        <ele>932.61999500000002</ele>
        <time>2017-06-16T14:01:40Z</time>
      </trkpt>
      <trkpt lat="41.87666273675859" lon="13.610362373292446">
        <ele>933.10003700000004</ele>
        <time>2017-06-16T14:01:51Z</time>
      </trkpt>
      <trkpt lat="41.876642536371946" lon="13.61040260642767">
        <ele>933.580017</ele>
        <time>2017-06-16T14:01:55Z</time>
      </trkpt>
      <trkpt lat="41.876591322943568" lon="13.610475864261389">
        <ele>933.580017</ele>
        <time>2017-06-16T14:02:00Z</time>
      </trkpt>
      <trkpt lat="41.876467941328883" lon="13.610659092664719">
        <ele>934.54003899999998</ele>
        <time>2017-06-16T14:02:16Z</time>
      </trkpt>
      <trkpt lat="41.876425025984645" lon="13.610688764601946">
        <ele>934.54003899999998</ele>
        <time>2017-06-16T14:02:20Z</time>
      </trkpt>
      <trkpt lat="41.876333663240075" lon="13.610855480656028">
        <ele>935.50006099999996</ele>
        <time>2017-06-16T14:02:34Z</time>
      </trkpt>
      <trkpt lat="41.876196032389998" lon="13.610997637733817">
        <ele>935.50006099999996</ele>
        <time>2017-06-16T14:02:48Z</time>
      </trkpt>
      <trkpt lat="41.876121265813708" lon="13.611098472028971">
        <ele>936.45996100000002</ele>
        <time>2017-06-16T14:03:00Z</time>
      </trkpt>
      <trkpt lat="41.876104837283492" lon="13.611147925257683">
        <ele>936.45996100000002</ele>
        <time>2017-06-16T14:03:09Z</time>
      </trkpt>
      <trkpt lat="41.876054713502526" lon="13.611210538074374">
        <ele>936.45996100000002</ele>
        <time>2017-06-16T14:03:13Z</time>
      </trkpt>
      <trkpt lat="41.875948095694184" lon="13.611386809498072">
        <ele>936.45996100000002</ele>
        <time>2017-06-16T14:03:26Z</time>
      </trkpt>
      <trkpt lat="41.875855978578329" lon="13.611568277701735">
        <ele>936.45996100000002</ele>
        <time>2017-06-16T14:03:40Z</time>
      </trkpt>
      <trkpt lat="41.875752378255129" lon="13.611740106716752">
        <ele>937.419983</ele>
        <time>2017-06-16T14:03:56Z</time>
      </trkpt>
      <trkpt lat="41.875679539516568" lon="13.611875390633941">
        <ele>937.419983</ele>
        <time>2017-06-16T14:04:08Z</time>
      </trkpt>
      <trkpt lat="41.87561902217567" lon="13.612064067274332">
        <ele>937.90002400000003</ele>
        <time>2017-06-16T14:04:21Z</time>
      </trkpt>
      <trkpt lat="41.875492371618748" lon="13.612230867147446">
        <ele>938.38000499999998</ele>
        <time>2017-06-16T14:04:37Z</time>
      </trkpt>
      <trkpt lat="41.875398829579353" lon="13.612301694229245">
        <ele>938.38000499999998</ele>
        <time>2017-06-16T14:04:47Z</time>
      </trkpt>
      <trkpt lat="41.875294893980026" lon="13.612469835206866">
        <ele>939.34997599999997</ele>
        <time>2017-06-16T14:05:00Z</time>
      </trkpt>
      <trkpt lat="41.875122813507915" lon="13.612514678388834">
        <ele>939.82995600000004</ele>
        <time>2017-06-16T14:05:13Z</time>
      </trkpt>
      <trkpt lat="41.87507763504982" lon="13.612536136060953">
        <ele>941.27002000000005</ele>
        <time>2017-06-16T14:05:17Z</time>
      </trkpt>
      <trkpt lat="41.874988367781043" lon="13.612745683640242">
        <ele>941.75</ele>
        <time>2017-06-16T14:05:32Z</time>
      </trkpt>
      <trkpt lat="41.87490220181644" lon="13.612870071083307">
        <ele>944.62994400000002</ele>
        <time>2017-06-16T14:05:45Z</time>
      </trkpt>
      <trkpt lat="41.874874541535974" lon="13.61307542771101">
        <ele>943.67004399999996</ele>
        <time>2017-06-16T14:05:58Z</time>
      </trkpt>
      <trkpt lat="41.874849982559681" lon="13.613290674984455">
        <ele>943.19000200000005</ele>
        <time>2017-06-16T14:06:12Z</time>
      </trkpt>
      <trkpt lat="41.874774461612105" lon="13.613491337746382">
        <ele>942.71002199999998</ele>
        <time>2017-06-16T14:06:27Z</time>
      </trkpt>
      <trkpt lat="41.874668514356017" lon="13.613673560321331">
        <ele>942.71002199999998</ele>
        <time>2017-06-16T14:06:41Z</time>
      </trkpt>
      <trkpt lat="41.87455921433866" lon="13.613828709349036">
        <ele>943.67004399999996</ele>
        <time>2017-06-16T14:06:54Z</time>
      </trkpt>
      <trkpt lat="41.874500373378396" lon="13.613888220861554">
        <ele>943.67004399999996</ele>
        <time>2017-06-16T14:07:01Z</time>
      </trkpt>
      <trkpt lat="41.874458966776729" lon="13.613980924710631">
        <ele>944.15002400000003</ele>
        <time>2017-06-16T14:07:08Z</time>
      </trkpt>
      <trkpt lat="41.874315133318305" lon="13.614068599417806">
        <ele>945.589966</ele>
        <time>2017-06-16T14:07:21Z</time>
      </trkpt>
      <trkpt lat="41.874286970123649" lon="13.61406097188592">
        <ele>946.07000700000003</ele>
        <time>2017-06-16T14:07:29Z</time>
      </trkpt>
      <trkpt lat="41.874146405607462" lon="13.614259036257863">
        <ele>946.07000700000003</ele>
        <time>2017-06-16T14:07:45Z</time>
      </trkpt>
      <trkpt lat="41.874003494158387" lon="13.61437420360744">
        <ele>947.04003899999998</ele>
        <time>2017-06-16T14:07:58Z</time>
      </trkpt>
      <trkpt lat="41.873872736468911" lon="13.61447386443615">
        <ele>948.47997999999995</ele>
        <time>2017-06-16T14:08:11Z</time>
      </trkpt>
      <trkpt lat="41.87372756190598" lon="13.614566568285227">
        <ele>949.44000200000005</ele>
        <time>2017-06-16T14:08:25Z</time>
      </trkpt>
      <trkpt lat="41.873638713732362" lon="13.614693470299244">
        <ele>950.40002400000003</ele>
        <time>2017-06-16T14:08:38Z</time>
      </trkpt>
      <trkpt lat="41.873600324615836" lon="13.614901090040803">
        <ele>950.88000499999998</ele>
        <time>2017-06-16T14:08:51Z</time>
      </trkpt>
      <trkpt lat="41.873535364866257" lon="13.61508859321475">
        <ele>951.35998500000005</ele>
        <time>2017-06-16T14:09:03Z</time>
      </trkpt>
      <trkpt lat="41.873402511700988" lon="13.615271737799048">
        <ele>953.77002000000005</ele>
        <time>2017-06-16T14:09:19Z</time>
      </trkpt>
      <trkpt lat="41.873339060693979" lon="13.615352287888527">
        <ele>954.25</ele>
        <time>2017-06-16T14:09:26Z</time>
      </trkpt>
      <trkpt lat="41.873257840052247" lon="13.615544401109219">
        <ele>955.21002199999998</ele>
        <time>2017-06-16T14:09:40Z</time>
      </trkpt>
      <trkpt lat="41.873279297724366" lon="13.61570960842073">
        <ele>958.089966</ele>
        <time>2017-06-16T14:09:53Z</time>
      </trkpt>
      <trkpt lat="41.87335473485291" lon="13.615875570103526">
        <ele>958.089966</ele>
        <time>2017-06-16T14:10:10Z</time>
      </trkpt>
      <trkpt lat="41.8733224645257" lon="13.616022588685155">
        <ele>958.089966</ele>
        <time>2017-06-16T14:10:24Z</time>
      </trkpt>
      <trkpt lat="41.873344173654914" lon="13.616232639178634">
        <ele>959.52996800000005</ele>
        <time>2017-06-16T14:10:38Z</time>
      </trkpt>
      <trkpt lat="41.8733483646065" lon="13.616445623338223">
        <ele>960.01000999999997</ele>
        <time>2017-06-16T14:10:50Z</time>
      </trkpt>
      <trkpt lat="41.87334249727428" lon="13.616622565314174">
        <ele>960.48999000000003</ele>
        <time>2017-06-16T14:11:03Z</time>
      </trkpt>
      <trkpt lat="41.873332019895315" lon="13.61665852367878">
        <ele>960.48999000000003</ele>
        <time>2017-06-16T14:11:05Z</time>
      </trkpt>
      <trkpt lat="41.873293882235885" lon="13.616838064044714">
        <ele>960.48999000000003</ele>
        <time>2017-06-16T14:11:17Z</time>
      </trkpt>
      <trkpt lat="41.873267395421863" lon="13.617002433165908">
        <ele>960.48999000000003</ele>
        <time>2017-06-16T14:11:31Z</time>
      </trkpt>
      <trkpt lat="41.873217858374119" lon="13.617127491161227">
        <ele>960.48999000000003</ele>
        <time>2017-06-16T14:11:41Z</time>
      </trkpt>
      <trkpt lat="41.87314560636878" lon="13.617208125069737">
        <ele>960.48999000000003</ele>
        <time>2017-06-16T14:11:47Z</time>
      </trkpt>
      <trkpt lat="41.872977130115032" lon="13.61741540953517">
        <ele>960.48999000000003</ele>
        <time>2017-06-16T14:12:04Z</time>
      </trkpt>
      <trkpt lat="41.872855508700013" lon="13.617507359012961">
        <ele>960.48999000000003</ele>
        <time>2017-06-16T14:12:18Z</time>
      </trkpt>
      <trkpt lat="41.872835392132401" lon="13.617550525814295">
        <ele>960.48999000000003</ele>
        <time>2017-06-16T14:12:38Z</time>
      </trkpt>
      <trkpt lat="41.872809492051601" lon="13.617559662088752">
        <ele>960.01000999999997</ele>
        <time>2017-06-16T14:13:03Z</time>
      </trkpt>
      <trkpt lat="41.872797422111034" lon="13.617580365389585">
        <ele>960.01000999999997</ele>
        <time>2017-06-16T14:13:28Z</time>
      </trkpt>
      <trkpt lat="41.872783089056611" lon="13.617587238550186">
        <ele>960.01000999999997</ele>
        <time>2017-06-16T14:13:43Z</time>
      </trkpt>
      <trkpt lat="41.872809492051601" lon="13.617550861090422">
        <ele>960.01000999999997</ele>
        <time>2017-06-16T14:14:02Z</time>
      </trkpt>
      <trkpt lat="41.872806726023555" lon="13.617562260478735">
        <ele>958.57000700000003</ele>
        <time>2017-06-16T14:14:18Z</time>
      </trkpt>
      <trkpt lat="41.872806306928396" lon="13.617566786706448">
        <ele>960.01000999999997</ele>
        <time>2017-06-16T14:14:24Z</time>
      </trkpt>
      <trkpt lat="41.872800439596176" lon="13.617613138630986">
        <ele>960.01000999999997</ele>
        <time>2017-06-16T14:14:42Z</time>
      </trkpt>
      <trkpt lat="41.87279767356813" lon="13.617620263248682">
        <ele>960.01000999999997</ele>
        <time>2017-06-16T14:14:44Z</time>
      </trkpt>
      <trkpt lat="41.872780490666628" lon="13.617701902985573">
        <ele>960.01000999999997</ele>
        <time>2017-06-16T14:14:50Z</time>
      </trkpt>
      <trkpt lat="41.872675213962793" lon="13.617917988449335">
        <ele>960.01000999999997</ele>
        <time>2017-06-16T14:15:07Z</time>
      </trkpt>
      <trkpt lat="41.872644620016217" lon="13.617999376729131">
        <ele>960.01000999999997</ele>
        <time>2017-06-16T14:15:12Z</time>
      </trkpt>
      <trkpt lat="41.872623078525066" lon="13.61806383356452">
        <ele>960.01000999999997</ele>
        <time>2017-06-16T14:15:16Z</time>
      </trkpt>
      <trkpt lat="41.872515035793185" lon="13.618328869342804">
        <ele>959.04998799999998</ele>
        <time>2017-06-16T14:15:33Z</time>
      </trkpt>
      <trkpt lat="41.872420320287347" lon="13.618528107181191">
        <ele>960.01000999999997</ele>
        <time>2017-06-16T14:15:48Z</time>
      </trkpt>
      <trkpt lat="41.872322335839272" lon="13.618693230673671">
        <ele>960.01000999999997</ele>
        <time>2017-06-16T14:16:02Z</time>
      </trkpt>
      <trkpt lat="41.872220663353801" lon="13.618917530402541">
        <ele>960.48999000000003</ele>
        <time>2017-06-16T14:16:17Z</time>
      </trkpt>
      <trkpt lat="41.872112536802888" lon="13.619138980284333">
        <ele>960.97997999999995</ele>
        <time>2017-06-16T14:16:32Z</time>
      </trkpt>
      <trkpt lat="41.872024359181523" lon="13.619338134303689">
        <ele>960.97997999999995</ele>
        <time>2017-06-16T14:16:48Z</time>
      </trkpt>
      <trkpt lat="41.871938863769174" lon="13.619557237252593">
        <ele>961.45996100000002</ele>
        <time>2017-06-16T14:17:02Z</time>
      </trkpt>
      <trkpt lat="41.871928218752146" lon="13.619582215324044">
        <ele>961.45996100000002</ele>
        <time>2017-06-16T14:17:04Z</time>
      </trkpt>
      <trkpt lat="41.87187566421926" lon="13.619657987728715">
        <ele>961.94000200000005</ele>
        <time>2017-06-16T14:17:09Z</time>
      </trkpt>
      <trkpt lat="41.871753958985209" lon="13.619866361841559">
        <ele>962.90002400000003</ele>
        <time>2017-06-16T14:17:25Z</time>
      </trkpt>
      <trkpt lat="41.871611466631293" lon="13.620042717084289">
        <ele>963.38000499999998</ele>
        <time>2017-06-16T14:17:41Z</time>
      </trkpt>
      <trkpt lat="41.871457658708096" lon="13.620188562199473">
        <ele>963.85998500000005</ele>
        <time>2017-06-16T14:17:57Z</time>
      </trkpt>
      <trkpt lat="41.871248781681061" lon="13.620284870266914">
        <ele>963.85998500000005</ele>
        <time>2017-06-16T14:18:14Z</time>
      </trkpt>
      <trkpt lat="41.871030433103442" lon="13.620391823351383">
        <ele>964.82000700000003</ele>
        <time>2017-06-16T14:18:31Z</time>
      </trkpt>
      <trkpt lat="41.870980896055698" lon="13.620420740917325">
        <ele>964.82000700000003</ele>
        <time>2017-06-16T14:18:37Z</time>
      </trkpt>
      <trkpt lat="41.870853658765554" lon="13.620482934638858">
        <ele>964.82000700000003</ele>
        <time>2017-06-16T14:18:49Z</time>
      </trkpt>
      <trkpt lat="41.870664311572909" lon="13.620630037039518">
        <ele>964.82000700000003</ele>
        <time>2017-06-16T14:19:07Z</time>
      </trkpt>
      <trkpt lat="41.870516873896122" lon="13.620762890204787">
        <ele>965.29998799999998</ele>
        <time>2017-06-16T14:19:21Z</time>
      </trkpt>
      <trkpt lat="41.870331466197968" lon="13.620924241840839">
        <ele>965.78002900000001</ele>
        <time>2017-06-16T14:19:38Z</time>
      </trkpt>
      <trkpt lat="41.870308835059404" lon="13.620937066152692">
        <ele>965.78002900000001</ele>
        <time>2017-06-16T14:19:40Z</time>
      </trkpt>
      <trkpt lat="41.870162487030029" lon="13.621130436658859">
        <ele>966.74005099999999</ele>
        <time>2017-06-16T14:19:57Z</time>
      </trkpt>
      <trkpt lat="41.870055114850402" lon="13.621289441362023">
        <ele>967.21997099999999</ele>
        <time>2017-06-16T14:20:12Z</time>
      </trkpt>
      <trkpt lat="41.869955286383629" lon="13.621468562632799">
        <ele>967.69995100000006</ele>
        <time>2017-06-16T14:20:27Z</time>
      </trkpt>
      <trkpt lat="41.869843387976289" lon="13.621621364727616">
        <ele>968.67004399999996</ele>
        <time>2017-06-16T14:20:40Z</time>
      </trkpt>
      <trkpt lat="41.869731238111854" lon="13.621752960607409">
        <ele>969.15002400000003</ele>
        <time>2017-06-16T14:20:52Z</time>
      </trkpt>
      <trkpt lat="41.869565611705184" lon="13.621903834864497">
        <ele>970.10998500000005</ele>
        <time>2017-06-16T14:21:08Z</time>
      </trkpt>
      <trkpt lat="41.869445582851768" lon="13.622010285034776">
        <ele>971.07000700000003</ele>
        <time>2017-06-16T14:21:20Z</time>
      </trkpt>
      <trkpt lat="41.869487324729562" lon="13.6222127918154">
        <ele>972.98999000000003</ele>
        <time>2017-06-16T14:21:36Z</time>
      </trkpt>
      <trkpt lat="41.869469219818711" lon="13.622345896437764">
        <ele>974.42999299999997</ele>
        <time>2017-06-16T14:21:50Z</time>
      </trkpt>
      <trkpt lat="41.869459161534905" lon="13.622349919751287">
        <ele>973.95001200000002</ele>
        <time>2017-06-16T14:21:52Z</time>
      </trkpt>
      <trkpt lat="41.869335863739252" lon="13.622492076829076">
        <ele>975.88000499999998</ele>
        <time>2017-06-16T14:22:09Z</time>
      </trkpt>
      <trkpt lat="41.869249697774649" lon="13.622626271098852">
        <ele>976.35998500000005</ele>
        <time>2017-06-16T14:22:21Z</time>
      </trkpt>
      <trkpt lat="41.86914810910821" lon="13.622749568894506">
        <ele>978.28002900000001</ele>
        <time>2017-06-16T14:22:35Z</time>
      </trkpt>
      <trkpt lat="41.869024476036429" lon="13.622769769281149">
        <ele>978.75994900000001</ele>
        <time>2017-06-16T14:22:42Z</time>
      </trkpt>
      <trkpt lat="41.868886929005384" lon="13.622898012399673">
        <ele>979.71997099999999</ele>
        <time>2017-06-16T14:22:58Z</time>
      </trkpt>
      <trkpt lat="41.868789698928595" lon="13.622974287718534">
        <ele>980.67999299999997</ele>
        <time>2017-06-16T14:23:12Z</time>
      </trkpt>
      <trkpt lat="41.86876212246716" lon="13.622907483950257">
        <ele>980.67999299999997</ele>
        <time>2017-06-16T14:23:41Z</time>
      </trkpt>
      <trkpt lat="41.868802439421415" lon="13.62290128134191">
        <ele>980.67999299999997</ele>
        <time>2017-06-16T14:24:03Z</time>
      </trkpt>
      <trkpt lat="41.868844265118241" lon="13.62296087667346">
        <ele>981.15997300000004</ele>
        <time>2017-06-16T14:24:32Z</time>
      </trkpt>
      <trkpt lat="41.868831440806389" lon="13.622915698215365">
        <ele>981.15997300000004</ele>
        <time>2017-06-16T14:25:01Z</time>
      </trkpt>
      <trkpt lat="41.868844935670495" lon="13.62291008234024">
        <ele>981.15997300000004</ele>
        <time>2017-06-16T14:25:25Z</time>
      </trkpt>
      <trkpt lat="41.868775617331266" lon="13.62292273901403">
        <ele>981.64001499999995</ele>
        <time>2017-06-16T14:25:53Z</time>
      </trkpt>
      <trkpt lat="41.868733372539282" lon="13.622998427599669">
        <ele>980.67999299999997</ele>
        <time>2017-06-16T14:26:19Z</time>
      </trkpt>
      <trkpt lat="41.868686769157648" lon="13.623108398169279">
        <ele>981.64001499999995</ele>
        <time>2017-06-16T14:26:28Z</time>
      </trkpt>
      <trkpt lat="41.86864678747952" lon="13.623209064826369">
        <ele>982.59997599999997</ele>
        <time>2017-06-16T14:26:38Z</time>
      </trkpt>
      <trkpt lat="41.868590880185366" lon="13.623263631016016">
        <ele>983.089966</ele>
        <time>2017-06-16T14:26:45Z</time>
      </trkpt>
      <trkpt lat="41.86856078915298" lon="13.623289195820689">
        <ele>983.089966</ele>
        <time>2017-06-16T14:26:48Z</time>
      </trkpt>
      <trkpt lat="41.868444364517927" lon="13.623372763395309">
        <ele>984.52996800000005</ele>
        <time>2017-06-16T14:26:59Z</time>
      </trkpt>
      <trkpt lat="41.868376135826111" lon="13.62339036539197">
        <ele>985.48999000000003</ele>
        <time>2017-06-16T14:27:09Z</time>
      </trkpt>
      <trkpt lat="41.86849289573729" lon="13.623411739245057">
        <ele>986.92999299999997</ele>
        <time>2017-06-16T14:27:23Z</time>
      </trkpt>
      <trkpt lat="41.868655839934945" lon="13.623300930485129">
        <ele>987.410034</ele>
        <time>2017-06-16T14:27:40Z</time>
      </trkpt>
      <trkpt lat="41.868686769157648" lon="13.623286513611674">
        <ele>987.89001499999995</ele>
        <time>2017-06-16T14:27:44Z</time>
      </trkpt>
      <trkpt lat="41.868837475776672" lon="13.6231470387429">
        <ele>988.84997599999997</ele>
        <time>2017-06-16T14:27:59Z</time>
      </trkpt>
      <trkpt lat="41.868849629536271" lon="13.623139159753919">
        <ele>988.84997599999997</ele>
        <time>2017-06-16T14:28:00Z</time>
      </trkpt>
      <trkpt lat="41.868927162140608" lon="13.623138573020697">
        <ele>989.32995600000004</ele>
        <time>2017-06-16T14:28:05Z</time>
      </trkpt>
      <trkpt lat="41.868973765522242" lon="13.623135639354587">
        <ele>989.32995600000004</ele>
        <time>2017-06-16T14:28:09Z</time>
      </trkpt>
      <trkpt lat="41.869018441066146" lon="13.623084761202335">
        <ele>989.32995600000004</ele>
        <time>2017-06-16T14:28:13Z</time>
      </trkpt>
      <trkpt lat="41.869178200140595" lon="13.623021058738232">
        <ele>990.30004899999994</ele>
        <time>2017-06-16T14:28:27Z</time>
      </trkpt>
      <trkpt lat="41.869187084957957" lon="13.62304980866611">
        <ele>990.78002900000001</ele>
        <time>2017-06-16T14:28:42Z</time>
      </trkpt>
      <trkpt lat="41.869192784652114" lon="13.623065818101168">
        <ele>990.78002900000001</ele>
        <time>2017-06-16T14:28:44Z</time>
      </trkpt>
      <trkpt lat="41.869201334193349" lon="13.623087778687477">
        <ele>990.78002900000001</ele>
        <time>2017-06-16T14:28:46Z</time>
      </trkpt>
      <trkpt lat="41.869211727753282" lon="13.62312650308013">
        <ele>991.25994900000001</ele>
        <time>2017-06-16T14:28:49Z</time>
      </trkpt>
      <trkpt lat="41.869264366105199" lon="13.623549034819007">
        <ele>991.25994900000001</ele>
        <time>2017-06-16T14:29:15Z</time>
      </trkpt>
      <trkpt lat="41.869199322536588" lon="13.623043773695827">
        <ele>996.54003899999998</ele>
        <time>2017-06-16T14:30:17Z</time>
      </trkpt>
      <trkpt lat="41.869212901219726" lon="13.623025417327881">
        <ele>996.54003899999998</ele>
        <time>2017-06-16T14:30:35Z</time>
      </trkpt>
      <trkpt lat="41.869212063029408" lon="13.623016364872456">
        <ele>995.09997599999997</ele>
        <time>2017-06-16T14:30:47Z</time>
      </trkpt>
      <trkpt lat="41.869199406355619" lon="13.623018376529217">
        <ele>996.54003899999998</ele>
        <time>2017-06-16T14:30:51Z</time>
      </trkpt>
      <trkpt lat="41.869061104953289" lon="13.623079061508179">
        <ele>986.92999299999997</ele>
        <time>2017-06-17T06:49:15Z</time>
      </trkpt>
      <trkpt lat="41.869063535705209" lon="13.62307813949883">
        <ele>986.92999299999997</ele>
        <time>2017-06-17T06:49:16Z</time>
      </trkpt>
      <trkpt lat="41.869064960628748" lon="13.623075122013688">
        <ele>982.11999500000002</ele>
        <time>2017-06-17T06:49:19Z</time>
      </trkpt>
      <trkpt lat="41.869065379723907" lon="13.623073194175959">
        <ele>982.11999500000002</ele>
        <time>2017-06-17T06:49:20Z</time>
      </trkpt>
      <trkpt lat="41.869086502119899" lon="13.623047294095159">
        <ele>980.67999299999997</ele>
        <time>2017-06-17T06:49:40Z</time>
      </trkpt>
      <trkpt lat="41.868920372799039" lon="13.623175537213683">
        <ele>979.71997099999999</ele>
        <time>2017-06-17T06:49:59Z</time>
      </trkpt>
      <trkpt lat="41.868755416944623" lon="13.623277712613344">
        <ele>979.24005099999999</ele>
        <time>2017-06-17T06:50:15Z</time>
      </trkpt>
      <trkpt lat="41.868566405028105" lon="13.623337727040052">
        <ele>978.28002900000001</ele>
        <time>2017-06-17T06:50:34Z</time>
      </trkpt>
      <trkpt lat="41.868531201034784" lon="13.623364297673106">
        <ele>977.32000700000003</ele>
        <time>2017-06-17T06:50:39Z</time>
      </trkpt>
      <trkpt lat="41.868430534377694" lon="13.623433029279113">
        <ele>976.84002699999996</ele>
        <time>2017-06-17T06:50:47Z</time>
      </trkpt>
      <trkpt lat="41.868255436420441" lon="13.62349153496325">
        <ele>977.80004899999994</ele>
        <time>2017-06-17T06:51:00Z</time>
      </trkpt>
      <trkpt lat="41.868156027048826" lon="13.6235062032938">
        <ele>978.75994900000001</ele>
        <time>2017-06-17T06:51:11Z</time>
      </trkpt>
      <trkpt lat="41.86807950027287" lon="13.623580634593964">
        <ele>979.24005099999999</ele>
        <time>2017-06-17T06:51:20Z</time>
      </trkpt>
      <trkpt lat="41.867956034839153" lon="13.623761767521501">
        <ele>980.67999299999997</ele>
        <time>2017-06-17T06:51:36Z</time>
      </trkpt>
      <trkpt lat="41.867941869422793" lon="13.62378666177392">
        <ele>981.15997300000004</ele>
        <time>2017-06-17T06:51:38Z</time>
      </trkpt>
      <trkpt lat="41.867885459214449" lon="13.623840222135186">
        <ele>982.11999500000002</ele>
        <time>2017-06-17T06:51:43Z</time>
      </trkpt>
      <trkpt lat="41.867757299914956" lon="13.623957065865397">
        <ele>983.089966</ele>
        <time>2017-06-17T06:51:57Z</time>
      </trkpt>
      <trkpt lat="41.867742463946342" lon="13.62400509417057">
        <ele>983.57000700000003</ele>
        <time>2017-06-17T06:52:00Z</time>
      </trkpt>
      <trkpt lat="41.86758304014802" lon="13.624135013669729">
        <ele>984.52996800000005</ele>
        <time>2017-06-17T06:52:16Z</time>
      </trkpt>
      <trkpt lat="41.867420263588428" lon="13.624279098585248">
        <ele>985.48999000000003</ele>
        <time>2017-06-17T06:52:33Z</time>
      </trkpt>
      <trkpt lat="41.867398135364056" lon="13.62434221431613">
        <ele>985.48999000000003</ele>
        <time>2017-06-17T06:52:37Z</time>
      </trkpt>
      <trkpt lat="41.867255978286266" lon="13.624485209584236">
        <ele>985.97003199999995</ele>
        <time>2017-06-17T06:52:54Z</time>
      </trkpt>
      <trkpt lat="41.867080796509981" lon="13.624646393582225">
        <ele>986.45001200000002</ele>
        <time>2017-06-17T06:53:07Z</time>
      </trkpt>
      <trkpt lat="41.867017764598131" lon="13.624688135460019">
        <ele>986.45001200000002</ele>
        <time>2017-06-17T06:53:14Z</time>
      </trkpt>
      <trkpt lat="41.866953894495964" lon="13.624725518748164">
        <ele>985.01000999999997</ele>
        <time>2017-06-17T06:53:20Z</time>
      </trkpt>
      <trkpt lat="41.866906704381108" lon="13.624800033867359">
        <ele>984.52996800000005</ele>
        <time>2017-06-17T06:53:29Z</time>
      </trkpt>
      <trkpt lat="41.866803271695971" lon="13.624865161255002">
        <ele>983.57000700000003</ele>
        <time>2017-06-17T06:53:41Z</time>
      </trkpt>
      <trkpt lat="41.866742167621851" lon="13.624945711344481">
        <ele>983.089966</ele>
        <time>2017-06-17T06:53:47Z</time>
      </trkpt>
      <trkpt lat="41.86672599054873" lon="13.624989883974195">
        <ele>982.59997599999997</ele>
        <time>2017-06-17T06:53:49Z</time>
      </trkpt>
      <trkpt lat="41.866636807098985" lon="13.625116785988212">
        <ele>982.59997599999997</ele>
        <time>2017-06-17T06:53:57Z</time>
      </trkpt>
      <trkpt lat="41.866552736610174" lon="13.625324070453644">
        <ele>981.64001499999995</ele>
        <time>2017-06-17T06:54:12Z</time>
      </trkpt>
      <trkpt lat="41.866522980853915" lon="13.625490199774504">
        <ele>981.64001499999995</ele>
        <time>2017-06-17T06:54:22Z</time>
      </trkpt>
      <trkpt lat="41.866427510976791" lon="13.625769317150116">
        <ele>979.71997099999999</ele>
        <time>2017-06-17T06:54:40Z</time>
      </trkpt>
      <trkpt lat="41.86641619540751" lon="13.625997388735414">
        <ele>979.24005099999999</ele>
        <time>2017-06-17T06:54:53Z</time>
      </trkpt>
      <trkpt lat="41.86648802831769" lon="13.626301735639572">
        <ele>977.32000700000003</ele>
        <time>2017-06-17T06:55:12Z</time>
      </trkpt>
      <trkpt lat="41.866535386070609" lon="13.626577667891979">
        <ele>975.88000499999998</ele>
        <time>2017-06-17T06:55:29Z</time>
      </trkpt>
      <trkpt lat="41.866553826257586" lon="13.626765171065927">
        <ele>974.910034</ele>
        <time>2017-06-17T06:55:45Z</time>
      </trkpt>
      <trkpt lat="41.86652323231101" lon="13.626846140250564">
        <ele>974.42999299999997</ele>
        <time>2017-06-17T06:55:50Z</time>
      </trkpt>
      <trkpt lat="41.866511330008507" lon="13.627126682549715">
        <ele>972.98999000000003</ele>
        <time>2017-06-17T06:56:06Z</time>
      </trkpt>
      <trkpt lat="41.866506971418858" lon="13.627398423850536">
        <ele>972.02996800000005</ele>
        <time>2017-06-17T06:56:22Z</time>
      </trkpt>
      <trkpt lat="41.866493308916688" lon="13.627688605338335">
        <ele>971.07000700000003</ele>
        <time>2017-06-17T06:56:40Z</time>
      </trkpt>
      <trkpt lat="41.86643966473639" lon="13.628085236996412">
        <ele>970.589966</ele>
        <time>2017-06-17T06:57:01Z</time>
      </trkpt>
      <trkpt lat="41.866377219557762" lon="13.628374328836799">
        <ele>970.589966</ele>
        <time>2017-06-17T06:57:20Z</time>
      </trkpt>
      <trkpt lat="41.866316786035895" lon="13.628654535859823">
        <ele>970.589966</ele>
        <time>2017-06-17T06:57:37Z</time>
      </trkpt>
      <trkpt lat="41.866286862641573" lon="13.628737013787031">
        <ele>970.589966</ele>
        <time>2017-06-17T06:57:42Z</time>
      </trkpt>
      <trkpt lat="41.866251323372126" lon="13.628848660737276">
        <ele>970.10998500000005</ele>
        <time>2017-06-17T06:57:48Z</time>
      </trkpt>
      <trkpt lat="41.866222741082311" lon="13.629108080640435">
        <ele>970.10998500000005</ele>
        <time>2017-06-17T06:58:02Z</time>
      </trkpt>
      <trkpt lat="41.866199020296335" lon="13.629318717867136">
        <ele>969.62994400000002</ele>
        <time>2017-06-17T06:58:16Z</time>
      </trkpt>
      <trkpt lat="41.866140766069293" lon="13.629684839397669">
        <ele>969.15002400000003</ele>
        <time>2017-06-17T06:58:35Z</time>
      </trkpt>
      <trkpt lat="41.866090726107359" lon="13.629991700872779">
        <ele>968.67004399999996</ele>
        <time>2017-06-17T06:58:52Z</time>
      </trkpt>
      <trkpt lat="41.866064826026559" lon="13.63020233809948">
        <ele>968.67004399999996</ele>
        <time>2017-06-17T06:59:05Z</time>
      </trkpt>
      <trkpt lat="41.866032220423222" lon="13.630440384149551">
        <ele>968.67004399999996</ele>
        <time>2017-06-17T06:59:20Z</time>
      </trkpt>
      <trkpt lat="41.865967093035579" lon="13.630726374685764">
        <ele>970.10998500000005</ele>
        <time>2017-06-17T06:59:37Z</time>
      </trkpt>
      <trkpt lat="41.865940941497684" lon="13.631124095991254">
        <ele>970.589966</ele>
        <time>2017-06-17T06:59:58Z</time>
      </trkpt>
      <trkpt lat="41.865943372249603" lon="13.631349569186568">
        <ele>971.07000700000003</ele>
        <time>2017-06-17T07:00:14Z</time>
      </trkpt>
      <trkpt lat="41.865956028923392" lon="13.631362812593579">
        <ele>971.07000700000003</ele>
        <time>2017-06-17T07:00:36Z</time>
      </trkpt>
      <trkpt lat="41.865955861285329" lon="13.631526092067361">
        <ele>971.07000700000003</ele>
        <time>2017-06-17T07:00:44Z</time>
      </trkpt>
      <trkpt lat="41.865950496867299" lon="13.631856087595224">
        <ele>972.51000999999997</ele>
        <time>2017-06-17T07:01:00Z</time>
      </trkpt>
      <trkpt lat="41.86593976803124" lon="13.632025569677353">
        <ele>972.51000999999997</ele>
        <time>2017-06-17T07:01:10Z</time>
      </trkpt>
      <trkpt lat="41.865947060286999" lon="13.632299993187189">
        <ele>973.95001200000002</ele>
        <time>2017-06-17T07:01:26Z</time>
      </trkpt>
      <trkpt lat="41.865941695868969" lon="13.632428236305714">
        <ele>974.42999299999997</ele>
        <time>2017-06-17T07:01:33Z</time>
      </trkpt>
      <trkpt lat="41.865924512967467" lon="13.632690589874983">
        <ele>974.42999299999997</ele>
        <time>2017-06-17T07:01:47Z</time>
      </trkpt>
      <trkpt lat="41.865852680057287" lon="13.63299828954041">
        <ele>974.42999299999997</ele>
        <time>2017-06-17T07:02:05Z</time>
      </trkpt>
      <trkpt lat="41.865722760558128" lon="13.633210267871618">
        <ele>974.910034</ele>
        <time>2017-06-17T07:02:20Z</time>
      </trkpt>
      <trkpt lat="41.865552021190524" lon="13.633420988917351">
        <ele>975.88000499999998</ele>
        <time>2017-06-17T07:02:39Z</time>
      </trkpt>
      <trkpt lat="41.865300228819251" lon="13.633617796003819">
        <ele>976.84002699999996</ele>
        <time>2017-06-17T07:02:58Z</time>
      </trkpt>
      <trkpt lat="41.86508271843195" lon="13.63380404189229">
        <ele>977.32000700000003</ele>
        <time>2017-06-17T07:03:16Z</time>
      </trkpt>
      <trkpt lat="41.864916170015931" lon="13.63395843654871">
        <ele>978.75994900000001</ele>
        <time>2017-06-17T07:03:34Z</time>
      </trkpt>
      <trkpt lat="41.864788932725787" lon="13.634097324684262">
        <ele>979.24005099999999</ele>
        <time>2017-06-17T07:03:45Z</time>
      </trkpt>
      <trkpt lat="41.864631772041321" lon="13.634347273036838">
        <ele>979.71997099999999</ele>
        <time>2017-06-17T07:04:02Z</time>
      </trkpt>
      <trkpt lat="41.864506965503097" lon="13.63460686057806">
        <ele>980.19995100000006</ele>
        <time>2017-06-17T07:04:20Z</time>
      </trkpt>
      <trkpt lat="41.864357683807611" lon="13.634915901347995">
        <ele>981.15997300000004</ele>
        <time>2017-06-17T07:04:41Z</time>
      </trkpt>
      <trkpt lat="41.8641890399158" lon="13.635233826935291">
        <ele>982.11999500000002</ele>
        <time>2017-06-17T07:05:01Z</time>
      </trkpt>
      <trkpt lat="41.864029280841351" lon="13.635502299293876">
        <ele>982.59997599999997</ele>
        <time>2017-06-17T07:05:22Z</time>
      </trkpt>
      <trkpt lat="41.863874718546867" lon="13.635805724188685">
        <ele>983.089966</ele>
        <time>2017-06-17T07:05:41Z</time>
      </trkpt>
      <trkpt lat="41.863715378567576" lon="13.636095318943262">
        <ele>984.04998799999998</ele>
        <time>2017-06-17T07:06:00Z</time>
      </trkpt>
      <trkpt lat="41.86360758729279" lon="13.636290114372969">
        <ele>984.52996800000005</ele>
        <time>2017-06-17T07:06:16Z</time>
      </trkpt>
      <trkpt lat="41.863436009734869" lon="13.636612566187978">
        <ele>985.01000999999997</ele>
        <time>2017-06-17T07:06:38Z</time>
      </trkpt>
      <trkpt lat="41.863300558179617" lon="13.636861592531204">
        <ele>985.97003199999995</ele>
        <time>2017-06-17T07:06:57Z</time>
      </trkpt>
      <trkpt lat="41.863288236781955" lon="13.636841559782624">
        <ele>985.97003199999995</ele>
        <time>2017-06-17T07:07:30Z</time>
      </trkpt>
      <trkpt lat="41.863221265375614" lon="13.636988494545221">
        <ele>985.97003199999995</ele>
        <time>2017-06-17T07:07:59Z</time>
      </trkpt>
      <trkpt lat="41.863101990893483" lon="13.63722050562501">
        <ele>986.92999299999997</ele>
        <time>2017-06-17T07:08:14Z</time>
      </trkpt>
      <trkpt lat="41.862958492711186" lon="13.637446314096451">
        <ele>987.410034</ele>
        <time>2017-06-17T07:08:30Z</time>
      </trkpt>
      <trkpt lat="41.862905938178301" lon="13.63751663826406">
        <ele>987.410034</ele>
        <time>2017-06-17T07:08:35Z</time>
      </trkpt>
      <trkpt lat="41.86270309612155" lon="13.637861469760537">
        <ele>988.37005599999998</ele>
        <time>2017-06-17T07:08:57Z</time>
      </trkpt>
      <trkpt lat="41.862572338432074" lon="13.638100186362863">
        <ele>989.32995600000004</ele>
        <time>2017-06-17T07:09:14Z</time>
      </trkpt>
      <trkpt lat="41.862377962097526" lon="13.638404030352831">
        <ele>989.80999799999995</ele>
        <time>2017-06-17T07:09:34Z</time>
      </trkpt>
      <trkpt lat="41.862198924645782" lon="13.638628162443638">
        <ele>990.30004899999994</ele>
        <time>2017-06-17T07:09:51Z</time>
      </trkpt>
      <trkpt lat="41.862054169178009" lon="13.638841733336449">
        <ele>991.25994900000001</ele>
        <time>2017-06-17T07:10:09Z</time>
      </trkpt>
      <trkpt lat="41.862011337652802" lon="13.638905435800552">
        <ele>991.25994900000001</ele>
        <time>2017-06-17T07:10:15Z</time>
      </trkpt>
      <trkpt lat="41.861832467839122" lon="13.639109283685684">
        <ele>992.21997099999999</ele>
        <time>2017-06-17T07:10:31Z</time>
      </trkpt>
      <trkpt lat="41.861601965501904" lon="13.639379683881998">
        <ele>993.17999299999997</ele>
        <time>2017-06-17T07:10:54Z</time>
      </trkpt>
      <trkpt lat="41.861414965242147" lon="13.639600714668632">
        <ele>993.65997300000004</ele>
        <time>2017-06-17T07:11:13Z</time>
      </trkpt>
      <trkpt lat="41.861251266673207" lon="13.639804059639573">
        <ele>993.65997300000004</ele>
        <time>2017-06-17T07:11:30Z</time>
      </trkpt>
      <trkpt lat="41.861105421558022" lon="13.639979409053922">
        <ele>994.61999500000002</ele>
        <time>2017-06-17T07:11:46Z</time>
      </trkpt>
      <trkpt lat="41.860945411026478" lon="13.640158530324697">
        <ele>995.09997599999997</ele>
        <time>2017-06-17T07:12:00Z</time>
      </trkpt>
      <trkpt lat="41.860736533999443" lon="13.640379393473268">
        <ele>996.05999799999995</ele>
        <time>2017-06-17T07:12:17Z</time>
      </trkpt>
      <trkpt lat="41.860593287274241" lon="13.640536637976766">
        <ele>996.54003899999998</ele>
        <time>2017-06-17T07:12:30Z</time>
      </trkpt>
      <trkpt lat="41.860442496836185" lon="13.640719866380095">
        <ele>997.02002000000005</ele>
        <time>2017-06-17T07:12:47Z</time>
      </trkpt>
      <trkpt lat="41.860253820195794" lon="13.640992278233171">
        <ele>997.51000999999997</ele>
        <time>2017-06-17T07:13:08Z</time>
      </trkpt>
      <trkpt lat="41.860078303143382" lon="13.641293859109282">
        <ele>998.47003199999995</ele>
        <time>2017-06-17T07:13:30Z</time>
      </trkpt>
      <trkpt lat="41.859988197684288" lon="13.641524612903595">
        <ele>998.95001200000002</ele>
        <time>2017-06-17T07:13:44Z</time>
      </trkpt>
      <trkpt lat="41.859950395300984" lon="13.641669284552336">
        <ele>999.42999299999997</ele>
        <time>2017-06-17T07:13:52Z</time>
      </trkpt>
      <trkpt lat="41.859844112768769" lon="13.642024425789714">
        <ele>999.910034</ele>
        <time>2017-06-17T07:14:11Z</time>
      </trkpt>
      <trkpt lat="41.859732465818524" lon="13.642331035807729">
        <ele>1000.3900149999999</ele>
        <time>2017-06-17T07:14:29Z</time>
      </trkpt>
      <trkpt lat="41.859679659828544" lon="13.642616691067815">
        <ele>1001.349976</ele>
        <time>2017-06-17T07:14:48Z</time>
      </trkpt>
      <trkpt lat="41.859611934050918" lon="13.64291014149785">
        <ele>1001.829956</ele>
        <time>2017-06-17T07:15:06Z</time>
      </trkpt>
      <trkpt lat="41.859500035643578" lon="13.64327073097229">
        <ele>1002.309998</ele>
        <time>2017-06-17T07:15:25Z</time>
      </trkpt>
      <trkpt lat="41.859407164156437" lon="13.643616987392306">
        <ele>1002.789978</ele>
        <time>2017-06-17T07:15:44Z</time>
      </trkpt>
      <trkpt lat="41.859303396195173" lon="13.643928291276097">
        <ele>1003.27002</ele>
        <time>2017-06-17T07:16:03Z</time>
      </trkpt>
      <trkpt lat="41.859198873862624" lon="13.644290892407298">
        <ele>1004.22998</ele>
        <time>2017-06-17T07:16:24Z</time>
      </trkpt>
      <trkpt lat="41.859152102842927" lon="13.644476216286421">
        <ele>1004.719971</ele>
        <time>2017-06-17T07:16:35Z</time>
      </trkpt>
      <trkpt lat="41.859077084809542" lon="13.644665395841002">
        <ele>1004.719971</ele>
        <time>2017-06-17T07:16:47Z</time>
      </trkpt>
      <trkpt lat="41.858983878046274" lon="13.644831273704767">
        <ele>1005.679993</ele>
        <time>2017-06-17T07:17:01Z</time>
      </trkpt>
      <trkpt lat="41.858924031257629" lon="13.64510209299624">
        <ele>1005.679993</ele>
        <time>2017-06-17T07:17:20Z</time>
      </trkpt>
      <trkpt lat="41.858919840306044" lon="13.645118270069361">
        <ele>1005.679993</ele>
        <time>2017-06-17T07:17:21Z</time>
      </trkpt>
      <trkpt lat="41.858808109536767" lon="13.645511632785201">
        <ele>1006.159973</ele>
        <time>2017-06-17T07:17:41Z</time>
      </trkpt>
      <trkpt lat="41.858661761507392" lon="13.645780440419912">
        <ele>1007.119995</ele>
        <time>2017-06-17T07:17:57Z</time>
      </trkpt>
      <trkpt lat="41.858575511723757" lon="13.645965764299035">
        <ele>1007.119995</ele>
        <time>2017-06-17T07:18:10Z</time>
      </trkpt>
      <trkpt lat="41.85858054086566" lon="13.645979259163141">
        <ele>1007.119995</ele>
        <time>2017-06-17T07:18:11Z</time>
      </trkpt>
      <trkpt lat="41.858588000759482" lon="13.645993508398533">
        <ele>1007.119995</ele>
        <time>2017-06-17T07:18:12Z</time>
      </trkpt>
      <trkpt lat="41.858593197539449" lon="13.646004907786846">
        <ele>1007.599976</ele>
        <time>2017-06-17T07:18:13Z</time>
      </trkpt>
      <trkpt lat="41.858610715717077" lon="13.646048409864306">
        <ele>1008.080017</ele>
        <time>2017-06-17T07:18:31Z</time>
      </trkpt>
      <trkpt lat="41.858605938032269" lon="13.646052936092019">
        <ele>1008.080017</ele>
        <time>2017-06-17T07:18:44Z</time>
      </trkpt>
      <trkpt lat="41.858592694625258" lon="13.646056959405541">
        <ele>1008.080017</ele>
        <time>2017-06-17T07:18:45Z</time>
      </trkpt>
      <trkpt lat="41.858577439561486" lon="13.646061904728413">
        <ele>1008.080017</ele>
        <time>2017-06-17T07:18:46Z</time>
      </trkpt>
      <trkpt lat="41.858381219208241" lon="13.646206576377153">
        <ele>1008.080017</ele>
        <time>2017-06-17T07:19:00Z</time>
      </trkpt>
      <trkpt lat="41.858187261968851" lon="13.646397013217211">
        <ele>1008.080017</ele>
        <time>2017-06-17T07:19:17Z</time>
      </trkpt>
      <trkpt lat="41.858066730201244" lon="13.646542858332396">
        <ele>1008.080017</ele>
        <time>2017-06-17T07:19:32Z</time>
      </trkpt>
      <trkpt lat="41.857871180400252" lon="13.646723069250584">
        <ele>1008.080017</ele>
        <time>2017-06-17T07:19:48Z</time>
      </trkpt>
      <trkpt lat="41.857666913419962" lon="13.646905962377787">
        <ele>1008.080017</ele>
        <time>2017-06-17T07:20:04Z</time>
      </trkpt>
      <trkpt lat="41.857543867081404" lon="13.647088017314672">
        <ele>1008.080017</ele>
        <time>2017-06-17T07:20:17Z</time>
      </trkpt>
      <trkpt lat="41.85749433003366" lon="13.647129675373435">
        <ele>1008.080017</ele>
        <time>2017-06-17T07:20:22Z</time>
      </trkpt>
      <trkpt lat="41.857348904013634" lon="13.647342659533024">
        <ele>1008.080017</ele>
        <time>2017-06-17T07:20:41Z</time>
      </trkpt>
      <trkpt lat="41.857186295092106" lon="13.647580035030842">
        <ele>1008.080017</ele>
        <time>2017-06-17T07:20:58Z</time>
      </trkpt>
      <trkpt lat="41.857141871005297" lon="13.647649269551039">
        <ele>1008.559998</ele>
        <time>2017-06-17T07:21:03Z</time>
      </trkpt>
      <trkpt lat="41.857118820771575" lon="13.64769771695137">
        <ele>1008.559998</ele>
        <time>2017-06-17T07:21:06Z</time>
      </trkpt>
      <trkpt lat="41.856914889067411" lon="13.647983958944678">
        <ele>1008.559998</ele>
        <time>2017-06-17T07:21:24Z</time>
      </trkpt>
      <trkpt lat="41.856761164963245" lon="13.648177664726973">
        <ele>1009.040039</ele>
        <time>2017-06-17T07:21:39Z</time>
      </trkpt>
      <trkpt lat="41.856566788628697" lon="13.648440605029464">
        <ele>1009.52002</ele>
        <time>2017-06-17T07:21:59Z</time>
      </trkpt>
      <trkpt lat="41.856429995968938" lon="13.648660462349653">
        <ele>1009.999939</ele>
        <time>2017-06-17T07:22:14Z</time>
      </trkpt>
      <trkpt lat="41.856279289349914" lon="13.648859784007072">
        <ele>1009.999939</ele>
        <time>2017-06-17T07:22:29Z</time>
      </trkpt>
      <trkpt lat="41.856133779510856" lon="13.649062626063824">
        <ele>1010.480042</ele>
        <time>2017-06-17T07:22:45Z</time>
      </trkpt>
      <trkpt lat="41.855947114527225" lon="13.64925691857934">
        <ele>1010.959961</ele>
        <time>2017-06-17T07:23:02Z</time>
      </trkpt>
      <trkpt lat="41.855749301612377" lon="13.649455234408379">
        <ele>1011.440002</ele>
        <time>2017-06-17T07:23:19Z</time>
      </trkpt>
      <trkpt lat="41.855600858107209" lon="13.64961851388216">
        <ele>1012.410034</ele>
        <time>2017-06-17T07:23:33Z</time>
      </trkpt>
      <trkpt lat="41.855395501479506" lon="13.649802329018712">
        <ele>1012.8900149999999</ele>
        <time>2017-06-17T07:23:50Z</time>
      </trkpt>
      <trkpt lat="41.85521830804646" lon="13.649977929890156">
        <ele>1013.849976</ele>
        <time>2017-06-17T07:24:06Z</time>
      </trkpt>
      <trkpt lat="41.855075564235449" lon="13.650102987885475">
        <ele>1015.289978</ele>
        <time>2017-06-17T07:24:20Z</time>
      </trkpt>
      <trkpt lat="41.854851767420769" lon="13.650280935689807">
        <ele>1015.77002</ele>
        <time>2017-06-17T07:24:38Z</time>
      </trkpt>
      <trkpt lat="41.854731319472194" lon="13.650430217385292">
        <ele>1016.25</ele>
        <time>2017-06-17T07:24:54Z</time>
      </trkpt>
      <trkpt lat="41.854591760784388" lon="13.650563573464751">
        <ele>1017.210022</ele>
        <time>2017-06-17T07:25:08Z</time>
      </trkpt>
      <trkpt lat="41.854343824088573" lon="13.650776138529181">
        <ele>1018.650024</ele>
        <time>2017-06-17T07:25:27Z</time>
      </trkpt>
      <trkpt lat="41.854190099984407" lon="13.650929192081094">
        <ele>1020.099976</ele>
        <time>2017-06-17T07:25:45Z</time>
      </trkpt>
      <trkpt lat="41.854036878794432" lon="13.651155503466725">
        <ele>1022.02002</ele>
        <time>2017-06-17T07:26:04Z</time>
      </trkpt>
      <trkpt lat="41.853908468037844" lon="13.651348035782576">
        <ele>1022.980042</ele>
        <time>2017-06-17T07:26:18Z</time>
      </trkpt>
      <trkpt lat="41.853696489706635" lon="13.651655400171876">
        <ele>1023.459961</ele>
        <time>2017-06-17T07:26:40Z</time>
      </trkpt>
      <trkpt lat="41.853559361770749" lon="13.65193996578455">
        <ele>1024.900024</ele>
        <time>2017-06-17T07:27:00Z</time>
      </trkpt>
      <trkpt lat="41.853408236056566" lon="13.65217206068337">
        <ele>1026.3400879999999</ele>
        <time>2017-06-17T07:27:18Z</time>
      </trkpt>
      <trkpt lat="41.853176979348063" lon="13.6524070892483">
        <ele>1027.790039</ele>
        <time>2017-06-17T07:27:39Z</time>
      </trkpt>
      <trkpt lat="41.852998528629541" lon="13.652563076466322">
        <ele>1028.75</ele>
        <time>2017-06-17T07:27:56Z</time>
      </trkpt>
      <trkpt lat="41.852780934423208" lon="13.652722835540771">
        <ele>1029.7100829999999</ele>
        <time>2017-06-17T07:28:15Z</time>
      </trkpt>
      <trkpt lat="41.85260022059083" lon="13.652933975681663">
        <ele>1030.669922</ele>
        <time>2017-06-17T07:28:33Z</time>
      </trkpt>
      <trkpt lat="41.852482790127397" lon="13.653141763061285">
        <ele>1031.630005</ele>
        <time>2017-06-17T07:28:49Z</time>
      </trkpt>
      <trkpt lat="41.852306770160794" lon="13.653473099693656">
        <ele>1032.589966</ele>
        <time>2017-06-17T07:29:11Z</time>
      </trkpt>
      <trkpt lat="41.852174587547779" lon="13.653693962842226">
        <ele>1033.0699460000001</ele>
        <time>2017-06-17T07:29:25Z</time>
      </trkpt>
      <trkpt lat="41.852000411599874" lon="13.653984982520342">
        <ele>1033.0699460000001</ele>
        <time>2017-06-17T07:29:44Z</time>
      </trkpt>
      <trkpt lat="41.851901672780514" lon="13.654185896739364">
        <ele>1033.5500489999999</ele>
        <time>2017-06-17T07:30:00Z</time>
      </trkpt>
      <trkpt lat="41.851783320307732" lon="13.654331406578422">
        <ele>1033.5500489999999</ele>
        <time>2017-06-17T07:30:13Z</time>
      </trkpt>
      <trkpt lat="41.851775525137782" lon="13.654342219233513">
        <ele>1033.5500489999999</ele>
        <time>2017-06-17T07:30:14Z</time>
      </trkpt>
      <trkpt lat="41.851766807958484" lon="13.654353031888604">
        <ele>1033.5500489999999</ele>
        <time>2017-06-17T07:30:15Z</time>
      </trkpt>
      <trkpt lat="41.851755911484361" lon="13.654361665248871">
        <ele>1033.5500489999999</ele>
        <time>2017-06-17T07:30:16Z</time>
      </trkpt>
      <trkpt lat="41.851745434105396" lon="13.654372896999121">
        <ele>1033.5500489999999</ele>
        <time>2017-06-17T07:30:17Z</time>
      </trkpt>
      <trkpt lat="41.851733783259988" lon="13.654387062415481">
        <ele>1033.5500489999999</ele>
        <time>2017-06-17T07:30:18Z</time>
      </trkpt>
      <trkpt lat="41.851519122719765" lon="13.65457858890295">
        <ele>1033.5500489999999</ele>
        <time>2017-06-17T07:30:35Z</time>
      </trkpt>
      <trkpt lat="41.851344024762511" lon="13.654775228351355">
        <ele>1033.5500489999999</ele>
        <time>2017-06-17T07:30:52Z</time>
      </trkpt>
      <trkpt lat="41.85133027844131" lon="13.654788387939334">
        <ele>1033.5500489999999</ele>
        <time>2017-06-17T07:30:53Z</time>
      </trkpt>
      <trkpt lat="41.851321728900075" lon="13.654802888631821">
        <ele>1033.5500489999999</ele>
        <time>2017-06-17T07:30:54Z</time>
      </trkpt>
      <trkpt lat="41.851311335340142" lon="13.654821496456861">
        <ele>1033.5500489999999</ele>
        <time>2017-06-17T07:30:55Z</time>
      </trkpt>
      <trkpt lat="41.851300103589892" lon="13.654835158959031">
        <ele>1033.5500489999999</ele>
        <time>2017-06-17T07:30:56Z</time>
      </trkpt>
      <trkpt lat="41.851287111639977" lon="13.654848821461201">
        <ele>1033.5500489999999</ele>
        <time>2017-06-17T07:30:57Z</time>
      </trkpt>
      <trkpt lat="41.851277220994234" lon="13.654859634116292">
        <ele>1033.5500489999999</ele>
        <time>2017-06-17T07:30:58Z</time>
      </trkpt>
      <trkpt lat="41.851115701720119" lon="13.655031463131309">
        <ele>1033.5500489999999</ele>
        <time>2017-06-17T07:31:13Z</time>
      </trkpt>
      <trkpt lat="41.850939262658358" lon="13.65521527826786">
        <ele>1033.5500489999999</ele>
        <time>2017-06-17T07:31:27Z</time>
      </trkpt>
      <trkpt lat="41.850698869675398" lon="13.655445864424109">
        <ele>1034.040039</ele>
        <time>2017-06-17T07:31:47Z</time>
      </trkpt>
      <trkpt lat="41.850617229938507" lon="13.65559539757669">
        <ele>1034.040039</ele>
        <time>2017-06-17T07:32:01Z</time>
      </trkpt>
      <trkpt lat="41.850527711212635" lon="13.655880801379681">
        <ele>1034.040039</ele>
        <time>2017-06-17T07:32:18Z</time>
      </trkpt>
      <trkpt lat="41.850519329309464" lon="13.655895218253136">
        <ele>1034.040039</ele>
        <time>2017-06-17T07:32:19Z</time>
      </trkpt>
      <trkpt lat="41.850505834445357" lon="13.65590812638402">
        <ele>1034.040039</ele>
        <time>2017-06-17T07:32:20Z</time>
      </trkpt>
      <trkpt lat="41.850494183599949" lon="13.655918939039111">
        <ele>1034.040039</ele>
        <time>2017-06-17T07:32:21Z</time>
      </trkpt>
      <trkpt lat="41.850304333493114" lon="13.656089175492525">
        <ele>1034.040039</ele>
        <time>2017-06-17T07:32:39Z</time>
      </trkpt>
      <trkpt lat="41.85026602819562" lon="13.656134437769651">
        <ele>1034.040039</ele>
        <time>2017-06-17T07:32:55Z</time>
      </trkpt>
      <trkpt lat="41.850239206105471" lon="13.656122200191021">
        <ele>1034.040039</ele>
        <time>2017-06-17T07:33:22Z</time>
      </trkpt>
      <trkpt lat="41.850211964920163" lon="13.656112141907215">
        <ele>1034.040039</ele>
        <time>2017-06-17T07:33:52Z</time>
      </trkpt>
      <trkpt lat="41.850219089537859" lon="13.656120439991355">
        <ele>1034.5200199999999</ele>
        <time>2017-06-17T07:34:21Z</time>
      </trkpt>
      <trkpt lat="41.850219005718827" lon="13.656109375879169">
        <ele>1035</ele>
        <time>2017-06-17T07:34:45Z</time>
      </trkpt>
      <trkpt lat="41.850212635472417" lon="13.656077105551958">
        <ele>1035</ele>
        <time>2017-06-17T07:35:09Z</time>
      </trkpt>
      <trkpt lat="41.850214395672083" lon="13.656085906550288">
        <ele>1035</ele>
        <time>2017-06-17T07:35:33Z</time>
      </trkpt>
      <trkpt lat="41.850221687927842" lon="13.65607182495296">
        <ele>1030.669922</ele>
        <time>2017-06-17T07:35:42Z</time>
      </trkpt>
      <trkpt lat="41.850221436470747" lon="13.656074088066816">
        <ele>1038.3599850000001</ele>
        <time>2017-06-17T07:35:43Z</time>
      </trkpt>
      <trkpt lat="41.850220682099462" lon="13.65607475861907">
        <ele>1035</ele>
        <time>2017-06-17T07:35:44Z</time>
      </trkpt>
      <trkpt lat="41.850227136164904" lon="13.656103340908885">
        <ele>1034.5200199999999</ele>
        <time>2017-06-17T07:36:09Z</time>
      </trkpt>
      <trkpt lat="41.850206265226007" lon="13.656151201575994">
        <ele>1035</ele>
        <time>2017-06-17T07:36:32Z</time>
      </trkpt>
      <trkpt lat="41.850203163921833" lon="13.656164361163974">
        <ele>1034.5200199999999</ele>
        <time>2017-06-17T07:37:07Z</time>
      </trkpt>
      <trkpt lat="41.850231662392616" lon="13.656112141907215">
        <ele>1034.5200199999999</ele>
        <time>2017-06-17T07:37:35Z</time>
      </trkpt>
      <trkpt lat="41.850239038467407" lon="13.656138796359301">
        <ele>1035</ele>
        <time>2017-06-17T07:38:04Z</time>
      </trkpt>
      <trkpt lat="41.850227303802967" lon="13.656090013682842">
        <ele>1035.959961</ele>
        <time>2017-06-17T07:38:28Z</time>
      </trkpt>
      <trkpt lat="41.850235518068075" lon="13.656075010076165">
        <ele>1035.959961</ele>
        <time>2017-06-17T07:38:43Z</time>
      </trkpt>
      <trkpt lat="41.850254964083433" lon="13.656074088066816">
        <ele>1035.959961</ele>
        <time>2017-06-17T07:38:44Z</time>
      </trkpt>
      <trkpt lat="41.850275164470077" lon="13.656078362837434">
        <ele>1035.959961</ele>
        <time>2017-06-17T07:38:45Z</time>
      </trkpt>
      <trkpt lat="41.850296622142196" lon="13.656087918207049">
        <ele>1035.959961</ele>
        <time>2017-06-17T07:38:46Z</time>
      </trkpt>
      <trkpt lat="41.850331071764231" lon="13.656155979260802">
        <ele>1035.959961</ele>
        <time>2017-06-17T07:38:51Z</time>
      </trkpt>
      <trkpt lat="41.85034372843802" lon="13.656173162162304">
        <ele>1035.959961</ele>
        <time>2017-06-17T07:38:52Z</time>
      </trkpt>
      <trkpt lat="41.85036082752049" lon="13.656189171597362">
        <ele>1035.959961</ele>
        <time>2017-06-17T07:38:53Z</time>
      </trkpt>
      <trkpt lat="41.850388068705797" lon="13.656221609562635">
        <ele>1035.959961</ele>
        <time>2017-06-17T07:38:55Z</time>
      </trkpt>
      <trkpt lat="41.850392678752542" lon="13.656235774978995">
        <ele>1035.959961</ele>
        <time>2017-06-17T07:38:56Z</time>
      </trkpt>
      <trkpt lat="41.850396534428" lon="13.656289502978325">
        <ele>1035</ele>
        <time>2017-06-17T07:39:00Z</time>
      </trkpt>
      <trkpt lat="41.850395863875747" lon="13.656308362260461">
        <ele>1035</ele>
        <time>2017-06-17T07:39:01Z</time>
      </trkpt>
      <trkpt lat="41.850392427295446" lon="13.656330909579992">
        <ele>1035</ele>
        <time>2017-06-17T07:39:02Z</time>
      </trkpt>
      <trkpt lat="41.850387565791607" lon="13.656344907358289">
        <ele>1035</ele>
        <time>2017-06-17T07:39:03Z</time>
      </trkpt>
      <trkpt lat="41.850380273535848" lon="13.65636209025979">
        <ele>1035</ele>
        <time>2017-06-17T07:39:04Z</time>
      </trkpt>
      <trkpt lat="41.850375663489103" lon="13.65637818351388">
        <ele>1035</ele>
        <time>2017-06-17T07:39:05Z</time>
      </trkpt>
      <trkpt lat="41.850371388718486" lon="13.656393690034747">
        <ele>1035</ele>
        <time>2017-06-17T07:39:06Z</time>
      </trkpt>
      <trkpt lat="41.8502894975245" lon="13.656625114381313">
        <ele>1035</ele>
        <time>2017-06-17T07:39:20Z</time>
      </trkpt>
      <trkpt lat="41.85020886361599" lon="13.656896688044071">
        <ele>1036.440063</ele>
        <time>2017-06-17T07:39:34Z</time>
      </trkpt>
      <trkpt lat="41.85011800378561" lon="13.65720346570015">
        <ele>1036.920044</ele>
        <time>2017-06-17T07:39:51Z</time>
      </trkpt>
      <trkpt lat="41.850012559443712" lon="13.657472524791956">
        <ele>1037.880005</ele>
        <time>2017-06-17T07:40:09Z</time>
      </trkpt>
      <trkpt lat="41.849977103993297" lon="13.657541424036026">
        <ele>1038.3599850000001</ele>
        <time>2017-06-17T07:40:14Z</time>
      </trkpt>
      <trkpt lat="41.849968302994967" lon="13.657555170357227">
        <ele>1038.8400879999999</ele>
        <time>2017-06-17T07:40:15Z</time>
      </trkpt>
      <trkpt lat="41.849772166460752" lon="13.657755665481091">
        <ele>1039.3199460000001</ele>
        <time>2017-06-17T07:40:32Z</time>
      </trkpt>
      <trkpt lat="41.84959220699966" lon="13.657920034602284">
        <ele>1040.280029</ele>
        <time>2017-06-17T07:40:50Z</time>
      </trkpt>
      <trkpt lat="41.849336139857769" lon="13.658112231642008">
        <ele>1041.25</ele>
        <time>2017-06-17T07:41:12Z</time>
      </trkpt>
      <trkpt lat="41.849110499024391" lon="13.658253634348512">
        <ele>1041.7299800000001</ele>
        <time>2017-06-17T07:41:29Z</time>
      </trkpt>
      <trkpt lat="41.848918721079826" lon="13.658405262976885">
        <ele>1042.6899410000001</ele>
        <time>2017-06-17T07:41:47Z</time>
      </trkpt>
      <trkpt lat="41.848694924265146" lon="13.65855161100626">
        <ele>1044.130005</ele>
        <time>2017-06-17T07:42:05Z</time>
      </trkpt>
      <trkpt lat="41.848510773852468" lon="13.65870357491076">
        <ele>1044.6099850000001</ele>
        <time>2017-06-17T07:42:22Z</time>
      </trkpt>
      <trkpt lat="41.848327713087201" lon="13.658812791109085">
        <ele>1045.5699460000001</ele>
        <time>2017-06-17T07:42:36Z</time>
      </trkpt>
      <trkpt lat="41.848317822441459" lon="13.658819496631622">
        <ele>1045.5699460000001</ele>
        <time>2017-06-17T07:42:37Z</time>
      </trkpt>
      <trkpt lat="41.848306339234114" lon="13.658825531601906">
        <ele>1045.5699460000001</ele>
        <time>2017-06-17T07:42:38Z</time>
      </trkpt>
      <trkpt lat="41.848297119140625" lon="13.658834584057331">
        <ele>1046.0500489999999</ele>
        <time>2017-06-17T07:42:39Z</time>
      </trkpt>
      <trkpt lat="41.848287899047136" lon="13.658844390884042">
        <ele>1046.0500489999999</ele>
        <time>2017-06-17T07:42:40Z</time>
      </trkpt>
      <trkpt lat="41.848278259858489" lon="13.658853359520435">
        <ele>1046.0500489999999</ele>
        <time>2017-06-17T07:42:41Z</time>
      </trkpt>
      <trkpt lat="41.848093941807747" lon="13.659001300111413">
        <ele>1046.530029</ele>
        <time>2017-06-17T07:42:58Z</time>
      </trkpt>
      <trkpt lat="41.847951197996736" lon="13.659089310094714">
        <ele>1047.969971</ele>
        <time>2017-06-17T07:43:11Z</time>
      </trkpt>
      <trkpt lat="41.847942061722279" lon="13.659100206568837">
        <ele>1047.969971</ele>
        <time>2017-06-17T07:43:12Z</time>
      </trkpt>
      <trkpt lat="41.847930159419775" lon="13.659111438319087">
        <ele>1047.969971</ele>
        <time>2017-06-17T07:43:13Z</time>
      </trkpt>
      <trkpt lat="41.847918508574367" lon="13.659119317308068">
        <ele>1047.969971</ele>
        <time>2017-06-17T07:43:14Z</time>
      </trkpt>
      <trkpt lat="41.847907779738307" lon="13.659124597907066">
        <ele>1047.969971</ele>
        <time>2017-06-17T07:43:15Z</time>
      </trkpt>
      <trkpt lat="41.847692113369703" lon="13.659313609823585">
        <ele>1048.940063</ele>
        <time>2017-06-17T07:43:34Z</time>
      </trkpt>
      <trkpt lat="41.847510393708944" lon="13.65952156484127">
        <ele>1048.940063</ele>
        <time>2017-06-17T07:43:50Z</time>
      </trkpt>
      <trkpt lat="41.847427664324641" lon="13.659716695547104">
        <ele>1049.900024</ele>
        <time>2017-06-17T07:44:07Z</time>
      </trkpt>
      <trkpt lat="41.847420791164041" lon="13.659734465181828">
        <ele>1049.900024</ele>
        <time>2017-06-17T07:44:08Z</time>
      </trkpt>
      <trkpt lat="41.847412409260869" lon="13.659753240644932">
        <ele>1049.900024</ele>
        <time>2017-06-17T07:44:09Z</time>
      </trkpt>
      <trkpt lat="41.847403021529317" lon="13.659770172089338">
        <ele>1049.900024</ele>
        <time>2017-06-17T07:44:10Z</time>
      </trkpt>
      <trkpt lat="41.847395477816463" lon="13.659785510972142">
        <ele>1049.900024</ele>
        <time>2017-06-17T07:44:11Z</time>
      </trkpt>
      <trkpt lat="41.847226582467556" lon="13.660095306113362">
        <ele>1050.8599850000001</ele>
        <time>2017-06-17T07:44:28Z</time>
      </trkpt>
      <trkpt lat="41.847142763435841" lon="13.660358497872949">
        <ele>1052.299927</ele>
        <time>2017-06-17T07:44:46Z</time>
      </trkpt>
      <trkpt lat="41.847032960504293" lon="13.66064976900816">
        <ele>1053.73999</ele>
        <time>2017-06-17T07:45:07Z</time>
      </trkpt>
      <trkpt lat="41.846905639395118" lon="13.660919079557061">
        <ele>1054.219971</ele>
        <time>2017-06-17T07:45:23Z</time>
      </trkpt>
      <trkpt lat="41.846813019365072" lon="13.661139775067568">
        <ele>1054.6999510000001</ele>
        <time>2017-06-17T07:45:36Z</time>
      </trkpt>
      <trkpt lat="41.846712185069919" lon="13.661387963220477">
        <ele>1056.150024</ele>
        <time>2017-06-17T07:45:54Z</time>
      </trkpt>
      <trkpt lat="41.846567681059241" lon="13.661678060889244">
        <ele>1056.630005</ele>
        <time>2017-06-17T07:46:12Z</time>
      </trkpt>
      <trkpt lat="41.846472965553403" lon="13.661878807470202">
        <ele>1058.5500489999999</ele>
        <time>2017-06-17T07:46:28Z</time>
      </trkpt>
      <trkpt lat="41.846331227570772" lon="13.662068909034133">
        <ele>1058.5500489999999</ele>
        <time>2017-06-17T07:46:43Z</time>
      </trkpt>
      <trkpt lat="41.846066694706678" lon="13.662276864051819">
        <ele>1059.030029</ele>
        <time>2017-06-17T07:47:01Z</time>
      </trkpt>
      <trkpt lat="41.845919005572796" lon="13.662423966452479">
        <ele>1059.98999</ele>
        <time>2017-06-17T07:47:17Z</time>
      </trkpt>
      <trkpt lat="41.845679618418217" lon="13.662599064409733">
        <ele>1060.950073</ele>
        <time>2017-06-17T07:47:38Z</time>
      </trkpt>
      <trkpt lat="41.845406368374825" lon="13.662793021649122">
        <ele>1061.910034</ele>
        <time>2017-06-17T07:47:58Z</time>
      </trkpt>
      <trkpt lat="41.845267228782177" lon="13.662996869534254">
        <ele>1062.869995</ele>
        <time>2017-06-17T07:48:18Z</time>
      </trkpt>
      <trkpt lat="41.845129933208227" lon="13.663151264190674">
        <ele>1063.3599850000001</ele>
        <time>2017-06-17T07:48:33Z</time>
      </trkpt>
      <trkpt lat="41.845117192715406" lon="13.663164507597685">
        <ele>1063.3599850000001</ele>
        <time>2017-06-17T07:48:36Z</time>
      </trkpt>
      <trkpt lat="41.845106799155474" lon="13.663170961663127">
        <ele>1063.8400879999999</ele>
        <time>2017-06-17T07:48:37Z</time>
      </trkpt>
      <trkpt lat="41.845100261271" lon="13.663181103765965">
        <ele>1064.3199460000001</ele>
        <time>2017-06-17T07:48:38Z</time>
      </trkpt>
      <trkpt lat="41.845090119168162" lon="13.663194682449102">
        <ele>1064.3199460000001</ele>
        <time>2017-06-17T07:48:39Z</time>
      </trkpt>
      <trkpt lat="41.845079222694039" lon="13.663208764046431">
        <ele>1064.3199460000001</ele>
        <time>2017-06-17T07:48:40Z</time>
      </trkpt>
      <trkpt lat="41.844945028424263" lon="13.663366008549929">
        <ele>1064.799927</ele>
        <time>2017-06-17T07:48:55Z</time>
      </trkpt>
      <trkpt lat="41.844835225492716" lon="13.663491485640407">
        <ele>1065.280029</ele>
        <time>2017-06-17T07:49:08Z</time>
      </trkpt>
      <trkpt lat="41.84463313780725" lon="13.663685107603669">
        <ele>1066.23999</ele>
        <time>2017-06-17T07:49:26Z</time>
      </trkpt>
      <trkpt lat="41.844493076205254" lon="13.663799604400992">
        <ele>1067.1999510000001</ele>
        <time>2017-06-17T07:49:40Z</time>
      </trkpt>
      <trkpt lat="41.844484778121114" lon="13.663813769817352">
        <ele>1067.6800539999999</ele>
        <time>2017-06-17T07:49:45Z</time>
      </trkpt>
      <trkpt lat="41.8444406054914" lon="13.663839921355247">
        <ele>1067.6800539999999</ele>
        <time>2017-06-17T07:49:55Z</time>
      </trkpt>
      <trkpt lat="41.844428367912769" lon="13.663845537230372">
        <ele>1067.6800539999999</ele>
        <time>2017-06-17T07:49:56Z</time>
      </trkpt>
      <trkpt lat="41.844389140605927" lon="13.663843777030706">
        <ele>1067.6800539999999</ele>
        <time>2017-06-17T07:50:10Z</time>
      </trkpt>
      <trkpt lat="41.844377070665359" lon="13.663831036537886">
        <ele>1067.6800539999999</ele>
        <time>2017-06-17T07:50:47Z</time>
      </trkpt>
      <trkpt lat="41.84435460716486" lon="13.663874287158251">
        <ele>1068.160034</ele>
        <time>2017-06-17T07:51:11Z</time>
      </trkpt>
      <trkpt lat="41.844337759539485" lon="13.663910999894142">
        <ele>1068.160034</ele>
        <time>2017-06-17T07:51:15Z</time>
      </trkpt>
      <trkpt lat="41.844332814216614" lon="13.66392407566309">
        <ele>1068.160034</ele>
        <time>2017-06-17T07:51:16Z</time>
      </trkpt>
      <trkpt lat="41.844348488375545" lon="13.663964560255408">
        <ele>1068.160034</ele>
        <time>2017-06-17T07:51:23Z</time>
      </trkpt>
      <trkpt lat="41.844351338222623" lon="13.663978893309832">
        <ele>1068.160034</ele>
        <time>2017-06-17T07:51:24Z</time>
      </trkpt>
      <trkpt lat="41.844331808388233" lon="13.66402767598629">
        <ele>1068.160034</ele>
        <time>2017-06-17T07:51:31Z</time>
      </trkpt>
      <trkpt lat="41.844323761761189" lon="13.664040165022016">
        <ele>1068.160034</ele>
        <time>2017-06-17T07:51:32Z</time>
      </trkpt>
      <trkpt lat="41.844313535839319" lon="13.664054330438375">
        <ele>1068.160034</ele>
        <time>2017-06-17T07:51:33Z</time>
      </trkpt>
      <trkpt lat="41.844147574156523" lon="13.664217526093125">
        <ele>1068.6400149999999</ele>
        <time>2017-06-17T07:51:47Z</time>
      </trkpt>
      <trkpt lat="41.84393928386271" lon="13.664367059245706">
        <ele>1068.6400149999999</ele>
        <time>2017-06-17T07:52:04Z</time>
      </trkpt>
      <trkpt lat="41.843725377693772" lon="13.664535116404295">
        <ele>1068.6400149999999</ele>
        <time>2017-06-17T07:52:22Z</time>
      </trkpt>
      <trkpt lat="41.843611970543861" lon="13.664656905457377">
        <ele>1068.6400149999999</ele>
        <time>2017-06-17T07:52:35Z</time>
      </trkpt>
      <trkpt lat="41.843353472650051" lon="13.664824459701777">
        <ele>1068.6400149999999</ele>
        <time>2017-06-17T07:52:56Z</time>
      </trkpt>
      <trkpt lat="41.843093382194638" lon="13.665043227374554">
        <ele>1068.6400149999999</ele>
        <time>2017-06-17T07:53:16Z</time>
      </trkpt>
      <trkpt lat="41.843032278120518" lon="13.665097961202264">
        <ele>1068.6400149999999</ele>
        <time>2017-06-17T07:53:22Z</time>
      </trkpt>
      <trkpt lat="41.84297519735992" lon="13.665132327005267">
        <ele>1068.160034</ele>
        <time>2017-06-17T07:53:27Z</time>
      </trkpt>
      <trkpt lat="41.84296203777194" lon="13.665136266499758">
        <ele>1068.6400149999999</ele>
        <time>2017-06-17T07:53:28Z</time>
      </trkpt>
      <trkpt lat="41.842948710545897" lon="13.665137607604265">
        <ele>1068.6400149999999</ele>
        <time>2017-06-17T07:53:29Z</time>
      </trkpt>
      <trkpt lat="41.842933958396316" lon="13.665144899860024">
        <ele>1068.6400149999999</ele>
        <time>2017-06-17T07:53:30Z</time>
      </trkpt>
      <trkpt lat="41.842921636998653" lon="13.665152359753847">
        <ele>1068.6400149999999</ele>
        <time>2017-06-17T07:53:31Z</time>
      </trkpt>
      <trkpt lat="41.842691972851753" lon="13.66533768363297">
        <ele>1068.6400149999999</ele>
        <time>2017-06-17T07:53:47Z</time>
      </trkpt>
      <trkpt lat="41.842570016160607" lon="13.665500711649656">
        <ele>1067.1999510000001</ele>
        <time>2017-06-17T07:54:00Z</time>
      </trkpt>
      <trkpt lat="41.842566663399339" lon="13.665511859580874">
        <ele>1067.1999510000001</ele>
        <time>2017-06-17T07:54:01Z</time>
      </trkpt>
      <trkpt lat="41.84247731231153" lon="13.665671534836292">
        <ele>1067.1999510000001</ele>
        <time>2017-06-17T07:54:16Z</time>
      </trkpt>
      <trkpt lat="41.842417381703854" lon="13.665755521506071">
        <ele>1067.1999510000001</ele>
        <time>2017-06-17T07:54:29Z</time>
      </trkpt>
      <trkpt lat="41.842291904613376" lon="13.665965991094708">
        <ele>1066.719971</ele>
        <time>2017-06-17T07:54:47Z</time>
      </trkpt>
      <trkpt lat="41.842145724222064" lon="13.666251981630921">
        <ele>1066.719971</ele>
        <time>2017-06-17T07:55:08Z</time>
      </trkpt>
      <trkpt lat="41.842004237696528" lon="13.666447112336755">
        <ele>1066.23999</ele>
        <time>2017-06-17T07:55:23Z</time>
      </trkpt>
      <trkpt lat="41.841991161927581" lon="13.666461780667305">
        <ele>1066.23999</ele>
        <time>2017-06-17T07:55:24Z</time>
      </trkpt>
      <trkpt lat="41.841980013996363" lon="13.666478460654616">
        <ele>1066.23999</ele>
        <time>2017-06-17T07:55:25Z</time>
      </trkpt>
      <trkpt lat="41.841969536617398" lon="13.666492961347103">
        <ele>1066.23999</ele>
        <time>2017-06-17T07:55:26Z</time>
      </trkpt>
      <trkpt lat="41.841958975419402" lon="13.666503941640258">
        <ele>1066.23999</ele>
        <time>2017-06-17T07:55:27Z</time>
      </trkpt>
      <trkpt lat="41.841947911307216" lon="13.666522381827235">
        <ele>1066.23999</ele>
        <time>2017-06-17T07:55:28Z</time>
      </trkpt>
      <trkpt lat="41.841936763375998" lon="13.666540905833244">
        <ele>1066.23999</ele>
        <time>2017-06-17T07:55:29Z</time>
      </trkpt>
      <trkpt lat="41.841925028711557" lon="13.666552975773811">
        <ele>1066.23999</ele>
        <time>2017-06-17T07:55:30Z</time>
      </trkpt>
      <trkpt lat="41.841751858592033" lon="13.666774593293667">
        <ele>1066.23999</ele>
        <time>2017-06-17T07:55:47Z</time>
      </trkpt>
      <trkpt lat="41.841523787006736" lon="13.667017165571451">
        <ele>1065.76001</ele>
        <time>2017-06-17T07:56:05Z</time>
      </trkpt>
      <trkpt lat="41.841332176700234" lon="13.667236436158419">
        <ele>1066.719971</ele>
        <time>2017-06-17T07:56:19Z</time>
      </trkpt>
      <trkpt lat="41.841171076521277" lon="13.667439864948392">
        <ele>1067.1999510000001</ele>
        <time>2017-06-17T07:56:34Z</time>
      </trkpt>
      <trkpt lat="41.841041073203087" lon="13.667585290968418">
        <ele>1067.6800539999999</ele>
        <time>2017-06-17T07:56:46Z</time>
      </trkpt>
      <trkpt lat="41.84094836935401" lon="13.667770614847541">
        <ele>1068.6400149999999</ele>
        <time>2017-06-17T07:57:02Z</time>
      </trkpt>
      <trkpt lat="41.840826496481895" lon="13.667974127456546">
        <ele>1068.6400149999999</ele>
        <time>2017-06-17T07:57:18Z</time>
      </trkpt>
      <trkpt lat="41.840620134025812" lon="13.668310241773725">
        <ele>1069.599976</ele>
        <time>2017-06-17T07:57:37Z</time>
      </trkpt>
      <trkpt lat="41.840598760172725" lon="13.66835935972631">
        <ele>1069.599976</ele>
        <time>2017-06-17T07:57:40Z</time>
      </trkpt>
      <trkpt lat="41.840595323592424" lon="13.668376039713621">
        <ele>1069.599976</ele>
        <time>2017-06-17T07:57:41Z</time>
      </trkpt>
      <trkpt lat="41.840494908392429" lon="13.668591538444161">
        <ele>1070.080078</ele>
        <time>2017-06-17T07:57:59Z</time>
      </trkpt>
      <trkpt lat="41.840300699695945" lon="13.668867470696568">
        <ele>1071.0500489999999</ele>
        <time>2017-06-17T07:58:19Z</time>
      </trkpt>
      <trkpt lat="41.840144209563732" lon="13.669080538675189">
        <ele>1072.01001</ele>
        <time>2017-06-17T07:58:36Z</time>
      </trkpt>
      <trkpt lat="41.839931141585112" lon="13.669355884194374">
        <ele>1072.969971</ele>
        <time>2017-06-17T07:58:56Z</time>
      </trkpt>
      <trkpt lat="41.839721174910665" lon="13.669644305482507">
        <ele>1073.929932</ele>
        <time>2017-06-17T07:59:19Z</time>
      </trkpt>
      <trkpt lat="41.839546831324697" lon="13.669848572462797">
        <ele>1074.410034</ele>
        <time>2017-06-17T07:59:37Z</time>
      </trkpt>
      <trkpt lat="41.8393549695611" lon="13.67012525908649">
        <ele>1074.8900149999999</ele>
        <time>2017-06-17T08:00:00Z</time>
      </trkpt>
      <trkpt lat="41.839155480265617" lon="13.670369423925877">
        <ele>1076.329956</ele>
        <time>2017-06-17T08:00:22Z</time>
      </trkpt>
      <trkpt lat="41.839098818600178" lon="13.670472102239728">
        <ele>1076.329956</ele>
        <time>2017-06-17T08:00:38Z</time>
      </trkpt>
      <trkpt lat="41.838930426165462" lon="13.670687265694141">
        <ele>1076.8100589999999</ele>
        <time>2017-06-17T08:00:54Z</time>
      </trkpt>
      <trkpt lat="41.838765973225236" lon="13.670894131064415">
        <ele>1077.290039</ele>
        <time>2017-06-17T08:01:08Z</time>
      </trkpt>
      <trkpt lat="41.838599508628249" lon="13.671103175729513">
        <ele>1078.26001</ele>
        <time>2017-06-17T08:01:23Z</time>
      </trkpt>
      <trkpt lat="41.838482161983848" lon="13.671271987259388">
        <ele>1078.73999</ele>
        <time>2017-06-17T08:01:36Z</time>
      </trkpt>
      <trkpt lat="41.838284600526094" lon="13.671470638364553">
        <ele>1078.73999</ele>
        <time>2017-06-17T08:01:56Z</time>
      </trkpt>
      <trkpt lat="41.83811972849071" lon="13.671638779342175">
        <ele>1079.219971</ele>
        <time>2017-06-17T08:02:15Z</time>
      </trkpt>
      <trkpt lat="41.838007075712085" lon="13.671764340251684">
        <ele>1079.6999510000001</ele>
        <time>2017-06-17T08:02:29Z</time>
      </trkpt>
      <trkpt lat="41.83797312900424" lon="13.67179443128407">
        <ele>1079.6999510000001</ele>
        <time>2017-06-17T08:02:32Z</time>
      </trkpt>
      <trkpt lat="41.837958795949817" lon="13.671806836500764">
        <ele>1079.6999510000001</ele>
        <time>2017-06-17T08:02:33Z</time>
      </trkpt>
      <trkpt lat="41.837815968319774" lon="13.671999536454678">
        <ele>1080.660034</ele>
        <time>2017-06-17T08:02:50Z</time>
      </trkpt>
      <trkpt lat="41.83757733553648" lon="13.672263734042645">
        <ele>1081.619995</ele>
        <time>2017-06-17T08:03:11Z</time>
      </trkpt>
      <trkpt lat="41.8373828753829" lon="13.672456266358495">
        <ele>1082.099976</ele>
        <time>2017-06-17T08:03:26Z</time>
      </trkpt>
      <trkpt lat="41.837334763258696" lon="13.67249901406467">
        <ele>1082.580078</ele>
        <time>2017-06-17T08:03:31Z</time>
      </trkpt>
      <trkpt lat="41.837133010849357" lon="13.672680566087365">
        <ele>1083.059937</ele>
        <time>2017-06-17T08:03:48Z</time>
      </trkpt>
      <trkpt lat="41.836918434128165" lon="13.67284401319921">
        <ele>1084.0200199999999</ele>
        <time>2017-06-17T08:04:05Z</time>
      </trkpt>
      <trkpt lat="41.836692960932851" lon="13.673038221895695">
        <ele>1084.5</ele>
        <time>2017-06-17T08:04:25Z</time>
      </trkpt>
      <trkpt lat="41.83650772087276" lon="13.673159759491682">
        <ele>1084.98999</ele>
        <time>2017-06-17T08:04:42Z</time>
      </trkpt>
      <trkpt lat="41.836300771683455" lon="13.673282219097018">
        <ele>1085.469971</ele>
        <time>2017-06-17T08:05:00Z</time>
      </trkpt>
      <trkpt lat="41.83610362932086" lon="13.673410462215543">
        <ele>1086.429932</ele>
        <time>2017-06-17T08:05:16Z</time>
      </trkpt>
      <trkpt lat="41.835994413122535" lon="13.673449940979481">
        <ele>1086.429932</ele>
        <time>2017-06-17T08:05:27Z</time>
      </trkpt>
      <trkpt lat="41.835958370938897" lon="13.673429824411869">
        <ele>1086.429932</ele>
        <time>2017-06-17T08:05:39Z</time>
      </trkpt>
      <trkpt lat="41.835944959893823" lon="13.673466704785824">
        <ele>1086.429932</ele>
        <time>2017-06-17T08:05:52Z</time>
      </trkpt>
      <trkpt lat="41.835945965722203" lon="13.673480032011867">
        <ele>1087.3900149999999</ele>
        <time>2017-06-17T08:05:53Z</time>
      </trkpt>
      <trkpt lat="41.835936829447746" lon="13.673475841060281">
        <ele>1087.3900149999999</ele>
        <time>2017-06-17T08:06:07Z</time>
      </trkpt>
      <trkpt lat="41.835934231057763" lon="13.673515990376472">
        <ele>1087.3900149999999</ele>
        <time>2017-06-17T08:06:12Z</time>
      </trkpt>
      <trkpt lat="41.835941858589649" lon="13.673525964841247">
        <ele>1087.3900149999999</ele>
        <time>2017-06-17T08:06:13Z</time>
      </trkpt>
      <trkpt lat="41.835950072854757" lon="13.673533760011196">
        <ele>1087.3900149999999</ele>
        <time>2017-06-17T08:06:14Z</time>
      </trkpt>
      <trkpt lat="41.83601469732821" lon="13.67356619797647">
        <ele>1087.3900149999999</ele>
        <time>2017-06-17T08:06:29Z</time>
      </trkpt>
      <trkpt lat="41.835998939350247" lon="13.673574663698673">
        <ele>1087.3900149999999</ele>
        <time>2017-06-17T08:06:32Z</time>
      </trkpt>
      <trkpt lat="41.835984690114856" lon="13.673578184098005">
        <ele>1087.3900149999999</ele>
        <time>2017-06-17T08:06:33Z</time>
      </trkpt>
      <trkpt lat="41.835972787812352" lon="13.673579441383481">
        <ele>1087.3900149999999</ele>
        <time>2017-06-17T08:06:34Z</time>
      </trkpt>
      <trkpt lat="41.835907408967614" lon="13.673568293452263">
        <ele>1087.3900149999999</ele>
        <time>2017-06-17T08:06:46Z</time>
      </trkpt>
      <trkpt lat="41.835875641554594" lon="13.67357399314642">
        <ele>1087.3900149999999</ele>
        <time>2017-06-17T08:07:17Z</time>
      </trkpt>
      <trkpt lat="41.835903218016028" lon="13.673543902114034">
        <ele>1087.3900149999999</ele>
        <time>2017-06-17T08:07:57Z</time>
      </trkpt>
      <trkpt lat="41.835920987650752" lon="13.673553541302681">
        <ele>1087.3900149999999</ele>
        <time>2017-06-17T08:08:23Z</time>
      </trkpt>
      <trkpt lat="41.835943618789315" lon="13.673496292904019">
        <ele>1087.3900149999999</ele>
        <time>2017-06-17T08:08:52Z</time>
      </trkpt>
      <trkpt lat="41.835930207744241" lon="13.673563431948423">
        <ele>1087.3900149999999</ele>
        <time>2017-06-17T08:09:18Z</time>
      </trkpt>
      <trkpt lat="41.835852926596999" lon="13.673490341752768">
        <ele>1087.3900149999999</ele>
        <time>2017-06-17T08:09:41Z</time>
      </trkpt>
      <trkpt lat="41.835843790322542" lon="13.673494197428226">
        <ele>1087.869995</ele>
        <time>2017-06-17T08:10:00Z</time>
      </trkpt>
      <trkpt lat="41.835688892751932" lon="13.67356913164258">
        <ele>1087.869995</ele>
        <time>2017-06-17T08:10:13Z</time>
      </trkpt>
      <trkpt lat="41.835516141727567" lon="13.67370156571269">
        <ele>1087.869995</ele>
        <time>2017-06-17T08:10:28Z</time>
      </trkpt>
      <trkpt lat="41.835328135639429" lon="13.67383006028831">
        <ele>1088.349976</ele>
        <time>2017-06-17T08:10:43Z</time>
      </trkpt>
      <trkpt lat="41.835202826187015" lon="13.673901138827205">
        <ele>1089.3100589999999</ele>
        <time>2017-06-17T08:10:53Z</time>
      </trkpt>
      <trkpt lat="41.835185727104545" lon="13.673908933997154">
        <ele>1089.3100589999999</ele>
        <time>2017-06-17T08:10:54Z</time>
      </trkpt>
      <trkpt lat="41.835096040740609" lon="13.673986298963428">
        <ele>1089.3100589999999</ele>
        <time>2017-06-17T08:11:02Z</time>
      </trkpt>
      <trkpt lat="41.83508682064712" lon="13.673996105790138">
        <ele>1089.3100589999999</ele>
        <time>2017-06-17T08:11:03Z</time>
      </trkpt>
      <trkpt lat="41.834924463182688" lon="13.674155613407493">
        <ele>1089.3100589999999</ele>
        <time>2017-06-17T08:11:18Z</time>
      </trkpt>
      <trkpt lat="41.834788760170341" lon="13.674281258136034">
        <ele>1089.790039</ele>
        <time>2017-06-17T08:11:32Z</time>
      </trkpt>
      <trkpt lat="41.834650626406074" lon="13.674388378858566">
        <ele>1089.790039</ele>
        <time>2017-06-17T08:11:45Z</time>
      </trkpt>
      <trkpt lat="41.834633024409413" lon="13.674399526789784">
        <ele>1089.790039</ele>
        <time>2017-06-17T08:11:46Z</time>
      </trkpt>
      <trkpt lat="41.834612991660833" lon="13.674414362758398">
        <ele>1089.790039</ele>
        <time>2017-06-17T08:11:47Z</time>
      </trkpt>
      <trkpt lat="41.834593461826444" lon="13.674436071887612">
        <ele>1089.790039</ele>
        <time>2017-06-17T08:11:48Z</time>
      </trkpt>
      <trkpt lat="41.834576865658164" lon="13.67445451207459">
        <ele>1090.75</ele>
        <time>2017-06-17T08:11:49Z</time>
      </trkpt>
      <trkpt lat="41.834563119336963" lon="13.674466079100966">
        <ele>1090.75</ele>
        <time>2017-06-17T08:11:50Z</time>
      </trkpt>
      <trkpt lat="41.834452897310257" lon="13.674559034407139">
        <ele>1090.75</ele>
        <time>2017-06-17T08:12:05Z</time>
      </trkpt>
      <trkpt lat="41.834219209849834" lon="13.67467537522316">
        <ele>1091.2299800000001</ele>
        <time>2017-06-17T08:12:23Z</time>
      </trkpt>
      <trkpt lat="41.834017708897591" lon="13.674711585044861">
        <ele>1091.7100829999999</ele>
        <time>2017-06-17T08:12:39Z</time>
      </trkpt>
      <trkpt lat="41.833799695596099" lon="13.674773862585425">
        <ele>1092.1999510000001</ele>
        <time>2017-06-17T08:12:57Z</time>
      </trkpt>
      <trkpt lat="41.833777818828821" lon="13.674775036051869">
        <ele>1092.1999510000001</ele>
        <time>2017-06-17T08:12:59Z</time>
      </trkpt>
      <trkpt lat="41.8335872143507" lon="13.674787105992436">
        <ele>1093.160034</ele>
        <time>2017-06-17T08:13:13Z</time>
      </trkpt>
      <trkpt lat="41.833328381180763" lon="13.6747613735497">
        <ele>1093.6400149999999</ele>
        <time>2017-06-17T08:13:30Z</time>
      </trkpt>
      <trkpt lat="41.833080695942044" lon="13.674786938354373">
        <ele>1094.599976</ele>
        <time>2017-06-17T08:13:46Z</time>
      </trkpt>
      <trkpt lat="41.832969719544053" lon="13.674822729080915">
        <ele>1095.080078</ele>
        <time>2017-06-17T08:13:57Z</time>
      </trkpt>
      <trkpt lat="41.832820605486631" lon="13.674868158996105">
        <ele>1095.080078</ele>
        <time>2017-06-17T08:14:10Z</time>
      </trkpt>
      <trkpt lat="41.832797303795815" lon="13.67487620562315">
        <ele>1095.080078</ele>
        <time>2017-06-17T08:14:12Z</time>
      </trkpt>
      <trkpt lat="41.832573087885976" lon="13.674954492598772">
        <ele>1095.559937</ele>
        <time>2017-06-17T08:14:28Z</time>
      </trkpt>
      <trkpt lat="41.83244870044291" lon="13.675032695755363">
        <ele>1096.0399170000001</ele>
        <time>2017-06-17T08:14:40Z</time>
      </trkpt>
      <trkpt lat="41.832270920276642" lon="13.675182731822133">
        <ele>1096.5200199999999</ele>
        <time>2017-06-17T08:14:58Z</time>
      </trkpt>
      <trkpt lat="41.832155585289001" lon="13.675291612744331">
        <ele>1097</ele>
        <time>2017-06-17T08:15:08Z</time>
      </trkpt>
      <trkpt lat="41.832141587510705" lon="13.675327738747001">
        <ele>1097</ele>
        <time>2017-06-17T08:15:11Z</time>
      </trkpt>
      <trkpt lat="41.832024911418557" lon="13.675541561096907">
        <ele>1097.4799800000001</ele>
        <time>2017-06-17T08:15:29Z</time>
      </trkpt>
      <trkpt lat="41.831920389086008" lon="13.675620434805751">
        <ele>1097.4799800000001</ele>
        <time>2017-06-17T08:15:41Z</time>
      </trkpt>
      <trkpt lat="41.831873282790184" lon="13.675645412877202">
        <ele>1097.4799800000001</ele>
        <time>2017-06-17T08:15:45Z</time>
      </trkpt>
      <trkpt lat="41.831757361069322" lon="13.675673240795732">
        <ele>1097.4799800000001</ele>
        <time>2017-06-17T08:15:52Z</time>
      </trkpt>
      <trkpt lat="41.831535408273339" lon="13.67573032155633">
        <ele>1098.4399410000001</ele>
        <time>2017-06-17T08:16:09Z</time>
      </trkpt>
      <trkpt lat="41.831398112699389" lon="13.67575672455132">
        <ele>1098.920044</ele>
        <time>2017-06-17T08:16:19Z</time>
      </trkpt>
      <trkpt lat="41.831198371946812" lon="13.675751108676195">
        <ele>1099.400024</ele>
        <time>2017-06-17T08:16:36Z</time>
      </trkpt>
      <trkpt lat="41.831037439405918" lon="13.675696961581707">
        <ele>1099.8900149999999</ele>
        <time>2017-06-17T08:16:49Z</time>
      </trkpt>
      <trkpt lat="41.830998295918107" lon="13.675690004602075">
        <ele>1099.8900149999999</ele>
        <time>2017-06-17T08:16:53Z</time>
      </trkpt>
      <trkpt lat="41.83091246522963" lon="13.675672318786383">
        <ele>1100.369995</ele>
        <time>2017-06-17T08:17:07Z</time>
      </trkpt>
      <trkpt lat="41.830901065841317" lon="13.675673995167017">
        <ele>1100.369995</ele>
        <time>2017-06-17T08:17:34Z</time>
      </trkpt>
      <trkpt lat="41.830875668674707" lon="13.675686735659838">
        <ele>1100.369995</ele>
        <time>2017-06-17T08:17:43Z</time>
      </trkpt>
      <trkpt lat="41.830836776643991" lon="13.675696039572358">
        <ele>1100.849976</ele>
        <time>2017-06-17T08:17:48Z</time>
      </trkpt>
      <trkpt lat="41.830750862136483" lon="13.675672234967351">
        <ele>1100.849976</ele>
        <time>2017-06-17T08:18:03Z</time>
      </trkpt>
      <trkpt lat="41.830612225458026" lon="13.675741218030453">
        <ele>1101.329956</ele>
        <time>2017-06-17T08:18:19Z</time>
      </trkpt>
      <trkpt lat="41.830503260716796" lon="13.675774410367012">
        <ele>1101.8100589999999</ele>
        <time>2017-06-17T08:18:34Z</time>
      </trkpt>
      <trkpt lat="41.830427572131157" lon="13.675808776170015">
        <ele>1101.8100589999999</ele>
        <time>2017-06-17T08:18:40Z</time>
      </trkpt>
      <trkpt lat="41.830287761986256" lon="13.675780277699232">
        <ele>1102.290039</ele>
        <time>2017-06-17T08:18:56Z</time>
      </trkpt>
      <trkpt lat="41.830214839428663" lon="13.67571908980608">
        <ele>1102.290039</ele>
        <time>2017-06-17T08:19:05Z</time>
      </trkpt>
      <trkpt lat="41.830028761178255" lon="13.675595875829458">
        <ele>1103.25</ele>
        <time>2017-06-17T08:19:19Z</time>
      </trkpt>
      <trkpt lat="41.829810999333858" lon="13.675473500043154">
        <ele>1103.25</ele>
        <time>2017-06-17T08:19:34Z</time>
      </trkpt>
      <trkpt lat="41.829663896933198" lon="13.675554720684886">
        <ele>1104.2100829999999</ele>
        <time>2017-06-17T08:19:46Z</time>
      </trkpt>
      <trkpt lat="41.829505562782288" lon="13.675701320171356">
        <ele>1103.7299800000001</ele>
        <time>2017-06-17T08:20:01Z</time>
      </trkpt>
      <trkpt lat="41.829358963295817" lon="13.675837107002735">
        <ele>1104.690063</ele>
        <time>2017-06-17T08:20:12Z</time>
      </trkpt>
      <trkpt lat="41.829178165644407" lon="13.675953028723598">
        <ele>1105.650024</ele>
        <time>2017-06-17T08:20:27Z</time>
      </trkpt>
      <trkpt lat="41.829106668010354" lon="13.676052941009402">
        <ele>1106.130005</ele>
        <time>2017-06-17T08:20:39Z</time>
      </trkpt>
      <trkpt lat="41.8288987968117" lon="13.676242288202047">
        <ele>1107.580078</ele>
        <time>2017-06-17T08:20:57Z</time>
      </trkpt>
      <trkpt lat="41.828803662210703" lon="13.676311690360308">
        <ele>1107.580078</ele>
        <time>2017-06-17T08:21:05Z</time>
      </trkpt>
      <trkpt lat="41.828786982223392" lon="13.676336500793695">
        <ele>1107.580078</ele>
        <time>2017-06-17T08:21:07Z</time>
      </trkpt>
      <trkpt lat="41.82865253649652" lon="13.676487626507878">
        <ele>1108.059937</ele>
        <time>2017-06-17T08:21:23Z</time>
      </trkpt>
      <trkpt lat="41.828491687774658" lon="13.676624167710543">
        <ele>1109.0200199999999</ele>
        <time>2017-06-17T08:21:36Z</time>
      </trkpt>
      <trkpt lat="41.828350033611059" lon="13.676746459677815">
        <ele>1109.9799800000001</ele>
        <time>2017-06-17T08:21:50Z</time>
      </trkpt>
      <trkpt lat="41.828159680590034" lon="13.676871433854103">
        <ele>1110.9399410000001</ele>
        <time>2017-06-17T08:22:07Z</time>
      </trkpt>
      <trkpt lat="41.827990366145968" lon="13.676990959793329">
        <ele>1110.9399410000001</ele>
        <time>2017-06-17T08:22:24Z</time>
      </trkpt>
      <trkpt lat="41.827701861038804" lon="13.677307460457087">
        <ele>1111.420044</ele>
        <time>2017-06-17T08:22:48Z</time>
      </trkpt>
      <trkpt lat="41.827553501352668" lon="13.677527904510498">
        <ele>1111.900024</ele>
        <time>2017-06-17T08:23:05Z</time>
      </trkpt>
      <trkpt lat="41.827453672885895" lon="13.677764860913157">
        <ele>1111.900024</ele>
        <time>2017-06-17T08:23:21Z</time>
      </trkpt>
      <trkpt lat="41.827352838590741" lon="13.678009361028671">
        <ele>1112.380005</ele>
        <time>2017-06-17T08:23:35Z</time>
      </trkpt>
      <trkpt lat="41.827271115034819" lon="13.678241288289428">
        <ele>1112.8599850000001</ele>
        <time>2017-06-17T08:23:51Z</time>
      </trkpt>
      <trkpt lat="41.827146224677563" lon="13.678429294377565">
        <ele>1113.820068</ele>
        <time>2017-06-17T08:24:06Z</time>
      </trkpt>
      <trkpt lat="41.826986633241177" lon="13.678650576621294">
        <ele>1114.790039</ele>
        <time>2017-06-17T08:24:24Z</time>
      </trkpt>
      <trkpt lat="41.826884541660547" lon="13.678784938529134">
        <ele>1114.790039</ele>
        <time>2017-06-17T08:24:38Z</time>
      </trkpt>
      <trkpt lat="41.826741630211473" lon="13.678966239094734">
        <ele>1115.2700199999999</ele>
        <time>2017-06-17T08:24:54Z</time>
      </trkpt>
      <trkpt lat="41.826612632721663" lon="13.679145025089383">
        <ele>1116.2299800000001</ele>
        <time>2017-06-17T08:25:08Z</time>
      </trkpt>
      <trkpt lat="41.826484808698297" lon="13.679353566840291">
        <ele>1116.7100829999999</ele>
        <time>2017-06-17T08:25:22Z</time>
      </trkpt>
      <trkpt lat="41.826357236132026" lon="13.679492874071002">
        <ele>1117.190063</ele>
        <time>2017-06-17T08:25:37Z</time>
      </trkpt>
      <trkpt lat="41.826234525069594" lon="13.679669229313731">
        <ele>1118.150024</ele>
        <time>2017-06-17T08:25:52Z</time>
      </trkpt>
      <trkpt lat="41.82605498470366" lon="13.679877603426576">
        <ele>1118.630005</ele>
        <time>2017-06-17T08:26:12Z</time>
      </trkpt>
      <trkpt lat="41.826053140684962" lon="13.679893026128411">
        <ele>1118.630005</ele>
        <time>2017-06-17T08:26:35Z</time>
      </trkpt>
      <trkpt lat="41.826007291674614" lon="13.679980700835586">
        <ele>1118.150024</ele>
        <time>2017-06-17T08:27:01Z</time>
      </trkpt>
      <trkpt lat="41.825966220349073" lon="13.680040379986167">
        <ele>1118.150024</ele>
        <time>2017-06-17T08:27:06Z</time>
      </trkpt>
      <trkpt lat="41.825943673029542" lon="13.68008254095912">
        <ele>1118.150024</ele>
        <time>2017-06-17T08:27:09Z</time>
      </trkpt>
      <trkpt lat="41.825828505679965" lon="13.680208437144756">
        <ele>1118.630005</ele>
        <time>2017-06-17T08:27:21Z</time>
      </trkpt>
      <trkpt lat="41.825766982510686" lon="13.680325364693999">
        <ele>1118.630005</ele>
        <time>2017-06-17T08:27:30Z</time>
      </trkpt>
      <trkpt lat="41.825656425207853" lon="13.680458469316363">
        <ele>1119.1099850000001</ele>
        <time>2017-06-17T08:27:45Z</time>
      </trkpt>
      <trkpt lat="41.825637063011527" lon="13.680509096011519">
        <ele>1119.589966</ele>
        <time>2017-06-17T08:27:50Z</time>
      </trkpt>
      <trkpt lat="41.825591716915369" lon="13.680609175935388">
        <ele>1119.589966</ele>
        <time>2017-06-17T08:27:56Z</time>
      </trkpt>
      <trkpt lat="41.82543832808733" lon="13.680852334946394">
        <ele>1120.5500489999999</ele>
        <time>2017-06-17T08:28:13Z</time>
      </trkpt>
      <trkpt lat="41.825384013354778" lon="13.680858705192804">
        <ele>1120.5500489999999</ele>
        <time>2017-06-17T08:28:47Z</time>
      </trkpt>
      <trkpt lat="41.825325759127736" lon="13.681007064878941">
        <ele>1120.5500489999999</ele>
        <time>2017-06-17T08:29:08Z</time>
      </trkpt>
      <trkpt lat="41.825295584276319" lon="13.681044364348054">
        <ele>1122</ele>
        <time>2017-06-17T08:29:11Z</time>
      </trkpt>
      <trkpt lat="41.825220985338092" lon="13.681166907772422">
        <ele>1122.4799800000001</ele>
        <time>2017-06-17T08:29:24Z</time>
      </trkpt>
      <trkpt lat="41.825211513787508" lon="13.681192891672254">
        <ele>1122.4799800000001</ele>
        <time>2017-06-17T08:29:26Z</time>
      </trkpt>
      <trkpt lat="41.825169017538428" lon="13.681236058473587">
        <ele>1122.4799800000001</ele>
        <time>2017-06-17T08:29:31Z</time>
      </trkpt>
      <trkpt lat="41.824946058914065" lon="13.681474523618817">
        <ele>1122.959961</ele>
        <time>2017-06-17T08:29:49Z</time>
      </trkpt>
      <trkpt lat="41.824831059202552" lon="13.681678790599108">
        <ele>1122.959961</ele>
        <time>2017-06-17T08:30:05Z</time>
      </trkpt>
      <trkpt lat="41.82479283772409" lon="13.681785492226481">
        <ele>1122.959961</ele>
        <time>2017-06-17T08:30:21Z</time>
      </trkpt>
      <trkpt lat="41.824767189100385" lon="13.681777780875564">
        <ele>1122.959961</ele>
        <time>2017-06-17T08:30:41Z</time>
      </trkpt>
      <trkpt lat="41.824700217694044" lon="13.68197257630527">
        <ele>1123.920044</ele>
        <time>2017-06-17T08:30:55Z</time>
      </trkpt>
      <trkpt lat="41.824580188840628" lon="13.682225961238146">
        <ele>1124.400024</ele>
        <time>2017-06-17T08:31:10Z</time>
      </trkpt>
      <trkpt lat="41.824524365365505" lon="13.682402232661843">
        <ele>1124.880005</ele>
        <time>2017-06-17T08:31:22Z</time>
      </trkpt>
      <trkpt lat="41.824518078938127" lon="13.682490829378366">
        <ele>1124.880005</ele>
        <time>2017-06-17T08:31:27Z</time>
      </trkpt>
      <trkpt lat="41.824514474719763" lon="13.682514298707247">
        <ele>1125.3599850000001</ele>
        <time>2017-06-17T08:31:28Z</time>
      </trkpt>
      <trkpt lat="41.824511289596558" lon="13.682534582912922">
        <ele>1125.3599850000001</ele>
        <time>2017-06-17T08:31:29Z</time>
      </trkpt>
      <trkpt lat="41.824505841359496" lon="13.682556124404073">
        <ele>1125.3599850000001</ele>
        <time>2017-06-17T08:31:30Z</time>
      </trkpt>
      <trkpt lat="41.824501231312752" lon="13.682577833533287">
        <ele>1125.3599850000001</ele>
        <time>2017-06-17T08:31:31Z</time>
      </trkpt>
      <trkpt lat="41.824499135836959" lon="13.682596860453486">
        <ele>1125.3599850000001</ele>
        <time>2017-06-17T08:31:32Z</time>
      </trkpt>
      <trkpt lat="41.824496788904071" lon="13.682613540440798">
        <ele>1125.3599850000001</ele>
        <time>2017-06-17T08:31:33Z</time>
      </trkpt>
      <trkpt lat="41.824439875781536" lon="13.682897770777345">
        <ele>1125.839966</ele>
        <time>2017-06-17T08:31:50Z</time>
      </trkpt>
      <trkpt lat="41.824408192187548" lon="13.683041268959641">
        <ele>1126.320068</ele>
        <time>2017-06-17T08:31:57Z</time>
      </trkpt>
      <trkpt lat="41.824408527463675" lon="13.683061804622412">
        <ele>1126.320068</ele>
        <time>2017-06-17T08:31:58Z</time>
      </trkpt>
      <trkpt lat="41.82440291158855" lon="13.683283338323236">
        <ele>1126.799927</ele>
        <time>2017-06-17T08:32:11Z</time>
      </trkpt>
      <trkpt lat="41.824381202459335" lon="13.683523228392005">
        <ele>1126.799927</ele>
        <time>2017-06-17T08:32:27Z</time>
      </trkpt>
      <trkpt lat="41.824314901605248" lon="13.683765968307853">
        <ele>1127.76001</ele>
        <time>2017-06-17T08:32:40Z</time>
      </trkpt>
      <trkpt lat="41.824235441163182" lon="13.683934276923537">
        <ele>1128.7299800000001</ele>
        <time>2017-06-17T08:32:55Z</time>
      </trkpt>
      <trkpt lat="41.824104180559516" lon="13.684158660471439">
        <ele>1129.2100829999999</ele>
        <time>2017-06-17T08:33:08Z</time>
      </trkpt>
      <trkpt lat="41.82399001903832" lon="13.68429746478796">
        <ele>1130.650024</ele>
        <time>2017-06-17T08:33:20Z</time>
      </trkpt>
      <trkpt lat="41.82397685945034" lon="13.684309786185622">
        <ele>1131.130005</ele>
        <time>2017-06-17T08:33:21Z</time>
      </trkpt>
      <trkpt lat="41.823959425091743" lon="13.684328980743885">
        <ele>1131.130005</ele>
        <time>2017-06-17T08:33:23Z</time>
      </trkpt>
      <trkpt lat="41.823941906914115" lon="13.684350689873099">
        <ele>1131.130005</ele>
        <time>2017-06-17T08:33:25Z</time>
      </trkpt>
      <trkpt lat="41.823875438421965" lon="13.68448999710381">
        <ele>1132.5699460000001</ele>
        <time>2017-06-17T08:33:36Z</time>
      </trkpt>
      <trkpt lat="41.823863536119461" lon="13.68452126160264">
        <ele>1132.5699460000001</ele>
        <time>2017-06-17T08:33:38Z</time>
      </trkpt>
      <trkpt lat="41.823824811726809" lon="13.684612708166242">
        <ele>1133.0500489999999</ele>
        <time>2017-06-17T08:33:45Z</time>
      </trkpt>
      <trkpt lat="41.823736466467381" lon="13.684831224381924">
        <ele>1134.01001</ele>
        <time>2017-06-17T08:33:59Z</time>
      </trkpt>
      <trkpt lat="41.823656503111124" lon="13.685069270431995">
        <ele>1134.48999</ele>
        <time>2017-06-17T08:34:15Z</time>
      </trkpt>
      <trkpt lat="41.823561703786254" lon="13.68534310720861">
        <ele>1135.450073</ele>
        <time>2017-06-17T08:34:31Z</time>
      </trkpt>
      <trkpt lat="41.823533205315471" lon="13.685473529621959">
        <ele>1135.450073</ele>
        <time>2017-06-17T08:34:40Z</time>
      </trkpt>
      <trkpt lat="41.823531361296773" lon="13.68549020960927">
        <ele>1135.450073</ele>
        <time>2017-06-17T08:34:41Z</time>
      </trkpt>
      <trkpt lat="41.823445782065392" lon="13.685816684737802">
        <ele>1134.969971</ele>
        <time>2017-06-17T08:34:58Z</time>
      </trkpt>
      <trkpt lat="41.823438405990601" lon="13.686046600341797">
        <ele>1134.969971</ele>
        <time>2017-06-17T08:35:13Z</time>
      </trkpt>
      <trkpt lat="41.823391886427999" lon="13.686334770172834">
        <ele>1134.969971</ele>
        <time>2017-06-17T08:35:27Z</time>
      </trkpt>
      <trkpt lat="41.823372859507799" lon="13.686554376035929">
        <ele>1134.969971</ele>
        <time>2017-06-17T08:35:42Z</time>
      </trkpt>
      <trkpt lat="41.823324495926499" lon="13.68684028275311">
        <ele>1135.450073</ele>
        <time>2017-06-17T08:35:57Z</time>
      </trkpt>
      <trkpt lat="41.823325585573912" lon="13.686862159520388">
        <ele>1134.969971</ele>
        <time>2017-06-17T08:36:04Z</time>
      </trkpt>
      <trkpt lat="41.823324160650373" lon="13.686879174783826">
        <ele>1134.969971</ele>
        <time>2017-06-17T08:36:05Z</time>
      </trkpt>
      <trkpt lat="41.823323238641024" lon="13.686898285523057">
        <ele>1135.450073</ele>
        <time>2017-06-17T08:36:06Z</time>
      </trkpt>
      <trkpt lat="41.823321813717484" lon="13.686919407919049">
        <ele>1135.450073</ele>
        <time>2017-06-17T08:36:07Z</time>
      </trkpt>
      <trkpt lat="41.823316114023328" lon="13.686942458152771">
        <ele>1135.450073</ele>
        <time>2017-06-17T08:36:08Z</time>
      </trkpt>
      <trkpt lat="41.823311503976583" lon="13.686964921653271">
        <ele>1135.450073</ele>
        <time>2017-06-17T08:36:09Z</time>
      </trkpt>
      <trkpt lat="41.823311001062393" lon="13.686987636610866">
        <ele>1135.450073</ele>
        <time>2017-06-17T08:36:10Z</time>
      </trkpt>
      <trkpt lat="41.823321310803294" lon="13.687148820608854">
        <ele>1136.420044</ele>
        <time>2017-06-17T08:36:22Z</time>
      </trkpt>
      <trkpt lat="41.823323406279087" lon="13.687170697376132">
        <ele>1136.420044</ele>
        <time>2017-06-17T08:36:23Z</time>
      </trkpt>
      <trkpt lat="41.823324915021658" lon="13.687190897762775">
        <ele>1136.420044</ele>
        <time>2017-06-17T08:36:24Z</time>
      </trkpt>
      <trkpt lat="41.82332600466907" lon="13.687210092321038">
        <ele>1136.420044</ele>
        <time>2017-06-17T08:36:25Z</time>
      </trkpt>
      <trkpt lat="41.823325920850039" lon="13.687230292707682">
        <ele>1136.420044</ele>
        <time>2017-06-17T08:36:26Z</time>
      </trkpt>
      <trkpt lat="41.823325837031007" lon="13.68724973872304">
        <ele>1136.420044</ele>
        <time>2017-06-17T08:36:27Z</time>
      </trkpt>
      <trkpt lat="41.823312593623996" lon="13.68743347004056">
        <ele>1136.900024</ele>
        <time>2017-06-17T08:36:39Z</time>
      </trkpt>
      <trkpt lat="41.82331183925271" lon="13.68745056912303">
        <ele>1136.900024</ele>
        <time>2017-06-17T08:36:40Z</time>
      </trkpt>
      <trkpt lat="41.823310079053044" lon="13.687469596043229">
        <ele>1136.900024</ele>
        <time>2017-06-17T08:36:41Z</time>
      </trkpt>
      <trkpt lat="41.823308821767569" lon="13.687487365677953">
        <ele>1136.900024</ele>
        <time>2017-06-17T08:36:42Z</time>
      </trkpt>
      <trkpt lat="41.823308737948537" lon="13.687503878027201">
        <ele>1136.900024</ele>
        <time>2017-06-17T08:36:43Z</time>
      </trkpt>
      <trkpt lat="41.823307983577251" lon="13.687519803643227">
        <ele>1136.900024</ele>
        <time>2017-06-17T08:36:44Z</time>
      </trkpt>
      <trkpt lat="41.82330789975822" lon="13.687538998201489">
        <ele>1136.900024</ele>
        <time>2017-06-17T08:36:45Z</time>
      </trkpt>
      <trkpt lat="41.823307061567903" lon="13.687559869140387">
        <ele>1136.900024</ele>
        <time>2017-06-17T08:36:46Z</time>
      </trkpt>
      <trkpt lat="41.823310498148203" lon="13.687815936282277">
        <ele>1137.8599850000001</ele>
        <time>2017-06-17T08:37:02Z</time>
      </trkpt>
      <trkpt lat="41.823325585573912" lon="13.688107458874583">
        <ele>1138.339966</ele>
        <time>2017-06-17T08:37:19Z</time>
      </trkpt>
      <trkpt lat="41.823347378522158" lon="13.688375512138009">
        <ele>1138.820068</ele>
        <time>2017-06-17T08:37:35Z</time>
      </trkpt>
      <trkpt lat="41.823360789567232" lon="13.688663514330983">
        <ele>1139.299927</ele>
        <time>2017-06-17T08:37:52Z</time>
      </trkpt>
      <trkpt lat="41.823379481211305" lon="13.688915809616446">
        <ele>1139.780029</ele>
        <time>2017-06-17T08:38:07Z</time>
      </trkpt>
      <trkpt lat="41.823401441797614" lon="13.689238680526614">
        <ele>1140.26001</ele>
        <time>2017-06-17T08:38:26Z</time>
      </trkpt>
      <trkpt lat="41.823418959975243" lon="13.689505392685533">
        <ele>1140.73999</ele>
        <time>2017-06-17T08:38:42Z</time>
      </trkpt>
      <trkpt lat="41.823419379070401" lon="13.689750395715237">
        <ele>1140.73999</ele>
        <time>2017-06-17T08:38:55Z</time>
      </trkpt>
      <trkpt lat="41.823416361585259" lon="13.690033787861466">
        <ele>1141.6999510000001</ele>
        <time>2017-06-17T08:39:12Z</time>
      </trkpt>
      <trkpt lat="41.82342222891748" lon="13.690316006541252">
        <ele>1142.1800539999999</ele>
        <time>2017-06-17T08:39:28Z</time>
      </trkpt>
      <trkpt lat="41.823441674932837" lon="13.690584311261773">
        <ele>1142.660034</ele>
        <time>2017-06-17T08:39:44Z</time>
      </trkpt>
      <trkpt lat="41.823451900854707" lon="13.690823866054416">
        <ele>1143.630005</ele>
        <time>2017-06-17T08:39:58Z</time>
      </trkpt>
      <trkpt lat="41.823441758751869" lon="13.690928975120187">
        <ele>1144.1099850000001</ele>
        <time>2017-06-17T08:40:05Z</time>
      </trkpt>
      <trkpt lat="41.823442932218313" lon="13.690944314002991">
        <ele>1144.1099850000001</ele>
        <time>2017-06-17T08:40:06Z</time>
      </trkpt>
      <trkpt lat="41.823442177847028" lon="13.690965939313173">
        <ele>1144.1099850000001</ele>
        <time>2017-06-17T08:40:07Z</time>
      </trkpt>
      <trkpt lat="41.823441088199615" lon="13.690988318994641">
        <ele>1144.1099850000001</ele>
        <time>2017-06-17T08:40:08Z</time>
      </trkpt>
      <trkpt lat="41.823441172018647" lon="13.691008687019348">
        <ele>1144.1099850000001</ele>
        <time>2017-06-17T08:40:09Z</time>
      </trkpt>
      <trkpt lat="41.823427174240351" lon="13.691215636208653">
        <ele>1144.589966</ele>
        <time>2017-06-17T08:40:23Z</time>
      </trkpt>
      <trkpt lat="41.823404040187597" lon="13.691452592611313">
        <ele>1145.0699460000001</ele>
        <time>2017-06-17T08:40:37Z</time>
      </trkpt>
      <trkpt lat="41.823376715183258" lon="13.691561138257384">
        <ele>1145.0699460000001</ele>
        <time>2017-06-17T08:40:43Z</time>
      </trkpt>
      <trkpt lat="41.823372859507799" lon="13.691581003367901">
        <ele>1145.0699460000001</ele>
        <time>2017-06-17T08:40:44Z</time>
      </trkpt>
      <trkpt lat="41.823359867557883" lon="13.691794071346521">
        <ele>1145.5500489999999</ele>
        <time>2017-06-17T08:40:57Z</time>
      </trkpt>
      <trkpt lat="41.82333430275321" lon="13.692022059112787">
        <ele>1146.51001</ele>
        <time>2017-06-17T08:41:10Z</time>
      </trkpt>
      <trkpt lat="41.823330027982593" lon="13.692227164283395">
        <ele>1146.98999</ele>
        <time>2017-06-17T08:41:22Z</time>
      </trkpt>
      <trkpt lat="41.823333632200956" lon="13.69224258698523">
        <ele>1146.98999</ele>
        <time>2017-06-17T08:41:23Z</time>
      </trkpt>
      <trkpt lat="41.823335392400622" lon="13.692258261144161">
        <ele>1146.98999</ele>
        <time>2017-06-17T08:41:24Z</time>
      </trkpt>
      <trkpt lat="41.823336314409971" lon="13.692273432388902">
        <ele>1146.98999</ele>
        <time>2017-06-17T08:41:25Z</time>
      </trkpt>
      <trkpt lat="41.823354586958885" lon="13.692510137334466">
        <ele>1147.469971</ele>
        <time>2017-06-17T08:41:39Z</time>
      </trkpt>
      <trkpt lat="41.823316030204296" lon="13.692754972726107">
        <ele>1147.469971</ele>
        <time>2017-06-17T08:41:54Z</time>
      </trkpt>
      <trkpt lat="41.823262386023998" lon="13.693045405671">
        <ele>1147.950073</ele>
        <time>2017-06-17T08:42:12Z</time>
      </trkpt>
      <trkpt lat="41.823189631104469" lon="13.693271884694695">
        <ele>1148.9099120000001</ele>
        <time>2017-06-17T08:42:27Z</time>
      </trkpt>
      <trkpt lat="41.823133891448379" lon="13.69350322522223">
        <ele>1149.3900149999999</ele>
        <time>2017-06-17T08:42:42Z</time>
      </trkpt>
      <trkpt lat="41.823075469583273" lon="13.693736158311367">
        <ele>1149.869995</ele>
        <time>2017-06-17T08:42:57Z</time>
      </trkpt>
      <trkpt lat="41.822990225628018" lon="13.693988621234894">
        <ele>1150.349976</ele>
        <time>2017-06-17T08:43:12Z</time>
      </trkpt>
      <trkpt lat="41.822926439344883" lon="13.694233037531376">
        <ele>1150.839966</ele>
        <time>2017-06-17T08:43:27Z</time>
      </trkpt>
      <trkpt lat="41.822909759357572" lon="13.694344935938716">
        <ele>1150.839966</ele>
        <time>2017-06-17T08:43:35Z</time>
      </trkpt>
      <trkpt lat="41.822905987501144" lon="13.694361364468932">
        <ele>1150.839966</ele>
        <time>2017-06-17T08:43:36Z</time>
      </trkpt>
      <trkpt lat="41.822898862883449" lon="13.69437837973237">
        <ele>1150.839966</ele>
        <time>2017-06-17T08:43:37Z</time>
      </trkpt>
      <trkpt lat="41.82283591479063" lon="13.694535791873932">
        <ele>1150.839966</ele>
        <time>2017-06-17T08:43:46Z</time>
      </trkpt>
      <trkpt lat="41.82283490896225" lon="13.69455180130899">
        <ele>1150.839966</ele>
        <time>2017-06-17T08:43:47Z</time>
      </trkpt>
      <trkpt lat="41.822769027203321" lon="13.694798983633518">
        <ele>1151.799927</ele>
        <time>2017-06-17T08:44:03Z</time>
      </trkpt>
      <trkpt lat="41.822700630873442" lon="13.695067623630166">
        <ele>1152.280029</ele>
        <time>2017-06-17T08:44:19Z</time>
      </trkpt>
      <trkpt lat="41.822599964216352" lon="13.695313716307282">
        <ele>1152.280029</ele>
        <time>2017-06-17T08:44:36Z</time>
      </trkpt>
      <trkpt lat="41.822460405528545" lon="13.695630636066198">
        <ele>1153.23999</ele>
        <time>2017-06-17T08:44:57Z</time>
      </trkpt>
      <trkpt lat="41.822322187945247" lon="13.695927020162344">
        <ele>1153.719971</ele>
        <time>2017-06-17T08:45:15Z</time>
      </trkpt>
      <trkpt lat="41.822239458560944" lon="13.696171436458826">
        <ele>1154.6800539999999</ele>
        <time>2017-06-17T08:45:33Z</time>
      </trkpt>
      <trkpt lat="41.822199895977974" lon="13.696276880800724">
        <ele>1154.6800539999999</ele>
        <time>2017-06-17T08:45:40Z</time>
      </trkpt>
      <trkpt lat="41.822194280102849" lon="13.69629523716867">
        <ele>1154.6800539999999</ele>
        <time>2017-06-17T08:45:41Z</time>
      </trkpt>
      <trkpt lat="41.822185562923551" lon="13.696317784488201">
        <ele>1154.6800539999999</ele>
        <time>2017-06-17T08:45:42Z</time>
      </trkpt>
      <trkpt lat="41.822178019210696" lon="13.696336224675179">
        <ele>1155.160034</ele>
        <time>2017-06-17T08:45:43Z</time>
      </trkpt>
      <trkpt lat="41.822169721126556" lon="13.696355167776346">
        <ele>1155.160034</ele>
        <time>2017-06-17T08:45:44Z</time>
      </trkpt>
      <trkpt lat="41.822075005620718" lon="13.696583490818739">
        <ele>1155.6400149999999</ele>
        <time>2017-06-17T08:46:00Z</time>
      </trkpt>
      <trkpt lat="41.821958497166634" lon="13.69686889462173">
        <ele>1156.119995</ele>
        <time>2017-06-17T08:46:18Z</time>
      </trkpt>
      <trkpt lat="41.821873839944601" lon="13.69709026068449">
        <ele>1156.599976</ele>
        <time>2017-06-17T08:46:35Z</time>
      </trkpt>
      <trkpt lat="41.821819106116891" lon="13.697230406105518">
        <ele>1158.0500489999999</ele>
        <time>2017-06-17T08:46:52Z</time>
      </trkpt>
      <trkpt lat="41.821776861324906" lon="13.697355631738901">
        <ele>1158.0500489999999</ele>
        <time>2017-06-17T08:46:59Z</time>
      </trkpt>
      <trkpt lat="41.821775771677494" lon="13.697375161573291">
        <ele>1158.0500489999999</ele>
        <time>2017-06-17T08:47:00Z</time>
      </trkpt>
      <trkpt lat="41.821735538542271" lon="13.697657380253077">
        <ele>1158.530029</ele>
        <time>2017-06-17T08:47:16Z</time>
      </trkpt>
      <trkpt lat="41.82171106338501" lon="13.69788084179163">
        <ele>1159.48999</ele>
        <time>2017-06-17T08:47:29Z</time>
      </trkpt>
      <trkpt lat="41.8216856662184" lon="13.698110925033689">
        <ele>1159.48999</ele>
        <time>2017-06-17T08:47:40Z</time>
      </trkpt>
      <trkpt lat="41.821703184396029" lon="13.698199773207307">
        <ele>1159.969971</ele>
        <time>2017-06-17T08:47:47Z</time>
      </trkpt>
      <trkpt lat="41.821698909625411" lon="13.698212765157223">
        <ele>1159.969971</ele>
        <time>2017-06-17T08:47:48Z</time>
      </trkpt>
      <trkpt lat="41.82169932872057" lon="13.698225673288107">
        <ele>1159.969971</ele>
        <time>2017-06-17T08:47:49Z</time>
      </trkpt>
      <trkpt lat="41.821616515517235" lon="13.698502611368895">
        <ele>1160.450073</ele>
        <time>2017-06-17T08:48:07Z</time>
      </trkpt>
      <trkpt lat="41.821546610444784" lon="13.698716936632991">
        <ele>1161.8900149999999</ele>
        <time>2017-06-17T08:48:23Z</time>
      </trkpt>
      <trkpt lat="41.821530181914568" lon="13.698764462023973">
        <ele>1161.8900149999999</ele>
        <time>2017-06-17T08:48:26Z</time>
      </trkpt>
      <trkpt lat="41.821522889658809" lon="13.698781309649348">
        <ele>1162.849976</ele>
        <time>2017-06-17T08:48:27Z</time>
      </trkpt>
      <trkpt lat="41.821516184136271" lon="13.69879899546504">
        <ele>1162.849976</ele>
        <time>2017-06-17T08:48:28Z</time>
      </trkpt>
      <trkpt lat="41.821510065346956" lon="13.698815507814288">
        <ele>1162.849976</ele>
        <time>2017-06-17T08:48:29Z</time>
      </trkpt>
      <trkpt lat="41.821504617109895" lon="13.698834534734488">
        <ele>1162.849976</ele>
        <time>2017-06-17T08:48:30Z</time>
      </trkpt>
      <trkpt lat="41.821457594633102" lon="13.699076687917113">
        <ele>1162.849976</ele>
        <time>2017-06-17T08:48:44Z</time>
      </trkpt>
      <trkpt lat="41.821474693715572" lon="13.699324792250991">
        <ele>1163.329956</ele>
        <time>2017-06-17T08:49:00Z</time>
      </trkpt>
      <trkpt lat="41.821401603519917" lon="13.699613464996219">
        <ele>1163.329956</ele>
        <time>2017-06-17T08:49:13Z</time>
      </trkpt>
      <trkpt lat="41.821396658197045" lon="13.699630564078689">
        <ele>1163.329956</ele>
        <time>2017-06-17T08:49:14Z</time>
      </trkpt>
      <trkpt lat="41.821391796693206" lon="13.699664762243629">
        <ele>1163.329956</ele>
        <time>2017-06-17T08:49:16Z</time>
      </trkpt>
      <trkpt lat="41.821389868855476" lon="13.699684962630272">
        <ele>1163.809937</ele>
        <time>2017-06-17T08:49:17Z</time>
      </trkpt>
      <trkpt lat="41.821387941017747" lon="13.6997024808079">
        <ele>1163.809937</ele>
        <time>2017-06-17T08:49:18Z</time>
      </trkpt>
      <trkpt lat="41.821387438103557" lon="13.699717987328768">
        <ele>1163.809937</ele>
        <time>2017-06-17T08:49:19Z</time>
      </trkpt>
      <trkpt lat="41.82137687690556" lon="13.699967516586185">
        <ele>1164.7700199999999</ele>
        <time>2017-06-17T08:49:36Z</time>
      </trkpt>
      <trkpt lat="41.821284675970674" lon="13.700334224849939">
        <ele>1165.73999</ele>
        <time>2017-06-17T08:49:54Z</time>
      </trkpt>
      <trkpt lat="41.821259697899222" lon="13.700571684166789">
        <ele>1166.219971</ele>
        <time>2017-06-17T08:50:10Z</time>
      </trkpt>
      <trkpt lat="41.821227259933949" lon="13.700853483751416">
        <ele>1166.219971</ele>
        <time>2017-06-17T08:50:27Z</time>
      </trkpt>
      <trkpt lat="41.821191972121596" lon="13.701122878119349">
        <ele>1167.660034</ele>
        <time>2017-06-17T08:50:43Z</time>
      </trkpt>
      <trkpt lat="41.821189289912581" lon="13.701348435133696">
        <ele>1168.1400149999999</ele>
        <time>2017-06-17T08:50:55Z</time>
      </trkpt>
      <trkpt lat="41.821190966293216" lon="13.701586732640862">
        <ele>1169.099976</ele>
        <time>2017-06-17T08:51:10Z</time>
      </trkpt>
      <trkpt lat="41.821184176951647" lon="13.701866017654538">
        <ele>1170.0600589999999</ele>
        <time>2017-06-17T08:51:27Z</time>
      </trkpt>
      <trkpt lat="41.821184093132615" lon="13.701882865279913">
        <ele>1170.0600589999999</ele>
        <time>2017-06-17T08:51:28Z</time>
      </trkpt>
      <trkpt lat="41.821182835847139" lon="13.7018973659724">
        <ele>1170.0600589999999</ele>
        <time>2017-06-17T08:51:29Z</time>
      </trkpt>
      <trkpt lat="41.821153666824102" lon="13.702126778662205">
        <ele>1171.0200199999999</ele>
        <time>2017-06-17T08:51:45Z</time>
      </trkpt>
      <trkpt lat="41.821129024028778" lon="13.702317634597421">
        <ele>1172.950073</ele>
        <time>2017-06-17T08:51:57Z</time>
      </trkpt>
      <trkpt lat="41.821127096191049" lon="13.702338337898254">
        <ele>1172.950073</ele>
        <time>2017-06-17T08:51:58Z</time>
      </trkpt>
      <trkpt lat="41.82112030684948" lon="13.702545538544655">
        <ele>1172.950073</ele>
        <time>2017-06-17T08:52:11Z</time>
      </trkpt>
      <trkpt lat="41.821095664054155" lon="13.70276858098805">
        <ele>1171.9799800000001</ele>
        <time>2017-06-17T08:52:25Z</time>
      </trkpt>
      <trkpt lat="41.821084767580032" lon="13.702786937355995">
        <ele>1171.9799800000001</ele>
        <time>2017-06-17T08:52:27Z</time>
      </trkpt>
      <trkpt lat="41.821076218038797" lon="13.702797582373023">
        <ele>1171.9799800000001</ele>
        <time>2017-06-17T08:52:28Z</time>
      </trkpt>
      <trkpt lat="41.821067836135626" lon="13.702809819951653">
        <ele>1171.9799800000001</ele>
        <time>2017-06-17T08:52:29Z</time>
      </trkpt>
      <trkpt lat="41.821059202775359" lon="13.702821135520935">
        <ele>1171.9799800000001</ele>
        <time>2017-06-17T08:52:30Z</time>
      </trkpt>
      <trkpt lat="41.820999272167683" lon="13.702856171876192">
        <ele>1172.950073</ele>
        <time>2017-06-17T08:52:41Z</time>
      </trkpt>
      <trkpt lat="41.82099818252027" lon="13.702893890440464">
        <ele>1172.950073</ele>
        <time>2017-06-17T08:52:58Z</time>
      </trkpt>
      <trkpt lat="41.820982759818435" lon="13.702871929854155">
        <ele>1172.950073</ele>
        <time>2017-06-17T08:53:11Z</time>
      </trkpt>
      <trkpt lat="41.820987788960338" lon="13.702865391969681">
        <ele>1172.950073</ele>
        <time>2017-06-17T08:53:29Z</time>
      </trkpt>
      <trkpt lat="41.820973036810756" lon="13.702846700325608">
        <ele>1173.4300539999999</ele>
        <time>2017-06-17T08:53:47Z</time>
      </trkpt>
      <trkpt lat="41.820944035425782" lon="13.702796576544642">
        <ele>1173.4300539999999</ele>
        <time>2017-06-17T08:54:01Z</time>
      </trkpt>
      <trkpt lat="41.820954764261842" lon="13.702757013961673">
        <ele>1173.4300539999999</ele>
        <time>2017-06-17T08:54:12Z</time>
      </trkpt>
      <trkpt lat="41.820967085659504" lon="13.702793307602406">
        <ele>1173.4300539999999</ele>
        <time>2017-06-17T08:54:24Z</time>
      </trkpt>
      <trkpt lat="41.820973707363009" lon="13.702804036438465">
        <ele>1173.4300539999999</ele>
        <time>2017-06-17T08:54:25Z</time>
      </trkpt>
      <trkpt lat="41.820999858900905" lon="13.702868996188045">
        <ele>1173.4300539999999</ele>
        <time>2017-06-17T08:54:39Z</time>
      </trkpt>
      <trkpt lat="41.820998601615429" lon="13.70285608805716">
        <ele>1173.4300539999999</ele>
        <time>2017-06-17T08:55:11Z</time>
      </trkpt>
      <trkpt lat="41.821004217490554" lon="13.702904870733619">
        <ele>1173.4300539999999</ele>
        <time>2017-06-17T08:55:34Z</time>
      </trkpt>
      <trkpt lat="41.821043780073524" lon="13.702913839370012">
        <ele>1173.4300539999999</ele>
        <time>2017-06-17T08:55:50Z</time>
      </trkpt>
      <trkpt lat="41.821055766195059" lon="13.70292448438704">
        <ele>1173.4300539999999</ele>
        <time>2017-06-17T08:55:51Z</time>
      </trkpt>
      <trkpt lat="41.821066495031118" lon="13.70293621905148">
        <ele>1173.4300539999999</ele>
        <time>2017-06-17T08:55:52Z</time>
      </trkpt>
      <trkpt lat="41.821076301857829" lon="13.702948624268174">
        <ele>1173.4300539999999</ele>
        <time>2017-06-17T08:55:53Z</time>
      </trkpt>
      <trkpt lat="41.821084264665842" lon="13.702966561540961">
        <ele>1173.4300539999999</ele>
        <time>2017-06-17T08:55:54Z</time>
      </trkpt>
      <trkpt lat="41.821089964359999" lon="13.702983912080526">
        <ele>1173.4300539999999</ele>
        <time>2017-06-17T08:55:55Z</time>
      </trkpt>
      <trkpt lat="41.82109541259706" lon="13.70300218462944">
        <ele>1173.4300539999999</ele>
        <time>2017-06-17T08:55:56Z</time>
      </trkpt>
      <trkpt lat="41.821099603548646" lon="13.703019367530942">
        <ele>1173.4300539999999</ele>
        <time>2017-06-17T08:55:57Z</time>
      </trkpt>
      <trkpt lat="41.821110667660832" lon="13.703295802697539">
        <ele>1174.3900149999999</ele>
        <time>2017-06-17T08:56:14Z</time>
      </trkpt>
      <trkpt lat="41.821120558306575" lon="13.703333772718906">
        <ele>1174.3900149999999</ele>
        <time>2017-06-17T08:56:16Z</time>
      </trkpt>
      <trkpt lat="41.821119384840131" lon="13.703352715820074">
        <ele>1174.3900149999999</ele>
        <time>2017-06-17T08:56:17Z</time>
      </trkpt>
      <trkpt lat="41.821118462830782" lon="13.703369395807385">
        <ele>1174.869995</ele>
        <time>2017-06-17T08:56:18Z</time>
      </trkpt>
      <trkpt lat="41.821118462830782" lon="13.703386327251792">
        <ele>1174.869995</ele>
        <time>2017-06-17T08:56:19Z</time>
      </trkpt>
      <trkpt lat="41.821119217202067" lon="13.703402671962976">
        <ele>1174.869995</ele>
        <time>2017-06-17T08:56:20Z</time>
      </trkpt>
      <trkpt lat="41.821117959916592" lon="13.703418094664812">
        <ele>1174.869995</ele>
        <time>2017-06-17T08:56:21Z</time>
      </trkpt>
      <trkpt lat="41.821117624640465" lon="13.703434774652123">
        <ele>1174.869995</ele>
        <time>2017-06-17T08:56:22Z</time>
      </trkpt>
      <trkpt lat="41.821126006543636" lon="13.703709868714213">
        <ele>1175.349976</ele>
        <time>2017-06-17T08:56:37Z</time>
      </trkpt>
      <trkpt lat="41.821132628247142" lon="13.703986722975969">
        <ele>1175.829956</ele>
        <time>2017-06-17T08:56:54Z</time>
      </trkpt>
      <trkpt lat="41.821102285757661" lon="13.704188475385308">
        <ele>1176.790039</ele>
        <time>2017-06-17T08:57:08Z</time>
      </trkpt>
      <trkpt lat="41.821034559980035" lon="13.704468430951238">
        <ele>1177.75</ele>
        <time>2017-06-17T08:57:24Z</time>
      </trkpt>
      <trkpt lat="41.820987286046147" lon="13.704760288819671">
        <ele>1178.2299800000001</ele>
        <time>2017-06-17T08:57:41Z</time>
      </trkpt>
      <trkpt lat="41.820932384580374" lon="13.705057259649038">
        <ele>1179.190063</ele>
        <time>2017-06-17T08:57:59Z</time>
      </trkpt>
      <trkpt lat="41.82090531103313" lon="13.705224310979247">
        <ele>1179.670044</ele>
        <time>2017-06-17T08:58:08Z</time>
      </trkpt>
      <trkpt lat="41.820803303271532" lon="13.705534441396594">
        <ele>1180.6400149999999</ele>
        <time>2017-06-17T08:58:27Z</time>
      </trkpt>
      <trkpt lat="41.820792574435472" lon="13.70559043250978">
        <ele>1180.6400149999999</ele>
        <time>2017-06-17T08:58:31Z</time>
      </trkpt>
      <trkpt lat="41.820787377655506" lon="13.705603927373886">
        <ele>1180.6400149999999</ele>
        <time>2017-06-17T08:58:32Z</time>
      </trkpt>
      <trkpt lat="41.820677910000086" lon="13.705820934846997">
        <ele>1181.119995</ele>
        <time>2017-06-17T08:58:46Z</time>
      </trkpt>
      <trkpt lat="41.820606663823128" lon="13.706039618700743">
        <ele>1182.5600589999999</ele>
        <time>2017-06-17T08:59:01Z</time>
      </trkpt>
      <trkpt lat="41.820587133988738" lon="13.706123437732458">
        <ele>1183.0399170000001</ele>
        <time>2017-06-17T08:59:19Z</time>
      </trkpt>
      <trkpt lat="41.820586379617453" lon="13.706138860434294">
        <ele>1183.0399170000001</ele>
        <time>2017-06-17T08:59:52Z</time>
      </trkpt>
      <trkpt lat="41.820456208661199" lon="13.706388808786869">
        <ele>1183.0399170000001</ele>
        <time>2017-06-17T09:00:07Z</time>
      </trkpt>
      <trkpt lat="41.820399463176727" lon="13.706539431586862">
        <ele>1184</ele>
        <time>2017-06-17T09:00:21Z</time>
      </trkpt>
      <trkpt lat="41.8203956913203" lon="13.70655108243227">
        <ele>1184</ele>
        <time>2017-06-17T09:00:22Z</time>
      </trkpt>
      <trkpt lat="41.82038982398808" lon="13.706568935886025">
        <ele>1184</ele>
        <time>2017-06-17T09:00:23Z</time>
      </trkpt>
      <trkpt lat="41.820386303588748" lon="13.706587292253971">
        <ele>1184</ele>
        <time>2017-06-17T09:00:24Z</time>
      </trkpt>
      <trkpt lat="41.820384040474892" lon="13.70664537884295">
        <ele>1184.4799800000001</ele>
        <time>2017-06-17T09:00:32Z</time>
      </trkpt>
      <trkpt lat="41.820380939170718" lon="13.706658203154802">
        <ele>1184.4799800000001</ele>
        <time>2017-06-17T09:00:33Z</time>
      </trkpt>
      <trkpt lat="41.820376496762037" lon="13.706671362742782">
        <ele>1184.4799800000001</ele>
        <time>2017-06-17T09:00:34Z</time>
      </trkpt>
      <trkpt lat="41.820319583639503" lon="13.706841599196196">
        <ele>1184.959961</ele>
        <time>2017-06-17T09:00:45Z</time>
      </trkpt>
      <trkpt lat="41.820311537012458" lon="13.706857860088348">
        <ele>1184.959961</ele>
        <time>2017-06-17T09:00:46Z</time>
      </trkpt>
      <trkpt lat="41.820305082947016" lon="13.70687747374177">
        <ele>1184.959961</ele>
        <time>2017-06-17T09:00:47Z</time>
      </trkpt>
      <trkpt lat="41.820297539234161" lon="13.706890465691686">
        <ele>1184.959961</ele>
        <time>2017-06-17T09:00:48Z</time>
      </trkpt>
      <trkpt lat="41.820289241150022" lon="13.70690681040287">
        <ele>1184.959961</ele>
        <time>2017-06-17T09:00:49Z</time>
      </trkpt>
      <trkpt lat="41.820279434323311" lon="13.706918880343437">
        <ele>1185.4399410000001</ele>
        <time>2017-06-17T09:00:50Z</time>
      </trkpt>
      <trkpt lat="41.820081118494272" lon="13.707165559753776">
        <ele>1186.400024</ele>
        <time>2017-06-17T09:01:11Z</time>
      </trkpt>
      <trkpt lat="41.819844162091613" lon="13.70745406486094">
        <ele>1188.329956</ele>
        <time>2017-06-17T09:01:36Z</time>
      </trkpt>
      <trkpt lat="41.819818932563066" lon="13.707487341016531">
        <ele>1188.329956</ele>
        <time>2017-06-17T09:01:39Z</time>
      </trkpt>
      <trkpt lat="41.819810215383768" lon="13.707499159500003">
        <ele>1188.329956</ele>
        <time>2017-06-17T09:01:40Z</time>
      </trkpt>
      <trkpt lat="41.819800660014153" lon="13.70751223526895">
        <ele>1188.329956</ele>
        <time>2017-06-17T09:01:41Z</time>
      </trkpt>
      <trkpt lat="41.819628914818168" lon="13.707716502249241">
        <ele>1189.7700199999999</ele>
        <time>2017-06-17T09:01:58Z</time>
      </trkpt>
      <trkpt lat="41.819520117715001" lon="13.707919595763087">
        <ele>1190.7299800000001</ele>
        <time>2017-06-17T09:02:14Z</time>
      </trkpt>
      <trkpt lat="41.819393299520016" lon="13.708065608516335">
        <ele>1191.209961</ele>
        <time>2017-06-17T09:02:26Z</time>
      </trkpt>
      <trkpt lat="41.81927964091301" lon="13.708225283771753">
        <ele>1191.690063</ele>
        <time>2017-06-17T09:02:39Z</time>
      </trkpt>
      <trkpt lat="41.819241419434547" lon="13.708278425037861">
        <ele>1191.690063</ele>
        <time>2017-06-17T09:02:43Z</time>
      </trkpt>
      <trkpt lat="41.819230690598488" lon="13.708290662616491">
        <ele>1191.690063</ele>
        <time>2017-06-17T09:02:44Z</time>
      </trkpt>
      <trkpt lat="41.819224068894982" lon="13.708305079489946">
        <ele>1192.170044</ele>
        <time>2017-06-17T09:02:45Z</time>
      </trkpt>
      <trkpt lat="41.819214597344398" lon="13.708318909630179">
        <ele>1192.170044</ele>
        <time>2017-06-17T09:02:46Z</time>
      </trkpt>
      <trkpt lat="41.819204706698656" lon="13.708330979570746">
        <ele>1192.170044</ele>
        <time>2017-06-17T09:02:47Z</time>
      </trkpt>
      <trkpt lat="41.819193558767438" lon="13.708344558253884">
        <ele>1192.170044</ele>
        <time>2017-06-17T09:02:48Z</time>
      </trkpt>
      <trkpt lat="41.81905148550868" lon="13.708540191873908">
        <ele>1193.130005</ele>
        <time>2017-06-17T09:03:03Z</time>
      </trkpt>
      <trkpt lat="41.818914273753762" lon="13.70872157625854">
        <ele>1194.089966</ele>
        <time>2017-06-17T09:03:18Z</time>
      </trkpt>
      <trkpt lat="41.818785276263952" lon="13.708931291475892">
        <ele>1195.0600589999999</ele>
        <time>2017-06-17T09:03:35Z</time>
      </trkpt>
      <trkpt lat="41.818631887435913" lon="13.709081830456853">
        <ele>1195.5399170000001</ele>
        <time>2017-06-17T09:03:47Z</time>
      </trkpt>
      <trkpt lat="41.818604897707701" lon="13.709106389433146">
        <ele>1196.0200199999999</ele>
        <time>2017-06-17T09:03:50Z</time>
      </trkpt>
      <trkpt lat="41.818598778918386" lon="13.709118962287903">
        <ele>1196.0200199999999</ele>
        <time>2017-06-17T09:03:51Z</time>
      </trkpt>
      <trkpt lat="41.818593498319387" lon="13.709132540971041">
        <ele>1196.0200199999999</ele>
        <time>2017-06-17T09:03:52Z</time>
      </trkpt>
      <trkpt lat="41.818591738119721" lon="13.709146874025464">
        <ele>1196.5</ele>
        <time>2017-06-17T09:03:53Z</time>
      </trkpt>
      <trkpt lat="41.818581763654947" lon="13.709204122424126">
        <ele>1196.5</ele>
        <time>2017-06-17T09:03:57Z</time>
      </trkpt>
      <trkpt lat="41.818504733964801" lon="13.70946429669857">
        <ele>1196.9799800000001</ele>
        <time>2017-06-17T09:04:13Z</time>
      </trkpt>
      <trkpt lat="41.818402726203203" lon="13.709684992209077">
        <ele>1198.420044</ele>
        <time>2017-06-17T09:04:27Z</time>
      </trkpt>
      <trkpt lat="41.818343801423907" lon="13.709845673292875">
        <ele>1198.900024</ele>
        <time>2017-06-17T09:04:40Z</time>
      </trkpt>
      <trkpt lat="41.818276662379503" lon="13.710056226700544">
        <ele>1199.8599850000001</ele>
        <time>2017-06-17T09:04:55Z</time>
      </trkpt>
      <trkpt lat="41.818244392052293" lon="13.710281113162637">
        <ele>1200.339966</ele>
        <time>2017-06-17T09:05:09Z</time>
      </trkpt>
      <trkpt lat="41.818238273262978" lon="13.710528379306197">
        <ele>1201.790039</ele>
        <time>2017-06-17T09:05:24Z</time>
      </trkpt>
      <trkpt lat="41.818272722885013" lon="13.71074253693223">
        <ele>1202.75</ele>
        <time>2017-06-17T09:05:37Z</time>
      </trkpt>
      <trkpt lat="41.818274315446615" lon="13.710757791996002">
        <ele>1202.75</ele>
        <time>2017-06-17T09:05:38Z</time>
      </trkpt>
      <trkpt lat="41.81827699765563" lon="13.710774639621377">
        <ele>1202.75</ele>
        <time>2017-06-17T09:05:39Z</time>
      </trkpt>
      <trkpt lat="41.818309938535094" lon="13.711000615730882">
        <ele>1203.709961</ele>
        <time>2017-06-17T09:05:53Z</time>
      </trkpt>
      <trkpt lat="41.818332904949784" lon="13.71124779805541">
        <ele>1204.190063</ele>
        <time>2017-06-17T09:06:08Z</time>
      </trkpt>
      <trkpt lat="41.818336090072989" lon="13.711491376161575">
        <ele>1205.150024</ele>
        <time>2017-06-17T09:06:22Z</time>
      </trkpt>
      <trkpt lat="41.81830532848835" lon="13.711742581799626">
        <ele>1205.630005</ele>
        <time>2017-06-17T09:06:37Z</time>
      </trkpt>
      <trkpt lat="41.818241458386183" lon="13.711957829073071">
        <ele>1206.589966</ele>
        <time>2017-06-17T09:06:51Z</time>
      </trkpt>
      <trkpt lat="41.818181276321411" lon="13.71217617765069">
        <ele>1207.5500489999999</ele>
        <time>2017-06-17T09:07:06Z</time>
      </trkpt>
      <trkpt lat="41.818086476996541" lon="13.712389413267374">
        <ele>1208.51001</ele>
        <time>2017-06-17T09:07:22Z</time>
      </trkpt>
      <trkpt lat="41.817966867238283" lon="13.712609438225627">
        <ele>1209</ele>
        <time>2017-06-17T09:07:38Z</time>
      </trkpt>
      <trkpt lat="41.817876007407904" lon="13.712800210341811">
        <ele>1210.4399410000001</ele>
        <time>2017-06-17T09:07:53Z</time>
      </trkpt>
      <trkpt lat="41.817811466753483" lon="13.712939601391554">
        <ele>1210.920044</ele>
        <time>2017-06-17T09:08:07Z</time>
      </trkpt>
      <trkpt lat="41.81776343844831" lon="13.71309676207602">
        <ele>1212.3599850000001</ele>
        <time>2017-06-17T09:08:25Z</time>
      </trkpt>
      <trkpt lat="41.81763393804431" lon="13.713337238878012">
        <ele>1212.839966</ele>
        <time>2017-06-17T09:08:43Z</time>
      </trkpt>
      <trkpt lat="41.817568894475698" lon="13.713391637429595">
        <ele>1213.320068</ele>
        <time>2017-06-17T09:08:54Z</time>
      </trkpt>
      <trkpt lat="41.817559506744146" lon="13.713384931907058">
        <ele>1213.320068</ele>
        <time>2017-06-17T09:08:55Z</time>
      </trkpt>
      <trkpt lat="41.817548358812928" lon="13.713382920250297">
        <ele>1213.320068</ele>
        <time>2017-06-17T09:08:56Z</time>
      </trkpt>
      <trkpt lat="41.817485829815269" lon="13.713289126753807">
        <ele>1213.8000489999999</ele>
        <time>2017-06-17T09:09:05Z</time>
      </trkpt>
      <trkpt lat="41.817484740167856" lon="13.713262975215912">
        <ele>1214.2799070000001</ele>
        <time>2017-06-17T09:09:07Z</time>
      </trkpt>
      <trkpt lat="41.817492535337806" lon="13.713231794536114">
        <ele>1215.719971</ele>
        <time>2017-06-17T09:09:22Z</time>
      </trkpt>
      <trkpt lat="41.817498402670026" lon="13.713227938860655">
        <ele>1215.719971</ele>
        <time>2017-06-17T09:09:55Z</time>
      </trkpt>
      <trkpt lat="41.817515417933464" lon="13.713192483410239">
        <ele>1215.23999</ele>
        <time>2017-06-17T09:10:10Z</time>
      </trkpt>
      <trkpt lat="41.817510221153498" lon="13.713219976052642">
        <ele>1215.23999</ele>
        <time>2017-06-17T09:10:15Z</time>
      </trkpt>
      <trkpt lat="41.817430760711432" lon="13.713245540857315">
        <ele>1215.23999</ele>
        <time>2017-06-17T09:10:28Z</time>
      </trkpt>
      <trkpt lat="41.817401591688395" lon="13.713278314098716">
        <ele>1215.719971</ele>
        <time>2017-06-17T09:10:39Z</time>
      </trkpt>
      <trkpt lat="41.817313581705093" lon="13.713318798691034">
        <ele>1215.719971</ele>
        <time>2017-06-17T09:10:47Z</time>
      </trkpt>
      <trkpt lat="41.817275192588568" lon="13.713498925790191">
        <ele>1215.719971</ele>
        <time>2017-06-17T09:11:01Z</time>
      </trkpt>
      <trkpt lat="41.817277371883392" lon="13.713532034307718">
        <ele>1215.719971</ele>
        <time>2017-06-17T09:11:03Z</time>
      </trkpt>
      <trkpt lat="41.817273097112775" lon="13.71369238011539">
        <ele>1215.719971</ele>
        <time>2017-06-17T09:11:11Z</time>
      </trkpt>
      <trkpt lat="41.817317521199584" lon="13.713835878297687">
        <ele>1215.719971</ele>
        <time>2017-06-17T09:11:22Z</time>
      </trkpt>
      <trkpt lat="41.817297236993909" lon="13.71391274034977">
        <ele>1216.690063</ele>
        <time>2017-06-17T09:11:27Z</time>
      </trkpt>
      <trkpt lat="41.817232109606266" lon="13.71414584107697">
        <ele>1218.130005</ele>
        <time>2017-06-17T09:11:43Z</time>
      </trkpt>
      <trkpt lat="41.817221967503428" lon="13.714324291795492">
        <ele>1219.089966</ele>
        <time>2017-06-17T09:11:55Z</time>
      </trkpt>
      <trkpt lat="41.817205287516117" lon="13.714389000087976">
        <ele>1219.089966</ele>
        <time>2017-06-17T09:12:01Z</time>
      </trkpt>
      <trkpt lat="41.817170670256019" lon="13.714572815224528">
        <ele>1218.6099850000001</ele>
        <time>2017-06-17T09:12:15Z</time>
      </trkpt>
      <trkpt lat="41.817157594487071" lon="13.714623358100653">
        <ele>1218.6099850000001</ele>
        <time>2017-06-17T09:12:19Z</time>
      </trkpt>
      <trkpt lat="41.817161533981562" lon="13.71475126594305">
        <ele>1219.089966</ele>
        <time>2017-06-17T09:12:33Z</time>
      </trkpt>
      <trkpt lat="41.817134292796254" lon="13.714891411364079">
        <ele>1219.089966</ele>
        <time>2017-06-17T09:12:46Z</time>
      </trkpt>
      <trkpt lat="41.817133538424969" lon="13.714913288131356">
        <ele>1220.0500489999999</ele>
        <time>2017-06-17T09:13:09Z</time>
      </trkpt>
      <trkpt lat="41.817183578386903" lon="13.715078579261899">
        <ele>1220.0500489999999</ele>
        <time>2017-06-17T09:13:22Z</time>
      </trkpt>
      <trkpt lat="41.817183494567871" lon="13.715245630592108">
        <ele>1220.530029</ele>
        <time>2017-06-17T09:13:34Z</time>
      </trkpt>
      <trkpt lat="41.817196067422628" lon="13.715262310579419">
        <ele>1221.48999</ele>
        <time>2017-06-17T09:13:51Z</time>
      </trkpt>
      <trkpt lat="41.817174609750509" lon="13.715382339432836">
        <ele>1221.48999</ele>
        <time>2017-06-17T09:14:02Z</time>
      </trkpt>
      <trkpt lat="41.817104034125805" lon="13.715588198974729">
        <ele>1222.9300539999999</ele>
        <time>2017-06-17T09:14:15Z</time>
      </trkpt>
      <trkpt lat="41.817087521776557" lon="13.715691799297929">
        <ele>1223.420044</ele>
        <time>2017-06-17T09:14:24Z</time>
      </trkpt>
      <trkpt lat="41.817013425752521" lon="13.715775618329644">
        <ele>1224.380005</ele>
        <time>2017-06-17T09:14:40Z</time>
      </trkpt>
      <trkpt lat="41.816886523738503" lon="13.715907800942659">
        <ele>1225.339966</ele>
        <time>2017-06-17T09:14:56Z</time>
      </trkpt>
      <trkpt lat="41.81686582043767" lon="13.715918026864529">
        <ele>1225.820068</ele>
        <time>2017-06-17T09:14:59Z</time>
      </trkpt>
      <trkpt lat="41.816791640594602" lon="13.715986339375377">
        <ele>1226.3000489999999</ele>
        <time>2017-06-17T09:15:07Z</time>
      </trkpt>
      <trkpt lat="41.816720897331834" lon="13.716091029345989">
        <ele>1227.26001</ele>
        <time>2017-06-17T09:15:16Z</time>
      </trkpt>
      <trkpt lat="41.816597012802958" lon="13.716347934678197">
        <ele>1227.73999</ele>
        <time>2017-06-17T09:15:31Z</time>
      </trkpt>
      <trkpt lat="41.816590139642358" lon="13.716509621590376">
        <ele>1228.6999510000001</ele>
        <time>2017-06-17T09:15:44Z</time>
      </trkpt>
      <trkpt lat="41.816657530143857" lon="13.716667285189033">
        <ele>1228.6999510000001</ele>
        <time>2017-06-17T09:15:52Z</time>
      </trkpt>
      <trkpt lat="41.816668258979917" lon="13.716857135295868">
        <ele>1229.660034</ele>
        <time>2017-06-17T09:16:03Z</time>
      </trkpt>
      <trkpt lat="41.816624002531171" lon="13.717098031193018">
        <ele>1231.1099850000001</ele>
        <time>2017-06-17T09:16:17Z</time>
      </trkpt>
      <trkpt lat="41.816623667255044" lon="13.717336915433407">
        <ele>1233.030029</ele>
        <time>2017-06-17T09:16:31Z</time>
      </trkpt>
      <trkpt lat="41.816631378605962" lon="13.717499440535903">
        <ele>1233.51001</ele>
        <time>2017-06-17T09:16:43Z</time>
      </trkpt>
      <trkpt lat="41.816635821014643" lon="13.717558616772294">
        <ele>1233.98999</ele>
        <time>2017-06-17T09:16:47Z</time>
      </trkpt>
      <trkpt lat="41.816657613962889" lon="13.717755759134889">
        <ele>1234.469971</ele>
        <time>2017-06-17T09:16:58Z</time>
      </trkpt>
      <trkpt lat="41.816685274243355" lon="13.71797913685441">
        <ele>1235.910034</ele>
        <time>2017-06-17T09:17:11Z</time>
      </trkpt>
      <trkpt lat="41.81669726036489" lon="13.718051305040717">
        <ele>1236.3900149999999</ele>
        <time>2017-06-17T09:17:16Z</time>
      </trkpt>
      <trkpt lat="41.816667839884758" lon="13.718192540109158">
        <ele>1236.869995</ele>
        <time>2017-06-17T09:17:27Z</time>
      </trkpt>
      <trkpt lat="41.816696338355541" lon="13.718342408537865">
        <ele>1237.829956</ele>
        <time>2017-06-17T09:17:35Z</time>
      </trkpt>
      <trkpt lat="41.81671092286706" lon="13.718460258096457">
        <ele>1238.8000489999999</ele>
        <time>2017-06-17T09:17:43Z</time>
      </trkpt>
      <trkpt lat="41.816742103546858" lon="13.718547010794282">
        <ele>1239.2799070000001</ele>
        <time>2017-06-17T09:17:49Z</time>
      </trkpt>
      <trkpt lat="41.816785018891096" lon="13.718709787353873">
        <ele>1239.76001</ele>
        <time>2017-06-17T09:18:00Z</time>
      </trkpt>
      <trkpt lat="41.81681259535253" lon="13.718853117898107">
        <ele>1241.1999510000001</ele>
        <time>2017-06-17T09:18:12Z</time>
      </trkpt>
      <trkpt lat="41.81681209243834" lon="13.718877760693431">
        <ele>1241.679932</ele>
        <time>2017-06-17T09:18:14Z</time>
      </trkpt>
      <trkpt lat="41.816832292824984" lon="13.719026790931821">
        <ele>1242.160034</ele>
        <time>2017-06-17T09:18:23Z</time>
      </trkpt>
      <trkpt lat="41.816822905093431" lon="13.71912837959826">
        <ele>1243.119995</ele>
        <time>2017-06-17T09:18:31Z</time>
      </trkpt>
      <trkpt lat="41.81683505885303" lon="13.719328539445996">
        <ele>1245.040039</ele>
        <time>2017-06-17T09:18:45Z</time>
      </trkpt>
      <trkpt lat="41.816821983084083" lon="13.71937220916152">
        <ele>1245.530029</ele>
        <time>2017-06-17T09:18:49Z</time>
      </trkpt>
      <trkpt lat="41.816789461299777" lon="13.719555772840977">
        <ele>1247.450073</ele>
        <time>2017-06-17T09:19:03Z</time>
      </trkpt>
      <trkpt lat="41.816790802404284" lon="13.719793483614922">
        <ele>1248.410034</ele>
        <time>2017-06-17T09:19:15Z</time>
      </trkpt>
      <trkpt lat="41.81678862310946" lon="13.719967072829604">
        <ele>1248.8900149999999</ele>
        <time>2017-06-17T09:19:28Z</time>
      </trkpt>
      <trkpt lat="41.816775966435671" lon="13.720159940421581">
        <ele>1250.8100589999999</ele>
        <time>2017-06-17T09:19:41Z</time>
      </trkpt>
      <trkpt lat="41.816774541512132" lon="13.720191875472665">
        <ele>1251.290039</ele>
        <time>2017-06-17T09:19:44Z</time>
      </trkpt>
      <trkpt lat="41.81679742410779" lon="13.720379797741771">
        <ele>1251.7700199999999</ele>
        <time>2017-06-17T09:19:57Z</time>
      </trkpt>
      <trkpt lat="41.81678518652916" lon="13.720564283430576">
        <ele>1253.219971</ele>
        <time>2017-06-17T09:20:10Z</time>
      </trkpt>
      <trkpt lat="41.816780660301447" lon="13.720577862113714">
        <ele>1253.6999510000001</ele>
        <time>2017-06-17T09:20:11Z</time>
      </trkpt>
      <trkpt lat="41.816755766049027" lon="13.720761593431234">
        <ele>1254.6599120000001</ele>
        <time>2017-06-17T09:20:23Z</time>
      </trkpt>
      <trkpt lat="41.816752832382917" lon="13.720876760780811">
        <ele>1256.579956</ele>
        <time>2017-06-17T09:20:34Z</time>
      </trkpt>
      <trkpt lat="41.816739086061716" lon="13.720982959493995">
        <ele>1257.540039</ele>
        <time>2017-06-17T09:20:41Z</time>
      </trkpt>
      <trkpt lat="41.816736236214638" lon="13.721198625862598">
        <ele>1258.0200199999999</ele>
        <time>2017-06-17T09:20:53Z</time>
      </trkpt>
      <trkpt lat="41.816763812676072" lon="13.721277918666601">
        <ele>1258.9799800000001</ele>
        <time>2017-06-17T09:20:59Z</time>
      </trkpt>
      <trkpt lat="41.816787533462048" lon="13.721501128748059">
        <ele>1260.4300539999999</ele>
        <time>2017-06-17T09:21:13Z</time>
      </trkpt>
      <trkpt lat="41.81680915877223" lon="13.721686871722341">
        <ele>1261.389893</ele>
        <time>2017-06-17T09:21:25Z</time>
      </trkpt>
      <trkpt lat="41.816820558160543" lon="13.721887534484267">
        <ele>1262.829956</ele>
        <time>2017-06-17T09:21:38Z</time>
      </trkpt>
      <trkpt lat="41.816818965598941" lon="13.72191016562283">
        <ele>1262.829956</ele>
        <time>2017-06-17T09:21:39Z</time>
      </trkpt>
      <trkpt lat="41.816831538453698" lon="13.721973281353712">
        <ele>1263.7899170000001</ele>
        <time>2017-06-17T09:21:44Z</time>
      </trkpt>
      <trkpt lat="41.816877890378237" lon="13.722160030156374">
        <ele>1264.75</ele>
        <time>2017-06-17T09:21:57Z</time>
      </trkpt>
      <trkpt lat="41.816903036087751" lon="13.722210740670562">
        <ele>1265.709961</ele>
        <time>2017-06-17T09:22:02Z</time>
      </trkpt>
      <trkpt lat="41.816931534558535" lon="13.722401512786746">
        <ele>1266.670044</ele>
        <time>2017-06-17T09:22:15Z</time>
      </trkpt>
      <trkpt lat="41.81693865917623" lon="13.722445433959365">
        <ele>1267.160034</ele>
        <time>2017-06-17T09:22:19Z</time>
      </trkpt>
      <trkpt lat="41.816983921453357" lon="13.72264550998807">
        <ele>1267.6400149999999</ele>
        <time>2017-06-17T09:22:33Z</time>
      </trkpt>
      <trkpt lat="41.816943939775229" lon="13.722795797511935">
        <ele>1269.5600589999999</ele>
        <time>2017-06-17T09:22:46Z</time>
      </trkpt>
      <trkpt lat="41.816919716075063" lon="13.722836617380381">
        <ele>1269.5600589999999</ele>
        <time>2017-06-17T09:22:55Z</time>
      </trkpt>
      <trkpt lat="41.816856181249022" lon="13.72300417162478">
        <ele>1270.9998780000001</ele>
        <time>2017-06-17T09:23:07Z</time>
      </trkpt>
      <trkpt lat="41.816795160993934" lon="13.723126882687211">
        <ele>1271.4801030000001</ele>
        <time>2017-06-17T09:23:17Z</time>
      </trkpt>
      <trkpt lat="41.816784683614969" lon="13.723251270130277">
        <ele>1272.4399410000001</ele>
        <time>2017-06-17T09:23:25Z</time>
      </trkpt>
      <trkpt lat="41.816781666129827" lon="13.723438605666161">
        <ele>1273.3999020000001</ele>
        <time>2017-06-17T09:23:37Z</time>
      </trkpt>
      <trkpt lat="41.816728273406625" lon="13.723582103848457">
        <ele>1276.290039</ele>
        <time>2017-06-17T09:23:52Z</time>
      </trkpt>
      <trkpt lat="41.816696422174573" lon="13.723703809082508">
        <ele>1277.7299800000001</ele>
        <time>2017-06-17T09:24:01Z</time>
      </trkpt>
      <trkpt lat="41.816674126312137" lon="13.723754519596696">
        <ele>1278.2100829999999</ele>
        <time>2017-06-17T09:24:06Z</time>
      </trkpt>
      <trkpt lat="41.816596928983927" lon="13.723895670846105">
        <ele>1279.650024</ele>
        <time>2017-06-17T09:24:20Z</time>
      </trkpt>
      <trkpt lat="41.816542027518153" lon="13.724022237583995">
        <ele>1281.0900879999999</ele>
        <time>2017-06-17T09:24:33Z</time>
      </trkpt>
      <trkpt lat="41.816539764404297" lon="13.724073534831405">
        <ele>1281.0900879999999</ele>
        <time>2017-06-17T09:24:37Z</time>
      </trkpt>
      <trkpt lat="41.816516211256385" lon="13.724127179011703">
        <ele>1282.059937</ele>
        <time>2017-06-17T09:24:42Z</time>
      </trkpt>
      <trkpt lat="41.816470781341195" lon="13.724200604483485">
        <ele>1282.540039</ele>
        <time>2017-06-17T09:24:49Z</time>
      </trkpt>
      <trkpt lat="41.816464494913816" lon="13.724264726042747">
        <ele>1283.0200199999999</ele>
        <time>2017-06-17T09:24:53Z</time>
      </trkpt>
      <trkpt lat="41.816474469378591" lon="13.724354663863778">
        <ele>1283.9799800000001</ele>
        <time>2017-06-17T09:24:58Z</time>
      </trkpt>
      <trkpt lat="41.816468518227339" lon="13.724548202008009">
        <ele>1286.380005</ele>
        <time>2017-06-17T09:25:12Z</time>
      </trkpt>
      <trkpt lat="41.816424261778593" lon="13.724691867828369">
        <ele>1287.820068</ele>
        <time>2017-06-17T09:25:25Z</time>
      </trkpt>
      <trkpt lat="41.816438175737858" lon="13.724767221137881">
        <ele>1288.780029</ele>
        <time>2017-06-17T09:25:38Z</time>
      </trkpt>
      <trkpt lat="41.816410515457392" lon="13.724817764014006">
        <ele>1289.75</ele>
        <time>2017-06-17T09:25:43Z</time>
      </trkpt>
      <trkpt lat="41.816265340894461" lon="13.724949024617672">
        <ele>1291.670044</ele>
        <time>2017-06-17T09:25:59Z</time>
      </trkpt>
      <trkpt lat="41.816247319802642" lon="13.72498020529747">
        <ele>1292.150024</ele>
        <time>2017-06-17T09:26:02Z</time>
      </trkpt>
      <trkpt lat="41.81622133590281" lon="13.725072741508484">
        <ele>1292.150024</ele>
        <time>2017-06-17T09:26:08Z</time>
      </trkpt>
      <trkpt lat="41.816138019785285" lon="13.725232668220997">
        <ele>1294.070068</ele>
        <time>2017-06-17T09:26:22Z</time>
      </trkpt>
      <trkpt lat="41.816099463030696" lon="13.725378513336182">
        <ele>1295.98999</ele>
        <time>2017-06-17T09:26:34Z</time>
      </trkpt>
      <trkpt lat="41.816094601526856" lon="13.725409191101789">
        <ele>1295.98999</ele>
        <time>2017-06-17T09:26:37Z</time>
      </trkpt>
      <trkpt lat="41.816075490787625" lon="13.725513964891434">
        <ele>1297.919922</ele>
        <time>2017-06-17T09:26:47Z</time>
      </trkpt>
      <trkpt lat="41.816012961789966" lon="13.72559635899961">
        <ele>1299.3599850000001</ele>
        <time>2017-06-17T09:26:57Z</time>
      </trkpt>
      <trkpt lat="41.816003490239382" lon="13.72575175948441">
        <ele>1301.280029</ele>
        <time>2017-06-17T09:27:10Z</time>
      </trkpt>
      <trkpt lat="41.81600390933454" lon="13.725788220763206">
        <ele>1301.76001</ele>
        <time>2017-06-17T09:27:13Z</time>
      </trkpt>
      <trkpt lat="41.815961077809334" lon="13.725940436124802">
        <ele>1303.690063</ele>
        <time>2017-06-17T09:27:27Z</time>
      </trkpt>
      <trkpt lat="41.815875833854079" lon="13.72602048330009">
        <ele>1305.1298830000001</ele>
        <time>2017-06-17T09:27:40Z</time>
      </trkpt>
      <trkpt lat="41.815796541050076" lon="13.72608887962997">
        <ele>1308.01001</ele>
        <time>2017-06-17T09:27:54Z</time>
      </trkpt>
      <trkpt lat="41.815764186903834" lon="13.726154090836644">
        <ele>1309.929932</ele>
        <time>2017-06-17T09:28:06Z</time>
      </trkpt>
      <trkpt lat="41.815686989575624" lon="13.726244196295738">
        <ele>1312.3400879999999</ele>
        <time>2017-06-17T09:28:21Z</time>
      </trkpt>
      <trkpt lat="41.815652959048748" lon="13.726352909579873">
        <ele>1314.259888</ele>
        <time>2017-06-17T09:28:36Z</time>
      </trkpt>
      <trkpt lat="41.815603841096163" lon="13.726457180455327">
        <ele>1316.6599120000001</ele>
        <time>2017-06-17T09:28:50Z</time>
      </trkpt>
      <trkpt lat="41.815567966550589" lon="13.726550387218595">
        <ele>1318.589966</ele>
        <time>2017-06-17T09:29:02Z</time>
      </trkpt>
      <trkpt lat="41.81551088578999" lon="13.726675864309072">
        <ele>1320.98999</ele>
        <time>2017-06-17T09:29:18Z</time>
      </trkpt>
      <trkpt lat="41.815468221902847" lon="13.72675783932209">
        <ele>1323.3900149999999</ele>
        <time>2017-06-17T09:29:31Z</time>
      </trkpt>
      <trkpt lat="41.815413404256105" lon="13.726827325299382">
        <ele>1325.309937</ele>
        <time>2017-06-17T09:29:44Z</time>
      </trkpt>
      <trkpt lat="41.815368812531233" lon="13.726959172636271">
        <ele>1328.1999510000001</ele>
        <time>2017-06-17T09:30:00Z</time>
      </trkpt>
      <trkpt lat="41.815300332382321" lon="13.727039471268654">
        <ele>1329.6400149999999</ele>
        <time>2017-06-17T09:30:13Z</time>
      </trkpt>
      <trkpt lat="41.815244005993009" lon="13.727114573121071">
        <ele>1332.040039</ele>
        <time>2017-06-17T09:30:24Z</time>
      </trkpt>
      <trkpt lat="41.815209137275815" lon="13.727167965844274">
        <ele>1333.01001</ele>
        <time>2017-06-17T09:30:31Z</time>
      </trkpt>
      <trkpt lat="41.815143758431077" lon="13.727257400751114">
        <ele>1334.4499510000001</ele>
        <time>2017-06-17T09:30:44Z</time>
      </trkpt>
      <trkpt lat="41.815071925520897" lon="13.727315487340093">
        <ele>1336.369995</ele>
        <time>2017-06-17T09:30:57Z</time>
      </trkpt>
      <trkpt lat="41.815039236098528" lon="13.727449094876647">
        <ele>1338.290039</ele>
        <time>2017-06-17T09:31:09Z</time>
      </trkpt>
      <trkpt lat="41.815008306875825" lon="13.727559316903353">
        <ele>1339.7299800000001</ele>
        <time>2017-06-17T09:31:20Z</time>
      </trkpt>
      <trkpt lat="41.814937731251121" lon="13.727656463161111">
        <ele>1340.6999510000001</ele>
        <time>2017-06-17T09:31:31Z</time>
      </trkpt>
      <trkpt lat="41.814907137304544" lon="13.727843798696995">
        <ele>1343.579956</ele>
        <time>2017-06-17T09:31:48Z</time>
      </trkpt>
      <trkpt lat="41.814885176718235" lon="13.727978831157088">
        <ele>1345.9799800000001</ele>
        <time>2017-06-17T09:32:02Z</time>
      </trkpt>
      <trkpt lat="41.814843267202377" lon="13.728090059012175">
        <ele>1347.4300539999999</ele>
        <time>2017-06-17T09:32:15Z</time>
      </trkpt>
      <trkpt lat="41.814818289130926" lon="13.728232216089964">
        <ele>1349.830078</ele>
        <time>2017-06-17T09:32:28Z</time>
      </trkpt>
      <trkpt lat="41.814778223633766" lon="13.728298600763083">
        <ele>1351.75</ele>
        <time>2017-06-17T09:32:39Z</time>
      </trkpt>
      <trkpt lat="41.814711587503552" lon="13.728370433673263">
        <ele>1353.669922</ele>
        <time>2017-06-17T09:32:52Z</time>
      </trkpt>
      <trkpt lat="41.814669007435441" lon="13.728447714820504">
        <ele>1355.599976</ele>
        <time>2017-06-17T09:33:04Z</time>
      </trkpt>
      <trkpt lat="41.814562641084194" lon="13.728466825559735">
        <ele>1357.9998780000001</ele>
        <time>2017-06-17T09:33:17Z</time>
      </trkpt>
      <trkpt lat="41.814482929185033" lon="13.728542765602469">
        <ele>1359.919922</ele>
        <time>2017-06-17T09:33:31Z</time>
      </trkpt>
      <trkpt lat="41.814418137073517" lon="13.728604121133685">
        <ele>1362.329956</ele>
        <time>2017-06-17T09:33:45Z</time>
      </trkpt>
      <trkpt lat="41.814359379932284" lon="13.728680312633514">
        <ele>1364.25</ele>
        <time>2017-06-17T09:33:59Z</time>
      </trkpt>
      <trkpt lat="41.814270112663507" lon="13.728782068938017">
        <ele>1366.650024</ele>
        <time>2017-06-17T09:34:16Z</time>
      </trkpt>
      <trkpt lat="41.814208086580038" lon="13.728834120556712">
        <ele>1368.570068</ele>
        <time>2017-06-17T09:34:27Z</time>
      </trkpt>
      <trkpt lat="41.814139941707253" lon="13.728922214359045">
        <ele>1370.0200199999999</ele>
        <time>2017-06-17T09:34:40Z</time>
      </trkpt>
      <trkpt lat="41.814068611711264" lon="13.72898893430829">
        <ele>1372.420044</ele>
        <time>2017-06-17T09:34:53Z</time>
      </trkpt>
      <trkpt lat="41.813999963924289" lon="13.729073088616133">
        <ele>1373.8599850000001</ele>
        <time>2017-06-17T09:35:06Z</time>
      </trkpt>
      <trkpt lat="41.813989821821451" lon="13.729193117469549">
        <ele>1375.780029</ele>
        <time>2017-06-17T09:35:19Z</time>
      </trkpt>
      <trkpt lat="41.813989570364356" lon="13.72931532561779">
        <ele>1378.1899410000001</ele>
        <time>2017-06-17T09:35:33Z</time>
      </trkpt>
      <trkpt lat="41.813941039144993" lon="13.729400234296918">
        <ele>1379.630005</ele>
        <time>2017-06-17T09:35:45Z</time>
      </trkpt>
      <trkpt lat="41.813908684998751" lon="13.729491429403424">
        <ele>1381.0699460000001</ele>
        <time>2017-06-17T09:35:57Z</time>
      </trkpt>
      <trkpt lat="41.813891837373376" lon="13.729642806574702">
        <ele>1383.9600829999999</ele>
        <time>2017-06-17T09:36:12Z</time>
      </trkpt>
      <trkpt lat="41.813926035538316" lon="13.729783119633794">
        <ele>1385.3999020000001</ele>
        <time>2017-06-17T09:36:26Z</time>
      </trkpt>
      <trkpt lat="41.813948415219784" lon="13.729876577854156">
        <ele>1387.799927</ele>
        <time>2017-06-17T09:36:39Z</time>
      </trkpt>
      <trkpt lat="41.813975907862186" lon="13.729990990832448">
        <ele>1390.1999510000001</ele>
        <time>2017-06-17T09:36:54Z</time>
      </trkpt>
      <trkpt lat="41.813975488767028" lon="13.730156114324927">
        <ele>1393.0900879999999</ele>
        <time>2017-06-17T09:37:08Z</time>
      </trkpt>
      <trkpt lat="41.813950259238482" lon="13.730282178148627">
        <ele>1394.5299070000001</ele>
        <time>2017-06-17T09:37:19Z</time>
      </trkpt>
      <trkpt lat="41.813884628936648" lon="13.73045090585947">
        <ele>1396.4499510000001</ele>
        <time>2017-06-17T09:37:33Z</time>
      </trkpt>
      <trkpt lat="41.813826039433479" lon="13.730551237240434">
        <ele>1397.410034</ele>
        <time>2017-06-17T09:37:49Z</time>
      </trkpt>
      <trkpt lat="41.813785135746002" lon="13.730686018243432">
        <ele>1399.820068</ele>
        <time>2017-06-17T09:38:02Z</time>
      </trkpt>
      <trkpt lat="41.813718331977725" lon="13.730784505605698">
        <ele>1401.7398679999999</ele>
        <time>2017-06-17T09:38:15Z</time>
      </trkpt>
      <trkpt lat="41.813662005588412" lon="13.730850890278816">
        <ele>1403.179932</ele>
        <time>2017-06-17T09:38:26Z</time>
      </trkpt>
      <trkpt lat="41.813650941476226" lon="13.730880059301853">
        <ele>1403.6599120000001</ele>
        <time>2017-06-17T09:38:28Z</time>
      </trkpt>
      <trkpt lat="41.81359838694334" lon="13.730948120355606">
        <ele>1404.139893</ele>
        <time>2017-06-17T09:38:35Z</time>
      </trkpt>
      <trkpt lat="41.813541473820806" lon="13.731049541383982">
        <ele>1405.579956</ele>
        <time>2017-06-17T09:38:47Z</time>
      </trkpt>
      <trkpt lat="41.81347718462348" lon="13.731150040403008">
        <ele>1407.98999</ele>
        <time>2017-06-17T09:38:59Z</time>
      </trkpt>
      <trkpt lat="41.813443992286921" lon="13.731252634897828">
        <ele>1409.4300539999999</ele>
        <time>2017-06-17T09:39:10Z</time>
      </trkpt>
      <trkpt lat="41.813414739444852" lon="13.731347098946571">
        <ele>1411.3500979999999</ele>
        <time>2017-06-17T09:39:20Z</time>
      </trkpt>
      <trkpt lat="41.813339302316308" lon="13.731416836380959">
        <ele>1412.7899170000001</ele>
        <time>2017-06-17T09:39:33Z</time>
      </trkpt>
      <trkpt lat="41.813231511041522" lon="13.731504259631038">
        <ele>1414.23999</ele>
        <time>2017-06-17T09:39:46Z</time>
      </trkpt>
      <trkpt lat="41.813140818849206" lon="13.731592688709497">
        <ele>1415.6800539999999</ele>
        <time>2017-06-17T09:39:58Z</time>
      </trkpt>
      <trkpt lat="41.813104273751378" lon="13.731613392010331">
        <ele>1415.6800539999999</ele>
        <time>2017-06-17T09:40:03Z</time>
      </trkpt>
      <trkpt lat="41.813068985939026" lon="13.731631580740213">
        <ele>1416.160034</ele>
        <time>2017-06-17T09:40:07Z</time>
      </trkpt>
      <trkpt lat="41.812963038682938" lon="13.73167097568512">
        <ele>1418.080078</ele>
        <time>2017-06-17T09:40:19Z</time>
      </trkpt>
      <trkpt lat="41.81293336674571" lon="13.731753118336201">
        <ele>1418.5600589999999</ele>
        <time>2017-06-17T09:40:25Z</time>
      </trkpt>
      <trkpt lat="41.812899503856897" lon="13.731776168569922">
        <ele>1419.040039</ele>
        <time>2017-06-17T09:40:29Z</time>
      </trkpt>
      <trkpt lat="41.812785258516669" lon="13.731852695345879">
        <ele>1420.48999</ele>
        <time>2017-06-17T09:40:42Z</time>
      </trkpt>
      <trkpt lat="41.812772685661912" lon="13.731867279857397">
        <ele>1420.48999</ele>
        <time>2017-06-17T09:40:44Z</time>
      </trkpt>
      <trkpt lat="41.812708061188459" lon="13.731926372274756">
        <ele>1420.969971</ele>
        <time>2017-06-17T09:40:53Z</time>
      </trkpt>
      <trkpt lat="41.812677634879947" lon="13.73197196982801">
        <ele>1421.4499510000001</ele>
        <time>2017-06-17T09:40:58Z</time>
      </trkpt>
      <trkpt lat="41.81263823993504" lon="13.732036929577589">
        <ele>1421.929932</ele>
        <time>2017-06-17T09:41:03Z</time>
      </trkpt>
      <trkpt lat="41.81256053969264" lon="13.732102559879422">
        <ele>1422.410034</ele>
        <time>2017-06-17T09:41:11Z</time>
      </trkpt>
      <trkpt lat="41.812498262152076" lon="13.732208590954542">
        <ele>1424.329956</ele>
        <time>2017-06-17T09:41:21Z</time>
      </trkpt>
      <trkpt lat="41.812412431463599" lon="13.732329960912466">
        <ele>1425.290039</ele>
        <time>2017-06-17T09:41:34Z</time>
      </trkpt>
      <trkpt lat="41.812388375401497" lon="13.732360135763884">
        <ele>1425.290039</ele>
        <time>2017-06-17T09:41:38Z</time>
      </trkpt>
      <trkpt lat="41.812276896089315" lon="13.732468765228987">
        <ele>1426.7299800000001</ele>
        <time>2017-06-17T09:41:51Z</time>
      </trkpt>
      <trkpt lat="41.812264658510685" lon="13.73248896561563">
        <ele>1427.209961</ele>
        <time>2017-06-17T09:41:53Z</time>
      </trkpt>
      <trkpt lat="41.812245463952422" lon="13.732534982264042">
        <ele>1427.700073</ele>
        <time>2017-06-17T09:41:57Z</time>
      </trkpt>
      <trkpt lat="41.812152173370123" lon="13.732630703598261">
        <ele>1429.139893</ele>
        <time>2017-06-17T09:42:10Z</time>
      </trkpt>
      <trkpt lat="41.812078496441245" lon="13.732738494873047">
        <ele>1430.579956</ele>
        <time>2017-06-17T09:42:21Z</time>
      </trkpt>
      <trkpt lat="41.811993587762117" lon="13.732832204550505">
        <ele>1431.059937</ele>
        <time>2017-06-17T09:42:32Z</time>
      </trkpt>
      <trkpt lat="41.811991324648261" lon="13.732840837910771">
        <ele>1431.059937</ele>
        <time>2017-06-17T09:42:33Z</time>
      </trkpt>
      <trkpt lat="41.812031473964453" lon="13.733005961403251">
        <ele>1432.9799800000001</ele>
        <time>2017-06-17T09:42:45Z</time>
      </trkpt>
      <trkpt lat="41.812039772048593" lon="13.733045104891062">
        <ele>1433.459961</ele>
        <time>2017-06-17T09:42:48Z</time>
      </trkpt>
      <trkpt lat="41.812068605795503" lon="13.733095563948154">
        <ele>1434.420044</ele>
        <time>2017-06-17T09:42:54Z</time>
      </trkpt>
      <trkpt lat="41.812156783416867" lon="13.733202097937465">
        <ele>1435.3900149999999</ele>
        <time>2017-06-17T09:43:07Z</time>
      </trkpt>
      <trkpt lat="41.812164997681975" lon="13.733247527852654">
        <ele>1436.3500979999999</ele>
        <time>2017-06-17T09:43:11Z</time>
      </trkpt>
      <trkpt lat="41.812156196683645" lon="13.733309470117092">
        <ele>1436.830078</ele>
        <time>2017-06-17T09:43:16Z</time>
      </trkpt>
      <trkpt lat="41.812188383191824" lon="13.733432767912745">
        <ele>1437.7899170000001</ele>
        <time>2017-06-17T09:43:27Z</time>
      </trkpt>
      <trkpt lat="41.812205063179135" lon="13.733464786782861">
        <ele>1437.7899170000001</ele>
        <time>2017-06-17T09:43:44Z</time>
      </trkpt>
      <trkpt lat="41.812194837257266" lon="13.733483897522092">
        <ele>1438.2698969999999</ele>
        <time>2017-06-17T09:43:57Z</time>
      </trkpt>
      <trkpt lat="41.812168015167117" lon="13.733493788167834">
        <ele>1438.2698969999999</ele>
        <time>2017-06-17T09:44:24Z</time>
      </trkpt>
      <trkpt lat="41.812145970761776" lon="13.733488507568836">
        <ele>1438.2698969999999</ele>
        <time>2017-06-17T09:44:49Z</time>
      </trkpt>
      <trkpt lat="41.812194334343076" lon="13.7335145752877">
        <ele>1438.2698969999999</ele>
        <time>2017-06-17T09:44:55Z</time>
      </trkpt>
      <trkpt lat="41.812186790630221" lon="13.733565621078014">
        <ele>1438.2698969999999</ele>
        <time>2017-06-17T09:45:00Z</time>
      </trkpt>
      <trkpt lat="41.812118059024215" lon="13.733648937195539">
        <ele>1441.150024</ele>
        <time>2017-06-17T09:45:12Z</time>
      </trkpt>
      <trkpt lat="41.812087967991829" lon="13.733647931367159">
        <ele>1441.630005</ele>
        <time>2017-06-17T09:45:17Z</time>
      </trkpt>
      <trkpt lat="41.812064414843917" lon="13.733634604141116">
        <ele>1442.1099850000001</ele>
        <time>2017-06-17T09:45:20Z</time>
      </trkpt>
      <trkpt lat="41.812050165608525" lon="13.733623623847961">
        <ele>1442.599976</ele>
        <time>2017-06-17T09:45:22Z</time>
      </trkpt>
      <trkpt lat="41.811970537528396" lon="13.733588922768831">
        <ele>1444.040039</ele>
        <time>2017-06-17T09:45:34Z</time>
      </trkpt>
      <trkpt lat="41.81187791749835" lon="13.73355757445097">
        <ele>1446.440063</ele>
        <time>2017-06-17T09:45:48Z</time>
      </trkpt>
      <trkpt lat="41.811865512281656" lon="13.73352731578052">
        <ele>1447.8801269999999</ele>
        <time>2017-06-17T09:46:05Z</time>
      </trkpt>
      <trkpt lat="41.811840115115047" lon="13.733551958575845">
        <ele>1450.290039</ele>
        <time>2017-06-17T09:46:19Z</time>
      </trkpt>
      <trkpt lat="41.811842378228903" lon="13.733561765402555">
        <ele>1450.290039</ele>
        <time>2017-06-17T09:46:21Z</time>
      </trkpt>
      <trkpt lat="41.811873391270638" lon="13.733671987429261">
        <ele>1452.209961</ele>
        <time>2017-06-17T09:46:34Z</time>
      </trkpt>
      <trkpt lat="41.811858471482992" lon="13.733754884451628">
        <ele>1455.0900879999999</ele>
        <time>2017-06-17T09:46:45Z</time>
      </trkpt>
      <trkpt lat="41.811894262209535" lon="13.733831327408552">
        <ele>1457.0200199999999</ele>
        <time>2017-06-17T09:46:58Z</time>
      </trkpt>
      <trkpt lat="41.811849502846599" lon="13.733913470059633">
        <ele>1458.459961</ele>
        <time>2017-06-17T09:47:10Z</time>
      </trkpt>
      <trkpt lat="41.81180021725595" lon="13.73395973816514">
        <ele>1460.8599850000001</ele>
        <time>2017-06-17T09:47:24Z</time>
      </trkpt>
      <trkpt lat="41.811706759035587" lon="13.734030062332749">
        <ele>1463.26001</ele>
        <time>2017-06-17T09:47:39Z</time>
      </trkpt>
      <trkpt lat="41.811689408496022" lon="13.7340291403234">
        <ele>1463.26001</ele>
        <time>2017-06-17T09:47:41Z</time>
      </trkpt>
      <trkpt lat="41.811614306643605" lon="13.734090831130743">
        <ele>1464.709961</ele>
        <time>2017-06-17T09:47:52Z</time>
      </trkpt>
      <trkpt lat="41.811565440148115" lon="13.734122095629573">
        <ele>1466.630005</ele>
        <time>2017-06-17T09:48:01Z</time>
      </trkpt>
      <trkpt lat="41.811490505933762" lon="13.734137518331409">
        <ele>1468.5500489999999</ele>
        <time>2017-06-17T09:48:14Z</time>
      </trkpt>
      <trkpt lat="41.811455972492695" lon="13.734171716496348">
        <ele>1470.469971</ele>
        <time>2017-06-17T09:48:27Z</time>
      </trkpt>
      <trkpt lat="41.811419008299708" lon="13.734227120876312">
        <ele>1472.3999020000001</ele>
        <time>2017-06-17T09:48:39Z</time>
      </trkpt>
      <trkpt lat="41.811358323320746" lon="13.734280010685325">
        <ele>1473.839966</ele>
        <time>2017-06-17T09:48:52Z</time>
      </trkpt>
      <trkpt lat="41.811302583664656" lon="13.734313622117043">
        <ele>1476.23999</ele>
        <time>2017-06-17T09:49:07Z</time>
      </trkpt>
      <trkpt lat="41.811276013031602" lon="13.734366595745087">
        <ele>1478.160034</ele>
        <time>2017-06-17T09:49:20Z</time>
      </trkpt>
      <trkpt lat="41.811215914785862" lon="13.734388975426555">
        <ele>1480.570068</ele>
        <time>2017-06-17T09:49:33Z</time>
      </trkpt>
      <trkpt lat="41.811139639467001" lon="13.734356286004186">
        <ele>1482.009888</ele>
        <time>2017-06-17T09:49:46Z</time>
      </trkpt>
      <trkpt lat="41.811075685545802" lon="13.734131567180157">
        <ele>1484.4099120000001</ele>
        <time>2017-06-17T09:50:04Z</time>
      </trkpt>
      <trkpt lat="41.811007540673018" lon="13.734095189720392">
        <ele>1486.820068</ele>
        <time>2017-06-17T09:50:19Z</time>
      </trkpt>
      <trkpt lat="41.810885164886713" lon="13.734032660722733">
        <ele>1488.73999</ele>
        <time>2017-06-17T09:50:38Z</time>
      </trkpt>
      <trkpt lat="41.810766812413931" lon="13.734033834189177">
        <ele>1491.139893</ele>
        <time>2017-06-17T09:50:54Z</time>
      </trkpt>
      <trkpt lat="41.810674192383885" lon="13.734021177515388">
        <ele>1493.059937</ele>
        <time>2017-06-17T09:51:08Z</time>
      </trkpt>
      <trkpt lat="41.810613423585892" lon="13.733921432867646">
        <ele>1494.98999</ele>
        <time>2017-06-17T09:51:23Z</time>
      </trkpt>
      <trkpt lat="41.810572519898415" lon="13.733869213610888">
        <ele>1497.869995</ele>
        <time>2017-06-17T09:51:37Z</time>
      </trkpt>
      <trkpt lat="41.810556426644325" lon="13.733908692374825">
        <ele>1499.3100589999999</ele>
        <time>2017-06-17T09:51:52Z</time>
      </trkpt>
      <trkpt lat="41.810580063611269" lon="13.734029224142432">
        <ele>1501.23999</ele>
        <time>2017-06-17T09:52:06Z</time>
      </trkpt>
      <trkpt lat="41.81060504168272" lon="13.734121508896351">
        <ele>1503.160034</ele>
        <time>2017-06-17T09:52:20Z</time>
      </trkpt>
      <trkpt lat="41.810605460777879" lon="13.734225695952773">
        <ele>1506.040039</ele>
        <time>2017-06-17T09:52:35Z</time>
      </trkpt>
      <trkpt lat="41.810632534325123" lon="13.734338097274303">
        <ele>1508.4499510000001</ele>
        <time>2017-06-17T09:52:50Z</time>
      </trkpt>
      <trkpt lat="41.810634965077043" lon="13.734358213841915">
        <ele>1511.329956</ele>
        <time>2017-06-17T09:52:53Z</time>
      </trkpt>
      <trkpt lat="41.81063043884933" lon="13.734463406726718">
        <ele>1510.849976</ele>
        <time>2017-06-17T09:53:04Z</time>
      </trkpt>
      <trkpt lat="41.81061333976686" lon="13.734582429751754">
        <ele>1512.7700199999999</ele>
        <time>2017-06-17T09:53:19Z</time>
      </trkpt>
      <trkpt lat="41.810576878488064" lon="13.734691729769111">
        <ele>1515.1800539999999</ele>
        <time>2017-06-17T09:53:33Z</time>
      </trkpt>
      <trkpt lat="41.810568999499083" lon="13.734777811914682">
        <ele>1518.059937</ele>
        <time>2017-06-17T09:53:48Z</time>
      </trkpt>
      <trkpt lat="41.810574028640985" lon="13.734892141073942">
        <ele>1520.459961</ele>
        <time>2017-06-17T09:54:05Z</time>
      </trkpt>
      <trkpt lat="41.810595234856009" lon="13.735006973147392">
        <ele>1522.869995</ele>
        <time>2017-06-17T09:54:18Z</time>
      </trkpt>
      <trkpt lat="41.810487862676382" lon="13.735041422769427">
        <ele>1525.2698969999999</ele>
        <time>2017-06-17T09:54:32Z</time>
      </trkpt>
      <trkpt lat="41.81046430952847" lon="13.735021138563752">
        <ele>1526.709961</ele>
        <time>2017-06-17T09:54:52Z</time>
      </trkpt>
      <trkpt lat="41.810473697260022" lon="13.734943438321352">
        <ele>1526.709961</ele>
        <time>2017-06-17T09:55:06Z</time>
      </trkpt>
      <trkpt lat="41.810506386682391" lon="13.734873281791806">
        <ele>1526.709961</ele>
        <time>2017-06-17T09:55:37Z</time>
      </trkpt>
      <trkpt lat="41.810469506308436" lon="13.735009990632534">
        <ele>1527.669922</ele>
        <time>2017-06-17T09:55:50Z</time>
      </trkpt>
      <trkpt lat="41.810470428317785" lon="13.735156673938036">
        <ele>1530.079956</ele>
        <time>2017-06-17T09:56:03Z</time>
      </trkpt>
      <trkpt lat="41.810423238202929" lon="13.735257759690285">
        <ele>1531.5200199999999</ele>
        <time>2017-06-17T09:56:17Z</time>
      </trkpt>
      <trkpt lat="41.810419382527471" lon="13.735320791602135">
        <ele>1533.920044</ele>
        <time>2017-06-17T09:56:25Z</time>
      </trkpt>
      <trkpt lat="41.810425501316786" lon="13.735403437167406">
        <ele>1535.360107</ele>
        <time>2017-06-17T09:56:39Z</time>
      </trkpt>
      <trkpt lat="41.810430362820625" lon="13.735455740243196">
        <ele>1535.360107</ele>
        <time>2017-06-17T09:56:50Z</time>
      </trkpt>
      <trkpt lat="41.81042960844934" lon="13.735463116317987">
        <ele>1535.360107</ele>
        <time>2017-06-17T09:56:51Z</time>
      </trkpt>
      <trkpt lat="41.810370180755854" lon="13.735568225383759">
        <ele>1536.3199460000001</ele>
        <time>2017-06-17T09:57:03Z</time>
      </trkpt>
      <trkpt lat="41.810340927913785" lon="13.735475772991776">
        <ele>1538.25</ele>
        <time>2017-06-17T09:57:17Z</time>
      </trkpt>
      <trkpt lat="41.810287199914455" lon="13.735343422740698">
        <ele>1539.690063</ele>
        <time>2017-06-17T09:57:33Z</time>
      </trkpt>
      <trkpt lat="41.810291223227978" lon="13.735360940918326">
        <ele>1541.6099850000001</ele>
        <time>2017-06-17T09:57:45Z</time>
      </trkpt>
      <trkpt lat="41.810282338410616" lon="13.735468899831176">
        <ele>1544.009888</ele>
        <time>2017-06-17T09:57:59Z</time>
      </trkpt>
      <trkpt lat="41.810194412246346" lon="13.735491279512644">
        <ele>1545.9399410000001</ele>
        <time>2017-06-17T09:58:12Z</time>
      </trkpt>
      <trkpt lat="41.81017991155386" lon="13.73538114130497">
        <ele>1546.420044</ele>
        <time>2017-06-17T09:58:25Z</time>
      </trkpt>
      <trkpt lat="41.810113610699773" lon="13.735274104401469">
        <ele>1548.339966</ele>
        <time>2017-06-17T09:58:37Z</time>
      </trkpt>
      <trkpt lat="41.810051081702113" lon="13.735173940658569">
        <ele>1551.709961</ele>
        <time>2017-06-17T09:58:51Z</time>
      </trkpt>
      <trkpt lat="41.810092069208622" lon="13.735176203772426">
        <ele>1553.630005</ele>
        <time>2017-06-17T09:59:05Z</time>
      </trkpt>
      <trkpt lat="41.810032809153199" lon="13.735192213207483">
        <ele>1556.51001</ele>
        <time>2017-06-17T09:59:19Z</time>
      </trkpt>
      <trkpt lat="41.809951504692435" lon="13.735119625926018">
        <ele>1558.4300539999999</ele>
        <time>2017-06-17T09:59:34Z</time>
      </trkpt>
      <trkpt lat="41.809946559369564" lon="13.735193135216832">
        <ele>1560.360107</ele>
        <time>2017-06-17T09:59:47Z</time>
      </trkpt>
      <trkpt lat="41.809971872717142" lon="13.735320372506976">
        <ele>1562.76001</ele>
        <time>2017-06-17T10:00:01Z</time>
      </trkpt>
      <trkpt lat="41.809943960979581" lon="13.735436461865902">
        <ele>1564.1999510000001</ele>
        <time>2017-06-17T10:00:13Z</time>
      </trkpt>
      <trkpt lat="41.809915462508798" lon="13.735566884279251">
        <ele>1566.119995</ele>
        <time>2017-06-17T10:00:26Z</time>
      </trkpt>
      <trkpt lat="41.809887634590268" lon="13.735668137669563">
        <ele>1567.570068</ele>
        <time>2017-06-17T10:00:38Z</time>
      </trkpt>
      <trkpt lat="41.809858717024326" lon="13.735779533162713">
        <ele>1569.490112</ele>
        <time>2017-06-17T10:00:51Z</time>
      </trkpt>
      <trkpt lat="41.809804067015648" lon="13.73580283485353">
        <ele>1572.369995</ele>
        <time>2017-06-17T10:01:05Z</time>
      </trkpt>
      <trkpt lat="41.809706585481763" lon="13.735639890655875">
        <ele>1574.3000489999999</ele>
        <time>2017-06-17T10:01:22Z</time>
      </trkpt>
      <trkpt lat="41.809710524976254" lon="13.735638130456209">
        <ele>1576.2200929999999</ele>
        <time>2017-06-17T10:01:37Z</time>
      </trkpt>
      <trkpt lat="41.809684038162231" lon="13.735733181238174">
        <ele>1577.660034</ele>
        <time>2017-06-17T10:01:50Z</time>
      </trkpt>
      <trkpt lat="41.809625867754221" lon="13.735805181786418">
        <ele>1579.579956</ele>
        <time>2017-06-17T10:02:03Z</time>
      </trkpt>
      <trkpt lat="41.809595692902803" lon="13.735799817368388">
        <ele>1581.51001</ele>
        <time>2017-06-17T10:02:08Z</time>
      </trkpt>
      <trkpt lat="41.809574067592621" lon="13.735732091590762">
        <ele>1583.4300539999999</ele>
        <time>2017-06-17T10:02:21Z</time>
      </trkpt>
      <trkpt lat="41.809536516666412" lon="13.735657660290599">
        <ele>1584.3900149999999</ele>
        <time>2017-06-17T10:02:35Z</time>
      </trkpt>
      <trkpt lat="41.809529140591621" lon="13.735739132389426">
        <ele>1586.790039</ele>
        <time>2017-06-17T10:02:48Z</time>
      </trkpt>
      <trkpt lat="41.809532409533858" lon="13.735826807096601">
        <ele>1588.23999</ele>
        <time>2017-06-17T10:03:00Z</time>
      </trkpt>
      <trkpt lat="41.80952369235456" lon="13.735902076587081">
        <ele>1590.160034</ele>
        <time>2017-06-17T10:03:12Z</time>
      </trkpt>
      <trkpt lat="41.809501312673092" lon="13.736016238108277">
        <ele>1591.599976</ele>
        <time>2017-06-17T10:03:26Z</time>
      </trkpt>
      <trkpt lat="41.809444734826684" lon="13.736120341345668">
        <ele>1594</ele>
        <time>2017-06-17T10:03:41Z</time>
      </trkpt>
      <trkpt lat="41.80944942869246" lon="13.736213380470872">
        <ele>1595.929932</ele>
        <time>2017-06-17T10:03:53Z</time>
      </trkpt>
      <trkpt lat="41.809460911899805" lon="13.736303737387061">
        <ele>1598.329956</ele>
        <time>2017-06-17T10:04:06Z</time>
      </trkpt>
      <trkpt lat="41.809492260217667" lon="13.736380012705922">
        <ele>1600.25</ele>
        <time>2017-06-17T10:04:19Z</time>
      </trkpt>
      <trkpt lat="41.809495110064745" lon="13.736420413479209">
        <ele>1601.209961</ele>
        <time>2017-06-17T10:04:38Z</time>
      </trkpt>
      <trkpt lat="41.809544982388616" lon="13.736513871699572">
        <ele>1603.6201169999999</ele>
        <time>2017-06-17T10:04:52Z</time>
      </trkpt>
      <trkpt lat="41.809572139754891" lon="13.736614705994725">
        <ele>1605.5399170000001</ele>
        <time>2017-06-17T10:05:05Z</time>
      </trkpt>
      <trkpt lat="41.809580270200968" lon="13.73674982227385">
        <ele>1608.419922</ele>
        <time>2017-06-17T10:05:17Z</time>
      </trkpt>
      <trkpt lat="41.809583539143205" lon="13.736836239695549">
        <ele>1609.380005</ele>
        <time>2017-06-17T10:05:29Z</time>
      </trkpt>
      <trkpt lat="41.809556968510151" lon="13.73689298518002">
        <ele>1610.830078</ele>
        <time>2017-06-17T10:05:41Z</time>
      </trkpt>
      <trkpt lat="41.809537941589952" lon="13.736990718171">
        <ele>1611.790039</ele>
        <time>2017-06-17T10:06:00Z</time>
      </trkpt>
      <trkpt lat="41.809517741203308" lon="13.737075794488192">
        <ele>1614.1899410000001</ele>
        <time>2017-06-17T10:06:12Z</time>
      </trkpt>
      <trkpt lat="41.809485722333193" lon="13.737148465588689">
        <ele>1616.1099850000001</ele>
        <time>2017-06-17T10:06:23Z</time>
      </trkpt>
      <trkpt lat="41.809444902464747" lon="13.737199930474162">
        <ele>1618.040039</ele>
        <time>2017-06-17T10:06:35Z</time>
      </trkpt>
      <trkpt lat="41.809393940493464" lon="13.737269919365644">
        <ele>1619.9600829999999</ele>
        <time>2017-06-17T10:06:47Z</time>
      </trkpt>
      <trkpt lat="41.809355886653066" lon="13.737323060631752">
        <ele>1622.360107</ele>
        <time>2017-06-17T10:06:58Z</time>
      </trkpt>
      <trkpt lat="41.809321939945221" lon="13.737407466396689">
        <ele>1624.2799070000001</ele>
        <time>2017-06-17T10:07:09Z</time>
      </trkpt>
      <trkpt lat="41.809297800064087" lon="13.737481730058789">
        <ele>1626.209961</ele>
        <time>2017-06-17T10:07:21Z</time>
      </trkpt>
      <trkpt lat="41.809271983802319" lon="13.73755406588316">
        <ele>1628.130005</ele>
        <time>2017-06-17T10:07:33Z</time>
      </trkpt>
      <trkpt lat="41.809223620221019" lon="13.73763226903975">
        <ele>1630.530029</ele>
        <time>2017-06-17T10:07:47Z</time>
      </trkpt>
      <trkpt lat="41.809203587472439" lon="13.737686667591333">
        <ele>1632.459961</ele>
        <time>2017-06-17T10:08:03Z</time>
      </trkpt>
      <trkpt lat="41.809164192527533" lon="13.737721787765622">
        <ele>1632.9399410000001</ele>
        <time>2017-06-17T10:08:30Z</time>
      </trkpt>
      <trkpt lat="41.809167293831706" lon="13.737783562391996">
        <ele>1632.9399410000001</ele>
        <time>2017-06-17T10:08:57Z</time>
      </trkpt>
      <trkpt lat="41.809155391529202" lon="13.73785212635994">
        <ele>1634.8599850000001</ele>
        <time>2017-06-17T10:09:13Z</time>
      </trkpt>
      <trkpt lat="41.809144830331206" lon="13.73791909776628">
        <ele>1637.26001</ele>
        <time>2017-06-17T10:09:25Z</time>
      </trkpt>
      <trkpt lat="41.809108788147569" lon="13.737971233204007">
        <ele>1639.669922</ele>
        <time>2017-06-17T10:09:39Z</time>
      </trkpt>
      <trkpt lat="41.809074422344565" lon="13.738021776080132">
        <ele>1642.0699460000001</ele>
        <time>2017-06-17T10:09:50Z</time>
      </trkpt>
      <trkpt lat="41.809003930538893" lon="13.73805589042604">
        <ele>1644.469971</ele>
        <time>2017-06-17T10:10:03Z</time>
      </trkpt>
      <trkpt lat="41.80895984172821" lon="13.738090507686138">
        <ele>1647.360107</ele>
        <time>2017-06-17T10:10:17Z</time>
      </trkpt>
      <trkpt lat="41.80891877040267" lon="13.738104673102498">
        <ele>1648.799927</ele>
        <time>2017-06-17T10:10:33Z</time>
      </trkpt>
      <trkpt lat="41.808923212811351" lon="13.738076929003">
        <ele>1649.2799070000001</ele>
        <time>2017-06-17T10:11:07Z</time>
      </trkpt>
      <trkpt lat="41.808879878371954" lon="13.738146917894483">
        <ele>1650.719971</ele>
        <time>2017-06-17T10:11:21Z</time>
      </trkpt>
      <trkpt lat="41.808848781511188" lon="13.738233167678118">
        <ele>1653.599976</ele>
        <time>2017-06-17T10:11:34Z</time>
      </trkpt>
      <trkpt lat="41.80878926999867" lon="13.738286979496479">
        <ele>1656.9700929999999</ele>
        <time>2017-06-17T10:11:49Z</time>
      </trkpt>
      <trkpt lat="41.808736380189657" lon="13.738340623676777">
        <ele>1658.8900149999999</ele>
        <time>2017-06-17T10:12:01Z</time>
      </trkpt>
      <trkpt lat="41.808696985244751" lon="13.738383874297142">
        <ele>1661.3000489999999</ele>
        <time>2017-06-17T10:12:12Z</time>
      </trkpt>
      <trkpt lat="41.808665217831731" lon="13.738442463800311">
        <ele>1663.219971</ele>
        <time>2017-06-17T10:12:24Z</time>
      </trkpt>
      <trkpt lat="41.808630935847759" lon="13.73847858980298">
        <ele>1665.1400149999999</ele>
        <time>2017-06-17T10:12:35Z</time>
      </trkpt>
      <trkpt lat="41.808582236990333" lon="13.738532988354564">
        <ele>1667.5399170000001</ele>
        <time>2017-06-17T10:12:48Z</time>
      </trkpt>
      <trkpt lat="41.808548038825393" lon="13.738573221489787">
        <ele>1669.9499510000001</ele>
        <time>2017-06-17T10:13:00Z</time>
      </trkpt>
      <trkpt lat="41.808497663587332" lon="13.738601133227348">
        <ele>1671.3900149999999</ele>
        <time>2017-06-17T10:13:12Z</time>
      </trkpt>
      <trkpt lat="41.808469165116549" lon="13.738644886761904">
        <ele>1672.830078</ele>
        <time>2017-06-17T10:13:20Z</time>
      </trkpt>
      <trkpt lat="41.808401523157954" lon="13.738710936158895">
        <ele>1675.2301030000001</ele>
        <time>2017-06-17T10:13:33Z</time>
      </trkpt>
      <trkpt lat="41.808321224525571" lon="13.738746559247375">
        <ele>1677.6400149999999</ele>
        <time>2017-06-17T10:13:46Z</time>
      </trkpt>
      <trkpt lat="41.808315776288509" lon="13.738744128495455">
        <ele>1678.119995</ele>
        <time>2017-06-17T10:13:47Z</time>
      </trkpt>
      <trkpt lat="41.808261377736926" lon="13.738724263384938">
        <ele>1678.119995</ele>
        <time>2017-06-17T10:14:02Z</time>
      </trkpt>
      <trkpt lat="41.808291804045439" lon="13.738689813762903">
        <ele>1678.119995</ele>
        <time>2017-06-17T10:14:19Z</time>
      </trkpt>
      <trkpt lat="41.808297336101532" lon="13.738684533163905">
        <ele>1678.599976</ele>
        <time>2017-06-17T10:14:35Z</time>
      </trkpt>
      <trkpt lat="41.808298174291849" lon="13.73869308270514">
        <ele>1679.079956</ele>
        <time>2017-06-17T10:15:03Z</time>
      </trkpt>
      <trkpt lat="41.808333462104201" lon="13.738712193444371">
        <ele>1679.079956</ele>
        <time>2017-06-17T10:15:36Z</time>
      </trkpt>
      <trkpt lat="41.808337904512882" lon="13.738704901188612">
        <ele>1679.5600589999999</ele>
        <time>2017-06-17T10:15:56Z</time>
      </trkpt>
      <trkpt lat="41.808328935876489" lon="13.738747984170914">
        <ele>1679.5600589999999</ele>
        <time>2017-06-17T10:16:07Z</time>
      </trkpt>
      <trkpt lat="41.808193400502205" lon="13.738814285025001">
        <ele>1678.119995</ele>
        <time>2017-06-17T10:16:17Z</time>
      </trkpt>
      <trkpt lat="41.808166159316897" lon="13.738801376894116">
        <ele>1677.160034</ele>
        <time>2017-06-17T10:16:36Z</time>
      </trkpt>
      <trkpt lat="41.80815408937633" lon="13.738793917000294">
        <ele>1677.6400149999999</ele>
        <time>2017-06-17T10:17:04Z</time>
      </trkpt>
      <trkpt lat="41.808152664452791" lon="13.738792240619659">
        <ele>1677.6400149999999</ele>
        <time>2017-06-17T10:17:05Z</time>
      </trkpt>
      <trkpt lat="41.808025594800711" lon="13.738709092140198">
        <ele>1674.2700199999999</ele>
        <time>2017-06-17T10:17:17Z</time>
      </trkpt>
      <trkpt lat="41.807974381372333" lon="13.738664332777262">
        <ele>1673.790039</ele>
        <time>2017-06-17T10:17:33Z</time>
      </trkpt>
      <trkpt lat="41.808001538738608" lon="13.738654106855392">
        <ele>1673.3100589999999</ele>
        <time>2017-06-17T10:17:53Z</time>
      </trkpt>
      <trkpt lat="41.808067420497537" lon="13.738671541213989">
        <ele>1674.75</ele>
        <time>2017-06-17T10:17:59Z</time>
      </trkpt>
      <trkpt lat="41.808120561763644" lon="13.738718396052718">
        <ele>1676.679932</ele>
        <time>2017-06-17T10:18:10Z</time>
      </trkpt>
      <trkpt lat="41.808163141831756" lon="13.738903468474746">
        <ele>1678.119995</ele>
        <time>2017-06-17T10:18:26Z</time>
      </trkpt>
      <trkpt lat="41.808164734393358" lon="13.738918891176581">
        <ele>1678.119995</ele>
        <time>2017-06-17T10:18:27Z</time>
      </trkpt>
      <trkpt lat="41.808148138225079" lon="13.738947389647365">
        <ele>1678.119995</ele>
        <time>2017-06-17T10:18:29Z</time>
      </trkpt>
      <trkpt lat="41.808089967817068" lon="13.739004386588931">
        <ele>1674.75</ele>
        <time>2017-06-17T10:18:38Z</time>
      </trkpt>
      <trkpt lat="41.808027103543282" lon="13.739056438207626">
        <ele>1671.3900149999999</ele>
        <time>2017-06-17T10:18:47Z</time>
      </trkpt>
      <trkpt lat="41.807998521253467" lon="13.73920077458024">
        <ele>1668.98999</ele>
        <time>2017-06-17T10:18:59Z</time>
      </trkpt>
      <trkpt lat="41.807945379987359" lon="13.73943823389709">
        <ele>1666.1000979999999</ele>
        <time>2017-06-17T10:19:14Z</time>
      </trkpt>
      <trkpt lat="41.807932136580348" lon="13.739529931917787">
        <ele>1664.660034</ele>
        <time>2017-06-17T10:19:19Z</time>
      </trkpt>
      <trkpt lat="41.807915037497878" lon="13.739596484228969">
        <ele>1663.700073</ele>
        <time>2017-06-17T10:19:23Z</time>
      </trkpt>
      <trkpt lat="41.807878073304892" lon="13.739780802279711">
        <ele>1660.329956</ele>
        <time>2017-06-17T10:19:35Z</time>
      </trkpt>
      <trkpt lat="41.807826859876513" lon="13.739971658214927">
        <ele>1657.450073</ele>
        <time>2017-06-17T10:19:48Z</time>
      </trkpt>
      <trkpt lat="41.807785537093878" lon="13.740084310993552">
        <ele>1656.01001</ele>
        <time>2017-06-17T10:19:54Z</time>
      </trkpt>
      <trkpt lat="41.80772015824914" lon="13.740075761452317">
        <ele>1655.0500489999999</ele>
        <time>2017-06-17T10:19:59Z</time>
      </trkpt>
      <trkpt lat="41.807672129943967" lon="13.739961599931121">
        <ele>1652.160034</ele>
        <time>2017-06-17T10:20:12Z</time>
      </trkpt>
      <trkpt lat="41.807666681706905" lon="13.739901669323444">
        <ele>1651.1999510000001</ele>
        <time>2017-06-17T10:20:17Z</time>
      </trkpt>
      <trkpt lat="41.807662071660161" lon="13.739829836413264">
        <ele>1650.719971</ele>
        <time>2017-06-17T10:20:21Z</time>
      </trkpt>
      <trkpt lat="41.807639691978693" lon="13.739665383473039">
        <ele>1649.76001</ele>
        <time>2017-06-17T10:20:35Z</time>
      </trkpt>
      <trkpt lat="41.807657796889544" lon="13.739606123417616">
        <ele>1649.76001</ele>
        <time>2017-06-17T10:21:08Z</time>
      </trkpt>
      <trkpt lat="41.807661484926939" lon="13.739623809233308">
        <ele>1649.76001</ele>
        <time>2017-06-17T10:21:50Z</time>
      </trkpt>
      <trkpt lat="41.807641284540296" lon="13.739622216671705">
        <ele>1649.76001</ele>
        <time>2017-06-17T10:22:27Z</time>
      </trkpt>
      <trkpt lat="41.807647068053484" lon="13.739594137296081">
        <ele>1650.23999</ele>
        <time>2017-06-17T10:23:05Z</time>
      </trkpt>
      <trkpt lat="41.807619072496891" lon="13.739674435928464">
        <ele>1650.719971</ele>
        <time>2017-06-17T10:23:30Z</time>
      </trkpt>
      <trkpt lat="41.807607840746641" lon="13.739644763991237">
        <ele>1650.719971</ele>
        <time>2017-06-17T10:23:57Z</time>
      </trkpt>
      <trkpt lat="41.807614713907242" lon="13.739677369594574">
        <ele>1650.23999</ele>
        <time>2017-06-17T10:24:32Z</time>
      </trkpt>
      <trkpt lat="41.807552436366677" lon="13.739667562767863">
        <ele>1650.719971</ele>
        <time>2017-06-17T10:25:07Z</time>
      </trkpt>
      <trkpt lat="41.807582275941968" lon="13.739650882780552">
        <ele>1650.719971</ele>
        <time>2017-06-17T10:25:27Z</time>
      </trkpt>
      <trkpt lat="41.807609936222434" lon="13.739570919424295">
        <ele>1651.1999510000001</ele>
        <time>2017-06-17T10:26:07Z</time>
      </trkpt>
      <trkpt lat="41.807614797726274" lon="13.739594137296081">
        <ele>1651.1999510000001</ele>
        <time>2017-06-17T10:26:29Z</time>
      </trkpt>
      <trkpt lat="41.807580264285207" lon="13.739587515592575">
        <ele>1651.679932</ele>
        <time>2017-06-17T10:26:57Z</time>
      </trkpt>
      <trkpt lat="41.807597614824772" lon="13.739616433158517">
        <ele>1652.160034</ele>
        <time>2017-06-17T10:27:40Z</time>
      </trkpt>
      <trkpt lat="41.807570038363338" lon="13.739710561931133">
        <ele>1651.679932</ele>
        <time>2017-06-17T10:27:59Z</time>
      </trkpt>
      <trkpt lat="41.80754816159606" lon="13.739795638248324">
        <ele>1649.76001</ele>
        <time>2017-06-17T10:28:11Z</time>
      </trkpt>
      <trkpt lat="41.807522680610418" lon="13.739996803924441">
        <ele>1647.360107</ele>
        <time>2017-06-17T10:28:26Z</time>
      </trkpt>
      <trkpt lat="41.807491835206747" lon="13.740091938525438">
        <ele>1646.8798830000001</ele>
        <time>2017-06-17T10:28:33Z</time>
      </trkpt>
      <trkpt lat="41.807469958439469" lon="13.740105265751481">
        <ele>1645.4300539999999</ele>
        <time>2017-06-17T10:28:35Z</time>
      </trkpt>
      <trkpt lat="41.807440873235464" lon="13.74002362601459">
        <ele>1643.98999</ele>
        <time>2017-06-17T10:28:48Z</time>
      </trkpt>
      <trkpt lat="41.807387815788388" lon="13.739832518622279">
        <ele>1641.1099850000001</ele>
        <time>2017-06-17T10:29:01Z</time>
      </trkpt>
      <trkpt lat="41.807370465248823" lon="13.739823885262012">
        <ele>1640.1499020000001</ele>
        <time>2017-06-17T10:29:04Z</time>
      </trkpt>
      <trkpt lat="41.807329058647156" lon="13.74001532793045">
        <ele>1637.73999</ele>
        <time>2017-06-17T10:29:19Z</time>
      </trkpt>
      <trkpt lat="41.807267284020782" lon="13.740173997357488">
        <ele>1634.380005</ele>
        <time>2017-06-17T10:29:32Z</time>
      </trkpt>
      <trkpt lat="41.807164689525962" lon="13.740199981257319">
        <ele>1631.01001</ele>
        <time>2017-06-17T10:29:43Z</time>
      </trkpt>
      <trkpt lat="41.807150607928634" lon="13.740072995424271">
        <ele>1629.570068</ele>
        <time>2017-06-17T10:29:53Z</time>
      </trkpt>
      <trkpt lat="41.807127809152007" lon="13.740005269646645">
        <ele>1627.170044</ele>
        <time>2017-06-17T10:30:08Z</time>
      </trkpt>
      <trkpt lat="41.807097885757685" lon="13.740117168053985">
        <ele>1625.25</ele>
        <time>2017-06-17T10:30:20Z</time>
      </trkpt>
      <trkpt lat="41.807053377851844" lon="13.740162262693048">
        <ele>1625.25</ele>
        <time>2017-06-17T10:30:53Z</time>
      </trkpt>
      <trkpt lat="41.807044576853514" lon="13.740211464464664">
        <ele>1623.799927</ele>
        <time>2017-06-17T10:31:08Z</time>
      </trkpt>
      <trkpt lat="41.806974420323968" lon="13.740187240764499">
        <ele>1621.400024</ele>
        <time>2017-06-17T10:31:21Z</time>
      </trkpt>
      <trkpt lat="41.806939467787743" lon="13.740143068134785">
        <ele>1619</ele>
        <time>2017-06-17T10:31:30Z</time>
      </trkpt>
      <trkpt lat="41.806872580200434" lon="13.740295534953475">
        <ele>1616.1099850000001</ele>
        <time>2017-06-17T10:31:45Z</time>
      </trkpt>
      <trkpt lat="41.806827569380403" lon="13.740385305136442">
        <ele>1612.7498780000001</ele>
        <time>2017-06-17T10:31:56Z</time>
      </trkpt>
      <trkpt lat="41.806746600195765" lon="13.740436602383852">
        <ele>1610.349976</ele>
        <time>2017-06-17T10:32:08Z</time>
      </trkpt>
      <trkpt lat="41.806702092289925" lon="13.74048437923193">
        <ele>1606.9799800000001</ele>
        <time>2017-06-17T10:32:16Z</time>
      </trkpt>
      <trkpt lat="41.806637132540345" lon="13.740520337596536">
        <ele>1603.6201169999999</ele>
        <time>2017-06-17T10:32:25Z</time>
      </trkpt>
      <trkpt lat="41.806588685140014" lon="13.740622093901038">
        <ele>1602.170044</ele>
        <time>2017-06-17T10:32:35Z</time>
      </trkpt>
      <trkpt lat="41.806513080373406" lon="13.740811860188842">
        <ele>1598.329956</ele>
        <time>2017-06-17T10:32:49Z</time>
      </trkpt>
      <trkpt lat="41.806483073160052" lon="13.740897104144096">
        <ele>1595.4499510000001</ele>
        <time>2017-06-17T10:32:58Z</time>
      </trkpt>
      <trkpt lat="41.806471422314644" lon="13.741019479930401">
        <ele>1592.5600589999999</ele>
        <time>2017-06-17T10:33:09Z</time>
      </trkpt>
      <trkpt lat="41.806463040411472" lon="13.741026436910033">
        <ele>1592.5600589999999</ele>
        <time>2017-06-17T10:33:10Z</time>
      </trkpt>
      <trkpt lat="41.806444013491273" lon="13.741022413596511">
        <ele>1592.079956</ele>
        <time>2017-06-17T10:33:12Z</time>
      </trkpt>
      <trkpt lat="41.806401014328003" lon="13.740998525172472">
        <ele>1591.119995</ele>
        <time>2017-06-17T10:33:16Z</time>
      </trkpt>
      <trkpt lat="41.806361870840192" lon="13.74096130952239">
        <ele>1590.6400149999999</ele>
        <time>2017-06-17T10:33:20Z</time>
      </trkpt>
      <trkpt lat="41.806291798129678" lon="13.740923004224896">
        <ele>1587.7498780000001</ele>
        <time>2017-06-17T10:33:29Z</time>
      </trkpt>
      <trkpt lat="41.806253241375089" lon="13.740993915125728">
        <ele>1584.869995</ele>
        <time>2017-06-17T10:33:41Z</time>
      </trkpt>
      <trkpt lat="41.80624351836741" lon="13.74098913744092">
        <ele>1584.3900149999999</ele>
        <time>2017-06-17T10:33:42Z</time>
      </trkpt>
      <trkpt lat="41.806218205019832" lon="13.741000620648265">
        <ele>1582.9499510000001</ele>
        <time>2017-06-17T10:33:48Z</time>
      </trkpt>
      <trkpt lat="41.806194316595793" lon="13.741044541820884">
        <ele>1581.51001</ele>
        <time>2017-06-17T10:33:54Z</time>
      </trkpt>
      <trkpt lat="41.806102870032191" lon="13.740957789123058">
        <ele>1578.6201169999999</ele>
        <time>2017-06-17T10:34:05Z</time>
      </trkpt>
      <trkpt lat="41.806043777614832" lon="13.74094907194376">
        <ele>1575.73999</ele>
        <time>2017-06-17T10:34:17Z</time>
      </trkpt>
      <trkpt lat="41.806034641340375" lon="13.740973966196179">
        <ele>1574.3000489999999</ele>
        <time>2017-06-17T10:34:20Z</time>
      </trkpt>
      <trkpt lat="41.806040927767754" lon="13.741117212921381">
        <ele>1571.4099120000001</ele>
        <time>2017-06-17T10:34:32Z</time>
      </trkpt>
      <trkpt lat="41.806038832291961" lon="13.741142693907022">
        <ele>1570.4499510000001</ele>
        <time>2017-06-17T10:34:34Z</time>
      </trkpt>
      <trkpt lat="41.806005472317338" lon="13.74115526676178">
        <ele>1569.969971</ele>
        <time>2017-06-17T10:34:37Z</time>
      </trkpt>
      <trkpt lat="41.805912684649229" lon="13.741116961464286">
        <ele>1566.6099850000001</ele>
        <time>2017-06-17T10:34:48Z</time>
      </trkpt>
      <trkpt lat="41.805912936106324" lon="13.741131881251931">
        <ele>1567.0900879999999</ele>
        <time>2017-06-17T10:34:50Z</time>
      </trkpt>
      <trkpt lat="41.805880665779114" lon="13.741153674200177">
        <ele>1565.160034</ele>
        <time>2017-06-17T10:34:57Z</time>
      </trkpt>
      <trkpt lat="41.805825177580118" lon="13.741073040291667">
        <ele>1563.719971</ele>
        <time>2017-06-17T10:35:05Z</time>
      </trkpt>
      <trkpt lat="41.805812772363424" lon="13.741025514900684">
        <ele>1563.719971</ele>
        <time>2017-06-17T10:35:08Z</time>
      </trkpt>
      <trkpt lat="41.805794918909669" lon="13.74095200560987">
        <ele>1562.2799070000001</ele>
        <time>2017-06-17T10:35:14Z</time>
      </trkpt>
      <trkpt lat="41.805745298042893" lon="13.740934068337083">
        <ele>1561.3199460000001</ele>
        <time>2017-06-17T10:35:19Z</time>
      </trkpt>
      <trkpt lat="41.805722583085299" lon="13.74102140776813">
        <ele>1559.3999020000001</ele>
        <time>2017-06-17T10:35:27Z</time>
      </trkpt>
      <trkpt lat="41.805679416283965" lon="13.741105394437909">
        <ele>1556.51001</ele>
        <time>2017-06-17T10:35:39Z</time>
      </trkpt>
      <trkpt lat="41.805653180927038" lon="13.741181837394834">
        <ele>1554.1099850000001</ele>
        <time>2017-06-17T10:35:47Z</time>
      </trkpt>
      <trkpt lat="41.805585119873285" lon="13.741166582331061">
        <ele>1552.1899410000001</ele>
        <time>2017-06-17T10:35:57Z</time>
      </trkpt>
      <trkpt lat="41.805530386045575" lon="13.741205893456936">
        <ele>1549.3000489999999</ele>
        <time>2017-06-17T10:36:09Z</time>
      </trkpt>
      <trkpt lat="41.805514711886644" lon="13.741264399141073">
        <ele>1546.900024</ele>
        <time>2017-06-17T10:36:20Z</time>
      </trkpt>
      <trkpt lat="41.805488811805844" lon="13.741274541243911">
        <ele>1545.459961</ele>
        <time>2017-06-17T10:36:24Z</time>
      </trkpt>
      <trkpt lat="41.8054358381778" lon="13.741287365555763">
        <ele>1543.0500489999999</ele>
        <time>2017-06-17T10:36:37Z</time>
      </trkpt>
      <trkpt lat="41.805396527051926" lon="13.741317875683308">
        <ele>1541.130005</ele>
        <time>2017-06-17T10:36:49Z</time>
      </trkpt>
      <trkpt lat="41.805325280874968" lon="13.741249730810523">
        <ele>1538.25</ele>
        <time>2017-06-17T10:37:01Z</time>
      </trkpt>
      <trkpt lat="41.805271385237575" lon="13.741238079965115">
        <ele>1535.360107</ele>
        <time>2017-06-17T10:37:12Z</time>
      </trkpt>
      <trkpt lat="41.80522670969367" lon="13.741285437718034">
        <ele>1532.9600829999999</ele>
        <time>2017-06-17T10:37:26Z</time>
      </trkpt>
      <trkpt lat="41.805210281163454" lon="13.741285605356097">
        <ele>1532</ele>
        <time>2017-06-17T10:37:28Z</time>
      </trkpt>
      <trkpt lat="41.80513970553875" lon="13.741296920925379">
        <ele>1529.1099850000001</ele>
        <time>2017-06-17T10:37:37Z</time>
      </trkpt>
      <trkpt lat="41.805122522637248" lon="13.741282671689987">
        <ele>1528.630005</ele>
        <time>2017-06-17T10:37:39Z</time>
      </trkpt>
      <trkpt lat="41.805072315037251" lon="13.741231625899673">
        <ele>1526.709961</ele>
        <time>2017-06-17T10:37:50Z</time>
      </trkpt>
      <trkpt lat="41.805006600916386" lon="13.741342686116695">
        <ele>1524.3100589999999</ele>
        <time>2017-06-17T10:38:05Z</time>
      </trkpt>
      <trkpt lat="41.804925631731749" lon="13.741260375827551">
        <ele>1520.9399410000001</ele>
        <time>2017-06-17T10:38:19Z</time>
      </trkpt>
      <trkpt lat="41.804824965074658" lon="13.741280660033226">
        <ele>1519.5</ele>
        <time>2017-06-17T10:38:31Z</time>
      </trkpt>
      <trkpt lat="41.804737709462643" lon="13.74130236916244">
        <ele>1519.5</ele>
        <time>2017-06-17T10:38:48Z</time>
      </trkpt>
      <trkpt lat="41.804701332002878" lon="13.741327095776796">
        <ele>1518.5399170000001</ele>
        <time>2017-06-17T10:38:51Z</time>
      </trkpt>
      <trkpt lat="41.804630840197206" lon="13.74134536832571">
        <ele>1517.579956</ele>
        <time>2017-06-17T10:38:57Z</time>
      </trkpt>
      <trkpt lat="41.8045948818326" lon="13.741402616724372">
        <ele>1516.139893</ele>
        <time>2017-06-17T10:39:04Z</time>
      </trkpt>
      <trkpt lat="41.804553139954805" lon="13.741429690271616">
        <ele>1515.1800539999999</ele>
        <time>2017-06-17T10:39:09Z</time>
      </trkpt>
      <trkpt lat="41.804477535188198" lon="13.741562878713012">
        <ele>1513.7299800000001</ele>
        <time>2017-06-17T10:39:21Z</time>
      </trkpt>
      <trkpt lat="41.804478708654642" lon="13.741568578407168">
        <ele>1513.25</ele>
        <time>2017-06-17T10:39:30Z</time>
      </trkpt>
      <trkpt lat="41.804456077516079" lon="13.741625407710671">
        <ele>1512.290039</ele>
        <time>2017-06-17T10:39:35Z</time>
      </trkpt>
      <trkpt lat="41.804336635395885" lon="13.741780975833535">
        <ele>1510.849976</ele>
        <time>2017-06-17T10:39:50Z</time>
      </trkpt>
      <trkpt lat="41.804282991215587" lon="13.741823639720678">
        <ele>1510.369995</ele>
        <time>2017-06-17T10:39:54Z</time>
      </trkpt>
      <trkpt lat="41.804096577689052" lon="13.742012400180101">
        <ele>1508.929932</ele>
        <time>2017-06-17T10:40:14Z</time>
      </trkpt>
      <trkpt lat="41.803940674290061" lon="13.742195880040526">
        <ele>1507.969971</ele>
        <time>2017-06-17T10:40:31Z</time>
      </trkpt>
      <trkpt lat="41.80393916554749" lon="13.742204764857888">
        <ele>1507.969971</ele>
        <time>2017-06-17T10:40:32Z</time>
      </trkpt>
      <trkpt lat="41.803909409791231" lon="13.742466364055872">
        <ele>1506.5200199999999</ele>
        <time>2017-06-17T10:40:49Z</time>
      </trkpt>
      <trkpt lat="41.803907733410597" lon="13.742553200572729">
        <ele>1506.040039</ele>
        <time>2017-06-17T10:40:58Z</time>
      </trkpt>
      <trkpt lat="41.803891137242317" lon="13.742825863882899">
        <ele>1504.119995</ele>
        <time>2017-06-17T10:41:15Z</time>
      </trkpt>
      <trkpt lat="41.803834475576878" lon="13.743038596585393">
        <ele>1501.719971</ele>
        <time>2017-06-17T10:41:28Z</time>
      </trkpt>
      <trkpt lat="41.803794661536813" lon="13.74320606701076">
        <ele>1498.3500979999999</ele>
        <time>2017-06-17T10:41:42Z</time>
      </trkpt>
      <trkpt lat="41.803758786991239" lon="13.743336237967014">
        <ele>1495.469971</ele>
        <time>2017-06-17T10:41:54Z</time>
      </trkpt>
      <trkpt lat="41.803755601868033" lon="13.743350319564342">
        <ele>1494.98999</ele>
        <time>2017-06-17T10:41:55Z</time>
      </trkpt>
      <trkpt lat="41.803734563291073" lon="13.743444113060832">
        <ele>1493.5500489999999</ele>
        <time>2017-06-17T10:42:01Z</time>
      </trkpt>
      <trkpt lat="41.8036899715662" lon="13.743548635393381">
        <ele>1492.099976</ele>
        <time>2017-06-17T10:42:10Z</time>
      </trkpt>
      <trkpt lat="41.80366306565702" lon="13.743815179914236">
        <ele>1488.26001</ele>
        <time>2017-06-17T10:42:25Z</time>
      </trkpt>
      <trkpt lat="41.803619563579559" lon="13.744018189609051">
        <ele>1485.369995</ele>
        <time>2017-06-17T10:42:39Z</time>
      </trkpt>
      <trkpt lat="41.803586371243" lon="13.744199071079493">
        <ele>1482.48999</ele>
        <time>2017-06-17T10:42:55Z</time>
      </trkpt>
      <trkpt lat="41.803561979904771" lon="13.744263863191009">
        <ele>1481.0500489999999</ele>
        <time>2017-06-17T10:43:01Z</time>
      </trkpt>
      <trkpt lat="41.80355116724968" lon="13.744452372193336">
        <ele>1477.6800539999999</ele>
        <time>2017-06-17T10:43:15Z</time>
      </trkpt>
      <trkpt lat="41.803548820316792" lon="13.744571730494499">
        <ele>1476.23999</ele>
        <time>2017-06-17T10:43:23Z</time>
      </trkpt>
      <trkpt lat="41.803515963256359" lon="13.7447305675596">
        <ele>1472.8801269999999</ele>
        <time>2017-06-17T10:43:36Z</time>
      </trkpt>
      <trkpt lat="41.803514873608947" lon="13.744738278910518">
        <ele>1472.3999020000001</ele>
        <time>2017-06-17T10:43:37Z</time>
      </trkpt>
      <trkpt lat="41.803490482270718" lon="13.744790414348245">
        <ele>1471.919922</ele>
        <time>2017-06-17T10:43:41Z</time>
      </trkpt>
      <trkpt lat="41.803481932729483" lon="13.744817404076457">
        <ele>1471.919922</ele>
        <time>2017-06-17T10:43:43Z</time>
      </trkpt>
      <trkpt lat="41.803445219993591" lon="13.744933577254415">
        <ele>1468.5500489999999</ele>
        <time>2017-06-17T10:43:55Z</time>
      </trkpt>
      <trkpt lat="41.803431138396263" lon="13.744967272505164">
        <ele>1468.0699460000001</ele>
        <time>2017-06-17T10:43:59Z</time>
      </trkpt>
      <trkpt lat="41.803393336012959" lon="13.745121583342552">
        <ele>1464.2299800000001</ele>
        <time>2017-06-17T10:44:12Z</time>
      </trkpt>
      <trkpt lat="41.803363161161542" lon="13.745235409587622">
        <ele>1460.8599850000001</ele>
        <time>2017-06-17T10:44:24Z</time>
      </trkpt>
      <trkpt lat="41.803326280787587" lon="13.745377063751221">
        <ele>1457.5</ele>
        <time>2017-06-17T10:44:38Z</time>
      </trkpt>
      <trkpt lat="41.803321167826653" lon="13.745452500879765">
        <ele>1456.5299070000001</ele>
        <time>2017-06-17T10:44:45Z</time>
      </trkpt>
      <trkpt lat="41.803275737911463" lon="13.745565321296453">
        <ele>1454.6099850000001</ele>
        <time>2017-06-17T10:44:56Z</time>
      </trkpt>
      <trkpt lat="41.803186135366559" lon="13.745663138106465">
        <ele>1450.7700199999999</ele>
        <time>2017-06-17T10:45:09Z</time>
      </trkpt>
      <trkpt lat="41.80311388336122" lon="13.745739664882421">
        <ele>1447.3999020000001</ele>
        <time>2017-06-17T10:45:21Z</time>
      </trkpt>
      <trkpt lat="41.803079517558217" lon="13.745788615196943">
        <ele>1446.440063</ele>
        <time>2017-06-17T10:45:26Z</time>
      </trkpt>
      <trkpt lat="41.803016234189272" lon="13.745823400095105">
        <ele>1444.5200199999999</ele>
        <time>2017-06-17T10:45:32Z</time>
      </trkpt>
      <trkpt lat="41.802959991618991" lon="13.745895987376571">
        <ele>1441.150024</ele>
        <time>2017-06-17T10:45:42Z</time>
      </trkpt>
      <trkpt lat="41.802944485098124" lon="13.74594091437757">
        <ele>1439.709961</ele>
        <time>2017-06-17T10:45:46Z</time>
      </trkpt>
      <trkpt lat="41.802901485934854" lon="13.746024062857032">
        <ele>1436.830078</ele>
        <time>2017-06-17T10:45:57Z</time>
      </trkpt>
      <trkpt lat="41.802881117910147" lon="13.746110312640667">
        <ele>1434.420044</ele>
        <time>2017-06-17T10:46:06Z</time>
      </trkpt>
      <trkpt lat="41.802891427651048" lon="13.746218858286738">
        <ele>1431.5399170000001</ele>
        <time>2017-06-17T10:46:16Z</time>
      </trkpt>
      <trkpt lat="41.802836274728179" lon="13.746403763070703">
        <ele>1428.179932</ele>
        <time>2017-06-17T10:46:28Z</time>
      </trkpt>
      <trkpt lat="41.802783468738198" lon="13.746544076129794">
        <ele>1426.7299800000001</ele>
        <time>2017-06-17T10:46:37Z</time>
      </trkpt>
      <trkpt lat="41.802670564502478" lon="13.74675152823329">
        <ele>1422.8900149999999</ele>
        <time>2017-06-17T10:46:53Z</time>
      </trkpt>
      <trkpt lat="41.802541231736541" lon="13.746928386390209">
        <ele>1420.48999</ele>
        <time>2017-06-17T10:47:08Z</time>
      </trkpt>
      <trkpt lat="41.802478870376945" lon="13.747044978663325">
        <ele>1418.080078</ele>
        <time>2017-06-17T10:47:21Z</time>
      </trkpt>
      <trkpt lat="41.802484402433038" lon="13.747049923986197">
        <ele>1418.080078</ele>
        <time>2017-06-17T10:47:46Z</time>
      </trkpt>
      <trkpt lat="41.802493538707495" lon="13.747035004198551">
        <ele>1418.080078</ele>
        <time>2017-06-17T10:48:07Z</time>
      </trkpt>
      <trkpt lat="41.802483564242721" lon="13.747047241777182">
        <ele>1419.040039</ele>
        <time>2017-06-17T10:48:14Z</time>
      </trkpt>
      <trkpt lat="41.802457412704825" lon="13.747082697227597">
        <ele>1418.080078</ele>
        <time>2017-06-17T10:48:17Z</time>
      </trkpt>
      <trkpt lat="41.802425058558583" lon="13.747150506824255">
        <ele>1417.119995</ele>
        <time>2017-06-17T10:48:23Z</time>
      </trkpt>
      <trkpt lat="41.802359763532877" lon="13.747402969747782">
        <ele>1414.23999</ele>
        <time>2017-06-17T10:48:39Z</time>
      </trkpt>
      <trkpt lat="41.80235113017261" lon="13.747643027454615">
        <ele>1410.869995</ele>
        <time>2017-06-17T10:48:54Z</time>
      </trkpt>
      <trkpt lat="41.80235012434423" lon="13.747825920581818">
        <ele>1407.98999</ele>
        <time>2017-06-17T10:49:08Z</time>
      </trkpt>
      <trkpt lat="41.802328415215015" lon="13.748043263331056">
        <ele>1404.619995</ele>
        <time>2017-06-17T10:49:22Z</time>
      </trkpt>
      <trkpt lat="41.802280219271779" lon="13.748261276632547">
        <ele>1401.7398679999999</ele>
        <time>2017-06-17T10:49:37Z</time>
      </trkpt>
      <trkpt lat="41.802251134067774" lon="13.748526480048895">
        <ele>1398.8599850000001</ele>
        <time>2017-06-17T10:49:52Z</time>
      </trkpt>
      <trkpt lat="41.802221965044737" lon="13.748740134760737">
        <ele>1395.48999</ele>
        <time>2017-06-17T10:50:07Z</time>
      </trkpt>
      <trkpt lat="41.802230263128877" lon="13.748948173597455">
        <ele>1394.049927</ele>
        <time>2017-06-17T10:50:21Z</time>
      </trkpt>
      <trkpt lat="41.802239064127207" lon="13.749024616554379">
        <ele>1393.570068</ele>
        <time>2017-06-17T10:50:26Z</time>
      </trkpt>
      <trkpt lat="41.802267981693149" lon="13.749258723109961">
        <ele>1390.6800539999999</ele>
        <time>2017-06-17T10:50:42Z</time>
      </trkpt>
      <trkpt lat="41.802271166816354" lon="13.749313876032829">
        <ele>1389.719971</ele>
        <time>2017-06-17T10:50:45Z</time>
      </trkpt>
      <trkpt lat="41.802268316969275" lon="13.749522166326642">
        <ele>1387.3199460000001</ele>
        <time>2017-06-17T10:50:57Z</time>
      </trkpt>
      <trkpt lat="41.80225825868547" lon="13.749719811603427">
        <ele>1384.4399410000001</ele>
        <time>2017-06-17T10:51:10Z</time>
      </trkpt>
      <trkpt lat="41.802253481000662" lon="13.749886360019445">
        <ele>1381.5500489999999</ele>
        <time>2017-06-17T10:51:25Z</time>
      </trkpt>
      <trkpt lat="41.802244680002332" lon="13.749932711943984">
        <ele>1380.589966</ele>
        <time>2017-06-17T10:51:28Z</time>
      </trkpt>
      <trkpt lat="41.802231185138226" lon="13.750000772997737">
        <ele>1380.1099850000001</ele>
        <time>2017-06-17T10:51:32Z</time>
      </trkpt>
      <trkpt lat="41.802211822941899" lon="13.750119293108582">
        <ele>1379.150024</ele>
        <time>2017-06-17T10:51:38Z</time>
      </trkpt>
      <trkpt lat="41.802205368876457" lon="13.750337390229106">
        <ele>1376.75</ele>
        <time>2017-06-17T10:51:52Z</time>
      </trkpt>
      <trkpt lat="41.802188772708178" lon="13.750547105446458">
        <ele>1375.3000489999999</ele>
        <time>2017-06-17T10:52:04Z</time>
      </trkpt>
      <trkpt lat="41.802216935902834" lon="13.750665541738272">
        <ele>1373.8599850000001</ele>
        <time>2017-06-17T10:52:11Z</time>
      </trkpt>
      <trkpt lat="41.802252223715186" lon="13.750829910859466">
        <ele>1370.5</ele>
        <time>2017-06-17T10:52:23Z</time>
      </trkpt>
      <trkpt lat="41.802256163209677" lon="13.750844495370984">
        <ele>1370.5</ele>
        <time>2017-06-17T10:52:24Z</time>
      </trkpt>
      <trkpt lat="41.802312070503831" lon="13.751056222245097">
        <ele>1367.610107</ele>
        <time>2017-06-17T10:52:38Z</time>
      </trkpt>
      <trkpt lat="41.80232816375792" lon="13.751134341582656">
        <ele>1367.130005</ele>
        <time>2017-06-17T10:52:45Z</time>
      </trkpt>
      <trkpt lat="41.80235892534256" lon="13.751215478405356">
        <ele>1366.170044</ele>
        <time>2017-06-17T10:52:50Z</time>
      </trkpt>
      <trkpt lat="41.802443414926529" lon="13.751464337110519">
        <ele>1363.290039</ele>
        <time>2017-06-17T10:53:07Z</time>
      </trkpt>
      <trkpt lat="41.802472583949566" lon="13.751534828916192">
        <ele>1362.8100589999999</ele>
        <time>2017-06-17T10:53:13Z</time>
      </trkpt>
      <trkpt lat="41.802607364952564" lon="13.75174923799932">
        <ele>1359.919922</ele>
        <time>2017-06-17T10:53:29Z</time>
      </trkpt>
      <trkpt lat="41.802693279460073" lon="13.751837331801653">
        <ele>1358.4801030000001</ele>
        <time>2017-06-17T10:53:43Z</time>
      </trkpt>
      <trkpt lat="41.802717335522175" lon="13.751886282116175">
        <ele>1357.9998780000001</ele>
        <time>2017-06-17T10:53:50Z</time>
      </trkpt>
      <trkpt lat="41.802720939740539" lon="13.751943614333868">
        <ele>1357.9998780000001</ele>
        <time>2017-06-17T10:53:53Z</time>
      </trkpt>
      <trkpt lat="41.802740637212992" lon="13.752098511904478">
        <ele>1356.080078</ele>
        <time>2017-06-17T10:54:05Z</time>
      </trkpt>
      <trkpt lat="41.802773494273424" lon="13.752178139984608">
        <ele>1353.669922</ele>
        <time>2017-06-17T10:54:14Z</time>
      </trkpt>
      <trkpt lat="41.802790174260736" lon="13.752202363684773">
        <ele>1352.709961</ele>
        <time>2017-06-17T10:54:16Z</time>
      </trkpt>
      <trkpt lat="41.802803669124842" lon="13.752232035622001">
        <ele>1352.709961</ele>
        <time>2017-06-17T10:54:18Z</time>
      </trkpt>
      <trkpt lat="41.802855720743537" lon="13.752310406416655">
        <ele>1351.2698969999999</ele>
        <time>2017-06-17T10:54:25Z</time>
      </trkpt>
      <trkpt lat="41.802882710471749" lon="13.752347873523831">
        <ele>1350.7899170000001</ele>
        <time>2017-06-17T10:54:28Z</time>
      </trkpt>
      <trkpt lat="41.802904168143868" lon="13.752509728074074">
        <ele>1348.3900149999999</ele>
        <time>2017-06-17T10:54:38Z</time>
      </trkpt>
      <trkpt lat="41.803007097914815" lon="13.752708127722144">
        <ele>1346.459961</ele>
        <time>2017-06-17T10:54:51Z</time>
      </trkpt>
      <trkpt lat="41.803087731823325" lon="13.752771494910121">
        <ele>1345.0200199999999</ele>
        <time>2017-06-17T10:54:59Z</time>
      </trkpt>
      <trkpt lat="41.803138358518481" lon="13.752831341698766">
        <ele>1344.540039</ele>
        <time>2017-06-17T10:55:03Z</time>
      </trkpt>
      <trkpt lat="41.803258638828993" lon="13.75297131948173">
        <ele>1343.099976</ele>
        <time>2017-06-17T10:55:16Z</time>
      </trkpt>
      <trkpt lat="41.803436670452356" lon="13.753110291436315">
        <ele>1340.6999510000001</ele>
        <time>2017-06-17T10:55:30Z</time>
      </trkpt>
      <trkpt lat="41.803450165316463" lon="13.753184722736478">
        <ele>1339.7299800000001</ele>
        <time>2017-06-17T10:55:34Z</time>
      </trkpt>
      <trkpt lat="41.803485369309783" lon="13.753253119066358">
        <ele>1339.25</ele>
        <time>2017-06-17T10:55:38Z</time>
      </trkpt>
      <trkpt lat="41.803594334051013" lon="13.753500217571855">
        <ele>1336.849976</ele>
        <time>2017-06-17T10:55:55Z</time>
      </trkpt>
      <trkpt lat="41.803610259667039" lon="13.75352687202394">
        <ele>1336.369995</ele>
        <time>2017-06-17T10:55:57Z</time>
      </trkpt>
      <trkpt lat="41.803735066205263" lon="13.753685541450977">
        <ele>1333.969971</ele>
        <time>2017-06-17T10:56:11Z</time>
      </trkpt>
      <trkpt lat="41.80387613363564" lon="13.753812108188868">
        <ele>1331.5600589999999</ele>
        <time>2017-06-17T10:56:25Z</time>
      </trkpt>
      <trkpt lat="41.80403103120625" lon="13.753908164799213">
        <ele>1330.119995</ele>
        <time>2017-06-17T10:56:38Z</time>
      </trkpt>
      <trkpt lat="41.804207470268011" lon="13.75397689640522">
        <ele>1327.719971</ele>
        <time>2017-06-17T10:56:52Z</time>
      </trkpt>
      <trkpt lat="41.804320374503732" lon="13.754130536690354">
        <ele>1326.76001</ele>
        <time>2017-06-17T10:57:04Z</time>
      </trkpt>
      <trkpt lat="41.80438918992877" lon="13.754234220832586">
        <ele>1326.280029</ele>
        <time>2017-06-17T10:57:11Z</time>
      </trkpt>
      <trkpt lat="41.804456831887364" lon="13.754384340718389">
        <ele>1324.830078</ele>
        <time>2017-06-17T10:57:24Z</time>
      </trkpt>
      <trkpt lat="41.804454317316413" lon="13.754400182515383">
        <ele>1324.830078</ele>
        <time>2017-06-17T10:57:30Z</time>
      </trkpt>
      <trkpt lat="41.804548781365156" lon="13.754560276865959">
        <ele>1321.4700929999999</ele>
        <time>2017-06-17T10:57:46Z</time>
      </trkpt>
      <trkpt lat="41.804636791348457" lon="13.754699416458607">
        <ele>1319.070068</ele>
        <time>2017-06-17T10:57:59Z</time>
      </trkpt>
      <trkpt lat="41.804716503247619" lon="13.754756664857268">
        <ele>1318.099976</ele>
        <time>2017-06-17T10:58:06Z</time>
      </trkpt>
      <trkpt lat="41.804861258715391" lon="13.754865126684308">
        <ele>1316.179932</ele>
        <time>2017-06-17T10:58:18Z</time>
      </trkpt>
      <trkpt lat="41.804975420236588" lon="13.755001332610846">
        <ele>1314.259888</ele>
        <time>2017-06-17T10:58:32Z</time>
      </trkpt>
      <trkpt lat="41.804985059425235" lon="13.755012480542064">
        <ele>1313.780029</ele>
        <time>2017-06-17T10:58:33Z</time>
      </trkpt>
      <trkpt lat="41.805067369714379" lon="13.755116835236549">
        <ele>1313.3000489999999</ele>
        <time>2017-06-17T10:58:40Z</time>
      </trkpt>
      <trkpt lat="41.805107267573476" lon="13.75519453547895">
        <ele>1312.3400879999999</ele>
        <time>2017-06-17T10:58:45Z</time>
      </trkpt>
      <trkpt lat="41.805169964209199" lon="13.755399221554399">
        <ele>1310.410034</ele>
        <time>2017-06-17T10:59:00Z</time>
      </trkpt>
      <trkpt lat="41.80528680793941" lon="13.755573984235525">
        <ele>1308.969971</ele>
        <time>2017-06-17T10:59:14Z</time>
      </trkpt>
      <trkpt lat="41.805458385497332" lon="13.755673309788108">
        <ele>1306.5699460000001</ele>
        <time>2017-06-17T10:59:29Z</time>
      </trkpt>
      <trkpt lat="41.805581096559763" lon="13.755885539576411">
        <ele>1304.650024</ele>
        <time>2017-06-17T10:59:44Z</time>
      </trkpt>
      <trkpt lat="41.805646559223533" lon="13.756030714139342">
        <ele>1303.1999510000001</ele>
        <time>2017-06-17T10:59:53Z</time>
      </trkpt>
      <trkpt lat="41.805692994967103" lon="13.756234226748347">
        <ele>1302.23999</ele>
        <time>2017-06-17T11:00:07Z</time>
      </trkpt>
      <trkpt lat="41.805727863684297" lon="13.756414437666535">
        <ele>1300.799927</ele>
        <time>2017-06-17T11:00:16Z</time>
      </trkpt>
      <trkpt lat="41.805767677724361" lon="13.756475290283561">
        <ele>1300.3199460000001</ele>
        <time>2017-06-17T11:00:23Z</time>
      </trkpt>
      <trkpt lat="41.805772874504328" lon="13.756489958614111">
        <ele>1299.839966</ele>
        <time>2017-06-17T11:00:24Z</time>
      </trkpt>
      <trkpt lat="41.805777316913009" lon="13.756506890058517">
        <ele>1299.839966</ele>
        <time>2017-06-17T11:00:25Z</time>
      </trkpt>
      <trkpt lat="41.805780837312341" lon="13.7565250787884">
        <ele>1299.839966</ele>
        <time>2017-06-17T11:00:26Z</time>
      </trkpt>
      <trkpt lat="41.805784441530704" lon="13.756545279175043">
        <ele>1299.839966</ele>
        <time>2017-06-17T11:00:27Z</time>
      </trkpt>
      <trkpt lat="41.805787878111005" lon="13.756566233932972">
        <ele>1299.839966</ele>
        <time>2017-06-17T11:00:28Z</time>
      </trkpt>
      <trkpt lat="41.805818304419518" lon="13.756752898916602">
        <ele>1297.919922</ele>
        <time>2017-06-17T11:00:40Z</time>
      </trkpt>
      <trkpt lat="41.805890137329698" lon="13.756990861147642">
        <ele>1296.959961</ele>
        <time>2017-06-17T11:00:54Z</time>
      </trkpt>
      <trkpt lat="41.805953001603484" lon="13.757255058735609">
        <ele>1295.030029</ele>
        <time>2017-06-17T11:01:10Z</time>
      </trkpt>
      <trkpt lat="41.80600656196475" lon="13.757397718727589">
        <ele>1294.070068</ele>
        <time>2017-06-17T11:01:25Z</time>
      </trkpt>
      <trkpt lat="41.806039586663246" lon="13.757444489747286">
        <ele>1293.589966</ele>
        <time>2017-06-17T11:01:38Z</time>
      </trkpt>
      <trkpt lat="41.806046962738037" lon="13.757456811144948">
        <ele>1293.589966</ele>
        <time>2017-06-17T11:01:39Z</time>
      </trkpt>
      <trkpt lat="41.806049477308989" lon="13.757475335150957">
        <ele>1293.1099850000001</ele>
        <time>2017-06-17T11:01:40Z</time>
      </trkpt>
      <trkpt lat="41.80604956112802" lon="13.757496373727918">
        <ele>1293.1099850000001</ele>
        <time>2017-06-17T11:01:41Z</time>
      </trkpt>
      <trkpt lat="41.806053500622511" lon="13.757510958239436">
        <ele>1293.1099850000001</ele>
        <time>2017-06-17T11:01:42Z</time>
      </trkpt>
      <trkpt lat="41.806061211973429" lon="13.757522022351623">
        <ele>1293.1099850000001</ele>
        <time>2017-06-17T11:01:43Z</time>
      </trkpt>
      <trkpt lat="41.806154837831855" lon="13.757705586031079">
        <ele>1291.670044</ele>
        <time>2017-06-17T11:01:55Z</time>
      </trkpt>
      <trkpt lat="41.806161794811487" lon="13.757722266018391">
        <ele>1291.670044</ele>
        <time>2017-06-17T11:01:56Z</time>
      </trkpt>
      <trkpt lat="41.806167159229517" lon="13.757744897156954">
        <ele>1291.670044</ele>
        <time>2017-06-17T11:01:57Z</time>
      </trkpt>
      <trkpt lat="41.806176714599133" lon="13.757768366485834">
        <ele>1291.1899410000001</ele>
        <time>2017-06-17T11:01:58Z</time>
      </trkpt>
      <trkpt lat="41.80618342012167" lon="13.757785381749272">
        <ele>1291.1899410000001</ele>
        <time>2017-06-17T11:01:59Z</time>
      </trkpt>
      <trkpt lat="41.806213762611151" lon="13.757866770029068">
        <ele>1290.709961</ele>
        <time>2017-06-17T11:02:04Z</time>
      </trkpt>
      <trkpt lat="41.806296240538359" lon="13.758074641227722">
        <ele>1288.780029</ele>
        <time>2017-06-17T11:02:17Z</time>
      </trkpt>
      <trkpt lat="41.806350219994783" lon="13.758206991478801">
        <ele>1287.820068</ele>
        <time>2017-06-17T11:02:24Z</time>
      </trkpt>
      <trkpt lat="41.806359020993114" lon="13.75822207890451">
        <ele>1287.820068</ele>
        <time>2017-06-17T11:02:25Z</time>
      </trkpt>
      <trkpt lat="41.806416772305965" lon="13.758358871564269">
        <ele>1286.380005</ele>
        <time>2017-06-17T11:02:35Z</time>
      </trkpt>
      <trkpt lat="41.806542165577412" lon="13.758542686700821">
        <ele>1284.459961</ele>
        <time>2017-06-17T11:02:49Z</time>
      </trkpt>
      <trkpt lat="41.806562533602118" lon="13.758577974513173">
        <ele>1283.9799800000001</ele>
        <time>2017-06-17T11:02:52Z</time>
      </trkpt>
      <trkpt lat="41.806678287684917" lon="13.758800094947219">
        <ele>1282.059937</ele>
        <time>2017-06-17T11:03:07Z</time>
      </trkpt>
      <trkpt lat="41.806789431720972" lon="13.758992962539196">
        <ele>1280.610107</ele>
        <time>2017-06-17T11:03:21Z</time>
      </trkpt>
      <trkpt lat="41.806806111708283" lon="13.759044762700796">
        <ele>1280.610107</ele>
        <time>2017-06-17T11:03:25Z</time>
      </trkpt>
      <trkpt lat="41.806973917409778" lon="13.759308038279414">
        <ele>1277.7299800000001</ele>
        <time>2017-06-17T11:03:44Z</time>
      </trkpt>
      <trkpt lat="41.807091515511274" lon="13.759506437927485">
        <ele>1276.290039</ele>
        <time>2017-06-17T11:03:59Z</time>
      </trkpt>
      <trkpt lat="41.807119594886899" lon="13.759547341614962">
        <ele>1275.8100589999999</ele>
        <time>2017-06-17T11:04:03Z</time>
      </trkpt>
      <trkpt lat="41.807129485532641" lon="13.75955949537456">
        <ele>1275.8100589999999</ele>
        <time>2017-06-17T11:04:04Z</time>
      </trkpt>
      <trkpt lat="41.80725353769958" lon="13.759722439572215">
        <ele>1274.3599850000001</ele>
        <time>2017-06-17T11:04:17Z</time>
      </trkpt>
      <trkpt lat="41.807360826060176" lon="13.759915390983224">
        <ele>1272.4399410000001</ele>
        <time>2017-06-17T11:04:32Z</time>
      </trkpt>
      <trkpt lat="41.807389240711927" lon="13.759967526420951">
        <ele>1271.959961</ele>
        <time>2017-06-17T11:04:36Z</time>
      </trkpt>
      <trkpt lat="41.807455541566014" lon="13.760144300758839">
        <ele>1270.5198969999999</ele>
        <time>2017-06-17T11:04:49Z</time>
      </trkpt>
      <trkpt lat="41.807476663962007" lon="13.760193167254329">
        <ele>1270.5198969999999</ele>
        <time>2017-06-17T11:04:54Z</time>
      </trkpt>
      <trkpt lat="41.807485716417432" lon="13.760205572471023">
        <ele>1270.040039</ele>
        <time>2017-06-17T11:04:55Z</time>
      </trkpt>
      <trkpt lat="41.807494014501572" lon="13.76021621748805">
        <ele>1270.040039</ele>
        <time>2017-06-17T11:04:56Z</time>
      </trkpt>
      <trkpt lat="41.807502396404743" lon="13.760228790342808">
        <ele>1270.040039</ele>
        <time>2017-06-17T11:04:57Z</time>
      </trkpt>
      <trkpt lat="41.80751102976501" lon="13.760241279378533">
        <ele>1270.040039</ele>
        <time>2017-06-17T11:04:58Z</time>
      </trkpt>
      <trkpt lat="41.807518908753991" lon="13.760252762585878">
        <ele>1270.040039</ele>
        <time>2017-06-17T11:04:59Z</time>
      </trkpt>
      <trkpt lat="41.807609098032117" lon="13.760457364842296">
        <ele>1268.6000979999999</ele>
        <time>2017-06-17T11:05:13Z</time>
      </trkpt>
      <trkpt lat="41.807689899578691" lon="13.7606281042099">
        <ele>1267.6400149999999</ele>
        <time>2017-06-17T11:05:25Z</time>
      </trkpt>
      <trkpt lat="41.807772880420089" lon="13.760758358985186">
        <ele>1266.1899410000001</ele>
        <time>2017-06-17T11:05:36Z</time>
      </trkpt>
      <trkpt lat="41.807781681418419" lon="13.76077520661056">
        <ele>1266.1899410000001</ele>
        <time>2017-06-17T11:05:37Z</time>
      </trkpt>
      <trkpt lat="41.807788973674178" lon="13.760790461674333">
        <ele>1266.1899410000001</ele>
        <time>2017-06-17T11:05:38Z</time>
      </trkpt>
      <trkpt lat="41.807887377217412" lon="13.761002104729414">
        <ele>1264.2700199999999</ele>
        <time>2017-06-17T11:05:53Z</time>
      </trkpt>
      <trkpt lat="41.807989971712232" lon="13.761189691722393">
        <ele>1262.829956</ele>
        <time>2017-06-17T11:06:07Z</time>
      </trkpt>
      <trkpt lat="41.808005226776004" lon="13.761224141344428">
        <ele>1262.349976</ele>
        <time>2017-06-17T11:06:09Z</time>
      </trkpt>
      <trkpt lat="41.808089883998036" lon="13.761431509628892">
        <ele>1260.910034</ele>
        <time>2017-06-17T11:06:23Z</time>
      </trkpt>
      <trkpt lat="41.80819951929152" lon="13.761595459654927">
        <ele>1259.940063</ele>
        <time>2017-06-17T11:06:37Z</time>
      </trkpt>
      <trkpt lat="41.808217037469149" lon="13.7616434879601">
        <ele>1259.459961</ele>
        <time>2017-06-17T11:06:40Z</time>
      </trkpt>
      <trkpt lat="41.808235980570316" lon="13.761831074953079">
        <ele>1258.9799800000001</ele>
        <time>2017-06-17T11:06:52Z</time>
      </trkpt>
      <trkpt lat="41.808233465999365" lon="13.761969795450568">
        <ele>1258.0200199999999</ele>
        <time>2017-06-17T11:07:01Z</time>
      </trkpt>
      <trkpt lat="41.808235058560967" lon="13.761988822370768">
        <ele>1258.0200199999999</ele>
        <time>2017-06-17T11:07:02Z</time>
      </trkpt>
      <trkpt lat="41.808237740769982" lon="13.762006675824523">
        <ele>1257.540039</ele>
        <time>2017-06-17T11:07:03Z</time>
      </trkpt>
      <trkpt lat="41.808239165693521" lon="13.762023439630866">
        <ele>1257.540039</ele>
        <time>2017-06-17T11:07:04Z</time>
      </trkpt>
      <trkpt lat="41.808239165693521" lon="13.762038359418511">
        <ele>1257.059937</ele>
        <time>2017-06-17T11:07:05Z</time>
      </trkpt>
      <trkpt lat="41.808241596445441" lon="13.762053782120347">
        <ele>1257.059937</ele>
        <time>2017-06-17T11:07:06Z</time>
      </trkpt>
      <trkpt lat="41.808244781568646" lon="13.762070462107658">
        <ele>1257.059937</ele>
        <time>2017-06-17T11:07:07Z</time>
      </trkpt>
      <trkpt lat="41.808245703577995" lon="13.762088734656572">
        <ele>1256.579956</ele>
        <time>2017-06-17T11:07:08Z</time>
      </trkpt>
      <trkpt lat="41.808245535939932" lon="13.762106085196137">
        <ele>1256.579956</ele>
        <time>2017-06-17T11:07:09Z</time>
      </trkpt>
      <trkpt lat="41.808246709406376" lon="13.762121759355068">
        <ele>1256.579956</ele>
        <time>2017-06-17T11:07:10Z</time>
      </trkpt>
      <trkpt lat="41.808264898136258" lon="13.762384029105306">
        <ele>1254.6599120000001</ele>
        <time>2017-06-17T11:07:25Z</time>
      </trkpt>
      <trkpt lat="41.808308232575655" lon="13.762676641345024">
        <ele>1253.219971</ele>
        <time>2017-06-17T11:07:42Z</time>
      </trkpt>
      <trkpt lat="41.808305298909545" lon="13.762693740427494">
        <ele>1253.219971</ele>
        <time>2017-06-17T11:07:43Z</time>
      </trkpt>
      <trkpt lat="41.808304879814386" lon="13.762711258605123">
        <ele>1253.219971</ele>
        <time>2017-06-17T11:07:44Z</time>
      </trkpt>
      <trkpt lat="41.808284763246775" lon="13.762965900823474">
        <ele>1251.7700199999999</ele>
        <time>2017-06-17T11:07:59Z</time>
      </trkpt>
      <trkpt lat="41.808265903964639" lon="13.763202438130975">
        <ele>1250.329956</ele>
        <time>2017-06-17T11:08:13Z</time>
      </trkpt>
      <trkpt lat="41.808268167078495" lon="13.763253735378385">
        <ele>1249.369995</ele>
        <time>2017-06-17T11:08:17Z</time>
      </trkpt>
      <trkpt lat="41.808264562860131" lon="13.763273265212774">
        <ele>1249.369995</ele>
        <time>2017-06-17T11:08:18Z</time>
      </trkpt>
      <trkpt lat="41.808261964470148" lon="13.763294639065862">
        <ele>1249.369995</ele>
        <time>2017-06-17T11:08:19Z</time>
      </trkpt>
      <trkpt lat="41.808257438242435" lon="13.763315510004759">
        <ele>1249.369995</ele>
        <time>2017-06-17T11:08:20Z</time>
      </trkpt>
      <trkpt lat="41.808252995833755" lon="13.763332441449165">
        <ele>1249.369995</ele>
        <time>2017-06-17T11:08:21Z</time>
      </trkpt>
      <trkpt lat="41.808254504576325" lon="13.763348702341318">
        <ele>1248.8900149999999</ele>
        <time>2017-06-17T11:08:22Z</time>
      </trkpt>
      <trkpt lat="41.808256935328245" lon="13.763366136699915">
        <ele>1248.8900149999999</ele>
        <time>2017-06-17T11:08:23Z</time>
      </trkpt>
      <trkpt lat="41.808258695527911" lon="13.76348021440208">
        <ele>1248.410034</ele>
        <time>2017-06-17T11:08:36Z</time>
      </trkpt>
      <trkpt lat="41.808263137936592" lon="13.763573840260506">
        <ele>1247.450073</ele>
        <time>2017-06-17T11:08:50Z</time>
      </trkpt>
      <trkpt lat="41.808255678042769" lon="13.763621784746647">
        <ele>1246.969971</ele>
        <time>2017-06-17T11:09:06Z</time>
      </trkpt>
      <trkpt lat="41.808244362473488" lon="13.763673836365342">
        <ele>1246.969971</ele>
        <time>2017-06-17T11:09:09Z</time>
      </trkpt>
      <trkpt lat="41.808236483484507" lon="13.763693869113922">
        <ele>1246.969971</ele>
        <time>2017-06-17T11:09:10Z</time>
      </trkpt>
      <trkpt lat="41.80823128670454" lon="13.763709124177694">
        <ele>1246.48999</ele>
        <time>2017-06-17T11:09:11Z</time>
      </trkpt>
      <trkpt lat="41.808223491534591" lon="13.763732761144638">
        <ele>1246.48999</ele>
        <time>2017-06-17T11:09:12Z</time>
      </trkpt>
      <trkpt lat="41.808214019984007" lon="13.763758158311248">
        <ele>1246.48999</ele>
        <time>2017-06-17T11:09:13Z</time>
      </trkpt>
      <trkpt lat="41.808209661394358" lon="13.763774335384369">
        <ele>1246.48999</ele>
        <time>2017-06-17T11:09:14Z</time>
      </trkpt>
      <trkpt lat="41.808208404108882" lon="13.763790177181363">
        <ele>1246.48999</ele>
        <time>2017-06-17T11:09:15Z</time>
      </trkpt>
      <trkpt lat="41.808230532333255" lon="13.763985224068165">
        <ele>1245.040039</ele>
        <time>2017-06-17T11:09:27Z</time>
      </trkpt>
      <trkpt lat="41.808223072439432" lon="13.764005675911903">
        <ele>1245.040039</ele>
        <time>2017-06-17T11:09:28Z</time>
      </trkpt>
      <trkpt lat="41.808205638080835" lon="13.764181360602379">
        <ele>1244.079956</ele>
        <time>2017-06-17T11:09:39Z</time>
      </trkpt>
      <trkpt lat="41.808205218985677" lon="13.764195777475834">
        <ele>1244.079956</ele>
        <time>2017-06-17T11:09:40Z</time>
      </trkpt>
      <trkpt lat="41.80820781737566" lon="13.764209523797035">
        <ele>1244.079956</ele>
        <time>2017-06-17T11:09:41Z</time>
      </trkpt>
      <trkpt lat="41.80820588953793" lon="13.764290325343609">
        <ele>1243.119995</ele>
        <time>2017-06-17T11:09:48Z</time>
      </trkpt>
      <trkpt lat="41.808205638080835" lon="13.764305915683508">
        <ele>1243.119995</ele>
        <time>2017-06-17T11:09:49Z</time>
      </trkpt>
      <trkpt lat="41.80820538662374" lon="13.764323936775327">
        <ele>1243.119995</ele>
        <time>2017-06-17T11:09:50Z</time>
      </trkpt>
      <trkpt lat="41.808210331946611" lon="13.764399206265807">
        <ele>1243.119995</ele>
        <time>2017-06-17T11:09:54Z</time>
      </trkpt>
      <trkpt lat="41.808207398280501" lon="13.764420580118895">
        <ele>1243.119995</ele>
        <time>2017-06-17T11:09:55Z</time>
      </trkpt>
      <trkpt lat="41.808246541768312" lon="13.764598360285163">
        <ele>1241.679932</ele>
        <time>2017-06-17T11:10:07Z</time>
      </trkpt>
      <trkpt lat="41.808279315009713" lon="13.764848560094833">
        <ele>1240.719971</ele>
        <time>2017-06-17T11:10:20Z</time>
      </trkpt>
      <trkpt lat="41.808319715783" lon="13.765075793489814">
        <ele>1239.76001</ele>
        <time>2017-06-17T11:10:33Z</time>
      </trkpt>
      <trkpt lat="41.808346537873149" lon="13.765250639989972">
        <ele>1239.2799070000001</ele>
        <time>2017-06-17T11:10:45Z</time>
      </trkpt>
      <trkpt lat="41.808396996930242" lon="13.765384079888463">
        <ele>1238.320068</ele>
        <time>2017-06-17T11:10:54Z</time>
      </trkpt>
      <trkpt lat="41.808404540643096" lon="13.765403861179948">
        <ele>1238.320068</ele>
        <time>2017-06-17T11:10:55Z</time>
      </trkpt>
      <trkpt lat="41.808407474309206" lon="13.765422301366925">
        <ele>1237.829956</ele>
        <time>2017-06-17T11:10:56Z</time>
      </trkpt>
      <trkpt lat="41.808419125154614" lon="13.76546798273921">
        <ele>1237.349976</ele>
        <time>2017-06-17T11:11:10Z</time>
      </trkpt>
      <trkpt lat="41.808422561734915" lon="13.765511820092797">
        <ele>1237.349976</ele>
        <time>2017-06-17T11:11:15Z</time>
      </trkpt>
      <trkpt lat="41.808416694402695" lon="13.765533613041043">
        <ele>1237.349976</ele>
        <time>2017-06-17T11:11:16Z</time>
      </trkpt>
      <trkpt lat="41.80841107852757" lon="13.765557836741209">
        <ele>1237.349976</ele>
        <time>2017-06-17T11:11:17Z</time>
      </trkpt>
      <trkpt lat="41.808421472087502" lon="13.765719775110483">
        <ele>1236.3900149999999</ele>
        <time>2017-06-17T11:11:28Z</time>
      </trkpt>
      <trkpt lat="41.808425914496183" lon="13.765985229983926">
        <ele>1234.950073</ele>
        <time>2017-06-17T11:11:42Z</time>
      </trkpt>
      <trkpt lat="41.808434296399355" lon="13.7660919316113">
        <ele>1234.469971</ele>
        <time>2017-06-17T11:11:49Z</time>
      </trkpt>
      <trkpt lat="41.808429099619389" lon="13.766113640740514">
        <ele>1234.469971</ele>
        <time>2017-06-17T11:11:50Z</time>
      </trkpt>
      <trkpt lat="41.808429267257452" lon="13.766133170574903">
        <ele>1234.469971</ele>
        <time>2017-06-17T11:11:51Z</time>
      </trkpt>
      <trkpt lat="41.808431195095181" lon="13.766152029857039">
        <ele>1234.469971</ele>
        <time>2017-06-17T11:11:52Z</time>
      </trkpt>
      <trkpt lat="41.808432871475816" lon="13.76617013476789">
        <ele>1234.469971</ele>
        <time>2017-06-17T11:11:53Z</time>
      </trkpt>
      <trkpt lat="41.808436308056116" lon="13.766183964908123">
        <ele>1233.98999</ele>
        <time>2017-06-17T11:11:54Z</time>
      </trkpt>
      <trkpt lat="41.808440163731575" lon="13.766197124496102">
        <ele>1233.98999</ele>
        <time>2017-06-17T11:11:55Z</time>
      </trkpt>
      <trkpt lat="41.808452568948269" lon="13.766301898285747">
        <ele>1233.030029</ele>
        <time>2017-06-17T11:12:03Z</time>
      </trkpt>
      <trkpt lat="41.808479307219386" lon="13.766586296260357">
        <ele>1231.589966</ele>
        <time>2017-06-17T11:12:17Z</time>
      </trkpt>
      <trkpt lat="41.808524066582322" lon="13.766634659841657">
        <ele>1231.1099850000001</ele>
        <time>2017-06-17T11:12:23Z</time>
      </trkpt>
      <trkpt lat="41.80866320617497" lon="13.766846721991897">
        <ele>1230.619995</ele>
        <time>2017-06-17T11:12:38Z</time>
      </trkpt>
      <trkpt lat="41.808777200058103" lon="13.767019137740135">
        <ele>1229.179932</ele>
        <time>2017-06-17T11:12:51Z</time>
      </trkpt>
      <trkpt lat="41.808812068775296" lon="13.767135730013251">
        <ele>1228.6999510000001</ele>
        <time>2017-06-17T11:13:01Z</time>
      </trkpt>
      <trkpt lat="41.808778792619705" lon="13.767376961186528">
        <ele>1227.73999</ele>
        <time>2017-06-17T11:13:13Z</time>
      </trkpt>
      <trkpt lat="41.80878197774291" lon="13.767401771619916">
        <ele>1227.73999</ele>
        <time>2017-06-17T11:13:15Z</time>
      </trkpt>
      <trkpt lat="41.808781307190657" lon="13.767418283969164">
        <ele>1227.73999</ele>
        <time>2017-06-17T11:13:16Z</time>
      </trkpt>
      <trkpt lat="41.808757418766618" lon="13.767519034445286">
        <ele>1227.73999</ele>
        <time>2017-06-17T11:13:33Z</time>
      </trkpt>
      <trkpt lat="41.808787509799004" lon="13.767636464908719">
        <ele>1226.3000489999999</ele>
        <time>2017-06-17T11:13:48Z</time>
      </trkpt>
      <trkpt lat="41.8088274076581" lon="13.767880797386169">
        <ele>1225.820068</ele>
        <time>2017-06-17T11:14:02Z</time>
      </trkpt>
      <trkpt lat="41.808793796226382" lon="13.768091266974807">
        <ele>1224.8599850000001</ele>
        <time>2017-06-17T11:14:15Z</time>
      </trkpt>
      <trkpt lat="41.808785833418369" lon="13.768180785700679">
        <ele>1224.8599850000001</ele>
        <time>2017-06-17T11:14:21Z</time>
      </trkpt>
      <trkpt lat="41.808804860338569" lon="13.768450012430549">
        <ele>1222.9300539999999</ele>
        <time>2017-06-17T11:14:38Z</time>
      </trkpt>
      <trkpt lat="41.808829922229052" lon="13.768661739304662">
        <ele>1222.450073</ele>
        <time>2017-06-17T11:14:54Z</time>
      </trkpt>
      <trkpt lat="41.808799160644412" lon="13.768694764003158">
        <ele>1222.450073</ele>
        <time>2017-06-17T11:15:04Z</time>
      </trkpt>
      <trkpt lat="41.808801423758268" lon="13.768708175048232">
        <ele>1222.450073</ele>
        <time>2017-06-17T11:15:05Z</time>
      </trkpt>
      <trkpt lat="41.808860935270786" lon="13.768894840031862">
        <ele>1221.01001</ele>
        <time>2017-06-17T11:15:19Z</time>
      </trkpt>
      <trkpt lat="41.80886646732688" lon="13.769077230244875">
        <ele>1220.530029</ele>
        <time>2017-06-17T11:15:38Z</time>
      </trkpt>
      <trkpt lat="41.808904940262437" lon="13.769308738410473">
        <ele>1219.089966</ele>
        <time>2017-06-17T11:15:53Z</time>
      </trkpt>
      <trkpt lat="41.808923631906509" lon="13.769479393959045">
        <ele>1219.089966</ele>
        <time>2017-06-17T11:16:06Z</time>
      </trkpt>
      <trkpt lat="41.808912567794323" lon="13.76944444142282">
        <ele>1219.089966</ele>
        <time>2017-06-17T11:16:19Z</time>
      </trkpt>
      <trkpt lat="41.808909298852086" lon="13.769426168873906">
        <ele>1218.6099850000001</ele>
        <time>2017-06-17T11:16:36Z</time>
      </trkpt>
      <trkpt lat="41.808918938040733" lon="13.769443603232503">
        <ele>1218.6099850000001</ele>
        <time>2017-06-17T11:16:41Z</time>
      </trkpt>
      <trkpt lat="41.808929499238729" lon="13.769456762820482">
        <ele>1218.6099850000001</ele>
        <time>2017-06-17T11:16:42Z</time>
      </trkpt>
      <trkpt lat="41.808952633291483" lon="13.769500432536006">
        <ele>1218.6099850000001</ele>
        <time>2017-06-17T11:16:45Z</time>
      </trkpt>
      <trkpt lat="41.809000829234719" lon="13.769551226869226">
        <ele>1218.6099850000001</ele>
        <time>2017-06-17T11:16:49Z</time>
      </trkpt>
      <trkpt lat="41.80901943705976" lon="13.769594896584749">
        <ele>1217.650024</ele>
        <time>2017-06-17T11:16:53Z</time>
      </trkpt>
      <trkpt lat="41.809077607467771" lon="13.769812239333987">
        <ele>1216.690063</ele>
        <time>2017-06-17T11:17:07Z</time>
      </trkpt>
      <trkpt lat="41.809138124808669" lon="13.770055565983057">
        <ele>1214.76001</ele>
        <time>2017-06-17T11:17:21Z</time>
      </trkpt>
      <trkpt lat="41.809187913313508" lon="13.770282296463847">
        <ele>1214.2799070000001</ele>
        <time>2017-06-17T11:17:34Z</time>
      </trkpt>
      <trkpt lat="41.809258405119181" lon="13.770459573715925">
        <ele>1213.320068</ele>
        <time>2017-06-17T11:17:46Z</time>
      </trkpt>
      <trkpt lat="41.809298386797309" lon="13.770584799349308">
        <ele>1212.3599850000001</ele>
        <time>2017-06-17T11:17:59Z</time>
      </trkpt>
      <trkpt lat="41.809317162260413" lon="13.770700301975012">
        <ele>1211.400024</ele>
        <time>2017-06-17T11:18:13Z</time>
      </trkpt>
      <trkpt lat="41.809367202222347" lon="13.770951675251126">
        <ele>1210.4399410000001</ele>
        <time>2017-06-17T11:18:28Z</time>
      </trkpt>
      <trkpt lat="41.809387570247054" lon="13.771240431815386">
        <ele>1208.51001</ele>
        <time>2017-06-17T11:18:43Z</time>
      </trkpt>
      <trkpt lat="41.809393689036369" lon="13.771442100405693">
        <ele>1207.5500489999999</ele>
        <time>2017-06-17T11:18:57Z</time>
      </trkpt>
      <trkpt lat="41.809406513348222" lon="13.7714849319309">
        <ele>1207.5500489999999</ele>
        <time>2017-06-17T11:19:02Z</time>
      </trkpt>
      <trkpt lat="41.809416739270091" lon="13.771500941365957">
        <ele>1207.5500489999999</ele>
        <time>2017-06-17T11:19:03Z</time>
      </trkpt>
      <trkpt lat="41.809424618259072" lon="13.771513011306524">
        <ele>1207.5500489999999</ele>
        <time>2017-06-17T11:19:04Z</time>
      </trkpt>
      <trkpt lat="41.809435598552227" lon="13.771527763456106">
        <ele>1207.5500489999999</ele>
        <time>2017-06-17T11:19:05Z</time>
      </trkpt>
      <trkpt lat="41.809442890807986" lon="13.771540001034737">
        <ele>1207.5500489999999</ele>
        <time>2017-06-17T11:19:06Z</time>
      </trkpt>
      <trkpt lat="41.809448422864079" lon="13.771556597203016">
        <ele>1207.0699460000001</ele>
        <time>2017-06-17T11:19:07Z</time>
      </trkpt>
      <trkpt lat="41.80945236235857" lon="13.77157386392355">
        <ele>1207.0699460000001</ele>
        <time>2017-06-17T11:19:08Z</time>
      </trkpt>
      <trkpt lat="41.809458313509822" lon="13.771593309938908">
        <ele>1207.0699460000001</ele>
        <time>2017-06-17T11:19:09Z</time>
      </trkpt>
      <trkpt lat="41.8094577267766" lon="13.771609738469124">
        <ele>1207.0699460000001</ele>
        <time>2017-06-17T11:19:10Z</time>
      </trkpt>
      <trkpt lat="41.809455966576934" lon="13.771631279960275">
        <ele>1207.0699460000001</ele>
        <time>2017-06-17T11:19:11Z</time>
      </trkpt>
      <trkpt lat="41.809448087587953" lon="13.771648462861776">
        <ele>1207.0699460000001</ele>
        <time>2017-06-17T11:19:12Z</time>
      </trkpt>
      <trkpt lat="41.809443226084113" lon="13.771660281345248">
        <ele>1207.0699460000001</ele>
        <time>2017-06-17T11:19:13Z</time>
      </trkpt>
      <trkpt lat="41.809309031814337" lon="13.771952809765935">
        <ele>1206.1099850000001</ele>
        <time>2017-06-17T11:19:31Z</time>
      </trkpt>
      <trkpt lat="41.809221524745226" lon="13.772185826674104">
        <ele>1205.150024</ele>
        <time>2017-06-17T11:19:47Z</time>
      </trkpt>
      <trkpt lat="41.809098310768604" lon="13.772506434470415">
        <ele>1204.190063</ele>
        <time>2017-06-17T11:20:05Z</time>
      </trkpt>
      <trkpt lat="41.809013402089477" lon="13.772732326760888">
        <ele>1203.709961</ele>
        <time>2017-06-17T11:20:21Z</time>
      </trkpt>
      <trkpt lat="41.808926984667778" lon="13.77296551130712">
        <ele>1202.75</ele>
        <time>2017-06-17T11:20:37Z</time>
      </trkpt>
      <trkpt lat="41.808837214484811" lon="13.773226272314787">
        <ele>1202.2700199999999</ele>
        <time>2017-06-17T11:20:54Z</time>
      </trkpt>
      <trkpt lat="41.80874384008348" lon="13.773490721359849">
        <ele>1201.3000489999999</ele>
        <time>2017-06-17T11:21:11Z</time>
      </trkpt>
      <trkpt lat="41.808644514530897" lon="13.773726336658001">
        <ele>1200.820068</ele>
        <time>2017-06-17T11:21:26Z</time>
      </trkpt>
      <trkpt lat="41.808571508154273" lon="13.773935884237289">
        <ele>1199.8599850000001</ele>
        <time>2017-06-17T11:21:40Z</time>
      </trkpt>
      <trkpt lat="41.808508560061455" lon="13.774195220321417">
        <ele>1198.900024</ele>
        <time>2017-06-17T11:21:56Z</time>
      </trkpt>
      <trkpt lat="41.808447958901525" lon="13.774456819519401">
        <ele>1198.420044</ele>
        <time>2017-06-17T11:22:11Z</time>
      </trkpt>
      <trkpt lat="41.808387106284499" lon="13.774752113968134">
        <ele>1197.459961</ele>
        <time>2017-06-17T11:22:28Z</time>
      </trkpt>
      <trkpt lat="41.808305801823735" lon="13.775015808641911">
        <ele>1196.5</ele>
        <time>2017-06-17T11:22:45Z</time>
      </trkpt>
      <trkpt lat="41.808237992227077" lon="13.775342283770442">
        <ele>1195.5399170000001</ele>
        <time>2017-06-17T11:23:02Z</time>
      </trkpt>
      <trkpt lat="41.808142187073827" lon="13.775574713945389">
        <ele>1195.0600589999999</ele>
        <time>2017-06-17T11:23:18Z</time>
      </trkpt>
      <trkpt lat="41.808045459911227" lon="13.77578929066658">
        <ele>1194.580078</ele>
        <time>2017-06-17T11:23:33Z</time>
      </trkpt>
      <trkpt lat="41.807960132136941" lon="13.776119286194444">
        <ele>1193.6099850000001</ele>
        <time>2017-06-17T11:23:55Z</time>
      </trkpt>
      <trkpt lat="41.807872708886862" lon="13.776439893990755">
        <ele>1193.130005</ele>
        <time>2017-06-17T11:24:15Z</time>
      </trkpt>
      <trkpt lat="41.80779785849154" lon="13.776710126549006">
        <ele>1192.170044</ele>
        <time>2017-06-17T11:24:31Z</time>
      </trkpt>
      <trkpt lat="41.807725271210074" lon="13.776988992467523">
        <ele>1191.690063</ele>
        <time>2017-06-17T11:24:48Z</time>
      </trkpt>
      <trkpt lat="41.807662323117256" lon="13.777227625250816">
        <ele>1190.7299800000001</ele>
        <time>2017-06-17T11:25:02Z</time>
      </trkpt>
      <trkpt lat="41.807578671723604" lon="13.777486626058817">
        <ele>1190.25</ele>
        <time>2017-06-17T11:25:18Z</time>
      </trkpt>
      <trkpt lat="41.80746610276401" lon="13.777774041518569">
        <ele>1189.290039</ele>
        <time>2017-06-17T11:25:35Z</time>
      </trkpt>
      <trkpt lat="41.807404579594731" lon="13.778010914102197">
        <ele>1188.329956</ele>
        <time>2017-06-17T11:25:50Z</time>
      </trkpt>
      <trkpt lat="41.807407261803746" lon="13.778024325147271">
        <ele>1188.329956</ele>
        <time>2017-06-17T11:25:51Z</time>
      </trkpt>
      <trkpt lat="41.807408938184381" lon="13.778040083125234">
        <ele>1188.329956</ele>
        <time>2017-06-17T11:25:52Z</time>
      </trkpt>
      <trkpt lat="41.807341212406754" lon="13.778267065063119">
        <ele>1188.329956</ele>
        <time>2017-06-17T11:26:06Z</time>
      </trkpt>
      <trkpt lat="41.807271474972367" lon="13.778435289859772">
        <ele>1187.849976</ele>
        <time>2017-06-17T11:26:18Z</time>
      </trkpt>
      <trkpt lat="41.807268876582384" lon="13.778454819694161">
        <ele>1187.849976</ele>
        <time>2017-06-17T11:26:19Z</time>
      </trkpt>
      <trkpt lat="41.807264182716608" lon="13.778475522994995">
        <ele>1187.849976</ele>
        <time>2017-06-17T11:26:20Z</time>
      </trkpt>
      <trkpt lat="41.807257058098912" lon="13.77849337644875">
        <ele>1187.369995</ele>
        <time>2017-06-17T11:26:21Z</time>
      </trkpt>
      <trkpt lat="41.807202072814107" lon="13.778635784983635">
        <ele>1187.369995</ele>
        <time>2017-06-17T11:26:31Z</time>
      </trkpt>
      <trkpt lat="41.807162929326296" lon="13.778765285387635">
        <ele>1186.880005</ele>
        <time>2017-06-17T11:26:40Z</time>
      </trkpt>
      <trkpt lat="41.807159576565027" lon="13.778782803565264">
        <ele>1186.880005</ele>
        <time>2017-06-17T11:26:41Z</time>
      </trkpt>
      <trkpt lat="41.807069135829806" lon="13.779033506289124">
        <ele>1186.400024</ele>
        <time>2017-06-17T11:26:57Z</time>
      </trkpt>
      <trkpt lat="41.806956399232149" lon="13.779232827946544">
        <ele>1185.920044</ele>
        <time>2017-06-17T11:27:12Z</time>
      </trkpt>
      <trkpt lat="41.806909209117293" lon="13.779349504038692">
        <ele>1185.4399410000001</ele>
        <time>2017-06-17T11:27:19Z</time>
      </trkpt>
      <trkpt lat="41.806835029274225" lon="13.779556704685092">
        <ele>1184.4799800000001</ele>
        <time>2017-06-17T11:27:33Z</time>
      </trkpt>
      <trkpt lat="41.806774009019136" lon="13.779770862311125">
        <ele>1184</ele>
        <time>2017-06-17T11:27:47Z</time>
      </trkpt>
      <trkpt lat="41.806769734248519" lon="13.77978871576488">
        <ele>1184</ele>
        <time>2017-06-17T11:27:48Z</time>
      </trkpt>
      <trkpt lat="41.806762358173728" lon="13.779806820675731">
        <ele>1184</ele>
        <time>2017-06-17T11:27:49Z</time>
      </trkpt>
      <trkpt lat="41.806755987927318" lon="13.77982484176755">
        <ele>1184</ele>
        <time>2017-06-17T11:27:50Z</time>
      </trkpt>
      <trkpt lat="41.806748863309622" lon="13.779842695221305">
        <ele>1184</ele>
        <time>2017-06-17T11:27:51Z</time>
      </trkpt>
      <trkpt lat="41.806700835004449" lon="13.780045369639993">
        <ele>1183.5200199999999</ele>
        <time>2017-06-17T11:28:04Z</time>
      </trkpt>
      <trkpt lat="41.806616764515638" lon="13.780292384326458">
        <ele>1183.0399170000001</ele>
        <time>2017-06-17T11:28:20Z</time>
      </trkpt>
      <trkpt lat="41.806539315730333" lon="13.780520288273692">
        <ele>1182.5600589999999</ele>
        <time>2017-06-17T11:28:34Z</time>
      </trkpt>
      <trkpt lat="41.806482905521989" lon="13.780696811154485">
        <ele>1182.080078</ele>
        <time>2017-06-17T11:28:46Z</time>
      </trkpt>
      <trkpt lat="41.806430099532008" lon="13.78088666126132">
        <ele>1181.119995</ele>
        <time>2017-06-17T11:28:59Z</time>
      </trkpt>
      <trkpt lat="41.806354578584433" lon="13.781159911304712">
        <ele>1180.6400149999999</ele>
        <time>2017-06-17T11:29:14Z</time>
      </trkpt>
      <trkpt lat="41.806216109544039" lon="13.781371805816889">
        <ele>1180.160034</ele>
        <time>2017-06-17T11:29:30Z</time>
      </trkpt>
      <trkpt lat="41.806193478405476" lon="13.781454619020224">
        <ele>1179.670044</ele>
        <time>2017-06-17T11:29:37Z</time>
      </trkpt>
      <trkpt lat="41.806190628558397" lon="13.781472807750106">
        <ele>1179.670044</ele>
        <time>2017-06-17T11:29:38Z</time>
      </trkpt>
      <trkpt lat="41.806095913052559" lon="13.781782938167453">
        <ele>1179.190063</ele>
        <time>2017-06-17T11:29:57Z</time>
      </trkpt>
      <trkpt lat="41.80601729080081" lon="13.782037664204836">
        <ele>1178.2299800000001</ele>
        <time>2017-06-17T11:30:12Z</time>
      </trkpt>
      <trkpt lat="41.80590346455574" lon="13.782304376363754">
        <ele>1177.75</ele>
        <time>2017-06-17T11:30:27Z</time>
      </trkpt>
      <trkpt lat="41.805856106802821" lon="13.782507134601474">
        <ele>1177.2700199999999</ele>
        <time>2017-06-17T11:30:40Z</time>
      </trkpt>
      <trkpt lat="41.80576759390533" lon="13.782745180651546">
        <ele>1176.790039</ele>
        <time>2017-06-17T11:30:56Z</time>
      </trkpt>
      <trkpt lat="41.805701963603497" lon="13.783008037135005">
        <ele>1175.829956</ele>
        <time>2017-06-17T11:31:13Z</time>
      </trkpt>
      <trkpt lat="41.805638009682298" lon="13.783141896128654">
        <ele>1175.829956</ele>
        <time>2017-06-17T11:31:21Z</time>
      </trkpt>
      <trkpt lat="41.805633483454585" lon="13.783160923048854">
        <ele>1175.829956</ele>
        <time>2017-06-17T11:31:22Z</time>
      </trkpt>
      <trkpt lat="41.805555783212185" lon="13.783412380144">
        <ele>1174.869995</ele>
        <time>2017-06-17T11:31:38Z</time>
      </trkpt>
      <trkpt lat="41.80551060475409" lon="13.783614970743656">
        <ele>1173.9099120000001</ele>
        <time>2017-06-17T11:31:51Z</time>
      </trkpt>
      <trkpt lat="41.80544069968164" lon="13.783844131976366">
        <ele>1173.9099120000001</ele>
        <time>2017-06-17T11:32:05Z</time>
      </trkpt>
      <trkpt lat="41.805351264774799" lon="13.784019984304905">
        <ele>1173.4300539999999</ele>
        <time>2017-06-17T11:32:18Z</time>
      </trkpt>
      <trkpt lat="41.805346235632896" lon="13.78403683193028">
        <ele>1173.4300539999999</ele>
        <time>2017-06-17T11:32:19Z</time>
      </trkpt>
      <trkpt lat="41.80534154176712" lon="13.784053428098559">
        <ele>1173.4300539999999</ele>
        <time>2017-06-17T11:32:20Z</time>
      </trkpt>
      <trkpt lat="41.80533466860652" lon="13.784073796123266">
        <ele>1173.4300539999999</ele>
        <time>2017-06-17T11:32:21Z</time>
      </trkpt>
      <trkpt lat="41.805329220369458" lon="13.784090811386704">
        <ele>1173.4300539999999</ele>
        <time>2017-06-17T11:32:22Z</time>
      </trkpt>
      <trkpt lat="41.805235762149096" lon="13.784321816638112">
        <ele>1172.950073</ele>
        <time>2017-06-17T11:32:38Z</time>
      </trkpt>
      <trkpt lat="41.80514263920486" lon="13.784558437764645">
        <ele>1172.469971</ele>
        <time>2017-06-17T11:32:53Z</time>
      </trkpt>
      <trkpt lat="41.805110368877649" lon="13.784642927348614">
        <ele>1171.9799800000001</ele>
        <time>2017-06-17T11:32:59Z</time>
      </trkpt>
      <trkpt lat="41.805107770487666" lon="13.784660277888179">
        <ele>1171.9799800000001</ele>
        <time>2017-06-17T11:33:00Z</time>
      </trkpt>
      <trkpt lat="41.805104333907366" lon="13.784677293151617">
        <ele>1171.9799800000001</ele>
        <time>2017-06-17T11:33:01Z</time>
      </trkpt>
      <trkpt lat="41.805030070245266" lon="13.784887427464128">
        <ele>1171.0200199999999</ele>
        <time>2017-06-17T11:33:14Z</time>
      </trkpt>
      <trkpt lat="41.805016910657287" lon="13.784948866814375">
        <ele>1171.0200199999999</ele>
        <time>2017-06-17T11:33:18Z</time>
      </trkpt>
      <trkpt lat="41.805007439106703" lon="13.784970240667462">
        <ele>1171.0200199999999</ele>
        <time>2017-06-17T11:33:19Z</time>
      </trkpt>
      <trkpt lat="41.804997967556119" lon="13.784990105777979">
        <ele>1171.0200199999999</ele>
        <time>2017-06-17T11:33:20Z</time>
      </trkpt>
      <trkpt lat="41.804880537092686" lon="13.785235611721873">
        <ele>1170.5399170000001</ele>
        <time>2017-06-17T11:33:38Z</time>
      </trkpt>
      <trkpt lat="41.804806189611554" lon="13.785356562584639">
        <ele>1169.580078</ele>
        <time>2017-06-17T11:34:02Z</time>
      </trkpt>
      <trkpt lat="41.804599994793534" lon="13.785573067143559">
        <ele>1169.580078</ele>
        <time>2017-06-17T11:34:22Z</time>
      </trkpt>
      <trkpt lat="41.804401678964496" lon="13.785838102921844">
        <ele>1168.619995</ele>
        <time>2017-06-17T11:34:44Z</time>
      </trkpt>
      <trkpt lat="41.804253235459328" lon="13.78602359443903">
        <ele>1167.660034</ele>
        <time>2017-06-17T11:34:57Z</time>
      </trkpt>
      <trkpt lat="41.804229263216257" lon="13.786059720441699">
        <ele>1167.660034</ele>
        <time>2017-06-17T11:35:01Z</time>
      </trkpt>
      <trkpt lat="41.804126920178533" lon="13.786194920539856">
        <ele>1167.1800539999999</ele>
        <time>2017-06-17T11:35:14Z</time>
      </trkpt>
      <trkpt lat="41.803988199681044" lon="13.786399522796273">
        <ele>1166.219971</ele>
        <time>2017-06-17T11:35:29Z</time>
      </trkpt>
      <trkpt lat="41.803857693448663" lon="13.786560539156199">
        <ele>1165.73999</ele>
        <time>2017-06-17T11:35:43Z</time>
      </trkpt>
      <trkpt lat="41.803835816681385" lon="13.786601861938834">
        <ele>1165.73999</ele>
        <time>2017-06-17T11:35:47Z</time>
      </trkpt>
      <trkpt lat="41.803825339302421" lon="13.786618793383241">
        <ele>1165.73999</ele>
        <time>2017-06-17T11:35:48Z</time>
      </trkpt>
      <trkpt lat="41.803701622411609" lon="13.786791963502765">
        <ele>1165.26001</ele>
        <time>2017-06-17T11:36:03Z</time>
      </trkpt>
      <trkpt lat="41.803562063723803" lon="13.786974102258682">
        <ele>1164.7700199999999</ele>
        <time>2017-06-17T11:36:17Z</time>
      </trkpt>
      <trkpt lat="41.803457541391253" lon="13.787118690088391">
        <ele>1164.290039</ele>
        <time>2017-06-17T11:36:28Z</time>
      </trkpt>
      <trkpt lat="41.803449662402272" lon="13.787131262943149">
        <ele>1164.290039</ele>
        <time>2017-06-17T11:36:29Z</time>
      </trkpt>
      <trkpt lat="41.803442537784576" lon="13.787148529663682">
        <ele>1164.290039</ele>
        <time>2017-06-17T11:36:30Z</time>
      </trkpt>
      <trkpt lat="41.803438095375896" lon="13.787161940708756">
        <ele>1164.290039</ele>
        <time>2017-06-17T11:36:31Z</time>
      </trkpt>
      <trkpt lat="41.803432563319802" lon="13.787177866324782">
        <ele>1164.290039</ele>
        <time>2017-06-17T11:36:32Z</time>
      </trkpt>
      <trkpt lat="41.803381601348519" lon="13.787342235445976">
        <ele>1163.809937</ele>
        <time>2017-06-17T11:36:45Z</time>
      </trkpt>
      <trkpt lat="41.80326827801764" lon="13.787484392523766">
        <ele>1163.329956</ele>
        <time>2017-06-17T11:36:56Z</time>
      </trkpt>
      <trkpt lat="41.803252939134836" lon="13.787487996742129">
        <ele>1162.849976</ele>
        <time>2017-06-17T11:36:57Z</time>
      </trkpt>
      <trkpt lat="41.803237264975905" lon="13.787489924579859">
        <ele>1162.849976</ele>
        <time>2017-06-17T11:36:58Z</time>
      </trkpt>
      <trkpt lat="41.803114973008633" lon="13.787491768598557">
        <ele>1162.849976</ele>
        <time>2017-06-17T11:37:06Z</time>
      </trkpt>
      <trkpt lat="41.803104495629668" lon="13.787496965378523">
        <ele>1162.849976</ele>
        <time>2017-06-17T11:37:07Z</time>
      </trkpt>
      <trkpt lat="41.803054036572576" lon="13.787544071674347">
        <ele>1162.369995</ele>
        <time>2017-06-17T11:37:13Z</time>
      </trkpt>
      <trkpt lat="41.803045235574245" lon="13.787557063624263">
        <ele>1162.369995</ele>
        <time>2017-06-17T11:37:14Z</time>
      </trkpt>
      <trkpt lat="41.803033165633678" lon="13.78756913356483">
        <ele>1162.369995</ele>
        <time>2017-06-17T11:37:15Z</time>
      </trkpt>
      <trkpt lat="41.803019335493445" lon="13.787575839087367">
        <ele>1162.369995</ele>
        <time>2017-06-17T11:37:16Z</time>
      </trkpt>
      <trkpt lat="41.803005421534181" lon="13.787580700591207">
        <ele>1161.8900149999999</ele>
        <time>2017-06-17T11:37:17Z</time>
      </trkpt>
      <trkpt lat="41.802993016317487" lon="13.787588328123093">
        <ele>1161.8900149999999</ele>
        <time>2017-06-17T11:37:18Z</time>
      </trkpt>
      <trkpt lat="41.802981197834015" lon="13.787599727511406">
        <ele>1161.8900149999999</ele>
        <time>2017-06-17T11:37:19Z</time>
      </trkpt>
      <trkpt lat="41.802968038246036" lon="13.787611881271005">
        <ele>1161.8900149999999</ele>
        <time>2017-06-17T11:37:20Z</time>
      </trkpt>
      <trkpt lat="41.802956722676754" lon="13.787622358649969">
        <ele>1161.8900149999999</ele>
        <time>2017-06-17T11:37:21Z</time>
      </trkpt>
      <trkpt lat="41.802818924188614" lon="13.787780441343784">
        <ele>1160.9300539999999</ele>
        <time>2017-06-17T11:37:36Z</time>
      </trkpt>
      <trkpt lat="41.802666541188955" lon="13.787961322814226">
        <ele>1159.969971</ele>
        <time>2017-06-17T11:37:52Z</time>
      </trkpt>
      <trkpt lat="41.80254315957427" lon="13.788130972534418">
        <ele>1159.969971</ele>
        <time>2017-06-17T11:38:06Z</time>
      </trkpt>
      <trkpt lat="41.802429920062423" lon="13.788315877318382">
        <ele>1159.01001</ele>
        <time>2017-06-17T11:38:20Z</time>
      </trkpt>
      <trkpt lat="41.802422041073442" lon="13.788329036906362">
        <ele>1159.01001</ele>
        <time>2017-06-17T11:38:21Z</time>
      </trkpt>
      <trkpt lat="41.802413910627365" lon="13.788341274484992">
        <ele>1159.01001</ele>
        <time>2017-06-17T11:38:22Z</time>
      </trkpt>
      <trkpt lat="41.802403936162591" lon="13.788355691358447">
        <ele>1159.01001</ele>
        <time>2017-06-17T11:38:23Z</time>
      </trkpt>
      <trkpt lat="41.802395135164261" lon="13.788370275869966">
        <ele>1159.01001</ele>
        <time>2017-06-17T11:38:24Z</time>
      </trkpt>
      <trkpt lat="41.802388094365597" lon="13.788385530933738">
        <ele>1159.01001</ele>
        <time>2017-06-17T11:38:25Z</time>
      </trkpt>
      <trkpt lat="41.802313160151243" lon="13.788483431562781">
        <ele>1159.01001</ele>
        <time>2017-06-17T11:38:33Z</time>
      </trkpt>
      <trkpt lat="41.802178714424372" lon="13.788658361881971">
        <ele>1158.530029</ele>
        <time>2017-06-17T11:38:47Z</time>
      </trkpt>
      <trkpt lat="41.802019458264112" lon="13.788808481767774">
        <ele>1158.0500489999999</ele>
        <time>2017-06-17T11:39:02Z</time>
      </trkpt>
      <trkpt lat="41.801883587613702" lon="13.788978802040219">
        <ele>1157.5600589999999</ele>
        <time>2017-06-17T11:39:17Z</time>
      </trkpt>
      <trkpt lat="41.801732964813709" lon="13.789151217788458">
        <ele>1157.080078</ele>
        <time>2017-06-17T11:39:33Z</time>
      </trkpt>
      <trkpt lat="41.801607739180326" lon="13.789303097873926">
        <ele>1156.599976</ele>
        <time>2017-06-17T11:39:48Z</time>
      </trkpt>
      <trkpt lat="41.801588041707873" lon="13.789316760376096">
        <ele>1156.599976</ele>
        <time>2017-06-17T11:39:50Z</time>
      </trkpt>
      <trkpt lat="41.801576977595687" lon="13.789323214441538">
        <ele>1156.599976</ele>
        <time>2017-06-17T11:39:51Z</time>
      </trkpt>
      <trkpt lat="41.801569014787674" lon="13.789377026259899">
        <ele>1156.119995</ele>
        <time>2017-06-17T11:39:57Z</time>
      </trkpt>
      <trkpt lat="41.801579408347607" lon="13.78939563408494">
        <ele>1156.119995</ele>
        <time>2017-06-17T11:39:58Z</time>
      </trkpt>
      <trkpt lat="41.801586365327239" lon="13.789400663226843">
        <ele>1156.119995</ele>
        <time>2017-06-17T11:39:59Z</time>
      </trkpt>
      <trkpt lat="41.801596339792013" lon="13.789409380406141">
        <ele>1156.119995</ele>
        <time>2017-06-17T11:40:00Z</time>
      </trkpt>
      <trkpt lat="41.801711339503527" lon="13.789462270215154">
        <ele>1156.119995</ele>
        <time>2017-06-17T11:40:12Z</time>
      </trkpt>
      <trkpt lat="41.801875876262784" lon="13.789516165852547">
        <ele>1157.080078</ele>
        <time>2017-06-17T11:40:25Z</time>
      </trkpt>
      <trkpt lat="41.802075197920203" lon="13.789557740092278">
        <ele>1157.080078</ele>
        <time>2017-06-17T11:40:40Z</time>
      </trkpt>
      <trkpt lat="41.802270412445068" lon="13.789578191936016">
        <ele>1157.080078</ele>
        <time>2017-06-17T11:40:55Z</time>
      </trkpt>
      <trkpt lat="41.802465878427029" lon="13.789580538868904">
        <ele>1157.080078</ele>
        <time>2017-06-17T11:41:09Z</time>
      </trkpt>
      <trkpt lat="41.802638629451394" lon="13.789602918550372">
        <ele>1157.080078</ele>
        <time>2017-06-17T11:41:23Z</time>
      </trkpt>
      <trkpt lat="41.802765112370253" lon="13.789595877751708">
        <ele>1157.080078</ele>
        <time>2017-06-17T11:41:34Z</time>
      </trkpt>
      <trkpt lat="41.802949598059058" lon="13.789563858881593">
        <ele>1156.599976</ele>
        <time>2017-06-17T11:41:47Z</time>
      </trkpt>
      <trkpt lat="41.803107680752873" lon="13.789548436179757">
        <ele>1156.599976</ele>
        <time>2017-06-17T11:42:00Z</time>
      </trkpt>
      <trkpt lat="41.803263332694769" lon="13.789510717615485">
        <ele>1156.599976</ele>
        <time>2017-06-17T11:42:12Z</time>
      </trkpt>
      <trkpt lat="41.803418481722474" lon="13.789459923282266">
        <ele>1156.599976</ele>
        <time>2017-06-17T11:42:25Z</time>
      </trkpt>
      <trkpt lat="41.803480591624975" lon="13.789464281871915">
        <ele>1156.599976</ele>
        <time>2017-06-17T11:42:30Z</time>
      </trkpt>
      <trkpt lat="41.803647475317121" lon="13.78940787166357">
        <ele>1156.599976</ele>
        <time>2017-06-17T11:42:43Z</time>
      </trkpt>
      <trkpt lat="41.803691061213613" lon="13.789399908855557">
        <ele>1156.599976</ele>
        <time>2017-06-17T11:42:48Z</time>
      </trkpt>
      <trkpt lat="41.803702795878053" lon="13.789410889148712">
        <ele>1156.599976</ele>
        <time>2017-06-17T11:42:49Z</time>
      </trkpt>
      <trkpt lat="41.803715033456683" lon="13.789469981566072">
        <ele>1156.599976</ele>
        <time>2017-06-17T11:42:53Z</time>
      </trkpt>
      <trkpt lat="41.803730204701424" lon="13.789725629612803">
        <ele>1156.599976</ele>
        <time>2017-06-17T11:43:08Z</time>
      </trkpt>
      <trkpt lat="41.803724588826299" lon="13.789787739515305">
        <ele>1155.160034</ele>
        <time>2017-06-17T11:43:13Z</time>
      </trkpt>
      <trkpt lat="41.803729617968202" lon="13.789853537455201">
        <ele>1155.160034</ele>
        <time>2017-06-17T11:43:18Z</time>
      </trkpt>
      <trkpt lat="41.803747890517116" lon="13.789955880492926">
        <ele>1154.6800539999999</ele>
        <time>2017-06-17T11:43:30Z</time>
      </trkpt>
      <trkpt lat="41.803771108388901" lon="13.789990078657866">
        <ele>1154.6800539999999</ele>
        <time>2017-06-17T11:43:52Z</time>
      </trkpt>
      <trkpt lat="41.80370606482029" lon="13.79001522436738">
        <ele>1154.1999510000001</ele>
        <time>2017-06-17T11:44:25Z</time>
      </trkpt>
      <trkpt lat="41.803687205538154" lon="13.79001572728157">
        <ele>1155.6400149999999</ele>
        <time>2017-06-17T11:44:36Z</time>
      </trkpt>
      <trkpt lat="41.803684774786234" lon="13.789451122283936">
        <ele>1149.3900149999999</ele>
        <time>2017-06-18T05:36:46Z</time>
      </trkpt>
      <trkpt lat="41.803657030686736" lon="13.789446009323001">
        <ele>1148.4300539999999</ele>
        <time>2017-06-18T05:37:11Z</time>
      </trkpt>
      <trkpt lat="41.803451338782907" lon="13.789515579119325">
        <ele>1147.950073</ele>
        <time>2017-06-18T05:37:29Z</time>
      </trkpt>
      <trkpt lat="41.80322871543467" lon="13.78957835957408">
        <ele>1147.950073</ele>
        <time>2017-06-18T05:37:47Z</time>
      </trkpt>
      <trkpt lat="41.803043726831675" lon="13.789598392322659">
        <ele>1147.469971</ele>
        <time>2017-06-18T05:38:01Z</time>
      </trkpt>
      <trkpt lat="41.802915064617991" lon="13.78954416140914">
        <ele>1146.98999</ele>
        <time>2017-06-18T05:38:16Z</time>
      </trkpt>
      <trkpt lat="41.802907437086105" lon="13.789551537483931">
        <ele>1146.98999</ele>
        <time>2017-06-18T05:38:52Z</time>
      </trkpt>
      <trkpt lat="41.802833927795291" lon="13.789569139480591">
        <ele>1146.98999</ele>
        <time>2017-06-18T05:39:02Z</time>
      </trkpt>
      <trkpt lat="41.802654974162579" lon="13.789584897458553">
        <ele>1146.51001</ele>
        <time>2017-06-18T05:39:15Z</time>
      </trkpt>
      <trkpt lat="41.802457077428699" lon="13.789563104510307">
        <ele>1146.030029</ele>
        <time>2017-06-18T05:39:33Z</time>
      </trkpt>
      <trkpt lat="41.802399661391973" lon="13.789546089246869">
        <ele>1146.030029</ele>
        <time>2017-06-18T05:39:38Z</time>
      </trkpt>
      <trkpt lat="41.802357835695148" lon="13.789539216086268">
        <ele>1146.030029</ele>
        <time>2017-06-18T05:39:42Z</time>
      </trkpt>
      <trkpt lat="41.802145773544908" lon="13.789497390389442">
        <ele>1145.5500489999999</ele>
        <time>2017-06-18T05:40:00Z</time>
      </trkpt>
      <trkpt lat="41.801917618140578" lon="13.78944986499846">
        <ele>1145.5500489999999</ele>
        <time>2017-06-18T05:40:19Z</time>
      </trkpt>
      <trkpt lat="41.801790380850434" lon="13.789351461455226">
        <ele>1145.5500489999999</ele>
        <time>2017-06-18T05:40:29Z</time>
      </trkpt>
      <trkpt lat="41.801779987290502" lon="13.789234533905983">
        <ele>1146.98999</ele>
        <time>2017-06-18T05:40:38Z</time>
      </trkpt>
      <trkpt lat="41.801791219040751" lon="13.789200335741043">
        <ele>1146.98999</ele>
        <time>2017-06-18T05:40:40Z</time>
      </trkpt>
      <trkpt lat="41.801798762753606" lon="13.789100758731365">
        <ele>1146.98999</ele>
        <time>2017-06-18T05:40:45Z</time>
      </trkpt>
      <trkpt lat="41.801840923726559" lon="13.788934964686632">
        <ele>1146.98999</ele>
        <time>2017-06-18T05:40:52Z</time>
      </trkpt>
      <trkpt lat="41.801844360306859" lon="13.788904622197151">
        <ele>1146.98999</ele>
        <time>2017-06-18T05:40:53Z</time>
      </trkpt>
      <trkpt lat="41.80184687487781" lon="13.788890037685633">
        <ele>1146.98999</ele>
        <time>2017-06-18T05:40:54Z</time>
      </trkpt>
      <trkpt lat="41.80185517296195" lon="13.788875536993146">
        <ele>1146.98999</ele>
        <time>2017-06-18T05:40:55Z</time>
      </trkpt>
      <trkpt lat="41.801865482702851" lon="13.788861958310008">
        <ele>1146.98999</ele>
        <time>2017-06-18T05:40:56Z</time>
      </trkpt>
      <trkpt lat="41.802038317546248" lon="13.788671521469951">
        <ele>1146.98999</ele>
        <time>2017-06-18T05:41:11Z</time>
      </trkpt>
      <trkpt lat="41.802217941731215" lon="13.788478821516037">
        <ele>1147.469971</ele>
        <time>2017-06-18T05:41:28Z</time>
      </trkpt>
      <trkpt lat="41.802282063290477" lon="13.788408832624555">
        <ele>1147.469971</ele>
        <time>2017-06-18T05:41:34Z</time>
      </trkpt>
      <trkpt lat="41.802450958639383" lon="13.788173636421561">
        <ele>1147.950073</ele>
        <time>2017-06-18T05:41:54Z</time>
      </trkpt>
      <trkpt lat="41.802630331367254" lon="13.787946905940771">
        <ele>1148.9099120000001</ele>
        <time>2017-06-18T05:42:11Z</time>
      </trkpt>
      <trkpt lat="41.802824875339866" lon="13.787815477699041">
        <ele>1149.869995</ele>
        <time>2017-06-18T05:42:26Z</time>
      </trkpt>
      <trkpt lat="41.802980024367571" lon="13.787602828815579">
        <ele>1149.869995</ele>
        <time>2017-06-18T05:42:42Z</time>
      </trkpt>
      <trkpt lat="41.803155289962888" lon="13.787401160225272">
        <ele>1151.320068</ele>
        <time>2017-06-18T05:43:00Z</time>
      </trkpt>
      <trkpt lat="41.80316417478025" lon="13.787347516044974">
        <ele>1151.320068</ele>
        <time>2017-06-18T05:43:05Z</time>
      </trkpt>
      <trkpt lat="41.803076164796948" lon="13.787286663427949">
        <ele>1151.320068</ele>
        <time>2017-06-18T05:43:13Z</time>
      </trkpt>
      <trkpt lat="41.803062334656715" lon="13.787287166342139">
        <ele>1151.320068</ele>
        <time>2017-06-18T05:43:14Z</time>
      </trkpt>
      <trkpt lat="41.802853289991617" lon="13.787193540483713">
        <ele>1151.320068</ele>
        <time>2017-06-18T05:43:28Z</time>
      </trkpt>
      <trkpt lat="41.802663439884782" lon="13.787098405882716">
        <ele>1150.349976</ele>
        <time>2017-06-18T05:43:42Z</time>
      </trkpt>
      <trkpt lat="41.802538465708494" lon="13.787029590457678">
        <ele>1149.869995</ele>
        <time>2017-06-18T05:43:52Z</time>
      </trkpt>
      <trkpt lat="41.802525976672769" lon="13.787029339000583">
        <ele>1149.869995</ele>
        <time>2017-06-18T05:43:53Z</time>
      </trkpt>
      <trkpt lat="41.802516086027026" lon="13.787025567144156">
        <ele>1149.869995</ele>
        <time>2017-06-18T05:43:54Z</time>
      </trkpt>
      <trkpt lat="41.802504099905491" lon="13.787019280716777">
        <ele>1149.869995</ele>
        <time>2017-06-18T05:43:55Z</time>
      </trkpt>
      <trkpt lat="41.802491191774607" lon="13.787014335393906">
        <ele>1149.869995</ele>
        <time>2017-06-18T05:43:56Z</time>
      </trkpt>
      <trkpt lat="41.802479038015008" lon="13.787008635699749">
        <ele>1149.869995</ele>
        <time>2017-06-18T05:43:57Z</time>
      </trkpt>
      <trkpt lat="41.802292540669441" lon="13.786910902708769">
        <ele>1149.3900149999999</ele>
        <time>2017-06-18T05:44:14Z</time>
      </trkpt>
      <trkpt lat="41.802080059424043" lon="13.786792466416955">
        <ele>1148.9099120000001</ele>
        <time>2017-06-18T05:44:32Z</time>
      </trkpt>
      <trkpt lat="41.801792224869132" lon="13.786649806424975">
        <ele>1148.4300539999999</ele>
        <time>2017-06-18T05:44:54Z</time>
      </trkpt>
      <trkpt lat="41.801661299541593" lon="13.786548301577568">
        <ele>1147.950073</ele>
        <time>2017-06-18T05:45:06Z</time>
      </trkpt>
      <trkpt lat="41.801647134125233" lon="13.786541679874063">
        <ele>1147.950073</ele>
        <time>2017-06-18T05:45:07Z</time>
      </trkpt>
      <trkpt lat="41.801631962880492" lon="13.786535058170557">
        <ele>1147.950073</ele>
        <time>2017-06-18T05:45:08Z</time>
      </trkpt>
      <trkpt lat="41.801616959273815" lon="13.786528771743178">
        <ele>1147.950073</ele>
        <time>2017-06-18T05:45:09Z</time>
      </trkpt>
      <trkpt lat="41.801601871848106" lon="13.786526340991259">
        <ele>1147.950073</ele>
        <time>2017-06-18T05:45:10Z</time>
      </trkpt>
      <trkpt lat="41.801408836618066" lon="13.786465739831328">
        <ele>1147.469971</ele>
        <time>2017-06-18T05:45:27Z</time>
      </trkpt>
      <trkpt lat="41.801280090585351" lon="13.786449478939176">
        <ele>1147.469971</ele>
        <time>2017-06-18T05:45:36Z</time>
      </trkpt>
      <trkpt lat="41.801262740045786" lon="13.786438582465053">
        <ele>1147.469971</ele>
        <time>2017-06-18T05:45:38Z</time>
      </trkpt>
      <trkpt lat="41.801247736439109" lon="13.786430703476071">
        <ele>1147.469971</ele>
        <time>2017-06-18T05:45:39Z</time>
      </trkpt>
      <trkpt lat="41.801232397556305" lon="13.786422070115805">
        <ele>1147.469971</ele>
        <time>2017-06-18T05:45:40Z</time>
      </trkpt>
      <trkpt lat="41.801021760329604" lon="13.78635342232883">
        <ele>1146.98999</ele>
        <time>2017-06-18T05:45:58Z</time>
      </trkpt>
      <trkpt lat="41.800851859152317" lon="13.786310506984591">
        <ele>1146.98999</ele>
        <time>2017-06-18T05:46:11Z</time>
      </trkpt>
      <trkpt lat="41.800542818382382" lon="13.786196010187268">
        <ele>1146.51001</ele>
        <time>2017-06-18T05:46:34Z</time>
      </trkpt>
      <trkpt lat="41.800288008525968" lon="13.786092828959227">
        <ele>1146.51001</ele>
        <time>2017-06-18T05:46:52Z</time>
      </trkpt>
      <trkpt lat="41.800056165084243" lon="13.78602753393352">
        <ele>1146.030029</ele>
        <time>2017-06-18T05:47:09Z</time>
      </trkpt>
      <trkpt lat="41.799895064905286" lon="13.785982606932521">
        <ele>1146.030029</ele>
        <time>2017-06-18T05:47:23Z</time>
      </trkpt>
      <trkpt lat="41.799628771841526" lon="13.785876240581274">
        <ele>1145.5500489999999</ele>
        <time>2017-06-18T05:47:48Z</time>
      </trkpt>
      <trkpt lat="41.799337165430188" lon="13.785762833431363">
        <ele>1145.0699460000001</ele>
        <time>2017-06-18T05:48:09Z</time>
      </trkpt>
      <trkpt lat="41.799055365845561" lon="13.785636937245727">
        <ele>1144.589966</ele>
        <time>2017-06-18T05:48:32Z</time>
      </trkpt>
      <trkpt lat="41.798740793019533" lon="13.785566277801991">
        <ele>1144.589966</ele>
        <time>2017-06-18T05:48:53Z</time>
      </trkpt>
      <trkpt lat="41.79847676306963" lon="13.785498971119523">
        <ele>1144.589966</ele>
        <time>2017-06-18T05:49:13Z</time>
      </trkpt>
      <trkpt lat="41.798241818323731" lon="13.785433676093817">
        <ele>1144.589966</ele>
        <time>2017-06-18T05:49:31Z</time>
      </trkpt>
      <trkpt lat="41.798070827499032" lon="13.785407189279795">
        <ele>1146.030029</ele>
        <time>2017-06-18T05:49:45Z</time>
      </trkpt>
      <trkpt lat="41.797857340425253" lon="13.785354383289814">
        <ele>1146.51001</ele>
        <time>2017-06-18T05:50:02Z</time>
      </trkpt>
      <trkpt lat="41.797725828364491" lon="13.785248519852757">
        <ele>1146.98999</ele>
        <time>2017-06-18T05:50:15Z</time>
      </trkpt>
      <trkpt lat="41.79767151363194" lon="13.785192277282476">
        <ele>1146.98999</ele>
        <time>2017-06-18T05:50:23Z</time>
      </trkpt>
      <trkpt lat="41.797663634642959" lon="13.785181799903512">
        <ele>1146.98999</ele>
        <time>2017-06-18T05:50:24Z</time>
      </trkpt>
      <trkpt lat="41.797533631324768" lon="13.78501458093524">
        <ele>1147.469971</ele>
        <time>2017-06-18T05:50:42Z</time>
      </trkpt>
      <trkpt lat="41.797541929408908" lon="13.785036541521549">
        <ele>1147.469971</ele>
        <time>2017-06-18T05:50:53Z</time>
      </trkpt>
      <trkpt lat="41.797551736235619" lon="13.785048192366958">
        <ele>1147.469971</ele>
        <time>2017-06-18T05:50:54Z</time>
      </trkpt>
      <trkpt lat="41.797560034319758" lon="13.785058837383986">
        <ele>1147.469971</ele>
        <time>2017-06-18T05:50:55Z</time>
      </trkpt>
      <trkpt lat="41.79756791330874" lon="13.785073170438409">
        <ele>1147.469971</ele>
        <time>2017-06-18T05:50:56Z</time>
      </trkpt>
      <trkpt lat="41.797574618831277" lon="13.785088090226054">
        <ele>1147.469971</ele>
        <time>2017-06-18T05:50:57Z</time>
      </trkpt>
      <trkpt lat="41.797583336010575" lon="13.785104434937239">
        <ele>1147.469971</ele>
        <time>2017-06-18T05:50:58Z</time>
      </trkpt>
      <trkpt lat="41.797592723742127" lon="13.785119773820043">
        <ele>1147.469971</ele>
        <time>2017-06-18T05:50:59Z</time>
      </trkpt>
      <trkpt lat="41.797603201121092" lon="13.785133687779307">
        <ele>1147.469971</ele>
        <time>2017-06-18T05:51:00Z</time>
      </trkpt>
      <trkpt lat="41.79771258495748" lon="13.785405261442065">
        <ele>1147.469971</ele>
        <time>2017-06-18T05:51:16Z</time>
      </trkpt>
      <trkpt lat="41.797558274120092" lon="13.78551883623004">
        <ele>1147.469971</ele>
        <time>2017-06-18T05:51:30Z</time>
      </trkpt>
      <trkpt lat="41.797300865873694" lon="13.785595782101154">
        <ele>1146.51001</ele>
        <time>2017-06-18T05:51:49Z</time>
      </trkpt>
      <trkpt lat="41.797267338261008" lon="13.785602236166596">
        <ele>1146.51001</ele>
        <time>2017-06-18T05:51:56Z</time>
      </trkpt>
      <trkpt lat="41.797255016863346" lon="13.785606008023024">
        <ele>1146.51001</ele>
        <time>2017-06-18T05:51:57Z</time>
      </trkpt>
      <trkpt lat="41.797240935266018" lon="13.785607265308499">
        <ele>1146.51001</ele>
        <time>2017-06-18T05:51:58Z</time>
      </trkpt>
      <trkpt lat="41.797041529789567" lon="13.785616485401988">
        <ele>1147.469971</ele>
        <time>2017-06-18T05:52:12Z</time>
      </trkpt>
      <trkpt lat="41.796799879521132" lon="13.785574659705162">
        <ele>1148.4300539999999</ele>
        <time>2017-06-18T05:52:32Z</time>
      </trkpt>
      <trkpt lat="41.796766519546509" lon="13.785570133477449">
        <ele>1148.4300539999999</ele>
        <time>2017-06-18T05:52:35Z</time>
      </trkpt>
      <trkpt lat="41.796752102673054" lon="13.785562170669436">
        <ele>1149.3900149999999</ele>
        <time>2017-06-18T05:52:36Z</time>
      </trkpt>
      <trkpt lat="41.796741876751184" lon="13.785557895898819">
        <ele>1149.3900149999999</ele>
        <time>2017-06-18T05:52:37Z</time>
      </trkpt>
      <trkpt lat="41.796559318900108" lon="13.78562293946743">
        <ele>1149.3900149999999</ele>
        <time>2017-06-18T05:52:56Z</time>
      </trkpt>
      <trkpt lat="41.79635614156723" lon="13.785707177594304">
        <ele>1150.349976</ele>
        <time>2017-06-18T05:53:15Z</time>
      </trkpt>
      <trkpt lat="41.796310460194945" lon="13.785725701600313">
        <ele>1150.839966</ele>
        <time>2017-06-18T05:53:17Z</time>
      </trkpt>
      <trkpt lat="41.796182887628675" lon="13.785820500925183">
        <ele>1150.839966</ele>
        <time>2017-06-18T05:53:25Z</time>
      </trkpt>
      <trkpt lat="41.795954732224345" lon="13.785964418202639">
        <ele>1150.839966</ele>
        <time>2017-06-18T05:53:41Z</time>
      </trkpt>
      <trkpt lat="41.795716769993305" lon="13.78608226776123">
        <ele>1150.839966</ele>
        <time>2017-06-18T05:53:59Z</time>
      </trkpt>
      <trkpt lat="41.795505462214351" lon="13.7860993668437">
        <ele>1150.839966</ele>
        <time>2017-06-18T05:54:17Z</time>
      </trkpt>
      <trkpt lat="41.795274540781975" lon="13.786125602200627">
        <ele>1150.839966</ele>
        <time>2017-06-18T05:54:36Z</time>
      </trkpt>
      <trkpt lat="41.795149734243751" lon="13.786132140085101">
        <ele>1150.839966</ele>
        <time>2017-06-18T05:54:45Z</time>
      </trkpt>
      <trkpt lat="41.795136071741581" lon="13.786140941083431">
        <ele>1150.839966</ele>
        <time>2017-06-18T05:54:46Z</time>
      </trkpt>
      <trkpt lat="41.795120313763618" lon="13.786149239167571">
        <ele>1150.839966</ele>
        <time>2017-06-18T05:54:47Z</time>
      </trkpt>
      <trkpt lat="41.7951022926718" lon="13.786155441775918">
        <ele>1150.839966</ele>
        <time>2017-06-18T05:54:48Z</time>
      </trkpt>
      <trkpt lat="41.79508619941771" lon="13.786158123984933">
        <ele>1150.839966</ele>
        <time>2017-06-18T05:54:49Z</time>
      </trkpt>
      <trkpt lat="41.79506809450686" lon="13.78615845926106">
        <ele>1150.839966</ele>
        <time>2017-06-18T05:54:50Z</time>
      </trkpt>
      <trkpt lat="41.795052168890834" lon="13.786157621070743">
        <ele>1151.320068</ele>
        <time>2017-06-18T05:54:51Z</time>
      </trkpt>
      <trkpt lat="41.795037165284157" lon="13.78616382367909">
        <ele>1151.320068</ele>
        <time>2017-06-18T05:54:52Z</time>
      </trkpt>
      <trkpt lat="41.795023838058114" lon="13.786167511716485">
        <ele>1151.320068</ele>
        <time>2017-06-18T05:54:53Z</time>
      </trkpt>
      <trkpt lat="41.795011097565293" lon="13.786171618849039">
        <ele>1151.320068</ele>
        <time>2017-06-18T05:54:54Z</time>
      </trkpt>
      <trkpt lat="41.794757880270481" lon="13.786219395697117">
        <ele>1151.320068</ele>
        <time>2017-06-18T05:55:13Z</time>
      </trkpt>
      <trkpt lat="41.794742960482836" lon="13.786223838105798">
        <ele>1151.320068</ele>
        <time>2017-06-18T05:55:14Z</time>
      </trkpt>
      <trkpt lat="41.794728124514222" lon="13.786228029057384">
        <ele>1151.320068</ele>
        <time>2017-06-18T05:55:15Z</time>
      </trkpt>
      <trkpt lat="41.794715467840433" lon="13.786229705438018">
        <ele>1151.320068</ele>
        <time>2017-06-18T05:55:16Z</time>
      </trkpt>
      <trkpt lat="41.794453281909227" lon="13.786274213343859">
        <ele>1151.320068</ele>
        <time>2017-06-18T05:55:35Z</time>
      </trkpt>
      <trkpt lat="41.794248092919588" lon="13.786345878615975">
        <ele>1151.320068</ele>
        <time>2017-06-18T05:55:54Z</time>
      </trkpt>
      <trkpt lat="41.793989175930619" lon="13.786446126177907">
        <ele>1151.320068</ele>
        <time>2017-06-18T05:56:13Z</time>
      </trkpt>
      <trkpt lat="41.793926227837801" lon="13.786467835307121">
        <ele>1149.869995</ele>
        <time>2017-06-18T05:56:20Z</time>
      </trkpt>
      <trkpt lat="41.793694719672203" lon="13.786524329334497">
        <ele>1149.869995</ele>
        <time>2017-06-18T05:56:37Z</time>
      </trkpt>
      <trkpt lat="41.793497493490577" lon="13.786553330719471">
        <ele>1151.320068</ele>
        <time>2017-06-18T05:56:54Z</time>
      </trkpt>
      <trkpt lat="41.793437395244837" lon="13.786550983786583">
        <ele>1151.320068</ele>
        <time>2017-06-18T05:56:59Z</time>
      </trkpt>
      <trkpt lat="41.793426582589746" lon="13.78654939122498">
        <ele>1151.320068</ele>
        <time>2017-06-18T05:57:00Z</time>
      </trkpt>
      <trkpt lat="41.793414177373052" lon="13.786545787006617">
        <ele>1151.320068</ele>
        <time>2017-06-18T05:57:01Z</time>
      </trkpt>
      <trkpt lat="41.793225836008787" lon="13.786530029028654">
        <ele>1151.320068</ele>
        <time>2017-06-18T05:57:16Z</time>
      </trkpt>
      <trkpt lat="41.793114691972733" lon="13.786513935774565">
        <ele>1151.320068</ele>
        <time>2017-06-18T05:57:27Z</time>
      </trkpt>
      <trkpt lat="41.793101280927658" lon="13.786515612155199">
        <ele>1151.320068</ele>
        <time>2017-06-18T05:57:28Z</time>
      </trkpt>
      <trkpt lat="41.793086864054203" lon="13.786515528336167">
        <ele>1151.320068</ele>
        <time>2017-06-18T05:57:29Z</time>
      </trkpt>
      <trkpt lat="41.792872287333012" lon="13.786504380404949">
        <ele>1151.799927</ele>
        <time>2017-06-18T05:57:45Z</time>
      </trkpt>
      <trkpt lat="41.792641365900636" lon="13.786449395120144">
        <ele>1151.799927</ele>
        <time>2017-06-18T05:58:02Z</time>
      </trkpt>
      <trkpt lat="41.792452689260244" lon="13.786392481997609">
        <ele>1152.280029</ele>
        <time>2017-06-18T05:58:19Z</time>
      </trkpt>
      <trkpt lat="41.792307598516345" lon="13.786297179758549">
        <ele>1152.280029</ele>
        <time>2017-06-18T05:58:33Z</time>
      </trkpt>
      <trkpt lat="41.792122609913349" lon="13.786164410412312">
        <ele>1153.23999</ele>
        <time>2017-06-18T05:58:48Z</time>
      </trkpt>
      <trkpt lat="41.792087741196156" lon="13.786130463704467">
        <ele>1152.76001</ele>
        <time>2017-06-18T05:58:57Z</time>
      </trkpt>
      <trkpt lat="41.792075503617525" lon="13.786122919991612">
        <ele>1152.76001</ele>
        <time>2017-06-18T05:58:58Z</time>
      </trkpt>
      <trkpt lat="41.791880372911692" lon="13.78594153560698">
        <ele>1153.719971</ele>
        <time>2017-06-18T05:59:15Z</time>
      </trkpt>
      <trkpt lat="41.791699910536408" lon="13.785806922242045">
        <ele>1154.6800539999999</ele>
        <time>2017-06-18T05:59:32Z</time>
      </trkpt>
      <trkpt lat="41.791553562507033" lon="13.785694940015674">
        <ele>1155.6400149999999</ele>
        <time>2017-06-18T05:59:46Z</time>
      </trkpt>
      <trkpt lat="41.791408890858293" lon="13.785577425733209">
        <ele>1156.599976</ele>
        <time>2017-06-18T06:00:00Z</time>
      </trkpt>
      <trkpt lat="41.791323227807879" lon="13.785503664985299">
        <ele>1157.080078</ele>
        <time>2017-06-18T06:00:09Z</time>
      </trkpt>
      <trkpt lat="41.791172521188855" lon="13.785417834296823">
        <ele>1158.530029</ele>
        <time>2017-06-18T06:00:23Z</time>
      </trkpt>
      <trkpt lat="41.791041260585189" lon="13.785357233136892">
        <ele>1159.969971</ele>
        <time>2017-06-18T06:00:35Z</time>
      </trkpt>
      <trkpt lat="41.790943862870336" lon="13.785353964194655">
        <ele>1161.4099120000001</ele>
        <time>2017-06-18T06:00:46Z</time>
      </trkpt>
      <trkpt lat="41.7909318767488" lon="13.785354718565941">
        <ele>1161.4099120000001</ele>
        <time>2017-06-18T06:00:47Z</time>
      </trkpt>
      <trkpt lat="41.79081117734313" lon="13.785387072712183">
        <ele>1163.329956</ele>
        <time>2017-06-18T06:01:00Z</time>
      </trkpt>
      <trkpt lat="41.790687125176191" lon="13.785407859832048">
        <ele>1165.26001</ele>
        <time>2017-06-18T06:01:12Z</time>
      </trkpt>
      <trkpt lat="41.790648568421602" lon="13.785413475707173">
        <ele>1166.219971</ele>
        <time>2017-06-18T06:01:17Z</time>
      </trkpt>
      <trkpt lat="41.790635660290718" lon="13.785408195108175">
        <ele>1166.219971</ele>
        <time>2017-06-18T06:01:18Z</time>
      </trkpt>
      <trkpt lat="41.790552763268352" lon="13.785388581454754">
        <ele>1167.660034</ele>
        <time>2017-06-18T06:01:27Z</time>
      </trkpt>
      <trkpt lat="41.790539938956499" lon="13.785386234521866">
        <ele>1167.660034</ele>
        <time>2017-06-18T06:01:28Z</time>
      </trkpt>
      <trkpt lat="41.790454695001245" lon="13.785365698859096">
        <ele>1168.619995</ele>
        <time>2017-06-18T06:01:37Z</time>
      </trkpt>
      <trkpt lat="41.790443463250995" lon="13.785361424088478">
        <ele>1169.099976</ele>
        <time>2017-06-18T06:01:38Z</time>
      </trkpt>
      <trkpt lat="41.790341204032302" lon="13.785322280600667">
        <ele>1170.5399170000001</ele>
        <time>2017-06-18T06:01:50Z</time>
      </trkpt>
      <trkpt lat="41.790291834622622" lon="13.785295709967613">
        <ele>1171.5</ele>
        <time>2017-06-18T06:01:56Z</time>
      </trkpt>
      <trkpt lat="41.790184294804931" lon="13.785271234810352">
        <ele>1173.4300539999999</ele>
        <time>2017-06-18T06:02:07Z</time>
      </trkpt>
      <trkpt lat="41.790101397782564" lon="13.785232091322541">
        <ele>1174.3900149999999</ele>
        <time>2017-06-18T06:02:21Z</time>
      </trkpt>
      <trkpt lat="41.789971394464374" lon="13.785188924521208">
        <ele>1176.309937</ele>
        <time>2017-06-18T06:02:37Z</time>
      </trkpt>
      <trkpt lat="41.789822531864047" lon="13.785154139623046">
        <ele>1178.709961</ele>
        <time>2017-06-18T06:02:54Z</time>
      </trkpt>
      <trkpt lat="41.789757572114468" lon="13.785106111317873">
        <ele>1180.160034</ele>
        <time>2017-06-18T06:03:01Z</time>
      </trkpt>
      <trkpt lat="41.789671992883086" lon="13.785023968666792">
        <ele>1180.6400149999999</ele>
        <time>2017-06-18T06:03:11Z</time>
      </trkpt>
      <trkpt lat="41.789658581838012" lon="13.785015167668462">
        <ele>1180.6400149999999</ele>
        <time>2017-06-18T06:03:12Z</time>
      </trkpt>
      <trkpt lat="41.789533440023661" lon="13.784888768568635">
        <ele>1182.5600589999999</ele>
        <time>2017-06-18T06:03:27Z</time>
      </trkpt>
      <trkpt lat="41.789500080049038" lon="13.784866891801357">
        <ele>1182.5600589999999</ele>
        <time>2017-06-18T06:03:31Z</time>
      </trkpt>
      <trkpt lat="41.789447860792279" lon="13.784829173237085">
        <ele>1183.0399170000001</ele>
        <time>2017-06-18T06:03:37Z</time>
      </trkpt>
      <trkpt lat="41.789336297661066" lon="13.784711072221398">
        <ele>1185.4399410000001</ele>
        <time>2017-06-18T06:03:50Z</time>
      </trkpt>
      <trkpt lat="41.789325317367911" lon="13.784692883491516">
        <ele>1185.4399410000001</ele>
        <time>2017-06-18T06:03:51Z</time>
      </trkpt>
      <trkpt lat="41.789299165830016" lon="13.78454452380538">
        <ele>1185.920044</ele>
        <time>2017-06-18T06:04:03Z</time>
      </trkpt>
      <trkpt lat="41.789221465587616" lon="13.784444192424417">
        <ele>1187.849976</ele>
        <time>2017-06-18T06:04:17Z</time>
      </trkpt>
      <trkpt lat="41.78917620331049" lon="13.784403037279844">
        <ele>1188.809937</ele>
        <time>2017-06-18T06:04:31Z</time>
      </trkpt>
      <trkpt lat="41.78911023773253" lon="13.784366995096207">
        <ele>1191.690063</ele>
        <time>2017-06-18T06:04:45Z</time>
      </trkpt>
      <trkpt lat="41.789032202214003" lon="13.784320559352636">
        <ele>1193.130005</ele>
        <time>2017-06-18T06:04:58Z</time>
      </trkpt>
      <trkpt lat="41.788989538326859" lon="13.784317709505558">
        <ele>1193.130005</ele>
        <time>2017-06-18T06:05:02Z</time>
      </trkpt>
      <trkpt lat="41.788914268836379" lon="13.784357188269496">
        <ele>1196.0200199999999</ele>
        <time>2017-06-18T06:05:13Z</time>
      </trkpt>
      <trkpt lat="41.788847465068102" lon="13.784423321485519">
        <ele>1197.459961</ele>
        <time>2017-06-18T06:05:26Z</time>
      </trkpt>
      <trkpt lat="41.788733387365937" lon="13.784528095275164">
        <ele>1198.900024</ele>
        <time>2017-06-18T06:05:40Z</time>
      </trkpt>
      <trkpt lat="41.788541860878468" lon="13.784565394744277">
        <ele>1199.380005</ele>
        <time>2017-06-18T06:05:57Z</time>
      </trkpt>
      <trkpt lat="41.788361482322216" lon="13.78456698730588">
        <ele>1199.8599850000001</ele>
        <time>2017-06-18T06:06:12Z</time>
      </trkpt>
      <trkpt lat="41.78824296221137" lon="13.78454988822341">
        <ele>1200.339966</ele>
        <time>2017-06-18T06:06:22Z</time>
      </trkpt>
      <trkpt lat="41.788189737126231" lon="13.784543685615063">
        <ele>1200.339966</ele>
        <time>2017-06-18T06:06:26Z</time>
      </trkpt>
      <trkpt lat="41.788108516484499" lon="13.784513426944613">
        <ele>1200.820068</ele>
        <time>2017-06-18T06:06:43Z</time>
      </trkpt>
      <trkpt lat="41.787987817078829" lon="13.784478809684515">
        <ele>1201.790039</ele>
        <time>2017-06-18T06:07:01Z</time>
      </trkpt>
      <trkpt lat="41.787877511233091" lon="13.784446958452463">
        <ele>1202.2700199999999</ele>
        <time>2017-06-18T06:07:11Z</time>
      </trkpt>
      <trkpt lat="41.78778262808919" lon="13.784330869093537">
        <ele>1202.75</ele>
        <time>2017-06-18T06:07:27Z</time>
      </trkpt>
      <trkpt lat="41.787742730230093" lon="13.784268591552973">
        <ele>1203.2299800000001</ele>
        <time>2017-06-18T06:07:42Z</time>
      </trkpt>
      <trkpt lat="41.78767659701407" lon="13.784124674275517">
        <ele>1204.190063</ele>
        <time>2017-06-18T06:07:57Z</time>
      </trkpt>
      <trkpt lat="41.787655223160982" lon="13.784047728404403">
        <ele>1204.190063</ele>
        <time>2017-06-18T06:08:03Z</time>
      </trkpt>
      <trkpt lat="41.787659162655473" lon="13.783780932426453">
        <ele>1204.670044</ele>
        <time>2017-06-18T06:08:19Z</time>
      </trkpt>
      <trkpt lat="41.787654301151633" lon="13.783700130879879">
        <ele>1204.670044</ele>
        <time>2017-06-18T06:08:24Z</time>
      </trkpt>
      <trkpt lat="41.787622617557645" lon="13.783634835854173">
        <ele>1204.670044</ele>
        <time>2017-06-18T06:08:28Z</time>
      </trkpt>
      <trkpt lat="41.787530584260821" lon="13.783612120896578">
        <ele>1204.670044</ele>
        <time>2017-06-18T06:08:41Z</time>
      </trkpt>
      <trkpt lat="41.787520693615079" lon="13.783616311848164">
        <ele>1204.670044</ele>
        <time>2017-06-18T06:08:43Z</time>
      </trkpt>
      <trkpt lat="41.787487668916583" lon="13.78365813754499">
        <ele>1204.670044</ele>
        <time>2017-06-18T06:08:47Z</time>
      </trkpt>
      <trkpt lat="41.787434360012412" lon="13.783760564401746">
        <ele>1203.2299800000001</ele>
        <time>2017-06-18T06:08:54Z</time>
      </trkpt>
      <trkpt lat="41.787422960624099" lon="13.783824685961008">
        <ele>1202.75</ele>
        <time>2017-06-18T06:08:58Z</time>
      </trkpt>
      <trkpt lat="41.787407621741295" lon="13.783930968493223">
        <ele>1202.2700199999999</ele>
        <time>2017-06-18T06:09:06Z</time>
      </trkpt>
      <trkpt lat="41.78735607303679" lon="13.784029372036457">
        <ele>1202.2700199999999</ele>
        <time>2017-06-18T06:09:12Z</time>
      </trkpt>
      <trkpt lat="41.787178460508585" lon="13.784135319292545">
        <ele>1202.2700199999999</ele>
        <time>2017-06-18T06:09:24Z</time>
      </trkpt>
      <trkpt lat="41.787151386961341" lon="13.784156693145633">
        <ele>1202.2700199999999</ele>
        <time>2017-06-18T06:09:27Z</time>
      </trkpt>
      <trkpt lat="41.786943767219782" lon="13.784192483872175">
        <ele>1202.2700199999999</ele>
        <time>2017-06-18T06:09:43Z</time>
      </trkpt>
      <trkpt lat="41.786877885460854" lon="13.784186616539955">
        <ele>1202.2700199999999</ele>
        <time>2017-06-18T06:09:47Z</time>
      </trkpt>
      <trkpt lat="41.786812338978052" lon="13.784189382568002">
        <ele>1202.2700199999999</ele>
        <time>2017-06-18T06:09:53Z</time>
      </trkpt>
      <trkpt lat="41.786712929606438" lon="13.784119561314583">
        <ele>1202.2700199999999</ele>
        <time>2017-06-18T06:10:03Z</time>
      </trkpt>
      <trkpt lat="41.786615364253521" lon="13.784059295430779">
        <ele>1203.709961</ele>
        <time>2017-06-18T06:10:13Z</time>
      </trkpt>
      <trkpt lat="41.78648728877306" lon="13.783912779763341">
        <ele>1203.709961</ele>
        <time>2017-06-18T06:10:29Z</time>
      </trkpt>
      <trkpt lat="41.78633582778275" lon="13.783833906054497">
        <ele>1204.670044</ele>
        <time>2017-06-18T06:10:43Z</time>
      </trkpt>
      <trkpt lat="41.786157293245196" lon="13.783745728433132">
        <ele>1205.630005</ele>
        <time>2017-06-18T06:10:55Z</time>
      </trkpt>
      <trkpt lat="41.786090740934014" lon="13.783695939928293">
        <ele>1205.630005</ele>
        <time>2017-06-18T06:11:00Z</time>
      </trkpt>
      <trkpt lat="41.785930981859565" lon="13.783575324341655">
        <ele>1207.0699460000001</ele>
        <time>2017-06-18T06:11:16Z</time>
      </trkpt>
      <trkpt lat="41.785884965211153" lon="13.783517321571708">
        <ele>1207.5500489999999</ele>
        <time>2017-06-18T06:11:23Z</time>
      </trkpt>
      <trkpt lat="41.785852024331689" lon="13.783463425934315">
        <ele>1208.030029</ele>
        <time>2017-06-18T06:11:27Z</time>
      </trkpt>
      <trkpt lat="41.785754039883614" lon="13.783307606354356">
        <ele>1209</ele>
        <time>2017-06-18T06:11:41Z</time>
      </trkpt>
      <trkpt lat="41.785727217793465" lon="13.783232588320971">
        <ele>1209.4799800000001</ele>
        <time>2017-06-18T06:11:48Z</time>
      </trkpt>
      <trkpt lat="41.785618839785457" lon="13.783020526170731">
        <ele>1210.920044</ele>
        <time>2017-06-18T06:12:05Z</time>
      </trkpt>
      <trkpt lat="41.785555304959416" lon="13.782885996624827">
        <ele>1211.400024</ele>
        <time>2017-06-18T06:12:14Z</time>
      </trkpt>
      <trkpt lat="41.785479867830873" lon="13.78269606269896">
        <ele>1211.880005</ele>
        <time>2017-06-18T06:12:31Z</time>
      </trkpt>
      <trkpt lat="41.78539227694273" lon="13.782501602545381">
        <ele>1212.3599850000001</ele>
        <time>2017-06-18T06:12:47Z</time>
      </trkpt>
      <trkpt lat="41.785280462354422" lon="13.782496824860573">
        <ele>1212.839966</ele>
        <time>2017-06-18T06:13:25Z</time>
      </trkpt>
      <trkpt lat="41.785277109593153" lon="13.782371263951063">
        <ele>1212.839966</ele>
        <time>2017-06-18T06:13:50Z</time>
      </trkpt>
      <trkpt lat="41.785264117643237" lon="13.782344860956073">
        <ele>1214.2799070000001</ele>
        <time>2017-06-18T06:13:52Z</time>
      </trkpt>
      <trkpt lat="41.785224638879299" lon="13.782169762998819">
        <ele>1215.23999</ele>
        <time>2017-06-18T06:14:05Z</time>
      </trkpt>
      <trkpt lat="41.785121038556099" lon="13.781974213197827">
        <ele>1217.650024</ele>
        <time>2017-06-18T06:14:26Z</time>
      </trkpt>
      <trkpt lat="41.784997740760446" lon="13.7818409409374">
        <ele>1219.089966</ele>
        <time>2017-06-18T06:14:44Z</time>
      </trkpt>
      <trkpt lat="41.784955328330398" lon="13.781803892925382">
        <ele>1219.5699460000001</ele>
        <time>2017-06-18T06:14:49Z</time>
      </trkpt>
      <trkpt lat="41.784902438521385" lon="13.781745722517371">
        <ele>1220.0500489999999</ele>
        <time>2017-06-18T06:14:54Z</time>
      </trkpt>
      <trkpt lat="41.784808728843927" lon="13.781585292890668">
        <ele>1221.969971</ele>
        <time>2017-06-18T06:15:11Z</time>
      </trkpt>
      <trkpt lat="41.784791378304362" lon="13.781560566276312">
        <ele>1221.969971</ele>
        <time>2017-06-18T06:15:13Z</time>
      </trkpt>
      <trkpt lat="41.784760532900691" lon="13.781524188816547">
        <ele>1221.969971</ele>
        <time>2017-06-18T06:15:16Z</time>
      </trkpt>
      <trkpt lat="41.784653328359127" lon="13.781463336199522">
        <ele>1222.9300539999999</ele>
        <time>2017-06-18T06:15:28Z</time>
      </trkpt>
      <trkpt lat="41.784568838775158" lon="13.781288238242269">
        <ele>1223.900024</ele>
        <time>2017-06-18T06:15:45Z</time>
      </trkpt>
      <trkpt lat="41.784534305334091" lon="13.781123366206884">
        <ele>1224.380005</ele>
        <time>2017-06-18T06:16:00Z</time>
      </trkpt>
      <trkpt lat="41.784488037228584" lon="13.780975677073002">
        <ele>1225.339966</ele>
        <time>2017-06-18T06:16:14Z</time>
      </trkpt>
      <trkpt lat="41.784390220418572" lon="13.780835112556815">
        <ele>1225.820068</ele>
        <time>2017-06-18T06:16:29Z</time>
      </trkpt>
      <trkpt lat="41.784336073324084" lon="13.780787922441959">
        <ele>1226.7799070000001</ele>
        <time>2017-06-18T06:16:36Z</time>
      </trkpt>
      <trkpt lat="41.784250326454639" lon="13.780682561919093">
        <ele>1227.73999</ele>
        <time>2017-06-18T06:16:48Z</time>
      </trkpt>
      <trkpt lat="41.784184193238616" lon="13.780636880546808">
        <ele>1228.219971</ele>
        <time>2017-06-18T06:17:00Z</time>
      </trkpt>
      <trkpt lat="41.784058716148138" lon="13.780608382076025">
        <ele>1229.179932</ele>
        <time>2017-06-18T06:17:15Z</time>
      </trkpt>
      <trkpt lat="41.784034408628941" lon="13.780583068728447">
        <ele>1229.660034</ele>
        <time>2017-06-18T06:17:21Z</time>
      </trkpt>
      <trkpt lat="41.784017896279693" lon="13.780569992959499">
        <ele>1229.660034</ele>
        <time>2017-06-18T06:17:23Z</time>
      </trkpt>
      <trkpt lat="41.783969700336456" lon="13.780531603842974">
        <ele>1230.1400149999999</ele>
        <time>2017-06-18T06:17:29Z</time>
      </trkpt>
      <trkpt lat="41.783842295408249" lon="13.780473601073027">
        <ele>1231.1099850000001</ele>
        <time>2017-06-18T06:17:41Z</time>
      </trkpt>
      <trkpt lat="41.783814383670688" lon="13.780383495613933">
        <ele>1232.5500489999999</ele>
        <time>2017-06-18T06:17:50Z</time>
      </trkpt>
      <trkpt lat="41.783812120556831" lon="13.780378634110093">
        <ele>1232.5500489999999</ele>
        <time>2017-06-18T06:17:56Z</time>
      </trkpt>
      <trkpt lat="41.783845815807581" lon="13.7804283387959">
        <ele>1232.5500489999999</ele>
        <time>2017-06-18T06:18:07Z</time>
      </trkpt>
      <trkpt lat="41.783785298466682" lon="13.780352063477039">
        <ele>1233.030029</ele>
        <time>2017-06-18T06:18:15Z</time>
      </trkpt>
      <trkpt lat="41.783761912956834" lon="13.780291294679046">
        <ele>1233.51001</ele>
        <time>2017-06-18T06:18:19Z</time>
      </trkpt>
      <trkpt lat="41.78373727016151" lon="13.780248379334807">
        <ele>1234.469971</ele>
        <time>2017-06-18T06:18:23Z</time>
      </trkpt>
      <trkpt lat="41.783678261563182" lon="13.780175121501088">
        <ele>1234.469971</ele>
        <time>2017-06-18T06:18:33Z</time>
      </trkpt>
      <trkpt lat="41.783574661239982" lon="13.78001787699759">
        <ele>1234.950073</ele>
        <time>2017-06-18T06:18:48Z</time>
      </trkpt>
      <trkpt lat="41.783480700105429" lon="13.779846634715796">
        <ele>1234.950073</ele>
        <time>2017-06-18T06:19:01Z</time>
      </trkpt>
      <trkpt lat="41.783357905223966" lon="13.779687378555536">
        <ele>1234.950073</ele>
        <time>2017-06-18T06:19:15Z</time>
      </trkpt>
      <trkpt lat="41.783340303227305" lon="13.779660891741514">
        <ele>1234.950073</ele>
        <time>2017-06-18T06:19:17Z</time>
      </trkpt>
      <trkpt lat="41.783234104514122" lon="13.779556034132838">
        <ele>1234.950073</ele>
        <time>2017-06-18T06:19:29Z</time>
      </trkpt>
      <trkpt lat="41.783131426200271" lon="13.779440866783261">
        <ele>1235.910034</ele>
        <time>2017-06-18T06:19:44Z</time>
      </trkpt>
      <trkpt lat="41.7831299174577" lon="13.779437178745866">
        <ele>1236.3900149999999</ele>
        <time>2017-06-18T06:20:00Z</time>
      </trkpt>
      <trkpt lat="41.783112566918135" lon="13.779439860954881">
        <ele>1236.3900149999999</ele>
        <time>2017-06-18T06:20:22Z</time>
      </trkpt>
      <trkpt lat="41.783122373744845" lon="13.779426366090775">
        <ele>1236.3900149999999</ele>
        <time>2017-06-18T06:20:45Z</time>
      </trkpt>
      <trkpt lat="41.783107789233327" lon="13.779404992237687">
        <ele>1236.3900149999999</ele>
        <time>2017-06-18T06:20:59Z</time>
      </trkpt>
      <trkpt lat="41.783108627423644" lon="13.779420498758554">
        <ele>1236.3900149999999</ele>
        <time>2017-06-18T06:21:27Z</time>
      </trkpt>
      <trkpt lat="41.783110471442342" lon="13.779417313635349">
        <ele>1236.869995</ele>
        <time>2017-06-18T06:21:52Z</time>
      </trkpt>
      <trkpt lat="41.783084571361542" lon="13.779417732730508">
        <ele>1237.349976</ele>
        <time>2017-06-18T06:22:27Z</time>
      </trkpt>
      <trkpt lat="41.78310208953917" lon="13.779409937560558">
        <ele>1237.349976</ele>
        <time>2017-06-18T06:22:58Z</time>
      </trkpt>
      <trkpt lat="41.783081386238337" lon="13.779399124905467">
        <ele>1237.349976</ele>
        <time>2017-06-18T06:23:26Z</time>
      </trkpt>
      <trkpt lat="41.783084319904447" lon="13.779394011944532">
        <ele>1237.349976</ele>
        <time>2017-06-18T06:23:57Z</time>
      </trkpt>
      <trkpt lat="41.783062694594264" lon="13.779370374977589">
        <ele>1237.829956</ele>
        <time>2017-06-18T06:24:15Z</time>
      </trkpt>
      <trkpt lat="41.783062107861042" lon="13.779362663626671">
        <ele>1237.829956</ele>
        <time>2017-06-18T06:24:40Z</time>
      </trkpt>
      <trkpt lat="41.783060934394598" lon="13.779358640313148">
        <ele>1237.829956</ele>
        <time>2017-06-18T06:25:09Z</time>
      </trkpt>
      <trkpt lat="41.783054983243346" lon="13.779358807951212">
        <ele>1236.869995</ele>
        <time>2017-06-18T06:25:40Z</time>
      </trkpt>
      <trkpt lat="41.783058168366551" lon="13.779345313087106">
        <ele>1237.829956</ele>
        <time>2017-06-18T06:26:13Z</time>
      </trkpt>
      <trkpt lat="41.783028664067388" lon="13.779323771595955">
        <ele>1238.320068</ele>
        <time>2017-06-18T06:26:34Z</time>
      </trkpt>
      <trkpt lat="41.782970996573567" lon="13.779225619509816">
        <ele>1239.76001</ele>
        <time>2017-06-18T06:26:46Z</time>
      </trkpt>
      <trkpt lat="41.782930260524154" lon="13.779188571497798">
        <ele>1241.1999510000001</ele>
        <time>2017-06-18T06:26:51Z</time>
      </trkpt>
      <trkpt lat="41.782906958833337" lon="13.779168874025345">
        <ele>1241.1999510000001</ele>
        <time>2017-06-18T06:26:53Z</time>
      </trkpt>
      <trkpt lat="41.782770501449704" lon="13.779059574007988">
        <ele>1241.679932</ele>
        <time>2017-06-18T06:27:07Z</time>
      </trkpt>
      <trkpt lat="41.782612334936857" lon="13.77893703058362">
        <ele>1242.6400149999999</ele>
        <time>2017-06-18T06:27:22Z</time>
      </trkpt>
      <trkpt lat="41.782531784847379" lon="13.778880620375276">
        <ele>1242.6400149999999</ele>
        <time>2017-06-18T06:27:30Z</time>
      </trkpt>
      <trkpt lat="41.782471602782607" lon="13.778853798285127">
        <ele>1242.6400149999999</ele>
        <time>2017-06-18T06:27:35Z</time>
      </trkpt>
      <trkpt lat="41.782341683283448" lon="13.778829071670771">
        <ele>1241.679932</ele>
        <time>2017-06-18T06:27:49Z</time>
      </trkpt>
      <trkpt lat="41.782215284183621" lon="13.778767213225365">
        <ele>1241.679932</ele>
        <time>2017-06-18T06:28:05Z</time>
      </trkpt>
      <trkpt lat="41.78205493837595" lon="13.778652884066105">
        <ele>1241.1999510000001</ele>
        <time>2017-06-18T06:28:20Z</time>
      </trkpt>
      <trkpt lat="41.782014034688473" lon="13.778603095561266">
        <ele>1241.1999510000001</ele>
        <time>2017-06-18T06:28:25Z</time>
      </trkpt>
      <trkpt lat="41.781910015270114" lon="13.778435373678803">
        <ele>1240.23999</ele>
        <time>2017-06-18T06:28:40Z</time>
      </trkpt>
      <trkpt lat="41.781869865953922" lon="13.778399499133229">
        <ele>1239.2799070000001</ele>
        <time>2017-06-18T06:28:45Z</time>
      </trkpt>
      <trkpt lat="41.781837092712522" lon="13.778379214927554">
        <ele>1238.8000489999999</ele>
        <time>2017-06-18T06:28:48Z</time>
      </trkpt>
      <trkpt lat="41.781780263409019" lon="13.778352560475469">
        <ele>1237.829956</ele>
        <time>2017-06-18T06:28:54Z</time>
      </trkpt>
      <trkpt lat="41.781643973663449" lon="13.778287181630731">
        <ele>1237.349976</ele>
        <time>2017-06-18T06:29:08Z</time>
      </trkpt>
      <trkpt lat="41.781596196815372" lon="13.778288271278143">
        <ele>1237.349976</ele>
        <time>2017-06-18T06:29:12Z</time>
      </trkpt>
      <trkpt lat="41.781407436355948" lon="13.778250804170966">
        <ele>1238.320068</ele>
        <time>2017-06-18T06:29:27Z</time>
      </trkpt>
      <trkpt lat="41.78136452101171" lon="13.778197579085827">
        <ele>1238.8000489999999</ele>
        <time>2017-06-18T06:29:34Z</time>
      </trkpt>
      <trkpt lat="41.781277097761631" lon="13.778046537190676">
        <ele>1241.679932</ele>
        <time>2017-06-18T06:29:48Z</time>
      </trkpt>
      <trkpt lat="41.781231164932251" lon="13.777911504730582">
        <ele>1243.599976</ele>
        <time>2017-06-18T06:30:01Z</time>
      </trkpt>
      <trkpt lat="41.781221190467477" lon="13.777808994054794">
        <ele>1245.530029</ele>
        <time>2017-06-18T06:30:12Z</time>
      </trkpt>
      <trkpt lat="41.781184561550617" lon="13.777884263545275">
        <ele>1246.01001</ele>
        <time>2017-06-18T06:30:21Z</time>
      </trkpt>
      <trkpt lat="41.781148938462138" lon="13.777940841391683">
        <ele>1246.48999</ele>
        <time>2017-06-18T06:30:28Z</time>
      </trkpt>
      <trkpt lat="41.781122200191021" lon="13.777972022071481">
        <ele>1246.969971</ele>
        <time>2017-06-18T06:30:32Z</time>
      </trkpt>
      <trkpt lat="41.781067466363311" lon="13.778036311268806">
        <ele>1248.410034</ele>
        <time>2017-06-18T06:30:41Z</time>
      </trkpt>
      <trkpt lat="41.781030166894197" lon="13.777981996536255">
        <ele>1249.369995</ele>
        <time>2017-06-18T06:30:48Z</time>
      </trkpt>
      <trkpt lat="41.781065789982677" lon="13.777826763689518">
        <ele>1250.8100589999999</ele>
        <time>2017-06-18T06:31:01Z</time>
      </trkpt>
      <trkpt lat="41.78108406253159" lon="13.777732886373997">
        <ele>1251.7700199999999</ele>
        <time>2017-06-18T06:31:09Z</time>
      </trkpt>
      <trkpt lat="41.78110308945179" lon="13.777573294937611">
        <ele>1253.219971</ele>
        <time>2017-06-18T06:31:23Z</time>
      </trkpt>
      <trkpt lat="41.781072160229087" lon="13.777569690719247">
        <ele>1253.6999510000001</ele>
        <time>2017-06-18T06:31:29Z</time>
      </trkpt>
      <trkpt lat="41.780977360904217" lon="13.777631465345621">
        <ele>1256.099976</ele>
        <time>2017-06-18T06:31:42Z</time>
      </trkpt>
      <trkpt lat="41.780894799157977" lon="13.777651330456138">
        <ele>1257.059937</ele>
        <time>2017-06-18T06:31:51Z</time>
      </trkpt>
      <trkpt lat="41.780808968469501" lon="13.777576563879848">
        <ele>1257.059937</ele>
        <time>2017-06-18T06:32:01Z</time>
      </trkpt>
      <trkpt lat="41.780738476663828" lon="13.77746039070189">
        <ele>1257.059937</ele>
        <time>2017-06-18T06:32:12Z</time>
      </trkpt>
      <trkpt lat="41.780684078112245" lon="13.777314964681864">
        <ele>1257.059937</ele>
        <time>2017-06-18T06:32:23Z</time>
      </trkpt>
      <trkpt lat="41.780587015673518" lon="13.777222763746977">
        <ele>1258.5</ele>
        <time>2017-06-18T06:32:35Z</time>
      </trkpt>
      <trkpt lat="41.780526163056493" lon="13.777207341045141">
        <ele>1258.9799800000001</ele>
        <time>2017-06-18T06:32:40Z</time>
      </trkpt>
      <trkpt lat="41.780465561896563" lon="13.777176328003407">
        <ele>1260.4300539999999</ele>
        <time>2017-06-18T06:32:45Z</time>
      </trkpt>
      <trkpt lat="41.780393058434129" lon="13.777114637196064">
        <ele>1261.8701169999999</ele>
        <time>2017-06-18T06:32:55Z</time>
      </trkpt>
      <trkpt lat="41.780331032350659" lon="13.777063507586718">
        <ele>1262.829956</ele>
        <time>2017-06-18T06:33:03Z</time>
      </trkpt>
      <trkpt lat="41.780257439240813" lon="13.777028806507587">
        <ele>1263.7899170000001</ele>
        <time>2017-06-18T06:33:12Z</time>
      </trkpt>
      <trkpt lat="41.780135817825794" lon="13.776959739625454">
        <ele>1265.709961</ele>
        <time>2017-06-18T06:33:25Z</time>
      </trkpt>
      <trkpt lat="41.780115198343992" lon="13.776930822059512">
        <ele>1266.670044</ele>
        <time>2017-06-18T06:33:28Z</time>
      </trkpt>
      <trkpt lat="41.780000617727637" lon="13.776882207021117">
        <ele>1268.119995</ele>
        <time>2017-06-18T06:33:42Z</time>
      </trkpt>
      <trkpt lat="41.779973125085235" lon="13.776853792369366">
        <ele>1268.6000979999999</ele>
        <time>2017-06-18T06:33:46Z</time>
      </trkpt>
      <trkpt lat="41.779928030446172" lon="13.776813978329301">
        <ele>1268.119995</ele>
        <time>2017-06-18T06:33:51Z</time>
      </trkpt>
      <trkpt lat="41.779849240556359" lon="13.776802914217114">
        <ele>1270.040039</ele>
        <time>2017-06-18T06:34:00Z</time>
      </trkpt>
      <trkpt lat="41.77975787781179" lon="13.77665120176971">
        <ele>1270.5198969999999</ele>
        <time>2017-06-18T06:34:13Z</time>
      </trkpt>
      <trkpt lat="41.779722087085247" lon="13.776572495698929">
        <ele>1271.4801030000001</ele>
        <time>2017-06-18T06:34:19Z</time>
      </trkpt>
      <trkpt lat="41.779704568907619" lon="13.776370827108622">
        <ele>1271.959961</ele>
        <time>2017-06-18T06:34:33Z</time>
      </trkpt>
      <trkpt lat="41.779698366299272" lon="13.77635171636939">
        <ele>1271.959961</ele>
        <time>2017-06-18T06:34:35Z</time>
      </trkpt>
      <trkpt lat="41.779620079323649" lon="13.776257168501616">
        <ele>1273.880005</ele>
        <time>2017-06-18T06:34:49Z</time>
      </trkpt>
      <trkpt lat="41.779567776247859" lon="13.776206625625491">
        <ele>1274.3599850000001</ele>
        <time>2017-06-18T06:35:09Z</time>
      </trkpt>
      <trkpt lat="41.779528465121984" lon="13.776142839342356">
        <ele>1275.8100589999999</ele>
        <time>2017-06-18T06:35:18Z</time>
      </trkpt>
      <trkpt lat="41.779473060742021" lon="13.776083579286933">
        <ele>1276.7700199999999</ele>
        <time>2017-06-18T06:35:27Z</time>
      </trkpt>
      <trkpt lat="41.779344817623496" lon="13.776027336716652">
        <ele>1277.7299800000001</ele>
        <time>2017-06-18T06:35:41Z</time>
      </trkpt>
      <trkpt lat="41.779304165393114" lon="13.776012333109975">
        <ele>1278.2100829999999</ele>
        <time>2017-06-18T06:35:45Z</time>
      </trkpt>
      <trkpt lat="41.779189333319664" lon="13.77596371807158">
        <ele>1279.170044</ele>
        <time>2017-06-18T06:35:56Z</time>
      </trkpt>
      <trkpt lat="41.779078273102641" lon="13.775909235700965">
        <ele>1281.0900879999999</ele>
        <time>2017-06-18T06:36:11Z</time>
      </trkpt>
      <trkpt lat="41.779028316959739" lon="13.775894986465573">
        <ele>1281.5699460000001</ele>
        <time>2017-06-18T06:36:17Z</time>
      </trkpt>
      <trkpt lat="41.77894139662385" lon="13.775825165212154">
        <ele>1283.5</ele>
        <time>2017-06-18T06:36:28Z</time>
      </trkpt>
      <trkpt lat="41.778915664181113" lon="13.775805132463574">
        <ele>1283.5</ele>
        <time>2017-06-18T06:36:31Z</time>
      </trkpt>
      <trkpt lat="41.77888372913003" lon="13.775784512981772">
        <ele>1283.9799800000001</ele>
        <time>2017-06-18T06:36:35Z</time>
      </trkpt>
      <trkpt lat="41.778721204027534" lon="13.775644367560744">
        <ele>1284.940063</ele>
        <time>2017-06-18T06:36:50Z</time>
      </trkpt>
      <trkpt lat="41.778639564290643" lon="13.77553422935307">
        <ele>1285.900024</ele>
        <time>2017-06-18T06:37:01Z</time>
      </trkpt>
      <trkpt lat="41.778628332540393" lon="13.775516459718347">
        <ele>1285.900024</ele>
        <time>2017-06-18T06:37:03Z</time>
      </trkpt>
      <trkpt lat="41.77853386849165" lon="13.775440184399486">
        <ele>1286.8599850000001</ele>
        <time>2017-06-18T06:37:16Z</time>
      </trkpt>
      <trkpt lat="41.778527917340398" lon="13.775434317067266">
        <ele>1287.820068</ele>
        <time>2017-06-18T06:37:17Z</time>
      </trkpt>
      <trkpt lat="41.778515512123704" lon="13.775402717292309">
        <ele>1287.820068</ele>
        <time>2017-06-18T06:37:20Z</time>
      </trkpt>
      <trkpt lat="41.778477793559432" lon="13.775340188294649">
        <ele>1288.780029</ele>
        <time>2017-06-18T06:37:25Z</time>
      </trkpt>
      <trkpt lat="41.778433201834559" lon="13.775308169424534">
        <ele>1289.2700199999999</ele>
        <time>2017-06-18T06:37:30Z</time>
      </trkpt>
      <trkpt lat="41.778361033648252" lon="13.775245221331716">
        <ele>1290.2299800000001</ele>
        <time>2017-06-18T06:37:41Z</time>
      </trkpt>
      <trkpt lat="41.778300264850259" lon="13.775188727304339">
        <ele>1292.150024</ele>
        <time>2017-06-18T06:37:53Z</time>
      </trkpt>
      <trkpt lat="41.778251817449927" lon="13.775124941021204">
        <ele>1294.070068</ele>
        <time>2017-06-18T06:38:06Z</time>
      </trkpt>
      <trkpt lat="41.778202028945088" lon="13.775067776441574">
        <ele>1294.5500489999999</ele>
        <time>2017-06-18T06:38:18Z</time>
      </trkpt>
      <trkpt lat="41.778080239892006" lon="13.775021508336067">
        <ele>1296.4801030000001</ele>
        <time>2017-06-18T06:38:32Z</time>
      </trkpt>
      <trkpt lat="41.777977226302028" lon="13.774894690141082">
        <ele>1298.3999020000001</ele>
        <time>2017-06-18T06:38:46Z</time>
      </trkpt>
      <trkpt lat="41.777890138328075" lon="13.774850685149431">
        <ele>1300.3199460000001</ele>
        <time>2017-06-18T06:38:57Z</time>
      </trkpt>
      <trkpt lat="41.777866082265973" lon="13.774829059839249">
        <ele>1301.280029</ele>
        <time>2017-06-18T06:39:00Z</time>
      </trkpt>
      <trkpt lat="41.777775306254625" lon="13.774706516414881">
        <ele>1302.719971</ele>
        <time>2017-06-18T06:39:13Z</time>
      </trkpt>
      <trkpt lat="41.777708921581507" lon="13.774564191699028">
        <ele>1305.1298830000001</ele>
        <time>2017-06-18T06:39:28Z</time>
      </trkpt>
      <trkpt lat="41.777698192745447" lon="13.774536363780499">
        <ele>1305.1298830000001</ele>
        <time>2017-06-18T06:39:31Z</time>
      </trkpt>
      <trkpt lat="41.777674136683345" lon="13.774502165615559">
        <ele>1305.610107</ele>
        <time>2017-06-18T06:39:35Z</time>
      </trkpt>
      <trkpt lat="41.777636921033263" lon="13.774473918601871">
        <ele>1308.01001</ele>
        <time>2017-06-18T06:39:42Z</time>
      </trkpt>
      <trkpt lat="41.777575062587857" lon="13.774410802870989">
        <ele>1308.969971</ele>
        <time>2017-06-18T06:39:55Z</time>
      </trkpt>
      <trkpt lat="41.777532063424587" lon="13.774364115670323">
        <ele>1310.410034</ele>
        <time>2017-06-18T06:40:07Z</time>
      </trkpt>
      <trkpt lat="41.777524603530765" lon="13.774363780394197">
        <ele>1310.900024</ele>
        <time>2017-06-18T06:40:08Z</time>
      </trkpt>
      <trkpt lat="41.777438772842288" lon="13.774317596107721">
        <ele>1312.3400879999999</ele>
        <time>2017-06-18T06:40:21Z</time>
      </trkpt>
      <trkpt lat="41.777362832799554" lon="13.774336958304048">
        <ele>1313.780029</ele>
        <time>2017-06-18T06:40:35Z</time>
      </trkpt>
      <trkpt lat="41.777257137000561" lon="13.774248780682683">
        <ele>1316.179932</ele>
        <time>2017-06-18T06:40:49Z</time>
      </trkpt>
      <trkpt lat="41.777229141443968" lon="13.774233860895038">
        <ele>1317.619995</ele>
        <time>2017-06-18T06:40:53Z</time>
      </trkpt>
      <trkpt lat="41.777131576091051" lon="13.774127494543791">
        <ele>1319.5500489999999</ele>
        <time>2017-06-18T06:41:10Z</time>
      </trkpt>
      <trkpt lat="41.777092767879367" lon="13.773982403799891">
        <ele>1321.4700929999999</ele>
        <time>2017-06-18T06:41:25Z</time>
      </trkpt>
      <trkpt lat="41.777040464803576" lon="13.773872936144471">
        <ele>1324.3500979999999</ele>
        <time>2017-06-18T06:41:42Z</time>
      </trkpt>
      <trkpt lat="41.777001908048987" lon="13.773932531476021">
        <ele>1327.23999</ele>
        <time>2017-06-18T06:41:57Z</time>
      </trkpt>
      <trkpt lat="41.77694289945066" lon="13.77398282289505">
        <ele>1329.160034</ele>
        <time>2017-06-18T06:42:13Z</time>
      </trkpt>
      <trkpt lat="41.776853380724788" lon="13.773975195363164">
        <ele>1331.5600589999999</ele>
        <time>2017-06-18T06:42:28Z</time>
      </trkpt>
      <trkpt lat="41.776789762079716" lon="13.774000927805901">
        <ele>1333.48999</ele>
        <time>2017-06-18T06:42:39Z</time>
      </trkpt>
      <trkpt lat="41.776726311072707" lon="13.774055661633611">
        <ele>1335.410034</ele>
        <time>2017-06-18T06:42:50Z</time>
      </trkpt>
      <trkpt lat="41.776724886149168" lon="13.774057924747467">
        <ele>1335.410034</ele>
        <time>2017-06-18T06:42:51Z</time>
      </trkpt>
      <trkpt lat="41.776647521182895" lon="13.774097068235278">
        <ele>1337.329956</ele>
        <time>2017-06-18T06:43:02Z</time>
      </trkpt>
      <trkpt lat="41.776629583910108" lon="13.774092039093375">
        <ele>1337.329956</ele>
        <time>2017-06-18T06:43:05Z</time>
      </trkpt>
      <trkpt lat="41.776613993570209" lon="13.774031605571508">
        <ele>1338.290039</ele>
        <time>2017-06-18T06:43:17Z</time>
      </trkpt>
      <trkpt lat="41.776616424322128" lon="13.774017775431275">
        <ele>1338.290039</ele>
        <time>2017-06-18T06:43:18Z</time>
      </trkpt>
      <trkpt lat="41.776590524241328" lon="13.773963963612914">
        <ele>1338.290039</ele>
        <time>2017-06-18T06:43:23Z</time>
      </trkpt>
      <trkpt lat="41.776480805128813" lon="13.773862961679697">
        <ele>1339.7299800000001</ele>
        <time>2017-06-18T06:43:36Z</time>
      </trkpt>
      <trkpt lat="41.776361195370555" lon="13.773784507066011">
        <ele>1340.6999510000001</ele>
        <time>2017-06-18T06:43:48Z</time>
      </trkpt>
      <trkpt lat="41.776222139596939" lon="13.773691300302744">
        <ele>1340.2200929999999</ele>
        <time>2017-06-18T06:44:02Z</time>
      </trkpt>
      <trkpt lat="41.776093058288097" lon="13.77358359284699">
        <ele>1342.1400149999999</ele>
        <time>2017-06-18T06:44:16Z</time>
      </trkpt>
      <trkpt lat="41.775990631431341" lon="13.773531876504421">
        <ele>1342.619995</ele>
        <time>2017-06-18T06:44:29Z</time>
      </trkpt>
      <trkpt lat="41.775959618389606" lon="13.773498935624957">
        <ele>1341.6599120000001</ele>
        <time>2017-06-18T06:44:43Z</time>
      </trkpt>
      <trkpt lat="41.775869261473417" lon="13.77347613684833">
        <ele>1343.579956</ele>
        <time>2017-06-18T06:44:54Z</time>
      </trkpt>
      <trkpt lat="41.775840763002634" lon="13.773459373041987">
        <ele>1345.0200199999999</ele>
        <time>2017-06-18T06:44:57Z</time>
      </trkpt>
      <trkpt lat="41.775735234841704" lon="13.773438334465027">
        <ele>1345.0200199999999</ele>
        <time>2017-06-18T06:45:09Z</time>
      </trkpt>
      <trkpt lat="41.775621911510825" lon="13.773352839052677">
        <ele>1347.910034</ele>
        <time>2017-06-18T06:45:20Z</time>
      </trkpt>
      <trkpt lat="41.775505235418677" lon="13.773239767178893">
        <ele>1349.3500979999999</ele>
        <time>2017-06-18T06:45:33Z</time>
      </trkpt>
      <trkpt lat="41.775409765541553" lon="13.773120911791921">
        <ele>1351.75</ele>
        <time>2017-06-18T06:45:47Z</time>
      </trkpt>
      <trkpt lat="41.775337178260088" lon="13.773005828261375">
        <ele>1353.669922</ele>
        <time>2017-06-18T06:45:58Z</time>
      </trkpt>
      <trkpt lat="41.775283869355917" lon="13.772960817441344">
        <ele>1354.630005</ele>
        <time>2017-06-18T06:46:04Z</time>
      </trkpt>
      <trkpt lat="41.775270374491811" lon="13.772947322577238">
        <ele>1354.630005</ele>
        <time>2017-06-18T06:46:06Z</time>
      </trkpt>
      <trkpt lat="41.775235338136554" lon="13.772901138290763">
        <ele>1355.119995</ele>
        <time>2017-06-18T06:46:11Z</time>
      </trkpt>
      <trkpt lat="41.775135761126876" lon="13.772765267640352">
        <ele>1356.080078</ele>
        <time>2017-06-18T06:46:27Z</time>
      </trkpt>
      <trkpt lat="41.775073818862438" lon="13.772622523829341">
        <ele>1357.5200199999999</ele>
        <time>2017-06-18T06:46:40Z</time>
      </trkpt>
      <trkpt lat="41.775027634575963" lon="13.772400990128517">
        <ele>1358.9600829999999</ele>
        <time>2017-06-18T06:46:53Z</time>
      </trkpt>
      <trkpt lat="41.774963764473796" lon="13.772204183042049">
        <ele>1361.3599850000001</ele>
        <time>2017-06-18T06:47:07Z</time>
      </trkpt>
      <trkpt lat="41.774903163313866" lon="13.772100415080786">
        <ele>1361.839966</ele>
        <time>2017-06-18T06:47:16Z</time>
      </trkpt>
      <trkpt lat="41.774816913530231" lon="13.772022714838386">
        <ele>1364.25</ele>
        <time>2017-06-18T06:47:29Z</time>
      </trkpt>
      <trkpt lat="41.774724293500185" lon="13.771988935768604">
        <ele>1364.7299800000001</ele>
        <time>2017-06-18T06:47:40Z</time>
      </trkpt>
      <trkpt lat="41.774713564664125" lon="13.771980637684464">
        <ele>1364.7299800000001</ele>
        <time>2017-06-18T06:47:41Z</time>
      </trkpt>
      <trkpt lat="41.774633014574647" lon="13.771876534447074">
        <ele>1365.2100829999999</ele>
        <time>2017-06-18T06:47:51Z</time>
      </trkpt>
      <trkpt lat="41.774582890793681" lon="13.771810233592987">
        <ele>1366.650024</ele>
        <time>2017-06-18T06:47:57Z</time>
      </trkpt>
      <trkpt lat="41.774436878040433" lon="13.771671932190657">
        <ele>1364.7299800000001</ele>
        <time>2017-06-18T06:48:12Z</time>
      </trkpt>
      <trkpt lat="41.774329589679837" lon="13.771527176722884">
        <ele>1364.7299800000001</ele>
        <time>2017-06-18T06:48:24Z</time>
      </trkpt>
      <trkpt lat="41.774322967976332" lon="13.771479902788997">
        <ele>1364.7299800000001</ele>
        <time>2017-06-18T06:48:27Z</time>
      </trkpt>
      <trkpt lat="41.774291535839438" lon="13.771414440125227">
        <ele>1364.7299800000001</ele>
        <time>2017-06-18T06:48:32Z</time>
      </trkpt>
      <trkpt lat="41.774165639653802" lon="13.771232385188341">
        <ele>1366.650024</ele>
        <time>2017-06-18T06:48:49Z</time>
      </trkpt>
      <trkpt lat="41.774063799530268" lon="13.771153427660465">
        <ele>1368.570068</ele>
        <time>2017-06-18T06:49:02Z</time>
      </trkpt>
      <trkpt lat="41.773947961628437" lon="13.771116798743606">
        <ele>1370.0200199999999</ele>
        <time>2017-06-18T06:49:14Z</time>
      </trkpt>
      <trkpt lat="41.773921139538288" lon="13.770948238670826">
        <ele>1370.9799800000001</ele>
        <time>2017-06-18T06:49:27Z</time>
      </trkpt>
      <trkpt lat="41.773810079321265" lon="13.770796861499548">
        <ele>1369.540039</ele>
        <time>2017-06-18T06:49:42Z</time>
      </trkpt>
      <trkpt lat="41.773687368258834" lon="13.770778924226761">
        <ele>1370.5</ele>
        <time>2017-06-18T06:49:55Z</time>
      </trkpt>
      <trkpt lat="41.773650320246816" lon="13.770762160420418">
        <ele>1371.459961</ele>
        <time>2017-06-18T06:49:59Z</time>
      </trkpt>
      <trkpt lat="41.773477401584387" lon="13.770754365250468">
        <ele>1372.420044</ele>
        <time>2017-06-18T06:50:15Z</time>
      </trkpt>
      <trkpt lat="41.773381596431136" lon="13.770741038024426">
        <ele>1372.900024</ele>
        <time>2017-06-18T06:50:24Z</time>
      </trkpt>
      <trkpt lat="41.773241199553013" lon="13.770666858181357">
        <ele>1371.940063</ele>
        <time>2017-06-18T06:50:37Z</time>
      </trkpt>
      <trkpt lat="41.773087559267879" lon="13.770528640598059">
        <ele>1371.459961</ele>
        <time>2017-06-18T06:50:51Z</time>
      </trkpt>
      <trkpt lat="41.773027628660202" lon="13.770454293116927">
        <ele>1371.459961</ele>
        <time>2017-06-18T06:50:57Z</time>
      </trkpt>
      <trkpt lat="41.772877592593431" lon="13.770343903452158">
        <ele>1374.820068</ele>
        <time>2017-06-18T06:51:11Z</time>
      </trkpt>
      <trkpt lat="41.772720515727997" lon="13.770345998927951">
        <ele>1372.900024</ele>
        <time>2017-06-18T06:51:26Z</time>
      </trkpt>
      <trkpt lat="41.772691011428833" lon="13.770340131595731">
        <ele>1375.3000489999999</ele>
        <time>2017-06-18T06:51:29Z</time>
      </trkpt>
      <trkpt lat="41.772544076666236" lon="13.770411126315594">
        <ele>1377.2299800000001</ele>
        <time>2017-06-18T06:51:44Z</time>
      </trkpt>
      <trkpt lat="41.772391023114324" lon="13.770475164055824">
        <ele>1378.1899410000001</ele>
        <time>2017-06-18T06:51:57Z</time>
      </trkpt>
      <trkpt lat="41.772264204919338" lon="13.770572561770678">
        <ele>1378.1899410000001</ele>
        <time>2017-06-18T06:52:10Z</time>
      </trkpt>
      <trkpt lat="41.772229839116335" lon="13.770572058856487">
        <ele>1380.1099850000001</ele>
        <time>2017-06-18T06:52:16Z</time>
      </trkpt>
      <trkpt lat="41.772235119715333" lon="13.770562000572681">
        <ele>1380.1099850000001</ele>
        <time>2017-06-18T06:52:17Z</time>
      </trkpt>
      <trkpt lat="41.772226402536035" lon="13.770496034994721">
        <ele>1378.669922</ele>
        <time>2017-06-18T06:52:22Z</time>
      </trkpt>
      <trkpt lat="41.772188935428858" lon="13.770371060818434">
        <ele>1380.1099850000001</ele>
        <time>2017-06-18T06:52:30Z</time>
      </trkpt>
      <trkpt lat="41.772154485806823" lon="13.770284308120608">
        <ele>1380.1099850000001</ele>
        <time>2017-06-18T06:52:36Z</time>
      </trkpt>
      <trkpt lat="41.772090280428529" lon="13.770162602886558">
        <ele>1381.5500489999999</ele>
        <time>2017-06-18T06:52:46Z</time>
      </trkpt>
      <trkpt lat="41.771992212161422" lon="13.770059505477548">
        <ele>1383.469971</ele>
        <time>2017-06-18T06:53:01Z</time>
      </trkpt>
      <trkpt lat="41.771900011226535" lon="13.769899914041162">
        <ele>1383.9600829999999</ele>
        <time>2017-06-18T06:53:14Z</time>
      </trkpt>
      <trkpt lat="41.77185676060617" lon="13.769846521317959">
        <ele>1384.4399410000001</ele>
        <time>2017-06-18T06:53:19Z</time>
      </trkpt>
      <trkpt lat="41.77174243144691" lon="13.769785668700933">
        <ele>1385.880005</ele>
        <time>2017-06-18T06:53:34Z</time>
      </trkpt>
      <trkpt lat="41.771617541089654" lon="13.76974887214601">
        <ele>1387.799927</ele>
        <time>2017-06-18T06:53:47Z</time>
      </trkpt>
      <trkpt lat="41.771499523892999" lon="13.769685504958034">
        <ele>1390.6800539999999</ele>
        <time>2017-06-18T06:54:01Z</time>
      </trkpt>
      <trkpt lat="41.771440096199512" lon="13.769563883543015">
        <ele>1392.610107</ele>
        <time>2017-06-18T06:54:15Z</time>
      </trkpt>
      <trkpt lat="41.771420314908028" lon="13.769445614889264">
        <ele>1395.01001</ele>
        <time>2017-06-18T06:54:29Z</time>
      </trkpt>
      <trkpt lat="41.771358791738749" lon="13.769497415050864">
        <ele>1396.929932</ele>
        <time>2017-06-18T06:54:41Z</time>
      </trkpt>
      <trkpt lat="41.771265501156449" lon="13.769563799723983">
        <ele>1399.3400879999999</ele>
        <time>2017-06-18T06:54:57Z</time>
      </trkpt>
      <trkpt lat="41.771194422617555" lon="13.769630938768387">
        <ele>1401.7398679999999</ele>
        <time>2017-06-18T06:55:10Z</time>
      </trkpt>
      <trkpt lat="41.771144634112716" lon="13.769680559635162">
        <ele>1403.6599120000001</ele>
        <time>2017-06-18T06:55:25Z</time>
      </trkpt>
      <trkpt lat="41.77106031216681" lon="13.769740490242839">
        <ele>1406.0699460000001</ele>
        <time>2017-06-18T06:55:39Z</time>
      </trkpt>
      <trkpt lat="41.770960902795196" lon="13.76976303756237">
        <ele>1408.469971</ele>
        <time>2017-06-18T06:55:54Z</time>
      </trkpt>
      <trkpt lat="41.770881358534098" lon="13.769734036177397">
        <ele>1410.869995</ele>
        <time>2017-06-18T06:56:07Z</time>
      </trkpt>
      <trkpt lat="41.770804664120078" lon="13.769693803042173">
        <ele>1413.280029</ele>
        <time>2017-06-18T06:56:19Z</time>
      </trkpt>
      <trkpt lat="41.770727969706059" lon="13.769698496907949">
        <ele>1415.1999510000001</ele>
        <time>2017-06-18T06:56:32Z</time>
      </trkpt>
      <trkpt lat="41.770593440160155" lon="13.769658515229821">
        <ele>1417.599976</ele>
        <time>2017-06-18T06:56:48Z</time>
      </trkpt>
      <trkpt lat="41.770490510389209" lon="13.769677458330989">
        <ele>1419.5200199999999</ele>
        <time>2017-06-18T06:57:03Z</time>
      </trkpt>
      <trkpt lat="41.770406272262335" lon="13.769654240459204">
        <ele>1421.4499510000001</ele>
        <time>2017-06-18T06:57:12Z</time>
      </trkpt>
      <trkpt lat="41.770328236743808" lon="13.769611828029156">
        <ele>1424.329956</ele>
        <time>2017-06-18T06:57:24Z</time>
      </trkpt>
      <trkpt lat="41.770325303077698" lon="13.769603865221143">
        <ele>1424.329956</ele>
        <time>2017-06-18T06:57:25Z</time>
      </trkpt>
      <trkpt lat="41.770221870392561" lon="13.769570169970393">
        <ele>1425.7700199999999</ele>
        <time>2017-06-18T06:57:37Z</time>
      </trkpt>
      <trkpt lat="41.77015196532011" lon="13.769469168037176">
        <ele>1428.179932</ele>
        <time>2017-06-18T06:57:49Z</time>
      </trkpt>
      <trkpt lat="41.770103266462684" lon="13.7693643104285">
        <ele>1430.099976</ele>
        <time>2017-06-18T06:58:01Z</time>
      </trkpt>
      <trkpt lat="41.770087173208594" lon="13.769339583814144">
        <ele>1430.099976</ele>
        <time>2017-06-18T06:58:04Z</time>
      </trkpt>
      <trkpt lat="41.77004006691277" lon="13.769216286018491">
        <ele>1430.579956</ele>
        <time>2017-06-18T06:58:17Z</time>
      </trkpt>
      <trkpt lat="41.770035205408931" lon="13.769215196371078">
        <ele>1430.579956</ele>
        <time>2017-06-18T06:58:18Z</time>
      </trkpt>
      <trkpt lat="41.769916601479053" lon="13.769194660708308">
        <ele>1431.059937</ele>
        <time>2017-06-18T06:58:31Z</time>
      </trkpt>
      <trkpt lat="41.769768912345171" lon="13.769083684310317">
        <ele>1432.5</ele>
        <time>2017-06-18T06:58:46Z</time>
      </trkpt>
      <trkpt lat="41.769762793555856" lon="13.769065830856562">
        <ele>1432.5</ele>
        <time>2017-06-18T06:58:47Z</time>
      </trkpt>
      <trkpt lat="41.769768493250012" lon="13.769000368192792">
        <ele>1431.5399170000001</ele>
        <time>2017-06-18T06:59:03Z</time>
      </trkpt>
      <trkpt lat="41.769754998385906" lon="13.769001038745046">
        <ele>1431.5399170000001</ele>
        <time>2017-06-18T06:59:09Z</time>
      </trkpt>
      <trkpt lat="41.769731361418962" lon="13.768997434526682">
        <ele>1432.9799800000001</ele>
        <time>2017-06-18T06:59:11Z</time>
      </trkpt>
      <trkpt lat="41.769641591235995" lon="13.768914872780442">
        <ele>1432.0200199999999</ele>
        <time>2017-06-18T06:59:18Z</time>
      </trkpt>
      <trkpt lat="41.769619463011622" lon="13.768891822546721">
        <ele>1432.0200199999999</ele>
        <time>2017-06-18T06:59:20Z</time>
      </trkpt>
      <trkpt lat="41.769509995356202" lon="13.768663499504328">
        <ele>1431.5399170000001</ele>
        <time>2017-06-18T06:59:37Z</time>
      </trkpt>
      <trkpt lat="41.769430031999946" lon="13.768522432073951">
        <ele>1431.059937</ele>
        <time>2017-06-18T06:59:48Z</time>
      </trkpt>
      <trkpt lat="41.769400360062718" lon="13.76845202408731">
        <ele>1431.059937</ele>
        <time>2017-06-18T06:59:52Z</time>
      </trkpt>
      <trkpt lat="41.769279073923826" lon="13.76822336576879">
        <ele>1431.5399170000001</ele>
        <time>2017-06-18T07:00:08Z</time>
      </trkpt>
      <trkpt lat="41.769188214093447" lon="13.768085315823555">
        <ele>1433.9399410000001</ele>
        <time>2017-06-18T07:00:21Z</time>
      </trkpt>
      <trkpt lat="41.769106239080429" lon="13.767972411587834">
        <ele>1434.910034</ele>
        <time>2017-06-18T07:00:35Z</time>
      </trkpt>
      <trkpt lat="41.769041111692786" lon="13.767930334433913">
        <ele>1435.3900149999999</ele>
        <time>2017-06-18T07:00:43Z</time>
      </trkpt>
      <trkpt lat="41.768920412287116" lon="13.767821872606874">
        <ele>1436.830078</ele>
        <time>2017-06-18T07:00:58Z</time>
      </trkpt>
      <trkpt lat="41.768777081742883" lon="13.767712907865644">
        <ele>1437.7899170000001</ele>
        <time>2017-06-18T07:01:11Z</time>
      </trkpt>
      <trkpt lat="41.768713966012001" lon="13.767530936747789">
        <ele>1439.2299800000001</ele>
        <time>2017-06-18T07:01:25Z</time>
      </trkpt>
      <trkpt lat="41.768685383722186" lon="13.767458768561482">
        <ele>1439.709961</ele>
        <time>2017-06-18T07:01:30Z</time>
      </trkpt>
      <trkpt lat="41.76855462603271" lon="13.767325161024928">
        <ele>1441.630005</ele>
        <time>2017-06-18T07:01:44Z</time>
      </trkpt>
      <trkpt lat="41.768444320186973" lon="13.767306134104729">
        <ele>1443.080078</ele>
        <time>2017-06-18T07:01:58Z</time>
      </trkpt>
      <trkpt lat="41.768358405679464" lon="13.767182165756822">
        <ele>1444.040039</ele>
        <time>2017-06-18T07:02:12Z</time>
      </trkpt>
      <trkpt lat="41.768296379595995" lon="13.767092395573854">
        <ele>1444.040039</ele>
        <time>2017-06-18T07:02:23Z</time>
      </trkpt>
      <trkpt lat="41.768203340470791" lon="13.766985693946481">
        <ele>1444.040039</ele>
        <time>2017-06-18T07:02:36Z</time>
      </trkpt>
      <trkpt lat="41.768112313002348" lon="13.766908831894398">
        <ele>1442.599976</ele>
        <time>2017-06-18T07:02:45Z</time>
      </trkpt>
      <trkpt lat="41.768046179786325" lon="13.766870861873031">
        <ele>1443.080078</ele>
        <time>2017-06-18T07:02:50Z</time>
      </trkpt>
      <trkpt lat="41.767948362976313" lon="13.766835741698742">
        <ele>1444.040039</ele>
        <time>2017-06-18T07:02:57Z</time>
      </trkpt>
      <trkpt lat="41.767940316349268" lon="13.76674379222095">
        <ele>1445</ele>
        <time>2017-06-18T07:03:13Z</time>
      </trkpt>
      <trkpt lat="41.767991865053773" lon="13.766721999272704">
        <ele>1445</ele>
        <time>2017-06-18T07:03:27Z</time>
      </trkpt>
      <trkpt lat="41.768071074038744" lon="13.766771368682384">
        <ele>1445</ele>
        <time>2017-06-18T07:03:41Z</time>
      </trkpt>
      <trkpt lat="41.768148606643081" lon="13.766814284026623">
        <ele>1445.9600829999999</ele>
        <time>2017-06-18T07:03:58Z</time>
      </trkpt>
      <trkpt lat="41.768251787871122" lon="13.76692752353847">
        <ele>1445.9600829999999</ele>
        <time>2017-06-18T07:04:12Z</time>
      </trkpt>
      <trkpt lat="41.768316077068448" lon="13.767042690888047">
        <ele>1445.9600829999999</ele>
        <time>2017-06-18T07:04:23Z</time>
      </trkpt>
      <trkpt lat="41.768369637429714" lon="13.767170263454318">
        <ele>1446.440063</ele>
        <time>2017-06-18T07:04:36Z</time>
      </trkpt>
      <trkpt lat="41.76838849671185" lon="13.767219465225935">
        <ele>1446.440063</ele>
        <time>2017-06-18T07:04:54Z</time>
      </trkpt>
      <trkpt lat="41.768311634659767" lon="13.767060628160834">
        <ele>1446.440063</ele>
        <time>2017-06-18T07:05:08Z</time>
      </trkpt>
      <trkpt lat="41.768213734030724" lon="13.766887290403247">
        <ele>1446.919922</ele>
        <time>2017-06-18T07:05:23Z</time>
      </trkpt>
      <trkpt lat="41.768165370449424" lon="13.766833059489727">
        <ele>1446.919922</ele>
        <time>2017-06-18T07:05:29Z</time>
      </trkpt>
      <trkpt lat="41.768006617203355" lon="13.766739265993237">
        <ele>1447.8801269999999</ele>
        <time>2017-06-18T07:05:43Z</time>
      </trkpt>
      <trkpt lat="41.767850629985332" lon="13.766664415597916">
        <ele>1445.4801030000001</ele>
        <time>2017-06-18T07:05:56Z</time>
      </trkpt>
      <trkpt lat="41.767765805125237" lon="13.766660559922457">
        <ele>1445.4801030000001</ele>
        <time>2017-06-18T07:06:04Z</time>
      </trkpt>
      <trkpt lat="41.767712831497192" lon="13.766617896035314">
        <ele>1445.4801030000001</ele>
        <time>2017-06-18T07:06:08Z</time>
      </trkpt>
      <trkpt lat="41.767584588378668" lon="13.766556037589908">
        <ele>1445.4801030000001</ele>
        <time>2017-06-18T07:06:19Z</time>
      </trkpt>
      <trkpt lat="41.767418123781681" lon="13.766536507755518">
        <ele>1445.9600829999999</ele>
        <time>2017-06-18T07:06:30Z</time>
      </trkpt>
      <trkpt lat="41.767257610335946" lon="13.766493760049343">
        <ele>1445.9600829999999</ele>
        <time>2017-06-18T07:06:44Z</time>
      </trkpt>
      <trkpt lat="41.767093408852816" lon="13.76641589216888">
        <ele>1447.3999020000001</ele>
        <time>2017-06-18T07:06:55Z</time>
      </trkpt>
      <trkpt lat="41.76691772416234" lon="13.766391836106777">
        <ele>1449.3199460000001</ele>
        <time>2017-06-18T07:07:08Z</time>
      </trkpt>
      <trkpt lat="41.76688889041543" lon="13.766396529972553">
        <ele>1449.3199460000001</ele>
        <time>2017-06-18T07:07:27Z</time>
      </trkpt>
      <trkpt lat="41.766831390559673" lon="13.766411114484072">
        <ele>1448.3599850000001</ele>
        <time>2017-06-18T07:07:37Z</time>
      </trkpt>
      <trkpt lat="41.766795683652163" lon="13.766432572156191">
        <ele>1449.8100589999999</ele>
        <time>2017-06-18T07:07:40Z</time>
      </trkpt>
      <trkpt lat="41.766666434705257" lon="13.766432907432318">
        <ele>1451.7299800000001</ele>
        <time>2017-06-18T07:07:54Z</time>
      </trkpt>
      <trkpt lat="41.766649503260851" lon="13.766422932967544">
        <ele>1451.7299800000001</ele>
        <time>2017-06-18T07:07:56Z</time>
      </trkpt>
      <trkpt lat="41.766525199636817" lon="13.766309190541506">
        <ele>1452.690063</ele>
        <time>2017-06-18T07:08:09Z</time>
      </trkpt>
      <trkpt lat="41.766420258209109" lon="13.76617943868041">
        <ele>1455.0900879999999</ele>
        <time>2017-06-18T07:08:23Z</time>
      </trkpt>
      <trkpt lat="41.7664017342031" lon="13.766171559691429">
        <ele>1455.0900879999999</ele>
        <time>2017-06-18T07:08:25Z</time>
      </trkpt>
      <trkpt lat="41.766276676207781" lon="13.766003586351871">
        <ele>1457.0200199999999</ele>
        <time>2017-06-18T07:08:40Z</time>
      </trkpt>
      <trkpt lat="41.766209034249187" lon="13.765911888331175">
        <ele>1458.9399410000001</ele>
        <time>2017-06-18T07:08:50Z</time>
      </trkpt>
      <trkpt lat="41.766158994287252" lon="13.765807030722499">
        <ele>1460.380005</ele>
        <time>2017-06-18T07:09:01Z</time>
      </trkpt>
      <trkpt lat="41.766089173033834" lon="13.765694126486778">
        <ele>1462.3000489999999</ele>
        <time>2017-06-18T07:09:13Z</time>
      </trkpt>
      <trkpt lat="41.766002587974072" lon="13.765552472323179">
        <ele>1464.2299800000001</ele>
        <time>2017-06-18T07:09:27Z</time>
      </trkpt>
      <trkpt lat="41.765926731750369" lon="13.765478292480111">
        <ele>1466.150024</ele>
        <time>2017-06-18T07:09:41Z</time>
      </trkpt>
      <trkpt lat="41.765820113942027" lon="13.765393635258079">
        <ele>1467.589966</ele>
        <time>2017-06-18T07:09:54Z</time>
      </trkpt>
      <trkpt lat="41.765781305730343" lon="13.765299338847399">
        <ele>1468.5500489999999</ele>
        <time>2017-06-18T07:10:01Z</time>
      </trkpt>
      <trkpt lat="41.765742832794785" lon="13.765237061306834">
        <ele>1469.98999</ele>
        <time>2017-06-18T07:10:07Z</time>
      </trkpt>
      <trkpt lat="41.765683069825172" lon="13.765150727704167">
        <ele>1471.919922</ele>
        <time>2017-06-18T07:10:20Z</time>
      </trkpt>
      <trkpt lat="41.765641327947378" lon="13.765034303069115">
        <ele>1473.839966</ele>
        <time>2017-06-18T07:10:34Z</time>
      </trkpt>
      <trkpt lat="41.765614673495293" lon="13.764981916174293">
        <ele>1475.280029</ele>
        <time>2017-06-18T07:10:49Z</time>
      </trkpt>
      <trkpt lat="41.765540661290288" lon="13.764860965311527">
        <ele>1476.23999</ele>
        <time>2017-06-18T07:11:04Z</time>
      </trkpt>
      <trkpt lat="41.765412921085954" lon="13.764762729406357">
        <ele>1477.1999510000001</ele>
        <time>2017-06-18T07:11:18Z</time>
      </trkpt>
      <trkpt lat="41.765347709879279" lon="13.764623086899519">
        <ele>1480.570068</ele>
        <time>2017-06-18T07:11:33Z</time>
      </trkpt>
      <trkpt lat="41.765292137861252" lon="13.764494927600026">
        <ele>1482.48999</ele>
        <time>2017-06-18T07:11:47Z</time>
      </trkpt>
      <trkpt lat="41.765276631340384" lon="13.764341538771987">
        <ele>1485.369995</ele>
        <time>2017-06-18T07:12:03Z</time>
      </trkpt>
      <trkpt lat="41.765223741531372" lon="13.764219162985682">
        <ele>1488.26001</ele>
        <time>2017-06-18T07:12:16Z</time>
      </trkpt>
      <trkpt lat="41.765177808701992" lon="13.764146994799376">
        <ele>1490.6599120000001</ele>
        <time>2017-06-18T07:12:29Z</time>
      </trkpt>
      <trkpt lat="41.765164816752076" lon="13.764074658975005">
        <ele>1492.579956</ele>
        <time>2017-06-18T07:12:43Z</time>
      </trkpt>
      <trkpt lat="41.765115698799491" lon="13.764028139412403">
        <ele>1495.469971</ele>
        <time>2017-06-18T07:12:56Z</time>
      </trkpt>
      <trkpt lat="41.76509658806026" lon="13.763929903507233">
        <ele>1497.3900149999999</ele>
        <time>2017-06-18T07:13:08Z</time>
      </trkpt>
      <trkpt lat="41.765087032690644" lon="13.763819262385368">
        <ele>1499.790039</ele>
        <time>2017-06-18T07:13:21Z</time>
      </trkpt>
      <trkpt lat="41.765081165358424" lon="13.763689091429114">
        <ele>1502.6800539999999</ele>
        <time>2017-06-18T07:13:35Z</time>
      </trkpt>
      <trkpt lat="41.765009835362434" lon="13.763623125851154">
        <ele>1504.119995</ele>
        <time>2017-06-18T07:13:48Z</time>
      </trkpt>
      <trkpt lat="41.764998435974121" lon="13.763631759211421">
        <ele>1505.5600589999999</ele>
        <time>2017-06-18T07:14:02Z</time>
      </trkpt>
      <trkpt lat="41.764987707138062" lon="13.763634776696563">
        <ele>1505.5600589999999</ele>
        <time>2017-06-18T07:14:17Z</time>
      </trkpt>
      <trkpt lat="41.764977397397161" lon="13.763645840808749">
        <ele>1506.5200199999999</ele>
        <time>2017-06-18T07:14:46Z</time>
      </trkpt>
      <trkpt lat="41.764992484822869" lon="13.763649361208081">
        <ele>1507</ele>
        <time>2017-06-18T07:15:11Z</time>
      </trkpt>
      <trkpt lat="41.765004890039563" lon="13.763608038425446">
        <ele>1507</ele>
        <time>2017-06-18T07:15:34Z</time>
      </trkpt>
      <trkpt lat="41.764967339113355" lon="13.763571577146649">
        <ele>1507</ele>
        <time>2017-06-18T07:15:47Z</time>
      </trkpt>
      <trkpt lat="41.764878239482641" lon="13.763450458645821">
        <ele>1508.4499510000001</ele>
        <time>2017-06-18T07:15:59Z</time>
      </trkpt>
      <trkpt lat="41.764817135408521" lon="13.76330042257905">
        <ele>1509.8900149999999</ele>
        <time>2017-06-18T07:16:10Z</time>
      </trkpt>
      <trkpt lat="41.764791905879974" lon="13.76326622441411">
        <ele>1509.8900149999999</ele>
        <time>2017-06-18T07:16:14Z</time>
      </trkpt>
      <trkpt lat="41.764760976657271" lon="13.763204701244831">
        <ele>1510.849976</ele>
        <time>2017-06-18T07:16:20Z</time>
      </trkpt>
      <trkpt lat="41.764714540913701" lon="13.763073859736323">
        <ele>1513.7299800000001</ele>
        <time>2017-06-18T07:16:32Z</time>
      </trkpt>
      <trkpt lat="41.764671374112368" lon="13.762975372374058">
        <ele>1515.1800539999999</ele>
        <time>2017-06-18T07:16:42Z</time>
      </trkpt>
      <trkpt lat="41.764650335535407" lon="13.762950897216797">
        <ele>1516.139893</ele>
        <time>2017-06-18T07:16:47Z</time>
      </trkpt>
      <trkpt lat="41.764610437676311" lon="13.762871436774731">
        <ele>1517.579956</ele>
        <time>2017-06-18T07:16:56Z</time>
      </trkpt>
      <trkpt lat="41.764572719112039" lon="13.7628039624542">
        <ele>1519.0200199999999</ele>
        <time>2017-06-18T07:17:03Z</time>
      </trkpt>
      <trkpt lat="41.764522762969136" lon="13.762686615809798">
        <ele>1521.420044</ele>
        <time>2017-06-18T07:17:15Z</time>
      </trkpt>
      <trkpt lat="41.764450762420893" lon="13.762606484815478">
        <ele>1522.869995</ele>
        <time>2017-06-18T07:17:28Z</time>
      </trkpt>
      <trkpt lat="41.764413714408875" lon="13.762544794008136">
        <ele>1524.3100589999999</ele>
        <time>2017-06-18T07:17:39Z</time>
      </trkpt>
      <trkpt lat="41.764357890933752" lon="13.762435661628842">
        <ele>1526.2299800000001</ele>
        <time>2017-06-18T07:17:53Z</time>
      </trkpt>
      <trkpt lat="41.764339618384838" lon="13.762389561161399">
        <ele>1525.7501219999999</ele>
        <time>2017-06-18T07:17:57Z</time>
      </trkpt>
      <trkpt lat="41.764316065236926" lon="13.762271460145712">
        <ele>1527.1899410000001</ele>
        <time>2017-06-18T07:18:12Z</time>
      </trkpt>
      <trkpt lat="41.764326710253954" lon="13.762169703841209">
        <ele>1529.1099850000001</ele>
        <time>2017-06-18T07:18:26Z</time>
      </trkpt>
      <trkpt lat="41.764361327514052" lon="13.762037521228194">
        <ele>1530.5600589999999</ele>
        <time>2017-06-18T07:18:39Z</time>
      </trkpt>
      <trkpt lat="41.764348587021232" lon="13.761948002502322">
        <ele>1532.9600829999999</ele>
        <time>2017-06-18T07:18:51Z</time>
      </trkpt>
      <trkpt lat="41.764391670003533" lon="13.761869296431541">
        <ele>1535.360107</ele>
        <time>2017-06-18T07:19:05Z</time>
      </trkpt>
      <trkpt lat="41.76435730420053" lon="13.761896286159754">
        <ele>1537.7700199999999</ele>
        <time>2017-06-18T07:19:19Z</time>
      </trkpt>
      <trkpt lat="41.764363339170814" lon="13.761816909536719">
        <ele>1539.209961</ele>
        <time>2017-06-18T07:19:29Z</time>
      </trkpt>
      <trkpt lat="41.764421761035919" lon="13.761729570105672">
        <ele>1541.6099850000001</ele>
        <time>2017-06-18T07:19:41Z</time>
      </trkpt>
      <trkpt lat="41.764489319175482" lon="13.761590514332056">
        <ele>1544.009888</ele>
        <time>2017-06-18T07:19:56Z</time>
      </trkpt>
      <trkpt lat="41.764571294188499" lon="13.761522034183145">
        <ele>1545.9399410000001</ele>
        <time>2017-06-18T07:20:10Z</time>
      </trkpt>
      <trkpt lat="41.764691490679979" lon="13.761429665610194">
        <ele>1548.820068</ele>
        <time>2017-06-18T07:20:27Z</time>
      </trkpt>
      <trkpt lat="41.764779584482312" lon="13.761370237916708">
        <ele>1550.73999</ele>
        <time>2017-06-18T07:20:42Z</time>
      </trkpt>
      <trkpt lat="41.764752259477973" lon="13.761401837691665">
        <ele>1553.150024</ele>
        <time>2017-06-18T07:20:55Z</time>
      </trkpt>
      <trkpt lat="41.764822835102677" lon="13.761333022266626">
        <ele>1554.589966</ele>
        <time>2017-06-18T07:21:07Z</time>
      </trkpt>
      <trkpt lat="41.764857871457934" lon="13.761302512139082">
        <ele>1556.030029</ele>
        <time>2017-06-18T07:21:13Z</time>
      </trkpt>
      <trkpt lat="41.764916880056262" lon="13.761233361437917">
        <ele>1558.4300539999999</ele>
        <time>2017-06-18T07:21:27Z</time>
      </trkpt>
      <trkpt lat="41.764947809278965" lon="13.761194637045264">
        <ele>1559.8798830000001</ele>
        <time>2017-06-18T07:21:38Z</time>
      </trkpt>
      <trkpt lat="41.76493146456778" lon="13.761223386973143">
        <ele>1561.3199460000001</ele>
        <time>2017-06-18T07:21:50Z</time>
      </trkpt>
      <trkpt lat="41.76493632607162" lon="13.761161109432578">
        <ele>1563.23999</ele>
        <time>2017-06-18T07:22:04Z</time>
      </trkpt>
      <trkpt lat="41.764997178688645" lon="13.76103806309402">
        <ele>1566.119995</ele>
        <time>2017-06-18T07:22:20Z</time>
      </trkpt>
      <trkpt lat="41.764998016878963" lon="13.761028675362468">
        <ele>1566.119995</ele>
        <time>2017-06-18T07:22:21Z</time>
      </trkpt>
      <trkpt lat="41.765069179236889" lon="13.76094326376915">
        <ele>1568.0500489999999</ele>
        <time>2017-06-18T07:22:36Z</time>
      </trkpt>
      <trkpt lat="41.765093738213181" lon="13.760904036462307">
        <ele>1569.969971</ele>
        <time>2017-06-18T07:22:49Z</time>
      </trkpt>
      <trkpt lat="41.765085104852915" lon="13.76085533760488">
        <ele>1573.329956</ele>
        <time>2017-06-18T07:23:01Z</time>
      </trkpt>
      <trkpt lat="41.765216030180454" lon="13.760930188000202">
        <ele>1574.780029</ele>
        <time>2017-06-18T07:23:14Z</time>
      </trkpt>
      <trkpt lat="41.765300435945392" lon="13.76095256768167">
        <ele>1575.73999</ele>
        <time>2017-06-18T07:23:26Z</time>
      </trkpt>
      <trkpt lat="41.765299430117011" lon="13.760934295132756">
        <ele>1578.6201169999999</ele>
        <time>2017-06-18T07:23:33Z</time>
      </trkpt>
      <trkpt lat="41.765237236395478" lon="13.760888362303376">
        <ele>1579.579956</ele>
        <time>2017-06-18T07:23:51Z</time>
      </trkpt>
      <trkpt lat="41.765195913612843" lon="13.760818624868989">
        <ele>1580.059937</ele>
        <time>2017-06-18T07:24:07Z</time>
      </trkpt>
      <trkpt lat="41.765156686306" lon="13.760741595178843">
        <ele>1583.4300539999999</ele>
        <time>2017-06-18T07:24:24Z</time>
      </trkpt>
      <trkpt lat="41.765119722113013" lon="13.760641263797879">
        <ele>1585.349976</ele>
        <time>2017-06-18T07:24:36Z</time>
      </trkpt>
      <trkpt lat="41.765080159530044" lon="13.760522492229939">
        <ele>1587.7498780000001</ele>
        <time>2017-06-18T07:24:48Z</time>
      </trkpt>
      <trkpt lat="41.765039758756757" lon="13.760443702340126">
        <ele>1591.119995</ele>
        <time>2017-06-18T07:25:02Z</time>
      </trkpt>
      <trkpt lat="41.764999777078629" lon="13.760373797267675">
        <ele>1593.040039</ele>
        <time>2017-06-18T07:25:15Z</time>
      </trkpt>
      <trkpt lat="41.764934230595827" lon="13.760365666821599">
        <ele>1594</ele>
        <time>2017-06-18T07:25:27Z</time>
      </trkpt>
      <trkpt lat="41.764839515089989" lon="13.760253181681037">
        <ele>1595.929932</ele>
        <time>2017-06-18T07:25:41Z</time>
      </trkpt>
      <trkpt lat="41.764796683564782" lon="13.760188473388553">
        <ele>1597.369995</ele>
        <time>2017-06-18T07:25:49Z</time>
      </trkpt>
      <trkpt lat="41.764737591147423" lon="13.760086381807923">
        <ele>1598.809937</ele>
        <time>2017-06-18T07:26:03Z</time>
      </trkpt>
      <trkpt lat="41.764745386317372" lon="13.760089566931129">
        <ele>1597.849976</ele>
        <time>2017-06-18T07:26:07Z</time>
      </trkpt>
      <trkpt lat="41.764742201194167" lon="13.760084789246321">
        <ele>1599.290039</ele>
        <time>2017-06-18T07:26:10Z</time>
      </trkpt>
      <trkpt lat="41.764671541750431" lon="13.759953863918781">
        <ele>1599.290039</ele>
        <time>2017-06-18T07:26:20Z</time>
      </trkpt>
      <trkpt lat="41.764546735212207" lon="13.759778765961528">
        <ele>1597.369995</ele>
        <time>2017-06-18T07:26:35Z</time>
      </trkpt>
      <trkpt lat="41.764509435743093" lon="13.759779436513782">
        <ele>1597.369995</ele>
        <time>2017-06-18T07:26:40Z</time>
      </trkpt>
      <trkpt lat="41.76447993144393" lon="13.759818077087402">
        <ele>1598.809937</ele>
        <time>2017-06-18T07:26:44Z</time>
      </trkpt>
      <trkpt lat="41.764492336660624" lon="13.759836181998253">
        <ele>1598.809937</ele>
        <time>2017-06-18T07:26:47Z</time>
      </trkpt>
      <trkpt lat="41.764514967799187" lon="13.759892592206597">
        <ele>1601.209961</ele>
        <time>2017-06-18T07:26:52Z</time>
      </trkpt>
      <trkpt lat="41.764539107680321" lon="13.759961826726794">
        <ele>1601.209961</ele>
        <time>2017-06-18T07:26:56Z</time>
      </trkpt>
      <trkpt lat="41.764553021639585" lon="13.760035168379545">
        <ele>1599.7700199999999</ele>
        <time>2017-06-18T07:27:00Z</time>
      </trkpt>
      <trkpt lat="41.764531563967466" lon="13.760166764259338">
        <ele>1599.290039</ele>
        <time>2017-06-18T07:27:10Z</time>
      </trkpt>
      <trkpt lat="41.764525528997183" lon="13.760227365419269">
        <ele>1599.7700199999999</ele>
        <time>2017-06-18T07:27:16Z</time>
      </trkpt>
      <trkpt lat="41.764545477926731" lon="13.760232226923108">
        <ele>1599.7700199999999</ele>
        <time>2017-06-18T07:27:21Z</time>
      </trkpt>
      <trkpt lat="41.764476075768471" lon="13.760291570797563">
        <ele>1598.329956</ele>
        <time>2017-06-18T07:27:31Z</time>
      </trkpt>
      <trkpt lat="41.764447074383497" lon="13.760346723720431">
        <ele>1600.7299800000001</ele>
        <time>2017-06-18T07:27:37Z</time>
      </trkpt>
      <trkpt lat="41.764413714408875" lon="13.76041553914547">
        <ele>1599.7700199999999</ele>
        <time>2017-06-18T07:27:47Z</time>
      </trkpt>
      <trkpt lat="41.764415139332414" lon="13.760409504175186">
        <ele>1599.7700199999999</ele>
        <time>2017-06-18T07:27:48Z</time>
      </trkpt>
      <trkpt lat="41.764474818482995" lon="13.760284781455994">
        <ele>1600.7299800000001</ele>
        <time>2017-06-18T07:27:58Z</time>
      </trkpt>
      <trkpt lat="41.764496108517051" lon="13.760275561362505">
        <ele>1599.290039</ele>
        <time>2017-06-18T07:28:00Z</time>
      </trkpt>
      <trkpt lat="41.764520835131407" lon="13.760253936052322">
        <ele>1599.290039</ele>
        <time>2017-06-18T07:28:03Z</time>
      </trkpt>
      <trkpt lat="41.76453709602356" lon="13.760216133669019">
        <ele>1599.290039</ele>
        <time>2017-06-18T07:28:17Z</time>
      </trkpt>
      <trkpt lat="41.764540364965796" lon="13.760190820321441">
        <ele>1600.25</ele>
        <time>2017-06-18T07:28:28Z</time>
      </trkpt>
      <trkpt lat="41.764519158750772" lon="13.760192329064012">
        <ele>1601.690063</ele>
        <time>2017-06-18T07:28:39Z</time>
      </trkpt>
      <trkpt lat="41.764520835131407" lon="13.760205321013927">
        <ele>1600.25</ele>
        <time>2017-06-18T07:28:47Z</time>
      </trkpt>
      <trkpt lat="41.764515805989504" lon="13.760220240801573">
        <ele>1599.7700199999999</ele>
        <time>2017-06-18T07:29:02Z</time>
      </trkpt>
      <trkpt lat="41.764499628916383" lon="13.760192999616265">
        <ele>1600.7299800000001</ele>
        <time>2017-06-18T07:29:15Z</time>
      </trkpt>
      <trkpt lat="41.764509016647935" lon="13.760083699598908">
        <ele>1600.7299800000001</ele>
        <time>2017-06-18T07:29:27Z</time>
      </trkpt>
      <trkpt lat="41.764518488198519" lon="13.760082190856338">
        <ele>1601.690063</ele>
        <time>2017-06-18T07:29:43Z</time>
      </trkpt>
      <trkpt lat="41.764524020254612" lon="13.76008277758956">
        <ele>1600.7299800000001</ele>
        <time>2017-06-18T07:29:52Z</time>
      </trkpt>
      <trkpt lat="41.764529217034578" lon="13.760082693770528">
        <ele>1600.7299800000001</ele>
        <time>2017-06-18T07:30:12Z</time>
      </trkpt>
      <trkpt lat="41.764531061053276" lon="13.760099625214934">
        <ele>1600.25</ele>
        <time>2017-06-18T07:30:15Z</time>
      </trkpt>
      <trkpt lat="41.764381360262632" lon="13.760380838066339">
        <ele>1598.329956</ele>
        <time>2017-06-18T07:30:34Z</time>
      </trkpt>
      <trkpt lat="41.764315059408545" lon="13.760434901341796">
        <ele>1596.8900149999999</ele>
        <time>2017-06-18T07:30:40Z</time>
      </trkpt>
      <trkpt lat="41.764222104102373" lon="13.760509919375181">
        <ele>1598.329956</ele>
        <time>2017-06-18T07:30:49Z</time>
      </trkpt>
      <trkpt lat="41.764168459922075" lon="13.760526599362493">
        <ele>1594.4799800000001</ele>
        <time>2017-06-18T07:30:53Z</time>
      </trkpt>
      <trkpt lat="41.764025967568159" lon="13.760579824447632">
        <ele>1591.599976</ele>
        <time>2017-06-18T07:31:04Z</time>
      </trkpt>
      <trkpt lat="41.763974670320749" lon="13.760612597689033">
        <ele>1591.599976</ele>
        <time>2017-06-18T07:31:08Z</time>
      </trkpt>
      <trkpt lat="41.763800662010908" lon="13.760794904083014">
        <ele>1591.119995</ele>
        <time>2017-06-18T07:31:27Z</time>
      </trkpt>
      <trkpt lat="41.76362288184464" lon="13.760951980948448">
        <ele>1589.1999510000001</ele>
        <time>2017-06-18T07:31:41Z</time>
      </trkpt>
      <trkpt lat="41.763435294851661" lon="13.761048540472984">
        <ele>1588.23999</ele>
        <time>2017-06-18T07:31:53Z</time>
      </trkpt>
      <trkpt lat="41.763323815539479" lon="13.761175693944097">
        <ele>1587.2700199999999</ele>
        <time>2017-06-18T07:32:07Z</time>
      </trkpt>
      <trkpt lat="41.763110412284732" lon="13.761312821879983">
        <ele>1586.790039</ele>
        <time>2017-06-18T07:32:25Z</time>
      </trkpt>
      <trkpt lat="41.763064479455352" lon="13.761321203783154">
        <ele>1586.3100589999999</ele>
        <time>2017-06-18T07:32:28Z</time>
      </trkpt>
      <trkpt lat="41.763048637658358" lon="13.761320365592837">
        <ele>1586.3100589999999</ele>
        <time>2017-06-18T07:32:29Z</time>
      </trkpt>
      <trkpt lat="41.763032041490078" lon="13.76132246106863">
        <ele>1586.3100589999999</ele>
        <time>2017-06-18T07:32:30Z</time>
      </trkpt>
      <trkpt lat="41.763020223006606" lon="13.761325813829899">
        <ele>1585.830078</ele>
        <time>2017-06-18T07:32:31Z</time>
      </trkpt>
      <trkpt lat="41.763006560504436" lon="13.761328915134072">
        <ele>1585.830078</ele>
        <time>2017-06-18T07:32:32Z</time>
      </trkpt>
      <trkpt lat="41.762834396213293" lon="13.761426564306021">
        <ele>1583.910034</ele>
        <time>2017-06-18T07:32:46Z</time>
      </trkpt>
      <trkpt lat="41.7626993637532" lon="13.761537037789822">
        <ele>1583.910034</ele>
        <time>2017-06-18T07:33:00Z</time>
      </trkpt>
      <trkpt lat="41.762687712907791" lon="13.761606859043241">
        <ele>1582.9499510000001</ele>
        <time>2017-06-18T07:33:24Z</time>
      </trkpt>
      <trkpt lat="41.76261973567307" lon="13.761758487671614">
        <ele>1581.98999</ele>
        <time>2017-06-18T07:33:37Z</time>
      </trkpt>
      <trkpt lat="41.762566678225994" lon="13.761918917298317">
        <ele>1579.1000979999999</ele>
        <time>2017-06-18T07:33:52Z</time>
      </trkpt>
      <trkpt lat="41.762558966875076" lon="13.761946326121688">
        <ele>1578.6201169999999</ele>
        <time>2017-06-18T07:33:54Z</time>
      </trkpt>
      <trkpt lat="41.762555781751871" lon="13.762029809877276">
        <ele>1575.73999</ele>
        <time>2017-06-18T07:34:01Z</time>
      </trkpt>
      <trkpt lat="41.76253424026072" lon="13.76216433942318">
        <ele>1572.369995</ele>
        <time>2017-06-18T07:34:12Z</time>
      </trkpt>
      <trkpt lat="41.76253030076623" lon="13.762228460982442">
        <ele>1570.929932</ele>
        <time>2017-06-18T07:34:17Z</time>
      </trkpt>
      <trkpt lat="41.762500209733844" lon="13.762341197580099">
        <ele>1569.969971</ele>
        <time>2017-06-18T07:34:29Z</time>
      </trkpt>
      <trkpt lat="41.76247850060463" lon="13.762384615838528">
        <ele>1569.969971</ele>
        <time>2017-06-18T07:34:44Z</time>
      </trkpt>
      <trkpt lat="41.762472800910473" lon="13.762398865073919">
        <ele>1569.969971</ele>
        <time>2017-06-18T07:34:45Z</time>
      </trkpt>
      <trkpt lat="41.762368194758892" lon="13.762481678277254">
        <ele>1568.530029</ele>
        <time>2017-06-18T07:34:56Z</time>
      </trkpt>
      <trkpt lat="41.76235293969512" lon="13.762526018545032">
        <ele>1567.0900879999999</ele>
        <time>2017-06-18T07:35:00Z</time>
      </trkpt>
      <trkpt lat="41.762330560013652" lon="13.76258653588593">
        <ele>1567.0900879999999</ele>
        <time>2017-06-18T07:35:04Z</time>
      </trkpt>
      <trkpt lat="41.762317735701799" lon="13.762620985507965">
        <ele>1567.570068</ele>
        <time>2017-06-18T07:35:06Z</time>
      </trkpt>
      <trkpt lat="41.762295188382268" lon="13.762664739042521">
        <ele>1567.0900879999999</ele>
        <time>2017-06-18T07:35:09Z</time>
      </trkpt>
      <trkpt lat="41.762291667982936" lon="13.762685609981418">
        <ele>1567.0900879999999</ele>
        <time>2017-06-18T07:35:10Z</time>
      </trkpt>
      <trkpt lat="41.762289991602302" lon="13.762706983834505">
        <ele>1567.0900879999999</ele>
        <time>2017-06-18T07:35:11Z</time>
      </trkpt>
      <trkpt lat="41.762288315221667" lon="13.762749480083585">
        <ele>1567.0900879999999</ele>
        <time>2017-06-18T07:35:13Z</time>
      </trkpt>
      <trkpt lat="41.762288482859731" lon="13.762777559459209">
        <ele>1566.6099850000001</ele>
        <time>2017-06-18T07:35:14Z</time>
      </trkpt>
      <trkpt lat="41.76228647120297" lon="13.762809913605452">
        <ele>1566.6099850000001</ele>
        <time>2017-06-18T07:35:15Z</time>
      </trkpt>
      <trkpt lat="41.762285381555557" lon="13.762835897505283">
        <ele>1566.6099850000001</ele>
        <time>2017-06-18T07:35:16Z</time>
      </trkpt>
      <trkpt lat="41.762284711003304" lon="13.762865988537669">
        <ele>1566.6099850000001</ele>
        <time>2017-06-18T07:35:17Z</time>
      </trkpt>
      <trkpt lat="41.762283788993955" lon="13.762896917760372">
        <ele>1566.6099850000001</ele>
        <time>2017-06-18T07:35:18Z</time>
      </trkpt>
      <trkpt lat="41.762283118441701" lon="13.762921560555696">
        <ele>1566.6099850000001</ele>
        <time>2017-06-18T07:35:19Z</time>
      </trkpt>
      <trkpt lat="41.76228404045105" lon="13.762946119531989">
        <ele>1566.119995</ele>
        <time>2017-06-18T07:35:20Z</time>
      </trkpt>
      <trkpt lat="41.762286135926843" lon="13.762961626052856">
        <ele>1566.119995</ele>
        <time>2017-06-18T07:35:21Z</time>
      </trkpt>
      <trkpt lat="41.762288482859731" lon="13.762978976592422">
        <ele>1566.119995</ele>
        <time>2017-06-18T07:35:22Z</time>
      </trkpt>
      <trkpt lat="41.762310862541199" lon="13.763014767318964">
        <ele>1565.6400149999999</ele>
        <time>2017-06-18T07:35:25Z</time>
      </trkpt>
      <trkpt lat="41.762447319924831" lon="13.763195062056184">
        <ele>1563.719971</ele>
        <time>2017-06-18T07:35:40Z</time>
      </trkpt>
      <trkpt lat="41.76260506734252" lon="13.763436879962683">
        <ele>1562.76001</ele>
        <time>2017-06-18T07:35:57Z</time>
      </trkpt>
      <trkpt lat="41.762641025707126" lon="13.763491110876203">
        <ele>1562.76001</ele>
        <time>2017-06-18T07:36:00Z</time>
      </trkpt>
      <trkpt lat="41.762653263285756" lon="13.763508629053831">
        <ele>1562.76001</ele>
        <time>2017-06-18T07:36:01Z</time>
      </trkpt>
      <trkpt lat="41.762679582461715" lon="13.763565290719271">
        <ele>1562.76001</ele>
        <time>2017-06-18T07:36:04Z</time>
      </trkpt>
      <trkpt lat="41.762684611603618" lon="13.763582138344646">
        <ele>1562.76001</ele>
        <time>2017-06-18T07:36:05Z</time>
      </trkpt>
      <trkpt lat="41.762815704569221" lon="13.763836110010743">
        <ele>1561.3199460000001</ele>
        <time>2017-06-18T07:36:21Z</time>
      </trkpt>
      <trkpt lat="41.762831211090088" lon="13.763868128880858">
        <ele>1561.3199460000001</ele>
        <time>2017-06-18T07:36:23Z</time>
      </trkpt>
      <trkpt lat="41.762842359021306" lon="13.763880366459489">
        <ele>1560.839966</ele>
        <time>2017-06-18T07:36:24Z</time>
      </trkpt>
      <trkpt lat="41.762853590771556" lon="13.763892184942961">
        <ele>1560.839966</ele>
        <time>2017-06-18T07:36:25Z</time>
      </trkpt>
      <trkpt lat="41.762938667088747" lon="13.764070719480515">
        <ele>1559.3999020000001</ele>
        <time>2017-06-18T07:36:38Z</time>
      </trkpt>
      <trkpt lat="41.762941181659698" lon="13.764157807454467">
        <ele>1557.9499510000001</ele>
        <time>2017-06-18T07:36:44Z</time>
      </trkpt>
      <trkpt lat="41.762937158346176" lon="13.764176331460476">
        <ele>1557.9499510000001</ele>
        <time>2017-06-18T07:36:45Z</time>
      </trkpt>
      <trkpt lat="41.762924334034324" lon="13.764279512688518">
        <ele>1557.469971</ele>
        <time>2017-06-18T07:36:51Z</time>
      </trkpt>
      <trkpt lat="41.762893069535494" lon="13.764435080811381">
        <ele>1556.030029</ele>
        <time>2017-06-18T07:37:02Z</time>
      </trkpt>
      <trkpt lat="41.762786535546184" lon="13.764612190425396">
        <ele>1554.589966</ele>
        <time>2017-06-18T07:37:15Z</time>
      </trkpt>
      <trkpt lat="41.762777399271727" lon="13.764626607298851">
        <ele>1554.589966</ele>
        <time>2017-06-18T07:37:16Z</time>
      </trkpt>
      <trkpt lat="41.762765664607286" lon="13.764637922868133">
        <ele>1554.589966</ele>
        <time>2017-06-18T07:37:17Z</time>
      </trkpt>
      <trkpt lat="41.762633230537176" lon="13.76473749987781">
        <ele>1554.1099850000001</ele>
        <time>2017-06-18T07:37:33Z</time>
      </trkpt>
      <trkpt lat="41.762549160048366" lon="13.7647794932127">
        <ele>1552.669922</ele>
        <time>2017-06-18T07:37:42Z</time>
      </trkpt>
      <trkpt lat="41.762531222775578" lon="13.764792485162616">
        <ele>1552.669922</ele>
        <time>2017-06-18T07:37:43Z</time>
      </trkpt>
      <trkpt lat="41.76249610260129" lon="13.764835568144917">
        <ele>1552.669922</ele>
        <time>2017-06-18T07:37:46Z</time>
      </trkpt>
      <trkpt lat="41.762486379593611" lon="13.764853589236736">
        <ele>1552.1899410000001</ele>
        <time>2017-06-18T07:37:47Z</time>
      </trkpt>
      <trkpt lat="41.762409098446369" lon="13.765050480142236">
        <ele>1550.73999</ele>
        <time>2017-06-18T07:37:59Z</time>
      </trkpt>
      <trkpt lat="41.762279598042369" lon="13.765234798192978">
        <ele>1549.3000489999999</ele>
        <time>2017-06-18T07:38:14Z</time>
      </trkpt>
      <trkpt lat="41.762195862829685" lon="13.765384834259748">
        <ele>1546.900024</ele>
        <time>2017-06-18T07:38:27Z</time>
      </trkpt>
      <trkpt lat="41.762093771249056" lon="13.765538223087788">
        <ele>1545.459961</ele>
        <time>2017-06-18T07:38:37Z</time>
      </trkpt>
      <trkpt lat="41.76208321005106" lon="13.765742322430015">
        <ele>1544.5</ele>
        <time>2017-06-18T07:38:51Z</time>
      </trkpt>
      <trkpt lat="41.762073403224349" lon="13.765788003802299">
        <ele>1544.009888</ele>
        <time>2017-06-18T07:38:55Z</time>
      </trkpt>
      <trkpt lat="41.761978687718511" lon="13.765885904431343">
        <ele>1543.0500489999999</ele>
        <time>2017-06-18T07:39:08Z</time>
      </trkpt>
      <trkpt lat="41.761971479281783" lon="13.765895962715149">
        <ele>1544.5</ele>
        <time>2017-06-18T07:39:10Z</time>
      </trkpt>
      <trkpt lat="41.761909872293472" lon="13.765947511419654">
        <ele>1543.0500489999999</ele>
        <time>2017-06-18T07:39:18Z</time>
      </trkpt>
      <trkpt lat="41.761817838996649" lon="13.765994282439351">
        <ele>1542.0900879999999</ele>
        <time>2017-06-18T07:39:29Z</time>
      </trkpt>
      <trkpt lat="41.761720608919859" lon="13.766073910519481">
        <ele>1540.650024</ele>
        <time>2017-06-18T07:39:42Z</time>
      </trkpt>
      <trkpt lat="41.761680878698826" lon="13.766069635748863">
        <ele>1539.690063</ele>
        <time>2017-06-18T07:39:48Z</time>
      </trkpt>
      <trkpt lat="41.761590102687478" lon="13.766119591891766">
        <ele>1537.290039</ele>
        <time>2017-06-18T07:39:58Z</time>
      </trkpt>
      <trkpt lat="41.76152472384274" lon="13.766263341531157">
        <ele>1536.799927</ele>
        <time>2017-06-18T07:40:11Z</time>
      </trkpt>
      <trkpt lat="41.761526064947248" lon="13.766297958791256">
        <ele>1536.799927</ele>
        <time>2017-06-18T07:40:16Z</time>
      </trkpt>
      <trkpt lat="41.761579541489482" lon="13.766385884955525">
        <ele>1533.920044</ele>
        <time>2017-06-18T07:40:26Z</time>
      </trkpt>
      <trkpt lat="41.761633269488811" lon="13.76653952524066">
        <ele>1531.5200199999999</ele>
        <time>2017-06-18T07:40:38Z</time>
      </trkpt>
      <trkpt lat="41.76165422424674" lon="13.766636084765196">
        <ele>1529.1099850000001</ele>
        <time>2017-06-18T07:40:52Z</time>
      </trkpt>
      <trkpt lat="41.761697139590979" lon="13.76677262596786">
        <ele>1528.150024</ele>
        <time>2017-06-18T07:41:18Z</time>
      </trkpt>
      <trkpt lat="41.761701498180628" lon="13.766783438622952">
        <ele>1528.150024</ele>
        <time>2017-06-18T07:41:19Z</time>
      </trkpt>
      <trkpt lat="41.761687165126204" lon="13.766883183270693">
        <ele>1524.3100589999999</ele>
        <time>2017-06-18T07:41:29Z</time>
      </trkpt>
      <trkpt lat="41.761686662212014" lon="13.767010923475027">
        <ele>1519.9799800000001</ele>
        <time>2017-06-18T07:41:40Z</time>
      </trkpt>
      <trkpt lat="41.76170258782804" lon="13.767197001725435">
        <ele>1517.099976</ele>
        <time>2017-06-18T07:41:53Z</time>
      </trkpt>
      <trkpt lat="41.761708538979292" lon="13.767299763858318">
        <ele>1514.209961</ele>
        <time>2017-06-18T07:42:02Z</time>
      </trkpt>
      <trkpt lat="41.761747682467103" lon="13.767434461042285">
        <ele>1512.290039</ele>
        <time>2017-06-18T07:42:10Z</time>
      </trkpt>
      <trkpt lat="41.761753465980291" lon="13.767458014190197">
        <ele>1511.329956</ele>
        <time>2017-06-18T07:42:12Z</time>
      </trkpt>
      <trkpt lat="41.76179151982069" lon="13.767604026943445">
        <ele>1507.969971</ele>
        <time>2017-06-18T07:42:20Z</time>
      </trkpt>
      <trkpt lat="41.761807110160589" lon="13.767659179866314">
        <ele>1507.4799800000001</ele>
        <time>2017-06-18T07:42:25Z</time>
      </trkpt>
      <trkpt lat="41.761843990534544" lon="13.767742663621902">
        <ele>1504.599976</ele>
        <time>2017-06-18T07:42:31Z</time>
      </trkpt>
      <trkpt lat="41.761869974434376" lon="13.767862776294351">
        <ele>1501.719971</ele>
        <time>2017-06-18T07:42:41Z</time>
      </trkpt>
      <trkpt lat="41.761863436549902" lon="13.768012477084994">
        <ele>1498.830078</ele>
        <time>2017-06-18T07:42:55Z</time>
      </trkpt>
      <trkpt lat="41.761841475963593" lon="13.768129907548428">
        <ele>1495.469971</ele>
        <time>2017-06-18T07:43:05Z</time>
      </trkpt>
      <trkpt lat="41.761901574209332" lon="13.768304502591491">
        <ele>1492.099976</ele>
        <time>2017-06-18T07:43:17Z</time>
      </trkpt>
      <trkpt lat="41.7619205173105" lon="13.768412377685308">
        <ele>1489.700073</ele>
        <time>2017-06-18T07:43:25Z</time>
      </trkpt>
      <trkpt lat="41.761970138177276" lon="13.768526706844568">
        <ele>1487.780029</ele>
        <time>2017-06-18T07:43:35Z</time>
      </trkpt>
      <trkpt lat="41.761968461796641" lon="13.768667858093977">
        <ele>1483.929932</ele>
        <time>2017-06-18T07:43:48Z</time>
      </trkpt>
      <trkpt lat="41.761996289715171" lon="13.768851337954402">
        <ele>1480.570068</ele>
        <time>2017-06-18T07:44:02Z</time>
      </trkpt>
      <trkpt lat="41.76203828305006" lon="13.769005816429853">
        <ele>1477.6800539999999</ele>
        <time>2017-06-18T07:44:13Z</time>
      </trkpt>
      <trkpt lat="41.762047335505486" lon="13.769082762300968">
        <ele>1476.23999</ele>
        <time>2017-06-18T07:44:20Z</time>
      </trkpt>
      <trkpt lat="41.762069128453732" lon="13.769240928813815">
        <ele>1474.3199460000001</ele>
        <time>2017-06-18T07:44:30Z</time>
      </trkpt>
      <trkpt lat="41.762053538113832" lon="13.769397502765059">
        <ele>1470.950073</ele>
        <time>2017-06-18T07:44:45Z</time>
      </trkpt>
      <trkpt lat="41.762042725458741" lon="13.769458858296275">
        <ele>1469.51001</ele>
        <time>2017-06-18T07:44:50Z</time>
      </trkpt>
      <trkpt lat="41.762083461508155" lon="13.769636638462543">
        <ele>1465.669922</ele>
        <time>2017-06-18T07:45:03Z</time>
      </trkpt>
      <trkpt lat="41.762141464278102" lon="13.769744513556361">
        <ele>1462.780029</ele>
        <time>2017-06-18T07:45:12Z</time>
      </trkpt>
      <trkpt lat="41.762205921113491" lon="13.769885497167706">
        <ele>1459.420044</ele>
        <time>2017-06-18T07:45:26Z</time>
      </trkpt>
      <trkpt lat="41.76222737878561" lon="13.76992623321712">
        <ele>1457.5</ele>
        <time>2017-06-18T07:45:31Z</time>
      </trkpt>
      <trkpt lat="41.762276999652386" lon="13.770038299262524">
        <ele>1454.130005</ele>
        <time>2017-06-18T07:45:40Z</time>
      </trkpt>
      <trkpt lat="41.762282028794289" lon="13.770063780248165">
        <ele>1453.650024</ele>
        <time>2017-06-18T07:45:42Z</time>
      </trkpt>
      <trkpt lat="41.762347491458058" lon="13.770219264551997">
        <ele>1450.290039</ele>
        <time>2017-06-18T07:45:52Z</time>
      </trkpt>
      <trkpt lat="41.762400968000293" lon="13.770365528762341">
        <ele>1447.3999020000001</ele>
        <time>2017-06-18T07:46:05Z</time>
      </trkpt>
      <trkpt lat="41.762404488399625" lon="13.770383466035128">
        <ele>1447.3999020000001</ele>
        <time>2017-06-18T07:46:06Z</time>
      </trkpt>
      <trkpt lat="41.762414127588272" lon="13.770450940355659">
        <ele>1446.440063</ele>
        <time>2017-06-18T07:46:10Z</time>
      </trkpt>
      <trkpt lat="41.762437177821994" lon="13.770526964217424">
        <ele>1445.4801030000001</ele>
        <time>2017-06-18T07:46:14Z</time>
      </trkpt>
      <trkpt lat="41.762473890557885" lon="13.770663337782025">
        <ele>1442.599976</ele>
        <time>2017-06-18T07:46:28Z</time>
      </trkpt>
      <trkpt lat="41.762484703212976" lon="13.770758807659149">
        <ele>1439.709961</ele>
        <time>2017-06-18T07:46:42Z</time>
      </trkpt>
      <trkpt lat="41.762488977983594" lon="13.770842207595706">
        <ele>1436.3500979999999</ele>
        <time>2017-06-18T07:46:53Z</time>
      </trkpt>
      <trkpt lat="41.762467604130507" lon="13.77099878154695">
        <ele>1433.459961</ele>
        <time>2017-06-18T07:47:06Z</time>
      </trkpt>
      <trkpt lat="41.762455785647035" lon="13.771025016903877">
        <ele>1432.9799800000001</ele>
        <time>2017-06-18T07:47:08Z</time>
      </trkpt>
      <trkpt lat="41.762295020744205" lon="13.771128784865141">
        <ele>1430.579956</ele>
        <time>2017-06-18T07:47:24Z</time>
      </trkpt>
      <trkpt lat="41.762226959690452" lon="13.771161139011383">
        <ele>1430.579956</ele>
        <time>2017-06-18T07:47:30Z</time>
      </trkpt>
      <trkpt lat="41.762091172859073" lon="13.771267589181662">
        <ele>1430.099976</ele>
        <time>2017-06-18T07:47:45Z</time>
      </trkpt>
      <trkpt lat="41.762004001066089" lon="13.771417876705527">
        <ele>1429.619995</ele>
        <time>2017-06-18T07:48:00Z</time>
      </trkpt>
      <trkpt lat="41.761889588087797" lon="13.771584006026387">
        <ele>1428.179932</ele>
        <time>2017-06-18T07:48:18Z</time>
      </trkpt>
      <trkpt lat="41.761811133474112" lon="13.77178936265409">
        <ele>1427.209961</ele>
        <time>2017-06-18T07:48:32Z</time>
      </trkpt>
      <trkpt lat="41.761698815971613" lon="13.7720219604671">
        <ele>1426.25</ele>
        <time>2017-06-18T07:48:46Z</time>
      </trkpt>
      <trkpt lat="41.761706862598658" lon="13.772261179983616">
        <ele>1424.329956</ele>
        <time>2017-06-18T07:49:00Z</time>
      </trkpt>
      <trkpt lat="41.761620361357927" lon="13.772549265995622">
        <ele>1423.849976</ele>
        <time>2017-06-18T07:49:16Z</time>
      </trkpt>
      <trkpt lat="41.761560598388314" lon="13.772855289280415">
        <ele>1422.410034</ele>
        <time>2017-06-18T07:49:33Z</time>
      </trkpt>
      <trkpt lat="41.761540062725544" lon="13.773127784952521">
        <ele>1421.4499510000001</ele>
        <time>2017-06-18T07:49:47Z</time>
      </trkpt>
      <trkpt lat="41.761538637802005" lon="13.773183776065707">
        <ele>1421.4499510000001</ele>
        <time>2017-06-18T07:49:50Z</time>
      </trkpt>
      <trkpt lat="41.761518772691488" lon="13.773412518203259">
        <ele>1420</ele>
        <time>2017-06-18T07:50:03Z</time>
      </trkpt>
      <trkpt lat="41.76146512851119" lon="13.773634638637304">
        <ele>1418.080078</ele>
        <time>2017-06-18T07:50:15Z</time>
      </trkpt>
      <trkpt lat="41.761441575363278" lon="13.77378785982728">
        <ele>1417.599976</ele>
        <time>2017-06-18T07:50:25Z</time>
      </trkpt>
      <trkpt lat="41.761432439088821" lon="13.773844940587878">
        <ele>1416.6400149999999</ele>
        <time>2017-06-18T07:50:29Z</time>
      </trkpt>
      <trkpt lat="41.761430008336902" lon="13.773905206471682">
        <ele>1416.160034</ele>
        <time>2017-06-18T07:50:33Z</time>
      </trkpt>
      <trkpt lat="41.761398492380977" lon="13.774009728804231">
        <ele>1415.6800539999999</ele>
        <time>2017-06-18T07:50:39Z</time>
      </trkpt>
      <trkpt lat="41.761412238702178" lon="13.774103270843625">
        <ele>1415.1999510000001</ele>
        <time>2017-06-18T07:50:44Z</time>
      </trkpt>
      <trkpt lat="41.761420201510191" lon="13.774173511192203">
        <ele>1414.719971</ele>
        <time>2017-06-18T07:50:48Z</time>
      </trkpt>
      <trkpt lat="41.761448616161942" lon="13.774238890036941">
        <ele>1414.23999</ele>
        <time>2017-06-18T07:50:52Z</time>
      </trkpt>
      <trkpt lat="41.761454734951258" lon="13.77434148453176">
        <ele>1413.76001</ele>
        <time>2017-06-18T07:50:58Z</time>
      </trkpt>
      <trkpt lat="41.761433025822043" lon="13.774434523656964">
        <ele>1412.7899170000001</ele>
        <time>2017-06-18T07:51:03Z</time>
      </trkpt>
      <trkpt lat="41.761431433260441" lon="13.774477439001203">
        <ele>1412.7899170000001</ele>
        <time>2017-06-18T07:51:05Z</time>
      </trkpt>
      <trkpt lat="41.761351637542248" lon="13.77470794133842">
        <ele>1411.830078</ele>
        <time>2017-06-18T07:51:16Z</time>
      </trkpt>
      <trkpt lat="41.761396816000342" lon="13.77484573982656">
        <ele>1410.3900149999999</ele>
        <time>2017-06-18T07:51:26Z</time>
      </trkpt>
      <trkpt lat="41.761512234807014" lon="13.775029303506017">
        <ele>1408.950073</ele>
        <time>2017-06-18T07:51:38Z</time>
      </trkpt>
      <trkpt lat="41.761538721621037" lon="13.775102393701673">
        <ele>1408.469971</ele>
        <time>2017-06-18T07:51:42Z</time>
      </trkpt>
      <trkpt lat="41.76155012100935" lon="13.775397101417184">
        <ele>1406.5500489999999</ele>
        <time>2017-06-18T07:52:00Z</time>
      </trkpt>
      <trkpt lat="41.761553641408682" lon="13.775618970394135">
        <ele>1405.099976</ele>
        <time>2017-06-18T07:52:15Z</time>
      </trkpt>
      <trkpt lat="41.761543834581971" lon="13.775651240721345">
        <ele>1405.099976</ele>
        <time>2017-06-18T07:52:17Z</time>
      </trkpt>
      <trkpt lat="41.761537883430719" lon="13.775734137743711">
        <ele>1404.619995</ele>
        <time>2017-06-18T07:52:21Z</time>
      </trkpt>
      <trkpt lat="41.761489687487483" lon="13.776042424142361">
        <ele>1403.179932</ele>
        <time>2017-06-18T07:52:37Z</time>
      </trkpt>
      <trkpt lat="41.761469235643744" lon="13.776284661144018">
        <ele>1403.179932</ele>
        <time>2017-06-18T07:52:49Z</time>
      </trkpt>
      <trkpt lat="41.761467810720205" lon="13.776340233162045">
        <ele>1402.700073</ele>
        <time>2017-06-18T07:52:53Z</time>
      </trkpt>
      <trkpt lat="41.761479713022709" lon="13.776445090770721">
        <ele>1402.700073</ele>
        <time>2017-06-18T07:52:59Z</time>
      </trkpt>
      <trkpt lat="41.761485915631056" lon="13.776627900078893">
        <ele>1402.700073</ele>
        <time>2017-06-18T07:53:13Z</time>
      </trkpt>
      <trkpt lat="41.761457081884146" lon="13.776707360520959">
        <ele>1401.7398679999999</ele>
        <time>2017-06-18T07:53:19Z</time>
      </trkpt>
      <trkpt lat="41.7614162620157" lon="13.77682026475668">
        <ele>1401.7398679999999</ele>
        <time>2017-06-18T07:53:25Z</time>
      </trkpt>
      <trkpt lat="41.761380722746253" lon="13.777050599455833">
        <ele>1401.26001</ele>
        <time>2017-06-18T07:53:35Z</time>
      </trkpt>
      <trkpt lat="41.761357337236404" lon="13.777147494256496">
        <ele>1401.26001</ele>
        <time>2017-06-18T07:53:40Z</time>
      </trkpt>
      <trkpt lat="41.761360438540578" lon="13.777379840612411">
        <ele>1400.3000489999999</ele>
        <time>2017-06-18T07:53:54Z</time>
      </trkpt>
      <trkpt lat="41.761343758553267" lon="13.777404902502894">
        <ele>1399.820068</ele>
        <time>2017-06-18T07:53:56Z</time>
      </trkpt>
      <trkpt lat="41.761255664750934" lon="13.777595339342952">
        <ele>1397.8900149999999</ele>
        <time>2017-06-18T07:54:10Z</time>
      </trkpt>
      <trkpt lat="41.761190118268132" lon="13.777859285473824">
        <ele>1396.4499510000001</ele>
        <time>2017-06-18T07:54:23Z</time>
      </trkpt>
      <trkpt lat="41.761175198480487" lon="13.777896417304873">
        <ele>1396.4499510000001</ele>
        <time>2017-06-18T07:54:26Z</time>
      </trkpt>
      <trkpt lat="41.761185508221388" lon="13.777981074526906">
        <ele>1395.969971</ele>
        <time>2017-06-18T07:54:30Z</time>
      </trkpt>
      <trkpt lat="41.761169079691172" lon="13.778163464739919">
        <ele>1395.48999</ele>
        <time>2017-06-18T07:54:45Z</time>
      </trkpt>
      <trkpt lat="41.761076375842094" lon="13.778298581019044">
        <ele>1394.049927</ele>
        <time>2017-06-18T07:54:56Z</time>
      </trkpt>
      <trkpt lat="41.76094469614327" lon="13.778421627357602">
        <ele>1393.0900879999999</ele>
        <time>2017-06-18T07:55:07Z</time>
      </trkpt>
      <trkpt lat="41.760894823819399" lon="13.778490358963609">
        <ele>1392.610107</ele>
        <time>2017-06-18T07:55:11Z</time>
      </trkpt>
      <trkpt lat="41.76073313690722" lon="13.778680460527539">
        <ele>1391.170044</ele>
        <time>2017-06-18T07:55:26Z</time>
      </trkpt>
      <trkpt lat="41.760610425844789" lon="13.778830328956246">
        <ele>1389.23999</ele>
        <time>2017-06-18T07:55:42Z</time>
      </trkpt>
      <trkpt lat="41.760462401434779" lon="13.778989668935537">
        <ele>1388.76001</ele>
        <time>2017-06-18T07:55:57Z</time>
      </trkpt>
      <trkpt lat="41.760330218821764" lon="13.779149930924177">
        <ele>1386.839966</ele>
        <time>2017-06-18T07:56:12Z</time>
      </trkpt>
      <trkpt lat="41.760168028995395" lon="13.779354533180594">
        <ele>1384.919922</ele>
        <time>2017-06-18T07:56:28Z</time>
      </trkpt>
      <trkpt lat="41.760036265477538" lon="13.779676984995604">
        <ele>1384.4399410000001</ele>
        <time>2017-06-18T07:56:41Z</time>
      </trkpt>
      <trkpt lat="41.760026626288891" lon="13.779975464567542">
        <ele>1383.9600829999999</ele>
        <time>2017-06-18T07:56:54Z</time>
      </trkpt>
      <trkpt lat="41.760031320154667" lon="13.780000694096088">
        <ele>1383.9600829999999</ele>
        <time>2017-06-18T07:56:56Z</time>
      </trkpt>
      <trkpt lat="41.760059064254165" lon="13.78026757389307">
        <ele>1383.469971</ele>
        <time>2017-06-18T07:57:12Z</time>
      </trkpt>
      <trkpt lat="41.760082030668855" lon="13.780351560562849">
        <ele>1383.469971</ele>
        <time>2017-06-18T07:57:17Z</time>
      </trkpt>
      <trkpt lat="41.760084964334965" lon="13.780371090397239">
        <ele>1383.469971</ele>
        <time>2017-06-18T07:57:18Z</time>
      </trkpt>
      <trkpt lat="41.760086137801409" lon="13.780391039326787">
        <ele>1383.469971</ele>
        <time>2017-06-18T07:57:19Z</time>
      </trkpt>
      <trkpt lat="41.760089574381709" lon="13.780408725142479">
        <ele>1383.469971</ele>
        <time>2017-06-18T07:57:20Z</time>
      </trkpt>
      <trkpt lat="41.760096531361341" lon="13.780426410958171">
        <ele>1383.469971</ele>
        <time>2017-06-18T07:57:21Z</time>
      </trkpt>
      <trkpt lat="41.76010181196034" lon="13.78043613396585">
        <ele>1383.469971</ele>
        <time>2017-06-18T07:57:22Z</time>
      </trkpt>
      <trkpt lat="41.760101141408086" lon="13.78044149838388">
        <ele>1383.469971</ele>
        <time>2017-06-18T07:57:23Z</time>
      </trkpt>
      <trkpt lat="41.76009988412261" lon="13.780451640486717">
        <ele>1383.469971</ele>
        <time>2017-06-18T07:57:24Z</time>
      </trkpt>
      <trkpt lat="41.760098962113261" lon="13.780465973541141">
        <ele>1383.469971</ele>
        <time>2017-06-18T07:57:25Z</time>
      </trkpt>
      <trkpt lat="41.760089239105582" lon="13.78048449754715">
        <ele>1383.469971</ele>
        <time>2017-06-18T07:57:26Z</time>
      </trkpt>
      <trkpt lat="41.760081360116601" lon="13.780500423163176">
        <ele>1383.469971</ele>
        <time>2017-06-18T07:57:27Z</time>
      </trkpt>
      <trkpt lat="41.760075660422444" lon="13.780519282445312">
        <ele>1383.469971</ele>
        <time>2017-06-18T07:57:28Z</time>
      </trkpt>
      <trkpt lat="41.760071469470859" lon="13.780539063736796">
        <ele>1383.469971</ele>
        <time>2017-06-18T07:57:29Z</time>
      </trkpt>
      <trkpt lat="41.760069038718939" lon="13.78055976703763">
        <ele>1383.469971</ele>
        <time>2017-06-18T07:57:30Z</time>
      </trkpt>
      <trkpt lat="41.760064763948321" lon="13.780580135062337">
        <ele>1383.469971</ele>
        <time>2017-06-18T07:57:31Z</time>
      </trkpt>
      <trkpt lat="41.760061411187053" lon="13.780604107305408">
        <ele>1383.469971</ele>
        <time>2017-06-18T07:57:32Z</time>
      </trkpt>
      <trkpt lat="41.760059567168355" lon="13.780626319348812">
        <ele>1383.469971</ele>
        <time>2017-06-18T07:57:33Z</time>
      </trkpt>
      <trkpt lat="41.760059064254165" lon="13.780654314905405">
        <ele>1383.469971</ele>
        <time>2017-06-18T07:57:34Z</time>
      </trkpt>
      <trkpt lat="41.760058561339974" lon="13.780678873881698">
        <ele>1383.469971</ele>
        <time>2017-06-18T07:57:35Z</time>
      </trkpt>
      <trkpt lat="41.760055711492896" lon="13.780703935772181">
        <ele>1383.469971</ele>
        <time>2017-06-18T07:57:36Z</time>
      </trkpt>
      <trkpt lat="41.760052107274532" lon="13.780727991834283">
        <ele>1383.469971</ele>
        <time>2017-06-18T07:57:37Z</time>
      </trkpt>
      <trkpt lat="41.760050598531961" lon="13.780751712620258">
        <ele>1383.469971</ele>
        <time>2017-06-18T07:57:38Z</time>
      </trkpt>
      <trkpt lat="41.760050766170025" lon="13.780898563563824">
        <ele>1384.4399410000001</ele>
        <time>2017-06-18T07:57:46Z</time>
      </trkpt>
      <trkpt lat="41.760085634887218" lon="13.781142393127084">
        <ele>1385.3999020000001</ele>
        <time>2017-06-18T07:58:01Z</time>
      </trkpt>
      <trkpt lat="41.760089322924614" lon="13.781189164146781">
        <ele>1385.3999020000001</ele>
        <time>2017-06-18T07:58:05Z</time>
      </trkpt>
      <trkpt lat="41.760061914101243" lon="13.781213304027915">
        <ele>1385.880005</ele>
        <time>2017-06-18T07:58:17Z</time>
      </trkpt>
      <trkpt lat="41.76004322245717" lon="13.781230235472322">
        <ele>1385.880005</ele>
        <time>2017-06-18T07:58:19Z</time>
      </trkpt>
      <trkpt lat="41.759996116161346" lon="13.781260661780834">
        <ele>1385.880005</ele>
        <time>2017-06-18T07:58:24Z</time>
      </trkpt>
      <trkpt lat="41.759986476972699" lon="13.781265104189515">
        <ele>1386.3599850000001</ele>
        <time>2017-06-18T07:58:25Z</time>
      </trkpt>
      <trkpt lat="41.759977759793401" lon="13.781271893531084">
        <ele>1386.3599850000001</ele>
        <time>2017-06-18T07:58:26Z</time>
      </trkpt>
      <trkpt lat="41.759961163625121" lon="13.78128781914711">
        <ele>1387.3199460000001</ele>
        <time>2017-06-18T07:58:28Z</time>
      </trkpt>
      <trkpt lat="41.759908860549331" lon="13.781336601823568">
        <ele>1388.280029</ele>
        <time>2017-06-18T07:58:36Z</time>
      </trkpt>
      <trkpt lat="41.759810959920287" lon="13.781419163569808">
        <ele>1390.6800539999999</ele>
        <time>2017-06-18T07:58:49Z</time>
      </trkpt>
      <trkpt lat="41.759748179465532" lon="13.781504658982158">
        <ele>1393.570068</ele>
        <time>2017-06-18T07:59:05Z</time>
      </trkpt>
      <trkpt lat="41.759665617719293" lon="13.781477082520723">
        <ele>1395.969971</ele>
        <time>2017-06-18T07:59:19Z</time>
      </trkpt>
      <trkpt lat="41.759581966325641" lon="13.781544724479318">
        <ele>1397.8900149999999</ele>
        <time>2017-06-18T07:59:33Z</time>
      </trkpt>
      <trkpt lat="41.759553635492921" lon="13.781668022274971">
        <ele>1400.3000489999999</ele>
        <time>2017-06-18T07:59:47Z</time>
      </trkpt>
      <trkpt lat="41.759539134800434" lon="13.781755361706018">
        <ele>1402.700073</ele>
        <time>2017-06-18T08:00:03Z</time>
      </trkpt>
      <trkpt lat="41.759534860029817" lon="13.781854435801506">
        <ele>1405.099976</ele>
        <time>2017-06-18T08:00:18Z</time>
      </trkpt>
      <trkpt lat="41.75947736017406" lon="13.781927106902003">
        <ele>1408.469971</ele>
        <time>2017-06-18T08:00:35Z</time>
      </trkpt>
      <trkpt lat="41.759414412081242" lon="13.781954431906343">
        <ele>1410.3900149999999</ele>
        <time>2017-06-18T08:00:49Z</time>
      </trkpt>
      <trkpt lat="41.759449867531657" lon="13.782035065814853">
        <ele>1412.3100589999999</ele>
        <time>2017-06-18T08:01:02Z</time>
      </trkpt>
      <trkpt lat="41.759395468980074" lon="13.781972788274288">
        <ele>1414.719971</ele>
        <time>2017-06-18T08:01:15Z</time>
      </trkpt>
      <trkpt lat="41.759330006316304" lon="13.781881928443909">
        <ele>1416.160034</ele>
        <time>2017-06-18T08:01:28Z</time>
      </trkpt>
      <trkpt lat="41.759271919727325" lon="13.78182141110301">
        <ele>1418.5600589999999</ele>
        <time>2017-06-18T08:01:43Z</time>
      </trkpt>
      <trkpt lat="41.759218359366059" lon="13.781763073056936">
        <ele>1420</ele>
        <time>2017-06-18T08:01:57Z</time>
      </trkpt>
      <trkpt lat="41.7591299302876" lon="13.781692497432232">
        <ele>1421.4499510000001</ele>
        <time>2017-06-18T08:02:10Z</time>
      </trkpt>
      <trkpt lat="41.759056085720658" lon="13.78160540945828">
        <ele>1422.8900149999999</ele>
        <time>2017-06-18T08:02:25Z</time>
      </trkpt>
      <trkpt lat="41.758993891999125" lon="13.781590908765793">
        <ele>1424.329956</ele>
        <time>2017-06-18T08:02:36Z</time>
      </trkpt>
      <trkpt lat="41.758951479569077" lon="13.781618066132069">
        <ele>1425.7700199999999</ele>
        <time>2017-06-18T08:02:44Z</time>
      </trkpt>
      <trkpt lat="41.758854333311319" lon="13.781608678400517">
        <ele>1427.700073</ele>
        <time>2017-06-18T08:02:59Z</time>
      </trkpt>
      <trkpt lat="41.758802533149719" lon="13.781670872122049">
        <ele>1428.179932</ele>
        <time>2017-06-18T08:03:09Z</time>
      </trkpt>
      <trkpt lat="41.758761461824179" lon="13.781751841306686">
        <ele>1428.6599120000001</ele>
        <time>2017-06-18T08:03:17Z</time>
      </trkpt>
      <trkpt lat="41.758672362193465" lon="13.781739436089993">
        <ele>1429.619995</ele>
        <time>2017-06-18T08:03:28Z</time>
      </trkpt>
      <trkpt lat="41.758569767698646" lon="13.781724935397506">
        <ele>1431.5399170000001</ele>
        <time>2017-06-18T08:03:41Z</time>
      </trkpt>
      <trkpt lat="41.758521739393473" lon="13.781745303422213">
        <ele>1432.0200199999999</ele>
        <time>2017-06-18T08:03:46Z</time>
      </trkpt>
      <trkpt lat="41.758420569822192" lon="13.781873630359769">
        <ele>1432.0200199999999</ele>
        <time>2017-06-18T08:04:01Z</time>
      </trkpt>
      <trkpt lat="41.758329039439559" lon="13.78197580575943">
        <ele>1431.5399170000001</ele>
        <time>2017-06-18T08:04:13Z</time>
      </trkpt>
      <trkpt lat="41.758245639503002" lon="13.78207940608263">
        <ele>1432.5</ele>
        <time>2017-06-18T08:04:26Z</time>
      </trkpt>
      <trkpt lat="41.758173974230886" lon="13.782228017225862">
        <ele>1433.9399410000001</ele>
        <time>2017-06-18T08:04:40Z</time>
      </trkpt>
      <trkpt lat="41.758123934268951" lon="13.782381322234869">
        <ele>1435.869995</ele>
        <time>2017-06-18T08:04:53Z</time>
      </trkpt>
      <trkpt lat="41.758055537939072" lon="13.782410072162747">
        <ele>1436.830078</ele>
        <time>2017-06-18T08:05:04Z</time>
      </trkpt>
      <trkpt lat="41.758047491312027" lon="13.782403534278274">
        <ele>1436.830078</ele>
        <time>2017-06-18T08:05:08Z</time>
      </trkpt>
      <trkpt lat="41.757983034476638" lon="13.782375706359744">
        <ele>1436.830078</ele>
        <time>2017-06-18T08:05:21Z</time>
      </trkpt>
      <trkpt lat="41.757885720580816" lon="13.782369587570429">
        <ele>1437.3100589999999</ele>
        <time>2017-06-18T08:05:40Z</time>
      </trkpt>
      <trkpt lat="41.757784383371472" lon="13.782419795170426">
        <ele>1438.2698969999999</ele>
        <time>2017-06-18T08:05:52Z</time>
      </trkpt>
      <trkpt lat="41.75765966065228" lon="13.782473774626851">
        <ele>1438.2698969999999</ele>
        <time>2017-06-18T08:06:03Z</time>
      </trkpt>
      <trkpt lat="41.757652871310711" lon="13.782478636130691">
        <ele>1437.7899170000001</ele>
        <time>2017-06-18T08:06:04Z</time>
      </trkpt>
      <trkpt lat="41.757557569071651" lon="13.782579638063908">
        <ele>1437.7899170000001</ele>
        <time>2017-06-18T08:06:14Z</time>
      </trkpt>
      <trkpt lat="41.757492441684008" lon="13.782596401870251">
        <ele>1438.75</ele>
        <time>2017-06-18T08:06:20Z</time>
      </trkpt>
      <trkpt lat="41.757363025099039" lon="13.782577123492956">
        <ele>1441.150024</ele>
        <time>2017-06-18T08:06:35Z</time>
      </trkpt>
      <trkpt lat="41.757305441424251" lon="13.782584918662906">
        <ele>1441.150024</ele>
        <time>2017-06-18T08:06:41Z</time>
      </trkpt>
      <trkpt lat="41.757193962112069" lon="13.782554659992456">
        <ele>1440.669922</ele>
        <time>2017-06-18T08:06:50Z</time>
      </trkpt>
      <trkpt lat="41.757135959342122" lon="13.782530603930354">
        <ele>1440.669922</ele>
        <time>2017-06-18T08:06:54Z</time>
      </trkpt>
      <trkpt lat="41.757023306563497" lon="13.782429015263915">
        <ele>1439.709961</ele>
        <time>2017-06-18T08:07:08Z</time>
      </trkpt>
      <trkpt lat="41.756933201104403" lon="13.782367408275604">
        <ele>1439.2299800000001</ele>
        <time>2017-06-18T08:07:21Z</time>
      </trkpt>
      <trkpt lat="41.756849465891719" lon="13.782304963096976">
        <ele>1439.2299800000001</ele>
        <time>2017-06-18T08:07:27Z</time>
      </trkpt>
      <trkpt lat="41.756763132289052" lon="13.782309740781784">
        <ele>1438.75</ele>
        <time>2017-06-18T08:07:34Z</time>
      </trkpt>
      <trkpt lat="41.756676966324449" lon="13.782260874286294">
        <ele>1438.2698969999999</ele>
        <time>2017-06-18T08:07:39Z</time>
      </trkpt>
      <trkpt lat="41.75655241124332" lon="13.782187784090638">
        <ele>1438.2698969999999</ele>
        <time>2017-06-18T08:07:53Z</time>
      </trkpt>
      <trkpt lat="41.756371781229973" lon="13.782057194039226">
        <ele>1437.7899170000001</ele>
        <time>2017-06-18T08:08:12Z</time>
      </trkpt>
      <trkpt lat="41.756314365193248" lon="13.782041519880295">
        <ele>1437.7899170000001</ele>
        <time>2017-06-18T08:08:28Z</time>
      </trkpt>
      <trkpt lat="41.756236329674721" lon="13.782004388049245">
        <ele>1437.7899170000001</ele>
        <time>2017-06-18T08:08:46Z</time>
      </trkpt>
      <trkpt lat="41.756220068782568" lon="13.781969100236893">
        <ele>1437.7899170000001</ele>
        <time>2017-06-18T08:08:50Z</time>
      </trkpt>
      <trkpt lat="41.756180841475725" lon="13.781877486035228">
        <ele>1437.7899170000001</ele>
        <time>2017-06-18T08:08:59Z</time>
      </trkpt>
      <trkpt lat="41.756154438480735" lon="13.781792409718037">
        <ele>1437.7899170000001</ele>
        <time>2017-06-18T08:09:03Z</time>
      </trkpt>
      <trkpt lat="41.756039103493094" lon="13.781636003404856">
        <ele>1440.1899410000001</ele>
        <time>2017-06-18T08:09:16Z</time>
      </trkpt>
      <trkpt lat="41.756028458476067" lon="13.781619323417544">
        <ele>1440.669922</ele>
        <time>2017-06-18T08:09:17Z</time>
      </trkpt>
      <trkpt lat="41.755985207855701" lon="13.781600715592504">
        <ele>1441.630005</ele>
        <time>2017-06-18T08:09:23Z</time>
      </trkpt>
      <trkpt lat="41.755932234227657" lon="13.781500970944762">
        <ele>1443.5600589999999</ele>
        <time>2017-06-18T08:09:35Z</time>
      </trkpt>
      <trkpt lat="41.755834920331836" lon="13.781354120001197">
        <ele>1445.4801030000001</ele>
        <time>2017-06-18T08:09:50Z</time>
      </trkpt>
      <trkpt lat="41.755793262273073" lon="13.781265188008547">
        <ele>1446.440063</ele>
        <time>2017-06-18T08:09:57Z</time>
      </trkpt>
      <trkpt lat="41.755767362192273" lon="13.781174579635262">
        <ele>1447.3999020000001</ele>
        <time>2017-06-18T08:10:03Z</time>
      </trkpt>
      <trkpt lat="41.755714388564229" lon="13.781088832765818">
        <ele>1448.3599850000001</ele>
        <time>2017-06-18T08:10:10Z</time>
      </trkpt>
      <trkpt lat="41.755613135173917" lon="13.780937539413571">
        <ele>1449.3199460000001</ele>
        <time>2017-06-18T08:10:23Z</time>
      </trkpt>
      <trkpt lat="41.755602322518826" lon="13.780927564948797">
        <ele>1449.3199460000001</ele>
        <time>2017-06-18T08:10:24Z</time>
      </trkpt>
      <trkpt lat="41.755518335849047" lon="13.780811978504062">
        <ele>1450.290039</ele>
        <time>2017-06-18T08:10:38Z</time>
      </trkpt>
      <trkpt lat="41.755408365279436" lon="13.780723214149475">
        <ele>1452.209961</ele>
        <time>2017-06-18T08:10:50Z</time>
      </trkpt>
      <trkpt lat="41.755344662815332" lon="13.780676862224936">
        <ele>1453.650024</ele>
        <time>2017-06-18T08:10:58Z</time>
      </trkpt>
      <trkpt lat="41.75530350767076" lon="13.780636293813586">
        <ele>1454.6099850000001</ele>
        <time>2017-06-18T08:11:04Z</time>
      </trkpt>
      <trkpt lat="41.755231590941548" lon="13.780554905533791">
        <ele>1456.5299070000001</ele>
        <time>2017-06-18T08:11:16Z</time>
      </trkpt>
      <trkpt lat="41.755224214866757" lon="13.780546188354492">
        <ele>1456.5299070000001</ele>
        <time>2017-06-18T08:11:17Z</time>
      </trkpt>
      <trkpt lat="41.755097061395645" lon="13.78044493496418">
        <ele>1457.9799800000001</ele>
        <time>2017-06-18T08:11:30Z</time>
      </trkpt>
      <trkpt lat="41.755071161314845" lon="13.780415263026953">
        <ele>1457.9799800000001</ele>
        <time>2017-06-18T08:11:33Z</time>
      </trkpt>
      <trkpt lat="41.755029084160924" lon="13.780384920537472">
        <ele>1457.9799800000001</ele>
        <time>2017-06-18T08:11:38Z</time>
      </trkpt>
      <trkpt lat="41.755005698651075" lon="13.780355416238308">
        <ele>1458.459961</ele>
        <time>2017-06-18T08:11:40Z</time>
      </trkpt>
      <trkpt lat="41.754993461072445" lon="13.780332030728459">
        <ele>1458.459961</ele>
        <time>2017-06-18T08:11:41Z</time>
      </trkpt>
      <trkpt lat="41.754985079169273" lon="13.780320631340146">
        <ele>1458.459961</ele>
        <time>2017-06-18T08:11:42Z</time>
      </trkpt>
      <trkpt lat="41.754961023107171" lon="13.780314009636641">
        <ele>1458.459961</ele>
        <time>2017-06-18T08:11:45Z</time>
      </trkpt>
      <trkpt lat="41.75495121628046" lon="13.780314177274704">
        <ele>1458.459961</ele>
        <time>2017-06-18T08:11:46Z</time>
      </trkpt>
      <trkpt lat="41.754941660910845" lon="13.780316859483719">
        <ele>1458.459961</ele>
        <time>2017-06-18T08:11:47Z</time>
      </trkpt>
      <trkpt lat="41.754931434988976" lon="13.78032180480659">
        <ele>1458.459961</ele>
        <time>2017-06-18T08:11:48Z</time>
      </trkpt>
      <trkpt lat="41.754915425553918" lon="13.780339239165187">
        <ele>1458.459961</ele>
        <time>2017-06-18T08:11:50Z</time>
      </trkpt>
      <trkpt lat="41.75490721128881" lon="13.780394727364182">
        <ele>1458.459961</ele>
        <time>2017-06-18T08:11:55Z</time>
      </trkpt>
      <trkpt lat="41.754906205460429" lon="13.78041266463697">
        <ele>1459.420044</ele>
        <time>2017-06-18T08:11:56Z</time>
      </trkpt>
      <trkpt lat="41.754906792193651" lon="13.780435128137469">
        <ele>1459.420044</ele>
        <time>2017-06-18T08:11:57Z</time>
      </trkpt>
      <trkpt lat="41.754911402240396" lon="13.780450467020273">
        <ele>1459.420044</ele>
        <time>2017-06-18T08:11:58Z</time>
      </trkpt>
      <trkpt lat="41.75491601228714" lon="13.780459687113762">
        <ele>1459.420044</ele>
        <time>2017-06-18T08:11:59Z</time>
      </trkpt>
      <trkpt lat="41.754965465515852" lon="13.780549122020602">
        <ele>1459.900024</ele>
        <time>2017-06-18T08:12:07Z</time>
      </trkpt>
      <trkpt lat="41.755012739449739" lon="13.780630007386208">
        <ele>1460.8599850000001</ele>
        <time>2017-06-18T08:12:14Z</time>
      </trkpt>
      <trkpt lat="41.755019864067435" lon="13.780650962144136">
        <ele>1460.8599850000001</ele>
        <time>2017-06-18T08:12:15Z</time>
      </trkpt>
      <trkpt lat="41.755026569589972" lon="13.780668564140797">
        <ele>1461.339966</ele>
        <time>2017-06-18T08:12:16Z</time>
      </trkpt>
      <trkpt lat="41.755031682550907" lon="13.780684825032949">
        <ele>1461.339966</ele>
        <time>2017-06-18T08:12:17Z</time>
      </trkpt>
      <trkpt lat="41.755062192678452" lon="13.78075716085732">
        <ele>1461.820068</ele>
        <time>2017-06-18T08:12:23Z</time>
      </trkpt>
      <trkpt lat="41.755061103031039" lon="13.780780714005232">
        <ele>1461.820068</ele>
        <time>2017-06-18T08:12:24Z</time>
      </trkpt>
      <trkpt lat="41.755033526569605" lon="13.780914908275008">
        <ele>1462.780029</ele>
        <time>2017-06-18T08:12:37Z</time>
      </trkpt>
      <trkpt lat="41.755030425265431" lon="13.780923709273338">
        <ele>1462.780029</ele>
        <time>2017-06-18T08:12:38Z</time>
      </trkpt>
      <trkpt lat="41.754964627325535" lon="13.780987076461315">
        <ele>1463.73999</ele>
        <time>2017-06-18T08:12:46Z</time>
      </trkpt>
      <trkpt lat="41.754827834665775" lon="13.780983807519078">
        <ele>1466.150024</ele>
        <time>2017-06-18T08:12:58Z</time>
      </trkpt>
      <trkpt lat="41.754749715328217" lon="13.780981209129095">
        <ele>1466.150024</ele>
        <time>2017-06-18T08:13:07Z</time>
      </trkpt>
      <trkpt lat="41.754614934325218" lon="13.78099562600255">
        <ele>1468.5500489999999</ele>
        <time>2017-06-18T08:13:22Z</time>
      </trkpt>
      <trkpt lat="41.754526169970632" lon="13.781050276011229">
        <ele>1469.98999</ele>
        <time>2017-06-18T08:13:33Z</time>
      </trkpt>
      <trkpt lat="41.754506388679147" lon="13.781099561601877">
        <ele>1470.469971</ele>
        <time>2017-06-18T08:13:38Z</time>
      </trkpt>
      <trkpt lat="41.754480069503188" lon="13.781252782791853">
        <ele>1471.919922</ele>
        <time>2017-06-18T08:13:51Z</time>
      </trkpt>
      <trkpt lat="41.754454839974642" lon="13.781286729499698">
        <ele>1472.3999020000001</ele>
        <time>2017-06-18T08:13:54Z</time>
      </trkpt>
      <trkpt lat="41.754408990964293" lon="13.781360741704702">
        <ele>1472.3999020000001</ele>
        <time>2017-06-18T08:14:01Z</time>
      </trkpt>
      <trkpt lat="41.754328440874815" lon="13.781518740579486">
        <ele>1474.3199460000001</ele>
        <time>2017-06-18T08:14:15Z</time>
      </trkpt>
      <trkpt lat="41.754247639328241" lon="13.781660059466958">
        <ele>1476.23999</ele>
        <time>2017-06-18T08:14:28Z</time>
      </trkpt>
      <trkpt lat="41.75416549667716" lon="13.781766593456268">
        <ele>1476.719971</ele>
        <time>2017-06-18T08:14:40Z</time>
      </trkpt>
      <trkpt lat="41.754133393988013" lon="13.781885867938399">
        <ele>1477.1999510000001</ele>
        <time>2017-06-18T08:14:53Z</time>
      </trkpt>
      <trkpt lat="41.754126939922571" lon="13.781898440793157">
        <ele>1477.6800539999999</ele>
        <time>2017-06-18T08:14:54Z</time>
      </trkpt>
      <trkpt lat="41.754097267985344" lon="13.781991982832551">
        <ele>1478.160034</ele>
        <time>2017-06-18T08:15:01Z</time>
      </trkpt>
      <trkpt lat="41.753976484760642" lon="13.782206308096647">
        <ele>1480.570068</ele>
        <time>2017-06-18T08:15:16Z</time>
      </trkpt>
      <trkpt lat="41.753917308524251" lon="13.782374868169427">
        <ele>1482.009888</ele>
        <time>2017-06-18T08:15:29Z</time>
      </trkpt>
      <trkpt lat="41.753907585516572" lon="13.782451981678605">
        <ele>1482.009888</ele>
        <time>2017-06-18T08:15:34Z</time>
      </trkpt>
      <trkpt lat="41.753913201391697" lon="13.782531190663576">
        <ele>1482.48999</ele>
        <time>2017-06-18T08:15:40Z</time>
      </trkpt>
      <trkpt lat="41.753848325461149" lon="13.782644513994455">
        <ele>1484.4099120000001</ele>
        <time>2017-06-18T08:15:53Z</time>
      </trkpt>
      <trkpt lat="41.753866095095873" lon="13.782691368833184">
        <ele>1484.4099120000001</ele>
        <time>2017-06-18T08:16:13Z</time>
      </trkpt>
      <trkpt lat="41.753824604675174" lon="13.782644597813487">
        <ele>1484.4099120000001</ele>
        <time>2017-06-18T08:16:36Z</time>
      </trkpt>
      <trkpt lat="41.753782527521253" lon="13.782641999423504">
        <ele>1484.8900149999999</ele>
        <time>2017-06-18T08:17:05Z</time>
      </trkpt>
      <trkpt lat="41.753799207508564" lon="13.782652225345373">
        <ele>1485.369995</ele>
        <time>2017-06-18T08:17:28Z</time>
      </trkpt>
      <trkpt lat="41.753814462572336" lon="13.782627079635859">
        <ele>1485.369995</ele>
        <time>2017-06-18T08:17:58Z</time>
      </trkpt>
      <trkpt lat="41.753868106752634" lon="13.782519036903977">
        <ele>1485.849976</ele>
        <time>2017-06-18T08:18:25Z</time>
      </trkpt>
      <trkpt lat="41.75381169654429" lon="13.782512163743377">
        <ele>1486.339966</ele>
        <time>2017-06-18T08:18:58Z</time>
      </trkpt>
      <trkpt lat="41.75376676954329" lon="13.782535884529352">
        <ele>1486.339966</ele>
        <time>2017-06-18T08:19:24Z</time>
      </trkpt>
      <trkpt lat="41.753713041543961" lon="13.782547367736697">
        <ele>1486.820068</ele>
        <time>2017-06-18T08:19:55Z</time>
      </trkpt>
      <trkpt lat="41.753776492550969" lon="13.782604532316327">
        <ele>1487.3000489999999</ele>
        <time>2017-06-18T08:20:10Z</time>
      </trkpt>
      <trkpt lat="41.75382343120873" lon="13.782593803480268">
        <ele>1486.339966</ele>
        <time>2017-06-18T08:20:28Z</time>
      </trkpt>
      <trkpt lat="41.753828963264823" lon="13.78266965970397">
        <ele>1486.339966</ele>
        <time>2017-06-18T08:20:58Z</time>
      </trkpt>
      <trkpt lat="41.753817312419415" lon="13.782658260315657">
        <ele>1486.339966</ele>
        <time>2017-06-18T08:21:03Z</time>
      </trkpt>
      <trkpt lat="41.753758722916245" lon="13.782637137919664">
        <ele>1486.339966</ele>
        <time>2017-06-18T08:21:18Z</time>
      </trkpt>
      <trkpt lat="41.753762159496546" lon="13.782668402418494">
        <ele>1487.780029</ele>
        <time>2017-06-18T08:21:32Z</time>
      </trkpt>
      <trkpt lat="41.753765260800719" lon="13.782706204801798">
        <ele>1487.780029</ele>
        <time>2017-06-18T08:22:04Z</time>
      </trkpt>
      <trkpt lat="41.753755705431104" lon="13.782754736021161">
        <ele>1488.26001</ele>
        <time>2017-06-18T08:22:13Z</time>
      </trkpt>
      <trkpt lat="41.753695774823427" lon="13.782820533961058">
        <ele>1488.73999</ele>
        <time>2017-06-18T08:22:27Z</time>
      </trkpt>
      <trkpt lat="41.75361723639071" lon="13.782892031595111">
        <ele>1489.700073</ele>
        <time>2017-06-18T08:22:37Z</time>
      </trkpt>
      <trkpt lat="41.753550684079528" lon="13.78304248675704">
        <ele>1491.139893</ele>
        <time>2017-06-18T08:22:52Z</time>
      </trkpt>
      <trkpt lat="41.75347113981843" lon="13.783156564459205">
        <ele>1493.059937</ele>
        <time>2017-06-18T08:23:05Z</time>
      </trkpt>
      <trkpt lat="41.753404587507248" lon="13.783327471464872">
        <ele>1493.5500489999999</ele>
        <time>2017-06-18T08:23:19Z</time>
      </trkpt>
      <trkpt lat="41.753355888649821" lon="13.783548334613442">
        <ele>1494.98999</ele>
        <time>2017-06-18T08:23:34Z</time>
      </trkpt>
      <trkpt lat="41.753310458734632" lon="13.783685714006424">
        <ele>1498.3500979999999</ele>
        <time>2017-06-18T08:23:44Z</time>
      </trkpt>
      <trkpt lat="41.75319311209023" lon="13.783763162791729">
        <ele>1498.830078</ele>
        <time>2017-06-18T08:23:57Z</time>
      </trkpt>
      <trkpt lat="41.753124464303255" lon="13.783837258815765">
        <ele>1499.3100589999999</ele>
        <time>2017-06-18T08:24:04Z</time>
      </trkpt>
      <trkpt lat="41.752949114888906" lon="13.784019062295556">
        <ele>1501.23999</ele>
        <time>2017-06-18T08:24:21Z</time>
      </trkpt>
      <trkpt lat="41.752849873155355" lon="13.784198015928268">
        <ele>1501.23999</ele>
        <time>2017-06-18T08:24:36Z</time>
      </trkpt>
      <trkpt lat="41.752814836800098" lon="13.784254426136613">
        <ele>1501.23999</ele>
        <time>2017-06-18T08:24:42Z</time>
      </trkpt>
      <trkpt lat="41.752703608945012" lon="13.784411000087857">
        <ele>1502.1999510000001</ele>
        <time>2017-06-18T08:24:57Z</time>
      </trkpt>
      <trkpt lat="41.752600679174066" lon="13.784520300105214">
        <ele>1502.1999510000001</ele>
        <time>2017-06-18T08:25:08Z</time>
      </trkpt>
      <trkpt lat="41.75255156122148" lon="13.784801261499524">
        <ele>1502.1999510000001</ele>
        <time>2017-06-18T08:25:23Z</time>
      </trkpt>
      <trkpt lat="41.752533540129662" lon="13.78486798144877">
        <ele>1502.1999510000001</ele>
        <time>2017-06-18T08:25:42Z</time>
      </trkpt>
      <trkpt lat="41.75252515822649" lon="13.784884661436081">
        <ele>1502.1999510000001</ele>
        <time>2017-06-18T08:26:07Z</time>
      </trkpt>
      <trkpt lat="41.752479979768395" lon="13.785003935918212">
        <ele>1500.76001</ele>
        <time>2017-06-18T08:26:33Z</time>
      </trkpt>
      <trkpt lat="41.752295326441526" lon="13.785228990018368">
        <ele>1500.76001</ele>
        <time>2017-06-18T08:26:49Z</time>
      </trkpt>
      <trkpt lat="41.752119893208146" lon="13.785312389954925">
        <ele>1499.790039</ele>
        <time>2017-06-18T08:27:03Z</time>
      </trkpt>
      <trkpt lat="41.751888217404485" lon="13.78538983874023">
        <ele>1497.869995</ele>
        <time>2017-06-18T08:27:23Z</time>
      </trkpt>
      <trkpt lat="41.751714712008834" lon="13.78567130304873">
        <ele>1497.869995</ele>
        <time>2017-06-18T08:27:39Z</time>
      </trkpt>
      <trkpt lat="41.751547325402498" lon="13.785814382135868">
        <ele>1499.3100589999999</ele>
        <time>2017-06-18T08:27:50Z</time>
      </trkpt>
      <trkpt lat="41.751445736736059" lon="13.785919575020671">
        <ele>1500.2698969999999</ele>
        <time>2017-06-18T08:28:04Z</time>
      </trkpt>
      <trkpt lat="41.751369712874293" lon="13.785966262221336">
        <ele>1500.2698969999999</ele>
        <time>2017-06-18T08:28:13Z</time>
      </trkpt>
      <trkpt lat="41.751334089785814" lon="13.785971961915493">
        <ele>1500.2698969999999</ele>
        <time>2017-06-18T08:28:16Z</time>
      </trkpt>
      <trkpt lat="41.751298634335399" lon="13.786002220585942">
        <ele>1500.2698969999999</ele>
        <time>2017-06-18T08:28:19Z</time>
      </trkpt>
      <trkpt lat="41.751098139211535" lon="13.786109006032348">
        <ele>1500.2698969999999</ele>
        <time>2017-06-18T08:28:34Z</time>
      </trkpt>
      <trkpt lat="41.750992191955447" lon="13.786203302443027">
        <ele>1498.830078</ele>
        <time>2017-06-18T08:28:43Z</time>
      </trkpt>
      <trkpt lat="41.750881131738424" lon="13.786460375413299">
        <ele>1498.3500979999999</ele>
        <time>2017-06-18T08:29:00Z</time>
      </trkpt>
      <trkpt lat="41.750819021835923" lon="13.786660870537162">
        <ele>1499.790039</ele>
        <time>2017-06-18T08:29:15Z</time>
      </trkpt>
      <trkpt lat="41.750705698505044" lon="13.786952812224627">
        <ele>1499.790039</ele>
        <time>2017-06-18T08:29:32Z</time>
      </trkpt>
      <trkpt lat="41.750675104558468" lon="13.787273420020938">
        <ele>1501.23999</ele>
        <time>2017-06-18T08:29:49Z</time>
      </trkpt>
      <trkpt lat="41.750667141750455" lon="13.787444159388542">
        <ele>1501.719971</ele>
        <time>2017-06-18T08:30:03Z</time>
      </trkpt>
      <trkpt lat="41.750508639961481" lon="13.787470227107406">
        <ele>1502.1999510000001</ele>
        <time>2017-06-18T08:30:19Z</time>
      </trkpt>
      <trkpt lat="41.75043823197484" lon="13.787497468292713">
        <ele>1504.599976</ele>
        <time>2017-06-18T08:30:31Z</time>
      </trkpt>
      <trkpt lat="41.750290123745799" lon="13.787582628428936">
        <ele>1507.4799800000001</ele>
        <time>2017-06-18T08:30:47Z</time>
      </trkpt>
      <trkpt lat="41.75019633024931" lon="13.7877416331321">
        <ele>1509.4099120000001</ele>
        <time>2017-06-18T08:31:05Z</time>
      </trkpt>
      <trkpt lat="41.750161964446306" lon="13.787881108000875">
        <ele>1511.809937</ele>
        <time>2017-06-18T08:31:21Z</time>
      </trkpt>
      <trkpt lat="41.75013380125165" lon="13.788079172372818">
        <ele>1514.209961</ele>
        <time>2017-06-18T08:31:40Z</time>
      </trkpt>
      <trkpt lat="41.750052915886045" lon="13.78821219317615">
        <ele>1517.099976</ele>
        <time>2017-06-18T08:31:55Z</time>
      </trkpt>
      <trkpt lat="41.749957529827952" lon="13.788344459608197">
        <ele>1519.5</ele>
        <time>2017-06-18T08:32:11Z</time>
      </trkpt>
      <trkpt lat="41.749840099364519" lon="13.788373041898012">
        <ele>1520.459961</ele>
        <time>2017-06-18T08:32:23Z</time>
      </trkpt>
      <trkpt lat="41.749725434929132" lon="13.788433223962784">
        <ele>1520.9399410000001</ele>
        <time>2017-06-18T08:32:36Z</time>
      </trkpt>
      <trkpt lat="41.74968478269875" lon="13.788443366065621">
        <ele>1520.9399410000001</ele>
        <time>2017-06-18T08:32:39Z</time>
      </trkpt>
      <trkpt lat="41.749594258144498" lon="13.788513019680977">
        <ele>1520.459961</ele>
        <time>2017-06-18T08:32:50Z</time>
      </trkpt>
      <trkpt lat="41.749549834057689" lon="13.788558365777135">
        <ele>1519.5</ele>
        <time>2017-06-18T08:32:54Z</time>
      </trkpt>
      <trkpt lat="41.749422010034323" lon="13.788628438487649">
        <ele>1518.059937</ele>
        <time>2017-06-18T08:33:07Z</time>
      </trkpt>
      <trkpt lat="41.749270465224981" lon="13.788682417944074">
        <ele>1517.579956</ele>
        <time>2017-06-18T08:33:17Z</time>
      </trkpt>
      <trkpt lat="41.749107604846358" lon="13.788739331066608">
        <ele>1516.139893</ele>
        <time>2017-06-18T08:33:30Z</time>
      </trkpt>
      <trkpt lat="41.748941224068403" lon="13.78882147371769">
        <ele>1514.690063</ele>
        <time>2017-06-18T08:33:42Z</time>
      </trkpt>
      <trkpt lat="41.748764365911484" lon="13.788910321891308">
        <ele>1513.25</ele>
        <time>2017-06-18T08:33:58Z</time>
      </trkpt>
      <trkpt lat="41.748588094487786" lon="13.788981400430202">
        <ele>1512.7700199999999</ele>
        <time>2017-06-18T08:34:13Z</time>
      </trkpt>
      <trkpt lat="41.74840503372252" lon="13.789133867248893">
        <ele>1511.329956</ele>
        <time>2017-06-18T08:34:29Z</time>
      </trkpt>
      <trkpt lat="41.748264133930206" lon="13.789297984912992">
        <ele>1509.4099120000001</ele>
        <time>2017-06-18T08:34:42Z</time>
      </trkpt>
      <trkpt lat="41.74821937456727" lon="13.789330590516329">
        <ele>1508.4499510000001</ele>
        <time>2017-06-18T08:34:56Z</time>
      </trkpt>
      <trkpt lat="41.748184589669108" lon="13.789346683770418">
        <ele>1508.4499510000001</ele>
        <time>2017-06-18T08:35:14Z</time>
      </trkpt>
      <trkpt lat="41.748146368190646" lon="13.789381217211485">
        <ele>1509.4099120000001</ele>
        <time>2017-06-18T08:35:18Z</time>
      </trkpt>
      <trkpt lat="41.748113427311182" lon="13.789379205554724">
        <ele>1509.4099120000001</ele>
        <time>2017-06-18T08:35:22Z</time>
      </trkpt>
      <trkpt lat="41.74806053750217" lon="13.789366465061903">
        <ele>1507.969971</ele>
        <time>2017-06-18T08:35:27Z</time>
      </trkpt>
      <trkpt lat="41.748040001839399" lon="13.78937509842217">
        <ele>1507.969971</ele>
        <time>2017-06-18T08:35:29Z</time>
      </trkpt>
      <trkpt lat="41.747956937178969" lon="13.789380714297295">
        <ele>1507.4799800000001</ele>
        <time>2017-06-18T08:35:35Z</time>
      </trkpt>
      <trkpt lat="41.747892564162612" lon="13.789408206939697">
        <ele>1508.929932</ele>
        <time>2017-06-18T08:35:40Z</time>
      </trkpt>
      <trkpt lat="41.747773541137576" lon="13.78951583057642">
        <ele>1509.8900149999999</ele>
        <time>2017-06-18T08:35:52Z</time>
      </trkpt>
      <trkpt lat="41.747754514217377" lon="13.789534019306302">
        <ele>1508.4499510000001</ele>
        <time>2017-06-18T08:35:54Z</time>
      </trkpt>
      <trkpt lat="41.747641861438751" lon="13.789631836116314">
        <ele>1506.040039</ele>
        <time>2017-06-18T08:36:02Z</time>
      </trkpt>
      <trkpt lat="41.74757681787014" lon="13.789788326248527">
        <ele>1506.040039</ele>
        <time>2017-06-18T08:36:13Z</time>
      </trkpt>
      <trkpt lat="41.747574722394347" lon="13.789810622110963">
        <ele>1506.040039</ele>
        <time>2017-06-18T08:36:14Z</time>
      </trkpt>
      <trkpt lat="41.747567597776651" lon="13.789834678173065">
        <ele>1507.4799800000001</ele>
        <time>2017-06-18T08:36:15Z</time>
      </trkpt>
      <trkpt lat="41.747557623311877" lon="13.789858315140009">
        <ele>1507.4799800000001</ele>
        <time>2017-06-18T08:36:16Z</time>
      </trkpt>
      <trkpt lat="41.747545888647437" lon="13.789885304868221">
        <ele>1507.4799800000001</ele>
        <time>2017-06-18T08:36:17Z</time>
      </trkpt>
      <trkpt lat="41.747542535886168" lon="13.789908606559038">
        <ele>1507.4799800000001</ele>
        <time>2017-06-18T08:36:18Z</time>
      </trkpt>
      <trkpt lat="41.747542535886168" lon="13.789932914078236">
        <ele>1507.4799800000001</ele>
        <time>2017-06-18T08:36:19Z</time>
      </trkpt>
      <trkpt lat="41.747547062113881" lon="13.789956802502275">
        <ele>1507.4799800000001</ele>
        <time>2017-06-18T08:36:20Z</time>
      </trkpt>
      <trkpt lat="41.747551839798689" lon="13.789983540773392">
        <ele>1507.4799800000001</ele>
        <time>2017-06-18T08:36:21Z</time>
      </trkpt>
      <trkpt lat="41.747555108740926" lon="13.79000642336905">
        <ele>1507.4799800000001</ele>
        <time>2017-06-18T08:36:22Z</time>
      </trkpt>
      <trkpt lat="41.747582769021392" lon="13.790191411972046">
        <ele>1509.8900149999999</ele>
        <time>2017-06-18T08:36:36Z</time>
      </trkpt>
      <trkpt lat="41.747549073770642" lon="13.790328036993742">
        <ele>1510.849976</ele>
        <time>2017-06-18T08:36:46Z</time>
      </trkpt>
      <trkpt lat="41.747537422925234" lon="13.790336586534977">
        <ele>1510.849976</ele>
        <time>2017-06-18T08:36:47Z</time>
      </trkpt>
      <trkpt lat="41.747462404891849" lon="13.790459213778377">
        <ele>1512.290039</ele>
        <time>2017-06-18T08:36:58Z</time>
      </trkpt>
      <trkpt lat="41.747309938073158" lon="13.790665827691555">
        <ele>1512.7700199999999</ele>
        <time>2017-06-18T08:37:11Z</time>
      </trkpt>
      <trkpt lat="41.747272135689855" lon="13.790768422186375">
        <ele>1512.7700199999999</ele>
        <time>2017-06-18T08:37:22Z</time>
      </trkpt>
      <trkpt lat="41.747257970273495" lon="13.790788203477859">
        <ele>1512.7700199999999</ele>
        <time>2017-06-18T08:37:24Z</time>
      </trkpt>
      <trkpt lat="41.747152274474502" lon="13.790963217616081">
        <ele>1512.7700199999999</ele>
        <time>2017-06-18T08:37:36Z</time>
      </trkpt>
      <trkpt lat="41.747067365795374" lon="13.791216015815735">
        <ele>1512.7700199999999</ele>
        <time>2017-06-18T08:37:53Z</time>
      </trkpt>
      <trkpt lat="41.746985139325261" lon="13.791469819843769">
        <ele>1513.7299800000001</ele>
        <time>2017-06-18T08:38:08Z</time>
      </trkpt>
      <trkpt lat="41.746987234801054" lon="13.791497563943267">
        <ele>1513.7299800000001</ele>
        <time>2017-06-18T08:38:10Z</time>
      </trkpt>
      <trkpt lat="41.74698555842042" lon="13.791513238102198">
        <ele>1513.7299800000001</ele>
        <time>2017-06-18T08:38:11Z</time>
      </trkpt>
      <trkpt lat="41.746981116011739" lon="13.791532516479492">
        <ele>1513.7299800000001</ele>
        <time>2017-06-18T08:38:12Z</time>
      </trkpt>
      <trkpt lat="41.746958736330271" lon="13.791759666055441">
        <ele>1513.7299800000001</ele>
        <time>2017-06-18T08:38:26Z</time>
      </trkpt>
      <trkpt lat="41.746953204274178" lon="13.791776178404689">
        <ele>1514.690063</ele>
        <time>2017-06-18T08:38:27Z</time>
      </trkpt>
      <trkpt lat="41.74694842658937" lon="13.791787661612034">
        <ele>1514.690063</ele>
        <time>2017-06-18T08:38:28Z</time>
      </trkpt>
      <trkpt lat="41.746922777965665" lon="13.791919341310859">
        <ele>1514.690063</ele>
        <time>2017-06-18T08:38:39Z</time>
      </trkpt>
      <trkpt lat="41.746845915913582" lon="13.792137941345572">
        <ele>1514.690063</ele>
        <time>2017-06-18T08:38:52Z</time>
      </trkpt>
      <trkpt lat="41.746828900650144" lon="13.792173396795988">
        <ele>1514.690063</ele>
        <time>2017-06-18T08:38:54Z</time>
      </trkpt>
      <trkpt lat="41.746760839596391" lon="13.792387889698148">
        <ele>1515.1800539999999</ele>
        <time>2017-06-18T08:39:07Z</time>
      </trkpt>
      <trkpt lat="41.746752290055156" lon="13.792428877204657">
        <ele>1515.1800539999999</ele>
        <time>2017-06-18T08:39:10Z</time>
      </trkpt>
      <trkpt lat="41.746748182922602" lon="13.792446982115507">
        <ele>1515.1800539999999</ele>
        <time>2017-06-18T08:39:11Z</time>
      </trkpt>
      <trkpt lat="41.746743908151984" lon="13.792468858882785">
        <ele>1515.1800539999999</ele>
        <time>2017-06-18T08:39:12Z</time>
      </trkpt>
      <trkpt lat="41.746739465743303" lon="13.792492160573602">
        <ele>1515.1800539999999</ele>
        <time>2017-06-18T08:39:13Z</time>
      </trkpt>
      <trkpt lat="41.746736699715257" lon="13.792512360960245">
        <ele>1515.1800539999999</ele>
        <time>2017-06-18T08:39:14Z</time>
      </trkpt>
      <trkpt lat="41.74673686735332" lon="13.792532058432698">
        <ele>1515.1800539999999</ele>
        <time>2017-06-18T08:39:15Z</time>
      </trkpt>
      <trkpt lat="41.746729658916593" lon="13.792593581601977">
        <ele>1515.1800539999999</ele>
        <time>2017-06-18T08:39:21Z</time>
      </trkpt>
      <trkpt lat="41.746723288670182" lon="13.792605064809322">
        <ele>1515.6599120000001</ele>
        <time>2017-06-18T08:39:22Z</time>
      </trkpt>
      <trkpt lat="41.746712392196059" lon="13.792639682069421">
        <ele>1515.6599120000001</ele>
        <time>2017-06-18T08:39:25Z</time>
      </trkpt>
      <trkpt lat="41.746704429388046" lon="13.792649572715163">
        <ele>1515.6599120000001</ele>
        <time>2017-06-18T08:39:26Z</time>
      </trkpt>
      <trkpt lat="41.746686240658164" lon="13.792780078947544">
        <ele>1516.6201169999999</ele>
        <time>2017-06-18T08:39:36Z</time>
      </trkpt>
      <trkpt lat="41.746672661975026" lon="13.792851408943534">
        <ele>1517.099976</ele>
        <time>2017-06-18T08:39:40Z</time>
      </trkpt>
      <trkpt lat="41.746663525700569" lon="13.79287077113986">
        <ele>1517.099976</ele>
        <time>2017-06-18T08:39:41Z</time>
      </trkpt>
      <trkpt lat="41.746609713882208" lon="13.792997170239687">
        <ele>1519.0200199999999</ele>
        <time>2017-06-18T08:39:50Z</time>
      </trkpt>
      <trkpt lat="41.746571492403746" lon="13.79315416328609">
        <ele>1519.9799800000001</ele>
        <time>2017-06-18T08:39:59Z</time>
      </trkpt>
      <trkpt lat="41.746545592322946" lon="13.793296068906784">
        <ele>1521.420044</ele>
        <time>2017-06-18T08:40:07Z</time>
      </trkpt>
      <trkpt lat="41.746547603979707" lon="13.793452139943838">
        <ele>1524.3100589999999</ele>
        <time>2017-06-18T08:40:20Z</time>
      </trkpt>
      <trkpt lat="41.746546514332294" lon="13.793472172692418">
        <ele>1524.3100589999999</ele>
        <time>2017-06-18T08:40:21Z</time>
      </trkpt>
      <trkpt lat="41.74658783711493" lon="13.79358516074717">
        <ele>1525.7501219999999</ele>
        <time>2017-06-18T08:40:33Z</time>
      </trkpt>
      <trkpt lat="41.746560093015432" lon="13.793699322268367">
        <ele>1527.1899410000001</ele>
        <time>2017-06-18T08:40:46Z</time>
      </trkpt>
      <trkpt lat="41.746522877365351" lon="13.793847681954503">
        <ele>1529.1099850000001</ele>
        <time>2017-06-18T08:41:02Z</time>
      </trkpt>
      <trkpt lat="41.746477279812098" lon="13.793980283662677">
        <ele>1532</ele>
        <time>2017-06-18T08:41:17Z</time>
      </trkpt>
      <trkpt lat="41.746454564854503" lon="13.794062761589885">
        <ele>1534.3999020000001</ele>
        <time>2017-06-18T08:41:31Z</time>
      </trkpt>
      <trkpt lat="41.746425814926624" lon="13.79416267387569">
        <ele>1536.3199460000001</ele>
        <time>2017-06-18T08:41:46Z</time>
      </trkpt>
      <trkpt lat="41.746431514620781" lon="13.794274237006903">
        <ele>1538.7299800000001</ele>
        <time>2017-06-18T08:42:02Z</time>
      </trkpt>
      <trkpt lat="41.74642070196569" lon="13.79438211210072">
        <ele>1541.130005</ele>
        <time>2017-06-18T08:42:16Z</time>
      </trkpt>
      <trkpt lat="41.746393125504255" lon="13.794493339955807">
        <ele>1543.0500489999999</ele>
        <time>2017-06-18T08:42:30Z</time>
      </trkpt>
      <trkpt lat="41.746355071663857" lon="13.794603981077671">
        <ele>1544.9799800000001</ele>
        <time>2017-06-18T08:42:44Z</time>
      </trkpt>
      <trkpt lat="41.746319113299251" lon="13.794698528945446">
        <ele>1546.420044</ele>
        <time>2017-06-18T08:42:57Z</time>
      </trkpt>
      <trkpt lat="41.74631810747087" lon="13.794813361018896">
        <ele>1547.380005</ele>
        <time>2017-06-18T08:43:10Z</time>
      </trkpt>
      <trkpt lat="41.746306037530303" lon="13.794891480356455">
        <ele>1549.780029</ele>
        <time>2017-06-18T08:43:20Z</time>
      </trkpt>
      <trkpt lat="41.74626387655735" lon="13.79498116672039">
        <ele>1549.780029</ele>
        <time>2017-06-18T08:43:32Z</time>
      </trkpt>
      <trkpt lat="41.746228421106935" lon="13.795054508373141">
        <ele>1549.780029</ele>
        <time>2017-06-18T08:43:43Z</time>
      </trkpt>
      <trkpt lat="41.746223727241158" lon="13.795120306313038">
        <ele>1548.339966</ele>
        <time>2017-06-18T08:43:49Z</time>
      </trkpt>
      <trkpt lat="41.746224481612444" lon="13.795134890824556">
        <ele>1548.339966</ele>
        <time>2017-06-18T08:43:50Z</time>
      </trkpt>
      <trkpt lat="41.746236635372043" lon="13.795227259397507">
        <ele>1548.339966</ele>
        <time>2017-06-18T08:43:57Z</time>
      </trkpt>
      <trkpt lat="41.746236132457852" lon="13.795404201373458">
        <ele>1547.380005</ele>
        <time>2017-06-18T08:44:09Z</time>
      </trkpt>
      <trkpt lat="41.74622967839241" lon="13.795566558837891">
        <ele>1546.420044</ele>
        <time>2017-06-18T08:44:20Z</time>
      </trkpt>
      <trkpt lat="41.746239988133311" lon="13.795604361221194">
        <ele>1545.9399410000001</ele>
        <time>2017-06-18T08:44:23Z</time>
      </trkpt>
      <trkpt lat="41.746260775253177" lon="13.795688599348068">
        <ele>1545.459961</ele>
        <time>2017-06-18T08:44:30Z</time>
      </trkpt>
      <trkpt lat="41.746249627321959" lon="13.795749871060252">
        <ele>1544.5</ele>
        <time>2017-06-18T08:44:34Z</time>
      </trkpt>
      <trkpt lat="41.74622087739408" lon="13.795968974009156">
        <ele>1543.0500489999999</ele>
        <time>2017-06-18T08:44:49Z</time>
      </trkpt>
      <trkpt lat="41.746184583753347" lon="13.796183466911316">
        <ele>1542.570068</ele>
        <time>2017-06-18T08:45:01Z</time>
      </trkpt>
      <trkpt lat="41.746162790805101" lon="13.796217581257224">
        <ele>1542.570068</ele>
        <time>2017-06-18T08:45:03Z</time>
      </trkpt>
      <trkpt lat="41.746023399755359" lon="13.796423859894276">
        <ele>1541.6099850000001</ele>
        <time>2017-06-18T08:45:17Z</time>
      </trkpt>
      <trkpt lat="41.746019460260868" lon="13.796441126614809">
        <ele>1541.6099850000001</ele>
        <time>2017-06-18T08:45:18Z</time>
      </trkpt>
      <trkpt lat="41.746012000367045" lon="13.796460404992104">
        <ele>1541.130005</ele>
        <time>2017-06-18T08:45:19Z</time>
      </trkpt>
      <trkpt lat="41.746005127206445" lon="13.796480186283588">
        <ele>1541.130005</ele>
        <time>2017-06-18T08:45:20Z</time>
      </trkpt>
      <trkpt lat="41.746003367006779" lon="13.796669533476233">
        <ele>1539.209961</ele>
        <time>2017-06-18T08:45:33Z</time>
      </trkpt>
      <trkpt lat="41.745994230732322" lon="13.796814372763038">
        <ele>1539.209961</ele>
        <time>2017-06-18T08:45:42Z</time>
      </trkpt>
      <trkpt lat="41.745993560180068" lon="13.796832729130983">
        <ele>1539.209961</ele>
        <time>2017-06-18T08:45:43Z</time>
      </trkpt>
      <trkpt lat="41.745990039780736" lon="13.796849995851517">
        <ele>1538.7299800000001</ele>
        <time>2017-06-18T08:45:44Z</time>
      </trkpt>
      <trkpt lat="41.745968917384744" lon="13.796990811824799">
        <ele>1536.799927</ele>
        <time>2017-06-18T08:45:56Z</time>
      </trkpt>
      <trkpt lat="41.745891720056534" lon="13.797149062156677">
        <ele>1534.8798830000001</ele>
        <time>2017-06-18T08:46:08Z</time>
      </trkpt>
      <trkpt lat="41.745874872431159" lon="13.797206897288561">
        <ele>1534.8798830000001</ele>
        <time>2017-06-18T08:46:12Z</time>
      </trkpt>
      <trkpt lat="41.745865400880575" lon="13.797225002199411">
        <ele>1534.3999020000001</ele>
        <time>2017-06-18T08:46:13Z</time>
      </trkpt>
      <trkpt lat="41.745852325111628" lon="13.797266408801079">
        <ele>1534.3999020000001</ele>
        <time>2017-06-18T08:46:15Z</time>
      </trkpt>
      <trkpt lat="41.745850061997771" lon="13.797285603359342">
        <ele>1534.3999020000001</ele>
        <time>2017-06-18T08:46:16Z</time>
      </trkpt>
      <trkpt lat="41.745822904631495" lon="13.797466903924942">
        <ele>1533.920044</ele>
        <time>2017-06-18T08:46:29Z</time>
      </trkpt>
      <trkpt lat="41.74578258767724" lon="13.797667985782027">
        <ele>1532.9600829999999</ele>
        <time>2017-06-18T08:46:42Z</time>
      </trkpt>
      <trkpt lat="41.745690805837512" lon="13.797892285510898">
        <ele>1532</ele>
        <time>2017-06-18T08:46:54Z</time>
      </trkpt>
      <trkpt lat="41.74566088244319" lon="13.798010721802711">
        <ele>1531.040039</ele>
        <time>2017-06-18T08:47:03Z</time>
      </trkpt>
      <trkpt lat="41.745648561045527" lon="13.798018014058471">
        <ele>1530.5600589999999</ele>
        <time>2017-06-18T08:47:04Z</time>
      </trkpt>
      <trkpt lat="41.745626432821155" lon="13.798060761764646">
        <ele>1530.5600589999999</ele>
        <time>2017-06-18T08:47:07Z</time>
      </trkpt>
      <trkpt lat="41.745642861351371" lon="13.798131085932255">
        <ele>1530.079956</ele>
        <time>2017-06-18T08:47:11Z</time>
      </trkpt>
      <trkpt lat="41.745729865506291" lon="13.798266369849443">
        <ele>1529.589966</ele>
        <time>2017-06-18T08:47:23Z</time>
      </trkpt>
      <trkpt lat="41.745731541886926" lon="13.79828673787415">
        <ele>1529.1099850000001</ele>
        <time>2017-06-18T08:47:24Z</time>
      </trkpt>
      <trkpt lat="41.745758531615138" lon="13.798448424786329">
        <ele>1528.630005</ele>
        <time>2017-06-18T08:47:35Z</time>
      </trkpt>
      <trkpt lat="41.745783509686589" lon="13.79867322742939">
        <ele>1526.709961</ele>
        <time>2017-06-18T08:47:47Z</time>
      </trkpt>
      <trkpt lat="41.745763225480914" lon="13.798872465267777">
        <ele>1526.2299800000001</ele>
        <time>2017-06-18T08:47:58Z</time>
      </trkpt>
      <trkpt lat="41.745746796950698" lon="13.799031972885132">
        <ele>1524.790039</ele>
        <time>2017-06-18T08:48:09Z</time>
      </trkpt>
      <trkpt lat="41.74573372118175" lon="13.799048233777285">
        <ele>1524.790039</ele>
        <time>2017-06-18T08:48:10Z</time>
      </trkpt>
      <trkpt lat="41.745720896869898" lon="13.799067260697484">
        <ele>1524.790039</ele>
        <time>2017-06-18T08:48:11Z</time>
      </trkpt>
      <trkpt lat="41.745713604614139" lon="13.799088131636381">
        <ele>1524.790039</ele>
        <time>2017-06-18T08:48:12Z</time>
      </trkpt>
      <trkpt lat="41.745710084214807" lon="13.799108332023025">
        <ele>1524.790039</ele>
        <time>2017-06-18T08:48:13Z</time>
      </trkpt>
      <trkpt lat="41.745706312358379" lon="13.799130376428366">
        <ele>1524.790039</ele>
        <time>2017-06-18T08:48:14Z</time>
      </trkpt>
      <trkpt lat="41.745702875778079" lon="13.799149570986629">
        <ele>1524.790039</ele>
        <time>2017-06-18T08:48:15Z</time>
      </trkpt>
      <trkpt lat="41.745702372863889" lon="13.799161221832037">
        <ele>1523.830078</ele>
        <time>2017-06-18T08:48:16Z</time>
      </trkpt>
      <trkpt lat="41.745709497481585" lon="13.799288040027022">
        <ele>1523.830078</ele>
        <time>2017-06-18T08:48:30Z</time>
      </trkpt>
      <trkpt lat="41.745720226317644" lon="13.799405973404646">
        <ele>1525.2698969999999</ele>
        <time>2017-06-18T08:48:56Z</time>
      </trkpt>
      <trkpt lat="41.745689632371068" lon="13.799673272296786">
        <ele>1523.830078</ele>
        <time>2017-06-18T08:49:17Z</time>
      </trkpt>
      <trkpt lat="41.745647639036179" lon="13.799923304468393">
        <ele>1523.3500979999999</ele>
        <time>2017-06-18T08:49:30Z</time>
      </trkpt>
      <trkpt lat="41.745649063959718" lon="13.799964040517807">
        <ele>1524.790039</ele>
        <time>2017-06-18T08:49:40Z</time>
      </trkpt>
      <trkpt lat="41.745614865794778" lon="13.800036963075399">
        <ele>1524.790039</ele>
        <time>2017-06-18T08:49:51Z</time>
      </trkpt>
      <trkpt lat="41.745534483343363" lon="13.800197979435325">
        <ele>1523.3500979999999</ele>
        <time>2017-06-18T08:50:05Z</time>
      </trkpt>
      <trkpt lat="41.745536159723997" lon="13.800280708819628">
        <ele>1520.9399410000001</ele>
        <time>2017-06-18T08:50:12Z</time>
      </trkpt>
      <trkpt lat="41.745537836104631" lon="13.800297304987907">
        <ele>1520.9399410000001</ele>
        <time>2017-06-18T08:50:13Z</time>
      </trkpt>
      <trkpt lat="41.745536997914314" lon="13.800314990803599">
        <ele>1520.9399410000001</ele>
        <time>2017-06-18T08:50:14Z</time>
      </trkpt>
      <trkpt lat="41.745510762557387" lon="13.800639621913433">
        <ele>1519.5</ele>
        <time>2017-06-18T08:50:28Z</time>
      </trkpt>
      <trkpt lat="41.745470110327005" lon="13.800803404301405">
        <ele>1517.579956</ele>
        <time>2017-06-18T08:50:39Z</time>
      </trkpt>
      <trkpt lat="41.745456112548709" lon="13.800865765661001">
        <ele>1517.579956</ele>
        <time>2017-06-18T08:50:43Z</time>
      </trkpt>
      <trkpt lat="41.745457705110312" lon="13.800887307152152">
        <ele>1517.579956</ele>
        <time>2017-06-18T08:50:44Z</time>
      </trkpt>
      <trkpt lat="41.745474217459559" lon="13.800971712917089">
        <ele>1517.579956</ele>
        <time>2017-06-18T08:50:48Z</time>
      </trkpt>
      <trkpt lat="41.745484862476587" lon="13.800985040143132">
        <ele>1517.579956</ele>
        <time>2017-06-18T08:50:49Z</time>
      </trkpt>
      <trkpt lat="41.745496597141027" lon="13.801001636311412">
        <ele>1517.579956</ele>
        <time>2017-06-18T08:50:50Z</time>
      </trkpt>
      <trkpt lat="41.745509002357721" lon="13.801023429259658">
        <ele>1517.579956</ele>
        <time>2017-06-18T08:50:51Z</time>
      </trkpt>
      <trkpt lat="41.745568597689271" lon="13.801167430356145">
        <ele>1517.099976</ele>
        <time>2017-06-18T08:51:04Z</time>
      </trkpt>
      <trkpt lat="41.745581338182092" lon="13.801327608525753">
        <ele>1513.7299800000001</ele>
        <time>2017-06-18T08:51:15Z</time>
      </trkpt>
      <trkpt lat="41.745594162493944" lon="13.801555763930082">
        <ele>1510.369995</ele>
        <time>2017-06-18T08:51:29Z</time>
      </trkpt>
      <trkpt lat="41.745601370930672" lon="13.801741674542427">
        <ele>1507.969971</ele>
        <time>2017-06-18T08:51:42Z</time>
      </trkpt>
      <trkpt lat="41.745602041482925" lon="13.801761539652944">
        <ele>1507.4799800000001</ele>
        <time>2017-06-18T08:51:43Z</time>
      </trkpt>
      <trkpt lat="41.745604136958718" lon="13.801783919334412">
        <ele>1507.4799800000001</ele>
        <time>2017-06-18T08:51:44Z</time>
      </trkpt>
      <trkpt lat="41.745606819167733" lon="13.801805125549436">
        <ele>1507.4799800000001</ele>
        <time>2017-06-18T08:51:45Z</time>
      </trkpt>
      <trkpt lat="41.745643028989434" lon="13.80199103616178">
        <ele>1504.599976</ele>
        <time>2017-06-18T08:51:57Z</time>
      </trkpt>
      <trkpt lat="41.74567898735404" lon="13.802063036710024">
        <ele>1504.119995</ele>
        <time>2017-06-18T08:52:02Z</time>
      </trkpt>
      <trkpt lat="41.74569558352232" lon="13.802100922912359">
        <ele>1504.119995</ele>
        <time>2017-06-18T08:52:04Z</time>
      </trkpt>
      <trkpt lat="41.745746964588761" lon="13.802298987284303">
        <ele>1501.719971</ele>
        <time>2017-06-18T08:52:18Z</time>
      </trkpt>
      <trkpt lat="41.745777390897274" lon="13.802405018359423">
        <ele>1500.2698969999999</ele>
        <time>2017-06-18T08:52:23Z</time>
      </trkpt>
      <trkpt lat="41.745771775022149" lon="13.802459165453911">
        <ele>1500.2698969999999</ele>
        <time>2017-06-18T08:52:26Z</time>
      </trkpt>
      <trkpt lat="41.745780240744352" lon="13.80251582711935">
        <ele>1499.790039</ele>
        <time>2017-06-18T08:52:29Z</time>
      </trkpt>
      <trkpt lat="41.745793484151363" lon="13.802590928971767">
        <ele>1499.3100589999999</ele>
        <time>2017-06-18T08:52:33Z</time>
      </trkpt>
      <trkpt lat="41.745873782783747" lon="13.802742222324014">
        <ele>1497.869995</ele>
        <time>2017-06-18T08:52:44Z</time>
      </trkpt>
      <trkpt lat="41.745942262932658" lon="13.803043803200126">
        <ele>1495.950073</ele>
        <time>2017-06-18T08:53:01Z</time>
      </trkpt>
      <trkpt lat="41.745990877971053" lon="13.803282435983419">
        <ele>1493.5500489999999</ele>
        <time>2017-06-18T08:53:17Z</time>
      </trkpt>
      <trkpt lat="41.746001522988081" lon="13.803323926404119">
        <ele>1493.059937</ele>
        <time>2017-06-18T08:53:19Z</time>
      </trkpt>
      <trkpt lat="41.745998840779066" lon="13.80339240655303">
        <ele>1493.059937</ele>
        <time>2017-06-18T08:53:23Z</time>
      </trkpt>
      <trkpt lat="41.746010994538665" lon="13.803464490920305">
        <ele>1492.099976</ele>
        <time>2017-06-18T08:53:27Z</time>
      </trkpt>
      <trkpt lat="41.746027339249849" lon="13.803638918325305">
        <ele>1490.6599120000001</ele>
        <time>2017-06-18T08:53:40Z</time>
      </trkpt>
      <trkpt lat="41.746029015630484" lon="13.803674038499594">
        <ele>1490.6599120000001</ele>
        <time>2017-06-18T08:53:42Z</time>
      </trkpt>
      <trkpt lat="41.746033541858196" lon="13.803846705704927">
        <ele>1489.2200929999999</ele>
        <time>2017-06-18T08:53:54Z</time>
      </trkpt>
      <trkpt lat="41.746046533808112" lon="13.803897500038147">
        <ele>1488.73999</ele>
        <time>2017-06-18T08:53:58Z</time>
      </trkpt>
      <trkpt lat="41.746066398918629" lon="13.804081398993731">
        <ele>1487.3000489999999</ele>
        <time>2017-06-18T08:54:11Z</time>
      </trkpt>
      <trkpt lat="41.746064890176058" lon="13.804174773395061">
        <ele>1486.820068</ele>
        <time>2017-06-18T08:54:16Z</time>
      </trkpt>
      <trkpt lat="41.746068662032485" lon="13.804405191913247">
        <ele>1485.369995</ele>
        <time>2017-06-18T08:54:29Z</time>
      </trkpt>
      <trkpt lat="41.746075032278895" lon="13.804537039250135">
        <ele>1484.4099120000001</ele>
        <time>2017-06-18T08:54:37Z</time>
      </trkpt>
      <trkpt lat="41.746106967329979" lon="13.804574171081185">
        <ele>1483.929932</ele>
        <time>2017-06-18T08:54:52Z</time>
      </trkpt>
      <trkpt lat="41.746096573770046" lon="13.804638125002384">
        <ele>1483.4499510000001</ele>
        <time>2017-06-18T08:55:18Z</time>
      </trkpt>
      <trkpt lat="41.746129598468542" lon="13.804763099178672">
        <ele>1482.009888</ele>
        <time>2017-06-18T08:55:30Z</time>
      </trkpt>
      <trkpt lat="41.746141668409109" lon="13.80491103976965">
        <ele>1480.570068</ele>
        <time>2017-06-18T08:55:42Z</time>
      </trkpt>
      <trkpt lat="41.746127502992749" lon="13.804999301210046">
        <ele>1480.570068</ele>
        <time>2017-06-18T08:55:54Z</time>
      </trkpt>
      <trkpt lat="41.746036224067211" lon="13.805197281762958">
        <ele>1478.160034</ele>
        <time>2017-06-18T08:56:07Z</time>
      </trkpt>
      <trkpt lat="41.746035302057862" lon="13.80534446798265">
        <ele>1476.719971</ele>
        <time>2017-06-18T08:56:14Z</time>
      </trkpt>
      <trkpt lat="41.746022058650851" lon="13.805459216237068">
        <ele>1475.76001</ele>
        <time>2017-06-18T08:56:21Z</time>
      </trkpt>
      <trkpt lat="41.746020298451185" lon="13.805602295324206">
        <ele>1475.76001</ele>
        <time>2017-06-18T08:56:32Z</time>
      </trkpt>
      <trkpt lat="41.746026165783405" lon="13.805668763816357">
        <ele>1472.8801269999999</ele>
        <time>2017-06-18T08:56:36Z</time>
      </trkpt>
      <trkpt lat="41.746020717546344" lon="13.805808238685131">
        <ele>1470.469971</ele>
        <time>2017-06-18T08:56:48Z</time>
      </trkpt>
      <trkpt lat="41.746016191318631" lon="13.805884178727865">
        <ele>1468.5500489999999</ele>
        <time>2017-06-18T08:56:55Z</time>
      </trkpt>
      <trkpt lat="41.745994482189417" lon="13.805947965011001">
        <ele>1467.589966</ele>
        <time>2017-06-18T08:56:59Z</time>
      </trkpt>
      <trkpt lat="41.745997164398432" lon="13.806004459038377">
        <ele>1466.150024</ele>
        <time>2017-06-18T08:57:03Z</time>
      </trkpt>
      <trkpt lat="41.745935641229153" lon="13.806158434599638">
        <ele>1461.820068</ele>
        <time>2017-06-18T08:57:12Z</time>
      </trkpt>
      <trkpt lat="41.74593061208725" lon="13.806176036596298">
        <ele>1461.820068</ele>
        <time>2017-06-18T08:57:13Z</time>
      </trkpt>
      <trkpt lat="41.745856264606118" lon="13.806366641074419">
        <ele>1461.339966</ele>
        <time>2017-06-18T08:57:24Z</time>
      </trkpt>
      <trkpt lat="41.745851738378406" lon="13.806470576673746">
        <ele>1460.8599850000001</ele>
        <time>2017-06-18T08:57:32Z</time>
      </trkpt>
      <trkpt lat="41.745854839682579" lon="13.806540314108133">
        <ele>1460.8599850000001</ele>
        <time>2017-06-18T08:57:38Z</time>
      </trkpt>
      <trkpt lat="41.745823072269559" lon="13.806662438437343">
        <ele>1458.9399410000001</ele>
        <time>2017-06-18T08:57:45Z</time>
      </trkpt>
      <trkpt lat="41.745735313743353" lon="13.806947506964207">
        <ele>1457.5</ele>
        <time>2017-06-18T08:58:00Z</time>
      </trkpt>
      <trkpt lat="41.745654176920652" lon="13.807184463366866">
        <ele>1457.0200199999999</ele>
        <time>2017-06-18T08:58:16Z</time>
      </trkpt>
      <trkpt lat="41.745545798912644" lon="13.807421838864684">
        <ele>1454.6099850000001</ele>
        <time>2017-06-18T08:58:31Z</time>
      </trkpt>
      <trkpt lat="41.745525933802128" lon="13.807696178555489">
        <ele>1453.170044</ele>
        <time>2017-06-18T08:58:47Z</time>
      </trkpt>
      <trkpt lat="41.745490310713649" lon="13.807809501886368">
        <ele>1453.170044</ele>
        <time>2017-06-18T08:58:55Z</time>
      </trkpt>
      <trkpt lat="41.745478408411145" lon="13.807879826053977">
        <ele>1452.690063</ele>
        <time>2017-06-18T08:59:00Z</time>
      </trkpt>
      <trkpt lat="41.745393583551049" lon="13.807984432205558">
        <ele>1451.7299800000001</ele>
        <time>2017-06-18T08:59:10Z</time>
      </trkpt>
      <trkpt lat="41.745359133929014" lon="13.808123739436269">
        <ele>1450.290039</ele>
        <time>2017-06-18T08:59:23Z</time>
      </trkpt>
      <trkpt lat="41.745314709842205" lon="13.808263130486012">
        <ele>1446.919922</ele>
        <time>2017-06-18T08:59:35Z</time>
      </trkpt>
      <trkpt lat="41.745237680152059" lon="13.808410232886672">
        <ele>1445.9600829999999</ele>
        <time>2017-06-18T08:59:44Z</time>
      </trkpt>
      <trkpt lat="41.745213121175766" lon="13.808472007513046">
        <ele>1445.4801030000001</ele>
        <time>2017-06-18T08:59:50Z</time>
      </trkpt>
      <trkpt lat="41.745124440640211" lon="13.808599160984159">
        <ele>1445</ele>
        <time>2017-06-18T08:59:59Z</time>
      </trkpt>
      <trkpt lat="41.745105162262917" lon="13.808697480708361">
        <ele>1446.440063</ele>
        <time>2017-06-18T09:00:13Z</time>
      </trkpt>
      <trkpt lat="41.745098792016506" lon="13.808703767135739">
        <ele>1444.040039</ele>
        <time>2017-06-18T09:00:35Z</time>
      </trkpt>
      <trkpt lat="41.74507699906826" lon="13.808784820139408">
        <ele>1445.4801030000001</ele>
        <time>2017-06-18T09:00:46Z</time>
      </trkpt>
      <trkpt lat="41.744996784254909" lon="13.808988835662603">
        <ele>1445.9600829999999</ele>
        <time>2017-06-18T09:01:00Z</time>
      </trkpt>
      <trkpt lat="41.744966525584459" lon="13.809112468734384">
        <ele>1444.5200199999999</ele>
        <time>2017-06-18T09:01:09Z</time>
      </trkpt>
      <trkpt lat="41.744955461472273" lon="13.809121269732714">
        <ele>1444.5200199999999</ele>
        <time>2017-06-18T09:01:12Z</time>
      </trkpt>
      <trkpt lat="41.744802910834551" lon="13.809336936101317">
        <ele>1444.040039</ele>
        <time>2017-06-18T09:01:27Z</time>
      </trkpt>
      <trkpt lat="41.744753122329712" lon="13.8093619979918">
        <ele>1443.5600589999999</ele>
        <time>2017-06-18T09:01:31Z</time>
      </trkpt>
      <trkpt lat="41.744532091543078" lon="13.809493510052562">
        <ele>1441.630005</ele>
        <time>2017-06-18T09:01:49Z</time>
      </trkpt>
      <trkpt lat="41.744510382413864" lon="13.809503065422177">
        <ele>1441.630005</ele>
        <time>2017-06-18T09:01:51Z</time>
      </trkpt>
      <trkpt lat="41.744412314146757" lon="13.809535503387451">
        <ele>1441.150024</ele>
        <time>2017-06-18T09:01:58Z</time>
      </trkpt>
      <trkpt lat="41.744328076019883" lon="13.809583615511656">
        <ele>1441.150024</ele>
        <time>2017-06-18T09:02:06Z</time>
      </trkpt>
      <trkpt lat="41.744242664426565" lon="13.809603732079268">
        <ele>1440.669922</ele>
        <time>2017-06-18T09:02:11Z</time>
      </trkpt>
      <trkpt lat="41.743979807943106" lon="13.80967908538878">
        <ele>1440.669922</ele>
        <time>2017-06-18T09:02:27Z</time>
      </trkpt>
      <trkpt lat="41.743827341124415" lon="13.809778159484267">
        <ele>1439.2299800000001</ele>
        <time>2017-06-18T09:02:43Z</time>
      </trkpt>
      <trkpt lat="41.743805129081011" lon="13.809784362092614">
        <ele>1438.75</ele>
        <time>2017-06-18T09:02:45Z</time>
      </trkpt>
      <trkpt lat="41.743741510435939" lon="13.809824176132679">
        <ele>1438.2698969999999</ele>
        <time>2017-06-18T09:02:50Z</time>
      </trkpt>
      <trkpt lat="41.743695661425591" lon="13.809860637411475">
        <ele>1438.2698969999999</ele>
        <time>2017-06-18T09:02:54Z</time>
      </trkpt>
      <trkpt lat="41.74362625926733" lon="13.809899110347033">
        <ele>1438.2698969999999</ele>
        <time>2017-06-18T09:02:59Z</time>
      </trkpt>
      <trkpt lat="41.743584014475346" lon="13.809926770627499">
        <ele>1437.7899170000001</ele>
        <time>2017-06-18T09:03:03Z</time>
      </trkpt>
      <trkpt lat="41.743569513782859" lon="13.810034561902285">
        <ele>1434.910034</ele>
        <time>2017-06-18T09:03:16Z</time>
      </trkpt>
      <trkpt lat="41.743536908179522" lon="13.810077561065555">
        <ele>1432.5</ele>
        <time>2017-06-18T09:03:23Z</time>
      </trkpt>
      <trkpt lat="41.743503799661994" lon="13.810151740908623">
        <ele>1431.059937</ele>
        <time>2017-06-18T09:03:32Z</time>
      </trkpt>
      <trkpt lat="41.743452334776521" lon="13.810237571597099">
        <ele>1428.179932</ele>
        <time>2017-06-18T09:03:44Z</time>
      </trkpt>
      <trkpt lat="41.743442192673683" lon="13.810269674286246">
        <ele>1428.179932</ele>
        <time>2017-06-18T09:03:47Z</time>
      </trkpt>
      <trkpt lat="41.743406234309077" lon="13.810350140556693">
        <ele>1426.25</ele>
        <time>2017-06-18T09:03:58Z</time>
      </trkpt>
      <trkpt lat="41.743376310914755" lon="13.810390876606107">
        <ele>1424.8100589999999</ele>
        <time>2017-06-18T09:04:02Z</time>
      </trkpt>
      <trkpt lat="41.743295174092054" lon="13.810524819418788">
        <ele>1422.410034</ele>
        <time>2017-06-18T09:04:14Z</time>
      </trkpt>
      <trkpt lat="41.74325879663229" lon="13.810609392821789">
        <ele>1420</ele>
        <time>2017-06-18T09:04:25Z</time>
      </trkpt>
      <trkpt lat="41.743226358667016" lon="13.810710227116942">
        <ele>1416.6400149999999</ele>
        <time>2017-06-18T09:04:34Z</time>
      </trkpt>
      <trkpt lat="41.743176486343145" lon="13.810779796913266">
        <ele>1416.160034</ele>
        <time>2017-06-18T09:04:39Z</time>
      </trkpt>
      <trkpt lat="41.743076238781214" lon="13.811002839356661">
        <ele>1414.23999</ele>
        <time>2017-06-18T09:04:52Z</time>
      </trkpt>
      <trkpt lat="41.74306919798255" lon="13.811041228473186">
        <ele>1413.76001</ele>
        <time>2017-06-18T09:04:55Z</time>
      </trkpt>
      <trkpt lat="41.74296073615551" lon="13.81118799559772">
        <ele>1413.76001</ele>
        <time>2017-06-18T09:05:06Z</time>
      </trkpt>
      <trkpt lat="41.742883622646332" lon="13.811210794374347">
        <ele>1413.280029</ele>
        <time>2017-06-18T09:05:11Z</time>
      </trkpt>
      <trkpt lat="41.742720007896423" lon="13.811291931197047">
        <ele>1412.3100589999999</ele>
        <time>2017-06-18T09:05:25Z</time>
      </trkpt>
      <trkpt lat="41.742543065920472" lon="13.811374576762319">
        <ele>1409.910034</ele>
        <time>2017-06-18T09:05:38Z</time>
      </trkpt>
      <trkpt lat="41.742479866370559" lon="13.811402237042785">
        <ele>1409.4300539999999</ele>
        <time>2017-06-18T09:05:44Z</time>
      </trkpt>
      <trkpt lat="41.742298733443022" lon="13.811409026384354">
        <ele>1407.98999</ele>
        <time>2017-06-18T09:05:58Z</time>
      </trkpt>
      <trkpt lat="41.742113577201962" lon="13.811492761597037">
        <ele>1406.0699460000001</ele>
        <time>2017-06-18T09:06:13Z</time>
      </trkpt>
      <trkpt lat="41.741969995200634" lon="13.811580101028085">
        <ele>1403.179932</ele>
        <time>2017-06-18T09:06:27Z</time>
      </trkpt>
      <trkpt lat="41.741845272481441" lon="13.811644893139601">
        <ele>1402.2200929999999</ele>
        <time>2017-06-18T09:06:41Z</time>
      </trkpt>
      <trkpt lat="41.741844099014997" lon="13.811642294749618">
        <ele>1402.2200929999999</ele>
        <time>2017-06-18T09:06:42Z</time>
      </trkpt>
      <trkpt lat="41.741652321070433" lon="13.811726868152618">
        <ele>1400.3000489999999</ele>
        <time>2017-06-18T09:06:57Z</time>
      </trkpt>
      <trkpt lat="41.741587026044726" lon="13.811747319996357">
        <ele>1398.8599850000001</ele>
        <time>2017-06-18T09:07:05Z</time>
      </trkpt>
      <trkpt lat="41.741380160674453" lon="13.811826109886169">
        <ele>1396.929932</ele>
        <time>2017-06-18T09:07:20Z</time>
      </trkpt>
      <trkpt lat="41.741231381893158" lon="13.811894003301859">
        <ele>1395.01001</ele>
        <time>2017-06-18T09:07:34Z</time>
      </trkpt>
      <trkpt lat="41.741014122962952" lon="13.811917472630739">
        <ele>1393.570068</ele>
        <time>2017-06-18T09:07:48Z</time>
      </trkpt>
      <trkpt lat="41.740914965048432" lon="13.811949240043759">
        <ele>1392.130005</ele>
        <time>2017-06-18T09:07:58Z</time>
      </trkpt>
      <trkpt lat="41.740716816857457" lon="13.811894338577986">
        <ele>1390.6800539999999</ele>
        <time>2017-06-18T09:08:12Z</time>
      </trkpt>
      <trkpt lat="41.740565439686179" lon="13.811849663034081">
        <ele>1389.719971</ele>
        <time>2017-06-18T09:08:25Z</time>
      </trkpt>
      <trkpt lat="41.740550938993692" lon="13.811845891177654">
        <ele>1389.719971</ele>
        <time>2017-06-18T09:08:27Z</time>
      </trkpt>
      <trkpt lat="41.740366788581014" lon="13.811928620561957">
        <ele>1388.280029</ele>
        <time>2017-06-18T09:08:42Z</time>
      </trkpt>
      <trkpt lat="41.740160677582026" lon="13.81189551204443">
        <ele>1387.3199460000001</ele>
        <time>2017-06-18T09:08:57Z</time>
      </trkpt>
      <trkpt lat="41.740037463605404" lon="13.811872964724898">
        <ele>1386.839966</ele>
        <time>2017-06-18T09:09:07Z</time>
      </trkpt>
      <trkpt lat="41.73984233289957" lon="13.811906408518553">
        <ele>1385.3999020000001</ele>
        <time>2017-06-18T09:09:22Z</time>
      </trkpt>
      <trkpt lat="41.739639909937978" lon="13.811988215893507">
        <ele>1385.3999020000001</ele>
        <time>2017-06-18T09:09:38Z</time>
      </trkpt>
      <trkpt lat="41.739509738981724" lon="13.812089636921883">
        <ele>1383.9600829999999</ele>
        <time>2017-06-18T09:09:53Z</time>
      </trkpt>
      <trkpt lat="41.739483838900924" lon="13.812097012996674">
        <ele>1382.98999</ele>
        <time>2017-06-18T09:09:57Z</time>
      </trkpt>
      <trkpt lat="41.739471601322293" lon="13.812074717134237">
        <ele>1383.469971</ele>
        <time>2017-06-18T09:10:00Z</time>
      </trkpt>
      <trkpt lat="41.739320894703269" lon="13.812149818986654">
        <ele>1381.5500489999999</ele>
        <time>2017-06-18T09:10:15Z</time>
      </trkpt>
      <trkpt lat="41.739255515858531" lon="13.812202541157603">
        <ele>1381.0699460000001</ele>
        <time>2017-06-18T09:10:23Z</time>
      </trkpt>
      <trkpt lat="41.73918561078608" lon="13.812210420146585">
        <ele>1381.0699460000001</ele>
        <time>2017-06-18T09:10:39Z</time>
      </trkpt>
      <trkpt lat="41.739143114537001" lon="13.812197931110859">
        <ele>1380.1099850000001</ele>
        <time>2017-06-18T09:10:52Z</time>
      </trkpt>
      <trkpt lat="41.738959634676576" lon="13.812176389619708">
        <ele>1379.150024</ele>
        <time>2017-06-18T09:11:07Z</time>
      </trkpt>
      <trkpt lat="41.738790906965733" lon="13.812177563086152">
        <ele>1377.2299800000001</ele>
        <time>2017-06-18T09:11:22Z</time>
      </trkpt>
      <trkpt lat="41.738613378256559" lon="13.812229027971625">
        <ele>1375.780029</ele>
        <time>2017-06-18T09:11:38Z</time>
      </trkpt>
      <trkpt lat="41.738594938069582" lon="13.812236404046416">
        <ele>1375.3000489999999</ele>
        <time>2017-06-18T09:11:40Z</time>
      </trkpt>
      <trkpt lat="41.73839452676475" lon="13.812188291922212">
        <ele>1375.3000489999999</ele>
        <time>2017-06-18T09:11:56Z</time>
      </trkpt>
      <trkpt lat="41.738291261717677" lon="13.812119979411364">
        <ele>1376.26001</ele>
        <time>2017-06-18T09:12:04Z</time>
      </trkpt>
      <trkpt lat="41.73814382404089" lon="13.812033981084824">
        <ele>1376.26001</ele>
        <time>2017-06-18T09:12:23Z</time>
      </trkpt>
      <trkpt lat="41.738157570362091" lon="13.812021659687161">
        <ele>1376.26001</ele>
        <time>2017-06-18T09:12:30Z</time>
      </trkpt>
      <trkpt lat="41.738195037469268" lon="13.811969021335244">
        <ele>1376.26001</ele>
        <time>2017-06-18T09:12:34Z</time>
      </trkpt>
      <trkpt lat="41.738267038017511" lon="13.811822338029742">
        <ele>1375.3000489999999</ele>
        <time>2017-06-18T09:12:45Z</time>
      </trkpt>
      <trkpt lat="41.738319508731365" lon="13.811502819880843">
        <ele>1372.900024</ele>
        <time>2017-06-18T09:13:04Z</time>
      </trkpt>
      <trkpt lat="41.738324873149395" lon="13.811503406614065">
        <ele>1371.459961</ele>
        <time>2017-06-18T09:13:07Z</time>
      </trkpt>
      <trkpt lat="41.738329231739044" lon="13.81148069165647">
        <ele>1373.380005</ele>
        <time>2017-06-18T09:13:09Z</time>
      </trkpt>
      <trkpt lat="41.738266618922353" lon="13.811105936765671">
        <ele>1371.459961</ele>
        <time>2017-06-18T09:13:27Z</time>
      </trkpt>
      <trkpt lat="41.738048437982798" lon="13.810911308974028">
        <ele>1370.5</ele>
        <time>2017-06-18T09:13:48Z</time>
      </trkpt>
      <trkpt lat="41.737820114940405" lon="13.810809971764684">
        <ele>1370.0200199999999</ele>
        <time>2017-06-18T09:14:03Z</time>
      </trkpt>
      <trkpt lat="41.737620541825891" lon="13.8107780367136">
        <ele>1368.570068</ele>
        <time>2017-06-18T09:14:20Z</time>
      </trkpt>
      <trkpt lat="41.737424740567803" lon="13.810755237936974">
        <ele>1366.170044</ele>
        <time>2017-06-18T09:14:36Z</time>
      </trkpt>
      <trkpt lat="41.737200105562806" lon="13.810794465243816">
        <ele>1365.2100829999999</ele>
        <time>2017-06-18T09:14:51Z</time>
      </trkpt>
      <trkpt lat="41.737043615430593" lon="13.810816509649158">
        <ele>1365.2100829999999</ele>
        <time>2017-06-18T09:15:02Z</time>
      </trkpt>
      <trkpt lat="41.737027689814568" lon="13.81082153879106">
        <ele>1365.2100829999999</ele>
        <time>2017-06-18T09:15:03Z</time>
      </trkpt>
      <trkpt lat="41.736778076738119" lon="13.810883397236466">
        <ele>1363.290039</ele>
        <time>2017-06-18T09:15:21Z</time>
      </trkpt>
      <trkpt lat="41.736763240769506" lon="13.810894461348653">
        <ele>1363.290039</ele>
        <time>2017-06-18T09:15:22Z</time>
      </trkpt>
      <trkpt lat="41.736746812239289" lon="13.810893539339304">
        <ele>1363.290039</ele>
        <time>2017-06-18T09:15:23Z</time>
      </trkpt>
      <trkpt lat="41.736520836129785" lon="13.810947267338634">
        <ele>1362.8100589999999</ele>
        <time>2017-06-18T09:15:39Z</time>
      </trkpt>
      <trkpt lat="41.736299134790897" lon="13.811066038906574">
        <ele>1361.3599850000001</ele>
        <time>2017-06-18T09:15:59Z</time>
      </trkpt>
      <trkpt lat="41.736317491158843" lon="13.811058159917593">
        <ele>1361.3599850000001</ele>
        <time>2017-06-18T09:16:20Z</time>
      </trkpt>
      <trkpt lat="41.73619469627738" lon="13.811117168515921">
        <ele>1359.919922</ele>
        <time>2017-06-18T09:16:40Z</time>
      </trkpt>
      <trkpt lat="41.735974336043" lon="13.811288578435779">
        <ele>1357.9998780000001</ele>
        <time>2017-06-18T09:16:59Z</time>
      </trkpt>
      <trkpt lat="41.735905772075057" lon="13.811315484344959">
        <ele>1357.5200199999999</ele>
        <time>2017-06-18T09:17:04Z</time>
      </trkpt>
      <trkpt lat="41.735891522839665" lon="13.811321267858148">
        <ele>1357.5200199999999</ele>
        <time>2017-06-18T09:17:05Z</time>
      </trkpt>
      <trkpt lat="41.735877189785242" lon="13.81133409217">
        <ele>1357.5200199999999</ele>
        <time>2017-06-18T09:17:06Z</time>
      </trkpt>
      <trkpt lat="41.735587511211634" lon="13.811488570645452">
        <ele>1355.599976</ele>
        <time>2017-06-18T09:17:27Z</time>
      </trkpt>
      <trkpt lat="41.735329935327172" lon="13.811641037464142">
        <ele>1354.630005</ele>
        <time>2017-06-18T09:17:46Z</time>
      </trkpt>
      <trkpt lat="41.734980912879109" lon="13.811824265867472">
        <ele>1352.709961</ele>
        <time>2017-06-18T09:18:10Z</time>
      </trkpt>
      <trkpt lat="41.734737334772944" lon="13.811916131526232">
        <ele>1351.2698969999999</ele>
        <time>2017-06-18T09:18:29Z</time>
      </trkpt>
      <trkpt lat="41.734504820778966" lon="13.811995508149266">
        <ele>1349.830078</ele>
        <time>2017-06-18T09:18:48Z</time>
      </trkpt>
      <trkpt lat="41.734249591827393" lon="13.812051499262452">
        <ele>1348.8698730000001</ele>
        <time>2017-06-18T09:19:04Z</time>
      </trkpt>
      <trkpt lat="41.733991261571646" lon="13.812108915299177">
        <ele>1345.9799800000001</ele>
        <time>2017-06-18T09:19:24Z</time>
      </trkpt>
      <trkpt lat="41.733963685110211" lon="13.812153339385986">
        <ele>1345.9799800000001</ele>
        <time>2017-06-18T09:19:37Z</time>
      </trkpt>
      <trkpt lat="41.733946837484837" lon="13.812146801501513">
        <ele>1345.9799800000001</ele>
        <time>2017-06-18T09:19:38Z</time>
      </trkpt>
      <trkpt lat="41.733933594077826" lon="13.812140515074134">
        <ele>1345.9799800000001</ele>
        <time>2017-06-18T09:19:39Z</time>
      </trkpt>
      <trkpt lat="41.733920266851783" lon="13.812137329950929">
        <ele>1345.0200199999999</ele>
        <time>2017-06-18T09:19:40Z</time>
      </trkpt>
      <trkpt lat="41.733750868588686" lon="13.812190135940909">
        <ele>1343.579956</ele>
        <time>2017-06-18T09:19:57Z</time>
      </trkpt>
      <trkpt lat="41.733730835840106" lon="13.812195416539907">
        <ele>1343.579956</ele>
        <time>2017-06-18T09:20:01Z</time>
      </trkpt>
      <trkpt lat="41.73371197655797" lon="13.812202289700508">
        <ele>1343.099976</ele>
        <time>2017-06-18T09:20:02Z</time>
      </trkpt>
      <trkpt lat="41.733694961294532" lon="13.812209665775299">
        <ele>1342.619995</ele>
        <time>2017-06-18T09:20:03Z</time>
      </trkpt>
      <trkpt lat="41.733676604926586" lon="13.812215784564614">
        <ele>1342.619995</ele>
        <time>2017-06-18T09:20:04Z</time>
      </trkpt>
      <trkpt lat="41.733662858605385" lon="13.81222047843039">
        <ele>1342.619995</ele>
        <time>2017-06-18T09:20:05Z</time>
      </trkpt>
      <trkpt lat="41.733644166961312" lon="13.812231877818704">
        <ele>1342.619995</ele>
        <time>2017-06-18T09:20:06Z</time>
      </trkpt>
      <trkpt lat="41.733631258830428" lon="13.812240259721875">
        <ele>1342.619995</ele>
        <time>2017-06-18T09:20:07Z</time>
      </trkpt>
      <trkpt lat="41.733389189466834" lon="13.812333634123206">
        <ele>1341.6599120000001</ele>
        <time>2017-06-18T09:20:22Z</time>
      </trkpt>
      <trkpt lat="41.733136558905244" lon="13.812410663813353">
        <ele>1341.6599120000001</ele>
        <time>2017-06-18T09:20:38Z</time>
      </trkpt>
      <trkpt lat="41.732939081266522" lon="13.812453579157591">
        <ele>1339.25</ele>
        <time>2017-06-18T09:20:52Z</time>
      </trkpt>
      <trkpt lat="41.732817962765694" lon="13.812504624947906">
        <ele>1339.25</ele>
        <time>2017-06-18T09:21:01Z</time>
      </trkpt>
      <trkpt lat="41.732661388814449" lon="13.812637059018016">
        <ele>1338.7700199999999</ele>
        <time>2017-06-18T09:21:14Z</time>
      </trkpt>
      <trkpt lat="41.732631465420127" lon="13.812670418992639">
        <ele>1339.7299800000001</ele>
        <time>2017-06-18T09:21:17Z</time>
      </trkpt>
      <trkpt lat="41.732661137357354" lon="13.812694977968931">
        <ele>1338.290039</ele>
        <time>2017-06-18T09:21:28Z</time>
      </trkpt>
      <trkpt lat="41.732682511210442" lon="13.812679890543222">
        <ele>1339.7299800000001</ele>
        <time>2017-06-18T09:21:33Z</time>
      </trkpt>
      <trkpt lat="41.732833385467529" lon="13.812585510313511">
        <ele>1341.179932</ele>
        <time>2017-06-18T09:21:48Z</time>
      </trkpt>
      <trkpt lat="41.732988031581044" lon="13.812478976324201">
        <ele>1341.179932</ele>
        <time>2017-06-18T09:21:58Z</time>
      </trkpt>
      <trkpt lat="41.733009740710258" lon="13.812475958839059">
        <ele>1341.179932</ele>
        <time>2017-06-18T09:21:59Z</time>
      </trkpt>
      <trkpt lat="41.733026001602411" lon="13.812466990202665">
        <ele>1341.179932</ele>
        <time>2017-06-18T09:22:00Z</time>
      </trkpt>
      <trkpt lat="41.733179641887546" lon="13.812385434284806">
        <ele>1342.1400149999999</ele>
        <time>2017-06-18T09:22:09Z</time>
      </trkpt>
      <trkpt lat="41.733191963285208" lon="13.812372609972954">
        <ele>1342.619995</ele>
        <time>2017-06-18T09:22:10Z</time>
      </trkpt>
      <trkpt lat="41.73337091691792" lon="13.812332125380635">
        <ele>1343.579956</ele>
        <time>2017-06-18T09:22:20Z</time>
      </trkpt>
      <trkpt lat="41.733456160873175" lon="13.812307817861438">
        <ele>1343.579956</ele>
        <time>2017-06-18T09:22:27Z</time>
      </trkpt>
      <trkpt lat="41.733468230813742" lon="13.812290383502841">
        <ele>1345.0200199999999</ele>
        <time>2017-06-18T09:22:35Z</time>
      </trkpt>
      <trkpt lat="41.73350477591157" lon="13.812269261106849">
        <ele>1345.0200199999999</ele>
        <time>2017-06-18T09:22:39Z</time>
      </trkpt>
      <trkpt lat="41.733517097309232" lon="13.812263309955597">
        <ele>1345.0200199999999</ele>
        <time>2017-06-18T09:22:40Z</time>
      </trkpt>
      <trkpt lat="41.733707785606384" lon="13.812219640240073">
        <ele>1344.540039</ele>
        <time>2017-06-18T09:22:53Z</time>
      </trkpt>
      <trkpt lat="41.733922865241766" lon="13.812119895592332">
        <ele>1347.910034</ele>
        <time>2017-06-18T09:23:09Z</time>
      </trkpt>
      <trkpt lat="41.734125539660454" lon="13.812055103480816">
        <ele>1346.459961</ele>
        <time>2017-06-18T09:23:23Z</time>
      </trkpt>
      <trkpt lat="41.73418739810586" lon="13.812064323574305">
        <ele>1347.910034</ele>
        <time>2017-06-18T09:23:28Z</time>
      </trkpt>
      <trkpt lat="41.734345061704516" lon="13.812017636373639">
        <ele>1351.2698969999999</ele>
        <time>2017-06-18T09:23:42Z</time>
      </trkpt>
      <trkpt lat="41.734406501054764" lon="13.811970362439752">
        <ele>1349.830078</ele>
        <time>2017-06-18T09:23:47Z</time>
      </trkpt>
      <trkpt lat="41.734548322856426" lon="13.811870533972979">
        <ele>1349.830078</ele>
        <time>2017-06-18T09:24:03Z</time>
      </trkpt>
      <trkpt lat="41.734724175184965" lon="13.811806160956621">
        <ele>1351.2698969999999</ele>
        <time>2017-06-18T09:24:13Z</time>
      </trkpt>
      <trkpt lat="41.734989965334535" lon="13.811699040234089">
        <ele>1352.709961</ele>
        <time>2017-06-18T09:24:32Z</time>
      </trkpt>
      <trkpt lat="41.735108820721507" lon="13.811651431024075">
        <ele>1354.150024</ele>
        <time>2017-06-18T09:24:47Z</time>
      </trkpt>
      <trkpt lat="41.735178809612989" lon="13.811627291142941">
        <ele>1351.75</ele>
        <time>2017-06-18T09:24:53Z</time>
      </trkpt>
      <trkpt lat="41.735447701066732" lon="13.811572892591357">
        <ele>1352.2299800000001</ele>
        <time>2017-06-18T09:25:12Z</time>
      </trkpt>
      <trkpt lat="41.735474774613976" lon="13.811562834307551">
        <ele>1355.119995</ele>
        <time>2017-06-18T09:25:14Z</time>
      </trkpt>
      <trkpt lat="41.735568568110466" lon="13.811506424099207">
        <ele>1355.119995</ele>
        <time>2017-06-18T09:25:21Z</time>
      </trkpt>
      <trkpt lat="41.73570410348475" lon="13.811426376923919">
        <ele>1355.599976</ele>
        <time>2017-06-18T09:25:33Z</time>
      </trkpt>
      <trkpt lat="41.735722040757537" lon="13.811412211507559">
        <ele>1356.5600589999999</ele>
        <time>2017-06-18T09:25:35Z</time>
      </trkpt>
      <trkpt lat="41.735960673540831" lon="13.811323866248131">
        <ele>1358.4801030000001</ele>
        <time>2017-06-18T09:25:52Z</time>
      </trkpt>
      <trkpt lat="41.735985735431314" lon="13.811319004744291">
        <ele>1357.040039</ele>
        <time>2017-06-18T09:25:54Z</time>
      </trkpt>
      <trkpt lat="41.736167371273041" lon="13.811195706948638">
        <ele>1359.4399410000001</ele>
        <time>2017-06-18T09:26:12Z</time>
      </trkpt>
      <trkpt lat="41.736276000738144" lon="13.811081377789378">
        <ele>1360.3999020000001</ele>
        <time>2017-06-18T09:26:24Z</time>
      </trkpt>
      <trkpt lat="41.736384881660342" lon="13.811105936765671">
        <ele>1359.4399410000001</ele>
        <time>2017-06-18T09:26:36Z</time>
      </trkpt>
      <trkpt lat="41.736370464786887" lon="13.811154216527939">
        <ele>1359.4399410000001</ele>
        <time>2017-06-18T09:26:47Z</time>
      </trkpt>
      <trkpt lat="41.736376583576202" lon="13.811165615916252">
        <ele>1358.9600829999999</ele>
        <time>2017-06-18T09:26:48Z</time>
      </trkpt>
      <trkpt lat="41.736398125067353" lon="13.811197467148304">
        <ele>1357.5200199999999</ele>
        <time>2017-06-18T09:26:51Z</time>
      </trkpt>
      <trkpt lat="41.7364302277565" lon="13.811423862352967">
        <ele>1355.599976</ele>
        <time>2017-06-18T09:27:04Z</time>
      </trkpt>
      <trkpt lat="41.736426036804914" lon="13.811459485441446">
        <ele>1355.119995</ele>
        <time>2017-06-18T09:27:08Z</time>
      </trkpt>
      <trkpt lat="41.736388737335801" lon="13.811487564817071">
        <ele>1353.669922</ele>
        <time>2017-06-18T09:27:12Z</time>
      </trkpt>
      <trkpt lat="41.736265858635306" lon="13.811562079936266">
        <ele>1350.7899170000001</ele>
        <time>2017-06-18T09:27:22Z</time>
      </trkpt>
      <trkpt lat="41.736183380708098" lon="13.811733238399029">
        <ele>1348.8698730000001</ele>
        <time>2017-06-18T09:27:36Z</time>
      </trkpt>
      <trkpt lat="41.7361781001091" lon="13.811743464320898">
        <ele>1348.8698730000001</ele>
        <time>2017-06-18T09:27:37Z</time>
      </trkpt>
      <trkpt lat="41.736122779548168" lon="13.811808507889509">
        <ele>1348.3900149999999</ele>
        <time>2017-06-18T09:27:42Z</time>
      </trkpt>
      <trkpt lat="41.736067039892077" lon="13.811869779601693">
        <ele>1349.3500979999999</ele>
        <time>2017-06-18T09:27:47Z</time>
      </trkpt>
      <trkpt lat="41.736031668260694" lon="13.811915712431073">
        <ele>1347.910034</ele>
        <time>2017-06-18T09:27:50Z</time>
      </trkpt>
      <trkpt lat="41.735953884199262" lon="13.8120421115309">
        <ele>1345.5</ele>
        <time>2017-06-18T09:27:58Z</time>
      </trkpt>
      <trkpt lat="41.735901078209281" lon="13.812057701870799">
        <ele>1345.0200199999999</ele>
        <time>2017-06-18T09:28:02Z</time>
      </trkpt>
      <trkpt lat="41.735831508412957" lon="13.812123835086823">
        <ele>1343.099976</ele>
        <time>2017-06-18T09:28:08Z</time>
      </trkpt>
      <trkpt lat="41.735768895596266" lon="13.812182173132896">
        <ele>1340.6999510000001</ele>
        <time>2017-06-18T09:28:15Z</time>
      </trkpt>
      <trkpt lat="41.735702008008957" lon="13.812249060720205">
        <ele>1338.7700199999999</ele>
        <time>2017-06-18T09:28:23Z</time>
      </trkpt>
      <trkpt lat="41.735639311373234" lon="13.812251072376966">
        <ele>1338.7700199999999</ele>
        <time>2017-06-18T09:28:29Z</time>
      </trkpt>
      <trkpt lat="41.735505117103457" lon="13.812211258336902">
        <ele>1337.329956</ele>
        <time>2017-06-18T09:28:41Z</time>
      </trkpt>
      <trkpt lat="41.73539430834353" lon="13.812229614704847">
        <ele>1335.8900149999999</ele>
        <time>2017-06-18T09:28:50Z</time>
      </trkpt>
      <trkpt lat="41.735337479040027" lon="13.812261130660772">
        <ele>1334.929932</ele>
        <time>2017-06-18T09:28:56Z</time>
      </trkpt>
      <trkpt lat="41.735251564532518" lon="13.812276972457767">
        <ele>1336.369995</ele>
        <time>2017-06-18T09:29:03Z</time>
      </trkpt>
      <trkpt lat="41.735234465450048" lon="13.812317373231053">
        <ele>1335.410034</ele>
        <time>2017-06-18T09:29:06Z</time>
      </trkpt>
      <trkpt lat="41.735180821269751" lon="13.812339082360268">
        <ele>1333.969971</ele>
        <time>2017-06-18T09:29:12Z</time>
      </trkpt>
      <trkpt lat="41.734994659200311" lon="13.812408065423369">
        <ele>1330.599976</ele>
        <time>2017-06-18T09:29:28Z</time>
      </trkpt>
      <trkpt lat="41.734962891787291" lon="13.812451986595988">
        <ele>1329.6400149999999</ele>
        <time>2017-06-18T09:29:32Z</time>
      </trkpt>
      <trkpt lat="41.734945205971599" lon="13.812482999637723">
        <ele>1329.6400149999999</ele>
        <time>2017-06-18T09:29:36Z</time>
      </trkpt>
      <trkpt lat="41.734814113005996" lon="13.812553994357586">
        <ele>1325.799927</ele>
        <time>2017-06-18T09:29:48Z</time>
      </trkpt>
      <trkpt lat="41.734768766909838" lon="13.812578720971942">
        <ele>1324.3500979999999</ele>
        <time>2017-06-18T09:29:53Z</time>
      </trkpt>
      <trkpt lat="41.734662903472781" lon="13.81261233240366">
        <ele>1322.910034</ele>
        <time>2017-06-18T09:30:03Z</time>
      </trkpt>
      <trkpt lat="41.734564416110516" lon="13.812693385407329">
        <ele>1320.98999</ele>
        <time>2017-06-18T09:30:17Z</time>
      </trkpt>
      <trkpt lat="41.734518902376294" lon="13.812720961868763">
        <ele>1320.030029</ele>
        <time>2017-06-18T09:30:22Z</time>
      </trkpt>
      <trkpt lat="41.734498869627714" lon="13.812735881656408">
        <ele>1320.030029</ele>
        <time>2017-06-18T09:30:24Z</time>
      </trkpt>
      <trkpt lat="41.734466934576631" lon="13.812835374847054">
        <ele>1318.589966</ele>
        <time>2017-06-18T09:30:33Z</time>
      </trkpt>
      <trkpt lat="41.734411362558603" lon="13.81291139870882">
        <ele>1317.619995</ele>
        <time>2017-06-18T09:30:44Z</time>
      </trkpt>
      <trkpt lat="41.734378589317203" lon="13.812985410913825">
        <ele>1317.619995</ele>
        <time>2017-06-18T09:30:50Z</time>
      </trkpt>
      <trkpt lat="41.734294015914202" lon="13.813047939911485">
        <ele>1317.619995</ele>
        <time>2017-06-18T09:31:00Z</time>
      </trkpt>
      <trkpt lat="41.734257638454437" lon="13.813052969053388">
        <ele>1316.179932</ele>
        <time>2017-06-18T09:31:03Z</time>
      </trkpt>
      <trkpt lat="41.734215393662453" lon="13.813106277957559">
        <ele>1315.6999510000001</ele>
        <time>2017-06-18T09:31:09Z</time>
      </trkpt>
      <trkpt lat="41.734175495803356" lon="13.813130920752883">
        <ele>1314.740112</ele>
        <time>2017-06-18T09:31:13Z</time>
      </trkpt>
      <trkpt lat="41.734149511903524" lon="13.813176266849041">
        <ele>1314.259888</ele>
        <time>2017-06-18T09:31:17Z</time>
      </trkpt>
      <trkpt lat="41.734039960429072" lon="13.813224211335182">
        <ele>1311.380005</ele>
        <time>2017-06-18T09:31:31Z</time>
      </trkpt>
      <trkpt lat="41.734009031206369" lon="13.813222032040358">
        <ele>1309.929932</ele>
        <time>2017-06-18T09:31:34Z</time>
      </trkpt>
      <trkpt lat="41.7339988052845" lon="13.813223708420992">
        <ele>1309.929932</ele>
        <time>2017-06-18T09:31:35Z</time>
      </trkpt>
      <trkpt lat="41.733945999294519" lon="13.813240639865398">
        <ele>1309.4499510000001</ele>
        <time>2017-06-18T09:31:39Z</time>
      </trkpt>
      <trkpt lat="41.733914064243436" lon="13.813251536339521">
        <ele>1308.969971</ele>
        <time>2017-06-18T09:31:41Z</time>
      </trkpt>
      <trkpt lat="41.733851032331586" lon="13.813344240188599">
        <ele>1307.049927</ele>
        <time>2017-06-18T09:31:50Z</time>
      </trkpt>
      <trkpt lat="41.7337725777179" lon="13.81339319050312">
        <ele>1305.610107</ele>
        <time>2017-06-18T09:31:59Z</time>
      </trkpt>
      <trkpt lat="41.733620781451464" lon="13.813480697572231">
        <ele>1303.1999510000001</ele>
        <time>2017-06-18T09:32:11Z</time>
      </trkpt>
      <trkpt lat="41.733518941327929" lon="13.813628470525146">
        <ele>1302.23999</ele>
        <time>2017-06-18T09:32:23Z</time>
      </trkpt>
      <trkpt lat="41.733505614101887" lon="13.813679432496428">
        <ele>1302.23999</ele>
        <time>2017-06-18T09:32:27Z</time>
      </trkpt>
      <trkpt lat="41.73349748365581" lon="13.813724527135491">
        <ele>1301.76001</ele>
        <time>2017-06-18T09:32:31Z</time>
      </trkpt>
      <trkpt lat="41.733420202508569" lon="13.813821086660028">
        <ele>1299.3599850000001</ele>
        <time>2017-06-18T09:32:43Z</time>
      </trkpt>
      <trkpt lat="41.733401175588369" lon="13.813841538503766">
        <ele>1299.3599850000001</ele>
        <time>2017-06-18T09:32:47Z</time>
      </trkpt>
      <trkpt lat="41.733334036543965" lon="13.813790995627642">
        <ele>1299.3599850000001</ele>
        <time>2017-06-18T09:32:56Z</time>
      </trkpt>
      <trkpt lat="41.733265137299895" lon="13.813735004514456">
        <ele>1297.919922</ele>
        <time>2017-06-18T09:33:03Z</time>
      </trkpt>
      <trkpt lat="41.733141923323274" lon="13.813761407509446">
        <ele>1297.4399410000001</ele>
        <time>2017-06-18T09:33:11Z</time>
      </trkpt>
      <trkpt lat="41.733091464266181" lon="13.81380801089108">
        <ele>1296.959961</ele>
        <time>2017-06-18T09:33:15Z</time>
      </trkpt>
      <trkpt lat="41.733011165633798" lon="13.813874898478389">
        <ele>1296.4801030000001</ele>
        <time>2017-06-18T09:33:22Z</time>
      </trkpt>
      <trkpt lat="41.732895160093904" lon="13.814049996435642">
        <ele>1294.5500489999999</ele>
        <time>2017-06-18T09:33:35Z</time>
      </trkpt>
      <trkpt lat="41.732823913916945" lon="13.814088134095073">
        <ele>1292.150024</ele>
        <time>2017-06-18T09:33:41Z</time>
      </trkpt>
      <trkpt lat="41.732775466516614" lon="13.814231297001243">
        <ele>1290.709961</ele>
        <time>2017-06-18T09:33:50Z</time>
      </trkpt>
      <trkpt lat="41.732662059366703" lon="13.81434160284698">
        <ele>1288.3000489999999</ele>
        <time>2017-06-18T09:34:04Z</time>
      </trkpt>
      <trkpt lat="41.73256516456604" lon="13.814467834308743">
        <ele>1285.900024</ele>
        <time>2017-06-18T09:34:17Z</time>
      </trkpt>
      <trkpt lat="41.73245276324451" lon="13.814549138769507">
        <ele>1283.9799800000001</ele>
        <time>2017-06-18T09:34:28Z</time>
      </trkpt>
      <trkpt lat="41.732374811545014" lon="13.814628515392542">
        <ele>1281.0900879999999</ele>
        <time>2017-06-18T09:34:39Z</time>
      </trkpt>
      <trkpt lat="41.732326196506619" lon="13.814672604203224">
        <ele>1279.650024</ele>
        <time>2017-06-18T09:34:46Z</time>
      </trkpt>
      <trkpt lat="41.732273139059544" lon="13.814725913107395">
        <ele>1278.690063</ele>
        <time>2017-06-18T09:34:52Z</time>
      </trkpt>
      <trkpt lat="41.732194181531668" lon="13.814822137355804">
        <ele>1276.7700199999999</ele>
        <time>2017-06-18T09:35:02Z</time>
      </trkpt>
      <trkpt lat="41.73216643743217" lon="13.814856503158808">
        <ele>1275.329956</ele>
        <time>2017-06-18T09:35:06Z</time>
      </trkpt>
      <trkpt lat="41.732136178761721" lon="13.81488055922091">
        <ele>1273.880005</ele>
        <time>2017-06-18T09:35:09Z</time>
      </trkpt>
      <trkpt lat="41.732007265090942" lon="13.814979381859303">
        <ele>1270.9998780000001</ele>
        <time>2017-06-18T09:35:19Z</time>
      </trkpt>
      <trkpt lat="41.73191187903285" lon="13.815103685483336">
        <ele>1269.5600589999999</ele>
        <time>2017-06-18T09:35:30Z</time>
      </trkpt>
      <trkpt lat="41.731899473816156" lon="13.815111564472318">
        <ele>1269.080078</ele>
        <time>2017-06-18T09:35:34Z</time>
      </trkpt>
      <trkpt lat="41.731841471046209" lon="13.815155820921063">
        <ele>1268.119995</ele>
        <time>2017-06-18T09:35:45Z</time>
      </trkpt>
      <trkpt lat="41.731828395277262" lon="13.815175015479326">
        <ele>1268.119995</ele>
        <time>2017-06-18T09:35:54Z</time>
      </trkpt>
      <trkpt lat="41.731629827991128" lon="13.815309125930071">
        <ele>1267.160034</ele>
        <time>2017-06-18T09:36:09Z</time>
      </trkpt>
      <trkpt lat="41.731501836329699" lon="13.81552211008966">
        <ele>1265.709961</ele>
        <time>2017-06-18T09:36:22Z</time>
      </trkpt>
      <trkpt lat="41.731488928198814" lon="13.815543064847589">
        <ele>1267.160034</ele>
        <time>2017-06-18T09:36:24Z</time>
      </trkpt>
      <trkpt lat="41.73144911415875" lon="13.815602827817202">
        <ele>1263.7899170000001</ele>
        <time>2017-06-18T09:36:33Z</time>
      </trkpt>
      <trkpt lat="41.731356326490641" lon="13.815732160583138">
        <ele>1261.8701169999999</ele>
        <time>2017-06-18T09:36:46Z</time>
      </trkpt>
      <trkpt lat="41.731298239901662" lon="13.815789241343737">
        <ele>1260.910034</ele>
        <time>2017-06-18T09:36:51Z</time>
      </trkpt>
      <trkpt lat="41.731251133605838" lon="13.81584657356143">
        <ele>1259.940063</ele>
        <time>2017-06-18T09:36:56Z</time>
      </trkpt>
      <trkpt lat="41.731202518567443" lon="13.815916059538722">
        <ele>1259.940063</ele>
        <time>2017-06-18T09:37:01Z</time>
      </trkpt>
      <trkpt lat="41.731151137501001" lon="13.816088978201151">
        <ele>1257.540039</ele>
        <time>2017-06-18T09:37:13Z</time>
      </trkpt>
      <trkpt lat="41.731076203286648" lon="13.81623063236475">
        <ele>1256.579956</ele>
        <time>2017-06-18T09:37:22Z</time>
      </trkpt>
      <trkpt lat="41.731055919080973" lon="13.816273463889956">
        <ele>1255.1400149999999</ele>
        <time>2017-06-18T09:37:25Z</time>
      </trkpt>
      <trkpt lat="41.731036389246583" lon="13.816361222416162">
        <ele>1254.6599120000001</ele>
        <time>2017-06-18T09:37:33Z</time>
      </trkpt>
      <trkpt lat="41.731027420610189" lon="13.816403718665242">
        <ele>1254.179932</ele>
        <time>2017-06-18T09:37:36Z</time>
      </trkpt>
      <trkpt lat="41.73096883110702" lon="13.816622905433178">
        <ele>1252.25</ele>
        <time>2017-06-18T09:37:51Z</time>
      </trkpt>
      <trkpt lat="41.730884928256273" lon="13.816746873781085">
        <ele>1251.7700199999999</ele>
        <time>2017-06-18T09:37:59Z</time>
      </trkpt>
      <trkpt lat="41.730849640443921" lon="13.816778725013137">
        <ele>1251.7700199999999</ele>
        <time>2017-06-18T09:38:02Z</time>
      </trkpt>
      <trkpt lat="41.730766072869301" lon="13.816912164911628">
        <ele>1249.849976</ele>
        <time>2017-06-18T09:38:13Z</time>
      </trkpt>
      <trkpt lat="41.730724833905697" lon="13.816981399431825">
        <ele>1248.410034</ele>
        <time>2017-06-18T09:38:17Z</time>
      </trkpt>
      <trkpt lat="41.730664232745767" lon="13.817146020010114">
        <ele>1247.9300539999999</ele>
        <time>2017-06-18T09:38:29Z</time>
      </trkpt>
      <trkpt lat="41.730585778132081" lon="13.817304940894246">
        <ele>1245.530029</ele>
        <time>2017-06-18T09:38:42Z</time>
      </trkpt>
      <trkpt lat="41.730502713471651" lon="13.817428071051836">
        <ele>1243.599976</ele>
        <time>2017-06-18T09:38:54Z</time>
      </trkpt>
      <trkpt lat="41.730384193360806" lon="13.817652706056833">
        <ele>1242.160034</ele>
        <time>2017-06-18T09:39:09Z</time>
      </trkpt>
      <trkpt lat="41.730352425947785" lon="13.817708026617765">
        <ele>1242.160034</ele>
        <time>2017-06-18T09:39:14Z</time>
      </trkpt>
      <trkpt lat="41.730240695178509" lon="13.817843226715922">
        <ele>1241.1999510000001</ele>
        <time>2017-06-18T09:39:27Z</time>
      </trkpt>
      <trkpt lat="41.730172885581851" lon="13.817952275276184">
        <ele>1239.2799070000001</ele>
        <time>2017-06-18T09:39:38Z</time>
      </trkpt>
      <trkpt lat="41.730030477046967" lon="13.818097030743957">
        <ele>1237.829956</ele>
        <time>2017-06-18T09:39:50Z</time>
      </trkpt>
      <trkpt lat="41.729894606396556" lon="13.818287886679173">
        <ele>1236.3900149999999</ele>
        <time>2017-06-18T09:40:05Z</time>
      </trkpt>
      <trkpt lat="41.729793772101402" lon="13.818489471450448">
        <ele>1234.950073</ele>
        <time>2017-06-18T09:40:18Z</time>
      </trkpt>
      <trkpt lat="41.729747839272022" lon="13.818675465881824">
        <ele>1233.030029</ele>
        <time>2017-06-18T09:40:31Z</time>
      </trkpt>
      <trkpt lat="41.729728728532791" lon="13.818839164450765">
        <ele>1231.589966</ele>
        <time>2017-06-18T09:40:43Z</time>
      </trkpt>
      <trkpt lat="41.729733170941472" lon="13.818990038707852">
        <ele>1229.179932</ele>
        <time>2017-06-18T09:40:55Z</time>
      </trkpt>
      <trkpt lat="41.729730907827616" lon="13.81917318329215">
        <ele>1227.73999</ele>
        <time>2017-06-18T09:41:10Z</time>
      </trkpt>
      <trkpt lat="41.72973501496017" lon="13.819189863279462">
        <ele>1226.7799070000001</ele>
        <time>2017-06-18T09:41:11Z</time>
      </trkpt>
      <trkpt lat="41.729788240045309" lon="13.819368816912174">
        <ele>1225.339966</ele>
        <time>2017-06-18T09:41:21Z</time>
      </trkpt>
      <trkpt lat="41.72981221228838" lon="13.819513320922852">
        <ele>1222.450073</ele>
        <time>2017-06-18T09:41:33Z</time>
      </trkpt>
      <trkpt lat="41.729846075177193" lon="13.819565623998642">
        <ele>1221.969971</ele>
        <time>2017-06-18T09:41:50Z</time>
      </trkpt>
      <trkpt lat="41.729877758771181" lon="13.81979176774621">
        <ele>1221.969971</ele>
        <time>2017-06-18T09:42:06Z</time>
      </trkpt>
      <trkpt lat="41.729883458465338" lon="13.819820182397962">
        <ele>1220.530029</ele>
        <time>2017-06-18T09:42:09Z</time>
      </trkpt>
      <trkpt lat="41.729901563376188" lon="13.819989580661058">
        <ele>1218.6099850000001</ele>
        <time>2017-06-18T09:42:20Z</time>
      </trkpt>
      <trkpt lat="41.729942718520761" lon="13.820078764110804">
        <ele>1218.6099850000001</ele>
        <time>2017-06-18T09:42:27Z</time>
      </trkpt>
      <trkpt lat="41.730027627199888" lon="13.820294514298439">
        <ele>1217.650024</ele>
        <time>2017-06-18T09:42:42Z</time>
      </trkpt>
      <trkpt lat="41.730033662170172" lon="13.820325024425983">
        <ele>1217.170044</ele>
        <time>2017-06-18T09:42:44Z</time>
      </trkpt>
      <trkpt lat="41.730046235024929" lon="13.820508420467377">
        <ele>1217.170044</ele>
        <time>2017-06-18T09:42:52Z</time>
      </trkpt>
      <trkpt lat="41.73011127859354" lon="13.820726936683059">
        <ele>1216.690063</ele>
        <time>2017-06-18T09:43:01Z</time>
      </trkpt>
      <trkpt lat="41.730109434574842" lon="13.820970430970192">
        <ele>1216.209961</ele>
        <time>2017-06-18T09:43:14Z</time>
      </trkpt>
      <trkpt lat="41.730115385726094" lon="13.821097668260336">
        <ele>1214.2799070000001</ele>
        <time>2017-06-18T09:43:26Z</time>
      </trkpt>
      <trkpt lat="41.730113374069333" lon="13.821102362126112">
        <ele>1214.2799070000001</ele>
        <time>2017-06-18T09:43:27Z</time>
      </trkpt>
      <trkpt lat="41.730078170076013" lon="13.821154497563839">
        <ele>1213.8000489999999</ele>
        <time>2017-06-18T09:43:33Z</time>
      </trkpt>
      <trkpt lat="41.730013126507401" lon="13.821155084297061">
        <ele>1213.320068</ele>
        <time>2017-06-18T09:43:38Z</time>
      </trkpt>
      <trkpt lat="41.729911370202899" lon="13.821117701008916">
        <ele>1213.320068</ele>
        <time>2017-06-18T09:43:44Z</time>
      </trkpt>
      <trkpt lat="41.729766698554158" lon="13.82106414064765">
        <ele>1211.880005</ele>
        <time>2017-06-18T09:43:57Z</time>
      </trkpt>
      <trkpt lat="41.729683130979538" lon="13.821053579449654">
        <ele>1209.4799800000001</ele>
        <time>2017-06-18T09:44:09Z</time>
      </trkpt>
      <trkpt lat="41.729581458494067" lon="13.820976465940475">
        <ele>1207.5500489999999</ele>
        <time>2017-06-18T09:44:21Z</time>
      </trkpt>
      <trkpt lat="41.7295210249722" lon="13.82097277790308">
        <ele>1207.5500489999999</ele>
        <time>2017-06-18T09:44:42Z</time>
      </trkpt>
      <trkpt lat="41.72945505939424" lon="13.820885103195906">
        <ele>1206.589966</ele>
        <time>2017-06-18T09:44:57Z</time>
      </trkpt>
      <trkpt lat="41.729326229542494" lon="13.820750741288066">
        <ele>1204.190063</ele>
        <time>2017-06-18T09:45:08Z</time>
      </trkpt>
      <trkpt lat="41.729187341406941" lon="13.820661976933479">
        <ele>1200.820068</ele>
        <time>2017-06-18T09:45:19Z</time>
      </trkpt>
      <trkpt lat="41.729087261483073" lon="13.820685613900423">
        <ele>1199.380005</ele>
        <time>2017-06-18T09:45:26Z</time>
      </trkpt>
      <trkpt lat="41.728967064991593" lon="13.82069181650877">
        <ele>1196.0200199999999</ele>
        <time>2017-06-18T09:45:39Z</time>
      </trkpt>
      <trkpt lat="41.72892046160996" lon="13.820675471797585">
        <ele>1195.0600589999999</ele>
        <time>2017-06-18T09:45:44Z</time>
      </trkpt>
      <trkpt lat="41.728752823546529" lon="13.820670526474714">
        <ele>1192.650024</ele>
        <time>2017-06-18T09:45:57Z</time>
      </trkpt>
      <trkpt lat="41.728707058355212" lon="13.820656361058354">
        <ele>1191.209961</ele>
        <time>2017-06-18T09:46:02Z</time>
      </trkpt>
      <trkpt lat="41.72865366563201" lon="13.820605734363198">
        <ele>1190.7299800000001</ele>
        <time>2017-06-18T09:46:06Z</time>
      </trkpt>
      <trkpt lat="41.728587867692113" lon="13.820547396317124">
        <ele>1189.7700199999999</ele>
        <time>2017-06-18T09:46:12Z</time>
      </trkpt>
      <trkpt lat="41.728496924042702" lon="13.820453016087413">
        <ele>1187.849976</ele>
        <time>2017-06-18T09:46:22Z</time>
      </trkpt>
      <trkpt lat="41.728398185223341" lon="13.820414459332824">
        <ele>1185.920044</ele>
        <time>2017-06-18T09:46:30Z</time>
      </trkpt>
      <trkpt lat="41.728137340396643" lon="13.820261070504785">
        <ele>1184</ele>
        <time>2017-06-18T09:46:46Z</time>
      </trkpt>
      <trkpt lat="41.727992836385965" lon="13.820207677781582">
        <ele>1182.080078</ele>
        <time>2017-06-18T09:46:58Z</time>
      </trkpt>
      <trkpt lat="41.727872472256422" lon="13.820112040266395">
        <ele>1179.670044</ele>
        <time>2017-06-18T09:47:11Z</time>
      </trkpt>
      <trkpt lat="41.727817403152585" lon="13.820064263418317">
        <ele>1178.709961</ele>
        <time>2017-06-18T09:47:17Z</time>
      </trkpt>
      <trkpt lat="41.72771698795259" lon="13.81996619515121">
        <ele>1177.2700199999999</ele>
        <time>2017-06-18T09:47:24Z</time>
      </trkpt>
      <trkpt lat="41.727560665458441" lon="13.819812806323171">
        <ele>1174.3900149999999</ele>
        <time>2017-06-18T09:47:38Z</time>
      </trkpt>
      <trkpt lat="41.727516828104854" lon="13.819769136607647">
        <ele>1173.4300539999999</ele>
        <time>2017-06-18T09:47:42Z</time>
      </trkpt>
      <trkpt lat="41.727429740130901" lon="13.819667464122176">
        <ele>1171.5</ele>
        <time>2017-06-18T09:47:50Z</time>
      </trkpt>
      <trkpt lat="41.727268472313881" lon="13.819671487435699">
        <ele>1169.580078</ele>
        <time>2017-06-18T09:48:02Z</time>
      </trkpt>
      <trkpt lat="41.727219186723232" lon="13.819689759984612">
        <ele>1168.619995</ele>
        <time>2017-06-18T09:48:07Z</time>
      </trkpt>
      <trkpt lat="41.727041741833091" lon="13.819841640070081">
        <ele>1165.73999</ele>
        <time>2017-06-18T09:48:25Z</time>
      </trkpt>
      <trkpt lat="41.727041406556964" lon="13.819874497130513">
        <ele>1165.26001</ele>
        <time>2017-06-18T09:48:39Z</time>
      </trkpt>
      <trkpt lat="41.727028666064143" lon="13.819922441616654">
        <ele>1165.26001</ele>
        <time>2017-06-18T09:48:45Z</time>
      </trkpt>
      <trkpt lat="41.726920958608389" lon="13.82004045881331">
        <ele>1163.329956</ele>
        <time>2017-06-18T09:48:57Z</time>
      </trkpt>
      <trkpt lat="41.726916432380676" lon="13.820033585652709">
        <ele>1161.8900149999999</ele>
        <time>2017-06-18T09:49:12Z</time>
      </trkpt>
      <trkpt lat="41.726868906989694" lon="13.820171216502786">
        <ele>1160.9300539999999</ele>
        <time>2017-06-18T09:49:24Z</time>
      </trkpt>
      <trkpt lat="41.726853065192699" lon="13.820263668894768">
        <ele>1160.9300539999999</ele>
        <time>2017-06-18T09:49:41Z</time>
      </trkpt>
      <trkpt lat="41.72684870660305" lon="13.820257131010294">
        <ele>1160.9300539999999</ele>
        <time>2017-06-18T09:49:44Z</time>
      </trkpt>
      <trkpt lat="41.72687460668385" lon="13.82018756121397">
        <ele>1160.450073</ele>
        <time>2017-06-18T09:49:49Z</time>
      </trkpt>
      <trkpt lat="41.726938141509891" lon="13.820071136578918">
        <ele>1162.369995</ele>
        <time>2017-06-18T09:49:57Z</time>
      </trkpt>
      <trkpt lat="41.72707149758935" lon="13.819912299513817">
        <ele>1165.26001</ele>
        <time>2017-06-18T09:50:14Z</time>
      </trkpt>
      <trkpt lat="41.727187670767307" lon="13.819844825193286">
        <ele>1167.660034</ele>
        <time>2017-06-18T09:50:30Z</time>
      </trkpt>
      <trkpt lat="41.727295964956284" lon="13.819841388612986">
        <ele>1168.619995</ele>
        <time>2017-06-18T09:50:43Z</time>
      </trkpt>
      <trkpt lat="41.727365031838417" lon="13.819826636463404">
        <ele>1170.5399170000001</ele>
        <time>2017-06-18T09:50:54Z</time>
      </trkpt>
      <trkpt lat="41.72745949588716" lon="13.819859325885773">
        <ele>1171.9799800000001</ele>
        <time>2017-06-18T09:51:11Z</time>
      </trkpt>
      <trkpt lat="41.727495202794671" lon="13.819855889305472">
        <ele>1172.950073</ele>
        <time>2017-06-18T09:51:24Z</time>
      </trkpt>
      <trkpt lat="41.727490592747927" lon="13.819853374734521">
        <ele>1172.950073</ele>
        <time>2017-06-18T09:51:25Z</time>
      </trkpt>
      <trkpt lat="41.727457735687494" lon="13.819830240681767">
        <ele>1172.950073</ele>
        <time>2017-06-18T09:51:29Z</time>
      </trkpt>
      <trkpt lat="41.727369641885161" lon="13.819835437461734">
        <ele>1169.580078</ele>
        <time>2017-06-18T09:51:38Z</time>
      </trkpt>
      <trkpt lat="41.727302670478821" lon="13.819829234853387">
        <ele>1169.099976</ele>
        <time>2017-06-18T09:51:43Z</time>
      </trkpt>
      <trkpt lat="41.727241398766637" lon="13.81982889957726">
        <ele>1168.1400149999999</ele>
        <time>2017-06-18T09:51:48Z</time>
      </trkpt>
      <trkpt lat="41.727078706026077" lon="13.81990266032517">
        <ele>1165.26001</ele>
        <time>2017-06-18T09:52:02Z</time>
      </trkpt>
      <trkpt lat="41.727068731561303" lon="13.819927303120494">
        <ele>1165.26001</ele>
        <time>2017-06-18T09:52:04Z</time>
      </trkpt>
      <trkpt lat="41.727053392678499" lon="13.81995152682066">
        <ele>1164.7700199999999</ele>
        <time>2017-06-18T09:52:06Z</time>
      </trkpt>
      <trkpt lat="41.726950630545616" lon="13.820025371387601">
        <ele>1162.849976</ele>
        <time>2017-06-18T09:52:18Z</time>
      </trkpt>
      <trkpt lat="41.726901093497872" lon="13.820054959505796">
        <ele>1162.369995</ele>
        <time>2017-06-18T09:52:23Z</time>
      </trkpt>
      <trkpt lat="41.726874439045787" lon="13.82013576105237">
        <ele>1160.9300539999999</ele>
        <time>2017-06-18T09:52:30Z</time>
      </trkpt>
      <trkpt lat="41.726864129304886" lon="13.820189572870731">
        <ele>1160.450073</ele>
        <time>2017-06-18T09:52:34Z</time>
      </trkpt>
      <trkpt lat="41.726777963340282" lon="13.820319324731827">
        <ele>1157.080078</ele>
        <time>2017-06-18T09:52:48Z</time>
      </trkpt>
      <trkpt lat="41.726684002205729" lon="13.820520741865039">
        <ele>1154.6800539999999</ele>
        <time>2017-06-18T09:53:02Z</time>
      </trkpt>
      <trkpt lat="41.726568834856153" lon="13.820668430998921">
        <ele>1151.799927</ele>
        <time>2017-06-18T09:53:16Z</time>
      </trkpt>
      <trkpt lat="41.726474370807409" lon="13.820745460689068">
        <ele>1150.349976</ele>
        <time>2017-06-18T09:53:27Z</time>
      </trkpt>
      <trkpt lat="41.72629457898438" lon="13.820832381024957">
        <ele>1147.469971</ele>
        <time>2017-06-18T09:53:41Z</time>
      </trkpt>
      <trkpt lat="41.726224841549993" lon="13.82089021615684">
        <ele>1146.51001</ele>
        <time>2017-06-18T09:53:49Z</time>
      </trkpt>
      <trkpt lat="41.726026693359017" lon="13.82092148065567">
        <ele>1144.589966</ele>
        <time>2017-06-18T09:54:04Z</time>
      </trkpt>
      <trkpt lat="41.725975479930639" lon="13.820946710184216">
        <ele>1143.630005</ele>
        <time>2017-06-18T09:54:10Z</time>
      </trkpt>
      <trkpt lat="41.725856373086572" lon="13.820969173684716">
        <ele>1142.1800539999999</ele>
        <time>2017-06-18T09:54:20Z</time>
      </trkpt>
      <trkpt lat="41.725670965388417" lon="13.820971688255668">
        <ele>1141.219971</ele>
        <time>2017-06-18T09:54:33Z</time>
      </trkpt>
      <trkpt lat="41.725641964003444" lon="13.820990631356835">
        <ele>1140.73999</ele>
        <time>2017-06-18T09:54:36Z</time>
      </trkpt>
      <trkpt lat="41.725474493578076" lon="13.821047460660338">
        <ele>1137.8599850000001</ele>
        <time>2017-06-18T09:54:51Z</time>
      </trkpt>
      <trkpt lat="41.725394865497947" lon="13.821045029908419">
        <ele>1136.420044</ele>
        <time>2017-06-18T09:54:58Z</time>
      </trkpt>
      <trkpt lat="41.725268717855215" lon="13.821007227525115">
        <ele>1134.969971</ele>
        <time>2017-06-18T09:55:10Z</time>
      </trkpt>
      <trkpt lat="41.725112562999129" lon="13.821049137040973">
        <ele>1133.0500489999999</ele>
        <time>2017-06-18T09:55:21Z</time>
      </trkpt>
      <trkpt lat="41.725094961002469" lon="13.821067996323109">
        <ele>1132.089966</ele>
        <time>2017-06-18T09:55:23Z</time>
      </trkpt>
      <trkpt lat="41.725064786151052" lon="13.821110995486379">
        <ele>1131.6099850000001</ele>
        <time>2017-06-18T09:55:27Z</time>
      </trkpt>
      <trkpt lat="41.725036036223173" lon="13.821129435673356">
        <ele>1131.6099850000001</ele>
        <time>2017-06-18T09:55:30Z</time>
      </trkpt>
      <trkpt lat="41.724915336817503" lon="13.821373768150806">
        <ele>1129.690063</ele>
        <time>2017-06-18T09:55:46Z</time>
      </trkpt>
      <trkpt lat="41.724913995712996" lon="13.82156990468502">
        <ele>1128.23999</ele>
        <time>2017-06-18T09:56:01Z</time>
      </trkpt>
      <trkpt lat="41.724926820024848" lon="13.821741314604878">
        <ele>1126.320068</ele>
        <time>2017-06-18T09:56:14Z</time>
      </trkpt>
      <trkpt lat="41.724807796999812" lon="13.821973660960793">
        <ele>1123.4399410000001</ele>
        <time>2017-06-18T09:56:30Z</time>
      </trkpt>
      <trkpt lat="41.724751638248563" lon="13.822037698701024">
        <ele>1122.4799800000001</ele>
        <time>2017-06-18T09:56:34Z</time>
      </trkpt>
      <trkpt lat="41.724712578579783" lon="13.822245988994837">
        <ele>1121.030029</ele>
        <time>2017-06-18T09:56:47Z</time>
      </trkpt>
      <trkpt lat="41.724671507254243" lon="13.822429636493325">
        <ele>1118.630005</ele>
        <time>2017-06-18T09:57:00Z</time>
      </trkpt>
      <trkpt lat="41.724605793133378" lon="13.822594005614519">
        <ele>1116.7100829999999</ele>
        <time>2017-06-18T09:57:10Z</time>
      </trkpt>
      <trkpt lat="41.72456681728363" lon="13.822673633694649">
        <ele>1115.75</ele>
        <time>2017-06-18T09:57:15Z</time>
      </trkpt>
      <trkpt lat="41.724428264424205" lon="13.822694588452578">
        <ele>1113.820068</ele>
        <time>2017-06-18T09:57:27Z</time>
      </trkpt>
      <trkpt lat="41.724293315783143" lon="13.822605069726706">
        <ele>1111.420044</ele>
        <time>2017-06-18T09:57:40Z</time>
      </trkpt>
      <trkpt lat="41.724149230867624" lon="13.822553940117359">
        <ele>1109.0200199999999</ele>
        <time>2017-06-18T09:57:51Z</time>
      </trkpt>
      <trkpt lat="41.724029118195176" lon="13.822500966489315">
        <ele>1107.580078</ele>
        <time>2017-06-18T09:58:03Z</time>
      </trkpt>
      <trkpt lat="41.723942868411541" lon="13.822416728362441">
        <ele>1106.130005</ele>
        <time>2017-06-18T09:58:12Z</time>
      </trkpt>
      <trkpt lat="41.723875058814883" lon="13.822371466085315">
        <ele>1105.650024</ele>
        <time>2017-06-18T09:58:17Z</time>
      </trkpt>
      <trkpt lat="41.723760729655623" lon="13.822315558791161">
        <ele>1104.690063</ele>
        <time>2017-06-18T09:58:32Z</time>
      </trkpt>
      <trkpt lat="41.72366626560688" lon="13.822245234623551">
        <ele>1102.7700199999999</ele>
        <time>2017-06-18T09:58:49Z</time>
      </trkpt>
      <trkpt lat="41.723544979467988" lon="13.822184214368463">
        <ele>1100.849976</ele>
        <time>2017-06-18T09:59:02Z</time>
      </trkpt>
      <trkpt lat="41.723395362496376" lon="13.822116237133741">
        <ele>1097.4799800000001</ele>
        <time>2017-06-18T09:59:17Z</time>
      </trkpt>
      <trkpt lat="41.723244320601225" lon="13.822051277384162">
        <ele>1096.0399170000001</ele>
        <time>2017-06-18T09:59:29Z</time>
      </trkpt>
      <trkpt lat="41.72314683906734" lon="13.822078937664628">
        <ele>1093.160034</ele>
        <time>2017-06-18T09:59:44Z</time>
      </trkpt>
      <trkpt lat="41.722903177142143" lon="13.822124367579818">
        <ele>1090.75</ele>
        <time>2017-06-18T10:00:00Z</time>
      </trkpt>
      <trkpt lat="41.722720703110099" lon="13.822057815268636">
        <ele>1088.829956</ele>
        <time>2017-06-18T10:00:13Z</time>
      </trkpt>
      <trkpt lat="41.722590364515781" lon="13.821952622383833">
        <ele>1085.950073</ele>
        <time>2017-06-18T10:00:29Z</time>
      </trkpt>
      <trkpt lat="41.722496403381228" lon="13.821908785030246">
        <ele>1084.0200199999999</ele>
        <time>2017-06-18T10:00:37Z</time>
      </trkpt>
      <trkpt lat="41.722299763932824" lon="13.821831922978163">
        <ele>1082.099976</ele>
        <time>2017-06-18T10:00:48Z</time>
      </trkpt>
      <trkpt lat="41.722137909382582" lon="13.821791606023908">
        <ele>1079.6999510000001</ele>
        <time>2017-06-18T10:01:04Z</time>
      </trkpt>
      <trkpt lat="41.72205476090312" lon="13.821774423122406">
        <ele>1078.26001</ele>
        <time>2017-06-18T10:01:10Z</time>
      </trkpt>
      <trkpt lat="41.722025759518147" lon="13.821769477799535">
        <ele>1078.26001</ele>
        <time>2017-06-18T10:01:12Z</time>
      </trkpt>
      <trkpt lat="41.721864072605968" lon="13.821674175560474">
        <ele>1076.329956</ele>
        <time>2017-06-18T10:01:24Z</time>
      </trkpt>
      <trkpt lat="41.721712863072753" lon="13.821633104234934">
        <ele>1074.8900149999999</ele>
        <time>2017-06-18T10:01:36Z</time>
      </trkpt>
      <trkpt lat="41.721563581377268" lon="13.821605779230595">
        <ele>1072.01001</ele>
        <time>2017-06-18T10:01:49Z</time>
      </trkpt>
      <trkpt lat="41.721505913883448" lon="13.8216158375144">
        <ele>1071.0500489999999</ele>
        <time>2017-06-18T10:01:56Z</time>
      </trkpt>
      <trkpt lat="41.721296533942223" lon="13.82165489718318">
        <ele>1069.119995</ele>
        <time>2017-06-18T10:02:08Z</time>
      </trkpt>
      <trkpt lat="41.721230903640389" lon="13.821673588827252">
        <ele>1068.160034</ele>
        <time>2017-06-18T10:02:13Z</time>
      </trkpt>
      <trkpt lat="41.721173236146569" lon="13.821700578555465">
        <ele>1067.6800539999999</ele>
        <time>2017-06-18T10:02:17Z</time>
      </trkpt>
      <trkpt lat="41.721060164272785" lon="13.82175606675446">
        <ele>1064.799927</ele>
        <time>2017-06-18T10:02:31Z</time>
      </trkpt>
      <trkpt lat="41.720909541472793" lon="13.821807783097029">
        <ele>1061.910034</ele>
        <time>2017-06-18T10:02:45Z</time>
      </trkpt>
      <trkpt lat="41.720828739926219" lon="13.821766460314393">
        <ele>1060.950073</ele>
        <time>2017-06-18T10:02:54Z</time>
      </trkpt>
      <trkpt lat="41.720720529556274" lon="13.821719773113728">
        <ele>1058.5500489999999</ele>
        <time>2017-06-18T10:03:07Z</time>
      </trkpt>
      <trkpt lat="41.720510562881827" lon="13.821644587442279">
        <ele>1056.150024</ele>
        <time>2017-06-18T10:03:21Z</time>
      </trkpt>
      <trkpt lat="41.720489272847772" lon="13.82166319526732">
        <ele>1056.150024</ele>
        <time>2017-06-18T10:03:23Z</time>
      </trkpt>
      <trkpt lat="41.720445770770311" lon="13.82167593576014">
        <ele>1055.1800539999999</ele>
        <time>2017-06-18T10:03:27Z</time>
      </trkpt>
      <trkpt lat="41.720408806577325" lon="13.82167149335146">
        <ele>1054.6999510000001</ele>
        <time>2017-06-18T10:03:30Z</time>
      </trkpt>
      <trkpt lat="41.720289029181004" lon="13.821631176397204">
        <ele>1052.299927</ele>
        <time>2017-06-18T10:03:44Z</time>
      </trkpt>
      <trkpt lat="41.720146369189024" lon="13.8215899374336">
        <ele>1049.900024</ele>
        <time>2017-06-18T10:03:59Z</time>
      </trkpt>
      <trkpt lat="41.720030028373003" lon="13.821599325165153">
        <ele>1047.969971</ele>
        <time>2017-06-18T10:04:12Z</time>
      </trkpt>
      <trkpt lat="41.719908239319921" lon="13.82154886610806">
        <ele>1045.5699460000001</ele>
        <time>2017-06-18T10:04:26Z</time>
      </trkpt>
      <trkpt lat="41.719870520755649" lon="13.821507124230266">
        <ele>1043.650024</ele>
        <time>2017-06-18T10:04:38Z</time>
      </trkpt>
      <trkpt lat="41.719819894060493" lon="13.821427999064326">
        <ele>1042.209961</ele>
        <time>2017-06-18T10:04:55Z</time>
      </trkpt>
      <trkpt lat="41.719777816906571" lon="13.821355663239956">
        <ele>1042.209961</ele>
        <time>2017-06-18T10:05:19Z</time>
      </trkpt>
      <trkpt lat="41.719713108614087" lon="13.821284836158156">
        <ele>1039.3199460000001</ele>
        <time>2017-06-18T10:05:32Z</time>
      </trkpt>
      <trkpt lat="41.719694333150983" lon="13.821257762610912">
        <ele>1038.8400879999999</ele>
        <time>2017-06-18T10:05:36Z</time>
      </trkpt>
      <trkpt lat="41.719654686748981" lon="13.821181738749146">
        <ele>1037.880005</ele>
        <time>2017-06-18T10:05:43Z</time>
      </trkpt>
      <trkpt lat="41.719551840797067" lon="13.821031535044312">
        <ele>1035</ele>
        <time>2017-06-18T10:05:55Z</time>
      </trkpt>
      <trkpt lat="41.719435835257173" lon="13.820914523676038">
        <ele>1033.5500489999999</ele>
        <time>2017-06-18T10:06:08Z</time>
      </trkpt>
      <trkpt lat="41.719313878566027" lon="13.82076708599925">
        <ele>1031.150024</ele>
        <time>2017-06-18T10:06:24Z</time>
      </trkpt>
      <trkpt lat="41.719116065651178" lon="13.820691481232643">
        <ele>1029.7100829999999</ele>
        <time>2017-06-18T10:06:38Z</time>
      </trkpt>
      <trkpt lat="41.719027468934655" lon="13.820718638598919">
        <ele>1028.75</ele>
        <time>2017-06-18T10:06:45Z</time>
      </trkpt>
      <trkpt lat="41.718999305739999" lon="13.820745460689068">
        <ele>1028.75</ele>
        <time>2017-06-18T10:06:47Z</time>
      </trkpt>
      <trkpt lat="41.718846671283245" lon="13.820881163701415">
        <ele>1027.790039</ele>
        <time>2017-06-18T10:06:57Z</time>
      </trkpt>
      <trkpt lat="41.718747261911631" lon="13.821060871705413">
        <ele>1024.900024</ele>
        <time>2017-06-18T10:07:10Z</time>
      </trkpt>
      <trkpt lat="41.718704095110297" lon="13.821185762062669">
        <ele>1023.459961</ele>
        <time>2017-06-18T10:07:21Z</time>
      </trkpt>
      <trkpt lat="41.718619521707296" lon="13.821324063464999">
        <ele>1022.02002</ele>
        <time>2017-06-18T10:07:33Z</time>
      </trkpt>
      <trkpt lat="41.718510892242193" lon="13.821437722072005">
        <ele>1020.099976</ele>
        <time>2017-06-18T10:07:44Z</time>
      </trkpt>
      <trkpt lat="41.718394216150045" lon="13.821425987407565">
        <ele>1019.619995</ele>
        <time>2017-06-18T10:07:58Z</time>
      </trkpt>
      <trkpt lat="41.718366723507643" lon="13.821402182802558">
        <ele>1018.650024</ele>
        <time>2017-06-18T10:08:02Z</time>
      </trkpt>
      <trkpt lat="41.718209981918335" lon="13.821280393749475">
        <ele>1016.72998</ele>
        <time>2017-06-18T10:08:19Z</time>
      </trkpt>
      <trkpt lat="41.718090539798141" lon="13.821205710992217">
        <ele>1014.329956</ele>
        <time>2017-06-18T10:08:32Z</time>
      </trkpt>
      <trkpt lat="41.717951400205493" lon="13.821177883073688">
        <ele>1011.929993</ele>
        <time>2017-06-18T10:08:49Z</time>
      </trkpt>
      <trkpt lat="41.717796334996819" lon="13.821183079853654">
        <ele>1009.999939</ele>
        <time>2017-06-18T10:09:02Z</time>
      </trkpt>
      <trkpt lat="41.717727016657591" lon="13.821198418736458">
        <ele>1009.52002</ele>
        <time>2017-06-18T10:09:08Z</time>
      </trkpt>
      <trkpt lat="41.717681167647243" lon="13.821234460920095">
        <ele>1008.559998</ele>
        <time>2017-06-18T10:09:13Z</time>
      </trkpt>
      <trkpt lat="41.717623835429549" lon="13.821222139522433">
        <ele>1007.599976</ele>
        <time>2017-06-18T10:09:18Z</time>
      </trkpt>
      <trkpt lat="41.717452593147755" lon="13.821268659085035">
        <ele>1006.159973</ele>
        <time>2017-06-18T10:09:31Z</time>
      </trkpt>
      <trkpt lat="41.717324098572135" lon="13.821427412331104">
        <ele>1004.22998</ele>
        <time>2017-06-18T10:09:46Z</time>
      </trkpt>
      <trkpt lat="41.717197028920054" lon="13.821371588855982">
        <ele>1002.309998</ele>
        <time>2017-06-18T10:09:57Z</time>
      </trkpt>
      <trkpt lat="41.717088064178824" lon="13.8212601095438">
        <ele>999.910034</ele>
        <time>2017-06-18T10:10:08Z</time>
      </trkpt>
      <trkpt lat="41.716944482177496" lon="13.821049137040973">
        <ele>998.47003199999995</ele>
        <time>2017-06-18T10:10:22Z</time>
      </trkpt>
      <trkpt lat="41.716931238770485" lon="13.821033462882042">
        <ele>997.98999000000003</ele>
        <time>2017-06-18T10:10:23Z</time>
      </trkpt>
      <trkpt lat="41.716764438897371" lon="13.821001024916768">
        <ele>996.54003899999998</ele>
        <time>2017-06-18T10:10:38Z</time>
      </trkpt>
      <trkpt lat="41.716625718399882" lon="13.821039497852325">
        <ele>995.09997599999997</ele>
        <time>2017-06-18T10:10:50Z</time>
      </trkpt>
      <trkpt lat="41.716521866619587" lon="13.821033462882042">
        <ele>992.69995100000006</ele>
        <time>2017-06-18T10:11:02Z</time>
      </trkpt>
      <trkpt lat="41.716452799737453" lon="13.821018962189555">
        <ele>992.21997099999999</ele>
        <time>2017-06-18T10:11:07Z</time>
      </trkpt>
      <trkpt lat="41.71627820469439" lon="13.820916702970862">
        <ele>990.78002900000001</ele>
        <time>2017-06-18T10:11:21Z</time>
      </trkpt>
      <trkpt lat="41.716247610747814" lon="13.820922402665019">
        <ele>990.30004899999994</ele>
        <time>2017-06-18T10:11:24Z</time>
      </trkpt>
      <trkpt lat="41.716145016252995" lon="13.82091754116118">
        <ele>988.84997599999997</ele>
        <time>2017-06-18T10:11:35Z</time>
      </trkpt>
      <trkpt lat="41.716001769527793" lon="13.820893066003919">
        <ele>986.92999299999997</ele>
        <time>2017-06-18T10:11:48Z</time>
      </trkpt>
      <trkpt lat="41.715926583856344" lon="13.820899771526456">
        <ele>985.48999000000003</ele>
        <time>2017-06-18T10:11:56Z</time>
      </trkpt>
      <trkpt lat="41.715828012675047" lon="13.82089608348906">
        <ele>984.52996800000005</ele>
        <time>2017-06-18T10:12:04Z</time>
      </trkpt>
      <trkpt lat="41.715646041557193" lon="13.820825172588229">
        <ele>982.11999500000002</ele>
        <time>2017-06-18T10:12:19Z</time>
      </trkpt>
      <trkpt lat="41.715620225295424" lon="13.820814862847328">
        <ele>982.11999500000002</ele>
        <time>2017-06-18T10:12:21Z</time>
      </trkpt>
      <trkpt lat="41.715564904734492" lon="13.820804134011269">
        <ele>981.15997300000004</ele>
        <time>2017-06-18T10:12:25Z</time>
      </trkpt>
      <trkpt lat="41.715405229479074" lon="13.820778233930469">
        <ele>978.75994900000001</ele>
        <time>2017-06-18T10:12:40Z</time>
      </trkpt>
      <trkpt lat="41.715294336900115" lon="13.820741018280387">
        <ele>976.84002699999996</ele>
        <time>2017-06-18T10:12:52Z</time>
      </trkpt>
      <trkpt lat="41.715242117643356" lon="13.820752333849669">
        <ele>976.35998500000005</ele>
        <time>2017-06-18T10:12:57Z</time>
      </trkpt>
      <trkpt lat="41.715072970837355" lon="13.820799272507429">
        <ele>973.95001200000002</ele>
        <time>2017-06-18T10:13:11Z</time>
      </trkpt>
      <trkpt lat="41.715036761015654" lon="13.820838164538145">
        <ele>973.47003199999995</ele>
        <time>2017-06-18T10:13:13Z</time>
      </trkpt>
      <trkpt lat="41.714975573122501" lon="13.820893233641982">
        <ele>972.98999000000003</ele>
        <time>2017-06-18T10:13:18Z</time>
      </trkpt>
      <trkpt lat="41.71482696197927" lon="13.821043940261006">
        <ele>971.54998799999998</ele>
        <time>2017-06-18T10:13:32Z</time>
      </trkpt>
      <trkpt lat="41.714703077450395" lon="13.821082413196564">
        <ele>969.62994400000002</ele>
        <time>2017-06-18T10:13:46Z</time>
      </trkpt>
      <trkpt lat="41.71455379575491" lon="13.821072103455663">
        <ele>968.17999299999997</ele>
        <time>2017-06-18T10:13:58Z</time>
      </trkpt>
      <trkpt lat="41.714451117441058" lon="13.821112588047981">
        <ele>966.25994900000001</ele>
        <time>2017-06-18T10:14:08Z</time>
      </trkpt>
      <trkpt lat="41.714273085817695" lon="13.821194395422935">
        <ele>964.34002699999996</ele>
        <time>2017-06-18T10:14:21Z</time>
      </trkpt>
      <trkpt lat="41.714142076671124" lon="13.821114432066679">
        <ele>963.38000499999998</ele>
        <time>2017-06-18T10:14:34Z</time>
      </trkpt>
      <trkpt lat="41.714082062244415" lon="13.821060704067349">
        <ele>961.94000200000005</ele>
        <time>2017-06-18T10:14:43Z</time>
      </trkpt>
      <trkpt lat="41.714025316759944" lon="13.821051232516766">
        <ele>960.48999000000003</ele>
        <time>2017-06-18T10:14:48Z</time>
      </trkpt>
      <trkpt lat="41.713839322328568" lon="13.821132620796561">
        <ele>959.52996800000005</ele>
        <time>2017-06-18T10:14:59Z</time>
      </trkpt>
      <trkpt lat="41.713814428076148" lon="13.821149803698063">
        <ele>959.52996800000005</ele>
        <time>2017-06-18T10:15:02Z</time>
      </trkpt>
      <trkpt lat="41.713805291801691" lon="13.821159023791552">
        <ele>959.52996800000005</ele>
        <time>2017-06-18T10:15:03Z</time>
      </trkpt>
      <trkpt lat="41.713709402829409" lon="13.821215433999896">
        <ele>958.57000700000003</ele>
        <time>2017-06-18T10:15:10Z</time>
      </trkpt>
      <trkpt lat="41.713676294311881" lon="13.821218870580196">
        <ele>957.60998500000005</ele>
        <time>2017-06-18T10:15:14Z</time>
      </trkpt>
      <trkpt lat="41.713651735335588" lon="13.821234209463">
        <ele>957.12994400000002</ele>
        <time>2017-06-18T10:15:17Z</time>
      </trkpt>
      <trkpt lat="41.713483929634094" lon="13.821339821442962">
        <ele>955.21002199999998</ele>
        <time>2017-06-18T10:15:30Z</time>
      </trkpt>
      <trkpt lat="41.713386280462146" lon="13.821334540843964">
        <ele>953.77002000000005</ele>
        <time>2017-06-18T10:15:38Z</time>
      </trkpt>
      <trkpt lat="41.713200034573674" lon="13.821329679340124">
        <ele>951.35998500000005</ele>
        <time>2017-06-18T10:15:52Z</time>
      </trkpt>
      <trkpt lat="41.713084364309907" lon="13.821285087615252">
        <ele>948.95996100000002</ele>
        <time>2017-06-18T10:16:04Z</time>
      </trkpt>
      <trkpt lat="41.712951175868511" lon="13.821240412071347">
        <ele>946.55999799999995</ele>
        <time>2017-06-18T10:16:14Z</time>
      </trkpt>
      <trkpt lat="41.71278496272862" lon="13.821275029331446">
        <ele>944.62994400000002</ele>
        <time>2017-06-18T10:16:29Z</time>
      </trkpt>
      <trkpt lat="41.712623275816441" lon="13.821184169501066">
        <ele>942.71002199999998</ele>
        <time>2017-06-18T10:16:44Z</time>
      </trkpt>
      <trkpt lat="41.712596537545323" lon="13.821157179772854">
        <ele>942.22997999999995</ele>
        <time>2017-06-18T10:16:47Z</time>
      </trkpt>
      <trkpt lat="41.712456559762359" lon="13.821066319942474">
        <ele>939.82995600000004</ele>
        <time>2017-06-18T10:17:02Z</time>
      </trkpt>
      <trkpt lat="41.712303925305605" lon="13.820965234190226">
        <ele>937.90002400000003</ele>
        <time>2017-06-18T10:17:15Z</time>
      </trkpt>
      <trkpt lat="41.712156739085913" lon="13.820900274440646">
        <ele>935.97997999999995</ele>
        <time>2017-06-18T10:17:29Z</time>
      </trkpt>
      <trkpt lat="41.712040733546019" lon="13.820825926959515">
        <ele>933.580017</ele>
        <time>2017-06-18T10:17:42Z</time>
      </trkpt>
      <trkpt lat="41.712038973346353" lon="13.820782341063023">
        <ele>932.14001499999995</ele>
        <time>2017-06-18T10:17:48Z</time>
      </trkpt>
      <trkpt lat="41.712176436558366" lon="13.820794159546494">
        <ele>930.21002199999998</ele>
        <time>2017-06-18T10:18:03Z</time>
      </trkpt>
      <trkpt lat="41.71226947568357" lon="13.82076658308506">
        <ele>929.72997999999995</ele>
        <time>2017-06-18T10:18:12Z</time>
      </trkpt>
      <trkpt lat="41.712315073236823" lon="13.820752920582891">
        <ele>929.72997999999995</ele>
        <time>2017-06-18T10:18:15Z</time>
      </trkpt>
      <trkpt lat="41.712549682706594" lon="13.820845205336809">
        <ele>928.28997800000002</ele>
        <time>2017-06-18T10:18:31Z</time>
      </trkpt>
      <trkpt lat="41.712663592770696" lon="13.82087797857821">
        <ele>927.32995600000004</ele>
        <time>2017-06-18T10:18:41Z</time>
      </trkpt>
      <trkpt lat="41.712807258591056" lon="13.820775635540485">
        <ele>925.410034</ele>
        <time>2017-06-18T10:18:55Z</time>
      </trkpt>
      <trkpt lat="41.713018985465169" lon="13.820707658305764">
        <ele>923.00006099999996</ele>
        <time>2017-06-18T10:19:09Z</time>
      </trkpt>
      <trkpt lat="41.713029881939292" lon="13.820707323029637">
        <ele>923.00006099999996</ele>
        <time>2017-06-18T10:19:10Z</time>
      </trkpt>
      <trkpt lat="41.713143289089203" lon="13.820613529533148">
        <ele>920.60003700000004</ele>
        <time>2017-06-18T10:19:21Z</time>
      </trkpt>
      <trkpt lat="41.713240938261151" lon="13.820509174838662">
        <ele>919.15997300000004</ele>
        <time>2017-06-18T10:19:30Z</time>
      </trkpt>
      <trkpt lat="41.713447635993361" lon="13.820458967238665">
        <ele>917.71997099999999</ele>
        <time>2017-06-18T10:19:46Z</time>
      </trkpt>
      <trkpt lat="41.713474793359637" lon="13.820452764630318">
        <ele>917.23999000000003</ele>
        <time>2017-06-18T10:19:48Z</time>
      </trkpt>
      <trkpt lat="41.713639078661799" lon="13.820362659171224">
        <ele>915.30999799999995</ele>
        <time>2017-06-18T10:19:59Z</time>
      </trkpt>
      <trkpt lat="41.713812416419387" lon="13.820177586749196">
        <ele>911.95001200000002</ele>
        <time>2017-06-18T10:20:13Z</time>
      </trkpt>
      <trkpt lat="41.713824486359954" lon="13.820170797407627">
        <ele>911.95001200000002</ele>
        <time>2017-06-18T10:20:14Z</time>
      </trkpt>
      <trkpt lat="41.713929176330566" lon="13.820019587874413">
        <ele>910.03002900000001</ele>
        <time>2017-06-18T10:20:29Z</time>
      </trkpt>
      <trkpt lat="41.714047528803349" lon="13.819857481867075">
        <ele>907.61999500000002</ele>
        <time>2017-06-18T10:20:42Z</time>
      </trkpt>
      <trkpt lat="41.71402364037931" lon="13.819822361692786">
        <ele>907.14001499999995</ele>
        <time>2017-06-18T10:20:46Z</time>
      </trkpt>
      <trkpt lat="41.713923560455441" lon="13.819857817143202">
        <ele>905.21997099999999</ele>
        <time>2017-06-18T10:20:56Z</time>
      </trkpt>
      <trkpt lat="41.713767489418387" lon="13.819910287857056">
        <ele>903.30004899999994</ele>
        <time>2017-06-18T10:21:08Z</time>
      </trkpt>
      <trkpt lat="41.713548135012388" lon="13.819942809641361">
        <ele>901.84997599999997</ele>
        <time>2017-06-18T10:21:21Z</time>
      </trkpt>
      <trkpt lat="41.713447133079171" lon="13.819951023906469">
        <ele>900.410034</ele>
        <time>2017-06-18T10:21:33Z</time>
      </trkpt>
      <trkpt lat="41.713426597416401" lon="13.81994565948844">
        <ele>899.93005400000004</ele>
        <time>2017-06-18T10:21:35Z</time>
      </trkpt>
      <trkpt lat="41.713338000699878" lon="13.819913137704134">
        <ele>898.97003199999995</ele>
        <time>2017-06-18T10:21:41Z</time>
      </trkpt>
      <trkpt lat="41.7131900601089" lon="13.819886734709144">
        <ele>896.57000700000003</ele>
        <time>2017-06-18T10:21:54Z</time>
      </trkpt>
      <trkpt lat="41.713112611323595" lon="13.819885058328509">
        <ele>895.60998500000005</ele>
        <time>2017-06-18T10:22:00Z</time>
      </trkpt>
      <trkpt lat="41.712838439270854" lon="13.819934595376253">
        <ele>893.20001200000002</ele>
        <time>2017-06-18T10:22:17Z</time>
      </trkpt>
      <trkpt lat="41.712786974385381" lon="13.819927889853716">
        <ele>892.71997099999999</ele>
        <time>2017-06-18T10:22:21Z</time>
      </trkpt>
      <trkpt lat="41.712659318000078" lon="13.81992856040597">
        <ele>890.80004899999994</ele>
        <time>2017-06-18T10:22:33Z</time>
      </trkpt>
      <trkpt lat="41.712469300255179" lon="13.819863265380263">
        <ele>888.40002400000003</ele>
        <time>2017-06-18T10:22:47Z</time>
      </trkpt>
      <trkpt lat="41.71224650926888" lon="13.819782380014658">
        <ele>886.47003199999995</ele>
        <time>2017-06-18T10:23:01Z</time>
      </trkpt>
      <trkpt lat="41.712201666086912" lon="13.819765113294125">
        <ele>885.51000999999997</ele>
        <time>2017-06-18T10:23:04Z</time>
      </trkpt>
      <trkpt lat="41.712114494293928" lon="13.819725383073092">
        <ele>884.07000700000003</ele>
        <time>2017-06-18T10:23:11Z</time>
      </trkpt>
      <trkpt lat="41.71208817511797" lon="13.819724209606647">
        <ele>884.07000700000003</ele>
        <time>2017-06-18T10:23:14Z</time>
      </trkpt>
      <trkpt lat="41.711953226476908" lon="13.819695962592959">
        <ele>881.67004399999996</ele>
        <time>2017-06-18T10:23:28Z</time>
      </trkpt>
      <trkpt lat="41.711818696931005" lon="13.819628236815333">
        <ele>880.21997099999999</ele>
        <time>2017-06-18T10:23:39Z</time>
      </trkpt>
      <trkpt lat="41.71164209023118" lon="13.819501837715507">
        <ele>877.82000700000003</ele>
        <time>2017-06-18T10:23:53Z</time>
      </trkpt>
      <trkpt lat="41.711501693353057" lon="13.819448864087462">
        <ele>875.90002400000003</ele>
        <time>2017-06-18T10:24:06Z</time>
      </trkpt>
      <trkpt lat="41.711383340880275" lon="13.819350376725197">
        <ele>874.45996100000002</ele>
        <time>2017-06-18T10:24:21Z</time>
      </trkpt>
      <trkpt lat="41.711374204605818" lon="13.819350209087133">
        <ele>873.97997999999995</ele>
        <time>2017-06-18T10:24:22Z</time>
      </trkpt>
      <trkpt lat="41.711391638964415" lon="13.819383569061756">
        <ele>873.5</ele>
        <time>2017-06-18T10:24:35Z</time>
      </trkpt>
      <trkpt lat="41.711404966190457" lon="13.81938960403204">
        <ele>873.5</ele>
        <time>2017-06-18T10:24:36Z</time>
      </trkpt>
      <trkpt lat="41.711530778557062" lon="13.819458167999983">
        <ele>873.5</ele>
        <time>2017-06-18T10:24:44Z</time>
      </trkpt>
      <trkpt lat="41.711634211242199" lon="13.819516506046057">
        <ele>873.01000999999997</ele>
        <time>2017-06-18T10:24:53Z</time>
      </trkpt>
      <trkpt lat="41.711792796850204" lon="13.819513069465756">
        <ele>872.04998799999998</ele>
        <time>2017-06-18T10:25:07Z</time>
      </trkpt>
      <trkpt lat="41.711846860125661" lon="13.81951030343771">
        <ele>871.57000700000003</ele>
        <time>2017-06-18T10:25:12Z</time>
      </trkpt>
      <trkpt lat="41.711897403001785" lon="13.819493791088462">
        <ele>871.089966</ele>
        <time>2017-06-18T10:25:16Z</time>
      </trkpt>
      <trkpt lat="41.712105190381408" lon="13.819484570994973">
        <ele>869.64996299999996</ele>
        <time>2017-06-18T10:25:30Z</time>
      </trkpt>
      <trkpt lat="41.712309205904603" lon="13.819433441385627">
        <ele>867.73004200000003</ele>
        <time>2017-06-18T10:25:45Z</time>
      </trkpt>
      <trkpt lat="41.712454631924629" lon="13.819333361461759">
        <ele>866.28997800000002</ele>
        <time>2017-06-18T10:25:58Z</time>
      </trkpt>
      <trkpt lat="41.712568122893572" lon="13.819207800552249">
        <ele>864.35998500000005</ele>
        <time>2017-06-18T10:26:13Z</time>
      </trkpt>
      <trkpt lat="41.712672561407089" lon="13.81907838396728">
        <ele>863.40002400000003</ele>
        <time>2017-06-18T10:26:22Z</time>
      </trkpt>
      <trkpt lat="41.712884539738297" lon="13.818892473354936">
        <ele>860.03997800000002</ele>
        <time>2017-06-18T10:26:37Z</time>
      </trkpt>
      <trkpt lat="41.713067516684532" lon="13.818739168345928">
        <ele>857.63000499999998</ele>
        <time>2017-06-18T10:26:51Z</time>
      </trkpt>
      <trkpt lat="41.713193664327264" lon="13.818610338494182">
        <ele>854.75</ele>
        <time>2017-06-18T10:27:08Z</time>
      </trkpt>
      <trkpt lat="41.713218474760652" lon="13.818601034581661">
        <ele>854.75</ele>
        <time>2017-06-18T10:27:10Z</time>
      </trkpt>
      <trkpt lat="41.713387705385685" lon="13.818482430651784">
        <ele>850.90002400000003</ele>
        <time>2017-06-18T10:27:24Z</time>
      </trkpt>
      <trkpt lat="41.713399859145284" lon="13.818402634933591">
        <ele>848.97997999999995</ele>
        <time>2017-06-18T10:27:30Z</time>
      </trkpt>
      <trkpt lat="41.713328529149294" lon="13.818317139521241">
        <ele>845.61999500000002</ele>
        <time>2017-06-18T10:27:41Z</time>
      </trkpt>
      <trkpt lat="41.713285613805056" lon="13.818271458148956">
        <ele>844.660034</ele>
        <time>2017-06-18T10:27:46Z</time>
      </trkpt>
      <trkpt lat="41.713208835572004" lon="13.818210605531931">
        <ele>843.21002199999998</ele>
        <time>2017-06-18T10:27:52Z</time>
      </trkpt>
      <trkpt lat="41.713028708472848" lon="13.818220579996705">
        <ele>841.28997800000002</ele>
        <time>2017-06-18T10:28:08Z</time>
      </trkpt>
      <trkpt lat="41.712807761505246" lon="13.818220160901546">
        <ele>838.88995399999999</ele>
        <time>2017-06-18T10:28:24Z</time>
      </trkpt>
      <trkpt lat="41.71280013397336" lon="13.818224938586354">
        <ele>838.40997300000004</ele>
        <time>2017-06-18T10:28:25Z</time>
      </trkpt>
      <trkpt lat="41.712775323539972" lon="13.818242037668824">
        <ele>837.93005400000004</ele>
        <time>2017-06-18T10:28:27Z</time>
      </trkpt>
      <trkpt lat="41.712638782337308" lon="13.818271290510893">
        <ele>836.47997999999995</ele>
        <time>2017-06-18T10:28:40Z</time>
      </trkpt>
      <trkpt lat="41.712584467604756" lon="13.818260226398706">
        <ele>835.51995799999997</ele>
        <time>2017-06-18T10:28:57Z</time>
      </trkpt>
      <trkpt lat="41.712552281096578" lon="13.818243378773332">
        <ele>835.03997800000002</ele>
        <time>2017-06-18T10:29:00Z</time>
      </trkpt>
      <trkpt lat="41.712508862838149" lon="13.818266512826085">
        <ele>834.56005900000002</ele>
        <time>2017-06-18T10:29:03Z</time>
      </trkpt>
      <trkpt lat="41.712398724630475" lon="13.818269865587354">
        <ele>833.60003700000004</ele>
        <time>2017-06-18T10:29:10Z</time>
      </trkpt>
      <trkpt lat="41.712247766554356" lon="13.81829266436398">
        <ele>830.71997099999999</ele>
        <time>2017-06-18T10:29:22Z</time>
      </trkpt>
      <trkpt lat="41.712190015241504" lon="13.818303141742945">
        <ele>829.76000999999997</ele>
        <time>2017-06-18T10:29:26Z</time>
      </trkpt>
      <trkpt lat="41.712060682475567" lon="13.818394923582673">
        <ele>826.86999500000002</ele>
        <time>2017-06-18T10:29:40Z</time>
      </trkpt>
      <trkpt lat="41.711896061897278" lon="13.818473210558295">
        <ele>825.90997300000004</ele>
        <time>2017-06-18T10:29:51Z</time>
      </trkpt>
      <trkpt lat="41.711731106042862" lon="13.818528363481164">
        <ele>823.51000999999997</ele>
        <time>2017-06-18T10:30:06Z</time>
      </trkpt>
      <trkpt lat="41.711708139628172" lon="13.818531297147274">
        <ele>823.51000999999997</ele>
        <time>2017-06-18T10:30:08Z</time>
      </trkpt>
      <trkpt lat="41.711526839062572" lon="13.818450663238764">
        <ele>820.14001499999995</ele>
        <time>2017-06-18T10:30:20Z</time>
      </trkpt>
      <trkpt lat="41.7113664932549" lon="13.818365335464478">
        <ele>817.26000999999997</ele>
        <time>2017-06-18T10:30:33Z</time>
      </trkpt>
      <trkpt lat="41.71122869476676" lon="13.818336669355631">
        <ele>814.36999500000002</ele>
        <time>2017-06-18T10:30:48Z</time>
      </trkpt>
      <trkpt lat="41.711217630654573" lon="13.818332981318235">
        <ele>813.88995399999999</ele>
        <time>2017-06-18T10:30:49Z</time>
      </trkpt>
      <trkpt lat="41.711178990080953" lon="13.818314122036099">
        <ele>813.40997300000004</ele>
        <time>2017-06-18T10:30:52Z</time>
      </trkpt>
      <trkpt lat="41.710934238508344" lon="13.818265926092863">
        <ele>811.01000999999997</ele>
        <time>2017-06-18T10:31:11Z</time>
      </trkpt>
      <trkpt lat="41.710710441693664" lon="13.818213874474168">
        <ele>807.64001499999995</ele>
        <time>2017-06-18T10:31:28Z</time>
      </trkpt>
      <trkpt lat="41.710684960708022" lon="13.818204822018743">
        <ele>807.64001499999995</ele>
        <time>2017-06-18T10:31:30Z</time>
      </trkpt>
      <trkpt lat="41.710472479462624" lon="13.818156374618411">
        <ele>805.23999000000003</ele>
        <time>2017-06-18T10:31:46Z</time>
      </trkpt>
      <trkpt lat="41.710310876369476" lon="13.818139862269163">
        <ele>802.84002699999996</ele>
        <time>2017-06-18T10:32:00Z</time>
      </trkpt>
      <trkpt lat="41.71014541760087" lon="13.818073309957981">
        <ele>800.44000200000005</ele>
        <time>2017-06-18T10:32:14Z</time>
      </trkpt>
      <trkpt lat="41.709985239431262" lon="13.818019833415747">
        <ele>797.54998799999998</ele>
        <time>2017-06-18T10:32:28Z</time>
      </trkpt>
      <trkpt lat="41.709923464804888" lon="13.817996112629771">
        <ele>796.10998500000005</ele>
        <time>2017-06-18T10:32:33Z</time>
      </trkpt>
      <trkpt lat="41.709962440654635" lon="13.817955125123262">
        <ele>794.19006300000001</ele>
        <time>2017-06-18T10:32:42Z</time>
      </trkpt>
      <trkpt lat="41.710192607715726" lon="13.817965602502227">
        <ele>792.73999000000003</ele>
        <time>2017-06-18T10:32:57Z</time>
      </trkpt>
      <trkpt lat="41.710375584661961" lon="13.817863510921597">
        <ele>789.86004600000001</ele>
        <time>2017-06-18T10:33:11Z</time>
      </trkpt>
      <trkpt lat="41.710449513047934" lon="13.817807100713253">
        <ele>789.38000499999998</ele>
        <time>2017-06-18T10:33:18Z</time>
      </trkpt>
      <trkpt lat="41.710584294050932" lon="13.817728310823441">
        <ele>788.90002400000003</ele>
        <time>2017-06-18T10:33:27Z</time>
      </trkpt>
      <trkpt lat="41.710832733660936" lon="13.817666871473193">
        <ele>788.419983</ele>
        <time>2017-06-18T10:33:40Z</time>
      </trkpt>
      <trkpt lat="41.71092577278614" lon="13.817591769620776">
        <ele>786.5</ele>
        <time>2017-06-18T10:33:50Z</time>
      </trkpt>
      <trkpt lat="41.710938010364771" lon="13.817586908116937">
        <ele>786.5</ele>
        <time>2017-06-18T10:33:51Z</time>
      </trkpt>
      <trkpt lat="41.710995258763433" lon="13.817544998601079">
        <ele>785.53002900000001</ele>
        <time>2017-06-18T10:33:56Z</time>
      </trkpt>
      <trkpt lat="41.711007328704" lon="13.817535107955337">
        <ele>785.04998799999998</ele>
        <time>2017-06-18T10:33:57Z</time>
      </trkpt>
      <trkpt lat="41.711019482463598" lon="13.817523792386055">
        <ele>784.57000700000003</ele>
        <time>2017-06-18T10:33:58Z</time>
      </trkpt>
      <trkpt lat="41.711032139137387" lon="13.817512895911932">
        <ele>784.57000700000003</ele>
        <time>2017-06-18T10:33:59Z</time>
      </trkpt>
      <trkpt lat="41.711044125258923" lon="13.817502167075872">
        <ele>784.089966</ele>
        <time>2017-06-18T10:34:00Z</time>
      </trkpt>
      <trkpt lat="41.71105376444757" lon="13.817490935325623">
        <ele>784.089966</ele>
        <time>2017-06-18T10:34:01Z</time>
      </trkpt>
      <trkpt lat="41.71106499619782" lon="13.81747710518539">
        <ele>784.089966</ele>
        <time>2017-06-18T10:34:02Z</time>
      </trkpt>
      <trkpt lat="41.711079999804497" lon="13.81746293976903">
        <ele>783.60998500000005</ele>
        <time>2017-06-18T10:34:03Z</time>
      </trkpt>
      <trkpt lat="41.71109726652503" lon="13.817448858171701">
        <ele>783.60998500000005</ele>
        <time>2017-06-18T10:34:04Z</time>
      </trkpt>
      <trkpt lat="41.711285021156073" lon="13.817283986136317">
        <ele>781.20996100000002</ele>
        <time>2017-06-18T10:34:18Z</time>
      </trkpt>
      <trkpt lat="41.711364565417171" lon="13.817162532359362">
        <ele>780.25</ele>
        <time>2017-06-18T10:34:26Z</time>
      </trkpt>
      <trkpt lat="41.711425166577101" lon="13.816972095519304">
        <ele>778.80999799999995</ele>
        <time>2017-06-18T10:34:38Z</time>
      </trkpt>
      <trkpt lat="41.711461711674929" lon="13.816783167421818">
        <ele>776.88000499999998</ele>
        <time>2017-06-18T10:34:54Z</time>
      </trkpt>
      <trkpt lat="41.711530359461904" lon="13.816564399749041">
        <ele>775.44000200000005</ele>
        <time>2017-06-18T10:35:08Z</time>
      </trkpt>
      <trkpt lat="41.711646532639861" lon="13.816371532157063">
        <ele>773.51995799999997</ele>
        <time>2017-06-18T10:35:24Z</time>
      </trkpt>
      <trkpt lat="41.711751138791442" lon="13.816198697313666">
        <ele>771.10998500000005</ele>
        <time>2017-06-18T10:35:37Z</time>
      </trkpt>
      <trkpt lat="41.711806878447533" lon="13.815995519980788">
        <ele>768.23004200000003</ele>
        <time>2017-06-18T10:35:50Z</time>
      </trkpt>
      <trkpt lat="41.71181408688426" lon="13.815850093960762">
        <ele>764.86999500000002</ele>
        <time>2017-06-18T10:35:59Z</time>
      </trkpt>
      <trkpt lat="41.711817607283592" lon="13.815801395103335">
        <ele>763.90002400000003</ele>
        <time>2017-06-18T10:36:02Z</time>
      </trkpt>
      <trkpt lat="41.711821462959051" lon="13.815784379839897">
        <ele>763.90002400000003</ele>
        <time>2017-06-18T10:36:03Z</time>
      </trkpt>
      <trkpt lat="41.711849458515644" lon="13.815639540553093">
        <ele>760.53997800000002</ele>
        <time>2017-06-18T10:36:11Z</time>
      </trkpt>
      <trkpt lat="41.711905868723989" lon="13.815538873896003">
        <ele>759.10003700000004</ele>
        <time>2017-06-18T10:36:26Z</time>
      </trkpt>
      <trkpt lat="41.711892038583755" lon="13.815540634095669">
        <ele>759.10003700000004</ele>
        <time>2017-06-18T10:36:29Z</time>
      </trkpt>
      <trkpt lat="41.711878795176744" lon="13.815533760935068">
        <ele>759.10003700000004</ele>
        <time>2017-06-18T10:36:30Z</time>
      </trkpt>
      <trkpt lat="41.711868401616812" lon="13.81552797742188">
        <ele>759.10003700000004</ele>
        <time>2017-06-18T10:36:31Z</time>
      </trkpt>
      <trkpt lat="41.711854739114642" lon="13.815522864460945">
        <ele>759.10003700000004</ele>
        <time>2017-06-18T10:36:32Z</time>
      </trkpt>
      <trkpt lat="41.711843591183424" lon="13.815517164766788">
        <ele>758.61993399999994</ele>
        <time>2017-06-18T10:36:33Z</time>
      </trkpt>
      <trkpt lat="41.711829593405128" lon="13.815509537234902">
        <ele>758.61993399999994</ele>
        <time>2017-06-18T10:36:34Z</time>
      </trkpt>
      <trkpt lat="41.711815930902958" lon="13.815500736236572">
        <ele>758.61993399999994</ele>
        <time>2017-06-18T10:36:35Z</time>
      </trkpt>
      <trkpt lat="41.711804531514645" lon="13.81549428217113">
        <ele>757.660034</ele>
        <time>2017-06-18T10:36:36Z</time>
      </trkpt>
      <trkpt lat="41.711789863184094" lon="13.815488833934069">
        <ele>757.660034</ele>
        <time>2017-06-18T10:36:37Z</time>
      </trkpt>
      <trkpt lat="41.711774272844195" lon="13.815483888611197">
        <ele>757.17999299999997</ele>
        <time>2017-06-18T10:36:38Z</time>
      </trkpt>
      <trkpt lat="41.711677964776754" lon="13.81545128300786">
        <ele>754.77002000000005</ele>
        <time>2017-06-18T10:36:45Z</time>
      </trkpt>
      <trkpt lat="41.711577381938696" lon="13.815389927476645">
        <ele>751.40997300000004</ele>
        <time>2017-06-18T10:36:57Z</time>
      </trkpt>
      <trkpt lat="41.711507141590118" lon="13.815362434834242">
        <ele>750.92999299999997</ele>
        <time>2017-06-18T10:37:12Z</time>
      </trkpt>
      <trkpt lat="41.711498759686947" lon="13.815355813130736">
        <ele>750.44995100000006</ele>
        <time>2017-06-18T10:37:13Z</time>
      </trkpt>
      <trkpt lat="41.711488282307982" lon="13.815349359065294">
        <ele>750.44995100000006</ele>
        <time>2017-06-18T10:37:14Z</time>
      </trkpt>
      <trkpt lat="41.711328104138374" lon="13.815272497013211">
        <ele>747.07995600000004</ele>
        <time>2017-06-18T10:37:28Z</time>
      </trkpt>
      <trkpt lat="41.711157029494643" lon="13.815250536426902">
        <ele>743.72003199999995</ele>
        <time>2017-06-18T10:37:43Z</time>
      </trkpt>
      <trkpt lat="41.711005317047238" lon="13.815230503678322">
        <ele>740.34997599999997</ele>
        <time>2017-06-18T10:37:58Z</time>
      </trkpt>
      <trkpt lat="41.71082217246294" lon="13.815199490636587">
        <ele>737.46997099999999</ele>
        <time>2017-06-18T10:38:12Z</time>
      </trkpt>
      <trkpt lat="41.710646403953433" lon="13.815139560028911">
        <ele>733.61999500000002</ele>
        <time>2017-06-18T10:38:26Z</time>
      </trkpt>
      <trkpt lat="41.710594771429896" lon="13.81512388586998">
        <ele>732.660034</ele>
        <time>2017-06-18T10:38:36Z</time>
      </trkpt>
      <trkpt lat="41.710620922967792" lon="13.815153641626239">
        <ele>732.660034</ele>
        <time>2017-06-18T10:38:56Z</time>
      </trkpt>
      <trkpt lat="41.710559818893671" lon="13.815052388235927">
        <ele>731.70001200000002</ele>
        <time>2017-06-18T10:39:15Z</time>
      </trkpt>
      <trkpt lat="41.710527129471302" lon="13.81502321921289">
        <ele>730.26000999999997</ele>
        <time>2017-06-18T10:39:18Z</time>
      </trkpt>
      <trkpt lat="41.710510868579149" lon="13.815005365759134">
        <ele>730.26000999999997</ele>
        <time>2017-06-18T10:39:20Z</time>
      </trkpt>
      <trkpt lat="41.710504833608866" lon="13.814992792904377">
        <ele>729.77996800000005</ele>
        <time>2017-06-18T10:39:21Z</time>
      </trkpt>
      <trkpt lat="41.710498463362455" lon="13.814979381859303">
        <ele>729.29998799999998</ele>
        <time>2017-06-18T10:39:22Z</time>
      </trkpt>
      <trkpt lat="41.710492260754108" lon="13.814961276948452">
        <ele>729.29998799999998</ele>
        <time>2017-06-18T10:39:23Z</time>
      </trkpt>
      <trkpt lat="41.710495110601187" lon="13.814893467351794">
        <ele>728.339966</ele>
        <time>2017-06-18T10:39:28Z</time>
      </trkpt>
      <trkpt lat="41.710501564666629" lon="13.814880223944783">
        <ele>728.339966</ele>
        <time>2017-06-18T10:39:29Z</time>
      </trkpt>
      <trkpt lat="41.710524279624224" lon="13.814856838434935">
        <ele>727.86004600000001</ele>
        <time>2017-06-18T10:39:31Z</time>
      </trkpt>
      <trkpt lat="41.710537103936076" lon="13.8148482888937">
        <ele>727.86004600000001</ele>
        <time>2017-06-18T10:39:32Z</time>
      </trkpt>
      <trkpt lat="41.710553532466292" lon="13.814848205074668">
        <ele>726.89001499999995</ele>
        <time>2017-06-18T10:39:34Z</time>
      </trkpt>
      <trkpt lat="41.710567865520716" lon="13.814842840656638">
        <ele>726.89001499999995</ele>
        <time>2017-06-18T10:39:35Z</time>
      </trkpt>
      <trkpt lat="41.710584377869964" lon="13.814837895333767">
        <ele>726.89001499999995</ele>
        <time>2017-06-18T10:39:36Z</time>
      </trkpt>
      <trkpt lat="41.710654115304351" lon="13.814830267801881">
        <ele>724.96997099999999</ele>
        <time>2017-06-18T10:39:41Z</time>
      </trkpt>
      <trkpt lat="41.710871960967779" lon="13.814796740189195">
        <ele>722.57000700000003</ele>
        <time>2017-06-18T10:39:56Z</time>
      </trkpt>
      <trkpt lat="41.710983021184802" lon="13.814733037725091">
        <ele>721.13000499999998</ele>
        <time>2017-06-18T10:40:05Z</time>
      </trkpt>
      <trkpt lat="41.710983607918024" lon="13.814714681357145">
        <ele>720.64996299999996</ele>
        <time>2017-06-18T10:40:06Z</time>
      </trkpt>
      <trkpt lat="41.710981260985136" lon="13.814689535647631">
        <ele>720.160034</ele>
        <time>2017-06-18T10:40:08Z</time>
      </trkpt>
      <trkpt lat="41.710960976779461" lon="13.814654583111405">
        <ele>719.20001200000002</ele>
        <time>2017-06-18T10:40:10Z</time>
      </trkpt>
      <trkpt lat="41.710742376744747" lon="13.81456146016717">
        <ele>716.32000700000003</ele>
        <time>2017-06-18T10:40:24Z</time>
      </trkpt>
      <trkpt lat="41.710537858307362" lon="13.814503373578191">
        <ele>712.94995100000006</ele>
        <time>2017-06-18T10:40:38Z</time>
      </trkpt>
      <trkpt lat="41.710365107282996" lon="13.81441880017519">
        <ele>709.59002699999996</ele>
        <time>2017-06-18T10:40:53Z</time>
      </trkpt>
      <trkpt lat="41.710312971845269" lon="13.814348392188549">
        <ele>708.63000499999998</ele>
        <time>2017-06-18T10:41:00Z</time>
      </trkpt>
      <trkpt lat="41.71029981225729" lon="13.814337830990553">
        <ele>708.63000499999998</ele>
        <time>2017-06-18T10:41:01Z</time>
      </trkpt>
      <trkpt lat="41.710286820307374" lon="13.814330035820603">
        <ele>708.63000499999998</ele>
        <time>2017-06-18T10:41:02Z</time>
      </trkpt>
      <trkpt lat="41.71009068377316" lon="13.814104059711099">
        <ele>707.19000200000005</ele>
        <time>2017-06-18T10:41:20Z</time>
      </trkpt>
      <trkpt lat="41.709976103156805" lon="13.813997860997915">
        <ele>703.82000700000003</ele>
        <time>2017-06-18T10:41:31Z</time>
      </trkpt>
      <trkpt lat="41.70988499186933" lon="13.813895937055349">
        <ele>701.42004399999996</ele>
        <time>2017-06-18T10:41:42Z</time>
      </trkpt>
      <trkpt lat="41.709781559184194" lon="13.813806669786572">
        <ele>699.97997999999995</ele>
        <time>2017-06-18T10:41:54Z</time>
      </trkpt>
      <trkpt lat="41.709648370742798" lon="13.813703237101436">
        <ele>698.53002900000001</ele>
        <time>2017-06-18T10:42:07Z</time>
      </trkpt>
      <trkpt lat="41.709572095423937" lon="13.813592763617635">
        <ele>697.57000700000003</ele>
        <time>2017-06-18T10:42:24Z</time>
      </trkpt>
      <trkpt lat="41.70949405990541" lon="13.813501065596938">
        <ele>695.64996299999996</ele>
        <time>2017-06-18T10:42:41Z</time>
      </trkpt>
      <trkpt lat="41.709369840100408" lon="13.813359411433339">
        <ele>693.24993900000004</ele>
        <time>2017-06-18T10:42:56Z</time>
      </trkpt>
      <trkpt lat="41.709342766553164" lon="13.813315406441689">
        <ele>692.77002000000005</ele>
        <time>2017-06-18T10:42:59Z</time>
      </trkpt>
      <trkpt lat="41.709201615303755" lon="13.813042407855392">
        <ele>690.36004600000001</ele>
        <time>2017-06-18T10:43:15Z</time>
      </trkpt>
      <trkpt lat="41.70912173576653" lon="13.812951799482107">
        <ele>687.96002199999998</ele>
        <time>2017-06-18T10:43:26Z</time>
      </trkpt>
      <trkpt lat="41.708959965035319" lon="13.812811737880111">
        <ele>686.52002000000005</ele>
        <time>2017-06-18T10:43:39Z</time>
      </trkpt>
      <trkpt lat="41.708930460736156" lon="13.812768403440714">
        <ele>686.52002000000005</ele>
        <time>2017-06-18T10:43:44Z</time>
      </trkpt>
      <trkpt lat="41.708903219550848" lon="13.812769912183285">
        <ele>686.52002000000005</ele>
        <time>2017-06-18T10:43:49Z</time>
      </trkpt>
      <trkpt lat="41.708890730515122" lon="13.812762536108494">
        <ele>686.52002000000005</ele>
        <time>2017-06-18T10:43:50Z</time>
      </trkpt>
      <trkpt lat="41.708855526521802" lon="13.812746275216341">
        <ele>686.52002000000005</ele>
        <time>2017-06-18T10:43:53Z</time>
      </trkpt>
      <trkpt lat="41.70877723954618" lon="13.812762033194304">
        <ele>686.52002000000005</ele>
        <time>2017-06-18T10:44:05Z</time>
      </trkpt>
      <trkpt lat="41.708698868751526" lon="13.812843086197972">
        <ele>686.52002000000005</ele>
        <time>2017-06-18T10:44:18Z</time>
      </trkpt>
      <trkpt lat="41.708531314507127" lon="13.812970826402307">
        <ele>686.03997800000002</ele>
        <time>2017-06-18T10:44:32Z</time>
      </trkpt>
      <trkpt lat="41.708462834358215" lon="13.81317526102066">
        <ele>686.03997800000002</ele>
        <time>2017-06-18T10:44:45Z</time>
      </trkpt>
      <trkpt lat="41.708460319787264" lon="13.813239382579923">
        <ele>686.03997800000002</ele>
        <time>2017-06-18T10:44:48Z</time>
      </trkpt>
      <trkpt lat="41.708461241796613" lon="13.813308868557215">
        <ele>686.03997800000002</ele>
        <time>2017-06-18T10:44:52Z</time>
      </trkpt>
      <trkpt lat="41.70843131840229" lon="13.813367877155542">
        <ele>686.03997800000002</ele>
        <time>2017-06-18T10:44:55Z</time>
      </trkpt>
      <trkpt lat="41.70839267782867" lon="13.813523780554533">
        <ele>686.03997800000002</ele>
        <time>2017-06-18T10:45:05Z</time>
      </trkpt>
      <trkpt lat="41.708401059731841" lon="13.813545573502779">
        <ele>686.03997800000002</ele>
        <time>2017-06-18T10:45:07Z</time>
      </trkpt>
      <trkpt lat="41.708405585959554" lon="13.813571138307452">
        <ele>686.03997800000002</ele>
        <time>2017-06-18T10:45:09Z</time>
      </trkpt>
      <trkpt lat="41.708415476605296" lon="13.813588069751859">
        <ele>687.47997999999995</ele>
        <time>2017-06-18T10:45:11Z</time>
      </trkpt>
      <trkpt lat="41.708416566252708" lon="13.813598966225982">
        <ele>687.96002199999998</ele>
        <time>2017-06-18T10:45:12Z</time>
      </trkpt>
      <trkpt lat="41.708463840186596" lon="13.813635259866714">
        <ele>687.47997999999995</ele>
        <time>2017-06-18T10:45:30Z</time>
      </trkpt>
      <trkpt lat="41.708390079438686" lon="13.813562840223312">
        <ele>687</ele>
        <time>2017-06-18T10:45:53Z</time>
      </trkpt>
      <trkpt lat="41.708345739170909" lon="13.813552195206285">
        <ele>687</ele>
        <time>2017-06-18T10:45:54Z</time>
      </trkpt>
      <trkpt lat="41.708291592076421" lon="13.813457060605288">
        <ele>687</ele>
        <time>2017-06-18T10:45:59Z</time>
      </trkpt>
      <trkpt lat="41.708285640925169" lon="13.813436022028327">
        <ele>685.55999799999995</ele>
        <time>2017-06-18T10:46:02Z</time>
      </trkpt>
      <trkpt lat="41.708378093317151" lon="13.81327198818326">
        <ele>685.07995600000004</ele>
        <time>2017-06-18T10:46:14Z</time>
      </trkpt>
      <trkpt lat="41.708392929285765" lon="13.813237119466066">
        <ele>684.59997599999997</ele>
        <time>2017-06-18T10:46:17Z</time>
      </trkpt>
      <trkpt lat="41.708397539332509" lon="13.813189091160893">
        <ele>684.59997599999997</ele>
        <time>2017-06-18T10:46:20Z</time>
      </trkpt>
      <trkpt lat="41.708473479375243" lon="13.813102506101131">
        <ele>684.12005599999998</ele>
        <time>2017-06-18T10:46:27Z</time>
      </trkpt>
      <trkpt lat="41.708581186830997" lon="13.812993038445711">
        <ele>683.63000499999998</ele>
        <time>2017-06-18T10:46:41Z</time>
      </trkpt>
      <trkpt lat="41.708610188215971" lon="13.81295339204371">
        <ele>683.63000499999998</ele>
        <time>2017-06-18T10:46:46Z</time>
      </trkpt>
      <trkpt lat="41.708670035004616" lon="13.812864376232028">
        <ele>684.59997599999997</ele>
        <time>2017-06-18T10:46:56Z</time>
      </trkpt>
      <trkpt lat="41.708651091903448" lon="13.812815677374601">
        <ele>683.14996299999996</ele>
        <time>2017-06-18T10:47:01Z</time>
      </trkpt>
      <trkpt lat="41.708652516826987" lon="13.812858173623681">
        <ele>683.14996299999996</ele>
        <time>2017-06-18T10:47:08Z</time>
      </trkpt>
      <trkpt lat="41.708534164354205" lon="13.812969233840704">
        <ele>683.14996299999996</ele>
        <time>2017-06-18T10:47:17Z</time>
      </trkpt>
      <trkpt lat="41.708477418869734" lon="13.813019525259733">
        <ele>682.669983</ele>
        <time>2017-06-18T10:47:27Z</time>
      </trkpt>
      <trkpt lat="41.708526033908129" lon="13.812953308224678">
        <ele>684.12005599999998</ele>
        <time>2017-06-18T10:48:50Z</time>
      </trkpt>
      <trkpt lat="41.708489237353206" lon="13.812928162515163">
        <ele>684.12005599999998</ele>
        <time>2017-06-18T10:48:53Z</time>
      </trkpt>
      <trkpt lat="41.708432324230671" lon="13.813178613781929">
        <ele>684.12005599999998</ele>
        <time>2017-06-18T10:49:08Z</time>
      </trkpt>
      <trkpt lat="41.708426624536514" lon="13.813295960426331">
        <ele>684.12005599999998</ele>
        <time>2017-06-18T10:49:21Z</time>
      </trkpt>
      <trkpt lat="41.708390330895782" lon="13.813400734215975">
        <ele>684.12005599999998</ele>
        <time>2017-06-18T10:49:34Z</time>
      </trkpt>
      <trkpt lat="41.708338363096118" lon="13.813482709228992">
        <ele>684.12005599999998</ele>
        <time>2017-06-18T10:49:47Z</time>
      </trkpt>
      <trkpt lat="41.708272900432348" lon="13.813564013689756">
        <ele>684.12005599999998</ele>
        <time>2017-06-18T10:50:03Z</time>
      </trkpt>
      <trkpt lat="41.708215484395623" lon="13.81355538032949">
        <ele>684.12005599999998</ele>
        <time>2017-06-18T10:50:16Z</time>
      </trkpt>
      <trkpt lat="41.708240294829011" lon="13.81349871866405">
        <ele>684.12005599999998</ele>
        <time>2017-06-18T10:50:37Z</time>
      </trkpt>
      <trkpt lat="41.708233337849379" lon="13.813487319275737">
        <ele>684.12005599999998</ele>
        <time>2017-06-18T10:50:52Z</time>
      </trkpt>
      <trkpt lat="41.708221938461065" lon="13.813495030626655">
        <ele>684.12005599999998</ele>
        <time>2017-06-18T10:50:56Z</time>
      </trkpt>
      <trkpt lat="41.708193188533187" lon="13.813455635681748">
        <ele>682.669983</ele>
        <time>2017-06-18T10:51:02Z</time>
      </trkpt>
      <trkpt lat="41.708177598193288" lon="13.813441134989262">
        <ele>681.70996100000002</ele>
        <time>2017-06-18T10:51:06Z</time>
      </trkpt>
      <trkpt lat="41.708052037283778" lon="13.813548758625984">
        <ele>679.79003899999998</ele>
        <time>2017-06-18T10:51:23Z</time>
      </trkpt>
      <trkpt lat="41.707970565184951" lon="13.813635008409619">
        <ele>678.830017</ele>
        <time>2017-06-18T10:51:32Z</time>
      </trkpt>
      <trkpt lat="41.707835365086794" lon="13.813776494935155">
        <ele>677.86999500000002</ele>
        <time>2017-06-18T10:51:44Z</time>
      </trkpt>
      <trkpt lat="41.707789599895477" lon="13.81381630897522">
        <ele>677.39001499999995</ele>
        <time>2017-06-18T10:51:48Z</time>
      </trkpt>
      <trkpt lat="41.707663787528872" lon="13.8139951787889">
        <ele>675.94000200000005</ele>
        <time>2017-06-18T10:52:02Z</time>
      </trkpt>
      <trkpt lat="41.707528503611684" lon="13.814213611185551">
        <ele>674.5</ele>
        <time>2017-06-18T10:52:16Z</time>
      </trkpt>
      <trkpt lat="41.707400428131223" lon="13.814419135451317">
        <ele>672.57995600000004</ele>
        <time>2017-06-18T10:52:31Z</time>
      </trkpt>
      <trkpt lat="41.707414258271456" lon="13.814515862613916">
        <ele>672.09997599999997</ele>
        <time>2017-06-18T10:52:43Z</time>
      </trkpt>
      <trkpt lat="41.707352232187986" lon="13.814375717192888">
        <ele>671.62005599999998</ele>
        <time>2017-06-18T10:53:11Z</time>
      </trkpt>
      <trkpt lat="41.707319961860776" lon="13.814313774928451">
        <ele>671.62005599999998</ele>
        <time>2017-06-18T10:53:38Z</time>
      </trkpt>
      <trkpt lat="41.707307221367955" lon="13.814333137124777">
        <ele>671.62005599999998</ele>
        <time>2017-06-18T10:54:03Z</time>
      </trkpt>
      <trkpt lat="41.707328930497169" lon="13.81434696726501">
        <ele>671.13995399999999</ele>
        <time>2017-06-18T10:54:13Z</time>
      </trkpt>
      <trkpt lat="41.707378886640072" lon="13.814283013343811">
        <ele>672.57995600000004</ele>
        <time>2017-06-18T10:54:23Z</time>
      </trkpt>
      <trkpt lat="41.707544093951583" lon="13.814088637009263">
        <ele>674.02002000000005</ele>
        <time>2017-06-18T10:54:39Z</time>
      </trkpt>
      <trkpt lat="41.70768516138196" lon="13.813922507688403">
        <ele>674.5</ele>
        <time>2017-06-18T10:54:53Z</time>
      </trkpt>
      <trkpt lat="41.707757413387299" lon="13.813805496320128">
        <ele>676.42004399999996</ele>
        <time>2017-06-18T10:55:03Z</time>
      </trkpt>
      <trkpt lat="41.707877526059747" lon="13.813698040321469">
        <ele>676.42004399999996</ele>
        <time>2017-06-18T10:55:17Z</time>
      </trkpt>
      <trkpt lat="41.707884734496474" lon="13.8136878143996">
        <ele>676.90997300000004</ele>
        <time>2017-06-18T10:55:18Z</time>
      </trkpt>
      <trkpt lat="41.707950616255403" lon="13.813632829114795">
        <ele>677.39001499999995</ele>
        <time>2017-06-18T10:55:26Z</time>
      </trkpt>
      <trkpt lat="41.707969475537539" lon="13.813607264310122">
        <ele>677.86999500000002</ele>
        <time>2017-06-18T10:55:28Z</time>
      </trkpt>
      <trkpt lat="41.708100065588951" lon="13.813482038676739">
        <ele>678.35003700000004</ele>
        <time>2017-06-18T10:55:42Z</time>
      </trkpt>
      <trkpt lat="41.708106435835361" lon="13.813469465821981">
        <ele>678.35003700000004</ele>
        <time>2017-06-18T10:55:43Z</time>
      </trkpt>
      <trkpt lat="41.708150776103139" lon="13.813404589891434">
        <ele>678.830017</ele>
        <time>2017-06-18T10:55:48Z</time>
      </trkpt>
      <trkpt lat="41.708255801349878" lon="13.813426215201616">
        <ele>680.27002000000005</ele>
        <time>2017-06-18T10:56:00Z</time>
      </trkpt>
      <trkpt lat="41.708271140232682" lon="13.81342101842165">
        <ele>680.74993900000004</ele>
        <time>2017-06-18T10:56:11Z</time>
      </trkpt>
      <trkpt lat="41.708252783864737" lon="13.813406936824322">
        <ele>680.74993900000004</ele>
        <time>2017-06-18T10:56:33Z</time>
      </trkpt>
      <trkpt lat="41.708261584863067" lon="13.813424622640014">
        <ele>680.27002000000005</ele>
        <time>2017-06-18T10:56:51Z</time>
      </trkpt>
      <trkpt lat="41.708258064463735" lon="13.813469465821981">
        <ele>680.27002000000005</ele>
        <time>2017-06-18T10:57:12Z</time>
      </trkpt>
      <trkpt lat="41.708259237930179" lon="13.813489666208625">
        <ele>680.27002000000005</ele>
        <time>2017-06-18T10:57:37Z</time>
      </trkpt>
      <trkpt lat="41.708261501044035" lon="13.813476674258709">
        <ele>680.74993900000004</ele>
        <time>2017-06-18T10:57:50Z</time>
      </trkpt>
      <trkpt lat="41.70826812274754" lon="13.813495533540845">
        <ele>680.74993900000004</ele>
        <time>2017-06-18T10:58:08Z</time>
      </trkpt>
      <trkpt lat="41.708256304264069" lon="13.813528893515468">
        <ele>679.30999799999995</ele>
        <time>2017-06-18T10:58:37Z</time>
      </trkpt>
      <trkpt lat="41.708239708095789" lon="13.813510704785585">
        <ele>679.30999799999995</ele>
        <time>2017-06-18T10:59:01Z</time>
      </trkpt>
      <trkpt lat="41.708253370597959" lon="13.813528390601277">
        <ele>679.30999799999995</ele>
        <time>2017-06-18T10:59:22Z</time>
      </trkpt>
      <trkpt lat="41.708231410011649" lon="13.813612964004278">
        <ele>679.79003899999998</ele>
        <time>2017-06-18T10:59:50Z</time>
      </trkpt>
      <trkpt lat="41.708260579034686" lon="13.813557559624314">
        <ele>679.79003899999998</ele>
        <time>2017-06-18T11:00:07Z</time>
      </trkpt>
      <trkpt lat="41.708246665075421" lon="13.813531324267387">
        <ele>679.79003899999998</ele>
        <time>2017-06-18T11:00:25Z</time>
      </trkpt>
      <trkpt lat="41.708273570984602" lon="13.813525708392262">
        <ele>679.79003899999998</ele>
        <time>2017-06-18T11:00:51Z</time>
      </trkpt>
      <trkpt lat="41.708278432488441" lon="13.813483463600278">
        <ele>680.27002000000005</ele>
        <time>2017-06-18T11:01:25Z</time>
      </trkpt>
      <trkpt lat="41.708262339234352" lon="13.813501903787255">
        <ele>680.27002000000005</ele>
        <time>2017-06-18T11:01:48Z</time>
      </trkpt>
      <trkpt lat="41.708257896825671" lon="13.813511459156871">
        <ele>680.27002000000005</ele>
        <time>2017-06-18T11:02:07Z</time>
      </trkpt>
      <trkpt lat="41.708250436931849" lon="13.813518835231662">
        <ele>680.27002000000005</ele>
        <time>2017-06-18T11:02:33Z</time>
      </trkpt>
      <trkpt lat="41.708239959552884" lon="13.8135324139148">
        <ele>680.27002000000005</ele>
        <time>2017-06-18T11:02:57Z</time>
      </trkpt>
      <trkpt lat="41.70823828317225" lon="13.813509782776237">
        <ele>680.74993900000004</ele>
        <time>2017-06-18T11:03:13Z</time>
      </trkpt>
      <trkpt lat="41.708252616226673" lon="13.813495114445686">
        <ele>680.74993900000004</ele>
        <time>2017-06-18T11:03:39Z</time>
      </trkpt>
      <trkpt lat="41.708295783028007" lon="13.813466699793935">
        <ele>680.74993900000004</ele>
        <time>2017-06-18T11:04:01Z</time>
      </trkpt>
      <trkpt lat="41.708297794684768" lon="13.813488241285086">
        <ele>680.74993900000004</ele>
        <time>2017-06-18T11:04:18Z</time>
      </trkpt>
      <trkpt lat="41.708299973979592" lon="13.813479440286756">
        <ele>682.19000200000005</ele>
        <time>2017-06-18T11:04:25Z</time>
      </trkpt>
      <trkpt lat="41.708289161324501" lon="13.813474997878075">
        <ele>682.19000200000005</ele>
        <time>2017-06-18T11:04:37Z</time>
      </trkpt>
      <trkpt lat="41.708233589306474" lon="13.813477763906121">
        <ele>681.22997999999995</ele>
        <time>2017-06-18T11:04:52Z</time>
      </trkpt>
      <trkpt lat="41.708201989531517" lon="13.813471226021647">
        <ele>679.30999799999995</ele>
        <time>2017-06-18T11:04:59Z</time>
      </trkpt>
      <trkpt lat="41.708175167441368" lon="13.81348111666739">
        <ele>678.830017</ele>
        <time>2017-06-18T11:05:02Z</time>
      </trkpt>
      <trkpt lat="41.708098389208317" lon="13.813541634008288">
        <ele>678.35003700000004</ele>
        <time>2017-06-18T11:05:12Z</time>
      </trkpt>
      <trkpt lat="41.707999315112829" lon="13.813645988702774">
        <ele>677.39001499999995</ele>
        <time>2017-06-18T11:05:27Z</time>
      </trkpt>
      <trkpt lat="41.707876604050398" lon="13.813711870461702">
        <ele>676.42004399999996</ele>
        <time>2017-06-18T11:05:43Z</time>
      </trkpt>
      <trkpt lat="41.707788594067097" lon="13.813805161044002">
        <ele>675.46002199999998</ele>
        <time>2017-06-18T11:05:56Z</time>
      </trkpt>
      <trkpt lat="41.707784989848733" lon="13.813818488270044">
        <ele>675.46002199999998</ele>
        <time>2017-06-18T11:05:57Z</time>
      </trkpt>
      <trkpt lat="41.707731513306499" lon="13.813919238746166">
        <ele>674.02002000000005</ele>
        <time>2017-06-18T11:06:06Z</time>
      </trkpt>
      <trkpt lat="41.70765146613121" lon="13.814057791605592">
        <ele>673.53997800000002</ele>
        <time>2017-06-18T11:06:18Z</time>
      </trkpt>
      <trkpt lat="41.707563288509846" lon="13.814169438555837">
        <ele>672.57995600000004</ele>
        <time>2017-06-18T11:06:30Z</time>
      </trkpt>
      <trkpt lat="41.707492964342237" lon="13.814259711652994">
        <ele>671.62005599999998</ele>
        <time>2017-06-18T11:06:38Z</time>
      </trkpt>
      <trkpt lat="41.707444936037064" lon="13.814323078840971">
        <ele>671.13995399999999</ele>
        <time>2017-06-18T11:06:44Z</time>
      </trkpt>
      <trkpt lat="41.707423478364944" lon="13.814339088276029">
        <ele>670.660034</ele>
        <time>2017-06-18T11:06:46Z</time>
      </trkpt>
      <trkpt lat="41.70729523524642" lon="13.814473282545805">
        <ele>669.70001200000002</ele>
        <time>2017-06-18T11:06:59Z</time>
      </trkpt>
      <trkpt lat="41.707268916070461" lon="13.81448526866734">
        <ele>669.70001200000002</ele>
        <time>2017-06-18T11:07:02Z</time>
      </trkpt>
      <trkpt lat="41.707189539447427" lon="13.8145184610039">
        <ele>668.72997999999995</ele>
        <time>2017-06-18T11:07:09Z</time>
      </trkpt>
      <trkpt lat="41.707096919417381" lon="13.814590964466333">
        <ele>668.24993900000004</ele>
        <time>2017-06-18T11:07:18Z</time>
      </trkpt>
      <trkpt lat="41.707077641040087" lon="13.814596831798553">
        <ele>668.24993900000004</ele>
        <time>2017-06-18T11:07:20Z</time>
      </trkpt>
      <trkpt lat="41.707032462581992" lon="13.814596999436617">
        <ele>668.24993900000004</ele>
        <time>2017-06-18T11:07:25Z</time>
      </trkpt>
      <trkpt lat="41.70698493719101" lon="13.814507061615586">
        <ele>668.24993900000004</ele>
        <time>2017-06-18T11:07:37Z</time>
      </trkpt>
      <trkpt lat="41.706916959956288" lon="13.814419638365507">
        <ele>667.77002000000005</ele>
        <time>2017-06-18T11:07:49Z</time>
      </trkpt>
      <trkpt lat="41.70687597244978" lon="13.814386613667011">
        <ele>666.80999799999995</ele>
        <time>2017-06-18T11:07:55Z</time>
      </trkpt>
      <trkpt lat="41.706854933872819" lon="13.814315535128117">
        <ele>666.330017</ele>
        <time>2017-06-18T11:08:09Z</time>
      </trkpt>
      <trkpt lat="41.706848563626409" lon="13.81433917209506">
        <ele>666.330017</ele>
        <time>2017-06-18T11:08:12Z</time>
      </trkpt>
      <trkpt lat="41.706860130652785" lon="13.814530866220593">
        <ele>666.330017</ele>
        <time>2017-06-18T11:08:26Z</time>
      </trkpt>
      <trkpt lat="41.706842109560966" lon="13.814555341377854">
        <ele>665.36999500000002</ele>
        <time>2017-06-18T11:08:30Z</time>
      </trkpt>
      <trkpt lat="41.706797936931252" lon="13.814486777409911">
        <ele>664.40997300000004</ele>
        <time>2017-06-18T11:08:38Z</time>
      </trkpt>
      <trkpt lat="41.706792488694191" lon="13.814399773254991">
        <ele>663.45001200000002</ele>
        <time>2017-06-18T11:08:44Z</time>
      </trkpt>
      <trkpt lat="41.70675971545279" lon="13.814276810735464">
        <ele>663.45001200000002</ele>
        <time>2017-06-18T11:08:54Z</time>
      </trkpt>
      <trkpt lat="41.706779999658465" lon="13.81412073969841">
        <ele>662.48999000000003</ele>
        <time>2017-06-18T11:09:08Z</time>
      </trkpt>
      <trkpt lat="41.706780837848783" lon="13.814049325883389">
        <ele>662.00994900000001</ele>
        <time>2017-06-18T11:09:22Z</time>
      </trkpt>
    </trkseg>
  </trk>

</gpx>
